<?xml version="1.0" encoding="UTF-8"?>
<gpx version="1.1" creator="https://www.youtrack.es" xsi:schemaLocation="http://www.topografix.com/GPX/1/1 http://www.topografix.com/GPX/1/1/gpx.xsd http://www.garmin.com/xmlschemas/GpxExtensions/v3 http://www.garmin.com/xmlschemas/GpxExtensionsv3.xsd http://www.garmin.com/xmlschemas/TrackPointExtension/v1 http://www.garmin.com/xmlschemas/TrackPointExtensionv1.xsd" xmlns:gpxtpx="http://www.garmin.com/xmlschemas/TrackPointExtension/v1" xmlns:gpxx="http://www.garmin.com/xmlschemas/GpxExtensions/v3" xmlns:xsi="http://www.w3.org/2001/XMLSchema-instance">
  <metadata>
    <author>
      <name>Joaquim Santos</name>
      <email id="quimis" domain="meo.pt"/>
    </author>
    <link href="https://www.youtrack.es">
      <text>YouTrack.es</text>
    </link>
    <time>2026-05-07T18:33:02Z</time>
  </metadata>
  <trk>
    <src>https://www.youtrack.es</src>
    <link href="https://www.youtrack.es/ruta/6128-x-4-dias-tcq-2019">
      <text>YouTrack.es</text>
    </link>
    <trkseg>
      <trkpt lat="40.359024" lon="-7.348717">
        <ele>606.031</ele>
        <time>2019-05-28T18:37:02Z</time>
      </trkpt>
      <trkpt lat="40.359494" lon="-7.348674">
        <ele>606.061</ele>
        <time>2019-05-28T18:37:14Z</time>
      </trkpt>
      <trkpt lat="40.359569" lon="-7.348638">
        <ele>605.007</ele>
        <time>2019-05-28T18:37:16Z</time>
      </trkpt>
      <trkpt lat="40.359904" lon="-7.348201">
        <ele>600.008</ele>
        <time>2019-05-28T18:37:29Z</time>
      </trkpt>
      <trkpt lat="40.360053" lon="-7.348249">
        <ele>596.026</ele>
        <time>2019-05-28T18:37:33Z</time>
      </trkpt>
      <trkpt lat="40.360114" lon="-7.348432">
        <ele>593.089</ele>
        <time>2019-05-28T18:37:37Z</time>
      </trkpt>
      <trkpt lat="40.360069" lon="-7.348762">
        <ele>592.012</ele>
        <time>2019-05-28T18:37:44Z</time>
      </trkpt>
      <trkpt lat="40.360210" lon="-7.348614">
        <ele>590.090</ele>
        <time>2019-05-28T18:37:49Z</time>
      </trkpt>
      <trkpt lat="40.360388" lon="-7.348252">
        <ele>589.077</ele>
        <time>2019-05-28T18:37:57Z</time>
      </trkpt>
      <trkpt lat="40.360425" lon="-7.348032">
        <ele>589.028</ele>
        <time>2019-05-28T18:38:02Z</time>
      </trkpt>
      <trkpt lat="40.360456" lon="-7.347222">
        <ele>584.075</ele>
        <time>2019-05-28T18:38:18Z</time>
      </trkpt>
      <trkpt lat="40.360503" lon="-7.347230">
        <ele>583.016</ele>
        <time>2019-05-28T18:38:20Z</time>
      </trkpt>
      <trkpt lat="40.360840" lon="-7.347698">
        <ele>581.014</ele>
        <time>2019-05-28T18:38:33Z</time>
      </trkpt>
      <trkpt lat="40.360946" lon="-7.347763">
        <ele>580.054</ele>
        <time>2019-05-28T18:38:36Z</time>
      </trkpt>
      <trkpt lat="40.361292" lon="-7.347686">
        <ele>578.009</ele>
        <time>2019-05-28T18:38:45Z</time>
      </trkpt>
      <trkpt lat="40.361465" lon="-7.348432">
        <ele>571.008</ele>
        <time>2019-05-28T18:39:01Z</time>
      </trkpt>
      <trkpt lat="40.362155" lon="-7.348960">
        <ele>556.054</ele>
        <time>2019-05-28T18:39:22Z</time>
      </trkpt>
      <trkpt lat="40.362685" lon="-7.349053">
        <ele>546.077</ele>
        <time>2019-05-28T18:39:37Z</time>
      </trkpt>
      <trkpt lat="40.362925" lon="-7.349129">
        <ele>542.050</ele>
        <time>2019-05-28T18:39:43Z</time>
      </trkpt>
      <trkpt lat="40.363078" lon="-7.349232">
        <ele>540.038</ele>
        <time>2019-05-28T18:39:48Z</time>
      </trkpt>
      <trkpt lat="40.363340" lon="-7.349156">
        <ele>536.015</ele>
        <time>2019-05-28T18:39:55Z</time>
      </trkpt>
      <trkpt lat="40.364025" lon="-7.349699">
        <ele>524.086</ele>
        <time>2019-05-28T18:40:16Z</time>
      </trkpt>
      <trkpt lat="40.364143" lon="-7.349875">
        <ele>522.073</ele>
        <time>2019-05-28T18:40:21Z</time>
      </trkpt>
      <trkpt lat="40.364243" lon="-7.350813">
        <ele>512.084</ele>
        <time>2019-05-28T18:40:41Z</time>
      </trkpt>
      <trkpt lat="40.364370" lon="-7.351401">
        <ele>509.016</ele>
        <time>2019-05-28T18:40:53Z</time>
      </trkpt>
      <trkpt lat="40.364605" lon="-7.351833">
        <ele>501.076</ele>
        <time>2019-05-28T18:41:04Z</time>
      </trkpt>
      <trkpt lat="40.364641" lon="-7.351972">
        <ele>499.013</ele>
        <time>2019-05-28T18:41:07Z</time>
      </trkpt>
      <trkpt lat="40.364542" lon="-7.352236">
        <ele>498.008</ele>
        <time>2019-05-28T18:41:13Z</time>
      </trkpt>
      <trkpt lat="40.364324" lon="-7.352678">
        <ele>497.034</ele>
        <time>2019-05-28T18:41:23Z</time>
      </trkpt>
      <trkpt lat="40.364077" lon="-7.353033">
        <ele>494.097</ele>
        <time>2019-05-28T18:41:33Z</time>
      </trkpt>
      <trkpt lat="40.363575" lon="-7.353528">
        <ele>495.040</ele>
        <time>2019-05-28T18:41:50Z</time>
      </trkpt>
      <trkpt lat="40.363297" lon="-7.353880">
        <ele>498.038</ele>
        <time>2019-05-28T18:42:00Z</time>
      </trkpt>
      <trkpt lat="40.363174" lon="-7.354155">
        <ele>496.065</ele>
        <time>2019-05-28T18:42:07Z</time>
      </trkpt>
      <trkpt lat="40.363189" lon="-7.354376">
        <ele>493.046</ele>
        <time>2019-05-28T18:42:11Z</time>
      </trkpt>
      <trkpt lat="40.363125" lon="-7.354649">
        <ele>490.053</ele>
        <time>2019-05-28T18:42:17Z</time>
      </trkpt>
      <trkpt lat="40.363018" lon="-7.354895">
        <ele>488.084</ele>
        <time>2019-05-28T18:42:23Z</time>
      </trkpt>
      <trkpt lat="40.362764" lon="-7.355247">
        <ele>487.012</ele>
        <time>2019-05-28T18:42:33Z</time>
      </trkpt>
      <trkpt lat="40.362735" lon="-7.355476">
        <ele>485.032</ele>
        <time>2019-05-28T18:42:37Z</time>
      </trkpt>
      <trkpt lat="40.362812" lon="-7.355581">
        <ele>483.005</ele>
        <time>2019-05-28T18:42:40Z</time>
      </trkpt>
      <trkpt lat="40.363139" lon="-7.355557">
        <ele>478.008</ele>
        <time>2019-05-28T18:42:49Z</time>
      </trkpt>
      <trkpt lat="40.363282" lon="-7.355660">
        <ele>475.074</ele>
        <time>2019-05-28T18:42:53Z</time>
      </trkpt>
      <trkpt lat="40.363767" lon="-7.356132">
        <ele>468.077</ele>
        <time>2019-05-28T18:43:10Z</time>
      </trkpt>
      <trkpt lat="40.363935" lon="-7.356216">
        <ele>467.020</ele>
        <time>2019-05-28T18:43:14Z</time>
      </trkpt>
      <trkpt lat="40.363995" lon="-7.356427">
        <ele>465.068</ele>
        <time>2019-05-28T18:43:19Z</time>
      </trkpt>
      <trkpt lat="40.364090" lon="-7.356593">
        <ele>463.025</ele>
        <time>2019-05-28T18:43:23Z</time>
      </trkpt>
      <trkpt lat="40.365402" lon="-7.357844">
        <ele>462.086</ele>
        <time>2019-05-28T18:44:06Z</time>
      </trkpt>
      <trkpt lat="40.366675" lon="-7.359096">
        <ele>461.013</ele>
        <time>2019-05-28T18:44:49Z</time>
      </trkpt>
      <trkpt lat="40.366853" lon="-7.359091">
        <ele>461.054</ele>
        <time>2019-05-28T18:44:54Z</time>
      </trkpt>
      <trkpt lat="40.366961" lon="-7.359236">
        <ele>461.074</ele>
        <time>2019-05-28T18:44:58Z</time>
      </trkpt>
      <trkpt lat="40.367047" lon="-7.359515">
        <ele>462.056</ele>
        <time>2019-05-28T18:45:04Z</time>
      </trkpt>
      <trkpt lat="40.372521" lon="-7.365265">
        <ele>473.021</ele>
        <time>2019-05-28T18:48:11Z</time>
      </trkpt>
      <trkpt lat="40.372758" lon="-7.365609">
        <ele>475.008</ele>
        <time>2019-05-28T18:48:21Z</time>
      </trkpt>
      <trkpt lat="40.373388" lon="-7.367164">
        <ele>477.080</ele>
        <time>2019-05-28T18:48:56Z</time>
      </trkpt>
      <trkpt lat="40.374491" lon="-7.365451">
        <ele>476.053</ele>
        <time>2019-05-28T18:49:42Z</time>
      </trkpt>
      <trkpt lat="40.374799" lon="-7.364623">
        <ele>477.066</ele>
        <time>2019-05-28T18:50:01Z</time>
      </trkpt>
      <trkpt lat="40.374869" lon="-7.362786">
        <ele>474.014</ele>
        <time>2019-05-28T18:50:38Z</time>
      </trkpt>
      <trkpt lat="40.375231" lon="-7.362225">
        <ele>475.061</ele>
        <time>2019-05-28T18:50:53Z</time>
      </trkpt>
      <trkpt lat="40.375581" lon="-7.361827">
        <ele>474.072</ele>
        <time>2019-05-28T18:51:05Z</time>
      </trkpt>
      <trkpt lat="40.376616" lon="-7.362642">
        <ele>478.029</ele>
        <time>2019-05-28T18:51:38Z</time>
      </trkpt>
      <trkpt lat="40.376952" lon="-7.362744">
        <ele>478.050</ele>
        <time>2019-05-28T18:51:47Z</time>
      </trkpt>
      <trkpt lat="40.377196" lon="-7.362591">
        <ele>477.085</ele>
        <time>2019-05-28T18:51:54Z</time>
      </trkpt>
      <trkpt lat="40.377275" lon="-7.362620">
        <ele>478.089</ele>
        <time>2019-05-28T18:51:56Z</time>
      </trkpt>
      <trkpt lat="40.377552" lon="-7.362893">
        <ele>482.017</ele>
        <time>2019-05-28T18:52:06Z</time>
      </trkpt>
      <trkpt lat="40.377798" lon="-7.363319">
        <ele>484.008</ele>
        <time>2019-05-28T18:52:16Z</time>
      </trkpt>
      <trkpt lat="40.377959" lon="-7.363442">
        <ele>485.041</ele>
        <time>2019-05-28T18:52:21Z</time>
      </trkpt>
      <trkpt lat="40.379095" lon="-7.363767">
        <ele>488.074</ele>
        <time>2019-05-28T18:52:52Z</time>
      </trkpt>
      <trkpt lat="40.379489" lon="-7.363956">
        <ele>489.067</ele>
        <time>2019-05-28T18:53:04Z</time>
      </trkpt>
      <trkpt lat="40.380006" lon="-7.364724">
        <ele>496.015</ele>
        <time>2019-05-28T18:53:24Z</time>
      </trkpt>
      <trkpt lat="40.380455" lon="-7.365597">
        <ele>504.012</ele>
        <time>2019-05-28T18:53:46Z</time>
      </trkpt>
      <trkpt lat="40.380901" lon="-7.366734">
        <ele>507.093</ele>
        <time>2019-05-28T18:54:12Z</time>
      </trkpt>
      <trkpt lat="40.380890" lon="-7.366859">
        <ele>507.080</ele>
        <time>2019-05-28T18:54:14Z</time>
      </trkpt>
      <trkpt lat="40.380788" lon="-7.366915">
        <ele>507.051</ele>
        <time>2019-05-28T18:54:17Z</time>
      </trkpt>
      <trkpt lat="40.380569" lon="-7.366910">
        <ele>507.048</ele>
        <time>2019-05-28T18:54:23Z</time>
      </trkpt>
      <trkpt lat="40.380478" lon="-7.366994">
        <ele>505.061</ele>
        <time>2019-05-28T18:54:26Z</time>
      </trkpt>
      <trkpt lat="40.380473" lon="-7.367144">
        <ele>505.017</ele>
        <time>2019-05-28T18:54:29Z</time>
      </trkpt>
      <trkpt lat="40.381049" lon="-7.369002">
        <ele>516.008</ele>
        <time>2019-05-28T18:55:10Z</time>
      </trkpt>
      <trkpt lat="40.381690" lon="-7.369389">
        <ele>521.027</ele>
        <time>2019-05-28T18:55:29Z</time>
      </trkpt>
      <trkpt lat="40.382211" lon="-7.370634">
        <ele>528.050</ele>
        <time>2019-05-28T18:55:58Z</time>
      </trkpt>
      <trkpt lat="40.382358" lon="-7.371373">
        <ele>538.033</ele>
        <time>2019-05-28T18:56:13Z</time>
      </trkpt>
      <trkpt lat="40.382800" lon="-7.371252">
        <ele>537.061</ele>
        <time>2019-05-28T18:56:25Z</time>
      </trkpt>
      <trkpt lat="40.383303" lon="-7.372243">
        <ele>545.038</ele>
        <time>2019-05-28T18:56:50Z</time>
      </trkpt>
      <trkpt lat="40.383274" lon="-7.373239">
        <ele>552.029</ele>
        <time>2019-05-28T18:57:10Z</time>
      </trkpt>
      <trkpt lat="40.383177" lon="-7.374729">
        <ele>548.086</ele>
        <time>2019-05-28T18:57:40Z</time>
      </trkpt>
      <trkpt lat="40.382637" lon="-7.375481">
        <ele>554.047</ele>
        <time>2019-05-28T18:58:01Z</time>
      </trkpt>
      <trkpt lat="40.382744" lon="-7.376163">
        <ele>564.093</ele>
        <time>2019-05-28T18:58:15Z</time>
      </trkpt>
      <trkpt lat="40.382551" lon="-7.376513">
        <ele>565.065</ele>
        <time>2019-05-28T18:58:24Z</time>
      </trkpt>
      <trkpt lat="40.382870" lon="-7.376463">
        <ele>566.021</ele>
        <time>2019-05-28T18:58:33Z</time>
      </trkpt>
      <trkpt lat="40.383209" lon="-7.376830">
        <ele>570.008</ele>
        <time>2019-05-28T18:58:44Z</time>
      </trkpt>
      <trkpt lat="40.383545" lon="-7.376826">
        <ele>571.072</ele>
        <time>2019-05-28T18:58:53Z</time>
      </trkpt>
      <trkpt lat="40.385306" lon="-7.375254">
        <ele>565.025</ele>
        <time>2019-05-28T18:59:50Z</time>
      </trkpt>
      <trkpt lat="40.385856" lon="-7.375341">
        <ele>568.078</ele>
        <time>2019-05-28T19:00:05Z</time>
      </trkpt>
      <trkpt lat="40.386160" lon="-7.375824">
        <ele>571.076</ele>
        <time>2019-05-28T19:00:18Z</time>
      </trkpt>
      <trkpt lat="40.386811" lon="-7.375075">
        <ele>555.013</ele>
        <time>2019-05-28T19:00:41Z</time>
      </trkpt>
      <trkpt lat="40.386496" lon="-7.373017">
        <ele>539.014</ele>
        <time>2019-05-28T19:01:24Z</time>
      </trkpt>
      <trkpt lat="40.386935" lon="-7.372387">
        <ele>534.051</ele>
        <time>2019-05-28T19:01:41Z</time>
      </trkpt>
      <trkpt lat="40.387198" lon="-7.372106">
        <ele>533.062</ele>
        <time>2019-05-28T19:01:50Z</time>
      </trkpt>
      <trkpt lat="40.387650" lon="-7.372011">
        <ele>529.012</ele>
        <time>2019-05-28T19:02:02Z</time>
      </trkpt>
      <trkpt lat="40.388095" lon="-7.372588">
        <ele>528.032</ele>
        <time>2019-05-28T19:02:19Z</time>
      </trkpt>
      <trkpt lat="40.388420" lon="-7.373205">
        <ele>525.005</ele>
        <time>2019-05-28T19:02:34Z</time>
      </trkpt>
      <trkpt lat="40.388432" lon="-7.373394">
        <ele>525.008</ele>
        <time>2019-05-28T19:02:38Z</time>
      </trkpt>
      <trkpt lat="40.388271" lon="-7.373635">
        <ele>526.084</ele>
        <time>2019-05-28T19:02:45Z</time>
      </trkpt>
      <trkpt lat="40.388229" lon="-7.373796">
        <ele>526.067</ele>
        <time>2019-05-28T19:02:48Z</time>
      </trkpt>
      <trkpt lat="40.388298" lon="-7.374651">
        <ele>522.050</ele>
        <time>2019-05-28T19:03:06Z</time>
      </trkpt>
      <trkpt lat="40.388733" lon="-7.375330">
        <ele>509.078</ele>
        <time>2019-05-28T19:03:24Z</time>
      </trkpt>
      <trkpt lat="40.388832" lon="-7.375810">
        <ele>510.075</ele>
        <time>2019-05-28T19:03:34Z</time>
      </trkpt>
      <trkpt lat="40.389000" lon="-7.376317">
        <ele>511.036</ele>
        <time>2019-05-28T19:03:45Z</time>
      </trkpt>
      <trkpt lat="40.389439" lon="-7.377079">
        <ele>505.013</ele>
        <time>2019-05-28T19:04:04Z</time>
      </trkpt>
      <trkpt lat="40.389595" lon="-7.377170">
        <ele>499.094</ele>
        <time>2019-05-28T19:04:09Z</time>
      </trkpt>
      <trkpt lat="40.389725" lon="-7.377068">
        <ele>493.066</ele>
        <time>2019-05-28T19:04:13Z</time>
      </trkpt>
      <trkpt lat="40.389904" lon="-7.377373">
        <ele>492.029</ele>
        <time>2019-05-28T19:04:21Z</time>
      </trkpt>
      <trkpt lat="40.390152" lon="-7.377518">
        <ele>491.021</ele>
        <time>2019-05-28T19:04:28Z</time>
      </trkpt>
      <trkpt lat="40.390495" lon="-7.377522">
        <ele>487.008</ele>
        <time>2019-05-28T19:04:37Z</time>
      </trkpt>
      <trkpt lat="40.390614" lon="-7.377604">
        <ele>486.089</ele>
        <time>2019-05-28T19:04:41Z</time>
      </trkpt>
      <trkpt lat="40.390576" lon="-7.377680">
        <ele>487.032</ele>
        <time>2019-05-28T19:04:43Z</time>
      </trkpt>
      <trkpt lat="40.391578" lon="-7.377214">
        <ele>483.015</ele>
        <time>2019-05-28T19:05:11Z</time>
      </trkpt>
      <trkpt lat="40.391936" lon="-7.377736">
        <ele>483.023</ele>
        <time>2019-05-28T19:05:25Z</time>
      </trkpt>
      <trkpt lat="40.392657" lon="-7.379032">
        <ele>483.030</ele>
        <time>2019-05-28T19:05:58Z</time>
      </trkpt>
      <trkpt lat="40.393048" lon="-7.379580">
        <ele>483.071</ele>
        <time>2019-05-28T19:06:13Z</time>
      </trkpt>
      <trkpt lat="40.393329" lon="-7.380081">
        <ele>484.048</ele>
        <time>2019-05-28T19:06:26Z</time>
      </trkpt>
      <trkpt lat="40.393412" lon="-7.380606">
        <ele>485.059</ele>
        <time>2019-05-28T19:06:37Z</time>
      </trkpt>
      <trkpt lat="40.393515" lon="-7.382049">
        <ele>485.051</ele>
        <time>2019-05-28T19:07:06Z</time>
      </trkpt>
      <trkpt lat="40.394020" lon="-7.384949">
        <ele>487.001</ele>
        <time>2019-05-28T19:08:07Z</time>
      </trkpt>
      <trkpt lat="40.394188" lon="-7.385387">
        <ele>488.011</ele>
        <time>2019-05-28T19:08:17Z</time>
      </trkpt>
      <trkpt lat="40.394293" lon="-7.385948">
        <ele>487.008</ele>
        <time>2019-05-28T19:08:28Z</time>
      </trkpt>
      <trkpt lat="40.394180" lon="-7.386301">
        <ele>487.018</ele>
        <time>2019-05-28T19:08:36Z</time>
      </trkpt>
      <trkpt lat="40.393963" lon="-7.387469">
        <ele>488.011</ele>
        <time>2019-05-28T19:09:01Z</time>
      </trkpt>
      <trkpt lat="40.393920" lon="-7.388402">
        <ele>488.034</ele>
        <time>2019-05-28T19:09:20Z</time>
      </trkpt>
      <trkpt lat="40.393974" lon="-7.389016">
        <ele>489.032</ele>
        <time>2019-05-28T19:09:32Z</time>
      </trkpt>
      <trkpt lat="40.393938" lon="-7.389487">
        <ele>491.029</ele>
        <time>2019-05-28T19:09:42Z</time>
      </trkpt>
      <trkpt lat="40.393851" lon="-7.389467">
        <ele>491.090</ele>
        <time>2019-05-28T19:09:44Z</time>
      </trkpt>
      <trkpt lat="40.393667" lon="-7.389335">
        <ele>491.067</ele>
        <time>2019-05-28T19:09:50Z</time>
      </trkpt>
      <trkpt lat="40.393425" lon="-7.388906">
        <ele>492.068</ele>
        <time>2019-05-28T19:10:01Z</time>
      </trkpt>
      <trkpt lat="40.393282" lon="-7.388893">
        <ele>493.036</ele>
        <time>2019-05-28T19:10:04Z</time>
      </trkpt>
      <trkpt lat="40.393065" lon="-7.389158">
        <ele>498.017</ele>
        <time>2019-05-28T19:10:12Z</time>
      </trkpt>
      <trkpt lat="40.393391" lon="-7.390649">
        <ele>504.018</ele>
        <time>2019-05-28T19:10:44Z</time>
      </trkpt>
      <trkpt lat="40.392886" lon="-7.391003">
        <ele>510.008</ele>
        <time>2019-05-28T19:10:59Z</time>
      </trkpt>
      <trkpt lat="40.392854" lon="-7.391095">
        <ele>510.086</ele>
        <time>2019-05-28T19:11:01Z</time>
      </trkpt>
      <trkpt lat="40.396382" lon="-7.394145">
        <ele>504.049</ele>
        <time>2019-05-28T19:12:54Z</time>
      </trkpt>
      <trkpt lat="40.396724" lon="-7.394304">
        <ele>503.072</ele>
        <time>2019-05-28T19:13:04Z</time>
      </trkpt>
      <trkpt lat="40.397672" lon="-7.394680">
        <ele>506.090</ele>
        <time>2019-05-28T19:13:30Z</time>
      </trkpt>
      <trkpt lat="40.398167" lon="-7.394996">
        <ele>509.077</ele>
        <time>2019-05-28T19:13:45Z</time>
      </trkpt>
      <trkpt lat="40.400062" lon="-7.397233">
        <ele>516.058</ele>
        <time>2019-05-28T19:14:53Z</time>
      </trkpt>
      <trkpt lat="40.400261" lon="-7.397342">
        <ele>516.025</ele>
        <time>2019-05-28T19:14:59Z</time>
      </trkpt>
      <trkpt lat="40.400624" lon="-7.397294">
        <ele>513.076</ele>
        <time>2019-05-28T19:15:08Z</time>
      </trkpt>
      <trkpt lat="40.401614" lon="-7.397363">
        <ele>506.074</ele>
        <time>2019-05-28T19:15:35Z</time>
      </trkpt>
      <trkpt lat="40.401822" lon="-7.397725">
        <ele>509.056</ele>
        <time>2019-05-28T19:15:44Z</time>
      </trkpt>
      <trkpt lat="40.402308" lon="-7.398417">
        <ele>500.021</ele>
        <time>2019-05-28T19:16:03Z</time>
      </trkpt>
      <trkpt lat="40.402623" lon="-7.399555">
        <ele>504.008</ele>
        <time>2019-05-28T19:16:28Z</time>
      </trkpt>
      <trkpt lat="40.402590" lon="-7.399834">
        <ele>505.010</ele>
        <time>2019-05-28T19:16:33Z</time>
      </trkpt>
      <trkpt lat="40.402387" lon="-7.400516">
        <ele>501.073</ele>
        <time>2019-05-28T19:16:48Z</time>
      </trkpt>
      <trkpt lat="40.400658" lon="-7.401515">
        <ele>507.096</ele>
        <time>2019-05-28T19:17:39Z</time>
      </trkpt>
      <trkpt lat="40.399766" lon="-7.402263">
        <ele>508.094</ele>
        <time>2019-05-28T19:18:07Z</time>
      </trkpt>
      <trkpt lat="40.399035" lon="-7.403030">
        <ele>510.061</ele>
        <time>2019-05-28T19:18:32Z</time>
      </trkpt>
      <trkpt lat="40.398857" lon="-7.404438">
        <ele>505.082</ele>
        <time>2019-05-28T19:19:01Z</time>
      </trkpt>
      <trkpt lat="40.399071" lon="-7.405027">
        <ele>500.039</ele>
        <time>2019-05-28T19:19:14Z</time>
      </trkpt>
      <trkpt lat="40.399641" lon="-7.405401">
        <ele>499.080</ele>
        <time>2019-05-28T19:19:31Z</time>
      </trkpt>
      <trkpt lat="40.400176" lon="-7.405704">
        <ele>501.012</ele>
        <time>2019-05-28T19:19:47Z</time>
      </trkpt>
      <trkpt lat="40.400782" lon="-7.405080">
        <ele>501.032</ele>
        <time>2019-05-28T19:20:07Z</time>
      </trkpt>
      <trkpt lat="40.401424" lon="-7.403886">
        <ele>500.005</ele>
        <time>2019-05-28T19:20:37Z</time>
      </trkpt>
      <trkpt lat="40.401834" lon="-7.403975">
        <ele>503.008</ele>
        <time>2019-05-28T19:20:48Z</time>
      </trkpt>
      <trkpt lat="40.402103" lon="-7.403507">
        <ele>499.014</ele>
        <time>2019-05-28T19:21:00Z</time>
      </trkpt>
      <trkpt lat="40.402555" lon="-7.403739">
        <ele>501.097</ele>
        <time>2019-05-28T19:21:13Z</time>
      </trkpt>
      <trkpt lat="40.402942" lon="-7.403663">
        <ele>503.030</ele>
        <time>2019-05-28T19:21:24Z</time>
      </trkpt>
      <trkpt lat="40.403916" lon="-7.403146">
        <ele>503.098</ele>
        <time>2019-05-28T19:21:52Z</time>
      </trkpt>
      <trkpt lat="40.404255" lon="-7.402689">
        <ele>501.015</ele>
        <time>2019-05-28T19:22:05Z</time>
      </trkpt>
      <trkpt lat="40.404915" lon="-7.402627">
        <ele>502.076</ele>
        <time>2019-05-28T19:22:22Z</time>
      </trkpt>
      <trkpt lat="40.406239" lon="-7.401733">
        <ele>509.043</ele>
        <time>2019-05-28T19:23:02Z</time>
      </trkpt>
      <trkpt lat="40.406516" lon="-7.402168">
        <ele>512.094</ele>
        <time>2019-05-28T19:23:13Z</time>
      </trkpt>
      <trkpt lat="40.406703" lon="-7.402022">
        <ele>513.018</ele>
        <time>2019-05-28T19:23:19Z</time>
      </trkpt>
      <trkpt lat="40.406778" lon="-7.402214">
        <ele>514.098</ele>
        <time>2019-05-28T19:23:24Z</time>
      </trkpt>
      <trkpt lat="40.406790" lon="-7.402751">
        <ele>514.017</ele>
        <time>2019-05-28T19:23:35Z</time>
      </trkpt>
      <trkpt lat="40.406732" lon="-7.403291">
        <ele>513.008</ele>
        <time>2019-05-28T19:23:46Z</time>
      </trkpt>
      <trkpt lat="40.406654" lon="-7.403469">
        <ele>513.084</ele>
        <time>2019-05-28T19:23:50Z</time>
      </trkpt>
      <trkpt lat="40.406544" lon="-7.403597">
        <ele>512.027</ele>
        <time>2019-05-28T19:23:54Z</time>
      </trkpt>
      <trkpt lat="40.406303" lon="-7.403981">
        <ele>510.010</ele>
        <time>2019-05-28T19:24:04Z</time>
      </trkpt>
      <trkpt lat="40.406109" lon="-7.404703">
        <ele>508.048</ele>
        <time>2019-05-28T19:24:19Z</time>
      </trkpt>
      <trkpt lat="40.405971" lon="-7.404958">
        <ele>506.055</ele>
        <time>2019-05-28T19:24:26Z</time>
      </trkpt>
      <trkpt lat="40.405551" lon="-7.405416">
        <ele>505.066</ele>
        <time>2019-05-28T19:24:40Z</time>
      </trkpt>
      <trkpt lat="40.405365" lon="-7.405664">
        <ele>507.043</ele>
        <time>2019-05-28T19:24:47Z</time>
      </trkpt>
      <trkpt lat="40.405292" lon="-7.405798">
        <ele>509.084</ele>
        <time>2019-05-28T19:24:51Z</time>
      </trkpt>
      <trkpt lat="40.405286" lon="-7.405916">
        <ele>511.048</ele>
        <time>2019-05-28T19:24:53Z</time>
      </trkpt>
      <trkpt lat="40.405534" lon="-7.405989">
        <ele>511.061</ele>
        <time>2019-05-28T19:25:00Z</time>
      </trkpt>
      <trkpt lat="40.405650" lon="-7.406223">
        <ele>513.017</ele>
        <time>2019-05-28T19:25:06Z</time>
      </trkpt>
      <trkpt lat="40.405760" lon="-7.406563">
        <ele>518.008</ele>
        <time>2019-05-28T19:25:13Z</time>
      </trkpt>
      <trkpt lat="40.405738" lon="-7.406651">
        <ele>520.087</ele>
        <time>2019-05-28T19:25:15Z</time>
      </trkpt>
      <trkpt lat="40.405570" lon="-7.406630">
        <ele>522.070</ele>
        <time>2019-05-28T19:25:20Z</time>
      </trkpt>
      <trkpt lat="40.405490" lon="-7.406679">
        <ele>523.083</ele>
        <time>2019-05-28T19:25:22Z</time>
      </trkpt>
      <trkpt lat="40.405296" lon="-7.407099">
        <ele>526.031</ele>
        <time>2019-05-28T19:25:32Z</time>
      </trkpt>
      <trkpt lat="40.404976" lon="-7.408717">
        <ele>546.048</ele>
        <time>2019-05-28T19:26:06Z</time>
      </trkpt>
      <trkpt lat="40.404633" lon="-7.409330">
        <ele>547.039</ele>
        <time>2019-05-28T19:26:21Z</time>
      </trkpt>
      <trkpt lat="40.404435" lon="-7.410232">
        <ele>554.066</ele>
        <time>2019-05-28T19:26:40Z</time>
      </trkpt>
      <trkpt lat="40.404489" lon="-7.412197">
        <ele>569.097</ele>
        <time>2019-05-28T19:27:20Z</time>
      </trkpt>
      <trkpt lat="40.404399" lon="-7.412900">
        <ele>576.062</ele>
        <time>2019-05-28T19:27:35Z</time>
      </trkpt>
      <trkpt lat="40.403948" lon="-7.413351">
        <ele>573.083</ele>
        <time>2019-05-28T19:27:50Z</time>
      </trkpt>
      <trkpt lat="40.403912" lon="-7.414884">
        <ele>588.011</ele>
        <time>2019-05-28T19:28:21Z</time>
      </trkpt>
      <trkpt lat="40.403858" lon="-7.415299">
        <ele>587.008</ele>
        <time>2019-05-28T19:28:30Z</time>
      </trkpt>
      <trkpt lat="40.404092" lon="-7.415822">
        <ele>597.039</ele>
        <time>2019-05-28T19:28:42Z</time>
      </trkpt>
      <trkpt lat="40.404146" lon="-7.416128">
        <ele>602.042</ele>
        <time>2019-05-28T19:28:48Z</time>
      </trkpt>
      <trkpt lat="40.403822" lon="-7.416489">
        <ele>605.095</ele>
        <time>2019-05-28T19:29:00Z</time>
      </trkpt>
      <trkpt lat="40.403100" lon="-7.417373">
        <ele>612.063</ele>
        <time>2019-05-28T19:29:26Z</time>
      </trkpt>
      <trkpt lat="40.403137" lon="-7.418004">
        <ele>615.030</ele>
        <time>2019-05-28T19:29:39Z</time>
      </trkpt>
      <trkpt lat="40.403587" lon="-7.418725">
        <ele>618.041</ele>
        <time>2019-05-28T19:29:58Z</time>
      </trkpt>
      <trkpt lat="40.403930" lon="-7.418797">
        <ele>619.098</ele>
        <time>2019-05-28T19:30:07Z</time>
      </trkpt>
      <trkpt lat="40.404272" lon="-7.418977">
        <ele>623.089</ele>
        <time>2019-05-28T19:30:17Z</time>
      </trkpt>
      <trkpt lat="40.404435" lon="-7.419681">
        <ele>623.012</ele>
        <time>2019-05-28T19:30:32Z</time>
      </trkpt>
      <trkpt lat="40.404832" lon="-7.420168">
        <ele>629.032</ele>
        <time>2019-05-28T19:30:47Z</time>
      </trkpt>
      <trkpt lat="40.404579" lon="-7.420636">
        <ele>623.005</ele>
        <time>2019-05-28T19:30:58Z</time>
      </trkpt>
      <trkpt lat="40.404543" lon="-7.421304">
        <ele>634.008</ele>
        <time>2019-05-28T19:31:12Z</time>
      </trkpt>
      <trkpt lat="40.404164" lon="-7.421484">
        <ele>628.034</ele>
        <time>2019-05-28T19:31:23Z</time>
      </trkpt>
      <trkpt lat="40.403840" lon="-7.421755">
        <ele>634.027</ele>
        <time>2019-05-28T19:31:33Z</time>
      </trkpt>
      <trkpt lat="40.403191" lon="-7.421863">
        <ele>634.010</ele>
        <time>2019-05-28T19:31:50Z</time>
      </trkpt>
      <trkpt lat="40.402830" lon="-7.422368">
        <ele>637.048</ele>
        <time>2019-05-28T19:32:04Z</time>
      </trkpt>
      <trkpt lat="40.402559" lon="-7.422909">
        <ele>639.055</ele>
        <time>2019-05-28T19:32:18Z</time>
      </trkpt>
      <trkpt lat="40.402487" lon="-7.423287">
        <ele>642.066</ele>
        <time>2019-05-28T19:32:25Z</time>
      </trkpt>
      <trkpt lat="40.402199" lon="-7.423468">
        <ele>637.043</ele>
        <time>2019-05-28T19:32:34Z</time>
      </trkpt>
      <trkpt lat="40.401820" lon="-7.423864">
        <ele>639.094</ele>
        <time>2019-05-28T19:32:47Z</time>
      </trkpt>
      <trkpt lat="40.401690" lon="-7.424640">
        <ele>648.043</ele>
        <time>2019-05-28T19:33:03Z</time>
      </trkpt>
      <trkpt lat="40.401583" lon="-7.425399">
        <ele>646.064</ele>
        <time>2019-05-28T19:33:19Z</time>
      </trkpt>
      <trkpt lat="40.401596" lon="-7.425963">
        <ele>642.010</ele>
        <time>2019-05-28T19:33:30Z</time>
      </trkpt>
      <trkpt lat="40.401208" lon="-7.426665">
        <ele>635.008</ele>
        <time>2019-05-28T19:33:48Z</time>
      </trkpt>
      <trkpt lat="40.401197" lon="-7.427014">
        <ele>635.087</ele>
        <time>2019-05-28T19:33:55Z</time>
      </trkpt>
      <trkpt lat="40.401311" lon="-7.427318">
        <ele>634.060</ele>
        <time>2019-05-28T19:34:02Z</time>
      </trkpt>
      <trkpt lat="40.401662" lon="-7.427393">
        <ele>633.093</ele>
        <time>2019-05-28T19:34:11Z</time>
      </trkpt>
      <trkpt lat="40.402156" lon="-7.427319">
        <ele>632.091</ele>
        <time>2019-05-28T19:34:25Z</time>
      </trkpt>
      <trkpt lat="40.402377" lon="-7.427562">
        <ele>627.048</ele>
        <time>2019-05-28T19:34:32Z</time>
      </trkpt>
      <trkpt lat="40.403025" lon="-7.427915">
        <ele>625.069</ele>
        <time>2019-05-28T19:34:51Z</time>
      </trkpt>
      <trkpt lat="40.403745" lon="-7.427885">
        <ele>621.026</ele>
        <time>2019-05-28T19:35:10Z</time>
      </trkpt>
      <trkpt lat="40.404332" lon="-7.427884">
        <ele>620.057</ele>
        <time>2019-05-28T19:35:26Z</time>
      </trkpt>
      <trkpt lat="40.404443" lon="-7.428050">
        <ele>619.015</ele>
        <time>2019-05-28T19:35:30Z</time>
      </trkpt>
      <trkpt lat="40.404399" lon="-7.428404">
        <ele>617.065</ele>
        <time>2019-05-28T19:35:38Z</time>
      </trkpt>
      <trkpt lat="40.404235" lon="-7.428810">
        <ele>615.011</ele>
        <time>2019-05-28T19:35:47Z</time>
      </trkpt>
      <trkpt lat="40.403628" lon="-7.429552">
        <ele>601.008</ele>
        <time>2019-05-28T19:36:09Z</time>
      </trkpt>
      <trkpt lat="40.403205" lon="-7.430124">
        <ele>591.034</ele>
        <time>2019-05-28T19:36:25Z</time>
      </trkpt>
      <trkpt lat="40.403071" lon="-7.430591">
        <ele>588.017</ele>
        <time>2019-05-28T19:36:36Z</time>
      </trkpt>
      <trkpt lat="40.402929" lon="-7.430925">
        <ele>586.070</ele>
        <time>2019-05-28T19:36:43Z</time>
      </trkpt>
      <trkpt lat="40.402679" lon="-7.430910">
        <ele>579.098</ele>
        <time>2019-05-28T19:36:50Z</time>
      </trkpt>
      <trkpt lat="40.402468" lon="-7.430917">
        <ele>571.045</ele>
        <time>2019-05-28T19:36:56Z</time>
      </trkpt>
      <trkpt lat="40.402071" lon="-7.431391">
        <ele>567.066</ele>
        <time>2019-05-28T19:37:10Z</time>
      </trkpt>
      <trkpt lat="40.401957" lon="-7.431730">
        <ele>569.053</ele>
        <time>2019-05-28T19:37:18Z</time>
      </trkpt>
      <trkpt lat="40.401115" lon="-7.432702">
        <ele>550.094</ele>
        <time>2019-05-28T19:37:47Z</time>
      </trkpt>
      <trkpt lat="40.401124" lon="-7.433025">
        <ele>548.099</ele>
        <time>2019-05-28T19:37:54Z</time>
      </trkpt>
      <trkpt lat="40.401590" lon="-7.434369">
        <ele>540.007</ele>
        <time>2019-05-28T19:38:24Z</time>
      </trkpt>
      <trkpt lat="40.401511" lon="-7.434617">
        <ele>536.027</ele>
        <time>2019-05-28T19:38:29Z</time>
      </trkpt>
      <trkpt lat="40.401008" lon="-7.434922">
        <ele>529.008</ele>
        <time>2019-05-28T19:38:44Z</time>
      </trkpt>
      <trkpt lat="40.401563" lon="-7.436974">
        <ele>533.012</ele>
        <time>2019-05-28T19:39:29Z</time>
      </trkpt>
      <trkpt lat="40.401825" lon="-7.437782">
        <ele>535.065</ele>
        <time>2019-05-28T19:39:46Z</time>
      </trkpt>
      <trkpt lat="40.402092" lon="-7.438709">
        <ele>539.018</ele>
        <time>2019-05-28T19:40:07Z</time>
      </trkpt>
      <trkpt lat="40.402184" lon="-7.438940">
        <ele>538.016</ele>
        <time>2019-05-28T19:40:12Z</time>
      </trkpt>
      <trkpt lat="40.402753" lon="-7.439733">
        <ele>539.013</ele>
        <time>2019-05-28T19:40:34Z</time>
      </trkpt>
      <trkpt lat="40.403207" lon="-7.440052">
        <ele>542.034</ele>
        <time>2019-05-28T19:40:48Z</time>
      </trkpt>
      <trkpt lat="40.403444" lon="-7.440316">
        <ele>542.031</ele>
        <time>2019-05-28T19:40:56Z</time>
      </trkpt>
      <trkpt lat="40.403892" lon="-7.441152">
        <ele>542.042</ele>
        <time>2019-05-28T19:41:17Z</time>
      </trkpt>
      <trkpt lat="40.404115" lon="-7.441406">
        <ele>541.048</ele>
        <time>2019-05-28T19:41:25Z</time>
      </trkpt>
      <trkpt lat="40.404505" lon="-7.441509">
        <ele>539.061</ele>
        <time>2019-05-28T19:41:35Z</time>
      </trkpt>
      <trkpt lat="40.405471" lon="-7.441478">
        <ele>543.017</ele>
        <time>2019-05-28T19:42:01Z</time>
      </trkpt>
      <trkpt lat="40.405789" lon="-7.441454">
        <ele>542.008</ele>
        <time>2019-05-28T19:42:10Z</time>
      </trkpt>
      <trkpt lat="40.406161" lon="-7.441271">
        <ele>546.027</ele>
        <time>2019-05-28T19:42:20Z</time>
      </trkpt>
      <trkpt lat="40.406497" lon="-7.441158">
        <ele>549.050</ele>
        <time>2019-05-28T19:42:29Z</time>
      </trkpt>
      <trkpt lat="40.406772" lon="-7.441237">
        <ele>548.093</ele>
        <time>2019-05-28T19:42:37Z</time>
      </trkpt>
      <trkpt lat="40.407214" lon="-7.441640">
        <ele>544.031</ele>
        <time>2019-05-28T19:42:51Z</time>
      </trkpt>
      <trkpt lat="40.407508" lon="-7.441820">
        <ele>544.088</ele>
        <time>2019-05-28T19:43:00Z</time>
      </trkpt>
      <trkpt lat="40.407854" lon="-7.441812">
        <ele>545.019</ele>
        <time>2019-05-28T19:43:09Z</time>
      </trkpt>
      <trkpt lat="40.408043" lon="-7.441729">
        <ele>543.056</ele>
        <time>2019-05-28T19:43:15Z</time>
      </trkpt>
      <trkpt lat="40.408347" lon="-7.441416">
        <ele>541.047</ele>
        <time>2019-05-28T19:43:25Z</time>
      </trkpt>
      <trkpt lat="40.408761" lon="-7.440943">
        <ele>542.032</ele>
        <time>2019-05-28T19:43:40Z</time>
      </trkpt>
      <trkpt lat="40.409072" lon="-7.440756">
        <ele>542.092</ele>
        <time>2019-05-28T19:43:49Z</time>
      </trkpt>
      <trkpt lat="40.409773" lon="-7.440827">
        <ele>545.011</ele>
        <time>2019-05-28T19:44:07Z</time>
      </trkpt>
      <trkpt lat="40.410185" lon="-7.440904">
        <ele>543.008</ele>
        <time>2019-05-28T19:44:19Z</time>
      </trkpt>
      <trkpt lat="40.410531" lon="-7.440884">
        <ele>545.056</ele>
        <time>2019-05-28T19:44:28Z</time>
      </trkpt>
      <trkpt lat="40.410755" lon="-7.440808">
        <ele>545.019</ele>
        <time>2019-05-28T19:44:34Z</time>
      </trkpt>
      <trkpt lat="40.411213" lon="-7.440445">
        <ele>547.082</ele>
        <time>2019-05-28T19:44:48Z</time>
      </trkpt>
      <trkpt lat="40.411856" lon="-7.440057">
        <ele>552.010</ele>
        <time>2019-05-28T19:45:07Z</time>
      </trkpt>
      <trkpt lat="40.412389" lon="-7.439970">
        <ele>556.067</ele>
        <time>2019-05-28T19:45:21Z</time>
      </trkpt>
      <trkpt lat="40.412663" lon="-7.440016">
        <ele>560.068</ele>
        <time>2019-05-28T19:45:29Z</time>
      </trkpt>
      <trkpt lat="40.412851" lon="-7.440251">
        <ele>558.075</ele>
        <time>2019-05-28T19:45:36Z</time>
      </trkpt>
      <trkpt lat="40.413116" lon="-7.440943">
        <ele>550.046</ele>
        <time>2019-05-28T19:45:52Z</time>
      </trkpt>
      <trkpt lat="40.413327" lon="-7.441821">
        <ele>547.066</ele>
        <time>2019-05-28T19:46:10Z</time>
      </trkpt>
      <trkpt lat="40.413276" lon="-7.442266">
        <ele>545.029</ele>
        <time>2019-05-28T19:46:19Z</time>
      </trkpt>
      <trkpt lat="40.412867" lon="-7.443063">
        <ele>546.021</ele>
        <time>2019-05-28T19:46:39Z</time>
      </trkpt>
      <trkpt lat="40.412896" lon="-7.443904">
        <ele>553.008</ele>
        <time>2019-05-28T19:46:56Z</time>
      </trkpt>
      <trkpt lat="40.412545" lon="-7.444784">
        <ele>558.099</ele>
        <time>2019-05-28T19:47:16Z</time>
      </trkpt>
      <trkpt lat="40.412413" lon="-7.444931">
        <ele>555.042</ele>
        <time>2019-05-28T19:47:21Z</time>
      </trkpt>
      <trkpt lat="40.412416" lon="-7.445575">
        <ele>553.045</ele>
        <time>2019-05-28T19:47:34Z</time>
      </trkpt>
      <trkpt lat="40.412489" lon="-7.445632">
        <ele>554.083</ele>
        <time>2019-05-28T19:47:36Z</time>
      </trkpt>
      <trkpt lat="40.412748" lon="-7.447318">
        <ele>551.040</ele>
        <time>2019-05-28T19:48:11Z</time>
      </trkpt>
      <trkpt lat="40.412844" lon="-7.447623">
        <ele>552.021</ele>
        <time>2019-05-28T19:48:18Z</time>
      </trkpt>
      <trkpt lat="40.412740" lon="-7.447663">
        <ele>552.028</ele>
        <time>2019-05-28T19:48:21Z</time>
      </trkpt>
      <trkpt lat="40.412379" lon="-7.447904">
        <ele>553.099</ele>
        <time>2019-05-28T19:48:32Z</time>
      </trkpt>
      <trkpt lat="40.412328" lon="-7.448022">
        <ele>554.022</ele>
        <time>2019-05-28T19:48:34Z</time>
      </trkpt>
      <trkpt lat="40.412116" lon="-7.448178">
        <ele>557.062</ele>
        <time>2019-05-28T19:48:41Z</time>
      </trkpt>
      <trkpt lat="40.411866" lon="-7.448478">
        <ele>561.008</ele>
        <time>2019-05-28T19:48:50Z</time>
      </trkpt>
      <trkpt lat="40.411660" lon="-7.448940">
        <ele>563.008</ele>
        <time>2019-05-28T19:49:01Z</time>
      </trkpt>
      <trkpt lat="40.411419" lon="-7.449819">
        <ele>563.025</ele>
        <time>2019-05-28T19:49:20Z</time>
      </trkpt>
      <trkpt lat="40.411154" lon="-7.450420">
        <ele>564.098</ele>
        <time>2019-05-28T19:49:34Z</time>
      </trkpt>
      <trkpt lat="40.410706" lon="-7.450852">
        <ele>566.091</ele>
        <time>2019-05-28T19:49:49Z</time>
      </trkpt>
      <trkpt lat="40.410726" lon="-7.450921">
        <ele>566.059</ele>
        <time>2019-05-28T19:49:50Z</time>
      </trkpt>
      <trkpt lat="40.410858" lon="-7.451085">
        <ele>563.066</ele>
        <time>2019-05-28T19:49:55Z</time>
      </trkpt>
      <trkpt lat="40.410868" lon="-7.451203">
        <ele>562.017</ele>
        <time>2019-05-28T19:49:57Z</time>
      </trkpt>
      <trkpt lat="40.410808" lon="-7.451337">
        <ele>563.084</ele>
        <time>2019-05-28T19:50:01Z</time>
      </trkpt>
      <trkpt lat="40.410657" lon="-7.451493">
        <ele>566.065</ele>
        <time>2019-05-28T19:50:06Z</time>
      </trkpt>
      <trkpt lat="40.410404" lon="-7.451911">
        <ele>569.094</ele>
        <time>2019-05-28T19:50:17Z</time>
      </trkpt>
      <trkpt lat="40.410157" lon="-7.452960">
        <ele>576.057</ele>
        <time>2019-05-28T19:50:39Z</time>
      </trkpt>
      <trkpt lat="40.410163" lon="-7.453301">
        <ele>578.022</ele>
        <time>2019-05-28T19:50:46Z</time>
      </trkpt>
      <trkpt lat="40.410298" lon="-7.454122">
        <ele>578.008</ele>
        <time>2019-05-28T19:51:03Z</time>
      </trkpt>
      <trkpt lat="40.410523" lon="-7.454674">
        <ele>577.042</ele>
        <time>2019-05-28T19:51:16Z</time>
      </trkpt>
      <trkpt lat="40.410753" lon="-7.454827">
        <ele>576.035</ele>
        <time>2019-05-28T19:51:22Z</time>
      </trkpt>
      <trkpt lat="40.411082" lon="-7.455463">
        <ele>582.028</ele>
        <time>2019-05-28T19:51:38Z</time>
      </trkpt>
      <trkpt lat="40.411203" lon="-7.455444">
        <ele>582.086</ele>
        <time>2019-05-28T19:51:41Z</time>
      </trkpt>
      <trkpt lat="40.411907" lon="-7.455025">
        <ele>575.033</ele>
        <time>2019-05-28T19:52:02Z</time>
      </trkpt>
      <trkpt lat="40.411950" lon="-7.455087">
        <ele>576.034</ele>
        <time>2019-05-28T19:52:04Z</time>
      </trkpt>
      <trkpt lat="40.411942" lon="-7.455211">
        <ele>578.041</ele>
        <time>2019-05-28T19:52:06Z</time>
      </trkpt>
      <trkpt lat="40.411476" lon="-7.455752">
        <ele>587.092</ele>
        <time>2019-05-28T19:52:23Z</time>
      </trkpt>
      <trkpt lat="40.411243" lon="-7.456246">
        <ele>592.067</ele>
        <time>2019-05-28T19:52:35Z</time>
      </trkpt>
      <trkpt lat="40.410692" lon="-7.456659">
        <ele>601.081</ele>
        <time>2019-05-28T19:52:52Z</time>
      </trkpt>
      <trkpt lat="40.410463" lon="-7.456973">
        <ele>608.019</ele>
        <time>2019-05-28T19:53:00Z</time>
      </trkpt>
      <trkpt lat="40.410525" lon="-7.457203">
        <ele>607.008</ele>
        <time>2019-05-28T19:53:05Z</time>
      </trkpt>
      <trkpt lat="40.410418" lon="-7.457557">
        <ele>606.079</ele>
        <time>2019-05-28T19:53:13Z</time>
      </trkpt>
      <trkpt lat="40.410257" lon="-7.457708">
        <ele>611.092</ele>
        <time>2019-05-28T19:53:18Z</time>
      </trkpt>
      <trkpt lat="40.410000" lon="-7.458225">
        <ele>611.035</ele>
        <time>2019-05-28T19:53:31Z</time>
      </trkpt>
      <trkpt lat="40.409792" lon="-7.458526">
        <ele>612.033</ele>
        <time>2019-05-28T19:53:39Z</time>
      </trkpt>
      <trkpt lat="40.409487" lon="-7.459338">
        <ele>613.040</ele>
        <time>2019-05-28T19:53:58Z</time>
      </trkpt>
      <trkpt lat="40.409429" lon="-7.460478">
        <ele>606.021</ele>
        <time>2019-05-28T19:54:21Z</time>
      </trkpt>
      <trkpt lat="40.409669" lon="-7.461337">
        <ele>595.038</ele>
        <time>2019-05-28T19:54:39Z</time>
      </trkpt>
      <trkpt lat="40.410057" lon="-7.461811">
        <ele>587.069</ele>
        <time>2019-05-28T19:54:54Z</time>
      </trkpt>
      <trkpt lat="40.410288" lon="-7.461830">
        <ele>583.077</ele>
        <time>2019-05-28T19:55:00Z</time>
      </trkpt>
      <trkpt lat="40.410743" lon="-7.461959">
        <ele>581.061</ele>
        <time>2019-05-28T19:55:12Z</time>
      </trkpt>
      <trkpt lat="40.411054" lon="-7.462320">
        <ele>581.027</ele>
        <time>2019-05-28T19:55:23Z</time>
      </trkpt>
      <trkpt lat="40.411132" lon="-7.462574">
        <ele>580.008</ele>
        <time>2019-05-28T19:55:29Z</time>
      </trkpt>
      <trkpt lat="40.411039" lon="-7.462849">
        <ele>582.010</ele>
        <time>2019-05-28T19:55:35Z</time>
      </trkpt>
      <trkpt lat="40.410847" lon="-7.463166">
        <ele>589.033</ele>
        <time>2019-05-28T19:55:43Z</time>
      </trkpt>
      <trkpt lat="40.410643" lon="-7.464097">
        <ele>594.046</ele>
        <time>2019-05-28T19:56:03Z</time>
      </trkpt>
      <trkpt lat="40.410594" lon="-7.464563">
        <ele>600.014</ele>
        <time>2019-05-28T19:56:12Z</time>
      </trkpt>
      <trkpt lat="40.410663" lon="-7.464998">
        <ele>598.071</ele>
        <time>2019-05-28T19:56:21Z</time>
      </trkpt>
      <trkpt lat="40.411025" lon="-7.466545">
        <ele>586.032</ele>
        <time>2019-05-28T19:56:54Z</time>
      </trkpt>
      <trkpt lat="40.410958" lon="-7.466784">
        <ele>586.019</ele>
        <time>2019-05-28T19:57:00Z</time>
      </trkpt>
      <trkpt lat="40.410829" lon="-7.466902">
        <ele>587.050</ele>
        <time>2019-05-28T19:57:04Z</time>
      </trkpt>
      <trkpt lat="40.410782" lon="-7.467358">
        <ele>584.011</ele>
        <time>2019-05-28T19:57:13Z</time>
      </trkpt>
      <trkpt lat="40.410813" lon="-7.467696">
        <ele>581.021</ele>
        <time>2019-05-28T19:57:20Z</time>
      </trkpt>
      <trkpt lat="40.410739" lon="-7.468163">
        <ele>579.003</ele>
        <time>2019-05-28T19:57:30Z</time>
      </trkpt>
      <trkpt lat="40.410616" lon="-7.468453">
        <ele>579.008</ele>
        <time>2019-05-28T19:57:36Z</time>
      </trkpt>
      <trkpt lat="40.410675" lon="-7.468952">
        <ele>577.044</ele>
        <time>2019-05-28T19:57:47Z</time>
      </trkpt>
      <trkpt lat="40.410870" lon="-7.470172">
        <ele>580.097</ele>
        <time>2019-05-28T19:58:12Z</time>
      </trkpt>
      <trkpt lat="40.410834" lon="-7.471254">
        <ele>581.040</ele>
        <time>2019-05-28T19:58:34Z</time>
      </trkpt>
      <trkpt lat="40.410647" lon="-7.471676">
        <ele>583.058</ele>
        <time>2019-05-28T19:58:44Z</time>
      </trkpt>
      <trkpt lat="40.410505" lon="-7.471748">
        <ele>586.085</ele>
        <time>2019-05-28T19:58:48Z</time>
      </trkpt>
      <trkpt lat="40.410126" lon="-7.472350">
        <ele>589.096</ele>
        <time>2019-05-28T19:59:04Z</time>
      </trkpt>
      <trkpt lat="40.410032" lon="-7.472797">
        <ele>589.013</ele>
        <time>2019-05-28T19:59:13Z</time>
      </trkpt>
      <trkpt lat="40.409996" lon="-7.473610">
        <ele>588.014</ele>
        <time>2019-05-28T19:59:30Z</time>
      </trkpt>
      <trkpt lat="40.409787" lon="-7.474466">
        <ele>583.035</ele>
        <time>2019-05-28T19:59:48Z</time>
      </trkpt>
      <trkpt lat="40.409526" lon="-7.474742">
        <ele>583.086</ele>
        <time>2019-05-28T19:59:57Z</time>
      </trkpt>
      <trkpt lat="40.409258" lon="-7.474930">
        <ele>584.014</ele>
        <time>2019-05-28T20:00:05Z</time>
      </trkpt>
      <trkpt lat="40.409048" lon="-7.474984">
        <ele>585.008</ele>
        <time>2019-05-28T20:00:11Z</time>
      </trkpt>
      <trkpt lat="40.408758" lon="-7.475145">
        <ele>586.086</ele>
        <time>2019-05-28T20:00:19Z</time>
      </trkpt>
      <trkpt lat="40.408309" lon="-7.475212">
        <ele>589.029</ele>
        <time>2019-05-28T20:00:31Z</time>
      </trkpt>
      <trkpt lat="40.408121" lon="-7.475150">
        <ele>591.042</ele>
        <time>2019-05-28T20:00:37Z</time>
      </trkpt>
      <trkpt lat="40.407561" lon="-7.475204">
        <ele>594.050</ele>
        <time>2019-05-28T20:00:52Z</time>
      </trkpt>
      <trkpt lat="40.407138" lon="-7.475328">
        <ele>598.067</ele>
        <time>2019-05-28T20:01:03Z</time>
      </trkpt>
      <trkpt lat="40.406689" lon="-7.475912">
        <ele>599.028</ele>
        <time>2019-05-28T20:01:20Z</time>
      </trkpt>
      <trkpt lat="40.406438" lon="-7.476694">
        <ele>603.045</ele>
        <time>2019-05-28T20:01:37Z</time>
      </trkpt>
      <trkpt lat="40.406395" lon="-7.477749">
        <ele>608.026</ele>
        <time>2019-05-28T20:01:59Z</time>
      </trkpt>
      <trkpt lat="40.406189" lon="-7.477961">
        <ele>616.086</ele>
        <time>2019-05-28T20:02:06Z</time>
      </trkpt>
      <trkpt lat="40.406352" lon="-7.478602">
        <ele>613.060</ele>
        <time>2019-05-28T20:02:19Z</time>
      </trkpt>
      <trkpt lat="40.406313" lon="-7.478712">
        <ele>614.026</ele>
        <time>2019-05-28T20:02:22Z</time>
      </trkpt>
      <trkpt lat="40.406021" lon="-7.478924">
        <ele>619.008</ele>
        <time>2019-05-28T20:02:31Z</time>
      </trkpt>
      <trkpt lat="40.405615" lon="-7.479342">
        <ele>627.071</ele>
        <time>2019-05-28T20:02:45Z</time>
      </trkpt>
      <trkpt lat="40.405362" lon="-7.479769">
        <ele>634.074</ele>
        <time>2019-05-28T20:02:56Z</time>
      </trkpt>
      <trkpt lat="40.405378" lon="-7.479900">
        <ele>635.067</ele>
        <time>2019-05-28T20:02:58Z</time>
      </trkpt>
      <trkpt lat="40.405496" lon="-7.479957">
        <ele>634.045</ele>
        <time>2019-05-28T20:03:02Z</time>
      </trkpt>
      <trkpt lat="40.406117" lon="-7.479959">
        <ele>626.012</ele>
        <time>2019-05-28T20:03:18Z</time>
      </trkpt>
      <trkpt lat="40.406217" lon="-7.480085">
        <ele>626.033</ele>
        <time>2019-05-28T20:03:22Z</time>
      </trkpt>
      <trkpt lat="40.406266" lon="-7.480276">
        <ele>627.040</ele>
        <time>2019-05-28T20:03:26Z</time>
      </trkpt>
      <trkpt lat="40.406244" lon="-7.480909">
        <ele>625.081</ele>
        <time>2019-05-28T20:03:39Z</time>
      </trkpt>
      <trkpt lat="40.406119" lon="-7.481381">
        <ele>626.065</ele>
        <time>2019-05-28T20:03:49Z</time>
      </trkpt>
      <trkpt lat="40.405870" lon="-7.481713">
        <ele>632.068</ele>
        <time>2019-05-28T20:03:59Z</time>
      </trkpt>
      <trkpt lat="40.405870" lon="-7.481869">
        <ele>632.014</ele>
        <time>2019-05-28T20:04:02Z</time>
      </trkpt>
      <trkpt lat="40.405968" lon="-7.481947">
        <ele>631.008</ele>
        <time>2019-05-28T20:04:05Z</time>
      </trkpt>
      <trkpt lat="40.406154" lon="-7.482022">
        <ele>627.039</ele>
        <time>2019-05-28T20:04:10Z</time>
      </trkpt>
      <trkpt lat="40.406221" lon="-7.482135">
        <ele>626.012</ele>
        <time>2019-05-28T20:04:13Z</time>
      </trkpt>
      <trkpt lat="40.406242" lon="-7.482333">
        <ele>625.065</ele>
        <time>2019-05-28T20:04:17Z</time>
      </trkpt>
      <trkpt lat="40.406089" lon="-7.482746">
        <ele>628.043</ele>
        <time>2019-05-28T20:04:26Z</time>
      </trkpt>
      <trkpt lat="40.405942" lon="-7.482934">
        <ele>632.050</ele>
        <time>2019-05-28T20:04:32Z</time>
      </trkpt>
      <trkpt lat="40.405756" lon="-7.483339">
        <ele>635.021</ele>
        <time>2019-05-28T20:04:41Z</time>
      </trkpt>
      <trkpt lat="40.405670" lon="-7.483779">
        <ele>629.068</ele>
        <time>2019-05-28T20:04:51Z</time>
      </trkpt>
      <trkpt lat="40.405496" lon="-7.484267">
        <ele>631.089</ele>
        <time>2019-05-28T20:05:02Z</time>
      </trkpt>
      <trkpt lat="40.405215" lon="-7.484661">
        <ele>638.051</ele>
        <time>2019-05-28T20:05:13Z</time>
      </trkpt>
      <trkpt lat="40.404914" lon="-7.484884">
        <ele>642.001</ele>
        <time>2019-05-28T20:05:22Z</time>
      </trkpt>
      <trkpt lat="40.404512" lon="-7.484956">
        <ele>646.011</ele>
        <time>2019-05-28T20:05:33Z</time>
      </trkpt>
      <trkpt lat="40.403848" lon="-7.485192">
        <ele>655.008</ele>
        <time>2019-05-28T20:05:51Z</time>
      </trkpt>
      <trkpt lat="40.403750" lon="-7.485353">
        <ele>655.018</ele>
        <time>2019-05-28T20:05:55Z</time>
      </trkpt>
      <trkpt lat="40.403728" lon="-7.485651">
        <ele>655.091</ele>
        <time>2019-05-28T20:06:01Z</time>
      </trkpt>
      <trkpt lat="40.403856" lon="-7.485874">
        <ele>653.024</ele>
        <time>2019-05-28T20:06:07Z</time>
      </trkpt>
      <trkpt lat="40.404224" lon="-7.486013">
        <ele>643.082</ele>
        <time>2019-05-28T20:06:17Z</time>
      </trkpt>
      <trkpt lat="40.404459" lon="-7.486222">
        <ele>640.049</ele>
        <time>2019-05-28T20:06:25Z</time>
      </trkpt>
      <trkpt lat="40.404557" lon="-7.486437">
        <ele>642.030</ele>
        <time>2019-05-28T20:06:30Z</time>
      </trkpt>
      <trkpt lat="40.404563" lon="-7.486963">
        <ele>648.097</ele>
        <time>2019-05-28T20:06:40Z</time>
      </trkpt>
      <trkpt lat="40.404471" lon="-7.487330">
        <ele>652.088</ele>
        <time>2019-05-28T20:06:48Z</time>
      </trkpt>
      <trkpt lat="40.404093" lon="-7.488277">
        <ele>659.088</ele>
        <time>2019-05-28T20:07:10Z</time>
      </trkpt>
      <trkpt lat="40.403119" lon="-7.489937">
        <ele>669.024</ele>
        <time>2019-05-28T20:07:53Z</time>
      </trkpt>
      <trkpt lat="40.402884" lon="-7.490160">
        <ele>681.026</ele>
        <time>2019-05-28T20:08:00Z</time>
      </trkpt>
      <trkpt lat="40.402667" lon="-7.490594">
        <ele>689.008</ele>
        <time>2019-05-28T20:08:11Z</time>
      </trkpt>
      <trkpt lat="40.402516" lon="-7.491050">
        <ele>689.031</ele>
        <time>2019-05-28T20:08:21Z</time>
      </trkpt>
      <trkpt lat="40.402032" lon="-7.491715">
        <ele>694.054</ele>
        <time>2019-05-28T20:08:40Z</time>
      </trkpt>
      <trkpt lat="40.401703" lon="-7.492045">
        <ele>698.057</ele>
        <time>2019-05-28T20:08:51Z</time>
      </trkpt>
      <trkpt lat="40.401035" lon="-7.492356">
        <ele>712.085</ele>
        <time>2019-05-28T20:09:10Z</time>
      </trkpt>
      <trkpt lat="40.400870" lon="-7.492576">
        <ele>712.072</ele>
        <time>2019-05-28T20:09:16Z</time>
      </trkpt>
      <trkpt lat="40.400809" lon="-7.493035">
        <ele>707.043</ele>
        <time>2019-05-28T20:09:25Z</time>
      </trkpt>
      <trkpt lat="40.400288" lon="-7.493617">
        <ele>712.060</ele>
        <time>2019-05-28T20:09:44Z</time>
      </trkpt>
      <trkpt lat="40.399941" lon="-7.494677">
        <ele>707.091</ele>
        <time>2019-05-28T20:10:07Z</time>
      </trkpt>
      <trkpt lat="40.399655" lon="-7.494888">
        <ele>713.016</ele>
        <time>2019-05-28T20:10:16Z</time>
      </trkpt>
      <trkpt lat="40.399612" lon="-7.495017">
        <ele>713.076</ele>
        <time>2019-05-28T20:10:19Z</time>
      </trkpt>
      <trkpt lat="40.399665" lon="-7.495141">
        <ele>714.013</ele>
        <time>2019-05-28T20:10:22Z</time>
      </trkpt>
      <trkpt lat="40.399963" lon="-7.495256">
        <ele>709.008</ele>
        <time>2019-05-28T20:10:30Z</time>
      </trkpt>
      <trkpt lat="40.400609" lon="-7.495122">
        <ele>699.034</ele>
        <time>2019-05-28T20:10:47Z</time>
      </trkpt>
      <trkpt lat="40.400790" lon="-7.494998">
        <ele>694.037</ele>
        <time>2019-05-28T20:10:53Z</time>
      </trkpt>
      <trkpt lat="40.401003" lon="-7.495090">
        <ele>693.070</ele>
        <time>2019-05-28T20:10:59Z</time>
      </trkpt>
      <trkpt lat="40.401201" lon="-7.495348">
        <ele>693.068</ele>
        <time>2019-05-28T20:11:06Z</time>
      </trkpt>
      <trkpt lat="40.401540" lon="-7.496080">
        <ele>683.055</ele>
        <time>2019-05-28T20:11:24Z</time>
      </trkpt>
      <trkpt lat="40.401867" lon="-7.496492">
        <ele>675.016</ele>
        <time>2019-05-28T20:11:36Z</time>
      </trkpt>
      <trkpt lat="40.401910" lon="-7.496686">
        <ele>674.053</ele>
        <time>2019-05-28T20:11:40Z</time>
      </trkpt>
      <trkpt lat="40.401814" lon="-7.496777">
        <ele>673.064</ele>
        <time>2019-05-28T20:11:43Z</time>
      </trkpt>
      <trkpt lat="40.401413" lon="-7.496857">
        <ele>675.088</ele>
        <time>2019-05-28T20:11:54Z</time>
      </trkpt>
      <trkpt lat="40.400433" lon="-7.497158">
        <ele>677.024</ele>
        <time>2019-05-28T20:12:21Z</time>
      </trkpt>
      <trkpt lat="40.399787" lon="-7.497434">
        <ele>677.026</ele>
        <time>2019-05-28T20:12:39Z</time>
      </trkpt>
      <trkpt lat="40.399299" lon="-7.497785">
        <ele>678.008</ele>
        <time>2019-05-28T20:12:54Z</time>
      </trkpt>
      <trkpt lat="40.398954" lon="-7.498228">
        <ele>679.091</ele>
        <time>2019-05-28T20:13:07Z</time>
      </trkpt>
      <trkpt lat="40.398508" lon="-7.498937">
        <ele>678.094</ele>
        <time>2019-05-28T20:13:25Z</time>
      </trkpt>
      <trkpt lat="40.398047" lon="-7.500036">
        <ele>683.057</ele>
        <time>2019-05-28T20:13:51Z</time>
      </trkpt>
      <trkpt lat="40.397885" lon="-7.500757">
        <ele>680.065</ele>
        <time>2019-05-28T20:14:06Z</time>
      </trkpt>
      <trkpt lat="40.397720" lon="-7.501150">
        <ele>677.062</ele>
        <time>2019-05-28T20:14:15Z</time>
      </trkpt>
      <trkpt lat="40.397492" lon="-7.501328">
        <ele>679.083</ele>
        <time>2019-05-28T20:14:22Z</time>
      </trkpt>
      <trkpt lat="40.396989" lon="-7.501471">
        <ele>689.030</ele>
        <time>2019-05-28T20:14:36Z</time>
      </trkpt>
      <trkpt lat="40.396691" lon="-7.501752">
        <ele>691.041</ele>
        <time>2019-05-28T20:14:46Z</time>
      </trkpt>
      <trkpt lat="40.396260" lon="-7.502731">
        <ele>691.067</ele>
        <time>2019-05-28T20:15:09Z</time>
      </trkpt>
      <trkpt lat="40.395870" lon="-7.503327">
        <ele>685.081</ele>
        <time>2019-05-28T20:15:25Z</time>
      </trkpt>
      <trkpt lat="40.394883" lon="-7.503855">
        <ele>685.019</ele>
        <time>2019-05-28T20:15:53Z</time>
      </trkpt>
      <trkpt lat="40.394685" lon="-7.504625">
        <ele>680.008</ele>
        <time>2019-05-28T20:16:10Z</time>
      </trkpt>
      <trkpt lat="40.394662" lon="-7.505247">
        <ele>673.039</ele>
        <time>2019-05-28T20:16:23Z</time>
      </trkpt>
      <trkpt lat="40.394718" lon="-7.505400">
        <ele>667.042</ele>
        <time>2019-05-28T20:16:26Z</time>
      </trkpt>
      <trkpt lat="40.394625" lon="-7.506466">
        <ele>664.065</ele>
        <time>2019-05-28T20:16:48Z</time>
      </trkpt>
      <trkpt lat="40.394771" lon="-7.507312">
        <ele>657.033</ele>
        <time>2019-05-28T20:17:05Z</time>
      </trkpt>
      <trkpt lat="40.395206" lon="-7.508495">
        <ele>645.020</ele>
        <time>2019-05-28T20:17:32Z</time>
      </trkpt>
      <trkpt lat="40.395407" lon="-7.509500">
        <ele>651.061</ele>
        <time>2019-05-28T20:17:53Z</time>
      </trkpt>
      <trkpt lat="40.395661" lon="-7.509981">
        <ele>656.048</ele>
        <time>2019-05-28T20:18:05Z</time>
      </trkpt>
      <trkpt lat="40.396262" lon="-7.510826">
        <ele>659.019</ele>
        <time>2019-05-28T20:18:29Z</time>
      </trkpt>
      <trkpt lat="40.396351" lon="-7.511166">
        <ele>662.055</ele>
        <time>2019-05-28T20:18:36Z</time>
      </trkpt>
      <trkpt lat="40.397049" lon="-7.512494">
        <ele>667.007</ele>
        <time>2019-05-28T20:19:09Z</time>
      </trkpt>
      <trkpt lat="40.397677" lon="-7.513836">
        <ele>675.017</ele>
        <time>2019-05-28T20:19:41Z</time>
      </trkpt>
      <trkpt lat="40.397959" lon="-7.514855">
        <ele>683.008</ele>
        <time>2019-05-28T20:20:03Z</time>
      </trkpt>
      <trkpt lat="40.398264" lon="-7.515441">
        <ele>684.038</ele>
        <time>2019-05-28T20:20:17Z</time>
      </trkpt>
      <trkpt lat="40.399257" lon="-7.516913">
        <ele>685.071</ele>
        <time>2019-05-28T20:20:57Z</time>
      </trkpt>
      <trkpt lat="40.400470" lon="-7.518360">
        <ele>691.084</ele>
        <time>2019-05-28T20:21:41Z</time>
      </trkpt>
      <trkpt lat="40.400400" lon="-7.518428">
        <ele>693.012</ele>
        <time>2019-05-28T20:21:43Z</time>
      </trkpt>
      <trkpt lat="40.400302" lon="-7.518385">
        <ele>694.079</ele>
        <time>2019-05-28T20:21:46Z</time>
      </trkpt>
      <trkpt lat="40.399837" lon="-7.517854">
        <ele>693.050</ele>
        <time>2019-05-28T20:22:03Z</time>
      </trkpt>
      <trkpt lat="40.399553" lon="-7.517650">
        <ele>693.047</ele>
        <time>2019-05-28T20:22:11Z</time>
      </trkpt>
      <trkpt lat="40.399089" lon="-7.517650">
        <ele>703.058</ele>
        <time>2019-05-28T20:22:24Z</time>
      </trkpt>
      <trkpt lat="40.398860" lon="-7.517290">
        <ele>700.033</ele>
        <time>2019-05-28T20:22:33Z</time>
      </trkpt>
      <trkpt lat="40.398752" lon="-7.516995">
        <ele>700.023</ele>
        <time>2019-05-28T20:22:40Z</time>
      </trkpt>
      <trkpt lat="40.398368" lon="-7.516724">
        <ele>708.015</ele>
        <time>2019-05-28T20:22:51Z</time>
      </trkpt>
      <trkpt lat="40.397708" lon="-7.516148">
        <ele>721.008</ele>
        <time>2019-05-28T20:23:13Z</time>
      </trkpt>
      <trkpt lat="40.397285" lon="-7.515651">
        <ele>723.086</ele>
        <time>2019-05-28T20:23:28Z</time>
      </trkpt>
      <trkpt lat="40.396967" lon="-7.515466">
        <ele>726.099</ele>
        <time>2019-05-28T20:23:37Z</time>
      </trkpt>
      <trkpt lat="40.396619" lon="-7.515640">
        <ele>734.062</ele>
        <time>2019-05-28T20:23:47Z</time>
      </trkpt>
      <trkpt lat="40.396415" lon="-7.515586">
        <ele>737.090</ele>
        <time>2019-05-28T20:23:52Z</time>
      </trkpt>
      <trkpt lat="40.396117" lon="-7.514959">
        <ele>733.047</ele>
        <time>2019-05-28T20:24:07Z</time>
      </trkpt>
      <trkpt lat="40.396135" lon="-7.515483">
        <ele>744.048</ele>
        <time>2019-05-28T20:24:18Z</time>
      </trkpt>
      <trkpt lat="40.396223" lon="-7.516024">
        <ele>759.045</ele>
        <time>2019-05-28T20:24:29Z</time>
      </trkpt>
      <trkpt lat="40.396652" lon="-7.516040">
        <ele>749.096</ele>
        <time>2019-05-28T20:24:41Z</time>
      </trkpt>
      <trkpt lat="40.396909" lon="-7.516228">
        <ele>751.055</ele>
        <time>2019-05-28T20:24:49Z</time>
      </trkpt>
      <trkpt lat="40.397178" lon="-7.516787">
        <ele>759.007</ele>
        <time>2019-05-28T20:25:02Z</time>
      </trkpt>
      <trkpt lat="40.397551" lon="-7.517986">
        <ele>766.017</ele>
        <time>2019-05-28T20:25:28Z</time>
      </trkpt>
      <trkpt lat="40.397576" lon="-7.518673">
        <ele>774.008</ele>
        <time>2019-05-28T20:25:42Z</time>
      </trkpt>
      <trkpt lat="40.397640" lon="-7.518819">
        <ele>773.088</ele>
        <time>2019-05-28T20:25:46Z</time>
      </trkpt>
      <trkpt lat="40.397990" lon="-7.518967">
        <ele>767.071</ele>
        <time>2019-05-28T20:25:56Z</time>
      </trkpt>
      <trkpt lat="40.398211" lon="-7.519165">
        <ele>768.034</ele>
        <time>2019-05-28T20:26:03Z</time>
      </trkpt>
      <trkpt lat="40.398548" lon="-7.519152">
        <ele>759.042</ele>
        <time>2019-05-28T20:26:12Z</time>
      </trkpt>
      <trkpt lat="40.398823" lon="-7.519348">
        <ele>756.019</ele>
        <time>2019-05-28T20:26:20Z</time>
      </trkpt>
      <trkpt lat="40.399111" lon="-7.519876">
        <ele>758.090</ele>
        <time>2019-05-28T20:26:33Z</time>
      </trkpt>
      <trkpt lat="40.399361" lon="-7.520563">
        <ele>764.027</ele>
        <time>2019-05-28T20:26:49Z</time>
      </trkpt>
      <trkpt lat="40.399753" lon="-7.520866">
        <ele>755.068</ele>
        <time>2019-05-28T20:27:01Z</time>
      </trkpt>
      <trkpt lat="40.399857" lon="-7.521043">
        <ele>755.061</ele>
        <time>2019-05-28T20:27:06Z</time>
      </trkpt>
      <trkpt lat="40.399853" lon="-7.521429">
        <ele>764.021</ele>
        <time>2019-05-28T20:27:13Z</time>
      </trkpt>
      <trkpt lat="40.400276" lon="-7.521880">
        <ele>765.013</ele>
        <time>2019-05-28T20:27:28Z</time>
      </trkpt>
      <trkpt lat="40.400426" lon="-7.522164">
        <ele>762.008</ele>
        <time>2019-05-28T20:27:35Z</time>
      </trkpt>
      <trkpt lat="40.400508" lon="-7.522587">
        <ele>765.049</ele>
        <time>2019-05-28T20:27:44Z</time>
      </trkpt>
      <trkpt lat="40.400509" lon="-7.522851">
        <ele>768.012</ele>
        <time>2019-05-28T20:27:49Z</time>
      </trkpt>
      <trkpt lat="40.400439" lon="-7.523454">
        <ele>773.045</ele>
        <time>2019-05-28T20:28:02Z</time>
      </trkpt>
      <trkpt lat="40.400331" lon="-7.523816">
        <ele>779.083</ele>
        <time>2019-05-28T20:28:10Z</time>
      </trkpt>
      <trkpt lat="40.400552" lon="-7.524956">
        <ele>773.040</ele>
        <time>2019-05-28T20:28:33Z</time>
      </trkpt>
      <trkpt lat="40.400625" lon="-7.525720">
        <ele>775.011</ele>
        <time>2019-05-28T20:28:49Z</time>
      </trkpt>
      <trkpt lat="40.400463" lon="-7.526243">
        <ele>783.088</ele>
        <time>2019-05-28T20:29:01Z</time>
      </trkpt>
      <trkpt lat="40.400693" lon="-7.526574">
        <ele>773.049</ele>
        <time>2019-05-28T20:29:10Z</time>
      </trkpt>
      <trkpt lat="40.400742" lon="-7.526782">
        <ele>772.063</ele>
        <time>2019-05-28T20:29:14Z</time>
      </trkpt>
      <trkpt lat="40.400470" lon="-7.528252">
        <ele>773.044</ele>
        <time>2019-05-28T20:29:45Z</time>
      </trkpt>
      <trkpt lat="40.399518" lon="-7.530066">
        <ele>780.018</ele>
        <time>2019-05-28T20:30:30Z</time>
      </trkpt>
      <trkpt lat="40.399371" lon="-7.530157">
        <ele>782.008</ele>
        <time>2019-05-28T20:30:34Z</time>
      </trkpt>
      <trkpt lat="40.398590" lon="-7.530460">
        <ele>790.049</ele>
        <time>2019-05-28T20:30:56Z</time>
      </trkpt>
      <trkpt lat="40.398425" lon="-7.530763">
        <ele>784.042</ele>
        <time>2019-05-28T20:31:03Z</time>
      </trkpt>
      <trkpt lat="40.398088" lon="-7.531273">
        <ele>787.095</ele>
        <time>2019-05-28T20:31:17Z</time>
      </trkpt>
      <trkpt lat="40.397649" lon="-7.531817">
        <ele>788.023</ele>
        <time>2019-05-28T20:31:33Z</time>
      </trkpt>
      <trkpt lat="40.397191" lon="-7.532117">
        <ele>793.030</ele>
        <time>2019-05-28T20:31:47Z</time>
      </trkpt>
      <trkpt lat="40.396866" lon="-7.532796">
        <ele>792.091</ele>
        <time>2019-05-28T20:32:03Z</time>
      </trkpt>
      <trkpt lat="40.396681" lon="-7.533027">
        <ele>797.088</ele>
        <time>2019-05-28T20:32:10Z</time>
      </trkpt>
      <trkpt lat="40.395539" lon="-7.534210">
        <ele>779.019</ele>
        <time>2019-05-28T20:32:49Z</time>
      </trkpt>
      <trkpt lat="40.395326" lon="-7.534625">
        <ele>773.042</ele>
        <time>2019-05-28T20:32:59Z</time>
      </trkpt>
      <trkpt lat="40.395038" lon="-7.534829">
        <ele>775.022</ele>
        <time>2019-05-28T20:33:08Z</time>
      </trkpt>
      <trkpt lat="40.395255" lon="-7.534915">
        <ele>767.014</ele>
        <time>2019-05-28T20:33:14Z</time>
      </trkpt>
      <trkpt lat="40.395426" lon="-7.534880">
        <ele>762.008</ele>
        <time>2019-05-28T20:33:18Z</time>
      </trkpt>
      <trkpt lat="40.395459" lon="-7.534939">
        <ele>759.057</ele>
        <time>2019-05-28T20:33:20Z</time>
      </trkpt>
      <trkpt lat="40.395416" lon="-7.535036">
        <ele>758.070</ele>
        <time>2019-05-28T20:33:22Z</time>
      </trkpt>
      <trkpt lat="40.395249" lon="-7.535194">
        <ele>759.063</ele>
        <time>2019-05-28T20:33:28Z</time>
      </trkpt>
      <trkpt lat="40.395343" lon="-7.535698">
        <ele>742.021</ele>
        <time>2019-05-28T20:33:38Z</time>
      </trkpt>
      <trkpt lat="40.395287" lon="-7.535827">
        <ele>740.088</ele>
        <time>2019-05-28T20:33:41Z</time>
      </trkpt>
      <trkpt lat="40.395124" lon="-7.535999">
        <ele>742.049</ele>
        <time>2019-05-28T20:33:47Z</time>
      </trkpt>
      <trkpt lat="40.394882" lon="-7.536565">
        <ele>739.036</ele>
        <time>2019-05-28T20:34:00Z</time>
      </trkpt>
      <trkpt lat="40.395173" lon="-7.536817">
        <ele>730.027</ele>
        <time>2019-05-28T20:34:09Z</time>
      </trkpt>
      <trkpt lat="40.395241" lon="-7.537391">
        <ele>728.069</ele>
        <time>2019-05-28T20:34:21Z</time>
      </trkpt>
      <trkpt lat="40.395235" lon="-7.538366">
        <ele>717.004</ele>
        <time>2019-05-28T20:34:41Z</time>
      </trkpt>
      <trkpt lat="40.395271" lon="-7.538515">
        <ele>713.024</ele>
        <time>2019-05-28T20:34:44Z</time>
      </trkpt>
      <trkpt lat="40.395584" lon="-7.538434">
        <ele>711.008</ele>
        <time>2019-05-28T20:34:53Z</time>
      </trkpt>
      <trkpt lat="40.395726" lon="-7.538459">
        <ele>710.049</ele>
        <time>2019-05-28T20:34:56Z</time>
      </trkpt>
      <trkpt lat="40.396133" lon="-7.538373">
        <ele>704.012</ele>
        <time>2019-05-28T20:35:07Z</time>
      </trkpt>
      <trkpt lat="40.396194" lon="-7.538681">
        <ele>703.025</ele>
        <time>2019-05-28T20:35:14Z</time>
      </trkpt>
      <trkpt lat="40.396351" lon="-7.538742">
        <ele>703.013</ele>
        <time>2019-05-28T20:35:18Z</time>
      </trkpt>
      <trkpt lat="40.396445" lon="-7.538800">
        <ele>703.050</ele>
        <time>2019-05-28T20:35:21Z</time>
      </trkpt>
      <trkpt lat="40.396515" lon="-7.538869">
        <ele>705.051</ele>
        <time>2019-05-28T20:35:23Z</time>
      </trkpt>
      <trkpt lat="40.396756" lon="-7.538611">
        <ele>704.048</ele>
        <time>2019-05-28T20:35:32Z</time>
      </trkpt>
      <trkpt lat="40.396981" lon="-7.538520">
        <ele>706.049</ele>
        <time>2019-05-28T20:35:38Z</time>
      </trkpt>
      <trkpt lat="40.397096" lon="-7.538539">
        <ele>707.026</ele>
        <time>2019-05-28T20:35:41Z</time>
      </trkpt>
      <trkpt lat="40.397332" lon="-7.538979">
        <ele>712.047</ele>
        <time>2019-05-28T20:35:52Z</time>
      </trkpt>
      <trkpt lat="40.397407" lon="-7.539016">
        <ele>713.011</ele>
        <time>2019-05-28T20:35:54Z</time>
      </trkpt>
      <trkpt lat="40.397487" lon="-7.538871">
        <ele>714.008</ele>
        <time>2019-05-28T20:35:58Z</time>
      </trkpt>
      <trkpt lat="40.397681" lon="-7.538803">
        <ele>717.025</ele>
        <time>2019-05-28T20:36:03Z</time>
      </trkpt>
      <trkpt lat="40.397903" lon="-7.538699">
        <ele>721.028</ele>
        <time>2019-05-28T20:36:09Z</time>
      </trkpt>
      <trkpt lat="40.398121" lon="-7.538490">
        <ele>726.091</ele>
        <time>2019-05-28T20:36:17Z</time>
      </trkpt>
      <trkpt lat="40.398672" lon="-7.538336">
        <ele>739.029</ele>
        <time>2019-05-28T20:36:32Z</time>
      </trkpt>
      <trkpt lat="40.399030" lon="-7.538303">
        <ele>746.016</ele>
        <time>2019-05-28T20:36:41Z</time>
      </trkpt>
      <trkpt lat="40.399363" lon="-7.538300">
        <ele>752.077</ele>
        <time>2019-05-28T20:36:50Z</time>
      </trkpt>
      <trkpt lat="40.399648" lon="-7.538098">
        <ele>755.074</ele>
        <time>2019-05-28T20:36:59Z</time>
      </trkpt>
      <trkpt lat="40.399836" lon="-7.538055">
        <ele>758.025</ele>
        <time>2019-05-28T20:37:04Z</time>
      </trkpt>
      <trkpt lat="40.400077" lon="-7.537960">
        <ele>759.025</ele>
        <time>2019-05-28T20:37:11Z</time>
      </trkpt>
      <trkpt lat="40.400242" lon="-7.537961">
        <ele>761.026</ele>
        <time>2019-05-28T20:37:15Z</time>
      </trkpt>
      <trkpt lat="40.400654" lon="-7.538068">
        <ele>766.008</ele>
        <time>2019-05-28T20:37:26Z</time>
      </trkpt>
      <trkpt lat="40.400941" lon="-7.538068">
        <ele>770.008</ele>
        <time>2019-05-28T20:37:34Z</time>
      </trkpt>
      <trkpt lat="40.401035" lon="-7.538084">
        <ele>771.015</ele>
        <time>2019-05-28T20:37:36Z</time>
      </trkpt>
      <trkpt lat="40.401256" lon="-7.537929">
        <ele>775.038</ele>
        <time>2019-05-28T20:37:43Z</time>
      </trkpt>
      <trkpt lat="40.401381" lon="-7.537907">
        <ele>777.071</ele>
        <time>2019-05-28T20:37:46Z</time>
      </trkpt>
      <trkpt lat="40.401544" lon="-7.538040">
        <ele>779.069</ele>
        <time>2019-05-28T20:37:52Z</time>
      </trkpt>
      <trkpt lat="40.401582" lon="-7.538051">
        <ele>779.036</ele>
        <time>2019-05-28T20:37:53Z</time>
      </trkpt>
      <trkpt lat="40.401612" lon="-7.538095">
        <ele>779.077</ele>
        <time>2019-05-28T20:37:54Z</time>
      </trkpt>
      <trkpt lat="40.401677" lon="-7.538088">
        <ele>780.094</ele>
        <time>2019-05-28T20:37:56Z</time>
      </trkpt>
      <trkpt lat="40.401776" lon="-7.538237">
        <ele>781.075</ele>
        <time>2019-05-28T20:38:00Z</time>
      </trkpt>
      <trkpt lat="40.401855" lon="-7.538303">
        <ele>782.058</ele>
        <time>2019-05-28T20:38:02Z</time>
      </trkpt>
      <trkpt lat="40.401936" lon="-7.538454">
        <ele>783.052</ele>
        <time>2019-05-28T20:38:06Z</time>
      </trkpt>
      <trkpt lat="40.402048" lon="-7.538522">
        <ele>785.017</ele>
        <time>2019-05-28T20:38:09Z</time>
      </trkpt>
      <trkpt lat="40.402091" lon="-7.538514">
        <ele>785.008</ele>
        <time>2019-05-28T20:38:10Z</time>
      </trkpt>
      <trkpt lat="40.402177" lon="-7.538570">
        <ele>787.048</ele>
        <time>2019-05-28T20:38:13Z</time>
      </trkpt>
      <trkpt lat="40.402226" lon="-7.538555">
        <ele>788.061</ele>
        <time>2019-05-28T20:38:14Z</time>
      </trkpt>
      <trkpt lat="40.402290" lon="-7.538494">
        <ele>788.094</ele>
        <time>2019-05-28T20:38:16Z</time>
      </trkpt>
      <trkpt lat="40.402364" lon="-7.538591">
        <ele>790.052</ele>
        <time>2019-05-28T20:38:19Z</time>
      </trkpt>
      <trkpt lat="40.402446" lon="-7.538613">
        <ele>792.019</ele>
        <time>2019-05-28T20:38:21Z</time>
      </trkpt>
      <trkpt lat="40.402544" lon="-7.538593">
        <ele>793.070</ele>
        <time>2019-05-28T20:38:24Z</time>
      </trkpt>
      <trkpt lat="40.402747" lon="-7.538485">
        <ele>793.057</ele>
        <time>2019-05-28T20:38:30Z</time>
      </trkpt>
      <trkpt lat="40.402909" lon="-7.539018">
        <ele>802.088</ele>
        <time>2019-05-28T20:38:41Z</time>
      </trkpt>
      <trkpt lat="40.403015" lon="-7.539038">
        <ele>804.034</ele>
        <time>2019-05-28T20:38:44Z</time>
      </trkpt>
      <trkpt lat="40.403361" lon="-7.539274">
        <ele>807.055</ele>
        <time>2019-05-28T20:38:55Z</time>
      </trkpt>
      <trkpt lat="40.403833" lon="-7.539859">
        <ele>812.010</ele>
        <time>2019-05-28T20:39:12Z</time>
      </trkpt>
      <trkpt lat="40.403939" lon="-7.540024">
        <ele>814.008</ele>
        <time>2019-05-28T20:39:16Z</time>
      </trkpt>
      <trkpt lat="40.404016" lon="-7.540244">
        <ele>816.076</ele>
        <time>2019-05-28T20:39:21Z</time>
      </trkpt>
      <trkpt lat="40.404236" lon="-7.540556">
        <ele>820.089</ele>
        <time>2019-05-28T20:39:30Z</time>
      </trkpt>
      <trkpt lat="40.404389" lon="-7.540676">
        <ele>823.052</ele>
        <time>2019-05-28T20:39:35Z</time>
      </trkpt>
      <trkpt lat="40.404379" lon="-7.540941">
        <ele>825.010</ele>
        <time>2019-05-28T20:39:40Z</time>
      </trkpt>
      <trkpt lat="40.404300" lon="-7.541234">
        <ele>827.037</ele>
        <time>2019-05-28T20:39:46Z</time>
      </trkpt>
      <trkpt lat="40.404266" lon="-7.541560">
        <ele>830.018</ele>
        <time>2019-05-28T20:39:53Z</time>
      </trkpt>
      <trkpt lat="40.404410" lon="-7.541672">
        <ele>833.015</ele>
        <time>2019-05-28T20:39:58Z</time>
      </trkpt>
      <trkpt lat="40.404971" lon="-7.541994">
        <ele>844.096</ele>
        <time>2019-05-28T20:40:14Z</time>
      </trkpt>
      <trkpt lat="40.405152" lon="-7.542219">
        <ele>850.046</ele>
        <time>2019-05-28T20:40:21Z</time>
      </trkpt>
      <trkpt lat="40.405103" lon="-7.542436">
        <ele>853.088</ele>
        <time>2019-05-28T20:40:25Z</time>
      </trkpt>
      <trkpt lat="40.405092" lon="-7.542782">
        <ele>858.016</ele>
        <time>2019-05-28T20:40:32Z</time>
      </trkpt>
      <trkpt lat="40.405185" lon="-7.542964">
        <ele>861.008</ele>
        <time>2019-05-28T20:40:37Z</time>
      </trkpt>
      <trkpt lat="40.405563" lon="-7.543450">
        <ele>871.087</ele>
        <time>2019-05-28T20:40:51Z</time>
      </trkpt>
      <trkpt lat="40.405823" lon="-7.543830">
        <ele>882.060</ele>
        <time>2019-05-28T20:41:01Z</time>
      </trkpt>
      <trkpt lat="40.405990" lon="-7.543927">
        <ele>888.063</ele>
        <time>2019-05-28T20:41:06Z</time>
      </trkpt>
      <trkpt lat="40.406115" lon="-7.543911">
        <ele>891.051</ele>
        <time>2019-05-28T20:41:09Z</time>
      </trkpt>
      <trkpt lat="40.406202" lon="-7.543972">
        <ele>895.058</ele>
        <time>2019-05-28T20:41:12Z</time>
      </trkpt>
      <trkpt lat="40.406270" lon="-7.544119">
        <ele>899.089</ele>
        <time>2019-05-28T20:41:16Z</time>
      </trkpt>
      <trkpt lat="40.406326" lon="-7.544190">
        <ele>902.046</ele>
        <time>2019-05-28T20:41:18Z</time>
      </trkpt>
      <trkpt lat="40.406400" lon="-7.544190">
        <ele>904.097</ele>
        <time>2019-05-28T20:41:20Z</time>
      </trkpt>
      <trkpt lat="40.406737" lon="-7.544131">
        <ele>911.054</ele>
        <time>2019-05-28T20:41:29Z</time>
      </trkpt>
      <trkpt lat="40.406872" lon="-7.544087">
        <ele>913.056</ele>
        <time>2019-05-28T20:41:32Z</time>
      </trkpt>
      <trkpt lat="40.406996" lon="-7.544085">
        <ele>915.011</ele>
        <time>2019-05-28T20:41:36Z</time>
      </trkpt>
      <trkpt lat="40.407298" lon="-7.544225">
        <ele>920.008</ele>
        <time>2019-05-28T20:41:44Z</time>
      </trkpt>
      <trkpt lat="40.407631" lon="-7.544499">
        <ele>929.068</ele>
        <time>2019-05-28T20:41:55Z</time>
      </trkpt>
      <trkpt lat="40.407988" lon="-7.544978">
        <ele>951.071</ele>
        <time>2019-05-28T20:42:08Z</time>
      </trkpt>
      <trkpt lat="40.407622" lon="-7.545037">
        <ele>953.054</ele>
        <time>2019-05-28T20:42:18Z</time>
      </trkpt>
      <trkpt lat="40.407572" lon="-7.545081">
        <ele>956.052</ele>
        <time>2019-05-28T20:42:20Z</time>
      </trkpt>
      <trkpt lat="40.408433" lon="-7.545683">
        <ele>983.029</ele>
        <time>2019-05-28T20:42:46Z</time>
      </trkpt>
      <trkpt lat="40.408451" lon="-7.545815">
        <ele>988.020</ele>
        <time>2019-05-28T20:42:49Z</time>
      </trkpt>
      <trkpt lat="40.408333" lon="-7.545815">
        <ele>986.087</ele>
        <time>2019-05-28T20:42:52Z</time>
      </trkpt>
      <trkpt lat="40.408022" lon="-7.545937">
        <ele>991.058</ele>
        <time>2019-05-28T20:43:00Z</time>
      </trkpt>
      <trkpt lat="40.407937" lon="-7.545941">
        <ele>992.073</ele>
        <time>2019-05-28T20:43:03Z</time>
      </trkpt>
      <trkpt lat="40.407756" lon="-7.545881">
        <ele>991.085</ele>
        <time>2019-05-28T20:43:08Z</time>
      </trkpt>
      <trkpt lat="40.407747" lon="-7.546007">
        <ele>993.013</ele>
        <time>2019-05-28T20:43:10Z</time>
      </trkpt>
      <trkpt lat="40.408253" lon="-7.546370">
        <ele>1011.008</ele>
        <time>2019-05-28T20:43:26Z</time>
      </trkpt>
      <trkpt lat="40.408524" lon="-7.546437">
        <ele>1017.040</ele>
        <time>2019-05-28T20:43:33Z</time>
      </trkpt>
      <trkpt lat="40.408721" lon="-7.546924">
        <ele>1028.083</ele>
        <time>2019-05-28T20:43:44Z</time>
      </trkpt>
      <trkpt lat="40.408484" lon="-7.546933">
        <ele>1029.066</ele>
        <time>2019-05-28T20:43:51Z</time>
      </trkpt>
      <trkpt lat="40.408474" lon="-7.547016">
        <ele>1032.034</ele>
        <time>2019-05-28T20:43:52Z</time>
      </trkpt>
      <trkpt lat="40.408527" lon="-7.547140">
        <ele>1037.011</ele>
        <time>2019-05-28T20:43:55Z</time>
      </trkpt>
      <trkpt lat="40.408743" lon="-7.547251">
        <ele>1038.032</ele>
        <time>2019-05-28T20:44:01Z</time>
      </trkpt>
      <trkpt lat="40.408987" lon="-7.547555">
        <ele>1043.019</ele>
        <time>2019-05-28T20:44:10Z</time>
      </trkpt>
      <trkpt lat="40.408989" lon="-7.547750">
        <ele>1048.060</ele>
        <time>2019-05-28T20:44:14Z</time>
      </trkpt>
      <trkpt lat="40.408932" lon="-7.547779">
        <ele>1050.024</ele>
        <time>2019-05-28T20:44:16Z</time>
      </trkpt>
      <trkpt lat="40.408508" lon="-7.547619">
        <ele>1049.004</ele>
        <time>2019-05-28T20:44:28Z</time>
      </trkpt>
      <trkpt lat="40.408392" lon="-7.547712">
        <ele>1051.014</ele>
        <time>2019-05-28T20:44:31Z</time>
      </trkpt>
      <trkpt lat="40.408523" lon="-7.547879">
        <ele>1054.008</ele>
        <time>2019-05-28T20:44:36Z</time>
      </trkpt>
      <trkpt lat="40.408463" lon="-7.547991">
        <ele>1057.075</ele>
        <time>2019-05-28T20:44:39Z</time>
      </trkpt>
      <trkpt lat="40.408133" lon="-7.548208">
        <ele>1059.038</ele>
        <time>2019-05-28T20:44:49Z</time>
      </trkpt>
      <trkpt lat="40.408096" lon="-7.548315">
        <ele>1061.091</ele>
        <time>2019-05-28T20:44:51Z</time>
      </trkpt>
      <trkpt lat="40.408151" lon="-7.548383">
        <ele>1065.049</ele>
        <time>2019-05-28T20:44:53Z</time>
      </trkpt>
      <trkpt lat="40.408464" lon="-7.548359">
        <ele>1069.016</ele>
        <time>2019-05-28T20:45:02Z</time>
      </trkpt>
      <trkpt lat="40.408575" lon="-7.548431">
        <ele>1073.017</ele>
        <time>2019-05-28T20:45:05Z</time>
      </trkpt>
      <trkpt lat="40.408683" lon="-7.548553">
        <ele>1080.044</ele>
        <time>2019-05-28T20:45:09Z</time>
      </trkpt>
      <trkpt lat="40.408764" lon="-7.548690">
        <ele>1086.015</ele>
        <time>2019-05-28T20:45:12Z</time>
      </trkpt>
      <trkpt lat="40.408810" lon="-7.549049">
        <ele>1095.054</ele>
        <time>2019-05-28T20:45:20Z</time>
      </trkpt>
      <trkpt lat="40.408928" lon="-7.549324">
        <ele>1100.056</ele>
        <time>2019-05-28T20:45:26Z</time>
      </trkpt>
      <trkpt lat="40.409163" lon="-7.549545">
        <ele>1103.011</ele>
        <time>2019-05-28T20:45:34Z</time>
      </trkpt>
      <trkpt lat="40.409286" lon="-7.549977">
        <ele>1110.008</ele>
        <time>2019-05-28T20:45:43Z</time>
      </trkpt>
      <trkpt lat="40.409251" lon="-7.550059">
        <ele>1112.048</ele>
        <time>2019-05-28T20:45:45Z</time>
      </trkpt>
      <trkpt lat="40.408993" lon="-7.550124">
        <ele>1115.071</ele>
        <time>2019-05-28T20:45:52Z</time>
      </trkpt>
      <trkpt lat="40.408889" lon="-7.550272">
        <ele>1116.094</ele>
        <time>2019-05-28T20:45:56Z</time>
      </trkpt>
      <trkpt lat="40.408933" lon="-7.550392">
        <ele>1118.072</ele>
        <time>2019-05-28T20:45:59Z</time>
      </trkpt>
      <trkpt lat="40.409248" lon="-7.550757">
        <ele>1128.029</ele>
        <time>2019-05-28T20:46:10Z</time>
      </trkpt>
      <trkpt lat="40.409315" lon="-7.551103">
        <ele>1137.090</ele>
        <time>2019-05-28T20:46:17Z</time>
      </trkpt>
      <trkpt lat="40.409399" lon="-7.551256">
        <ele>1141.047</ele>
        <time>2019-05-28T20:46:21Z</time>
      </trkpt>
      <trkpt lat="40.409495" lon="-7.551326">
        <ele>1142.028</ele>
        <time>2019-05-28T20:46:24Z</time>
      </trkpt>
      <trkpt lat="40.409567" lon="-7.551517">
        <ele>1146.029</ele>
        <time>2019-05-28T20:46:28Z</time>
      </trkpt>
      <trkpt lat="40.409293" lon="-7.551494">
        <ele>1148.000</ele>
        <time>2019-05-28T20:46:36Z</time>
      </trkpt>
      <trkpt lat="40.409292" lon="-7.551625">
        <ele>1151.020</ele>
        <time>2019-05-28T20:46:38Z</time>
      </trkpt>
      <trkpt lat="40.409376" lon="-7.551715">
        <ele>1155.008</ele>
        <time>2019-05-28T20:46:41Z</time>
      </trkpt>
      <trkpt lat="40.409350" lon="-7.551725">
        <ele>1155.045</ele>
        <time>2019-05-28T20:46:42Z</time>
      </trkpt>
      <trkpt lat="40.409254" lon="-7.551666">
        <ele>1152.038</ele>
        <time>2019-05-28T20:46:45Z</time>
      </trkpt>
      <trkpt lat="40.409190" lon="-7.551664">
        <ele>1152.061</ele>
        <time>2019-05-28T20:46:47Z</time>
      </trkpt>
      <trkpt lat="40.409142" lon="-7.551724">
        <ele>1151.039</ele>
        <time>2019-05-28T20:46:48Z</time>
      </trkpt>
      <trkpt lat="40.408987" lon="-7.552029">
        <ele>1151.076</ele>
        <time>2019-05-28T20:46:56Z</time>
      </trkpt>
      <trkpt lat="40.408931" lon="-7.552173">
        <ele>1151.077</ele>
        <time>2019-05-28T20:46:59Z</time>
      </trkpt>
      <trkpt lat="40.408764" lon="-7.552486">
        <ele>1150.094</ele>
        <time>2019-05-28T20:47:07Z</time>
      </trkpt>
      <trkpt lat="40.408745" lon="-7.553016">
        <ele>1158.085</ele>
        <time>2019-05-28T20:47:18Z</time>
      </trkpt>
      <trkpt lat="40.408766" lon="-7.553123">
        <ele>1161.058</ele>
        <time>2019-05-28T20:47:20Z</time>
      </trkpt>
      <trkpt lat="40.408738" lon="-7.553331">
        <ele>1162.052</ele>
        <time>2019-05-28T20:47:24Z</time>
      </trkpt>
      <trkpt lat="40.408766" lon="-7.553470">
        <ele>1165.017</ele>
        <time>2019-05-28T20:47:27Z</time>
      </trkpt>
      <trkpt lat="40.408848" lon="-7.553703">
        <ele>1170.008</ele>
        <time>2019-05-28T20:47:32Z</time>
      </trkpt>
      <trkpt lat="40.408860" lon="-7.553795">
        <ele>1171.028</ele>
        <time>2019-05-28T20:47:34Z</time>
      </trkpt>
      <trkpt lat="40.408852" lon="-7.553983">
        <ele>1172.061</ele>
        <time>2019-05-28T20:47:38Z</time>
      </trkpt>
      <trkpt lat="40.408899" lon="-7.554037">
        <ele>1176.094</ele>
        <time>2019-05-28T20:47:40Z</time>
      </trkpt>
      <trkpt lat="40.408939" lon="-7.554014">
        <ele>1178.032</ele>
        <time>2019-05-28T20:47:41Z</time>
      </trkpt>
      <trkpt lat="40.409059" lon="-7.553565">
        <ele>1184.069</ele>
        <time>2019-05-28T20:47:51Z</time>
      </trkpt>
      <trkpt lat="40.409151" lon="-7.553356">
        <ele>1189.080</ele>
        <time>2019-05-28T20:47:55Z</time>
      </trkpt>
      <trkpt lat="40.409205" lon="-7.553352">
        <ele>1193.017</ele>
        <time>2019-05-28T20:47:57Z</time>
      </trkpt>
      <trkpt lat="40.409234" lon="-7.553421">
        <ele>1195.038</ele>
        <time>2019-05-28T20:47:58Z</time>
      </trkpt>
      <trkpt lat="40.409233" lon="-7.553699">
        <ele>1197.059</ele>
        <time>2019-05-28T20:48:04Z</time>
      </trkpt>
      <trkpt lat="40.409250" lon="-7.553829">
        <ele>1199.003</ele>
        <time>2019-05-28T20:48:07Z</time>
      </trkpt>
      <trkpt lat="40.409276" lon="-7.553894">
        <ele>1201.023</ele>
        <time>2019-05-28T20:48:08Z</time>
      </trkpt>
      <trkpt lat="40.409512" lon="-7.553432">
        <ele>1209.008</ele>
        <time>2019-05-28T20:48:20Z</time>
      </trkpt>
      <trkpt lat="40.409512" lon="-7.553107">
        <ele>1200.028</ele>
        <time>2019-05-28T20:48:26Z</time>
      </trkpt>
      <trkpt lat="40.409576" lon="-7.553044">
        <ele>1201.051</ele>
        <time>2019-05-28T20:48:28Z</time>
      </trkpt>
      <trkpt lat="40.409673" lon="-7.553136">
        <ele>1207.044</ele>
        <time>2019-05-28T20:48:32Z</time>
      </trkpt>
      <trkpt lat="40.409708" lon="-7.553237">
        <ele>1211.052</ele>
        <time>2019-05-28T20:48:34Z</time>
      </trkpt>
      <trkpt lat="40.409765" lon="-7.553313">
        <ele>1213.049</ele>
        <time>2019-05-28T20:48:36Z</time>
      </trkpt>
      <trkpt lat="40.410442" lon="-7.553580">
        <ele>1222.040</ele>
        <time>2019-05-28T20:48:55Z</time>
      </trkpt>
      <trkpt lat="40.410671" lon="-7.553582">
        <ele>1222.067</ele>
        <time>2019-05-28T20:49:01Z</time>
      </trkpt>
      <trkpt lat="40.410880" lon="-7.553470">
        <ele>1218.088</ele>
        <time>2019-05-28T20:49:07Z</time>
      </trkpt>
      <trkpt lat="40.411369" lon="-7.553467">
        <ele>1218.059</ele>
        <time>2019-05-28T20:49:20Z</time>
      </trkpt>
      <trkpt lat="40.410546" lon="-7.553864">
        <ele>1229.003</ele>
        <time>2019-05-28T20:49:43Z</time>
      </trkpt>
      <trkpt lat="40.410390" lon="-7.553993">
        <ele>1231.023</ele>
        <time>2019-05-28T20:49:48Z</time>
      </trkpt>
      <trkpt lat="40.410298" lon="-7.554216">
        <ele>1236.008</ele>
        <time>2019-05-28T20:49:54Z</time>
      </trkpt>
      <trkpt lat="40.410345" lon="-7.554254">
        <ele>1238.058</ele>
        <time>2019-05-28T20:49:55Z</time>
      </trkpt>
      <trkpt lat="40.410570" lon="-7.554179">
        <ele>1239.051</ele>
        <time>2019-05-28T20:50:01Z</time>
      </trkpt>
      <trkpt lat="40.410839" lon="-7.554190">
        <ele>1242.084</ele>
        <time>2019-05-28T20:50:08Z</time>
      </trkpt>
      <trkpt lat="40.410851" lon="-7.554262">
        <ele>1245.092</ele>
        <time>2019-05-28T20:50:10Z</time>
      </trkpt>
      <trkpt lat="40.410780" lon="-7.554334">
        <ele>1247.099</ele>
        <time>2019-05-28T20:50:12Z</time>
      </trkpt>
      <trkpt lat="40.410465" lon="-7.554407">
        <ele>1245.030</ele>
        <time>2019-05-28T20:50:21Z</time>
      </trkpt>
      <trkpt lat="40.410316" lon="-7.554482">
        <ele>1245.097</ele>
        <time>2019-05-28T20:50:25Z</time>
      </trkpt>
      <trkpt lat="40.410143" lon="-7.554661">
        <ele>1247.038</ele>
        <time>2019-05-28T20:50:31Z</time>
      </trkpt>
      <trkpt lat="40.409952" lon="-7.554992">
        <ele>1247.062</ele>
        <time>2019-05-28T20:50:39Z</time>
      </trkpt>
      <trkpt lat="40.409751" lon="-7.555909">
        <ele>1265.083</ele>
        <time>2019-05-28T20:50:59Z</time>
      </trkpt>
      <trkpt lat="40.409688" lon="-7.555973">
        <ele>1262.011</ele>
        <time>2019-05-28T20:51:01Z</time>
      </trkpt>
      <trkpt lat="40.409609" lon="-7.555965">
        <ele>1256.008</ele>
        <time>2019-05-28T20:51:03Z</time>
      </trkpt>
      <trkpt lat="40.409567" lon="-7.556004">
        <ele>1253.099</ele>
        <time>2019-05-28T20:51:04Z</time>
      </trkpt>
      <trkpt lat="40.409569" lon="-7.556103">
        <ele>1255.032</ele>
        <time>2019-05-28T20:51:06Z</time>
      </trkpt>
      <trkpt lat="40.409626" lon="-7.556137">
        <ele>1260.075</ele>
        <time>2019-05-28T20:51:08Z</time>
      </trkpt>
      <trkpt lat="40.409767" lon="-7.556043">
        <ele>1269.063</ele>
        <time>2019-05-28T20:51:12Z</time>
      </trkpt>
      <trkpt lat="40.409851" lon="-7.555809">
        <ele>1269.090</ele>
        <time>2019-05-28T20:51:18Z</time>
      </trkpt>
      <trkpt lat="40.409996" lon="-7.555585">
        <ele>1270.011</ele>
        <time>2019-05-28T20:51:24Z</time>
      </trkpt>
      <trkpt lat="40.410180" lon="-7.555198">
        <ele>1264.028</ele>
        <time>2019-05-28T20:51:33Z</time>
      </trkpt>
      <trkpt lat="40.410279" lon="-7.555027">
        <ele>1262.019</ele>
        <time>2019-05-28T20:51:37Z</time>
      </trkpt>
      <trkpt lat="40.410336" lon="-7.554966">
        <ele>1262.097</ele>
        <time>2019-05-28T20:51:39Z</time>
      </trkpt>
      <trkpt lat="40.410388" lon="-7.555006">
        <ele>1265.023</ele>
        <time>2019-05-28T20:51:41Z</time>
      </trkpt>
      <trkpt lat="40.410348" lon="-7.555110">
        <ele>1268.025</ele>
        <time>2019-05-28T20:51:43Z</time>
      </trkpt>
      <trkpt lat="40.410276" lon="-7.555195">
        <ele>1268.008</ele>
        <time>2019-05-28T20:51:46Z</time>
      </trkpt>
      <trkpt lat="40.410212" lon="-7.555369">
        <ele>1272.092</ele>
        <time>2019-05-28T20:51:50Z</time>
      </trkpt>
      <trkpt lat="40.410117" lon="-7.555776">
        <ele>1281.045</ele>
        <time>2019-05-28T20:51:58Z</time>
      </trkpt>
      <trkpt lat="40.409960" lon="-7.556259">
        <ele>1286.098</ele>
        <time>2019-05-28T20:52:09Z</time>
      </trkpt>
      <trkpt lat="40.409875" lon="-7.556388">
        <ele>1284.046</ele>
        <time>2019-05-28T20:52:12Z</time>
      </trkpt>
      <trkpt lat="40.409846" lon="-7.556481">
        <ele>1285.043</ele>
        <time>2019-05-28T20:52:14Z</time>
      </trkpt>
      <trkpt lat="40.409857" lon="-7.556547">
        <ele>1287.074</ele>
        <time>2019-05-28T20:52:16Z</time>
      </trkpt>
      <trkpt lat="40.409904" lon="-7.556560">
        <ele>1290.061</ele>
        <time>2019-05-28T20:52:17Z</time>
      </trkpt>
      <trkpt lat="40.409986" lon="-7.556435">
        <ele>1292.022</ele>
        <time>2019-05-28T20:52:20Z</time>
      </trkpt>
      <trkpt lat="40.410596" lon="-7.555375">
        <ele>1290.043</ele>
        <time>2019-05-28T20:52:47Z</time>
      </trkpt>
      <trkpt lat="40.410840" lon="-7.555149">
        <ele>1289.064</ele>
        <time>2019-05-28T20:52:55Z</time>
      </trkpt>
      <trkpt lat="40.411127" lon="-7.555143">
        <ele>1294.010</ele>
        <time>2019-05-28T20:53:03Z</time>
      </trkpt>
      <trkpt lat="40.411413" lon="-7.555349">
        <ele>1307.008</ele>
        <time>2019-05-28T20:53:12Z</time>
      </trkpt>
      <trkpt lat="40.411501" lon="-7.555261">
        <ele>1305.027</ele>
        <time>2019-05-28T20:53:15Z</time>
      </trkpt>
      <trkpt lat="40.411578" lon="-7.555116">
        <ele>1298.060</ele>
        <time>2019-05-28T20:53:18Z</time>
      </trkpt>
      <trkpt lat="40.411687" lon="-7.555017">
        <ele>1294.023</ele>
        <time>2019-05-28T20:53:22Z</time>
      </trkpt>
      <trkpt lat="40.411766" lon="-7.555036">
        <ele>1295.011</ele>
        <time>2019-05-28T20:53:24Z</time>
      </trkpt>
      <trkpt lat="40.411711" lon="-7.555153">
        <ele>1301.018</ele>
        <time>2019-05-28T20:53:27Z</time>
      </trkpt>
      <trkpt lat="40.411613" lon="-7.555290">
        <ele>1308.049</ele>
        <time>2019-05-28T20:53:31Z</time>
      </trkpt>
      <trkpt lat="40.411517" lon="-7.555571">
        <ele>1318.066</ele>
        <time>2019-05-28T20:53:37Z</time>
      </trkpt>
      <trkpt lat="40.411350" lon="-7.555656">
        <ele>1318.057</ele>
        <time>2019-05-28T20:53:42Z</time>
      </trkpt>
      <trkpt lat="40.411086" lon="-7.555879">
        <ele>1318.034</ele>
        <time>2019-05-28T20:53:50Z</time>
      </trkpt>
      <trkpt lat="40.410694" lon="-7.556536">
        <ele>1326.055</ele>
        <time>2019-05-28T20:54:07Z</time>
      </trkpt>
      <trkpt lat="40.410514" lon="-7.557070">
        <ele>1334.010</ele>
        <time>2019-05-28T20:54:19Z</time>
      </trkpt>
      <trkpt lat="40.410306" lon="-7.557480">
        <ele>1336.008</ele>
        <time>2019-05-28T20:54:29Z</time>
      </trkpt>
      <trkpt lat="40.410361" lon="-7.557564">
        <ele>1339.076</ele>
        <time>2019-05-28T20:54:31Z</time>
      </trkpt>
      <trkpt lat="40.410435" lon="-7.557529">
        <ele>1341.099</ele>
        <time>2019-05-28T20:54:33Z</time>
      </trkpt>
      <trkpt lat="40.410771" lon="-7.557172">
        <ele>1343.082</ele>
        <time>2019-05-28T20:54:45Z</time>
      </trkpt>
      <trkpt lat="40.411017" lon="-7.556968">
        <ele>1344.080</ele>
        <time>2019-05-28T20:54:53Z</time>
      </trkpt>
      <trkpt lat="40.411415" lon="-7.556826">
        <ele>1349.037</ele>
        <time>2019-05-28T20:55:04Z</time>
      </trkpt>
      <trkpt lat="40.411629" lon="-7.556883">
        <ele>1354.088</ele>
        <time>2019-05-28T20:55:09Z</time>
      </trkpt>
      <trkpt lat="40.411740" lon="-7.556941">
        <ele>1357.095</ele>
        <time>2019-05-28T20:55:13Z</time>
      </trkpt>
      <trkpt lat="40.411752" lon="-7.557024">
        <ele>1359.066</ele>
        <time>2019-05-28T20:55:14Z</time>
      </trkpt>
      <trkpt lat="40.411691" lon="-7.557067">
        <ele>1359.034</ele>
        <time>2019-05-28T20:55:16Z</time>
      </trkpt>
      <trkpt lat="40.411368" lon="-7.557191">
        <ele>1356.055</ele>
        <time>2019-05-28T20:55:25Z</time>
      </trkpt>
      <trkpt lat="40.411218" lon="-7.557437">
        <ele>1360.010</ele>
        <time>2019-05-28T20:55:32Z</time>
      </trkpt>
      <trkpt lat="40.411094" lon="-7.557746">
        <ele>1365.008</ele>
        <time>2019-05-28T20:55:39Z</time>
      </trkpt>
      <trkpt lat="40.411034" lon="-7.557970">
        <ele>1367.046</ele>
        <time>2019-05-28T20:55:43Z</time>
      </trkpt>
      <trkpt lat="40.411035" lon="-7.558160">
        <ele>1369.059</ele>
        <time>2019-05-28T20:55:47Z</time>
      </trkpt>
      <trkpt lat="40.411095" lon="-7.558581">
        <ele>1374.072</ele>
        <time>2019-05-28T20:55:56Z</time>
      </trkpt>
      <trkpt lat="40.411158" lon="-7.558885">
        <ele>1374.070</ele>
        <time>2019-05-28T20:56:02Z</time>
      </trkpt>
      <trkpt lat="40.411264" lon="-7.559235">
        <ele>1375.067</ele>
        <time>2019-05-28T20:56:10Z</time>
      </trkpt>
      <trkpt lat="40.411381" lon="-7.559430">
        <ele>1376.058</ele>
        <time>2019-05-28T20:56:15Z</time>
      </trkpt>
      <trkpt lat="40.411450" lon="-7.559492">
        <ele>1377.085</ele>
        <time>2019-05-28T20:56:17Z</time>
      </trkpt>
      <trkpt lat="40.411722" lon="-7.560364">
        <ele>1383.036</ele>
        <time>2019-05-28T20:56:37Z</time>
      </trkpt>
      <trkpt lat="40.411679" lon="-7.561296">
        <ele>1388.027</ele>
        <time>2019-05-28T20:56:56Z</time>
      </trkpt>
      <trkpt lat="40.411655" lon="-7.561486">
        <ele>1389.068</ele>
        <time>2019-05-28T20:56:59Z</time>
      </trkpt>
      <trkpt lat="40.411600" lon="-7.561607">
        <ele>1390.014</ele>
        <time>2019-05-28T20:57:02Z</time>
      </trkpt>
      <trkpt lat="40.411376" lon="-7.561729">
        <ele>1393.008</ele>
        <time>2019-05-28T20:57:09Z</time>
      </trkpt>
      <trkpt lat="40.411321" lon="-7.561823">
        <ele>1395.045</ele>
        <time>2019-05-28T20:57:11Z</time>
      </trkpt>
      <trkpt lat="40.411129" lon="-7.561808">
        <ele>1397.018</ele>
        <time>2019-05-28T20:57:16Z</time>
      </trkpt>
      <trkpt lat="40.411070" lon="-7.561852">
        <ele>1399.071</ele>
        <time>2019-05-28T20:57:18Z</time>
      </trkpt>
      <trkpt lat="40.411039" lon="-7.561936">
        <ele>1401.039</ele>
        <time>2019-05-28T20:57:20Z</time>
      </trkpt>
      <trkpt lat="40.410843" lon="-7.562131">
        <ele>1405.066</ele>
        <time>2019-05-28T20:57:27Z</time>
      </trkpt>
      <trkpt lat="40.410735" lon="-7.562213">
        <ele>1408.087</ele>
        <time>2019-05-28T20:57:30Z</time>
      </trkpt>
      <trkpt lat="40.410646" lon="-7.562187">
        <ele>1410.074</ele>
        <time>2019-05-28T20:57:32Z</time>
      </trkpt>
      <trkpt lat="40.410608" lon="-7.562102">
        <ele>1410.065</ele>
        <time>2019-05-28T20:57:34Z</time>
      </trkpt>
      <trkpt lat="40.410409" lon="-7.562077">
        <ele>1417.055</ele>
        <time>2019-05-28T20:57:40Z</time>
      </trkpt>
      <trkpt lat="40.410328" lon="-7.562023">
        <ele>1419.007</ele>
        <time>2019-05-28T20:57:42Z</time>
      </trkpt>
      <trkpt lat="40.410121" lon="-7.562027">
        <ele>1426.017</ele>
        <time>2019-05-28T20:57:48Z</time>
      </trkpt>
      <trkpt lat="40.410014" lon="-7.562076">
        <ele>1430.008</ele>
        <time>2019-05-28T20:57:51Z</time>
      </trkpt>
      <trkpt lat="40.409932" lon="-7.562013">
        <ele>1431.078</ele>
        <time>2019-05-28T20:57:53Z</time>
      </trkpt>
      <trkpt lat="40.409823" lon="-7.562085">
        <ele>1432.091</ele>
        <time>2019-05-28T20:57:56Z</time>
      </trkpt>
      <trkpt lat="40.409670" lon="-7.562044">
        <ele>1433.044</ele>
        <time>2019-05-28T20:58:01Z</time>
      </trkpt>
      <trkpt lat="40.409585" lon="-7.562082">
        <ele>1433.022</ele>
        <time>2019-05-28T20:58:03Z</time>
      </trkpt>
      <trkpt lat="40.409512" lon="-7.562228">
        <ele>1435.039</ele>
        <time>2019-05-28T20:58:07Z</time>
      </trkpt>
      <trkpt lat="40.409208" lon="-7.562464">
        <ele>1438.050</ele>
        <time>2019-05-28T20:58:16Z</time>
      </trkpt>
      <trkpt lat="40.408954" lon="-7.562775">
        <ele>1444.027</ele>
        <time>2019-05-28T20:58:25Z</time>
      </trkpt>
      <trkpt lat="40.408924" lon="-7.562896">
        <ele>1446.028</ele>
        <time>2019-05-28T20:58:28Z</time>
      </trkpt>
      <trkpt lat="40.408894" lon="-7.563160">
        <ele>1450.058</ele>
        <time>2019-05-28T20:58:33Z</time>
      </trkpt>
      <trkpt lat="40.408789" lon="-7.563197">
        <ele>1449.052</ele>
        <time>2019-05-28T20:58:36Z</time>
      </trkpt>
      <trkpt lat="40.408695" lon="-7.563293">
        <ele>1450.017</ele>
        <time>2019-05-28T20:58:39Z</time>
      </trkpt>
      <trkpt lat="40.408340" lon="-7.563810">
        <ele>1452.008</ele>
        <time>2019-05-28T20:58:54Z</time>
      </trkpt>
      <trkpt lat="40.407949" lon="-7.564485">
        <ele>1459.088</ele>
        <time>2019-05-28T20:59:11Z</time>
      </trkpt>
      <trkpt lat="40.407815" lon="-7.564684">
        <ele>1463.041</ele>
        <time>2019-05-28T20:59:16Z</time>
      </trkpt>
      <trkpt lat="40.407716" lon="-7.564772">
        <ele>1464.084</ele>
        <time>2019-05-28T20:59:19Z</time>
      </trkpt>
      <trkpt lat="40.406779" lon="-7.565366">
        <ele>1468.092</ele>
        <time>2019-05-28T20:59:47Z</time>
      </trkpt>
      <trkpt lat="40.406683" lon="-7.565509">
        <ele>1470.069</ele>
        <time>2019-05-28T20:59:51Z</time>
      </trkpt>
      <trkpt lat="40.406601" lon="-7.565763">
        <ele>1471.050</ele>
        <time>2019-05-28T20:59:57Z</time>
      </trkpt>
      <trkpt lat="40.406524" lon="-7.565940">
        <ele>1473.057</ele>
        <time>2019-05-28T21:00:01Z</time>
      </trkpt>
      <trkpt lat="40.406319" lon="-7.566206">
        <ele>1475.058</ele>
        <time>2019-05-28T21:00:08Z</time>
      </trkpt>
      <trkpt lat="40.406234" lon="-7.566371">
        <ele>1476.023</ele>
        <time>2019-05-28T21:00:12Z</time>
      </trkpt>
      <trkpt lat="40.406193" lon="-7.566533">
        <ele>1476.083</ele>
        <time>2019-05-28T21:00:16Z</time>
      </trkpt>
      <trkpt lat="40.406210" lon="-7.566740">
        <ele>1477.011</ele>
        <time>2019-05-28T21:00:20Z</time>
      </trkpt>
      <trkpt lat="40.406369" lon="-7.566869">
        <ele>1478.008</ele>
        <time>2019-05-28T21:00:25Z</time>
      </trkpt>
      <trkpt lat="40.406530" lon="-7.566858">
        <ele>1479.085</ele>
        <time>2019-05-28T21:00:29Z</time>
      </trkpt>
      <trkpt lat="40.406609" lon="-7.566683">
        <ele>1479.058</ele>
        <time>2019-05-28T21:00:34Z</time>
      </trkpt>
      <trkpt lat="40.406701" lon="-7.566252">
        <ele>1476.071</ele>
        <time>2019-05-28T21:00:43Z</time>
      </trkpt>
      <trkpt lat="40.406808" lon="-7.566128">
        <ele>1475.029</ele>
        <time>2019-05-28T21:00:47Z</time>
      </trkpt>
      <trkpt lat="40.406949" lon="-7.566081">
        <ele>1474.076</ele>
        <time>2019-05-28T21:00:50Z</time>
      </trkpt>
      <trkpt lat="40.407131" lon="-7.566095">
        <ele>1475.047</ele>
        <time>2019-05-28T21:00:55Z</time>
      </trkpt>
      <trkpt lat="40.407363" lon="-7.566285">
        <ele>1477.084</ele>
        <time>2019-05-28T21:01:03Z</time>
      </trkpt>
      <trkpt lat="40.407767" lon="-7.566705">
        <ele>1482.085</ele>
        <time>2019-05-28T21:01:16Z</time>
      </trkpt>
      <trkpt lat="40.408037" lon="-7.566943">
        <ele>1487.079</ele>
        <time>2019-05-28T21:01:25Z</time>
      </trkpt>
      <trkpt lat="40.408488" lon="-7.567091">
        <ele>1486.005</ele>
        <time>2019-05-28T21:01:37Z</time>
      </trkpt>
      <trkpt lat="40.408575" lon="-7.567146">
        <ele>1485.025</ele>
        <time>2019-05-28T21:01:40Z</time>
      </trkpt>
      <trkpt lat="40.408644" lon="-7.567233">
        <ele>1486.008</ele>
        <time>2019-05-28T21:01:43Z</time>
      </trkpt>
      <trkpt lat="40.408650" lon="-7.567429">
        <ele>1489.080</ele>
        <time>2019-05-28T21:01:47Z</time>
      </trkpt>
      <trkpt lat="40.408568" lon="-7.567600">
        <ele>1493.083</ele>
        <time>2019-05-28T21:01:51Z</time>
      </trkpt>
      <trkpt lat="40.408413" lon="-7.567756">
        <ele>1495.066</ele>
        <time>2019-05-28T21:01:56Z</time>
      </trkpt>
      <trkpt lat="40.407964" lon="-7.567853">
        <ele>1496.084</ele>
        <time>2019-05-28T21:02:08Z</time>
      </trkpt>
      <trkpt lat="40.407792" lon="-7.567989">
        <ele>1497.071</ele>
        <time>2019-05-28T21:02:13Z</time>
      </trkpt>
      <trkpt lat="40.407659" lon="-7.568169">
        <ele>1497.092</ele>
        <time>2019-05-28T21:02:18Z</time>
      </trkpt>
      <trkpt lat="40.407565" lon="-7.568609">
        <ele>1498.019</ele>
        <time>2019-05-28T21:02:28Z</time>
      </trkpt>
      <trkpt lat="40.407489" lon="-7.568730">
        <ele>1500.050</ele>
        <time>2019-05-28T21:02:31Z</time>
      </trkpt>
      <trkpt lat="40.407359" lon="-7.568823">
        <ele>1503.013</ele>
        <time>2019-05-28T21:02:35Z</time>
      </trkpt>
      <trkpt lat="40.407108" lon="-7.568820">
        <ele>1504.043</ele>
        <time>2019-05-28T21:02:42Z</time>
      </trkpt>
      <trkpt lat="40.405980" lon="-7.568641">
        <ele>1506.007</ele>
        <time>2019-05-28T21:03:12Z</time>
      </trkpt>
      <trkpt lat="40.405623" lon="-7.568687">
        <ele>1508.008</ele>
        <time>2019-05-28T21:03:22Z</time>
      </trkpt>
      <trkpt lat="40.405245" lon="-7.568872">
        <ele>1510.044</ele>
        <time>2019-05-28T21:03:32Z</time>
      </trkpt>
      <trkpt lat="40.404528" lon="-7.569615">
        <ele>1513.087</ele>
        <time>2019-05-28T21:03:57Z</time>
      </trkpt>
      <trkpt lat="40.404491" lon="-7.569835">
        <ele>1515.050</ele>
        <time>2019-05-28T21:04:01Z</time>
      </trkpt>
      <trkpt lat="40.404626" lon="-7.570503">
        <ele>1518.018</ele>
        <time>2019-05-28T21:04:15Z</time>
      </trkpt>
      <trkpt lat="40.404590" lon="-7.570763">
        <ele>1519.085</ele>
        <time>2019-05-28T21:04:21Z</time>
      </trkpt>
      <trkpt lat="40.404450" lon="-7.571206">
        <ele>1521.076</ele>
        <time>2019-05-28T21:04:30Z</time>
      </trkpt>
      <trkpt lat="40.404457" lon="-7.571362">
        <ele>1522.043</ele>
        <time>2019-05-28T21:04:34Z</time>
      </trkpt>
      <trkpt lat="40.404402" lon="-7.571447">
        <ele>1522.064</ele>
        <time>2019-05-28T21:04:36Z</time>
      </trkpt>
      <trkpt lat="40.404397" lon="-7.571675">
        <ele>1522.029</ele>
        <time>2019-05-28T21:04:40Z</time>
      </trkpt>
      <trkpt lat="40.404657" lon="-7.572394">
        <ele>1525.000</ele>
        <time>2019-05-28T21:04:57Z</time>
      </trkpt>
      <trkpt lat="40.404949" lon="-7.573767">
        <ele>1524.020</ele>
        <time>2019-05-28T21:05:26Z</time>
      </trkpt>
      <trkpt lat="40.405094" lon="-7.574043">
        <ele>1524.008</ele>
        <time>2019-05-28T21:05:32Z</time>
      </trkpt>
      <trkpt lat="40.405051" lon="-7.574215">
        <ele>1522.065</ele>
        <time>2019-05-28T21:05:36Z</time>
      </trkpt>
      <trkpt lat="40.403421" lon="-7.576535">
        <ele>1512.018</ele>
        <time>2019-05-28T21:06:40Z</time>
      </trkpt>
      <trkpt lat="40.402263" lon="-7.577616">
        <ele>1495.051</ele>
        <time>2019-05-28T21:07:18Z</time>
      </trkpt>
      <trkpt lat="40.401430" lon="-7.578957">
        <ele>1481.059</ele>
        <time>2019-05-28T21:07:53Z</time>
      </trkpt>
      <trkpt lat="40.401044" lon="-7.579252">
        <ele>1476.096</ele>
        <time>2019-05-28T21:08:05Z</time>
      </trkpt>
      <trkpt lat="40.399622" lon="-7.580129">
        <ele>1465.087</ele>
        <time>2019-05-28T21:08:47Z</time>
      </trkpt>
      <trkpt lat="40.399477" lon="-7.580370">
        <ele>1462.044</ele>
        <time>2019-05-28T21:08:54Z</time>
      </trkpt>
      <trkpt lat="40.399432" lon="-7.580719">
        <ele>1459.055</ele>
        <time>2019-05-28T21:09:01Z</time>
      </trkpt>
      <trkpt lat="40.399526" lon="-7.581100">
        <ele>1453.068</ele>
        <time>2019-05-28T21:09:09Z</time>
      </trkpt>
      <trkpt lat="40.399728" lon="-7.581607">
        <ele>1452.042</ele>
        <time>2019-05-28T21:09:20Z</time>
      </trkpt>
      <trkpt lat="40.400496" lon="-7.582739">
        <ele>1448.026</ele>
        <time>2019-05-28T21:09:51Z</time>
      </trkpt>
      <trkpt lat="40.401444" lon="-7.584033">
        <ele>1445.008</ele>
        <time>2019-05-28T21:10:28Z</time>
      </trkpt>
      <trkpt lat="40.402056" lon="-7.584353">
        <ele>1446.099</ele>
        <time>2019-05-28T21:10:45Z</time>
      </trkpt>
      <trkpt lat="40.402343" lon="-7.584444">
        <ele>1446.072</ele>
        <time>2019-05-28T21:10:53Z</time>
      </trkpt>
      <trkpt lat="40.403177" lon="-7.584454">
        <ele>1445.025</ele>
        <time>2019-05-28T21:11:16Z</time>
      </trkpt>
      <trkpt lat="40.403338" lon="-7.584553">
        <ele>1445.083</ele>
        <time>2019-05-28T21:11:20Z</time>
      </trkpt>
      <trkpt lat="40.403460" lon="-7.584740">
        <ele>1445.090</ele>
        <time>2019-05-28T21:11:25Z</time>
      </trkpt>
      <trkpt lat="40.403606" lon="-7.585832">
        <ele>1438.081</ele>
        <time>2019-05-28T21:11:48Z</time>
      </trkpt>
      <trkpt lat="40.403707" lon="-7.586387">
        <ele>1442.038</ele>
        <time>2019-05-28T21:11:59Z</time>
      </trkpt>
      <trkpt lat="40.403735" lon="-7.587298">
        <ele>1440.099</ele>
        <time>2019-05-28T21:12:18Z</time>
      </trkpt>
      <trkpt lat="40.403974" lon="-7.587619">
        <ele>1439.029</ele>
        <time>2019-05-28T21:12:27Z</time>
      </trkpt>
      <trkpt lat="40.404289" lon="-7.587803">
        <ele>1440.000</ele>
        <time>2019-05-29T15:00:46Z</time>
      </trkpt>
      <trkpt lat="40.404035" lon="-7.587633">
        <ele>1440.020</ele>
        <time>2019-05-29T15:01:06Z</time>
      </trkpt>
      <trkpt lat="40.404336" lon="-7.587880">
        <ele>1439.008</ele>
        <time>2019-05-29T15:01:26Z</time>
      </trkpt>
      <trkpt lat="40.404764" lon="-7.587970">
        <ele>1442.025</ele>
        <time>2019-05-29T15:01:46Z</time>
      </trkpt>
      <trkpt lat="40.405376" lon="-7.588091">
        <ele>1444.098</ele>
        <time>2019-05-29T15:02:06Z</time>
      </trkpt>
      <trkpt lat="40.406324" lon="-7.588380">
        <ele>1444.041</ele>
        <time>2019-05-29T15:02:26Z</time>
      </trkpt>
      <trkpt lat="40.407104" lon="-7.588706">
        <ele>1442.019</ele>
        <time>2019-05-29T15:02:46Z</time>
      </trkpt>
      <trkpt lat="40.407384" lon="-7.588914">
        <ele>1441.076</ele>
        <time>2019-05-29T15:03:06Z</time>
      </trkpt>
      <trkpt lat="40.408299" lon="-7.589082">
        <ele>1444.067</ele>
        <time>2019-05-29T15:03:26Z</time>
      </trkpt>
      <trkpt lat="40.409408" lon="-7.590064">
        <ele>1447.074</ele>
        <time>2019-05-29T15:03:46Z</time>
      </trkpt>
      <trkpt lat="40.409614" lon="-7.590357">
        <ele>1446.045</ele>
        <time>2019-05-29T15:04:06Z</time>
      </trkpt>
      <trkpt lat="40.409879" lon="-7.591063">
        <ele>1447.016</ele>
        <time>2019-05-29T15:04:26Z</time>
      </trkpt>
      <trkpt lat="40.410390" lon="-7.591319">
        <ele>1446.076</ele>
        <time>2019-05-29T15:04:46Z</time>
      </trkpt>
      <trkpt lat="40.411378" lon="-7.590743">
        <ele>1439.013</ele>
        <time>2019-05-29T15:05:06Z</time>
      </trkpt>
      <trkpt lat="40.411896" lon="-7.590766">
        <ele>1438.008</ele>
        <time>2019-05-29T15:05:26Z</time>
      </trkpt>
      <trkpt lat="40.412468" lon="-7.591358">
        <ele>1435.014</ele>
        <time>2019-05-29T15:05:46Z</time>
      </trkpt>
      <trkpt lat="40.413621" lon="-7.591986">
        <ele>1430.057</ele>
        <time>2019-05-29T15:06:06Z</time>
      </trkpt>
      <trkpt lat="40.414047" lon="-7.591909">
        <ele>1428.070</ele>
        <time>2019-05-29T15:06:26Z</time>
      </trkpt>
      <trkpt lat="40.414393" lon="-7.592079">
        <ele>1426.048</ele>
        <time>2019-05-29T15:06:46Z</time>
      </trkpt>
      <trkpt lat="40.414633" lon="-7.592310">
        <ele>1423.085</ele>
        <time>2019-05-29T15:07:06Z</time>
      </trkpt>
      <trkpt lat="40.414674" lon="-7.593538">
        <ele>1424.096</ele>
        <time>2019-05-29T15:07:26Z</time>
      </trkpt>
      <trkpt lat="40.415032" lon="-7.594216">
        <ele>1427.043</ele>
        <time>2019-05-29T15:07:46Z</time>
      </trkpt>
      <trkpt lat="40.414959" lon="-7.595977">
        <ele>1423.074</ele>
        <time>2019-05-29T15:08:06Z</time>
      </trkpt>
      <trkpt lat="40.415020" lon="-7.596356">
        <ele>1422.048</ele>
        <time>2019-05-29T15:08:26Z</time>
      </trkpt>
      <trkpt lat="40.414738" lon="-7.596821">
        <ele>1423.061</ele>
        <time>2019-05-29T15:08:46Z</time>
      </trkpt>
      <trkpt lat="40.414384" lon="-7.599598">
        <ele>1417.017</ele>
        <time>2019-05-29T15:09:06Z</time>
      </trkpt>
      <trkpt lat="40.413576" lon="-7.600295">
        <ele>1421.008</ele>
        <time>2019-05-29T15:09:26Z</time>
      </trkpt>
      <trkpt lat="40.412986" lon="-7.601338">
        <ele>1417.087</ele>
        <time>2019-05-29T15:09:46Z</time>
      </trkpt>
      <trkpt lat="40.412337" lon="-7.601778">
        <ele>1416.060</ele>
        <time>2019-05-29T15:10:06Z</time>
      </trkpt>
      <trkpt lat="40.411822" lon="-7.602553">
        <ele>1408.053</ele>
        <time>2019-05-29T15:10:26Z</time>
      </trkpt>
      <trkpt lat="40.411570" lon="-7.603041">
        <ele>1405.011</ele>
        <time>2019-05-29T15:10:46Z</time>
      </trkpt>
      <trkpt lat="40.411571" lon="-7.603525">
        <ele>1403.088</ele>
        <time>2019-05-29T15:11:06Z</time>
      </trkpt>
      <trkpt lat="40.411331" lon="-7.603721">
        <ele>1401.049</ele>
        <time>2019-05-29T15:11:26Z</time>
      </trkpt>
      <trkpt lat="40.410774" lon="-7.603739">
        <ele>1396.086</ele>
        <time>2019-05-29T15:11:46Z</time>
      </trkpt>
      <trkpt lat="40.409054" lon="-7.603590">
        <ele>1392.017</ele>
        <time>2019-05-29T15:12:06Z</time>
      </trkpt>
      <trkpt lat="40.408499" lon="-7.604017">
        <ele>1391.051</ele>
        <time>2019-05-29T15:12:26Z</time>
      </trkpt>
      <trkpt lat="40.407705" lon="-7.606789">
        <ele>1400.001</ele>
        <time>2019-05-29T15:12:46Z</time>
      </trkpt>
      <trkpt lat="40.407607" lon="-7.607211">
        <ele>1398.011</ele>
        <time>2019-05-29T15:13:06Z</time>
      </trkpt>
      <trkpt lat="40.408054" lon="-7.609444">
        <ele>1380.008</ele>
        <time>2019-05-29T15:13:26Z</time>
      </trkpt>
      <trkpt lat="40.408287" lon="-7.611038">
        <ele>1369.048</ele>
        <time>2019-05-29T15:13:46Z</time>
      </trkpt>
      <trkpt lat="40.408138" lon="-7.611720">
        <ele>1363.091</ele>
        <time>2019-05-29T15:14:06Z</time>
      </trkpt>
      <trkpt lat="40.407297" lon="-7.612498">
        <ele>1359.054</ele>
        <time>2019-05-29T15:14:26Z</time>
      </trkpt>
      <trkpt lat="40.406956" lon="-7.613197">
        <ele>1360.042</ele>
        <time>2019-05-29T15:14:46Z</time>
      </trkpt>
      <trkpt lat="40.406699" lon="-7.613423">
        <ele>1354.049</ele>
        <time>2019-05-29T15:15:06Z</time>
      </trkpt>
      <trkpt lat="40.406340" lon="-7.614148">
        <ele>1346.070</ele>
        <time>2019-05-29T15:15:26Z</time>
      </trkpt>
      <trkpt lat="40.405938" lon="-7.614918">
        <ele>1339.017</ele>
        <time>2019-05-29T15:15:46Z</time>
      </trkpt>
      <trkpt lat="40.404981" lon="-7.615526">
        <ele>1325.018</ele>
        <time>2019-05-29T15:16:06Z</time>
      </trkpt>
      <trkpt lat="40.404615" lon="-7.616451">
        <ele>1318.028</ele>
        <time>2019-05-29T15:16:26Z</time>
      </trkpt>
      <trkpt lat="40.404644" lon="-7.618280">
        <ele>1296.089</ele>
        <time>2019-05-29T15:16:46Z</time>
      </trkpt>
      <trkpt lat="40.404166" lon="-7.619493">
        <ele>1283.017</ele>
        <time>2019-05-29T15:17:06Z</time>
      </trkpt>
      <trkpt lat="40.404091" lon="-7.619598">
        <ele>1283.008</ele>
        <time>2019-05-29T15:17:26Z</time>
      </trkpt>
      <trkpt lat="40.404032" lon="-7.619720">
        <ele>1282.095</ele>
        <time>2019-05-29T15:17:46Z</time>
      </trkpt>
      <trkpt lat="40.403863" lon="-7.620631">
        <ele>1280.088</ele>
        <time>2019-05-29T15:18:06Z</time>
      </trkpt>
      <trkpt lat="40.403417" lon="-7.621448">
        <ele>1282.021</ele>
        <time>2019-05-29T15:18:26Z</time>
      </trkpt>
      <trkpt lat="40.402942" lon="-7.621409">
        <ele>1279.049</ele>
        <time>2019-05-29T15:18:46Z</time>
      </trkpt>
      <trkpt lat="40.402386" lon="-7.621073">
        <ele>1272.036</ele>
        <time>2019-05-29T15:19:06Z</time>
      </trkpt>
      <trkpt lat="40.402132" lon="-7.621273">
        <ele>1269.037</ele>
        <time>2019-05-29T15:19:26Z</time>
      </trkpt>
      <trkpt lat="40.401945" lon="-7.621769">
        <ele>1267.034</ele>
        <time>2019-05-29T15:19:46Z</time>
      </trkpt>
      <trkpt lat="40.401506" lon="-7.622184">
        <ele>1260.065</ele>
        <time>2019-05-29T15:20:06Z</time>
      </trkpt>
      <trkpt lat="40.400817" lon="-7.623657">
        <ele>1251.046</ele>
        <time>2019-05-29T15:20:26Z</time>
      </trkpt>
      <trkpt lat="40.400808" lon="-7.624234">
        <ele>1251.088</ele>
        <time>2019-05-29T15:20:46Z</time>
      </trkpt>
      <trkpt lat="40.400451" lon="-7.624724">
        <ele>1245.016</ele>
        <time>2019-05-29T15:21:06Z</time>
      </trkpt>
      <trkpt lat="40.400266" lon="-7.624991">
        <ele>1242.008</ele>
        <time>2019-05-29T15:21:26Z</time>
      </trkpt>
      <trkpt lat="40.400157" lon="-7.625570">
        <ele>1239.067</ele>
        <time>2019-05-29T15:21:46Z</time>
      </trkpt>
      <trkpt lat="40.399676" lon="-7.626443">
        <ele>1222.040</ele>
        <time>2019-05-29T15:22:06Z</time>
      </trkpt>
      <trkpt lat="40.399594" lon="-7.626499">
        <ele>1220.063</ele>
        <time>2019-05-29T15:22:26Z</time>
      </trkpt>
      <trkpt lat="40.399582" lon="-7.625549">
        <ele>1231.081</ele>
        <time>2019-05-29T15:22:46Z</time>
      </trkpt>
      <trkpt lat="40.399282" lon="-7.624573">
        <ele>1227.038</ele>
        <time>2019-05-29T15:23:06Z</time>
      </trkpt>
      <trkpt lat="40.399459" lon="-7.624244">
        <ele>1226.059</ele>
        <time>2019-05-29T15:23:26Z</time>
      </trkpt>
      <trkpt lat="40.399628" lon="-7.623922">
        <ele>1224.076</ele>
        <time>2019-05-29T15:23:46Z</time>
      </trkpt>
      <trkpt lat="40.399349" lon="-7.623856">
        <ele>1222.017</ele>
        <time>2019-05-29T15:24:06Z</time>
      </trkpt>
      <trkpt lat="40.398911" lon="-7.624005">
        <ele>1229.098</ele>
        <time>2019-05-29T15:24:26Z</time>
      </trkpt>
      <trkpt lat="40.398636" lon="-7.624548">
        <ele>1229.015</ele>
        <time>2019-05-29T15:24:46Z</time>
      </trkpt>
      <trkpt lat="40.398714" lon="-7.625277">
        <ele>1229.026</ele>
        <time>2019-05-29T15:25:06Z</time>
      </trkpt>
      <trkpt lat="40.398820" lon="-7.625725">
        <ele>1229.008</ele>
        <time>2019-05-29T15:25:26Z</time>
      </trkpt>
      <trkpt lat="40.398736" lon="-7.626877">
        <ele>1226.052</ele>
        <time>2019-05-29T15:25:46Z</time>
      </trkpt>
      <trkpt lat="40.398862" lon="-7.627445">
        <ele>1225.065</ele>
        <time>2019-05-29T15:26:06Z</time>
      </trkpt>
      <trkpt lat="40.398374" lon="-7.628310">
        <ele>1227.018</ele>
        <time>2019-05-29T15:26:26Z</time>
      </trkpt>
      <trkpt lat="40.398327" lon="-7.628877">
        <ele>1222.016</ele>
        <time>2019-05-29T15:26:46Z</time>
      </trkpt>
      <trkpt lat="40.398455" lon="-7.629821">
        <ele>1216.033</ele>
        <time>2019-05-29T15:27:06Z</time>
      </trkpt>
      <trkpt lat="40.398721" lon="-7.630603">
        <ele>1207.054</ele>
        <time>2019-05-29T15:27:26Z</time>
      </trkpt>
      <trkpt lat="40.398801" lon="-7.631044">
        <ele>1201.021</ele>
        <time>2019-05-29T15:27:46Z</time>
      </trkpt>
      <trkpt lat="40.398196" lon="-7.631651">
        <ele>1199.072</ele>
        <time>2019-05-29T15:28:06Z</time>
      </trkpt>
      <trkpt lat="40.398060" lon="-7.631828">
        <ele>1197.022</ele>
        <time>2019-05-29T15:28:26Z</time>
      </trkpt>
      <trkpt lat="40.397896" lon="-7.632118">
        <ele>1193.062</ele>
        <time>2019-05-29T15:28:46Z</time>
      </trkpt>
      <trkpt lat="40.397388" lon="-7.632708">
        <ele>1182.008</ele>
        <time>2019-05-29T15:29:06Z</time>
      </trkpt>
      <trkpt lat="40.397046" lon="-7.633173">
        <ele>1167.008</ele>
        <time>2019-05-29T15:29:26Z</time>
      </trkpt>
      <trkpt lat="40.396916" lon="-7.633062">
        <ele>1168.025</ele>
        <time>2019-05-29T15:29:46Z</time>
      </trkpt>
      <trkpt lat="40.396687" lon="-7.632454">
        <ele>1170.098</ele>
        <time>2019-05-29T15:30:06Z</time>
      </trkpt>
      <trkpt lat="40.395963" lon="-7.630824">
        <ele>1158.081</ele>
        <time>2019-05-29T15:30:26Z</time>
      </trkpt>
      <trkpt lat="40.395832" lon="-7.630789">
        <ele>1154.059</ele>
        <time>2019-05-29T15:30:46Z</time>
      </trkpt>
      <trkpt lat="40.395733" lon="-7.632483">
        <ele>1141.036</ele>
        <time>2019-05-29T15:31:06Z</time>
      </trkpt>
      <trkpt lat="40.396138" lon="-7.632887">
        <ele>1148.067</ele>
        <time>2019-05-29T15:31:26Z</time>
      </trkpt>
      <trkpt lat="40.396331" lon="-7.633655">
        <ele>1144.034</ele>
        <time>2019-05-29T15:31:46Z</time>
      </trkpt>
      <trkpt lat="40.396526" lon="-7.634432">
        <ele>1137.015</ele>
        <time>2019-05-29T15:32:06Z</time>
      </trkpt>
      <trkpt lat="40.397101" lon="-7.635392">
        <ele>1134.039</ele>
        <time>2019-05-29T15:32:26Z</time>
      </trkpt>
      <trkpt lat="40.397163" lon="-7.636140">
        <ele>1130.001</ele>
        <time>2019-05-29T15:32:46Z</time>
      </trkpt>
      <trkpt lat="40.397666" lon="-7.637181">
        <ele>1111.021</ele>
        <time>2019-05-29T15:33:06Z</time>
      </trkpt>
      <trkpt lat="40.397803" lon="-7.637831">
        <ele>1107.008</ele>
        <time>2019-05-29T15:33:26Z</time>
      </trkpt>
      <trkpt lat="40.397464" lon="-7.638947">
        <ele>1101.056</ele>
        <time>2019-05-29T15:33:46Z</time>
      </trkpt>
      <trkpt lat="40.397192" lon="-7.639995">
        <ele>1093.049</ele>
        <time>2019-05-29T15:34:06Z</time>
      </trkpt>
      <trkpt lat="40.397254" lon="-7.640814">
        <ele>1087.022</ele>
        <time>2019-05-29T15:34:26Z</time>
      </trkpt>
      <trkpt lat="40.397377" lon="-7.640906">
        <ele>1086.010</ele>
        <time>2019-05-29T15:34:46Z</time>
      </trkpt>
      <trkpt lat="40.397789" lon="-7.640857">
        <ele>1084.087</ele>
        <time>2019-05-29T15:35:06Z</time>
      </trkpt>
      <trkpt lat="40.398085" lon="-7.641129">
        <ele>1079.028</ele>
        <time>2019-05-29T15:35:26Z</time>
      </trkpt>
      <trkpt lat="40.398581" lon="-7.641266">
        <ele>1071.065</ele>
        <time>2019-05-29T15:35:46Z</time>
      </trkpt>
      <trkpt lat="40.398844" lon="-7.640994">
        <ele>1074.036</ele>
        <time>2019-05-29T15:36:06Z</time>
      </trkpt>
      <trkpt lat="40.399033" lon="-7.641097">
        <ele>1068.042</ele>
        <time>2019-05-29T15:36:26Z</time>
      </trkpt>
      <trkpt lat="40.399270" lon="-7.641053">
        <ele>1064.022</ele>
        <time>2019-05-29T15:36:46Z</time>
      </trkpt>
      <trkpt lat="40.399542" lon="-7.640326">
        <ele>1071.014</ele>
        <time>2019-05-29T15:37:06Z</time>
      </trkpt>
      <trkpt lat="40.399586" lon="-7.639769">
        <ele>1067.008</ele>
        <time>2019-05-29T15:37:26Z</time>
      </trkpt>
      <trkpt lat="40.399539" lon="-7.639360">
        <ele>1066.097</ele>
        <time>2019-05-29T15:37:46Z</time>
      </trkpt>
      <trkpt lat="40.399851" lon="-7.638829">
        <ele>1055.030</ele>
        <time>2019-05-29T15:38:06Z</time>
      </trkpt>
      <trkpt lat="40.400229" lon="-7.638617">
        <ele>1046.033</ele>
        <time>2019-05-29T15:38:26Z</time>
      </trkpt>
      <trkpt lat="40.400748" lon="-7.638334">
        <ele>1040.051</ele>
        <time>2019-05-29T15:38:46Z</time>
      </trkpt>
      <trkpt lat="40.401207" lon="-7.638187">
        <ele>1037.068</ele>
        <time>2019-05-29T15:39:06Z</time>
      </trkpt>
      <trkpt lat="40.401395" lon="-7.637928">
        <ele>1038.049</ele>
        <time>2019-05-29T15:39:26Z</time>
      </trkpt>
      <trkpt lat="40.401570" lon="-7.637861">
        <ele>1042.066</ele>
        <time>2019-05-29T15:39:46Z</time>
      </trkpt>
      <trkpt lat="40.401680" lon="-7.638096">
        <ele>1044.097</ele>
        <time>2019-05-29T15:40:06Z</time>
      </trkpt>
      <trkpt lat="40.401670" lon="-7.638533">
        <ele>1048.064</ele>
        <time>2019-05-29T15:40:26Z</time>
      </trkpt>
      <trkpt lat="40.401627" lon="-7.638996">
        <ele>1051.006</ele>
        <time>2019-05-29T15:40:46Z</time>
      </trkpt>
      <trkpt lat="40.401666" lon="-7.639231">
        <ele>1052.016</ele>
        <time>2019-05-29T15:41:06Z</time>
      </trkpt>
      <trkpt lat="40.401682" lon="-7.639463">
        <ele>1052.008</ele>
        <time>2019-05-29T15:41:26Z</time>
      </trkpt>
      <trkpt lat="40.401811" lon="-7.639619">
        <ele>1053.049</ele>
        <time>2019-05-29T15:41:46Z</time>
      </trkpt>
      <trkpt lat="40.401819" lon="-7.639703">
        <ele>1053.092</ele>
        <time>2019-05-29T15:42:06Z</time>
      </trkpt>
      <trkpt lat="40.401955" lon="-7.639850">
        <ele>1053.025</ele>
        <time>2019-05-29T15:42:26Z</time>
      </trkpt>
      <trkpt lat="40.402033" lon="-7.639830">
        <ele>1054.093</ele>
        <time>2019-05-29T15:42:46Z</time>
      </trkpt>
      <trkpt lat="40.402133" lon="-7.639903">
        <ele>1054.050</ele>
        <time>2019-05-29T15:43:06Z</time>
      </trkpt>
      <trkpt lat="40.402141" lon="-7.640017">
        <ele>1053.021</ele>
        <time>2019-05-29T15:43:26Z</time>
      </trkpt>
      <trkpt lat="40.402212" lon="-7.640128">
        <ele>1053.088</ele>
        <time>2019-05-29T15:43:46Z</time>
      </trkpt>
      <trkpt lat="40.402201" lon="-7.640482">
        <ele>1050.019</ele>
        <time>2019-05-29T15:44:06Z</time>
      </trkpt>
      <trkpt lat="40.402239" lon="-7.640649">
        <ele>1050.018</ele>
        <time>2019-05-29T15:44:26Z</time>
      </trkpt>
      <trkpt lat="40.402360" lon="-7.640805">
        <ele>1052.098</ele>
        <time>2019-05-29T15:44:46Z</time>
      </trkpt>
      <trkpt lat="40.402217" lon="-7.641412">
        <ele>1047.017</ele>
        <time>2019-05-29T15:45:06Z</time>
      </trkpt>
      <trkpt lat="40.402099" lon="-7.642453">
        <ele>1044.008</ele>
        <time>2019-05-29T15:45:26Z</time>
      </trkpt>
      <trkpt lat="40.401905" lon="-7.642724">
        <ele>1039.084</ele>
        <time>2019-05-29T15:45:46Z</time>
      </trkpt>
      <trkpt lat="40.401753" lon="-7.643206">
        <ele>1026.047</ele>
        <time>2019-05-29T15:46:06Z</time>
      </trkpt>
      <trkpt lat="40.401553" lon="-7.643421">
        <ele>1020.040</ele>
        <time>2019-05-29T15:46:26Z</time>
      </trkpt>
      <trkpt lat="40.401463" lon="-7.643727">
        <ele>1018.098</ele>
        <time>2019-05-29T15:46:46Z</time>
      </trkpt>
      <trkpt lat="40.401513" lon="-7.644065">
        <ele>1018.085</ele>
        <time>2019-05-29T15:47:06Z</time>
      </trkpt>
      <trkpt lat="40.401563" lon="-7.644342">
        <ele>1017.096</ele>
        <time>2019-05-29T15:47:26Z</time>
      </trkpt>
      <trkpt lat="40.401523" lon="-7.645259">
        <ele>1020.083</ele>
        <time>2019-05-29T15:47:46Z</time>
      </trkpt>
      <trkpt lat="40.401275" lon="-7.645927">
        <ele>1020.094</ele>
        <time>2019-05-29T15:48:06Z</time>
      </trkpt>
      <trkpt lat="40.401216" lon="-7.646241">
        <ele>1019.052</ele>
        <time>2019-05-29T15:48:26Z</time>
      </trkpt>
      <trkpt lat="40.401344" lon="-7.646603">
        <ele>1022.053</ele>
        <time>2019-05-29T15:48:46Z</time>
      </trkpt>
      <trkpt lat="40.401265" lon="-7.647050">
        <ele>1016.008</ele>
        <time>2019-05-29T15:49:06Z</time>
      </trkpt>
      <trkpt lat="40.401344" lon="-7.647246">
        <ele>1015.008</ele>
        <time>2019-05-29T15:49:26Z</time>
      </trkpt>
      <trkpt lat="40.401265" lon="-7.647396">
        <ele>1015.058</ele>
        <time>2019-05-29T15:49:46Z</time>
      </trkpt>
      <trkpt lat="40.401414" lon="-7.647814">
        <ele>1018.041</ele>
        <time>2019-05-29T15:50:06Z</time>
      </trkpt>
      <trkpt lat="40.401414" lon="-7.648124">
        <ele>1024.074</ele>
        <time>2019-05-29T15:50:26Z</time>
      </trkpt>
      <trkpt lat="40.401275" lon="-7.648237">
        <ele>1030.062</ele>
        <time>2019-05-29T15:50:46Z</time>
      </trkpt>
      <trkpt lat="40.401236" lon="-7.648329">
        <ele>1033.029</ele>
        <time>2019-05-29T15:51:06Z</time>
      </trkpt>
      <trkpt lat="40.401226" lon="-7.648624">
        <ele>1036.050</ele>
        <time>2019-05-29T15:51:26Z</time>
      </trkpt>
      <trkpt lat="40.401177" lon="-7.649186">
        <ele>1046.037</ele>
        <time>2019-05-29T15:51:46Z</time>
      </trkpt>
      <trkpt lat="40.401300" lon="-7.649572">
        <ele>1038.018</ele>
        <time>2019-05-29T15:52:06Z</time>
      </trkpt>
      <trkpt lat="40.401395" lon="-7.649905">
        <ele>1032.051</ele>
        <time>2019-05-29T15:52:26Z</time>
      </trkpt>
      <trkpt lat="40.401434" lon="-7.650286">
        <ele>1039.001</ele>
        <time>2019-05-29T15:52:46Z</time>
      </trkpt>
      <trkpt lat="40.401513" lon="-7.650434">
        <ele>1042.011</ele>
        <time>2019-05-29T15:53:06Z</time>
      </trkpt>
      <trkpt lat="40.401868" lon="-7.650485">
        <ele>1043.008</ele>
        <time>2019-05-29T15:53:26Z</time>
      </trkpt>
      <trkpt lat="40.402060" lon="-7.650482">
        <ele>1041.088</ele>
        <time>2019-05-29T15:53:46Z</time>
      </trkpt>
      <trkpt lat="40.402286" lon="-7.650385">
        <ele>1036.051</ele>
        <time>2019-05-29T15:54:06Z</time>
      </trkpt>
      <trkpt lat="40.402441" lon="-7.650289">
        <ele>1034.094</ele>
        <time>2019-05-29T15:54:26Z</time>
      </trkpt>
      <trkpt lat="40.402671" lon="-7.650485">
        <ele>1033.062</ele>
        <time>2019-05-29T15:54:46Z</time>
      </trkpt>
      <trkpt lat="40.402828" lon="-7.650688">
        <ele>1030.089</ele>
        <time>2019-05-29T15:55:06Z</time>
      </trkpt>
      <trkpt lat="40.402925" lon="-7.651161">
        <ele>1029.090</ele>
        <time>2019-05-29T15:55:26Z</time>
      </trkpt>
      <trkpt lat="40.403058" lon="-7.651745">
        <ele>1030.037</ele>
        <time>2019-05-29T15:55:46Z</time>
      </trkpt>
      <trkpt lat="40.403302" lon="-7.652142">
        <ele>1029.038</ele>
        <time>2019-05-29T15:56:06Z</time>
      </trkpt>
      <trkpt lat="40.403490" lon="-7.652484">
        <ele>1021.036</ele>
        <time>2019-05-29T15:56:26Z</time>
      </trkpt>
      <trkpt lat="40.403591" lon="-7.652761">
        <ele>1016.017</ele>
        <time>2019-05-29T15:56:46Z</time>
      </trkpt>
      <trkpt lat="40.403448" lon="-7.653369">
        <ele>1015.018</ele>
        <time>2019-05-29T15:57:06Z</time>
      </trkpt>
      <trkpt lat="40.403332" lon="-7.653855">
        <ele>1008.008</ele>
        <time>2019-05-29T15:57:26Z</time>
      </trkpt>
      <trkpt lat="40.403194" lon="-7.654322">
        <ele>1002.036</ele>
        <time>2019-05-29T15:57:46Z</time>
      </trkpt>
      <trkpt lat="40.402930" lon="-7.654894">
        <ele>993.019</ele>
        <time>2019-05-29T15:58:06Z</time>
      </trkpt>
      <trkpt lat="40.402453" lon="-7.655628">
        <ele>987.012</ele>
        <time>2019-05-29T15:58:26Z</time>
      </trkpt>
      <trkpt lat="40.402144" lon="-7.655931">
        <ele>989.080</ele>
        <time>2019-05-29T15:58:46Z</time>
      </trkpt>
      <trkpt lat="40.401905" lon="-7.656111">
        <ele>988.087</ele>
        <time>2019-05-29T15:59:06Z</time>
      </trkpt>
      <trkpt lat="40.401849" lon="-7.656280">
        <ele>986.038</ele>
        <time>2019-05-29T15:59:26Z</time>
      </trkpt>
      <trkpt lat="40.401286" lon="-7.656707">
        <ele>982.045</ele>
        <time>2019-05-29T15:59:46Z</time>
      </trkpt>
      <trkpt lat="40.401080" lon="-7.656729">
        <ele>983.046</ele>
        <time>2019-05-29T16:00:06Z</time>
      </trkpt>
      <trkpt lat="40.400975" lon="-7.656852">
        <ele>982.053</ele>
        <time>2019-05-29T16:00:26Z</time>
      </trkpt>
      <trkpt lat="40.400941" lon="-7.657001">
        <ele>979.004</ele>
        <time>2019-05-29T16:00:46Z</time>
      </trkpt>
      <trkpt lat="40.400582" lon="-7.657258">
        <ele>981.014</ele>
        <time>2019-05-29T16:01:06Z</time>
      </trkpt>
      <trkpt lat="40.400421" lon="-7.657484">
        <ele>983.008</ele>
        <time>2019-05-29T16:01:26Z</time>
      </trkpt>
      <trkpt lat="40.400304" lon="-7.657886">
        <ele>982.098</ele>
        <time>2019-05-29T16:01:46Z</time>
      </trkpt>
      <trkpt lat="40.400301" lon="-7.658324">
        <ele>978.041</ele>
        <time>2019-05-29T16:02:06Z</time>
      </trkpt>
      <trkpt lat="40.400267" lon="-7.658529">
        <ele>976.044</ele>
        <time>2019-05-29T16:02:26Z</time>
      </trkpt>
      <trkpt lat="40.400006" lon="-7.658710">
        <ele>981.042</ele>
        <time>2019-05-29T16:02:46Z</time>
      </trkpt>
      <trkpt lat="40.399757" lon="-7.659036">
        <ele>984.039</ele>
        <time>2019-05-29T16:03:06Z</time>
      </trkpt>
      <trkpt lat="40.399604" lon="-7.659411">
        <ele>988.040</ele>
        <time>2019-05-29T16:03:26Z</time>
      </trkpt>
      <trkpt lat="40.399396" lon="-7.659935">
        <ele>975.087</ele>
        <time>2019-05-29T16:03:46Z</time>
      </trkpt>
      <trkpt lat="40.399170" lon="-7.660051">
        <ele>976.078</ele>
        <time>2019-05-29T16:04:06Z</time>
      </trkpt>
      <trkpt lat="40.398830" lon="-7.660056">
        <ele>979.044</ele>
        <time>2019-05-29T16:04:26Z</time>
      </trkpt>
      <trkpt lat="40.398553" lon="-7.659995">
        <ele>981.005</ele>
        <time>2019-05-29T16:04:46Z</time>
      </trkpt>
      <trkpt lat="40.398233" lon="-7.659925">
        <ele>979.015</ele>
        <time>2019-05-29T16:05:06Z</time>
      </trkpt>
      <trkpt lat="40.398049" lon="-7.659965">
        <ele>976.008</ele>
        <time>2019-05-29T16:05:26Z</time>
      </trkpt>
      <trkpt lat="40.397745" lon="-7.660062">
        <ele>977.017</ele>
        <time>2019-05-29T16:05:46Z</time>
      </trkpt>
      <trkpt lat="40.397500" lon="-7.660429">
        <ele>979.080</ele>
        <time>2019-05-29T16:06:06Z</time>
      </trkpt>
      <trkpt lat="40.397258" lon="-7.661103">
        <ele>977.093</ele>
        <time>2019-05-29T16:06:26Z</time>
      </trkpt>
      <trkpt lat="40.397190" lon="-7.661411">
        <ele>973.091</ele>
        <time>2019-05-29T16:06:46Z</time>
      </trkpt>
      <trkpt lat="40.397014" lon="-7.661535">
        <ele>977.018</ele>
        <time>2019-05-29T16:07:06Z</time>
      </trkpt>
      <trkpt lat="40.396967" lon="-7.661824">
        <ele>976.079</ele>
        <time>2019-05-29T16:07:26Z</time>
      </trkpt>
      <trkpt lat="40.396749" lon="-7.662107">
        <ele>978.046</ele>
        <time>2019-05-29T16:07:46Z</time>
      </trkpt>
      <trkpt lat="40.396772" lon="-7.662274">
        <ele>979.077</ele>
        <time>2019-05-29T16:08:06Z</time>
      </trkpt>
      <trkpt lat="40.397300" lon="-7.662629">
        <ele>970.046</ele>
        <time>2019-05-29T16:08:26Z</time>
      </trkpt>
      <trkpt lat="40.397295" lon="-7.662918">
        <ele>972.088</ele>
        <time>2019-05-29T16:08:46Z</time>
      </trkpt>
      <trkpt lat="40.397201" lon="-7.663459">
        <ele>973.016</ele>
        <time>2019-05-29T16:09:06Z</time>
      </trkpt>
      <trkpt lat="40.396957" lon="-7.663919">
        <ele>970.008</ele>
        <time>2019-05-29T16:09:26Z</time>
      </trkpt>
      <trkpt lat="40.396682" lon="-7.664119">
        <ele>975.067</ele>
        <time>2019-05-29T16:09:46Z</time>
      </trkpt>
      <trkpt lat="40.396570" lon="-7.664269">
        <ele>975.020</ele>
        <time>2019-05-29T16:10:06Z</time>
      </trkpt>
      <trkpt lat="40.396341" lon="-7.665031">
        <ele>982.043</ele>
        <time>2019-05-29T16:10:26Z</time>
      </trkpt>
      <trkpt lat="40.396331" lon="-7.665468">
        <ele>984.071</ele>
        <time>2019-05-29T16:10:46Z</time>
      </trkpt>
      <trkpt lat="40.396456" lon="-7.665932">
        <ele>976.078</ele>
        <time>2019-05-29T16:11:06Z</time>
      </trkpt>
      <trkpt lat="40.396558" lon="-7.666293">
        <ele>977.089</ele>
        <time>2019-05-29T16:11:26Z</time>
      </trkpt>
      <trkpt lat="40.396743" lon="-7.666421">
        <ele>969.076</ele>
        <time>2019-05-29T16:11:46Z</time>
      </trkpt>
      <trkpt lat="40.396827" lon="-7.667062">
        <ele>974.017</ele>
        <time>2019-05-29T16:12:06Z</time>
      </trkpt>
      <trkpt lat="40.396766" lon="-7.667426">
        <ele>975.074</ele>
        <time>2019-05-29T16:12:26Z</time>
      </trkpt>
      <trkpt lat="40.396639" lon="-7.668210">
        <ele>980.056</ele>
        <time>2019-05-29T16:12:46Z</time>
      </trkpt>
      <trkpt lat="40.396813" lon="-7.669512">
        <ele>973.021</ele>
        <time>2019-05-29T16:13:06Z</time>
      </trkpt>
      <trkpt lat="40.396733" lon="-7.670053">
        <ele>971.008</ele>
        <time>2019-05-29T16:13:26Z</time>
      </trkpt>
      <trkpt lat="40.396629" lon="-7.670390">
        <ele>974.050</ele>
        <time>2019-05-29T16:13:46Z</time>
      </trkpt>
      <trkpt lat="40.396491" lon="-7.670820">
        <ele>977.073</ele>
        <time>2019-05-29T16:14:06Z</time>
      </trkpt>
      <trkpt lat="40.396601" lon="-7.671219">
        <ele>974.096</ele>
        <time>2019-05-29T16:14:26Z</time>
      </trkpt>
      <trkpt lat="40.396766" lon="-7.671440">
        <ele>969.014</ele>
        <time>2019-05-29T16:14:46Z</time>
      </trkpt>
      <trkpt lat="40.396770" lon="-7.671896">
        <ele>977.081</ele>
        <time>2019-05-29T16:15:06Z</time>
      </trkpt>
      <trkpt lat="40.396857" lon="-7.672109">
        <ele>977.012</ele>
        <time>2019-05-29T16:15:26Z</time>
      </trkpt>
      <trkpt lat="40.397463" lon="-7.672454">
        <ele>965.069</ele>
        <time>2019-05-29T16:15:46Z</time>
      </trkpt>
      <trkpt lat="40.397451" lon="-7.673579">
        <ele>972.050</ele>
        <time>2019-05-29T16:16:06Z</time>
      </trkpt>
      <trkpt lat="40.397312" lon="-7.673925">
        <ele>983.032</ele>
        <time>2019-05-29T16:16:26Z</time>
      </trkpt>
      <trkpt lat="40.397354" lon="-7.674567">
        <ele>980.092</ele>
        <time>2019-05-29T16:16:46Z</time>
      </trkpt>
      <trkpt lat="40.397478" lon="-7.674993">
        <ele>981.011</ele>
        <time>2019-05-29T16:17:06Z</time>
      </trkpt>
      <trkpt lat="40.397834" lon="-7.675211">
        <ele>970.008</ele>
        <time>2019-05-29T16:17:26Z</time>
      </trkpt>
      <trkpt lat="40.398103" lon="-7.675722">
        <ele>974.066</ele>
        <time>2019-05-29T16:17:46Z</time>
      </trkpt>
      <trkpt lat="40.398556" lon="-7.676478">
        <ele>979.049</ele>
        <time>2019-05-29T16:18:06Z</time>
      </trkpt>
      <trkpt lat="40.398840" lon="-7.676567">
        <ele>975.022</ele>
        <time>2019-05-29T16:18:26Z</time>
      </trkpt>
      <trkpt lat="40.399344" lon="-7.676597">
        <ele>969.080</ele>
        <time>2019-05-29T16:18:46Z</time>
      </trkpt>
      <trkpt lat="40.399438" lon="-7.676828">
        <ele>971.057</ele>
        <time>2019-05-29T16:19:06Z</time>
      </trkpt>
      <trkpt lat="40.399435" lon="-7.677303">
        <ele>975.058</ele>
        <time>2019-05-29T16:19:26Z</time>
      </trkpt>
      <trkpt lat="40.399348" lon="-7.677826">
        <ele>976.025</ele>
        <time>2019-05-29T16:19:46Z</time>
      </trkpt>
      <trkpt lat="40.399048" lon="-7.678370">
        <ele>974.096</ele>
        <time>2019-05-29T16:20:06Z</time>
      </trkpt>
      <trkpt lat="40.398888" lon="-7.678754">
        <ele>976.098</ele>
        <time>2019-05-29T16:20:26Z</time>
      </trkpt>
      <trkpt lat="40.399064" lon="-7.678640">
        <ele>971.015</ele>
        <time>2019-05-29T16:20:46Z</time>
      </trkpt>
      <trkpt lat="40.399587" lon="-7.677627">
        <ele>969.026</ele>
        <time>2019-05-29T16:21:06Z</time>
      </trkpt>
      <trkpt lat="40.399709" lon="-7.677755">
        <ele>964.008</ele>
        <time>2019-05-29T16:21:26Z</time>
      </trkpt>
      <trkpt lat="40.399517" lon="-7.678587">
        <ele>959.082</ele>
        <time>2019-05-29T16:21:46Z</time>
      </trkpt>
      <trkpt lat="40.399646" lon="-7.678669">
        <ele>953.085</ele>
        <time>2019-05-29T16:22:06Z</time>
      </trkpt>
      <trkpt lat="40.400203" lon="-7.677524">
        <ele>946.088</ele>
        <time>2019-05-29T16:22:26Z</time>
      </trkpt>
      <trkpt lat="40.400076" lon="-7.676782">
        <ele>949.046</ele>
        <time>2019-05-29T16:22:46Z</time>
      </trkpt>
      <trkpt lat="40.400185" lon="-7.676296">
        <ele>941.093</ele>
        <time>2019-05-29T16:23:06Z</time>
      </trkpt>
      <trkpt lat="40.400303" lon="-7.676005">
        <ele>931.084</ele>
        <time>2019-05-29T16:23:26Z</time>
      </trkpt>
      <trkpt lat="40.400216" lon="-7.675765">
        <ele>927.051</ele>
        <time>2019-05-29T16:23:46Z</time>
      </trkpt>
      <trkpt lat="40.400030" lon="-7.675618">
        <ele>924.032</ele>
        <time>2019-05-29T16:24:06Z</time>
      </trkpt>
      <trkpt lat="40.399733" lon="-7.675688">
        <ele>929.076</ele>
        <time>2019-05-29T16:24:26Z</time>
      </trkpt>
      <trkpt lat="40.399485" lon="-7.675664">
        <ele>930.090</ele>
        <time>2019-05-29T16:24:46Z</time>
      </trkpt>
      <trkpt lat="40.399639" lon="-7.675503">
        <ele>920.019</ele>
        <time>2019-05-29T16:25:06Z</time>
      </trkpt>
      <trkpt lat="40.399950" lon="-7.675350">
        <ele>915.008</ele>
        <time>2019-05-29T16:25:26Z</time>
      </trkpt>
      <trkpt lat="40.400413" lon="-7.675206">
        <ele>907.030</ele>
        <time>2019-05-29T16:25:46Z</time>
      </trkpt>
      <trkpt lat="40.400618" lon="-7.675129">
        <ele>900.093</ele>
        <time>2019-05-29T16:26:06Z</time>
      </trkpt>
      <trkpt lat="40.400910" lon="-7.675320">
        <ele>895.046</ele>
        <time>2019-05-29T16:26:26Z</time>
      </trkpt>
      <trkpt lat="40.401048" lon="-7.675672">
        <ele>898.054</ele>
        <time>2019-05-29T16:26:46Z</time>
      </trkpt>
      <trkpt lat="40.401117" lon="-7.676239">
        <ele>901.031</ele>
        <time>2019-05-29T16:27:06Z</time>
      </trkpt>
      <trkpt lat="40.401364" lon="-7.676933">
        <ele>897.082</ele>
        <time>2019-05-29T16:27:26Z</time>
      </trkpt>
      <trkpt lat="40.401685" lon="-7.677170">
        <ele>890.089</ele>
        <time>2019-05-29T16:27:46Z</time>
      </trkpt>
      <trkpt lat="40.401907" lon="-7.677446">
        <ele>887.050</ele>
        <time>2019-05-29T16:28:06Z</time>
      </trkpt>
      <trkpt lat="40.402073" lon="-7.677779">
        <ele>880.048</ele>
        <time>2019-05-29T16:28:26Z</time>
      </trkpt>
      <trkpt lat="40.401064" lon="-7.679940">
        <ele>868.061</ele>
        <time>2019-05-29T16:28:46Z</time>
      </trkpt>
      <trkpt lat="40.400531" lon="-7.681474">
        <ele>855.017</ele>
        <time>2019-05-29T16:29:06Z</time>
      </trkpt>
      <trkpt lat="40.400507" lon="-7.681968">
        <ele>849.008</ele>
        <time>2019-05-29T16:29:26Z</time>
      </trkpt>
      <trkpt lat="40.400158" lon="-7.683416">
        <ele>840.097</ele>
        <time>2019-05-29T16:29:46Z</time>
      </trkpt>
      <trkpt lat="40.399870" lon="-7.683784">
        <ele>843.060</ele>
        <time>2019-05-29T16:30:06Z</time>
      </trkpt>
      <trkpt lat="40.399121" lon="-7.685647">
        <ele>828.023</ele>
        <time>2019-05-29T16:30:26Z</time>
      </trkpt>
      <trkpt lat="40.398725" lon="-7.686428">
        <ele>821.081</ele>
        <time>2019-05-29T16:30:46Z</time>
      </trkpt>
      <trkpt lat="40.397740" lon="-7.687365">
        <ele>810.058</ele>
        <time>2019-05-29T16:31:06Z</time>
      </trkpt>
      <trkpt lat="40.397844" lon="-7.687866">
        <ele>808.019</ele>
        <time>2019-05-29T16:31:26Z</time>
      </trkpt>
      <trkpt lat="40.397628" lon="-7.689163">
        <ele>827.086</ele>
        <time>2019-05-29T16:31:46Z</time>
      </trkpt>
      <trkpt lat="40.397627" lon="-7.689802">
        <ele>835.097</ele>
        <time>2019-05-29T16:32:06Z</time>
      </trkpt>
      <trkpt lat="40.397403" lon="-7.690979">
        <ele>837.078</ele>
        <time>2019-05-29T16:32:26Z</time>
      </trkpt>
      <trkpt lat="40.397456" lon="-7.691360">
        <ele>838.033</ele>
        <time>2019-05-29T16:32:46Z</time>
      </trkpt>
      <trkpt lat="40.397029" lon="-7.692351">
        <ele>835.026</ele>
        <time>2019-05-29T16:33:06Z</time>
      </trkpt>
      <trkpt lat="40.397167" lon="-7.693569">
        <ele>833.008</ele>
        <time>2019-05-29T16:33:26Z</time>
      </trkpt>
      <trkpt lat="40.397114" lon="-7.693970">
        <ele>831.060</ele>
        <time>2019-05-29T16:33:46Z</time>
      </trkpt>
      <trkpt lat="40.396868" lon="-7.694262">
        <ele>824.043</ele>
        <time>2019-05-29T16:34:06Z</time>
      </trkpt>
      <trkpt lat="40.396552" lon="-7.694564">
        <ele>823.066</ele>
        <time>2019-05-29T16:34:26Z</time>
      </trkpt>
      <trkpt lat="40.396269" lon="-7.694662">
        <ele>822.084</ele>
        <time>2019-05-29T16:34:46Z</time>
      </trkpt>
      <trkpt lat="40.395929" lon="-7.694657">
        <ele>814.031</ele>
        <time>2019-05-29T16:35:06Z</time>
      </trkpt>
      <trkpt lat="40.395659" lon="-7.694615">
        <ele>808.052</ele>
        <time>2019-05-29T16:35:26Z</time>
      </trkpt>
      <trkpt lat="40.394971" lon="-7.694653">
        <ele>802.039</ele>
        <time>2019-05-29T16:35:46Z</time>
      </trkpt>
      <trkpt lat="40.394841" lon="-7.694431">
        <ele>803.050</ele>
        <time>2019-05-29T16:36:06Z</time>
      </trkpt>
      <trkpt lat="40.394494" lon="-7.694390">
        <ele>802.053</ele>
        <time>2019-05-29T16:36:26Z</time>
      </trkpt>
      <trkpt lat="40.394355" lon="-7.693861">
        <ele>802.004</ele>
        <time>2019-05-29T16:36:46Z</time>
      </trkpt>
      <trkpt lat="40.393997" lon="-7.693550">
        <ele>800.014</ele>
        <time>2019-05-29T16:37:06Z</time>
      </trkpt>
      <trkpt lat="40.393880" lon="-7.693049">
        <ele>800.008</ele>
        <time>2019-05-29T16:37:26Z</time>
      </trkpt>
      <trkpt lat="40.393911" lon="-7.692537">
        <ele>804.038</ele>
        <time>2019-05-29T16:37:46Z</time>
      </trkpt>
      <trkpt lat="40.393759" lon="-7.692232">
        <ele>804.061</ele>
        <time>2019-05-29T16:38:06Z</time>
      </trkpt>
      <trkpt lat="40.393546" lon="-7.692133">
        <ele>801.044</ele>
        <time>2019-05-29T16:38:26Z</time>
      </trkpt>
      <trkpt lat="40.393096" lon="-7.692186">
        <ele>801.032</ele>
        <time>2019-05-29T16:38:46Z</time>
      </trkpt>
      <trkpt lat="40.392972" lon="-7.692532">
        <ele>800.089</ele>
        <time>2019-05-29T16:39:06Z</time>
      </trkpt>
      <trkpt lat="40.392826" lon="-7.692972">
        <ele>798.070</ele>
        <time>2019-05-29T16:39:26Z</time>
      </trkpt>
      <trkpt lat="40.392503" lon="-7.693256">
        <ele>799.057</ele>
        <time>2019-05-29T16:39:46Z</time>
      </trkpt>
      <trkpt lat="40.392130" lon="-7.693606">
        <ele>800.058</ele>
        <time>2019-05-29T16:40:06Z</time>
      </trkpt>
      <trkpt lat="40.392039" lon="-7.693898">
        <ele>800.029</ele>
        <time>2019-05-29T16:40:26Z</time>
      </trkpt>
      <trkpt lat="40.392005" lon="-7.694150">
        <ele>798.000</ele>
        <time>2019-05-29T16:40:46Z</time>
      </trkpt>
      <trkpt lat="40.391811" lon="-7.694646">
        <ele>807.020</ele>
        <time>2019-05-29T16:41:06Z</time>
      </trkpt>
      <trkpt lat="40.391823" lon="-7.695205">
        <ele>807.008</ele>
        <time>2019-05-29T16:41:26Z</time>
      </trkpt>
      <trkpt lat="40.391920" lon="-7.695734">
        <ele>804.015</ele>
        <time>2019-05-29T16:41:46Z</time>
      </trkpt>
      <trkpt lat="40.391967" lon="-7.696357">
        <ele>809.098</ele>
        <time>2019-05-29T16:42:06Z</time>
      </trkpt>
      <trkpt lat="40.392042" lon="-7.697624">
        <ele>806.011</ele>
        <time>2019-05-29T16:42:26Z</time>
      </trkpt>
      <trkpt lat="40.392212" lon="-7.698487">
        <ele>807.069</ele>
        <time>2019-05-29T16:42:46Z</time>
      </trkpt>
      <trkpt lat="40.392763" lon="-7.699028">
        <ele>800.076</ele>
        <time>2019-05-29T16:43:06Z</time>
      </trkpt>
      <trkpt lat="40.392786" lon="-7.699214">
        <ele>800.027</ele>
        <time>2019-05-29T16:43:26Z</time>
      </trkpt>
      <trkpt lat="40.392625" lon="-7.699431">
        <ele>805.054</ele>
        <time>2019-05-29T16:43:46Z</time>
      </trkpt>
      <trkpt lat="40.392388" lon="-7.699909">
        <ele>803.085</ele>
        <time>2019-05-29T16:44:06Z</time>
      </trkpt>
      <trkpt lat="40.392007" lon="-7.700522">
        <ele>809.016</ele>
        <time>2019-05-29T16:44:26Z</time>
      </trkpt>
      <trkpt lat="40.391492" lon="-7.701683">
        <ele>810.076</ele>
        <time>2019-05-29T16:44:46Z</time>
      </trkpt>
      <trkpt lat="40.391043" lon="-7.702276">
        <ele>811.013</ele>
        <time>2019-05-29T16:45:06Z</time>
      </trkpt>
      <trkpt lat="40.390651" lon="-7.702831">
        <ele>803.008</ele>
        <time>2019-05-29T16:45:26Z</time>
      </trkpt>
      <trkpt lat="40.390306" lon="-7.703097">
        <ele>790.044</ele>
        <time>2019-05-29T16:45:46Z</time>
      </trkpt>
      <trkpt lat="40.390093" lon="-7.703054">
        <ele>792.087</ele>
        <time>2019-05-29T16:46:06Z</time>
      </trkpt>
      <trkpt lat="40.389879" lon="-7.703015">
        <ele>795.050</ele>
        <time>2019-05-29T16:46:26Z</time>
      </trkpt>
      <trkpt lat="40.389525" lon="-7.703104">
        <ele>795.078</ele>
        <time>2019-05-29T16:46:46Z</time>
      </trkpt>
      <trkpt lat="40.389363" lon="-7.703171">
        <ele>794.085</ele>
        <time>2019-05-29T16:47:06Z</time>
      </trkpt>
      <trkpt lat="40.389334" lon="-7.703069">
        <ele>798.056</ele>
        <time>2019-05-29T16:47:26Z</time>
      </trkpt>
      <trkpt lat="40.389432" lon="-7.702928">
        <ele>803.083</ele>
        <time>2019-05-29T16:47:46Z</time>
      </trkpt>
      <trkpt lat="40.389452" lon="-7.702797">
        <ele>808.014</ele>
        <time>2019-05-29T16:48:06Z</time>
      </trkpt>
      <trkpt lat="40.389212" lon="-7.702894">
        <ele>805.078</ele>
        <time>2019-05-29T16:48:26Z</time>
      </trkpt>
      <trkpt lat="40.389055" lon="-7.702794">
        <ele>804.033</ele>
        <time>2019-05-29T16:48:46Z</time>
      </trkpt>
      <trkpt lat="40.388912" lon="-7.702712">
        <ele>801.026</ele>
        <time>2019-05-29T16:49:06Z</time>
      </trkpt>
      <trkpt lat="40.388961" lon="-7.702563">
        <ele>806.008</ele>
        <time>2019-05-29T16:49:26Z</time>
      </trkpt>
      <trkpt lat="40.388923" lon="-7.702275">
        <ele>808.020</ele>
        <time>2019-05-29T16:49:46Z</time>
      </trkpt>
      <trkpt lat="40.388829" lon="-7.702062">
        <ele>805.063</ele>
        <time>2019-05-29T16:50:06Z</time>
      </trkpt>
      <trkpt lat="40.388805" lon="-7.701829">
        <ele>806.096</ele>
        <time>2019-05-29T16:50:26Z</time>
      </trkpt>
      <trkpt lat="40.388832" lon="-7.701643">
        <ele>810.034</ele>
        <time>2019-05-29T16:50:46Z</time>
      </trkpt>
      <trkpt lat="40.388901" lon="-7.701353">
        <ele>814.011</ele>
        <time>2019-05-29T16:51:06Z</time>
      </trkpt>
      <trkpt lat="40.388919" lon="-7.701018">
        <ele>810.052</ele>
        <time>2019-05-29T16:51:26Z</time>
      </trkpt>
      <trkpt lat="40.388988" lon="-7.700766">
        <ele>811.019</ele>
        <time>2019-05-29T16:51:46Z</time>
      </trkpt>
      <trkpt lat="40.389099" lon="-7.700475">
        <ele>816.020</ele>
        <time>2019-05-29T16:52:06Z</time>
      </trkpt>
      <trkpt lat="40.389111" lon="-7.700280">
        <ele>814.041</ele>
        <time>2019-05-29T16:52:26Z</time>
      </trkpt>
      <trkpt lat="40.389016" lon="-7.699862">
        <ele>814.081</ele>
        <time>2019-05-29T16:52:46Z</time>
      </trkpt>
      <trkpt lat="40.388749" lon="-7.699345">
        <ele>811.009</ele>
        <time>2019-05-29T16:53:06Z</time>
      </trkpt>
      <trkpt lat="40.388428" lon="-7.699089">
        <ele>809.008</ele>
        <time>2019-05-29T16:53:26Z</time>
      </trkpt>
      <trkpt lat="40.388262" lon="-7.698821">
        <ele>811.097</ele>
        <time>2019-05-29T16:53:46Z</time>
      </trkpt>
      <trkpt lat="40.388192" lon="-7.698215">
        <ele>812.090</ele>
        <time>2019-05-29T16:54:06Z</time>
      </trkpt>
      <trkpt lat="40.388273" lon="-7.697683">
        <ele>814.073</ele>
        <time>2019-05-29T16:54:26Z</time>
      </trkpt>
      <trkpt lat="40.388446" lon="-7.697262">
        <ele>810.031</ele>
        <time>2019-05-29T16:54:46Z</time>
      </trkpt>
      <trkpt lat="40.388672" lon="-7.697082">
        <ele>814.078</ele>
        <time>2019-05-29T16:55:06Z</time>
      </trkpt>
      <trkpt lat="40.388847" lon="-7.696828">
        <ele>817.089</ele>
        <time>2019-05-29T16:55:26Z</time>
      </trkpt>
      <trkpt lat="40.388543" lon="-7.697000">
        <ele>810.026</ele>
        <time>2019-05-29T16:55:46Z</time>
      </trkpt>
      <trkpt lat="40.388324" lon="-7.697022">
        <ele>806.027</ele>
        <time>2019-05-29T16:56:06Z</time>
      </trkpt>
      <trkpt lat="40.388091" lon="-7.697193">
        <ele>800.055</ele>
        <time>2019-05-29T16:56:26Z</time>
      </trkpt>
      <trkpt lat="40.387814" lon="-7.697169">
        <ele>792.007</ele>
        <time>2019-05-29T16:56:46Z</time>
      </trkpt>
      <trkpt lat="40.387630" lon="-7.697153">
        <ele>788.017</ele>
        <time>2019-05-29T16:57:06Z</time>
      </trkpt>
      <trkpt lat="40.387388" lon="-7.697082">
        <ele>784.008</ele>
        <time>2019-05-29T16:57:26Z</time>
      </trkpt>
      <trkpt lat="40.387202" lon="-7.696880">
        <ele>781.078</ele>
        <time>2019-05-29T16:57:46Z</time>
      </trkpt>
      <trkpt lat="40.387123" lon="-7.696704">
        <ele>781.091</ele>
        <time>2019-05-29T16:58:06Z</time>
      </trkpt>
      <trkpt lat="40.387121" lon="-7.696499">
        <ele>782.024</ele>
        <time>2019-05-29T16:58:26Z</time>
      </trkpt>
      <trkpt lat="40.386846" lon="-7.696727">
        <ele>773.082</ele>
        <time>2019-05-29T16:58:46Z</time>
      </trkpt>
      <trkpt lat="40.386844" lon="-7.696839">
        <ele>772.099</ele>
        <time>2019-05-29T16:59:06Z</time>
      </trkpt>
      <trkpt lat="40.386782" lon="-7.696874">
        <ele>770.040</ele>
        <time>2019-05-29T16:59:26Z</time>
      </trkpt>
      <trkpt lat="40.386681" lon="-7.696800">
        <ele>766.037</ele>
        <time>2019-05-29T16:59:46Z</time>
      </trkpt>
      <trkpt lat="40.386587" lon="-7.696951">
        <ele>761.038</ele>
        <time>2019-05-29T17:00:06Z</time>
      </trkpt>
      <trkpt lat="40.386522" lon="-7.696881">
        <ele>758.083</ele>
        <time>2019-05-29T17:00:26Z</time>
      </trkpt>
      <trkpt lat="40.386484" lon="-7.697001">
        <ele>755.025</ele>
        <time>2019-05-29T17:00:46Z</time>
      </trkpt>
      <trkpt lat="40.386515" lon="-7.697107">
        <ele>757.017</ele>
        <time>2019-05-29T17:01:06Z</time>
      </trkpt>
      <trkpt lat="40.386468" lon="-7.697227">
        <ele>754.008</ele>
        <time>2019-05-29T17:01:26Z</time>
      </trkpt>
      <trkpt lat="40.386530" lon="-7.697361">
        <ele>757.061</ele>
        <time>2019-05-29T17:01:46Z</time>
      </trkpt>
      <trkpt lat="40.386184" lon="-7.697401">
        <ele>741.034</ele>
        <time>2019-05-29T17:02:06Z</time>
      </trkpt>
      <trkpt lat="40.386115" lon="-7.697308">
        <ele>737.097</ele>
        <time>2019-05-29T17:02:26Z</time>
      </trkpt>
      <trkpt lat="40.386072" lon="-7.697259">
        <ele>735.015</ele>
        <time>2019-05-29T17:02:46Z</time>
      </trkpt>
      <trkpt lat="40.386014" lon="-7.697345">
        <ele>733.082</ele>
        <time>2019-05-29T17:03:06Z</time>
      </trkpt>
      <trkpt lat="40.385990" lon="-7.697480">
        <ele>733.083</ele>
        <time>2019-05-29T17:03:26Z</time>
      </trkpt>
      <trkpt lat="40.385849" lon="-7.697690">
        <ele>725.020</ele>
        <time>2019-05-29T17:03:46Z</time>
      </trkpt>
      <trkpt lat="40.385713" lon="-7.697749">
        <ele>720.081</ele>
        <time>2019-05-29T17:04:06Z</time>
      </trkpt>
      <trkpt lat="40.385826" lon="-7.697895">
        <ele>719.019</ele>
        <time>2019-05-29T17:04:26Z</time>
      </trkpt>
      <trkpt lat="40.385919" lon="-7.698055">
        <ele>717.009</ele>
        <time>2019-05-29T17:04:46Z</time>
      </trkpt>
      <trkpt lat="40.385958" lon="-7.698132">
        <ele>715.019</ele>
        <time>2019-05-29T17:05:06Z</time>
      </trkpt>
      <trkpt lat="40.385412" lon="-7.698111">
        <ele>702.008</ele>
        <time>2019-05-29T17:05:26Z</time>
      </trkpt>
      <trkpt lat="40.385185" lon="-7.698014">
        <ele>700.054</ele>
        <time>2019-05-29T17:05:46Z</time>
      </trkpt>
      <trkpt lat="40.385093" lon="-7.697714">
        <ele>705.087</ele>
        <time>2019-05-29T17:06:06Z</time>
      </trkpt>
      <trkpt lat="40.385145" lon="-7.697365">
        <ele>713.080</ele>
        <time>2019-05-29T17:06:26Z</time>
      </trkpt>
      <trkpt lat="40.385076" lon="-7.697278">
        <ele>715.058</ele>
        <time>2019-05-29T17:06:46Z</time>
      </trkpt>
      <trkpt lat="40.384904" lon="-7.697368">
        <ele>714.065</ele>
        <time>2019-05-29T17:07:06Z</time>
      </trkpt>
      <trkpt lat="40.384772" lon="-7.697567">
        <ele>711.056</ele>
        <time>2019-05-29T17:07:26Z</time>
      </trkpt>
      <trkpt lat="40.384617" lon="-7.697875">
        <ele>713.023</ele>
        <time>2019-05-29T17:07:46Z</time>
      </trkpt>
      <trkpt lat="40.384564" lon="-7.698197">
        <ele>712.084</ele>
        <time>2019-05-29T17:08:06Z</time>
      </trkpt>
      <trkpt lat="40.384484" lon="-7.698396">
        <ele>714.033</ele>
        <time>2019-05-29T17:08:26Z</time>
      </trkpt>
      <trkpt lat="40.384283" lon="-7.698781">
        <ele>713.023</ele>
        <time>2019-05-29T17:08:46Z</time>
      </trkpt>
      <trkpt lat="40.383902" lon="-7.699424">
        <ele>714.015</ele>
        <time>2019-05-29T17:09:06Z</time>
      </trkpt>
      <trkpt lat="40.383645" lon="-7.699675">
        <ele>721.008</ele>
        <time>2019-05-29T17:09:26Z</time>
      </trkpt>
      <trkpt lat="40.383339" lon="-7.700267">
        <ele>726.056</ele>
        <time>2019-05-29T17:09:46Z</time>
      </trkpt>
      <trkpt lat="40.383151" lon="-7.700563">
        <ele>724.059</ele>
        <time>2019-05-29T17:10:06Z</time>
      </trkpt>
      <trkpt lat="40.383097" lon="-7.700846">
        <ele>722.082</ele>
        <time>2019-05-29T17:10:26Z</time>
      </trkpt>
      <trkpt lat="40.383005" lon="-7.701068">
        <ele>723.090</ele>
        <time>2019-05-29T17:10:46Z</time>
      </trkpt>
      <trkpt lat="40.382861" lon="-7.701217">
        <ele>726.037</ele>
        <time>2019-05-29T17:11:06Z</time>
      </trkpt>
      <trkpt lat="40.382714" lon="-7.701331">
        <ele>729.068</ele>
        <time>2019-05-29T17:11:26Z</time>
      </trkpt>
      <trkpt lat="40.382604" lon="-7.701417">
        <ele>731.065</ele>
        <time>2019-05-29T17:11:46Z</time>
      </trkpt>
      <trkpt lat="40.382365" lon="-7.701800">
        <ele>735.016</ele>
        <time>2019-05-29T17:12:06Z</time>
      </trkpt>
      <trkpt lat="40.382251" lon="-7.702012">
        <ele>738.016</ele>
        <time>2019-05-29T17:12:26Z</time>
      </trkpt>
      <trkpt lat="40.382134" lon="-7.702268">
        <ele>743.076</ele>
        <time>2019-05-29T17:12:46Z</time>
      </trkpt>
      <trkpt lat="40.382059" lon="-7.702482">
        <ele>747.013</ele>
        <time>2019-05-29T17:13:06Z</time>
      </trkpt>
      <trkpt lat="40.381962" lon="-7.702969">
        <ele>744.008</ele>
        <time>2019-05-29T17:13:26Z</time>
      </trkpt>
      <trkpt lat="40.381753" lon="-7.703576">
        <ele>747.034</ele>
        <time>2019-05-29T17:13:46Z</time>
      </trkpt>
      <trkpt lat="40.381585" lon="-7.703884">
        <ele>749.087</ele>
        <time>2019-05-29T17:14:06Z</time>
      </trkpt>
      <trkpt lat="40.381579" lon="-7.704149">
        <ele>747.030</ele>
        <time>2019-05-29T17:14:26Z</time>
      </trkpt>
      <trkpt lat="40.381631" lon="-7.704371">
        <ele>745.018</ele>
        <time>2019-05-29T17:14:46Z</time>
      </trkpt>
      <trkpt lat="40.381579" lon="-7.704506">
        <ele>744.095</ele>
        <time>2019-05-29T17:15:06Z</time>
      </trkpt>
      <trkpt lat="40.381152" lon="-7.704678">
        <ele>744.056</ele>
        <time>2019-05-29T17:15:26Z</time>
      </trkpt>
      <trkpt lat="40.380869" lon="-7.704977">
        <ele>740.013</ele>
        <time>2019-05-29T17:15:46Z</time>
      </trkpt>
      <trkpt lat="40.380698" lon="-7.705108">
        <ele>744.064</ele>
        <time>2019-05-29T17:16:06Z</time>
      </trkpt>
      <trkpt lat="40.380680" lon="-7.705486">
        <ele>737.074</ele>
        <time>2019-05-29T17:16:26Z</time>
      </trkpt>
      <trkpt lat="40.380592" lon="-7.705691">
        <ele>736.056</ele>
        <time>2019-05-29T17:16:46Z</time>
      </trkpt>
      <trkpt lat="40.380242" lon="-7.706179">
        <ele>742.021</ele>
        <time>2019-05-29T17:17:06Z</time>
      </trkpt>
      <trkpt lat="40.379993" lon="-7.706486">
        <ele>744.008</ele>
        <time>2019-05-29T17:17:26Z</time>
      </trkpt>
      <trkpt lat="40.379765" lon="-7.706966">
        <ele>749.080</ele>
        <time>2019-05-29T17:17:46Z</time>
      </trkpt>
      <trkpt lat="40.379423" lon="-7.707608">
        <ele>746.083</ele>
        <time>2019-05-29T17:18:06Z</time>
      </trkpt>
      <trkpt lat="40.379225" lon="-7.707818">
        <ele>744.046</ele>
        <time>2019-05-29T17:18:26Z</time>
      </trkpt>
      <trkpt lat="40.379083" lon="-7.707915">
        <ele>742.024</ele>
        <time>2019-05-29T17:18:46Z</time>
      </trkpt>
      <trkpt lat="40.378912" lon="-7.707900">
        <ele>743.031</ele>
        <time>2019-05-29T17:19:06Z</time>
      </trkpt>
      <trkpt lat="40.378454" lon="-7.707662">
        <ele>746.032</ele>
        <time>2019-05-29T17:19:26Z</time>
      </trkpt>
      <trkpt lat="40.378265" lon="-7.707610">
        <ele>745.099</ele>
        <time>2019-05-29T17:19:46Z</time>
      </trkpt>
      <trkpt lat="40.378153" lon="-7.707656">
        <ele>743.050</ele>
        <time>2019-05-29T17:20:06Z</time>
      </trkpt>
      <trkpt lat="40.377749" lon="-7.708002">
        <ele>738.056</ele>
        <time>2019-05-29T17:20:26Z</time>
      </trkpt>
      <trkpt lat="40.377489" lon="-7.708076">
        <ele>741.059</ele>
        <time>2019-05-29T17:20:46Z</time>
      </trkpt>
      <trkpt lat="40.377183" lon="-7.708114">
        <ele>743.014</ele>
        <time>2019-05-29T17:21:06Z</time>
      </trkpt>
      <trkpt lat="40.377148" lon="-7.708198">
        <ele>742.008</ele>
        <time>2019-05-29T17:21:26Z</time>
      </trkpt>
      <trkpt lat="40.377100" lon="-7.708215">
        <ele>742.018</ele>
        <time>2019-05-29T17:21:46Z</time>
      </trkpt>
      <trkpt lat="40.377037" lon="-7.708142">
        <ele>742.021</ele>
        <time>2019-05-29T17:22:06Z</time>
      </trkpt>
      <trkpt lat="40.377025" lon="-7.708163">
        <ele>742.074</ele>
        <time>2019-05-29T17:22:26Z</time>
      </trkpt>
      <trkpt lat="40.376991" lon="-7.708194">
        <ele>742.022</ele>
        <time>2019-05-29T17:22:46Z</time>
      </trkpt>
      <trkpt lat="40.376942" lon="-7.708153">
        <ele>742.099</ele>
        <time>2019-05-29T17:23:06Z</time>
      </trkpt>
      <trkpt lat="40.376890" lon="-7.708228">
        <ele>740.060</ele>
        <time>2019-05-29T17:23:26Z</time>
      </trkpt>
      <trkpt lat="40.376915" lon="-7.708288">
        <ele>740.037</ele>
        <time>2019-05-29T17:23:46Z</time>
      </trkpt>
      <trkpt lat="40.376888" lon="-7.708313">
        <ele>739.088</ele>
        <time>2019-05-29T17:24:06Z</time>
      </trkpt>
      <trkpt lat="40.376836" lon="-7.708329">
        <ele>738.038</ele>
        <time>2019-05-29T17:24:26Z</time>
      </trkpt>
      <trkpt lat="40.376815" lon="-7.708393">
        <ele>737.070</ele>
        <time>2019-05-29T17:24:46Z</time>
      </trkpt>
      <trkpt lat="40.376694" lon="-7.708506">
        <ele>735.017</ele>
        <time>2019-05-29T17:25:06Z</time>
      </trkpt>
      <trkpt lat="40.376627" lon="-7.708626">
        <ele>733.008</ele>
        <time>2019-05-29T17:25:26Z</time>
      </trkpt>
      <trkpt lat="40.376587" lon="-7.708694">
        <ele>732.046</ele>
        <time>2019-05-29T17:25:46Z</time>
      </trkpt>
      <trkpt lat="40.376476" lon="-7.708544">
        <ele>731.029</ele>
        <time>2019-05-29T17:26:06Z</time>
      </trkpt>
      <trkpt lat="40.376359" lon="-7.708620">
        <ele>728.062</ele>
        <time>2019-05-29T17:26:26Z</time>
      </trkpt>
      <trkpt lat="40.376243" lon="-7.708717">
        <ele>726.010</ele>
        <time>2019-05-29T17:26:46Z</time>
      </trkpt>
      <trkpt lat="40.376094" lon="-7.708792">
        <ele>723.067</ele>
        <time>2019-05-29T17:27:06Z</time>
      </trkpt>
      <trkpt lat="40.375966" lon="-7.708722">
        <ele>721.038</ele>
        <time>2019-05-29T17:27:26Z</time>
      </trkpt>
      <trkpt lat="40.375848" lon="-7.708687">
        <ele>720.035</ele>
        <time>2019-05-29T17:27:46Z</time>
      </trkpt>
      <trkpt lat="40.375694" lon="-7.708661">
        <ele>718.056</ele>
        <time>2019-05-29T17:28:06Z</time>
      </trkpt>
      <trkpt lat="40.375542" lon="-7.708578">
        <ele>719.081</ele>
        <time>2019-05-29T17:28:26Z</time>
      </trkpt>
      <trkpt lat="40.375423" lon="-7.708584">
        <ele>719.061</ele>
        <time>2019-05-29T17:28:46Z</time>
      </trkpt>
      <trkpt lat="40.375180" lon="-7.708587">
        <ele>719.017</ele>
        <time>2019-05-29T17:29:06Z</time>
      </trkpt>
      <trkpt lat="40.374774" lon="-7.708711">
        <ele>723.008</ele>
        <time>2019-05-29T17:29:26Z</time>
      </trkpt>
      <trkpt lat="40.374365" lon="-7.708836">
        <ele>728.041</ele>
        <time>2019-05-29T17:29:46Z</time>
      </trkpt>
      <trkpt lat="40.373882" lon="-7.709022">
        <ele>734.074</ele>
        <time>2019-05-29T17:30:06Z</time>
      </trkpt>
      <trkpt lat="40.373373" lon="-7.709262">
        <ele>741.017</ele>
        <time>2019-05-29T17:30:26Z</time>
      </trkpt>
      <trkpt lat="40.373249" lon="-7.709319">
        <ele>743.095</ele>
        <time>2019-05-29T17:30:46Z</time>
      </trkpt>
      <trkpt lat="40.373166" lon="-7.709487">
        <ele>743.032</ele>
        <time>2019-05-29T17:31:06Z</time>
      </trkpt>
      <trkpt lat="40.373224" lon="-7.709596">
        <ele>740.013</ele>
        <time>2019-05-29T17:31:26Z</time>
      </trkpt>
      <trkpt lat="40.373324" lon="-7.709687">
        <ele>737.090</ele>
        <time>2019-05-29T17:31:46Z</time>
      </trkpt>
      <trkpt lat="40.373338" lon="-7.709774">
        <ele>736.061</ele>
        <time>2019-05-29T17:32:06Z</time>
      </trkpt>
      <trkpt lat="40.373279" lon="-7.709824">
        <ele>736.077</ele>
        <time>2019-05-29T17:32:26Z</time>
      </trkpt>
      <trkpt lat="40.373032" lon="-7.709879">
        <ele>740.061</ele>
        <time>2019-05-29T17:32:46Z</time>
      </trkpt>
      <trkpt lat="40.372786" lon="-7.709912">
        <ele>747.027</ele>
        <time>2019-05-29T17:33:06Z</time>
      </trkpt>
      <trkpt lat="40.372686" lon="-7.709867">
        <ele>751.008</ele>
        <time>2019-05-29T17:33:26Z</time>
      </trkpt>
      <trkpt lat="40.372513" lon="-7.709919">
        <ele>754.090</ele>
        <time>2019-05-29T17:33:46Z</time>
      </trkpt>
      <trkpt lat="40.372300" lon="-7.710035">
        <ele>754.033</ele>
        <time>2019-05-29T17:34:06Z</time>
      </trkpt>
      <trkpt lat="40.372218" lon="-7.710123">
        <ele>753.026</ele>
        <time>2019-05-29T17:34:26Z</time>
      </trkpt>
      <trkpt lat="40.371830" lon="-7.710108">
        <ele>760.014</ele>
        <time>2019-05-29T17:34:46Z</time>
      </trkpt>
      <trkpt lat="40.371671" lon="-7.710243">
        <ele>760.021</ele>
        <time>2019-05-29T17:35:06Z</time>
      </trkpt>
      <trkpt lat="40.371685" lon="-7.710404">
        <ele>754.032</ele>
        <time>2019-05-29T17:35:26Z</time>
      </trkpt>
      <trkpt lat="40.371601" lon="-7.710534">
        <ele>752.019</ele>
        <time>2019-05-29T17:35:46Z</time>
      </trkpt>
      <trkpt lat="40.371224" lon="-7.710856">
        <ele>737.070</ele>
        <time>2019-05-29T17:36:06Z</time>
      </trkpt>
      <trkpt lat="40.370968" lon="-7.710889">
        <ele>745.081</ele>
        <time>2019-05-29T17:36:26Z</time>
      </trkpt>
      <trkpt lat="40.370762" lon="-7.710863">
        <ele>758.061</ele>
        <time>2019-05-29T17:36:46Z</time>
      </trkpt>
      <trkpt lat="40.370317" lon="-7.711542">
        <ele>762.017</ele>
        <time>2019-05-29T17:37:06Z</time>
      </trkpt>
      <trkpt lat="40.370269" lon="-7.711731">
        <ele>761.008</ele>
        <time>2019-05-29T17:37:26Z</time>
      </trkpt>
      <trkpt lat="40.370295" lon="-7.711887">
        <ele>756.021</ele>
        <time>2019-05-29T17:37:46Z</time>
      </trkpt>
      <trkpt lat="40.370109" lon="-7.712276">
        <ele>755.064</ele>
        <time>2019-05-29T17:38:06Z</time>
      </trkpt>
      <trkpt lat="40.369991" lon="-7.712384">
        <ele>759.037</ele>
        <time>2019-05-29T17:38:26Z</time>
      </trkpt>
      <trkpt lat="40.369848" lon="-7.712383">
        <ele>765.035</ele>
        <time>2019-05-29T17:38:46Z</time>
      </trkpt>
      <trkpt lat="40.369469" lon="-7.712867">
        <ele>765.072</ele>
        <time>2019-05-29T17:39:06Z</time>
      </trkpt>
      <trkpt lat="40.368915" lon="-7.713544">
        <ele>777.053</ele>
        <time>2019-05-29T17:39:26Z</time>
      </trkpt>
      <trkpt lat="40.368718" lon="-7.714021">
        <ele>775.040</ele>
        <time>2019-05-29T17:39:46Z</time>
      </trkpt>
      <trkpt lat="40.368453" lon="-7.714234">
        <ele>782.051</ele>
        <time>2019-05-29T17:40:06Z</time>
      </trkpt>
      <trkpt lat="40.368073" lon="-7.714906">
        <ele>782.054</ele>
        <time>2019-05-29T17:40:26Z</time>
      </trkpt>
      <trkpt lat="40.367562" lon="-7.715372">
        <ele>797.056</ele>
        <time>2019-05-29T17:40:46Z</time>
      </trkpt>
      <trkpt lat="40.367450" lon="-7.715652">
        <ele>792.011</ele>
        <time>2019-05-29T17:41:06Z</time>
      </trkpt>
      <trkpt lat="40.367371" lon="-7.715718">
        <ele>793.008</ele>
        <time>2019-05-29T17:41:26Z</time>
      </trkpt>
      <trkpt lat="40.367337" lon="-7.715796">
        <ele>792.058</ele>
        <time>2019-05-29T17:41:46Z</time>
      </trkpt>
      <trkpt lat="40.366914" lon="-7.716088">
        <ele>793.041</ele>
        <time>2019-05-29T17:42:06Z</time>
      </trkpt>
      <trkpt lat="40.366672" lon="-7.716181">
        <ele>791.044</ele>
        <time>2019-05-29T17:42:26Z</time>
      </trkpt>
      <trkpt lat="40.366475" lon="-7.716500">
        <ele>783.042</ele>
        <time>2019-05-29T17:42:46Z</time>
      </trkpt>
      <trkpt lat="40.366291" lon="-7.716556">
        <ele>783.099</ele>
        <time>2019-05-29T17:43:06Z</time>
      </trkpt>
      <trkpt lat="40.365914" lon="-7.717083">
        <ele>778.060</ele>
        <time>2019-05-29T17:43:26Z</time>
      </trkpt>
      <trkpt lat="40.365668" lon="-7.717232">
        <ele>779.047</ele>
        <time>2019-05-29T17:43:46Z</time>
      </trkpt>
      <trkpt lat="40.365565" lon="-7.717243">
        <ele>780.068</ele>
        <time>2019-05-29T17:44:06Z</time>
      </trkpt>
      <trkpt lat="40.365450" lon="-7.717227">
        <ele>782.032</ele>
        <time>2019-05-29T17:44:26Z</time>
      </trkpt>
      <trkpt lat="40.365302" lon="-7.717236">
        <ele>785.092</ele>
        <time>2019-05-29T17:44:46Z</time>
      </trkpt>
      <trkpt lat="40.365232" lon="-7.717258">
        <ele>786.011</ele>
        <time>2019-05-29T17:45:06Z</time>
      </trkpt>
      <trkpt lat="40.365082" lon="-7.717542">
        <ele>786.008</ele>
        <time>2019-05-29T17:45:26Z</time>
      </trkpt>
      <trkpt lat="40.365028" lon="-7.717707">
        <ele>785.036</ele>
        <time>2019-05-29T17:45:46Z</time>
      </trkpt>
      <trkpt lat="40.365026" lon="-7.717869">
        <ele>784.099</ele>
        <time>2019-05-29T17:46:06Z</time>
      </trkpt>
      <trkpt lat="40.365057" lon="-7.718069">
        <ele>783.012</ele>
        <time>2019-05-29T17:46:26Z</time>
      </trkpt>
      <trkpt lat="40.365168" lon="-7.718144">
        <ele>782.060</ele>
        <time>2019-05-29T17:46:46Z</time>
      </trkpt>
      <trkpt lat="40.365543" lon="-7.718299">
        <ele>777.027</ele>
        <time>2019-05-29T17:47:06Z</time>
      </trkpt>
      <trkpt lat="40.366059" lon="-7.718697">
        <ele>778.028</ele>
        <time>2019-05-29T17:47:26Z</time>
      </trkpt>
      <trkpt lat="40.365596" lon="-7.718727">
        <ele>784.055</ele>
        <time>2019-05-29T17:47:46Z</time>
      </trkpt>
      <trkpt lat="40.365247" lon="-7.718721">
        <ele>789.046</ele>
        <time>2019-05-29T17:48:06Z</time>
      </trkpt>
      <trkpt lat="40.364856" lon="-7.718747">
        <ele>797.089</ele>
        <time>2019-05-29T17:48:26Z</time>
      </trkpt>
      <trkpt lat="40.364484" lon="-7.718838">
        <ele>802.006</ele>
        <time>2019-05-29T17:48:46Z</time>
      </trkpt>
      <trkpt lat="40.364224" lon="-7.718978">
        <ele>807.026</ele>
        <time>2019-05-29T17:49:06Z</time>
      </trkpt>
      <trkpt lat="40.363968" lon="-7.718601">
        <ele>800.008</ele>
        <time>2019-05-29T17:49:26Z</time>
      </trkpt>
      <trkpt lat="40.363829" lon="-7.718434">
        <ele>801.091</ele>
        <time>2019-05-29T17:49:46Z</time>
      </trkpt>
      <trkpt lat="40.363163" lon="-7.718564">
        <ele>800.044</ele>
        <time>2019-05-29T17:50:06Z</time>
      </trkpt>
      <trkpt lat="40.362684" lon="-7.718659">
        <ele>801.037</ele>
        <time>2019-05-29T17:50:26Z</time>
      </trkpt>
      <trkpt lat="40.362411" lon="-7.718803">
        <ele>800.045</ele>
        <time>2019-05-29T17:50:46Z</time>
      </trkpt>
      <trkpt lat="40.362127" lon="-7.718876">
        <ele>800.072</ele>
        <time>2019-05-29T17:51:06Z</time>
      </trkpt>
      <trkpt lat="40.361746" lon="-7.719056">
        <ele>792.043</ele>
        <time>2019-05-29T17:51:26Z</time>
      </trkpt>
      <trkpt lat="40.361558" lon="-7.719049">
        <ele>790.040</ele>
        <time>2019-05-29T17:51:46Z</time>
      </trkpt>
      <trkpt lat="40.361420" lon="-7.719064">
        <ele>789.021</ele>
        <time>2019-05-29T17:52:06Z</time>
      </trkpt>
      <trkpt lat="40.361345" lon="-7.719062">
        <ele>788.018</ele>
        <time>2019-05-29T17:52:26Z</time>
      </trkpt>
      <trkpt lat="40.360941" lon="-7.718757">
        <ele>782.098</ele>
        <time>2019-05-29T17:52:46Z</time>
      </trkpt>
      <trkpt lat="40.360799" lon="-7.718365">
        <ele>784.017</ele>
        <time>2019-05-29T17:53:06Z</time>
      </trkpt>
      <trkpt lat="40.360670" lon="-7.718250">
        <ele>780.008</ele>
        <time>2019-05-29T17:53:26Z</time>
      </trkpt>
      <trkpt lat="40.360519" lon="-7.718019">
        <ele>775.024</ele>
        <time>2019-05-29T17:53:46Z</time>
      </trkpt>
      <trkpt lat="40.360322" lon="-7.717796">
        <ele>771.047</ele>
        <time>2019-05-29T17:54:06Z</time>
      </trkpt>
      <trkpt lat="40.360014" lon="-7.717180">
        <ele>762.020</ele>
        <time>2019-05-29T17:54:26Z</time>
      </trkpt>
      <trkpt lat="40.359831" lon="-7.716967">
        <ele>755.018</ele>
        <time>2019-05-29T17:54:46Z</time>
      </trkpt>
      <trkpt lat="40.359536" lon="-7.716869">
        <ele>746.045</ele>
        <time>2019-05-29T17:55:06Z</time>
      </trkpt>
      <trkpt lat="40.359537" lon="-7.716474">
        <ele>744.036</ele>
        <time>2019-05-29T17:55:26Z</time>
      </trkpt>
      <trkpt lat="40.359504" lon="-7.716287">
        <ele>744.093</ele>
        <time>2019-05-29T17:55:46Z</time>
      </trkpt>
      <trkpt lat="40.359270" lon="-7.716164">
        <ele>740.054</ele>
        <time>2019-05-29T17:56:06Z</time>
      </trkpt>
      <trkpt lat="40.359047" lon="-7.716419">
        <ele>733.024</ele>
        <time>2019-05-29T17:56:26Z</time>
      </trkpt>
      <trkpt lat="40.358923" lon="-7.716467">
        <ele>730.004</ele>
        <time>2019-05-29T17:56:46Z</time>
      </trkpt>
      <trkpt lat="40.358765" lon="-7.716697">
        <ele>727.014</ele>
        <time>2019-05-29T17:57:06Z</time>
      </trkpt>
      <trkpt lat="40.358547" lon="-7.716988">
        <ele>725.008</ele>
        <time>2019-05-29T17:57:26Z</time>
      </trkpt>
      <trkpt lat="40.358426" lon="-7.716778">
        <ele>722.075</ele>
        <time>2019-05-29T17:57:46Z</time>
      </trkpt>
      <trkpt lat="40.358331" lon="-7.716701">
        <ele>721.058</ele>
        <time>2019-05-29T17:58:06Z</time>
      </trkpt>
      <trkpt lat="40.358249" lon="-7.716642">
        <ele>719.081</ele>
        <time>2019-05-29T17:58:26Z</time>
      </trkpt>
      <trkpt lat="40.357900" lon="-7.716487">
        <ele>713.099</ele>
        <time>2019-05-29T17:58:46Z</time>
      </trkpt>
      <trkpt lat="40.357847" lon="-7.715782">
        <ele>718.066</ele>
        <time>2019-05-29T17:59:06Z</time>
      </trkpt>
      <trkpt lat="40.357828" lon="-7.716241">
        <ele>713.067</ele>
        <time>2019-05-29T17:59:26Z</time>
      </trkpt>
      <trkpt lat="40.357805" lon="-7.716670">
        <ele>711.084</ele>
        <time>2019-05-29T17:59:46Z</time>
      </trkpt>
      <trkpt lat="40.357631" lon="-7.717387">
        <ele>707.045</ele>
        <time>2019-05-29T18:00:06Z</time>
      </trkpt>
      <trkpt lat="40.357799" lon="-7.717756">
        <ele>705.068</ele>
        <time>2019-05-29T18:00:26Z</time>
      </trkpt>
      <trkpt lat="40.358004" lon="-7.718033">
        <ele>704.042</ele>
        <time>2019-05-29T18:00:46Z</time>
      </trkpt>
      <trkpt lat="40.358129" lon="-7.718319">
        <ele>702.026</ele>
        <time>2019-05-29T18:01:06Z</time>
      </trkpt>
      <trkpt lat="40.358428" lon="-7.718968">
        <ele>698.008</ele>
        <time>2019-05-29T18:01:26Z</time>
      </trkpt>
      <trkpt lat="40.358691" lon="-7.719364">
        <ele>700.059</ele>
        <time>2019-05-29T18:01:46Z</time>
      </trkpt>
      <trkpt lat="40.358482" lon="-7.719385">
        <ele>694.062</ele>
        <time>2019-05-29T18:02:06Z</time>
      </trkpt>
      <trkpt lat="40.358157" lon="-7.719373">
        <ele>688.085</ele>
        <time>2019-05-29T18:02:26Z</time>
      </trkpt>
      <trkpt lat="40.357775" lon="-7.719500">
        <ele>678.073</ele>
        <time>2019-05-29T18:02:46Z</time>
      </trkpt>
      <trkpt lat="40.357534" lon="-7.719549">
        <ele>681.030</ele>
        <time>2019-05-29T18:03:06Z</time>
      </trkpt>
      <trkpt lat="40.357222" lon="-7.719379">
        <ele>688.041</ele>
        <time>2019-05-29T18:03:26Z</time>
      </trkpt>
      <trkpt lat="40.357039" lon="-7.719376">
        <ele>690.088</ele>
        <time>2019-05-29T18:03:46Z</time>
      </trkpt>
      <trkpt lat="40.356639" lon="-7.719490">
        <ele>696.019</ele>
        <time>2019-05-29T18:04:06Z</time>
      </trkpt>
      <trkpt lat="40.356611" lon="-7.719616">
        <ele>696.052</ele>
        <time>2019-05-29T18:04:26Z</time>
      </trkpt>
      <trkpt lat="40.356670" lon="-7.719765">
        <ele>695.053</ele>
        <time>2019-05-29T18:04:46Z</time>
      </trkpt>
      <trkpt lat="40.356795" lon="-7.720910">
        <ele>707.008</ele>
        <time>2019-05-29T18:05:06Z</time>
      </trkpt>
      <trkpt lat="40.357190" lon="-7.721758">
        <ele>703.008</ele>
        <time>2019-05-29T18:05:26Z</time>
      </trkpt>
      <trkpt lat="40.357195" lon="-7.722139">
        <ele>707.048</ele>
        <time>2019-05-29T18:05:46Z</time>
      </trkpt>
      <trkpt lat="40.357532" lon="-7.722616">
        <ele>707.061</ele>
        <time>2019-05-29T18:06:06Z</time>
      </trkpt>
      <trkpt lat="40.357611" lon="-7.722892">
        <ele>711.084</ele>
        <time>2019-05-29T18:06:26Z</time>
      </trkpt>
      <trkpt lat="40.357606" lon="-7.723452">
        <ele>720.042</ele>
        <time>2019-05-29T18:06:46Z</time>
      </trkpt>
      <trkpt lat="40.357696" lon="-7.723880">
        <ele>720.069</ele>
        <time>2019-05-29T18:07:06Z</time>
      </trkpt>
      <trkpt lat="40.357767" lon="-7.724075">
        <ele>719.060</ele>
        <time>2019-05-29T18:07:26Z</time>
      </trkpt>
      <trkpt lat="40.357848" lon="-7.724268">
        <ele>717.087</ele>
        <time>2019-05-29T18:07:46Z</time>
      </trkpt>
      <trkpt lat="40.357901" lon="-7.724504">
        <ele>717.088</ele>
        <time>2019-05-29T18:08:06Z</time>
      </trkpt>
      <trkpt lat="40.357828" lon="-7.724917">
        <ele>726.011</ele>
        <time>2019-05-29T18:08:26Z</time>
      </trkpt>
      <trkpt lat="40.358119" lon="-7.725708">
        <ele>722.021</ele>
        <time>2019-05-29T18:08:46Z</time>
      </trkpt>
      <trkpt lat="40.358164" lon="-7.725912">
        <ele>722.003</ele>
        <time>2019-05-29T18:09:06Z</time>
      </trkpt>
      <trkpt lat="40.358636" lon="-7.727254">
        <ele>725.008</ele>
        <time>2019-05-29T18:09:26Z</time>
      </trkpt>
      <trkpt lat="40.359126" lon="-7.727895">
        <ele>717.084</ele>
        <time>2019-05-29T18:09:46Z</time>
      </trkpt>
      <trkpt lat="40.359372" lon="-7.728530">
        <ele>717.077</ele>
        <time>2019-05-29T18:10:06Z</time>
      </trkpt>
      <trkpt lat="40.359672" lon="-7.729651">
        <ele>718.050</ele>
        <time>2019-05-29T18:10:26Z</time>
      </trkpt>
      <trkpt lat="40.360082" lon="-7.730799">
        <ele>720.058</ele>
        <time>2019-05-29T18:10:46Z</time>
      </trkpt>
      <trkpt lat="40.360284" lon="-7.731422">
        <ele>723.045</ele>
        <time>2019-05-29T18:11:06Z</time>
      </trkpt>
      <trkpt lat="40.360569" lon="-7.731904">
        <ele>724.066</ele>
        <time>2019-05-29T18:11:26Z</time>
      </trkpt>
      <trkpt lat="40.360856" lon="-7.732655">
        <ele>725.033</ele>
        <time>2019-05-29T18:11:46Z</time>
      </trkpt>
      <trkpt lat="40.360871" lon="-7.733279">
        <ele>725.024</ele>
        <time>2019-05-29T18:12:06Z</time>
      </trkpt>
      <trkpt lat="40.360871" lon="-7.733317">
        <ele>725.015</ele>
        <time>2019-05-29T18:12:26Z</time>
      </trkpt>
      <trkpt lat="40.360598" lon="-7.733713">
        <ele>733.065</ele>
        <time>2019-05-29T18:12:46Z</time>
      </trkpt>
      <trkpt lat="40.360583" lon="-7.733750">
        <ele>733.011</ele>
        <time>2019-05-29T18:13:06Z</time>
      </trkpt>
      <trkpt lat="40.360252" lon="-7.734232">
        <ele>736.008</ele>
        <time>2019-05-29T18:13:26Z</time>
      </trkpt>
      <trkpt lat="40.359940" lon="-7.734244">
        <ele>741.014</ele>
        <time>2019-05-29T18:13:46Z</time>
      </trkpt>
      <trkpt lat="40.359999" lon="-7.733707">
        <ele>745.087</ele>
        <time>2019-05-29T18:14:06Z</time>
      </trkpt>
      <trkpt lat="40.360044" lon="-7.733131">
        <ele>750.060</ele>
        <time>2019-05-29T18:14:26Z</time>
      </trkpt>
      <trkpt lat="40.359749" lon="-7.732517">
        <ele>760.018</ele>
        <time>2019-05-29T18:14:46Z</time>
      </trkpt>
      <trkpt lat="40.359265" lon="-7.732342">
        <ele>767.065</ele>
        <time>2019-05-29T18:15:06Z</time>
      </trkpt>
      <trkpt lat="40.357532" lon="-7.731261">
        <ele>787.066</ele>
        <time>2019-05-29T18:15:26Z</time>
      </trkpt>
      <trkpt lat="40.357293" lon="-7.731047">
        <ele>792.013</ele>
        <time>2019-05-29T18:15:46Z</time>
      </trkpt>
      <trkpt lat="40.357735" lon="-7.730980">
        <ele>795.014</ele>
        <time>2019-05-29T18:16:06Z</time>
      </trkpt>
      <trkpt lat="40.358074" lon="-7.730733">
        <ele>795.098</ele>
        <time>2019-05-29T18:16:26Z</time>
      </trkpt>
      <trkpt lat="40.358165" lon="-7.730366">
        <ele>795.015</ele>
        <time>2019-05-29T18:16:46Z</time>
      </trkpt>
      <trkpt lat="40.357995" lon="-7.729716">
        <ele>796.026</ele>
        <time>2019-05-29T18:17:06Z</time>
      </trkpt>
      <trkpt lat="40.357747" lon="-7.730028">
        <ele>801.008</ele>
        <time>2019-05-29T18:17:26Z</time>
      </trkpt>
      <trkpt lat="40.357490" lon="-7.730118">
        <ele>806.052</ele>
        <time>2019-05-29T18:17:46Z</time>
      </trkpt>
      <trkpt lat="40.357116" lon="-7.730121">
        <ele>810.065</ele>
        <time>2019-05-29T18:18:06Z</time>
      </trkpt>
      <trkpt lat="40.357142" lon="-7.729011">
        <ele>818.098</ele>
        <time>2019-05-29T18:18:26Z</time>
      </trkpt>
      <trkpt lat="40.354936" lon="-7.725649">
        <ele>861.056</ele>
        <time>2019-05-29T18:18:46Z</time>
      </trkpt>
      <trkpt lat="40.353697" lon="-7.724803">
        <ele>874.073</ele>
        <time>2019-05-29T18:19:06Z</time>
      </trkpt>
      <trkpt lat="40.353026" lon="-7.723547">
        <ele>880.064</ele>
        <time>2019-05-29T18:19:26Z</time>
      </trkpt>
      <trkpt lat="40.350663" lon="-7.721110">
        <ele>905.061</ele>
        <time>2019-05-29T18:19:46Z</time>
      </trkpt>
      <trkpt lat="40.349409" lon="-7.719037">
        <ele>922.062</ele>
        <time>2019-05-29T18:20:06Z</time>
      </trkpt>
      <trkpt lat="40.348112" lon="-7.717756">
        <ele>938.016</ele>
        <time>2019-05-29T18:20:26Z</time>
      </trkpt>
      <trkpt lat="40.346907" lon="-7.716872">
        <ele>954.076</ele>
        <time>2019-05-29T18:20:46Z</time>
      </trkpt>
      <trkpt lat="40.346455" lon="-7.715327">
        <ele>981.013</ele>
        <time>2019-05-29T18:21:06Z</time>
      </trkpt>
      <trkpt lat="40.344067" lon="-7.714205">
        <ele>982.008</ele>
        <time>2019-05-29T18:21:26Z</time>
      </trkpt>
      <trkpt lat="40.343013" lon="-7.713729">
        <ele>984.044</ele>
        <time>2019-05-29T18:21:46Z</time>
      </trkpt>
      <trkpt lat="40.342134" lon="-7.713912">
        <ele>986.097</ele>
        <time>2019-05-29T18:22:06Z</time>
      </trkpt>
      <trkpt lat="40.341319" lon="-7.714330">
        <ele>985.030</ele>
        <time>2019-05-29T18:22:26Z</time>
      </trkpt>
      <trkpt lat="40.340937" lon="-7.714141">
        <ele>983.038</ele>
        <time>2019-05-29T18:22:46Z</time>
      </trkpt>
      <trkpt lat="40.339873" lon="-7.716004">
        <ele>970.085</ele>
        <time>2019-05-29T18:23:06Z</time>
      </trkpt>
      <trkpt lat="40.339843" lon="-7.716683">
        <ele>972.076</ele>
        <time>2019-05-29T18:23:26Z</time>
      </trkpt>
      <trkpt lat="40.340067" lon="-7.717357">
        <ele>965.043</ele>
        <time>2019-05-29T18:23:46Z</time>
      </trkpt>
      <trkpt lat="40.339880" lon="-7.718039">
        <ele>960.094</ele>
        <time>2019-05-29T18:24:06Z</time>
      </trkpt>
      <trkpt lat="40.339736" lon="-7.718063">
        <ele>964.025</ele>
        <time>2019-05-29T18:24:26Z</time>
      </trkpt>
      <trkpt lat="40.339610" lon="-7.717924">
        <ele>969.026</ele>
        <time>2019-05-29T18:24:46Z</time>
      </trkpt>
      <trkpt lat="40.339753" lon="-7.716961">
        <ele>973.008</ele>
        <time>2019-05-29T18:25:06Z</time>
      </trkpt>
      <trkpt lat="40.339579" lon="-7.716686">
        <ele>977.008</ele>
        <time>2019-05-29T18:25:26Z</time>
      </trkpt>
      <trkpt lat="40.339092" lon="-7.716481">
        <ele>977.035</ele>
        <time>2019-05-29T18:25:46Z</time>
      </trkpt>
      <trkpt lat="40.338225" lon="-7.716926">
        <ele>975.028</ele>
        <time>2019-05-29T18:26:06Z</time>
      </trkpt>
      <trkpt lat="40.337179" lon="-7.718210">
        <ele>979.011</ele>
        <time>2019-05-29T18:26:26Z</time>
      </trkpt>
      <trkpt lat="40.336647" lon="-7.718169">
        <ele>970.019</ele>
        <time>2019-05-29T18:26:46Z</time>
      </trkpt>
      <trkpt lat="40.335751" lon="-7.718623">
        <ele>972.016</ele>
        <time>2019-05-29T18:27:06Z</time>
      </trkpt>
      <trkpt lat="40.335582" lon="-7.719228">
        <ele>986.017</ele>
        <time>2019-05-29T18:27:26Z</time>
      </trkpt>
      <trkpt lat="40.334455" lon="-7.718991">
        <ele>977.094</ele>
        <time>2019-05-29T18:27:46Z</time>
      </trkpt>
      <trkpt lat="40.333418" lon="-7.719791">
        <ele>982.015</ele>
        <time>2019-05-29T18:28:06Z</time>
      </trkpt>
      <trkpt lat="40.332932" lon="-7.719910">
        <ele>981.058</ele>
        <time>2019-05-29T18:28:26Z</time>
      </trkpt>
      <trkpt lat="40.332536" lon="-7.719811">
        <ele>975.052</ele>
        <time>2019-05-29T18:28:46Z</time>
      </trkpt>
      <trkpt lat="40.332048" lon="-7.719999">
        <ele>974.017</ele>
        <time>2019-05-29T18:29:06Z</time>
      </trkpt>
      <trkpt lat="40.331854" lon="-7.720552">
        <ele>974.008</ele>
        <time>2019-05-29T18:29:26Z</time>
      </trkpt>
      <trkpt lat="40.331936" lon="-7.721491">
        <ele>980.048</ele>
        <time>2019-05-29T18:29:46Z</time>
      </trkpt>
      <trkpt lat="40.331293" lon="-7.721516">
        <ele>971.031</ele>
        <time>2019-05-29T18:30:06Z</time>
      </trkpt>
      <trkpt lat="40.330714" lon="-7.722057">
        <ele>967.094</ele>
        <time>2019-05-29T18:30:26Z</time>
      </trkpt>
      <trkpt lat="40.330224" lon="-7.723278">
        <ele>967.062</ele>
        <time>2019-05-29T18:30:46Z</time>
      </trkpt>
      <trkpt lat="40.330144" lon="-7.724062">
        <ele>966.099</ele>
        <time>2019-05-29T18:31:06Z</time>
      </trkpt>
      <trkpt lat="40.330067" lon="-7.724647">
        <ele>962.020</ele>
        <time>2019-05-29T18:31:26Z</time>
      </trkpt>
      <trkpt lat="40.330236" lon="-7.725271">
        <ele>960.057</ele>
        <time>2019-05-29T18:31:46Z</time>
      </trkpt>
      <trkpt lat="40.331213" lon="-7.726997">
        <ele>955.048</ele>
        <time>2019-05-29T18:32:06Z</time>
      </trkpt>
      <trkpt lat="40.331750" lon="-7.727075">
        <ele>956.076</ele>
        <time>2019-05-29T18:32:26Z</time>
      </trkpt>
      <trkpt lat="40.332146" lon="-7.726836">
        <ele>954.090</ele>
        <time>2019-05-29T18:32:46Z</time>
      </trkpt>
      <trkpt lat="40.334143" lon="-7.727612">
        <ele>941.019</ele>
        <time>2019-05-29T18:33:06Z</time>
      </trkpt>
      <trkpt lat="40.334416" lon="-7.728069">
        <ele>941.008</ele>
        <time>2019-05-29T18:33:26Z</time>
      </trkpt>
      <trkpt lat="40.334923" lon="-7.728093">
        <ele>944.030</ele>
        <time>2019-05-29T18:33:46Z</time>
      </trkpt>
      <trkpt lat="40.335630" lon="-7.727951">
        <ele>956.073</ele>
        <time>2019-05-29T18:34:06Z</time>
      </trkpt>
      <trkpt lat="40.335842" lon="-7.728002">
        <ele>959.046</ele>
        <time>2019-05-29T18:34:26Z</time>
      </trkpt>
      <trkpt lat="40.336196" lon="-7.728952">
        <ele>960.064</ele>
        <time>2019-05-29T18:34:46Z</time>
      </trkpt>
      <trkpt lat="40.336261" lon="-7.729558">
        <ele>965.071</ele>
        <time>2019-05-29T18:35:06Z</time>
      </trkpt>
      <trkpt lat="40.336690" lon="-7.730276">
        <ele>979.062</ele>
        <time>2019-05-29T18:35:26Z</time>
      </trkpt>
      <trkpt lat="40.336926" lon="-7.730257">
        <ele>980.079</ele>
        <time>2019-05-29T18:35:46Z</time>
      </trkpt>
      <trkpt lat="40.337133" lon="-7.730373">
        <ele>975.040</ele>
        <time>2019-05-29T18:36:06Z</time>
      </trkpt>
      <trkpt lat="40.336897" lon="-7.731246">
        <ele>975.037</ele>
        <time>2019-05-29T18:36:26Z</time>
      </trkpt>
      <trkpt lat="40.336690" lon="-7.732953">
        <ele>976.049</ele>
        <time>2019-05-29T18:36:46Z</time>
      </trkpt>
      <trkpt lat="40.335566" lon="-7.735010">
        <ele>979.013</ele>
        <time>2019-05-29T18:37:06Z</time>
      </trkpt>
      <trkpt lat="40.334651" lon="-7.735889">
        <ele>981.008</ele>
        <time>2019-05-29T18:37:26Z</time>
      </trkpt>
      <trkpt lat="40.334126" lon="-7.736317">
        <ele>979.056</ele>
        <time>2019-05-29T18:37:46Z</time>
      </trkpt>
      <trkpt lat="40.333298" lon="-7.737066">
        <ele>976.099</ele>
        <time>2019-05-29T18:38:06Z</time>
      </trkpt>
      <trkpt lat="40.333253" lon="-7.738929">
        <ele>969.012</ele>
        <time>2019-05-29T18:38:26Z</time>
      </trkpt>
      <trkpt lat="40.333244" lon="-7.739511">
        <ele>968.090</ele>
        <time>2019-05-29T18:38:46Z</time>
      </trkpt>
      <trkpt lat="40.333334" lon="-7.740240">
        <ele>966.097</ele>
        <time>2019-05-29T18:39:06Z</time>
      </trkpt>
      <trkpt lat="40.333186" lon="-7.742762">
        <ele>964.048</ele>
        <time>2019-05-29T18:39:26Z</time>
      </trkpt>
      <trkpt lat="40.333472" lon="-7.743911">
        <ele>959.025</ele>
        <time>2019-05-29T18:39:46Z</time>
      </trkpt>
      <trkpt lat="40.333058" lon="-7.745948">
        <ele>944.066</ele>
        <time>2019-05-29T18:40:06Z</time>
      </trkpt>
      <trkpt lat="40.332522" lon="-7.746558">
        <ele>948.069</ele>
        <time>2019-05-29T18:40:26Z</time>
      </trkpt>
      <trkpt lat="40.332060" lon="-7.748510">
        <ele>936.004</ele>
        <time>2019-05-29T18:40:46Z</time>
      </trkpt>
      <trkpt lat="40.331426" lon="-7.749603">
        <ele>928.024</ele>
        <time>2019-05-29T18:41:06Z</time>
      </trkpt>
      <trkpt lat="40.331425" lon="-7.750395">
        <ele>919.008</ele>
        <time>2019-05-29T18:41:26Z</time>
      </trkpt>
      <trkpt lat="40.331057" lon="-7.751496">
        <ele>916.029</ele>
        <time>2019-05-29T18:41:46Z</time>
      </trkpt>
      <trkpt lat="40.331012" lon="-7.755280">
        <ele>895.022</ele>
        <time>2019-05-29T18:42:06Z</time>
      </trkpt>
      <trkpt lat="40.330818" lon="-7.755769">
        <ele>890.015</ele>
        <time>2019-05-29T18:42:26Z</time>
      </trkpt>
      <trkpt lat="40.330818" lon="-7.757535">
        <ele>879.093</ele>
        <time>2019-05-29T18:42:46Z</time>
      </trkpt>
      <trkpt lat="40.330256" lon="-7.758563">
        <ele>869.090</ele>
        <time>2019-05-29T18:43:06Z</time>
      </trkpt>
      <trkpt lat="40.330242" lon="-7.758815">
        <ele>874.061</ele>
        <time>2019-05-29T18:43:26Z</time>
      </trkpt>
      <trkpt lat="40.329413" lon="-7.759436">
        <ele>861.048</ele>
        <time>2019-05-29T18:43:46Z</time>
      </trkpt>
      <trkpt lat="40.329088" lon="-7.760057">
        <ele>854.049</ele>
        <time>2019-05-29T18:44:06Z</time>
      </trkpt>
      <trkpt lat="40.328792" lon="-7.760173">
        <ele>845.083</ele>
        <time>2019-05-29T18:44:26Z</time>
      </trkpt>
      <trkpt lat="40.328482" lon="-7.760134">
        <ele>835.025</ele>
        <time>2019-05-29T18:44:46Z</time>
      </trkpt>
      <trkpt lat="40.327535" lon="-7.760484">
        <ele>819.017</ele>
        <time>2019-05-29T18:45:06Z</time>
      </trkpt>
      <trkpt lat="40.327313" lon="-7.760619">
        <ele>814.008</ele>
        <time>2019-05-29T18:45:26Z</time>
      </trkpt>
      <trkpt lat="40.326278" lon="-7.761007">
        <ele>790.061</ele>
        <time>2019-05-29T18:45:46Z</time>
      </trkpt>
      <trkpt lat="40.325435" lon="-7.761803">
        <ele>776.044</ele>
        <time>2019-05-29T18:46:06Z</time>
      </trkpt>
      <trkpt lat="40.325154" lon="-7.761745">
        <ele>777.077</ele>
        <time>2019-05-29T18:46:26Z</time>
      </trkpt>
      <trkpt lat="40.324841" lon="-7.761872">
        <ele>775.055</ele>
        <time>2019-05-29T18:46:46Z</time>
      </trkpt>
      <trkpt lat="40.323066" lon="-7.764433">
        <ele>760.092</ele>
        <time>2019-05-29T18:47:06Z</time>
      </trkpt>
      <trkpt lat="40.320228" lon="-7.766634">
        <ele>744.073</ele>
        <time>2019-05-29T18:47:26Z</time>
      </trkpt>
      <trkpt lat="40.318719" lon="-7.766750">
        <ele>746.070</ele>
        <time>2019-05-29T18:47:46Z</time>
      </trkpt>
      <trkpt lat="40.317847" lon="-7.767177">
        <ele>728.071</ele>
        <time>2019-05-29T18:48:06Z</time>
      </trkpt>
      <trkpt lat="40.317669" lon="-7.767157">
        <ele>725.044</ele>
        <time>2019-05-29T18:48:26Z</time>
      </trkpt>
      <trkpt lat="40.316959" lon="-7.766769">
        <ele>721.005</ele>
        <time>2019-05-29T18:48:46Z</time>
      </trkpt>
      <trkpt lat="40.316826" lon="-7.766731">
        <ele>721.015</ele>
        <time>2019-05-29T18:49:06Z</time>
      </trkpt>
      <trkpt lat="40.316634" lon="-7.766769">
        <ele>720.008</ele>
        <time>2019-05-29T18:49:26Z</time>
      </trkpt>
      <trkpt lat="40.316486" lon="-7.767545">
        <ele>704.047</ele>
        <time>2019-05-29T18:49:46Z</time>
      </trkpt>
      <trkpt lat="40.316234" lon="-7.767798">
        <ele>701.070</ele>
        <time>2019-05-29T18:50:06Z</time>
      </trkpt>
      <trkpt lat="40.316145" lon="-7.768574">
        <ele>688.063</ele>
        <time>2019-05-29T18:50:26Z</time>
      </trkpt>
      <trkpt lat="40.315406" lon="-7.769195">
        <ele>674.051</ele>
        <time>2019-05-29T18:50:46Z</time>
      </trkpt>
      <trkpt lat="40.314740" lon="-7.769311">
        <ele>661.068</ele>
        <time>2019-05-29T18:51:06Z</time>
      </trkpt>
      <trkpt lat="40.314740" lon="-7.769757">
        <ele>653.089</ele>
        <time>2019-05-29T18:51:26Z</time>
      </trkpt>
      <trkpt lat="40.315066" lon="-7.770456">
        <ele>643.026</ele>
        <time>2019-05-29T18:51:46Z</time>
      </trkpt>
      <trkpt lat="40.315435" lon="-7.770630">
        <ele>637.027</ele>
        <time>2019-05-29T18:52:06Z</time>
      </trkpt>
      <trkpt lat="40.315554" lon="-7.770921">
        <ele>631.047</ele>
        <time>2019-05-29T18:52:26Z</time>
      </trkpt>
      <trkpt lat="40.315465" lon="-7.772105">
        <ele>618.029</ele>
        <time>2019-05-29T18:52:46Z</time>
      </trkpt>
      <trkpt lat="40.315894" lon="-7.773987">
        <ele>589.021</ele>
        <time>2019-05-29T18:53:06Z</time>
      </trkpt>
      <trkpt lat="40.315258" lon="-7.773463">
        <ele>593.008</ele>
        <time>2019-05-29T18:53:26Z</time>
      </trkpt>
      <trkpt lat="40.315066" lon="-7.773385">
        <ele>593.047</ele>
        <time>2019-05-29T18:53:46Z</time>
      </trkpt>
      <trkpt lat="40.314178" lon="-7.773657">
        <ele>582.040</ele>
        <time>2019-05-29T18:54:06Z</time>
      </trkpt>
      <trkpt lat="40.313631" lon="-7.773637">
        <ele>576.093</ele>
        <time>2019-05-29T18:54:26Z</time>
      </trkpt>
      <trkpt lat="40.313586" lon="-7.774025">
        <ele>571.011</ele>
        <time>2019-05-29T18:54:46Z</time>
      </trkpt>
      <trkpt lat="40.313335" lon="-7.774258">
        <ele>568.088</ele>
        <time>2019-05-29T18:55:06Z</time>
      </trkpt>
      <trkpt lat="40.313113" lon="-7.774821">
        <ele>562.019</ele>
        <time>2019-05-29T18:55:26Z</time>
      </trkpt>
      <trkpt lat="40.313054" lon="-7.775752">
        <ele>550.066</ele>
        <time>2019-05-29T18:55:46Z</time>
      </trkpt>
      <trkpt lat="40.313024" lon="-7.776315">
        <ele>539.067</ele>
        <time>2019-05-29T18:56:06Z</time>
      </trkpt>
      <trkpt lat="40.312817" lon="-7.776431">
        <ele>537.039</ele>
        <time>2019-05-29T18:56:26Z</time>
      </trkpt>
      <trkpt lat="40.312107" lon="-7.775830">
        <ele>537.001</ele>
        <time>2019-05-29T18:56:46Z</time>
      </trkpt>
      <trkpt lat="40.311959" lon="-7.775830">
        <ele>537.021</ele>
        <time>2019-05-29T18:57:06Z</time>
      </trkpt>
      <trkpt lat="40.311781" lon="-7.776063">
        <ele>530.008</ele>
        <time>2019-05-29T18:57:26Z</time>
      </trkpt>
      <trkpt lat="40.310243" lon="-7.776800">
        <ele>513.056</ele>
        <time>2019-05-29T18:57:46Z</time>
      </trkpt>
      <trkpt lat="40.309444" lon="-7.777227">
        <ele>500.089</ele>
        <time>2019-05-29T18:58:06Z</time>
      </trkpt>
      <trkpt lat="40.309725" lon="-7.777692">
        <ele>491.092</ele>
        <time>2019-05-29T18:58:26Z</time>
      </trkpt>
      <trkpt lat="40.309888" lon="-7.778701">
        <ele>464.080</ele>
        <time>2019-05-29T18:58:46Z</time>
      </trkpt>
      <trkpt lat="40.309902" lon="-7.779361">
        <ele>450.077</ele>
        <time>2019-05-29T18:59:06Z</time>
      </trkpt>
      <trkpt lat="40.309843" lon="-7.779826">
        <ele>443.058</ele>
        <time>2019-05-29T18:59:26Z</time>
      </trkpt>
      <trkpt lat="40.309976" lon="-7.780079">
        <ele>439.015</ele>
        <time>2019-05-29T18:59:46Z</time>
      </trkpt>
      <trkpt lat="40.310124" lon="-7.780156">
        <ele>433.096</ele>
        <time>2019-05-29T19:00:06Z</time>
      </trkpt>
      <trkpt lat="40.310435" lon="-7.780098">
        <ele>419.056</ele>
        <time>2019-05-29T19:00:26Z</time>
      </trkpt>
      <trkpt lat="40.310287" lon="-7.781184">
        <ele>401.059</ele>
        <time>2019-05-29T19:00:46Z</time>
      </trkpt>
      <trkpt lat="40.310095" lon="-7.781631">
        <ele>397.014</ele>
        <time>2019-05-29T19:01:06Z</time>
      </trkpt>
      <trkpt lat="40.309799" lon="-7.782038">
        <ele>386.008</ele>
        <time>2019-05-29T19:01:26Z</time>
      </trkpt>
      <trkpt lat="40.309355" lon="-7.782348">
        <ele>371.058</ele>
        <time>2019-05-29T19:01:46Z</time>
      </trkpt>
      <trkpt lat="40.309148" lon="-7.782213">
        <ele>374.061</ele>
        <time>2019-05-29T19:02:06Z</time>
      </trkpt>
      <trkpt lat="40.308956" lon="-7.781941">
        <ele>375.074</ele>
        <time>2019-05-29T19:02:26Z</time>
      </trkpt>
      <trkpt lat="40.308867" lon="-7.781980">
        <ele>372.072</ele>
        <time>2019-05-29T19:02:46Z</time>
      </trkpt>
      <trkpt lat="40.308675" lon="-7.782562">
        <ele>362.049</ele>
        <time>2019-05-29T19:03:06Z</time>
      </trkpt>
      <trkpt lat="40.308157" lon="-7.782911">
        <ele>347.020</ele>
        <time>2019-05-29T19:03:26Z</time>
      </trkpt>
      <trkpt lat="40.307521" lon="-7.782853">
        <ele>343.047</ele>
        <time>2019-05-29T19:03:46Z</time>
      </trkpt>
      <trkpt lat="40.307387" lon="-7.782678">
        <ele>344.058</ele>
        <time>2019-05-29T19:04:06Z</time>
      </trkpt>
      <trkpt lat="40.306929" lon="-7.782698">
        <ele>334.046</ele>
        <time>2019-05-29T19:04:26Z</time>
      </trkpt>
      <trkpt lat="40.306736" lon="-7.782775">
        <ele>332.088</ele>
        <time>2019-05-29T19:04:46Z</time>
      </trkpt>
      <trkpt lat="40.307018" lon="-7.782833">
        <ele>332.016</ele>
        <time>2019-05-29T19:05:06Z</time>
      </trkpt>
      <trkpt lat="40.307343" lon="-7.782969">
        <ele>337.008</ele>
        <time>2019-05-29T19:05:26Z</time>
      </trkpt>
      <trkpt lat="40.307106" lon="-7.783008">
        <ele>331.047</ele>
        <time>2019-05-29T19:05:46Z</time>
      </trkpt>
      <trkpt lat="40.306485" lon="-7.783125">
        <ele>323.010</ele>
        <time>2019-05-29T19:06:06Z</time>
      </trkpt>
      <trkpt lat="40.306115" lon="-7.782969">
        <ele>327.063</ele>
        <time>2019-05-29T19:06:26Z</time>
      </trkpt>
      <trkpt lat="40.305715" lon="-7.783144">
        <ele>320.011</ele>
        <time>2019-05-29T19:06:46Z</time>
      </trkpt>
      <trkpt lat="40.305153" lon="-7.782756">
        <ele>315.078</ele>
        <time>2019-05-29T19:07:06Z</time>
      </trkpt>
      <trkpt lat="40.304857" lon="-7.782756">
        <ele>309.039</ele>
        <time>2019-05-29T19:07:26Z</time>
      </trkpt>
      <trkpt lat="40.304428" lon="-7.783125">
        <ele>300.096</ele>
        <time>2019-05-29T19:07:46Z</time>
      </trkpt>
      <trkpt lat="40.304192" lon="-7.783222">
        <ele>296.047</ele>
        <time>2019-05-29T19:08:06Z</time>
      </trkpt>
      <trkpt lat="40.303984" lon="-7.783047">
        <ele>292.037</ele>
        <time>2019-05-29T19:08:26Z</time>
      </trkpt>
      <trkpt lat="40.303748" lon="-7.783047">
        <ele>289.049</ele>
        <time>2019-05-29T19:08:46Z</time>
      </trkpt>
      <trkpt lat="40.303422" lon="-7.782601">
        <ele>296.013</ele>
        <time>2019-05-29T19:09:06Z</time>
      </trkpt>
      <trkpt lat="40.303008" lon="-7.782368">
        <ele>298.008</ele>
        <time>2019-05-29T19:09:26Z</time>
      </trkpt>
      <trkpt lat="40.301691" lon="-7.782833">
        <ele>293.016</ele>
        <time>2019-05-29T19:09:46Z</time>
      </trkpt>
      <trkpt lat="40.300759" lon="-7.783571">
        <ele>297.029</ele>
        <time>2019-05-29T19:10:06Z</time>
      </trkpt>
      <trkpt lat="40.300108" lon="-7.784754">
        <ele>308.082</ele>
        <time>2019-05-29T19:10:26Z</time>
      </trkpt>
      <trkpt lat="40.299901" lon="-7.785608">
        <ele>303.080</ele>
        <time>2019-05-29T19:10:46Z</time>
      </trkpt>
      <trkpt lat="40.299619" lon="-7.785744">
        <ele>303.067</ele>
        <time>2019-05-29T19:11:06Z</time>
      </trkpt>
      <trkpt lat="40.298732" lon="-7.785472">
        <ele>301.058</ele>
        <time>2019-05-29T19:11:26Z</time>
      </trkpt>
      <trkpt lat="40.298007" lon="-7.784366">
        <ele>304.055</ele>
        <time>2019-05-29T19:11:46Z</time>
      </trkpt>
      <trkpt lat="40.297548" lon="-7.784114">
        <ele>311.046</ele>
        <time>2019-05-29T19:12:06Z</time>
      </trkpt>
      <trkpt lat="40.295861" lon="-7.784114">
        <ele>297.094</ele>
        <time>2019-05-29T19:12:26Z</time>
      </trkpt>
      <trkpt lat="40.295624" lon="-7.786001">
        <ele>333.056</ele>
        <time>2019-05-29T10:20:40Z</time>
      </trkpt>
      <trkpt lat="40.295115" lon="-7.785768">
        <ele>327.059</ele>
        <time>2019-05-29T10:21:00Z</time>
      </trkpt>
      <trkpt lat="40.294286" lon="-7.786265">
        <ele>332.014</ele>
        <time>2019-05-29T10:21:20Z</time>
      </trkpt>
      <trkpt lat="40.294038" lon="-7.787025">
        <ele>347.008</ele>
        <time>2019-05-29T10:21:40Z</time>
      </trkpt>
      <trkpt lat="40.293884" lon="-7.787150">
        <ele>347.068</ele>
        <time>2019-05-29T10:22:00Z</time>
      </trkpt>
      <trkpt lat="40.293529" lon="-7.786746">
        <ele>333.021</ele>
        <time>2019-05-29T10:22:20Z</time>
      </trkpt>
      <trkpt lat="40.292380" lon="-7.786715">
        <ele>335.064</ele>
        <time>2019-05-29T10:22:40Z</time>
      </trkpt>
      <trkpt lat="40.292416" lon="-7.786808">
        <ele>338.042</ele>
        <time>2019-05-29T10:23:00Z</time>
      </trkpt>
      <trkpt lat="40.292736" lon="-7.786855">
        <ele>339.029</ele>
        <time>2019-05-29T10:23:20Z</time>
      </trkpt>
      <trkpt lat="40.293564" lon="-7.787087">
        <ele>345.070</ele>
        <time>2019-05-29T10:23:40Z</time>
      </trkpt>
      <trkpt lat="40.293860" lon="-7.787476">
        <ele>358.097</ele>
        <time>2019-05-29T10:24:00Z</time>
      </trkpt>
      <trkpt lat="40.294014" lon="-7.788065">
        <ele>371.049</ele>
        <time>2019-05-29T10:24:20Z</time>
      </trkpt>
      <trkpt lat="40.294097" lon="-7.788050">
        <ele>372.028</ele>
        <time>2019-05-29T10:24:40Z</time>
      </trkpt>
      <trkpt lat="40.294275" lon="-7.787801">
        <ele>371.089</ele>
        <time>2019-05-29T10:25:00Z</time>
      </trkpt>
      <trkpt lat="40.294500" lon="-7.787600">
        <ele>374.017</ele>
        <time>2019-05-29T10:25:20Z</time>
      </trkpt>
      <trkpt lat="40.294582" lon="-7.787258">
        <ele>370.008</ele>
        <time>2019-05-29T10:25:40Z</time>
      </trkpt>
      <trkpt lat="40.294748" lon="-7.787087">
        <ele>370.015</ele>
        <time>2019-05-29T10:26:00Z</time>
      </trkpt>
      <trkpt lat="40.295115" lon="-7.787181">
        <ele>378.048</ele>
        <time>2019-05-29T10:26:20Z</time>
      </trkpt>
      <trkpt lat="40.295352" lon="-7.787538">
        <ele>385.091</ele>
        <time>2019-05-29T10:26:40Z</time>
      </trkpt>
      <trkpt lat="40.295364" lon="-7.789152">
        <ele>391.089</ele>
        <time>2019-05-29T10:27:00Z</time>
      </trkpt>
      <trkpt lat="40.295529" lon="-7.789431">
        <ele>394.026</ele>
        <time>2019-05-29T10:27:20Z</time>
      </trkpt>
      <trkpt lat="40.295103" lon="-7.790735">
        <ele>414.087</ele>
        <time>2019-05-29T10:27:40Z</time>
      </trkpt>
      <trkpt lat="40.295198" lon="-7.791107">
        <ele>414.044</ele>
        <time>2019-05-29T10:28:00Z</time>
      </trkpt>
      <trkpt lat="40.294961" lon="-7.792954">
        <ele>444.016</ele>
        <time>2019-05-29T10:28:20Z</time>
      </trkpt>
      <trkpt lat="40.294464" lon="-7.792163">
        <ele>448.085</ele>
        <time>2019-05-29T10:28:40Z</time>
      </trkpt>
      <trkpt lat="40.294002" lon="-7.791697">
        <ele>451.089</ele>
        <time>2019-05-29T10:29:00Z</time>
      </trkpt>
      <trkpt lat="40.293032" lon="-7.791775">
        <ele>462.017</ele>
        <time>2019-05-29T10:29:20Z</time>
      </trkpt>
      <trkpt lat="40.292511" lon="-7.792225">
        <ele>467.008</ele>
        <time>2019-05-29T10:29:40Z</time>
      </trkpt>
      <trkpt lat="40.292321" lon="-7.793172">
        <ele>479.041</ele>
        <time>2019-05-29T10:30:00Z</time>
      </trkpt>
      <trkpt lat="40.292534" lon="-7.793622">
        <ele>490.094</ele>
        <time>2019-05-29T10:30:20Z</time>
      </trkpt>
      <trkpt lat="40.292487" lon="-7.793730">
        <ele>490.047</ele>
        <time>2019-05-29T10:30:40Z</time>
      </trkpt>
      <trkpt lat="40.292085" lon="-7.793730">
        <ele>489.055</ele>
        <time>2019-05-29T10:31:00Z</time>
      </trkpt>
      <trkpt lat="40.291173" lon="-7.794258">
        <ele>498.042</ele>
        <time>2019-05-29T10:31:20Z</time>
      </trkpt>
      <trkpt lat="40.290699" lon="-7.794537">
        <ele>497.013</ele>
        <time>2019-05-29T10:31:40Z</time>
      </trkpt>
      <trkpt lat="40.290688" lon="-7.794879">
        <ele>500.090</ele>
        <time>2019-05-29T10:32:00Z</time>
      </trkpt>
      <trkpt lat="40.290984" lon="-7.795639">
        <ele>515.082</ele>
        <time>2019-05-29T10:32:20Z</time>
      </trkpt>
      <trkpt lat="40.290912" lon="-7.795950">
        <ele>519.066</ele>
        <time>2019-05-29T10:32:40Z</time>
      </trkpt>
      <trkpt lat="40.290001" lon="-7.796012">
        <ele>525.029</ele>
        <time>2019-05-29T10:33:00Z</time>
      </trkpt>
      <trkpt lat="40.289859" lon="-7.796043">
        <ele>525.021</ele>
        <time>2019-05-29T10:33:20Z</time>
      </trkpt>
      <trkpt lat="40.289551" lon="-7.796633">
        <ele>530.008</ele>
        <time>2019-05-29T10:33:40Z</time>
      </trkpt>
      <trkpt lat="40.289515" lon="-7.797176">
        <ele>530.039</ele>
        <time>2019-05-29T10:34:00Z</time>
      </trkpt>
      <trkpt lat="40.289930" lon="-7.796959">
        <ele>541.092</ele>
        <time>2019-05-29T10:34:20Z</time>
      </trkpt>
      <trkpt lat="40.290877" lon="-7.797316">
        <ele>553.035</ele>
        <time>2019-05-29T10:34:40Z</time>
      </trkpt>
      <trkpt lat="40.291279" lon="-7.797502">
        <ele>561.043</ele>
        <time>2019-05-29T10:35:00Z</time>
      </trkpt>
      <trkpt lat="40.291445" lon="-7.797750">
        <ele>567.090</ele>
        <time>2019-05-29T10:35:20Z</time>
      </trkpt>
      <trkpt lat="40.291433" lon="-7.798775">
        <ele>586.041</ele>
        <time>2019-05-29T10:35:40Z</time>
      </trkpt>
      <trkpt lat="40.291244" lon="-7.799163">
        <ele>596.088</ele>
        <time>2019-05-29T10:36:00Z</time>
      </trkpt>
      <trkpt lat="40.290474" lon="-7.802065">
        <ele>652.020</ele>
        <time>2019-05-29T10:36:20Z</time>
      </trkpt>
      <trkpt lat="40.289906" lon="-7.803384">
        <ele>675.049</ele>
        <time>2019-05-29T10:36:40Z</time>
      </trkpt>
      <trkpt lat="40.289030" lon="-7.804999">
        <ele>694.002</ele>
        <time>2019-05-29T10:37:00Z</time>
      </trkpt>
      <trkpt lat="40.289066" lon="-7.806038">
        <ele>707.022</ele>
        <time>2019-05-29T10:37:20Z</time>
      </trkpt>
      <trkpt lat="40.289338" lon="-7.808087">
        <ele>738.008</ele>
        <time>2019-05-29T10:37:40Z</time>
      </trkpt>
      <trkpt lat="40.288628" lon="-7.808211">
        <ele>756.097</ele>
        <time>2019-05-29T10:38:00Z</time>
      </trkpt>
      <trkpt lat="40.287787" lon="-7.808289">
        <ele>772.060</ele>
        <time>2019-05-29T10:38:20Z</time>
      </trkpt>
      <trkpt lat="40.287148" lon="-7.808429">
        <ele>781.043</ele>
        <time>2019-05-29T10:38:40Z</time>
      </trkpt>
      <trkpt lat="40.286591" lon="-7.809282">
        <ele>794.051</ele>
        <time>2019-05-29T10:39:00Z</time>
      </trkpt>
      <trkpt lat="40.286757" lon="-7.810291">
        <ele>800.098</ele>
        <time>2019-05-29T10:39:20Z</time>
      </trkpt>
      <trkpt lat="40.286674" lon="-7.810508">
        <ele>803.049</ele>
        <time>2019-05-29T10:39:40Z</time>
      </trkpt>
      <trkpt lat="40.286177" lon="-7.810617">
        <ele>814.056</ele>
        <time>2019-05-29T10:40:00Z</time>
      </trkpt>
      <trkpt lat="40.284602" lon="-7.811843">
        <ele>837.048</ele>
        <time>2019-05-29T10:40:20Z</time>
      </trkpt>
      <trkpt lat="40.283560" lon="-7.812464">
        <ele>846.074</ele>
        <time>2019-05-29T10:40:40Z</time>
      </trkpt>
      <trkpt lat="40.282696" lon="-7.813597">
        <ele>856.056</ele>
        <time>2019-05-29T10:41:00Z</time>
      </trkpt>
      <trkpt lat="40.282542" lon="-7.814078">
        <ele>863.021</ele>
        <time>2019-05-29T10:41:20Z</time>
      </trkpt>
      <trkpt lat="40.282068" lon="-7.814311">
        <ele>867.008</ele>
        <time>2019-05-29T10:41:40Z</time>
      </trkpt>
      <trkpt lat="40.280801" lon="-7.813473">
        <ele>865.050</ele>
        <time>2019-05-29T10:42:00Z</time>
      </trkpt>
      <trkpt lat="40.280209" lon="-7.813426">
        <ele>868.063</ele>
        <time>2019-05-29T10:42:20Z</time>
      </trkpt>
      <trkpt lat="40.279002" lon="-7.814823">
        <ele>877.066</ele>
        <time>2019-05-29T10:42:40Z</time>
      </trkpt>
      <trkpt lat="40.278327" lon="-7.814715">
        <ele>877.054</ele>
        <time>2019-05-29T10:43:00Z</time>
      </trkpt>
      <trkpt lat="40.276787" lon="-7.814901">
        <ele>884.021</ele>
        <time>2019-05-29T10:43:20Z</time>
      </trkpt>
      <trkpt lat="40.276077" lon="-7.814358">
        <ele>885.092</ele>
        <time>2019-05-29T10:43:40Z</time>
      </trkpt>
      <trkpt lat="40.274431" lon="-7.813954">
        <ele>888.099</ele>
        <time>2019-05-29T10:44:00Z</time>
      </trkpt>
      <trkpt lat="40.273626" lon="-7.813380">
        <ele>889.011</ele>
        <time>2019-05-29T10:44:20Z</time>
      </trkpt>
      <trkpt lat="40.270985" lon="-7.813582">
        <ele>908.031</ele>
        <time>2019-05-29T10:44:40Z</time>
      </trkpt>
      <trkpt lat="40.269457" lon="-7.814901">
        <ele>929.061</ele>
        <time>2019-05-29T10:45:00Z</time>
      </trkpt>
      <trkpt lat="40.269031" lon="-7.815149">
        <ele>929.007</ele>
        <time>2019-05-29T10:45:20Z</time>
      </trkpt>
      <trkpt lat="40.268533" lon="-7.816127">
        <ele>953.008</ele>
        <time>2019-05-29T10:45:40Z</time>
      </trkpt>
      <trkpt lat="40.267835" lon="-7.816546">
        <ele>939.096</ele>
        <time>2019-05-29T10:46:00Z</time>
      </trkpt>
      <trkpt lat="40.267385" lon="-7.816950">
        <ele>939.019</ele>
        <time>2019-05-29T10:46:20Z</time>
      </trkpt>
      <trkpt lat="40.267171" lon="-7.817477">
        <ele>958.092</ele>
        <time>2019-05-29T10:46:40Z</time>
      </trkpt>
      <trkpt lat="40.266674" lon="-7.817477">
        <ele>944.090</ele>
        <time>2019-05-29T10:47:00Z</time>
      </trkpt>
      <trkpt lat="40.265727" lon="-7.818393">
        <ele>938.037</ele>
        <time>2019-05-29T10:47:20Z</time>
      </trkpt>
      <trkpt lat="40.265431" lon="-7.819231">
        <ele>949.098</ele>
        <time>2019-05-29T10:47:40Z</time>
      </trkpt>
      <trkpt lat="40.265099" lon="-7.819759">
        <ele>958.035</ele>
        <time>2019-05-29T10:48:00Z</time>
      </trkpt>
      <trkpt lat="40.264838" lon="-7.819759">
        <ele>956.017</ele>
        <time>2019-05-29T10:48:20Z</time>
      </trkpt>
      <trkpt lat="40.263997" lon="-7.819417">
        <ele>942.028</ele>
        <time>2019-05-29T10:48:40Z</time>
      </trkpt>
      <trkpt lat="40.263239" lon="-7.820069">
        <ele>954.089</ele>
        <time>2019-05-29T10:49:00Z</time>
      </trkpt>
      <trkpt lat="40.262955" lon="-7.820085">
        <ele>955.017</ele>
        <time>2019-05-29T10:49:20Z</time>
      </trkpt>
      <trkpt lat="40.262766" lon="-7.819790">
        <ele>947.008</ele>
        <time>2019-05-29T10:49:40Z</time>
      </trkpt>
      <trkpt lat="40.262256" lon="-7.819479">
        <ele>952.025</ele>
        <time>2019-05-29T10:50:00Z</time>
      </trkpt>
      <trkpt lat="40.261581" lon="-7.819557">
        <ele>947.088</ele>
        <time>2019-05-29T10:50:20Z</time>
      </trkpt>
      <trkpt lat="40.261143" lon="-7.820131">
        <ele>955.031</ele>
        <time>2019-05-29T10:50:40Z</time>
      </trkpt>
      <trkpt lat="40.260563" lon="-7.820240">
        <ele>958.079</ele>
        <time>2019-05-29T10:51:00Z</time>
      </trkpt>
      <trkpt lat="40.260148" lon="-7.820131">
        <ele>949.036</ele>
        <time>2019-05-29T10:51:20Z</time>
      </trkpt>
      <trkpt lat="40.259544" lon="-7.820411">
        <ele>952.027</ele>
        <time>2019-05-29T10:51:40Z</time>
      </trkpt>
      <trkpt lat="40.259059" lon="-7.820861">
        <ele>960.044</ele>
        <time>2019-05-29T10:52:00Z</time>
      </trkpt>
      <trkpt lat="40.258916" lon="-7.820799">
        <ele>957.096</ele>
        <time>2019-05-29T10:52:20Z</time>
      </trkpt>
      <trkpt lat="40.258099" lon="-7.820100">
        <ele>948.039</ele>
        <time>2019-05-29T10:52:40Z</time>
      </trkpt>
      <trkpt lat="40.257910" lon="-7.820023">
        <ele>947.001</ele>
        <time>2019-05-29T10:53:00Z</time>
      </trkpt>
      <trkpt lat="40.256986" lon="-7.820147">
        <ele>955.021</ele>
        <time>2019-05-29T10:53:20Z</time>
      </trkpt>
      <trkpt lat="40.256666" lon="-7.819697">
        <ele>941.008</ele>
        <time>2019-05-29T10:53:40Z</time>
      </trkpt>
      <trkpt lat="40.256512" lon="-7.819573">
        <ele>941.036</ele>
        <time>2019-05-29T10:54:00Z</time>
      </trkpt>
      <trkpt lat="40.256263" lon="-7.819650">
        <ele>945.099</ele>
        <time>2019-05-29T10:54:20Z</time>
      </trkpt>
      <trkpt lat="40.255505" lon="-7.821125">
        <ele>944.052</ele>
        <time>2019-05-29T10:54:40Z</time>
      </trkpt>
      <trkpt lat="40.255446" lon="-7.821606">
        <ele>944.090</ele>
        <time>2019-05-29T10:55:00Z</time>
      </trkpt>
      <trkpt lat="40.255517" lon="-7.822211">
        <ele>943.037</ele>
        <time>2019-05-29T10:55:20Z</time>
      </trkpt>
      <trkpt lat="40.255339" lon="-7.823267">
        <ele>948.088</ele>
        <time>2019-05-29T10:55:40Z</time>
      </trkpt>
      <trkpt lat="40.255091" lon="-7.823422">
        <ele>933.065</ele>
        <time>2019-05-29T10:56:00Z</time>
      </trkpt>
      <trkpt lat="40.254960" lon="-7.823732">
        <ele>931.047</ele>
        <time>2019-05-29T10:56:20Z</time>
      </trkpt>
      <trkpt lat="40.255102" lon="-7.824151">
        <ele>949.049</ele>
        <time>2019-05-29T10:56:40Z</time>
      </trkpt>
      <trkpt lat="40.255055" lon="-7.824353">
        <ele>949.002</ele>
        <time>2019-05-29T10:57:00Z</time>
      </trkpt>
      <trkpt lat="40.254581" lon="-7.824803">
        <ele>924.022</ele>
        <time>2019-05-29T10:57:20Z</time>
      </trkpt>
      <trkpt lat="40.254226" lon="-7.825936">
        <ele>939.008</ele>
        <time>2019-05-29T10:57:40Z</time>
      </trkpt>
      <trkpt lat="40.253657" lon="-7.826262">
        <ele>923.047</ele>
        <time>2019-05-29T10:58:00Z</time>
      </trkpt>
      <trkpt lat="40.253243" lon="-7.827271">
        <ele>941.060</ele>
        <time>2019-05-29T10:58:20Z</time>
      </trkpt>
      <trkpt lat="40.252781" lon="-7.827612">
        <ele>929.033</ele>
        <time>2019-05-29T10:58:40Z</time>
      </trkpt>
      <trkpt lat="40.252567" lon="-7.827721">
        <ele>921.021</ele>
        <time>2019-05-29T10:59:00Z</time>
      </trkpt>
      <trkpt lat="40.252473" lon="-7.827969">
        <ele>923.048</ele>
        <time>2019-05-29T10:59:20Z</time>
      </trkpt>
      <trkpt lat="40.252378" lon="-7.828513">
        <ele>926.069</ele>
        <time>2019-05-29T10:59:40Z</time>
      </trkpt>
      <trkpt lat="40.252094" lon="-7.828947">
        <ele>917.096</ele>
        <time>2019-05-29T11:00:00Z</time>
      </trkpt>
      <trkpt lat="40.251904" lon="-7.829692">
        <ele>931.018</ele>
        <time>2019-05-29T11:00:20Z</time>
      </trkpt>
      <trkpt lat="40.251774" lon="-7.829894">
        <ele>938.043</ele>
        <time>2019-05-29T11:00:40Z</time>
      </trkpt>
      <trkpt lat="40.251584" lon="-7.829909">
        <ele>935.064</ele>
        <time>2019-05-29T11:01:00Z</time>
      </trkpt>
      <trkpt lat="40.250731" lon="-7.829630">
        <ele>911.010</ele>
        <time>2019-05-29T11:01:20Z</time>
      </trkpt>
      <trkpt lat="40.250459" lon="-7.829428">
        <ele>898.008</ele>
        <time>2019-05-29T11:01:40Z</time>
      </trkpt>
      <trkpt lat="40.250080" lon="-7.829273">
        <ele>893.047</ele>
        <time>2019-05-29T11:02:00Z</time>
      </trkpt>
      <trkpt lat="40.248824" lon="-7.829878">
        <ele>897.020</ele>
        <time>2019-05-29T11:02:20Z</time>
      </trkpt>
      <trkpt lat="40.248125" lon="-7.829847">
        <ele>894.073</ele>
        <time>2019-05-29T11:02:40Z</time>
      </trkpt>
      <trkpt lat="40.247616" lon="-7.829490">
        <ele>887.031</ele>
        <time>2019-05-29T11:03:00Z</time>
      </trkpt>
      <trkpt lat="40.247260" lon="-7.829459">
        <ele>890.058</ele>
        <time>2019-05-29T11:03:20Z</time>
      </trkpt>
      <trkpt lat="40.246716" lon="-7.829723">
        <ele>894.089</ele>
        <time>2019-05-29T11:03:40Z</time>
      </trkpt>
      <trkpt lat="40.245744" lon="-7.829009">
        <ele>877.086</ele>
        <time>2019-05-29T11:04:00Z</time>
      </trkpt>
      <trkpt lat="40.245235" lon="-7.828792">
        <ele>881.048</ele>
        <time>2019-05-29T11:04:20Z</time>
      </trkpt>
      <trkpt lat="40.244915" lon="-7.828575">
        <ele>869.013</ele>
        <time>2019-05-29T11:04:40Z</time>
      </trkpt>
      <trkpt lat="40.244476" lon="-7.828513">
        <ele>864.043</ele>
        <time>2019-05-29T11:05:00Z</time>
      </trkpt>
      <trkpt lat="40.244157" lon="-7.828838">
        <ele>868.007</ele>
        <time>2019-05-29T11:05:20Z</time>
      </trkpt>
      <trkpt lat="40.244014" lon="-7.829335">
        <ele>877.008</ele>
        <time>2019-05-29T11:05:40Z</time>
      </trkpt>
      <trkpt lat="40.243647" lon="-7.829397">
        <ele>867.044</ele>
        <time>2019-05-29T11:06:00Z</time>
      </trkpt>
      <trkpt lat="40.243351" lon="-7.829382">
        <ele>859.097</ele>
        <time>2019-05-29T11:06:20Z</time>
      </trkpt>
      <trkpt lat="40.243043" lon="-7.829785">
        <ele>877.090</ele>
        <time>2019-05-29T11:06:40Z</time>
      </trkpt>
      <trkpt lat="40.242676" lon="-7.829832">
        <ele>877.098</ele>
        <time>2019-05-29T11:07:00Z</time>
      </trkpt>
      <trkpt lat="40.242522" lon="-7.829242">
        <ele>854.075</ele>
        <time>2019-05-29T11:07:20Z</time>
      </trkpt>
      <trkpt lat="40.242332" lon="-7.829133">
        <ele>847.036</ele>
        <time>2019-05-29T11:07:40Z</time>
      </trkpt>
      <trkpt lat="40.242048" lon="-7.829506">
        <ele>863.023</ele>
        <time>2019-05-29T11:08:00Z</time>
      </trkpt>
      <trkpt lat="40.241728" lon="-7.829490">
        <ele>861.035</ele>
        <time>2019-05-29T11:08:20Z</time>
      </trkpt>
      <trkpt lat="40.241254" lon="-7.829164">
        <ele>846.027</ele>
        <time>2019-05-29T11:08:40Z</time>
      </trkpt>
      <trkpt lat="40.240721" lon="-7.829133">
        <ele>844.068</ele>
        <time>2019-05-29T11:09:00Z</time>
      </trkpt>
      <trkpt lat="40.240413" lon="-7.829258">
        <ele>838.014</ele>
        <time>2019-05-29T11:09:20Z</time>
      </trkpt>
      <trkpt lat="40.240259" lon="-7.829459">
        <ele>836.008</ele>
        <time>2019-05-29T11:09:40Z</time>
      </trkpt>
      <trkpt lat="40.240211" lon="-7.829770">
        <ele>839.055</ele>
        <time>2019-05-29T11:10:00Z</time>
      </trkpt>
      <trkpt lat="40.240294" lon="-7.830173">
        <ele>851.088</ele>
        <time>2019-05-29T11:10:20Z</time>
      </trkpt>
      <trkpt lat="40.240164" lon="-7.830360">
        <ele>853.031</ele>
        <time>2019-05-29T11:10:40Z</time>
      </trkpt>
      <trkpt lat="40.239512" lon="-7.830437">
        <ele>842.049</ele>
        <time>2019-05-29T11:11:00Z</time>
      </trkpt>
      <trkpt lat="40.238861" lon="-7.830204">
        <ele>834.056</ele>
        <time>2019-05-29T11:11:20Z</time>
      </trkpt>
      <trkpt lat="40.238328" lon="-7.830096">
        <ele>823.017</ele>
        <time>2019-05-29T11:11:40Z</time>
      </trkpt>
      <trkpt lat="40.237866" lon="-7.830453">
        <ele>821.094</ele>
        <time>2019-05-29T11:12:00Z</time>
      </trkpt>
      <trkpt lat="40.237747" lon="-7.831337">
        <ele>827.066</ele>
        <time>2019-05-29T11:12:20Z</time>
      </trkpt>
      <trkpt lat="40.237652" lon="-7.831415">
        <ele>826.052</ele>
        <time>2019-05-29T11:12:40Z</time>
      </trkpt>
      <trkpt lat="40.237131" lon="-7.831229">
        <ele>806.053</ele>
        <time>2019-05-29T11:13:00Z</time>
      </trkpt>
      <trkpt lat="40.237024" lon="-7.831337">
        <ele>804.008</ele>
        <time>2019-05-29T11:13:20Z</time>
      </trkpt>
      <trkpt lat="40.236716" lon="-7.831850">
        <ele>813.008</ele>
        <time>2019-05-29T11:13:40Z</time>
      </trkpt>
      <trkpt lat="40.236385" lon="-7.831446">
        <ele>803.098</ele>
        <time>2019-05-29T11:14:00Z</time>
      </trkpt>
      <trkpt lat="40.236041" lon="-7.830841">
        <ele>788.051</ele>
        <time>2019-05-29T11:14:20Z</time>
      </trkpt>
      <trkpt lat="40.235591" lon="-7.830856">
        <ele>797.064</ele>
        <time>2019-05-29T11:14:40Z</time>
      </trkpt>
      <trkpt lat="40.235212" lon="-7.830453">
        <ele>786.012</ele>
        <time>2019-05-29T11:15:00Z</time>
      </trkpt>
      <trkpt lat="40.233861" lon="-7.830763">
        <ele>780.029</ele>
        <time>2019-05-29T11:15:20Z</time>
      </trkpt>
      <trkpt lat="40.233411" lon="-7.830701">
        <ele>767.010</ele>
        <time>2019-05-29T11:15:40Z</time>
      </trkpt>
      <trkpt lat="40.233067" lon="-7.831058">
        <ele>780.057</ele>
        <time>2019-05-29T11:16:00Z</time>
      </trkpt>
      <trkpt lat="40.232877" lon="-7.831244">
        <ele>788.059</ele>
        <time>2019-05-29T11:16:20Z</time>
      </trkpt>
      <trkpt lat="40.231752" lon="-7.831229">
        <ele>770.098</ele>
        <time>2019-05-29T11:16:40Z</time>
      </trkpt>
      <trkpt lat="40.231586" lon="-7.831679">
        <ele>786.015</ele>
        <time>2019-05-29T11:17:00Z</time>
      </trkpt>
      <trkpt lat="40.231266" lon="-7.831989">
        <ele>794.026</ele>
        <time>2019-05-29T11:17:20Z</time>
      </trkpt>
      <trkpt lat="40.230827" lon="-7.831260">
        <ele>777.008</ele>
        <time>2019-05-29T11:17:40Z</time>
      </trkpt>
      <trkpt lat="40.230851" lon="-7.830779">
        <ele>771.062</ele>
        <time>2019-05-29T11:18:00Z</time>
      </trkpt>
      <trkpt lat="40.230981" lon="-7.830003">
        <ele>767.075</ele>
        <time>2019-05-29T11:18:20Z</time>
      </trkpt>
      <trkpt lat="40.231325" lon="-7.829677">
        <ele>759.098</ele>
        <time>2019-05-29T11:18:40Z</time>
      </trkpt>
      <trkpt lat="40.231894" lon="-7.829506">
        <ele>747.046</ele>
        <time>2019-05-29T11:19:00Z</time>
      </trkpt>
      <trkpt lat="40.231882" lon="-7.828838">
        <ele>746.093</ele>
        <time>2019-05-29T11:19:20Z</time>
      </trkpt>
      <trkpt lat="40.231467" lon="-7.828870">
        <ele>751.054</ele>
        <time>2019-05-29T11:19:40Z</time>
      </trkpt>
      <trkpt lat="40.230887" lon="-7.828823">
        <ele>749.011</ele>
        <time>2019-05-29T11:20:00Z</time>
      </trkpt>
      <trkpt lat="40.230756" lon="-7.828761">
        <ele>745.033</ele>
        <time>2019-05-29T11:20:20Z</time>
      </trkpt>
      <trkpt lat="40.230365" lon="-7.829071">
        <ele>746.085</ele>
        <time>2019-05-29T11:20:40Z</time>
      </trkpt>
      <trkpt lat="40.229891" lon="-7.830065">
        <ele>757.089</ele>
        <time>2019-05-29T11:21:00Z</time>
      </trkpt>
      <trkpt lat="40.228730" lon="-7.830872">
        <ele>759.017</ele>
        <time>2019-05-29T11:21:20Z</time>
      </trkpt>
      <trkpt lat="40.228268" lon="-7.831244">
        <ele>766.008</ele>
        <time>2019-05-29T11:21:40Z</time>
      </trkpt>
      <trkpt lat="40.228066" lon="-7.831089">
        <ele>762.061</ele>
        <time>2019-05-29T11:22:00Z</time>
      </trkpt>
      <trkpt lat="40.228066" lon="-7.830825">
        <ele>763.054</ele>
        <time>2019-05-29T11:22:20Z</time>
      </trkpt>
      <trkpt lat="40.229157" lon="-7.829521">
        <ele>736.027</ele>
        <time>2019-05-29T11:22:40Z</time>
      </trkpt>
      <trkpt lat="40.229263" lon="-7.828916">
        <ele>737.015</ele>
        <time>2019-05-29T11:23:00Z</time>
      </trkpt>
      <trkpt lat="40.229121" lon="-7.828482">
        <ele>734.062</ele>
        <time>2019-05-29T11:23:20Z</time>
      </trkpt>
      <trkpt lat="40.228671" lon="-7.828280">
        <ele>745.023</ele>
        <time>2019-05-29T11:23:40Z</time>
      </trkpt>
      <trkpt lat="40.228457" lon="-7.827674">
        <ele>734.030</ele>
        <time>2019-05-29T11:24:00Z</time>
      </trkpt>
      <trkpt lat="40.228363" lon="-7.826433">
        <ele>717.052</ele>
        <time>2019-05-29T11:24:20Z</time>
      </trkpt>
      <trkpt lat="40.227604" lon="-7.825533">
        <ele>709.022</ele>
        <time>2019-05-29T11:24:40Z</time>
      </trkpt>
      <trkpt lat="40.227569" lon="-7.825207">
        <ele>708.062</ele>
        <time>2019-05-29T11:25:00Z</time>
      </trkpt>
      <trkpt lat="40.227735" lon="-7.824989">
        <ele>708.008</ele>
        <time>2019-05-29T11:25:20Z</time>
      </trkpt>
      <trkpt lat="40.228635" lon="-7.825470">
        <ele>694.008</ele>
        <time>2019-05-29T11:25:40Z</time>
      </trkpt>
      <trkpt lat="40.229157" lon="-7.825393">
        <ele>680.045</ele>
        <time>2019-05-29T11:26:00Z</time>
      </trkpt>
      <trkpt lat="40.229251" lon="-7.824834">
        <ele>687.068</ele>
        <time>2019-05-29T11:26:20Z</time>
      </trkpt>
      <trkpt lat="40.229400" lon="-7.824820">
        <ele>685.021</ele>
        <time>2019-05-29T11:26:40Z</time>
      </trkpt>
      <trkpt lat="40.229083" lon="-7.825223">
        <ele>685.079</ele>
        <time>2019-05-29T11:27:00Z</time>
      </trkpt>
      <trkpt lat="40.229067" lon="-7.825396">
        <ele>683.046</ele>
        <time>2019-05-29T11:27:20Z</time>
      </trkpt>
      <trkpt lat="40.229004" lon="-7.825486">
        <ele>684.087</ele>
        <time>2019-05-29T11:27:40Z</time>
      </trkpt>
      <trkpt lat="40.228558" lon="-7.825523">
        <ele>694.074</ele>
        <time>2019-05-29T11:28:00Z</time>
      </trkpt>
      <trkpt lat="40.228283" lon="-7.825524">
        <ele>699.076</ele>
        <time>2019-05-29T11:28:20Z</time>
      </trkpt>
      <trkpt lat="40.227964" lon="-7.825415">
        <ele>703.048</ele>
        <time>2019-05-29T11:28:40Z</time>
      </trkpt>
      <trkpt lat="40.227639" lon="-7.824966">
        <ele>710.061</ele>
        <time>2019-05-29T11:29:00Z</time>
      </trkpt>
      <trkpt lat="40.227507" lon="-7.824946">
        <ele>711.017</ele>
        <time>2019-05-29T11:29:20Z</time>
      </trkpt>
      <trkpt lat="40.227401" lon="-7.825037">
        <ele>716.008</ele>
        <time>2019-05-29T11:29:40Z</time>
      </trkpt>
      <trkpt lat="40.227454" lon="-7.825272">
        <ele>712.097</ele>
        <time>2019-05-29T11:30:00Z</time>
      </trkpt>
      <trkpt lat="40.227848" lon="-7.825810">
        <ele>712.030</ele>
        <time>2019-05-29T11:30:20Z</time>
      </trkpt>
      <trkpt lat="40.228396" lon="-7.826479">
        <ele>716.033</ele>
        <time>2019-05-29T11:30:40Z</time>
      </trkpt>
      <trkpt lat="40.228448" lon="-7.827849">
        <ele>738.051</ele>
        <time>2019-05-29T11:31:00Z</time>
      </trkpt>
      <trkpt lat="40.228597" lon="-7.828208">
        <ele>745.018</ele>
        <time>2019-05-29T11:31:20Z</time>
      </trkpt>
      <trkpt lat="40.229161" lon="-7.828676">
        <ele>737.059</ele>
        <time>2019-05-29T11:31:40Z</time>
      </trkpt>
      <trkpt lat="40.229236" lon="-7.828959">
        <ele>738.076</ele>
        <time>2019-05-29T11:32:00Z</time>
      </trkpt>
      <trkpt lat="40.229099" lon="-7.829396">
        <ele>741.078</ele>
        <time>2019-05-29T11:32:20Z</time>
      </trkpt>
      <trkpt lat="40.228734" lon="-7.829799">
        <ele>755.098</ele>
        <time>2019-05-29T11:32:40Z</time>
      </trkpt>
      <trkpt lat="40.228369" lon="-7.830188">
        <ele>764.015</ele>
        <time>2019-05-29T11:33:00Z</time>
      </trkpt>
      <trkpt lat="40.227946" lon="-7.830591">
        <ele>773.026</ele>
        <time>2019-05-29T11:33:20Z</time>
      </trkpt>
      <trkpt lat="40.227877" lon="-7.830799">
        <ele>771.008</ele>
        <time>2019-05-29T11:33:40Z</time>
      </trkpt>
      <trkpt lat="40.227990" lon="-7.831082">
        <ele>763.012</ele>
        <time>2019-05-29T11:34:00Z</time>
      </trkpt>
      <trkpt lat="40.228181" lon="-7.831116">
        <ele>761.015</ele>
        <time>2019-05-29T11:34:20Z</time>
      </trkpt>
      <trkpt lat="40.228853" lon="-7.830691">
        <ele>752.068</ele>
        <time>2019-05-29T11:34:40Z</time>
      </trkpt>
      <trkpt lat="40.229362" lon="-7.830453">
        <ele>753.056</ele>
        <time>2019-05-29T11:35:00Z</time>
      </trkpt>
      <trkpt lat="40.229912" lon="-7.830063">
        <ele>758.033</ele>
        <time>2019-05-29T11:35:20Z</time>
      </trkpt>
      <trkpt lat="40.230197" lon="-7.829592">
        <ele>757.044</ele>
        <time>2019-05-29T11:35:40Z</time>
      </trkpt>
      <trkpt lat="40.230737" lon="-7.828883">
        <ele>749.041</ele>
        <time>2019-05-29T11:36:00Z</time>
      </trkpt>
      <trkpt lat="40.230959" lon="-7.828848">
        <ele>750.093</ele>
        <time>2019-05-29T11:36:20Z</time>
      </trkpt>
      <trkpt lat="40.231204" lon="-7.828992">
        <ele>754.051</ele>
        <time>2019-05-29T11:36:40Z</time>
      </trkpt>
      <trkpt lat="40.231458" lon="-7.829012">
        <ele>754.001</ele>
        <time>2019-05-29T11:37:00Z</time>
      </trkpt>
      <trkpt lat="40.231957" lon="-7.829037">
        <ele>747.011</ele>
        <time>2019-05-29T11:37:20Z</time>
      </trkpt>
      <trkpt lat="40.232042" lon="-7.829237">
        <ele>744.008</ele>
        <time>2019-05-29T11:37:40Z</time>
      </trkpt>
      <trkpt lat="40.231969" lon="-7.829549">
        <ele>745.018</ele>
        <time>2019-05-29T11:38:00Z</time>
      </trkpt>
      <trkpt lat="40.231853" lon="-7.829660">
        <ele>747.071</ele>
        <time>2019-05-29T11:38:20Z</time>
      </trkpt>
      <trkpt lat="40.231428" lon="-7.829669">
        <ele>757.024</ele>
        <time>2019-05-29T11:38:40Z</time>
      </trkpt>
      <trkpt lat="40.231100" lon="-7.829885">
        <ele>764.062</ele>
        <time>2019-05-29T11:39:00Z</time>
      </trkpt>
      <trkpt lat="40.230921" lon="-7.830315">
        <ele>766.039</ele>
        <time>2019-05-29T11:39:20Z</time>
      </trkpt>
      <trkpt lat="40.230769" lon="-7.830994">
        <ele>777.070</ele>
        <time>2019-05-29T11:39:40Z</time>
      </trkpt>
      <trkpt lat="40.230812" lon="-7.831305">
        <ele>778.067</ele>
        <time>2019-05-29T11:40:00Z</time>
      </trkpt>
      <trkpt lat="40.231026" lon="-7.831955">
        <ele>794.099</ele>
        <time>2019-05-29T11:40:20Z</time>
      </trkpt>
      <trkpt lat="40.231138" lon="-7.832113">
        <ele>798.077</ele>
        <time>2019-05-29T11:40:40Z</time>
      </trkpt>
      <trkpt lat="40.230926" lon="-7.832149">
        <ele>802.061</ele>
        <time>2019-05-29T11:41:00Z</time>
      </trkpt>
      <trkpt lat="40.230861" lon="-7.831900">
        <ele>795.027</ele>
        <time>2019-05-29T11:41:20Z</time>
      </trkpt>
      <trkpt lat="40.230728" lon="-7.831679">
        <ele>793.008</ele>
        <time>2019-05-29T11:41:40Z</time>
      </trkpt>
      <trkpt lat="40.230339" lon="-7.831148">
        <ele>798.080</ele>
        <time>2019-05-29T11:42:00Z</time>
      </trkpt>
      <trkpt lat="40.230138" lon="-7.831239">
        <ele>801.033</ele>
        <time>2019-05-29T11:42:20Z</time>
      </trkpt>
      <trkpt lat="40.230160" lon="-7.831419">
        <ele>806.096</ele>
        <time>2019-05-29T11:42:40Z</time>
      </trkpt>
      <trkpt lat="40.230318" lon="-7.831634">
        <ele>810.084</ele>
        <time>2019-05-29T11:43:00Z</time>
      </trkpt>
      <trkpt lat="40.230352" lon="-7.832237">
        <ele>824.081</ele>
        <time>2019-05-29T11:43:20Z</time>
      </trkpt>
      <trkpt lat="40.230440" lon="-7.833571">
        <ele>845.012</ele>
        <time>2019-05-29T11:43:40Z</time>
      </trkpt>
      <trkpt lat="40.230255" lon="-7.834128">
        <ele>857.039</ele>
        <time>2019-05-29T11:44:00Z</time>
      </trkpt>
      <trkpt lat="40.230164" lon="-7.834167">
        <ele>859.091</ele>
        <time>2019-05-29T11:44:20Z</time>
      </trkpt>
      <trkpt lat="40.230171" lon="-7.833970">
        <ele>858.091</ele>
        <time>2019-05-29T11:44:40Z</time>
      </trkpt>
      <trkpt lat="40.230061" lon="-7.833537">
        <ele>855.081</ele>
        <time>2019-05-29T11:45:00Z</time>
      </trkpt>
      <trkpt lat="40.229896" lon="-7.833289">
        <ele>857.019</ele>
        <time>2019-05-29T11:45:20Z</time>
      </trkpt>
      <trkpt lat="40.229587" lon="-7.833046">
        <ele>862.008</ele>
        <time>2019-05-29T11:45:40Z</time>
      </trkpt>
      <trkpt lat="40.228916" lon="-7.833284">
        <ele>871.072</ele>
        <time>2019-05-29T11:46:00Z</time>
      </trkpt>
      <trkpt lat="40.228943" lon="-7.833423">
        <ele>875.035</ele>
        <time>2019-05-29T11:46:20Z</time>
      </trkpt>
      <trkpt lat="40.229168" lon="-7.833454">
        <ele>877.078</ele>
        <time>2019-05-29T11:46:40Z</time>
      </trkpt>
      <trkpt lat="40.229352" lon="-7.833683">
        <ele>882.016</ele>
        <time>2019-05-29T11:47:00Z</time>
      </trkpt>
      <trkpt lat="40.229455" lon="-7.833883">
        <ele>887.093</ele>
        <time>2019-05-29T11:47:20Z</time>
      </trkpt>
      <trkpt lat="40.229543" lon="-7.834688">
        <ele>895.034</ele>
        <time>2019-05-29T11:47:40Z</time>
      </trkpt>
      <trkpt lat="40.229511" lon="-7.835560">
        <ele>909.011</ele>
        <time>2019-05-29T11:48:00Z</time>
      </trkpt>
      <trkpt lat="40.229699" lon="-7.836739">
        <ele>921.023</ele>
        <time>2019-05-29T11:48:20Z</time>
      </trkpt>
      <trkpt lat="40.229885" lon="-7.836820">
        <ele>922.083</ele>
        <time>2019-05-29T11:48:40Z</time>
      </trkpt>
      <trkpt lat="40.231193" lon="-7.836919">
        <ele>935.025</ele>
        <time>2019-05-29T11:49:00Z</time>
      </trkpt>
      <trkpt lat="40.231677" lon="-7.837262">
        <ele>943.017</ele>
        <time>2019-05-29T11:49:20Z</time>
      </trkpt>
      <trkpt lat="40.232467" lon="-7.836361">
        <ele>939.008</ele>
        <time>2019-05-29T11:49:40Z</time>
      </trkpt>
      <trkpt lat="40.233048" lon="-7.836389">
        <ele>946.091</ele>
        <time>2019-05-29T11:50:00Z</time>
      </trkpt>
      <trkpt lat="40.233751" lon="-7.836128">
        <ele>947.084</ele>
        <time>2019-05-29T11:50:20Z</time>
      </trkpt>
      <trkpt lat="40.233992" lon="-7.836277">
        <ele>950.047</ele>
        <time>2019-05-29T11:50:40Z</time>
      </trkpt>
      <trkpt lat="40.234117" lon="-7.836499">
        <ele>956.075</ele>
        <time>2019-05-29T11:51:00Z</time>
      </trkpt>
      <trkpt lat="40.234194" lon="-7.836645">
        <ele>960.072</ele>
        <time>2019-05-29T11:51:20Z</time>
      </trkpt>
      <trkpt lat="40.234570" lon="-7.836950">
        <ele>960.023</ele>
        <time>2019-05-29T11:51:40Z</time>
      </trkpt>
      <trkpt lat="40.235162" lon="-7.837144">
        <ele>960.090</ele>
        <time>2019-05-29T11:52:00Z</time>
      </trkpt>
      <trkpt lat="40.235519" lon="-7.837329">
        <ele>964.042</ele>
        <time>2019-05-29T11:52:20Z</time>
      </trkpt>
      <trkpt lat="40.235696" lon="-7.837571">
        <ele>968.066</ele>
        <time>2019-05-29T11:52:40Z</time>
      </trkpt>
      <trkpt lat="40.235935" lon="-7.837776">
        <ele>969.029</ele>
        <time>2019-05-29T11:53:00Z</time>
      </trkpt>
      <trkpt lat="40.235953" lon="-7.837866">
        <ele>970.021</ele>
        <time>2019-05-29T11:53:20Z</time>
      </trkpt>
      <trkpt lat="40.235765" lon="-7.837940">
        <ele>972.008</ele>
        <time>2019-05-29T11:53:40Z</time>
      </trkpt>
      <trkpt lat="40.235249" lon="-7.837954">
        <ele>976.039</ele>
        <time>2019-05-29T11:54:00Z</time>
      </trkpt>
      <trkpt lat="40.234661" lon="-7.838239">
        <ele>977.092</ele>
        <time>2019-05-29T11:54:20Z</time>
      </trkpt>
      <trkpt lat="40.233953" lon="-7.837975">
        <ele>985.085</ele>
        <time>2019-05-29T11:54:40Z</time>
      </trkpt>
      <trkpt lat="40.233559" lon="-7.837939">
        <ele>988.033</ele>
        <time>2019-05-29T11:55:00Z</time>
      </trkpt>
      <trkpt lat="40.233070" lon="-7.838165">
        <ele>992.060</ele>
        <time>2019-05-29T11:55:20Z</time>
      </trkpt>
      <trkpt lat="40.232883" lon="-7.838304">
        <ele>993.021</ele>
        <time>2019-05-29T11:55:40Z</time>
      </trkpt>
      <trkpt lat="40.232677" lon="-7.838626">
        <ele>997.078</ele>
        <time>2019-05-29T11:56:00Z</time>
      </trkpt>
      <trkpt lat="40.232489" lon="-7.838973">
        <ele>998.010</ele>
        <time>2019-05-29T11:56:20Z</time>
      </trkpt>
      <trkpt lat="40.232406" lon="-7.839241">
        <ele>1001.058</ele>
        <time>2019-05-29T11:56:40Z</time>
      </trkpt>
      <trkpt lat="40.232170" lon="-7.839378">
        <ele>1003.052</ele>
        <time>2019-05-29T11:57:00Z</time>
      </trkpt>
      <trkpt lat="40.231702" lon="-7.839356">
        <ele>1004.017</ele>
        <time>2019-05-29T11:57:20Z</time>
      </trkpt>
      <trkpt lat="40.231284" lon="-7.839665">
        <ele>1013.008</ele>
        <time>2019-05-29T11:57:40Z</time>
      </trkpt>
      <trkpt lat="40.231179" lon="-7.839735">
        <ele>1015.068</ele>
        <time>2019-05-29T11:58:00Z</time>
      </trkpt>
      <trkpt lat="40.230649" lon="-7.839418">
        <ele>1018.091</ele>
        <time>2019-05-29T11:58:20Z</time>
      </trkpt>
      <trkpt lat="40.230381" lon="-7.839354">
        <ele>1020.064</ele>
        <time>2019-05-29T11:58:40Z</time>
      </trkpt>
      <trkpt lat="40.229943" lon="-7.839343">
        <ele>1022.032</ele>
        <time>2019-05-29T11:59:00Z</time>
      </trkpt>
      <trkpt lat="40.229806" lon="-7.839598">
        <ele>1027.059</ele>
        <time>2019-05-29T11:59:20Z</time>
      </trkpt>
      <trkpt lat="40.229756" lon="-7.839851">
        <ele>1030.070</ele>
        <time>2019-05-29T11:59:40Z</time>
      </trkpt>
      <trkpt lat="40.229545" lon="-7.839983">
        <ele>1033.057</ele>
        <time>2019-05-29T12:00:00Z</time>
      </trkpt>
      <trkpt lat="40.229004" lon="-7.840117">
        <ele>1039.029</ele>
        <time>2019-05-29T12:00:20Z</time>
      </trkpt>
      <trkpt lat="40.227800" lon="-7.840383">
        <ele>1049.016</ele>
        <time>2019-05-29T12:00:40Z</time>
      </trkpt>
      <trkpt lat="40.227142" lon="-7.841031">
        <ele>1055.076</ele>
        <time>2019-05-29T12:01:00Z</time>
      </trkpt>
      <trkpt lat="40.226710" lon="-7.841159">
        <ele>1056.013</ele>
        <time>2019-05-29T12:01:20Z</time>
      </trkpt>
      <trkpt lat="40.226386" lon="-7.841175">
        <ele>1059.008</ele>
        <time>2019-05-29T12:01:40Z</time>
      </trkpt>
      <trkpt lat="40.226242" lon="-7.841189">
        <ele>1060.054</ele>
        <time>2019-05-29T12:02:00Z</time>
      </trkpt>
      <trkpt lat="40.226114" lon="-7.841212">
        <ele>1061.087</ele>
        <time>2019-05-29T12:02:20Z</time>
      </trkpt>
      <trkpt lat="40.225754" lon="-7.841074">
        <ele>1064.080</ele>
        <time>2019-05-29T12:02:40Z</time>
      </trkpt>
      <trkpt lat="40.225429" lon="-7.841157">
        <ele>1067.088</ele>
        <time>2019-05-29T12:03:00Z</time>
      </trkpt>
      <trkpt lat="40.225144" lon="-7.842122">
        <ele>1076.055</ele>
        <time>2019-05-29T12:03:20Z</time>
      </trkpt>
      <trkpt lat="40.225041" lon="-7.842212">
        <ele>1078.086</ele>
        <time>2019-05-29T12:03:40Z</time>
      </trkpt>
      <trkpt lat="40.224923" lon="-7.842076">
        <ele>1081.043</ele>
        <time>2019-05-29T12:04:00Z</time>
      </trkpt>
      <trkpt lat="40.224681" lon="-7.841715">
        <ele>1085.035</ele>
        <time>2019-05-29T12:04:20Z</time>
      </trkpt>
      <trkpt lat="40.224496" lon="-7.841684">
        <ele>1086.049</ele>
        <time>2019-05-29T12:04:40Z</time>
      </trkpt>
      <trkpt lat="40.224579" lon="-7.842356">
        <ele>1092.002</ele>
        <time>2019-05-29T12:05:00Z</time>
      </trkpt>
      <trkpt lat="40.224464" lon="-7.842410">
        <ele>1096.022</ele>
        <time>2019-05-29T12:05:20Z</time>
      </trkpt>
      <trkpt lat="40.224113" lon="-7.842083">
        <ele>1100.008</ele>
        <time>2019-05-29T12:05:40Z</time>
      </trkpt>
      <trkpt lat="40.223636" lon="-7.842038">
        <ele>1105.057</ele>
        <time>2019-05-29T12:06:00Z</time>
      </trkpt>
      <trkpt lat="40.223486" lon="-7.842118">
        <ele>1108.030</ele>
        <time>2019-05-29T12:06:20Z</time>
      </trkpt>
      <trkpt lat="40.223225" lon="-7.843079">
        <ele>1119.043</ele>
        <time>2019-05-29T12:06:40Z</time>
      </trkpt>
      <trkpt lat="40.222719" lon="-7.843490">
        <ele>1126.081</ele>
        <time>2019-05-29T12:07:00Z</time>
      </trkpt>
      <trkpt lat="40.222617" lon="-7.843392">
        <ele>1128.028</ele>
        <time>2019-05-29T12:07:20Z</time>
      </trkpt>
      <trkpt lat="40.222616" lon="-7.843208">
        <ele>1130.019</ele>
        <time>2019-05-29T12:07:40Z</time>
      </trkpt>
      <trkpt lat="40.222505" lon="-7.842867">
        <ele>1136.086</ele>
        <time>2019-05-29T12:08:00Z</time>
      </trkpt>
      <trkpt lat="40.222328" lon="-7.842568">
        <ele>1142.018</ele>
        <time>2019-05-29T12:08:20Z</time>
      </trkpt>
      <trkpt lat="40.222035" lon="-7.842152">
        <ele>1144.011</ele>
        <time>2019-05-29T12:08:40Z</time>
      </trkpt>
      <trkpt lat="40.221962" lon="-7.842188">
        <ele>1145.021</ele>
        <time>2019-05-29T12:09:00Z</time>
      </trkpt>
      <trkpt lat="40.221818" lon="-7.842407">
        <ele>1150.003</ele>
        <time>2019-05-29T12:09:20Z</time>
      </trkpt>
      <trkpt lat="40.221730" lon="-7.842681">
        <ele>1152.008</ele>
        <time>2019-05-29T12:09:40Z</time>
      </trkpt>
      <trkpt lat="40.221047" lon="-7.843269">
        <ele>1155.054</ele>
        <time>2019-05-29T12:10:00Z</time>
      </trkpt>
      <trkpt lat="40.220875" lon="-7.843414">
        <ele>1155.047</ele>
        <time>2019-05-29T12:10:20Z</time>
      </trkpt>
      <trkpt lat="40.220476" lon="-7.843874">
        <ele>1157.040</ele>
        <time>2019-05-29T12:10:40Z</time>
      </trkpt>
      <trkpt lat="40.220379" lon="-7.843991">
        <ele>1157.078</ele>
        <time>2019-05-29T12:11:00Z</time>
      </trkpt>
      <trkpt lat="40.220258" lon="-7.844037">
        <ele>1159.055</ele>
        <time>2019-05-29T12:11:20Z</time>
      </trkpt>
      <trkpt lat="40.220575" lon="-7.843428">
        <ele>1164.086</ele>
        <time>2019-05-29T12:11:40Z</time>
      </trkpt>
      <trkpt lat="40.220849" lon="-7.842803">
        <ele>1172.023</ele>
        <time>2019-05-29T12:12:00Z</time>
      </trkpt>
      <trkpt lat="40.220987" lon="-7.842391">
        <ele>1175.055</ele>
        <time>2019-05-29T12:12:20Z</time>
      </trkpt>
      <trkpt lat="40.220997" lon="-7.841978">
        <ele>1178.037</ele>
        <time>2019-05-29T12:12:40Z</time>
      </trkpt>
      <trkpt lat="40.220979" lon="-7.841764">
        <ele>1178.049</ele>
        <time>2019-05-29T12:13:00Z</time>
      </trkpt>
      <trkpt lat="40.220981" lon="-7.841627">
        <ele>1177.013</ele>
        <time>2019-05-29T12:13:20Z</time>
      </trkpt>
      <trkpt lat="40.220811" lon="-7.841279">
        <ele>1179.008</ele>
        <time>2019-05-29T12:13:40Z</time>
      </trkpt>
      <trkpt lat="40.220671" lon="-7.841034">
        <ele>1181.046</ele>
        <time>2019-05-29T12:14:00Z</time>
      </trkpt>
      <trkpt lat="40.220291" lon="-7.840313">
        <ele>1194.069</ele>
        <time>2019-05-29T12:14:20Z</time>
      </trkpt>
      <trkpt lat="40.220157" lon="-7.840008">
        <ele>1199.052</ele>
        <time>2019-05-29T12:14:40Z</time>
      </trkpt>
      <trkpt lat="40.220026" lon="-7.839621">
        <ele>1200.040</ele>
        <time>2019-05-29T12:15:00Z</time>
      </trkpt>
      <trkpt lat="40.219886" lon="-7.839230">
        <ele>1201.027</ele>
        <time>2019-05-29T12:15:20Z</time>
      </trkpt>
      <trkpt lat="40.219732" lon="-7.838666">
        <ele>1207.088</ele>
        <time>2019-05-29T12:15:40Z</time>
      </trkpt>
      <trkpt lat="40.219622" lon="-7.838504">
        <ele>1210.015</ele>
        <time>2019-05-29T12:16:00Z</time>
      </trkpt>
      <trkpt lat="40.219248" lon="-7.837715">
        <ele>1215.087</ele>
        <time>2019-05-29T12:16:20Z</time>
      </trkpt>
      <trkpt lat="40.219102" lon="-7.837373">
        <ele>1217.087</ele>
        <time>2019-05-29T12:16:40Z</time>
      </trkpt>
      <trkpt lat="40.218983" lon="-7.837082">
        <ele>1216.042</ele>
        <time>2019-05-29T12:17:00Z</time>
      </trkpt>
      <trkpt lat="40.218929" lon="-7.836919">
        <ele>1215.026</ele>
        <time>2019-05-29T12:17:20Z</time>
      </trkpt>
      <trkpt lat="40.218777" lon="-7.836429">
        <ele>1216.008</ele>
        <time>2019-05-29T12:17:40Z</time>
      </trkpt>
      <trkpt lat="40.218635" lon="-7.835990">
        <ele>1222.081</ele>
        <time>2019-05-29T12:18:00Z</time>
      </trkpt>
      <trkpt lat="40.218542" lon="-7.835843">
        <ele>1224.014</ele>
        <time>2019-05-29T12:18:20Z</time>
      </trkpt>
      <trkpt lat="40.218086" lon="-7.834889">
        <ele>1227.087</ele>
        <time>2019-05-29T12:18:40Z</time>
      </trkpt>
      <trkpt lat="40.217474" lon="-7.833689">
        <ele>1240.075</ele>
        <time>2019-05-29T12:19:00Z</time>
      </trkpt>
      <trkpt lat="40.217335" lon="-7.833048">
        <ele>1237.062</ele>
        <time>2019-05-29T12:19:20Z</time>
      </trkpt>
      <trkpt lat="40.217212" lon="-7.832538">
        <ele>1238.033</ele>
        <time>2019-05-29T12:19:40Z</time>
      </trkpt>
      <trkpt lat="40.216990" lon="-7.832039">
        <ele>1243.030</ele>
        <time>2019-05-29T12:20:00Z</time>
      </trkpt>
      <trkpt lat="40.216828" lon="-7.831807">
        <ele>1245.022</ele>
        <time>2019-05-29T12:20:20Z</time>
      </trkpt>
      <trkpt lat="40.216609" lon="-7.831584">
        <ele>1245.088</ele>
        <time>2019-05-29T12:20:40Z</time>
      </trkpt>
      <trkpt lat="40.216485" lon="-7.831307">
        <ele>1245.024</ele>
        <time>2019-05-29T12:21:00Z</time>
      </trkpt>
      <trkpt lat="40.216291" lon="-7.830725">
        <ele>1245.026</ele>
        <time>2019-05-29T12:21:20Z</time>
      </trkpt>
      <trkpt lat="40.215863" lon="-7.830057">
        <ele>1247.008</ele>
        <time>2019-05-29T12:21:40Z</time>
      </trkpt>
      <trkpt lat="40.215861" lon="-7.829762">
        <ele>1251.051</ele>
        <time>2019-05-29T12:22:00Z</time>
      </trkpt>
      <trkpt lat="40.215839" lon="-7.829480">
        <ele>1251.094</ele>
        <time>2019-05-29T12:22:20Z</time>
      </trkpt>
      <trkpt lat="40.215864" lon="-7.829064">
        <ele>1252.097</ele>
        <time>2019-05-29T12:22:40Z</time>
      </trkpt>
      <trkpt lat="40.215768" lon="-7.828187">
        <ele>1255.065</ele>
        <time>2019-05-29T12:23:00Z</time>
      </trkpt>
      <trkpt lat="40.215758" lon="-7.827587">
        <ele>1252.082</ele>
        <time>2019-05-29T12:23:20Z</time>
      </trkpt>
      <trkpt lat="40.215747" lon="-7.827226">
        <ele>1251.033</ele>
        <time>2019-05-29T12:23:40Z</time>
      </trkpt>
      <trkpt lat="40.215680" lon="-7.826885">
        <ele>1248.080</ele>
        <time>2019-05-29T12:24:00Z</time>
      </trkpt>
      <trkpt lat="40.215392" lon="-7.826610">
        <ele>1257.062</ele>
        <time>2019-05-29T12:24:20Z</time>
      </trkpt>
      <trkpt lat="40.215238" lon="-7.826193">
        <ele>1259.059</ele>
        <time>2019-05-29T12:24:40Z</time>
      </trkpt>
      <trkpt lat="40.215233" lon="-7.825902">
        <ele>1258.003</ele>
        <time>2019-05-29T12:25:00Z</time>
      </trkpt>
      <trkpt lat="40.215304" lon="-7.825632">
        <ele>1255.023</ele>
        <time>2019-05-29T12:25:20Z</time>
      </trkpt>
      <trkpt lat="40.215544" lon="-7.825104">
        <ele>1252.008</ele>
        <time>2019-05-29T12:25:40Z</time>
      </trkpt>
      <trkpt lat="40.215592" lon="-7.824855">
        <ele>1252.018</ele>
        <time>2019-05-29T12:26:00Z</time>
      </trkpt>
      <trkpt lat="40.215601" lon="-7.824555">
        <ele>1250.011</ele>
        <time>2019-05-29T12:26:20Z</time>
      </trkpt>
      <trkpt lat="40.215534" lon="-7.824143">
        <ele>1250.044</ele>
        <time>2019-05-29T12:26:40Z</time>
      </trkpt>
      <trkpt lat="40.215498" lon="-7.823720">
        <ele>1253.012</ele>
        <time>2019-05-29T12:27:00Z</time>
      </trkpt>
      <trkpt lat="40.215725" lon="-7.823030">
        <ele>1250.049</ele>
        <time>2019-05-29T12:27:20Z</time>
      </trkpt>
      <trkpt lat="40.216126" lon="-7.822205">
        <ele>1249.090</ele>
        <time>2019-05-29T12:27:40Z</time>
      </trkpt>
      <trkpt lat="40.216276" lon="-7.821409">
        <ele>1253.097</ele>
        <time>2019-05-29T12:28:00Z</time>
      </trkpt>
      <trkpt lat="40.216420" lon="-7.821026">
        <ele>1254.049</ele>
        <time>2019-05-29T12:28:20Z</time>
      </trkpt>
      <trkpt lat="40.216609" lon="-7.820671">
        <ele>1256.047</ele>
        <time>2019-05-29T12:28:40Z</time>
      </trkpt>
      <trkpt lat="40.216985" lon="-7.819928">
        <ele>1253.029</ele>
        <time>2019-05-29T12:29:00Z</time>
      </trkpt>
      <trkpt lat="40.217059" lon="-7.819508">
        <ele>1254.021</ele>
        <time>2019-05-29T12:29:20Z</time>
      </trkpt>
      <trkpt lat="40.217293" lon="-7.818777">
        <ele>1255.008</ele>
        <time>2019-05-29T12:29:40Z</time>
      </trkpt>
      <trkpt lat="40.217478" lon="-7.818241">
        <ele>1257.067</ele>
        <time>2019-05-29T12:30:00Z</time>
      </trkpt>
      <trkpt lat="40.217575" lon="-7.818019">
        <ele>1258.060</ele>
        <time>2019-05-29T12:30:20Z</time>
      </trkpt>
      <trkpt lat="40.217753" lon="-7.817657">
        <ele>1255.023</ele>
        <time>2019-05-29T12:30:40Z</time>
      </trkpt>
      <trkpt lat="40.217991" lon="-7.817094">
        <ele>1258.031</ele>
        <time>2019-05-29T12:31:00Z</time>
      </trkpt>
      <trkpt lat="40.218282" lon="-7.816459">
        <ele>1260.088</ele>
        <time>2019-05-29T12:31:20Z</time>
      </trkpt>
      <trkpt lat="40.218622" lon="-7.815841">
        <ele>1261.049</ele>
        <time>2019-05-29T12:31:40Z</time>
      </trkpt>
      <trkpt lat="40.218964" lon="-7.815236">
        <ele>1262.076</ele>
        <time>2019-05-29T12:32:00Z</time>
      </trkpt>
      <trkpt lat="40.219384" lon="-7.815032">
        <ele>1259.098</ele>
        <time>2019-05-29T12:32:20Z</time>
      </trkpt>
      <trkpt lat="40.219635" lon="-7.814597">
        <ele>1261.018</ele>
        <time>2019-05-29T12:32:40Z</time>
      </trkpt>
      <trkpt lat="40.219845" lon="-7.814374">
        <ele>1260.098</ele>
        <time>2019-05-29T12:33:00Z</time>
      </trkpt>
      <trkpt lat="40.220121" lon="-7.814297">
        <ele>1257.017</ele>
        <time>2019-05-29T12:33:20Z</time>
      </trkpt>
      <trkpt lat="40.220326" lon="-7.814070">
        <ele>1256.008</ele>
        <time>2019-05-29T12:33:40Z</time>
      </trkpt>
      <trkpt lat="40.220493" lon="-7.813764">
        <ele>1259.064</ele>
        <time>2019-05-29T12:34:00Z</time>
      </trkpt>
      <trkpt lat="40.220718" lon="-7.813626">
        <ele>1262.097</ele>
        <time>2019-05-29T12:34:20Z</time>
      </trkpt>
      <trkpt lat="40.221044" lon="-7.813455">
        <ele>1261.060</ele>
        <time>2019-05-29T12:34:40Z</time>
      </trkpt>
      <trkpt lat="40.221731" lon="-7.812671">
        <ele>1264.028</ele>
        <time>2019-05-29T12:35:00Z</time>
      </trkpt>
      <trkpt lat="40.221912" lon="-7.812409">
        <ele>1263.045</ele>
        <time>2019-05-29T12:35:20Z</time>
      </trkpt>
      <trkpt lat="40.222010" lon="-7.811964">
        <ele>1264.026</ele>
        <time>2019-05-29T12:35:40Z</time>
      </trkpt>
      <trkpt lat="40.222025" lon="-7.811429">
        <ele>1266.093</ele>
        <time>2019-05-29T12:36:00Z</time>
      </trkpt>
      <trkpt lat="40.222300" lon="-7.810698">
        <ele>1263.055</ele>
        <time>2019-05-29T12:36:20Z</time>
      </trkpt>
      <trkpt lat="40.222754" lon="-7.809791">
        <ele>1266.031</ele>
        <time>2019-05-29T12:36:40Z</time>
      </trkpt>
      <trkpt lat="40.223458" lon="-7.808836">
        <ele>1264.061</ele>
        <time>2019-05-29T12:37:00Z</time>
      </trkpt>
      <trkpt lat="40.223885" lon="-7.807393">
        <ele>1259.007</ele>
        <time>2019-05-29T12:37:20Z</time>
      </trkpt>
      <trkpt lat="40.223876" lon="-7.806862">
        <ele>1259.008</ele>
        <time>2019-05-29T12:37:40Z</time>
      </trkpt>
      <trkpt lat="40.223649" lon="-7.803834">
        <ele>1263.036</ele>
        <time>2019-05-29T12:38:00Z</time>
      </trkpt>
      <trkpt lat="40.222864" lon="-7.800978">
        <ele>1287.079</ele>
        <time>2019-05-29T12:38:20Z</time>
      </trkpt>
      <trkpt lat="40.222755" lon="-7.798756">
        <ele>1294.052</ele>
        <time>2019-05-29T12:38:40Z</time>
      </trkpt>
      <trkpt lat="40.222892" lon="-7.796862">
        <ele>1291.010</ele>
        <time>2019-05-29T12:39:00Z</time>
      </trkpt>
      <trkpt lat="40.223314" lon="-7.795601">
        <ele>1272.017</ele>
        <time>2019-05-29T12:39:20Z</time>
      </trkpt>
      <trkpt lat="40.224232" lon="-7.795175">
        <ele>1275.018</ele>
        <time>2019-05-29T12:39:40Z</time>
      </trkpt>
      <trkpt lat="40.224982" lon="-7.794247">
        <ele>1263.015</ele>
        <time>2019-05-29T12:40:00Z</time>
      </trkpt>
      <trkpt lat="40.225400" lon="-7.793381">
        <ele>1251.037</ele>
        <time>2019-05-29T12:40:20Z</time>
      </trkpt>
      <trkpt lat="40.225549" lon="-7.792629">
        <ele>1241.057</ele>
        <time>2019-05-29T12:40:40Z</time>
      </trkpt>
      <trkpt lat="40.225709" lon="-7.791928">
        <ele>1228.000</ele>
        <time>2019-05-29T12:41:00Z</time>
      </trkpt>
      <trkpt lat="40.225735" lon="-7.791581">
        <ele>1224.020</ele>
        <time>2019-05-29T12:41:20Z</time>
      </trkpt>
      <trkpt lat="40.225739" lon="-7.791148">
        <ele>1220.008</ele>
        <time>2019-05-29T12:41:40Z</time>
      </trkpt>
      <trkpt lat="40.225887" lon="-7.790827">
        <ele>1222.028</ele>
        <time>2019-05-29T12:42:00Z</time>
      </trkpt>
      <trkpt lat="40.225929" lon="-7.790637">
        <ele>1222.091</ele>
        <time>2019-05-29T12:42:20Z</time>
      </trkpt>
      <trkpt lat="40.225910" lon="-7.789803">
        <ele>1220.044</ele>
        <time>2019-05-29T12:42:40Z</time>
      </trkpt>
      <trkpt lat="40.225836" lon="-7.789106">
        <ele>1220.022</ele>
        <time>2019-05-29T12:43:00Z</time>
      </trkpt>
      <trkpt lat="40.225770" lon="-7.787747">
        <ele>1213.019</ele>
        <time>2019-05-29T12:43:20Z</time>
      </trkpt>
      <trkpt lat="40.225834" lon="-7.787239">
        <ele>1210.020</ele>
        <time>2019-05-29T12:43:40Z</time>
      </trkpt>
      <trkpt lat="40.225892" lon="-7.786983">
        <ele>1207.037</ele>
        <time>2019-05-29T12:44:00Z</time>
      </trkpt>
      <trkpt lat="40.225908" lon="-7.786802">
        <ele>1204.029</ele>
        <time>2019-05-29T12:44:20Z</time>
      </trkpt>
      <trkpt lat="40.225639" lon="-7.785729">
        <ele>1191.035</ele>
        <time>2019-05-29T12:44:40Z</time>
      </trkpt>
      <trkpt lat="40.225197" lon="-7.784907">
        <ele>1185.086</ele>
        <time>2019-05-29T12:45:00Z</time>
      </trkpt>
      <trkpt lat="40.225096" lon="-7.784625">
        <ele>1182.014</ele>
        <time>2019-05-29T12:45:20Z</time>
      </trkpt>
      <trkpt lat="40.225023" lon="-7.784165">
        <ele>1173.008</ele>
        <time>2019-05-29T12:45:40Z</time>
      </trkpt>
      <trkpt lat="40.225096" lon="-7.783639">
        <ele>1173.036</ele>
        <time>2019-05-29T12:46:00Z</time>
      </trkpt>
      <trkpt lat="40.225096" lon="-7.783629">
        <ele>1172.069</ele>
        <time>2019-05-29T12:46:20Z</time>
      </trkpt>
      <trkpt lat="40.225119" lon="-7.783380">
        <ele>1173.032</ele>
        <time>2019-05-29T12:46:40Z</time>
      </trkpt>
      <trkpt lat="40.225030" lon="-7.783041">
        <ele>1172.060</ele>
        <time>2019-05-29T12:47:00Z</time>
      </trkpt>
      <trkpt lat="40.224709" lon="-7.782312">
        <ele>1167.067</ele>
        <time>2019-05-29T12:47:20Z</time>
      </trkpt>
      <trkpt lat="40.224538" lon="-7.782220">
        <ele>1163.028</ele>
        <time>2019-05-29T12:47:40Z</time>
      </trkpt>
      <trkpt lat="40.224268" lon="-7.782102">
        <ele>1158.065</ele>
        <time>2019-05-29T12:48:00Z</time>
      </trkpt>
      <trkpt lat="40.223975" lon="-7.781986">
        <ele>1155.037</ele>
        <time>2019-05-29T12:48:20Z</time>
      </trkpt>
      <trkpt lat="40.223694" lon="-7.781898">
        <ele>1152.033</ele>
        <time>2019-05-29T12:48:40Z</time>
      </trkpt>
      <trkpt lat="40.222501" lon="-7.779907">
        <ele>1126.023</ele>
        <time>2019-05-29T12:49:00Z</time>
      </trkpt>
      <trkpt lat="40.222826" lon="-7.779420">
        <ele>1120.015</ele>
        <time>2019-05-29T12:49:20Z</time>
      </trkpt>
      <trkpt lat="40.223007" lon="-7.779430">
        <ele>1125.008</ele>
        <time>2019-05-29T12:49:40Z</time>
      </trkpt>
      <trkpt lat="40.223131" lon="-7.778960">
        <ele>1120.056</ele>
        <time>2019-05-29T12:50:00Z</time>
      </trkpt>
      <trkpt lat="40.223217" lon="-7.778879">
        <ele>1121.019</ele>
        <time>2019-05-29T12:50:20Z</time>
      </trkpt>
      <trkpt lat="40.223234" lon="-7.778750">
        <ele>1122.092</ele>
        <time>2019-05-29T12:50:40Z</time>
      </trkpt>
      <trkpt lat="40.222969" lon="-7.778900">
        <ele>1117.090</ele>
        <time>2019-05-29T12:51:00Z</time>
      </trkpt>
      <trkpt lat="40.222702" lon="-7.778677">
        <ele>1115.087</ele>
        <time>2019-05-29T12:51:20Z</time>
      </trkpt>
      <trkpt lat="40.221243" lon="-7.777647">
        <ele>1089.018</ele>
        <time>2019-05-29T12:51:40Z</time>
      </trkpt>
      <trkpt lat="40.220951" lon="-7.777616">
        <ele>1084.045</ele>
        <time>2019-05-29T12:52:00Z</time>
      </trkpt>
      <trkpt lat="40.220246" lon="-7.776859">
        <ele>1077.087</ele>
        <time>2019-05-29T12:52:20Z</time>
      </trkpt>
      <trkpt lat="40.220035" lon="-7.776670">
        <ele>1072.054</ele>
        <time>2019-05-29T12:52:40Z</time>
      </trkpt>
      <trkpt lat="40.219568" lon="-7.776384">
        <ele>1061.056</ele>
        <time>2019-05-29T12:53:00Z</time>
      </trkpt>
      <trkpt lat="40.219479" lon="-7.776374">
        <ele>1060.011</ele>
        <time>2019-05-29T12:53:20Z</time>
      </trkpt>
      <trkpt lat="40.219115" lon="-7.775976">
        <ele>1057.008</ele>
        <time>2019-05-29T12:53:40Z</time>
      </trkpt>
      <trkpt lat="40.218956" lon="-7.775836">
        <ele>1056.028</ele>
        <time>2019-05-29T12:54:00Z</time>
      </trkpt>
      <trkpt lat="40.218245" lon="-7.775994">
        <ele>1052.051</ele>
        <time>2019-05-29T12:54:20Z</time>
      </trkpt>
      <trkpt lat="40.217864" lon="-7.775900">
        <ele>1050.064</ele>
        <time>2019-05-29T12:54:40Z</time>
      </trkpt>
      <trkpt lat="40.217590" lon="-7.776044">
        <ele>1049.072</ele>
        <time>2019-05-29T12:55:00Z</time>
      </trkpt>
      <trkpt lat="40.217333" lon="-7.776131">
        <ele>1049.029</ele>
        <time>2019-05-29T12:55:20Z</time>
      </trkpt>
      <trkpt lat="40.217090" lon="-7.776481">
        <ele>1051.080</ele>
        <time>2019-05-29T12:55:40Z</time>
      </trkpt>
      <trkpt lat="40.216741" lon="-7.776640">
        <ele>1056.017</ele>
        <time>2019-05-29T12:56:00Z</time>
      </trkpt>
      <trkpt lat="40.216773" lon="-7.776320">
        <ele>1058.089</ele>
        <time>2019-05-29T12:56:20Z</time>
      </trkpt>
      <trkpt lat="40.216582" lon="-7.776012">
        <ele>1059.017</ele>
        <time>2019-05-29T12:56:40Z</time>
      </trkpt>
      <trkpt lat="40.216353" lon="-7.775987">
        <ele>1066.087</ele>
        <time>2019-05-29T12:57:00Z</time>
      </trkpt>
      <trkpt lat="40.215496" lon="-7.776335">
        <ele>1079.015</ele>
        <time>2019-05-29T12:57:20Z</time>
      </trkpt>
      <trkpt lat="40.214906" lon="-7.777050">
        <ele>1088.008</ele>
        <time>2019-05-29T12:57:40Z</time>
      </trkpt>
      <trkpt lat="40.214281" lon="-7.778041">
        <ele>1096.094</ele>
        <time>2019-05-29T12:58:00Z</time>
      </trkpt>
      <trkpt lat="40.214136" lon="-7.778080">
        <ele>1101.097</ele>
        <time>2019-05-29T12:58:20Z</time>
      </trkpt>
      <trkpt lat="40.213858" lon="-7.778535">
        <ele>1103.020</ele>
        <time>2019-05-29T12:58:40Z</time>
      </trkpt>
      <trkpt lat="40.213632" lon="-7.779154">
        <ele>1115.018</ele>
        <time>2019-05-29T12:59:00Z</time>
      </trkpt>
      <trkpt lat="40.213207" lon="-7.779811">
        <ele>1118.035</ele>
        <time>2019-05-29T12:59:20Z</time>
      </trkpt>
      <trkpt lat="40.212824" lon="-7.780272">
        <ele>1125.036</ele>
        <time>2019-05-29T12:59:40Z</time>
      </trkpt>
      <trkpt lat="40.211885" lon="-7.781213">
        <ele>1135.063</ele>
        <time>2019-05-29T13:00:00Z</time>
      </trkpt>
      <trkpt lat="40.211557" lon="-7.781554">
        <ele>1139.075</ele>
        <time>2019-05-29T13:00:20Z</time>
      </trkpt>
      <trkpt lat="40.211246" lon="-7.781888">
        <ele>1138.028</ele>
        <time>2019-05-29T13:00:40Z</time>
      </trkpt>
      <trkpt lat="40.210994" lon="-7.781997">
        <ele>1138.089</ele>
        <time>2019-05-29T13:01:00Z</time>
      </trkpt>
      <trkpt lat="40.210181" lon="-7.782188">
        <ele>1142.017</ele>
        <time>2019-05-29T13:01:20Z</time>
      </trkpt>
      <trkpt lat="40.209635" lon="-7.782312">
        <ele>1133.008</ele>
        <time>2019-05-29T13:01:40Z</time>
      </trkpt>
      <trkpt lat="40.209493" lon="-7.782428">
        <ele>1130.015</ele>
        <time>2019-05-29T13:02:00Z</time>
      </trkpt>
      <trkpt lat="40.209260" lon="-7.783003">
        <ele>1134.018</ele>
        <time>2019-05-29T13:02:20Z</time>
      </trkpt>
      <trkpt lat="40.208942" lon="-7.783392">
        <ele>1138.081</ele>
        <time>2019-05-29T13:02:40Z</time>
      </trkpt>
      <trkpt lat="40.208770" lon="-7.783739">
        <ele>1141.019</ele>
        <time>2019-05-29T13:03:00Z</time>
      </trkpt>
      <trkpt lat="40.208350" lon="-7.784294">
        <ele>1145.086</ele>
        <time>2019-05-29T13:03:20Z</time>
      </trkpt>
      <trkpt lat="40.208027" lon="-7.784525">
        <ele>1145.097</ele>
        <time>2019-05-29T13:03:40Z</time>
      </trkpt>
      <trkpt lat="40.207808" lon="-7.784947">
        <ele>1143.014</ele>
        <time>2019-05-29T13:04:00Z</time>
      </trkpt>
      <trkpt lat="40.207887" lon="-7.785390">
        <ele>1143.086</ele>
        <time>2019-05-29T13:04:20Z</time>
      </trkpt>
      <trkpt lat="40.207799" lon="-7.785932">
        <ele>1141.063</ele>
        <time>2019-05-29T13:04:40Z</time>
      </trkpt>
      <trkpt lat="40.207644" lon="-7.786338">
        <ele>1139.044</ele>
        <time>2019-05-29T13:05:00Z</time>
      </trkpt>
      <trkpt lat="40.207459" lon="-7.786589">
        <ele>1139.018</ele>
        <time>2019-05-29T13:05:20Z</time>
      </trkpt>
      <trkpt lat="40.206777" lon="-7.787012">
        <ele>1136.008</ele>
        <time>2019-05-29T13:05:40Z</time>
      </trkpt>
      <trkpt lat="40.206546" lon="-7.787307">
        <ele>1134.049</ele>
        <time>2019-05-29T13:06:00Z</time>
      </trkpt>
      <trkpt lat="40.206373" lon="-7.788052">
        <ele>1143.022</ele>
        <time>2019-05-29T13:06:20Z</time>
      </trkpt>
      <trkpt lat="40.205901" lon="-7.789019">
        <ele>1142.095</ele>
        <time>2019-05-29T13:06:40Z</time>
      </trkpt>
      <trkpt lat="40.205423" lon="-7.789512">
        <ele>1143.063</ele>
        <time>2019-05-29T13:07:00Z</time>
      </trkpt>
      <trkpt lat="40.205010" lon="-7.789633">
        <ele>1141.080</ele>
        <time>2019-05-29T13:07:20Z</time>
      </trkpt>
      <trkpt lat="40.204737" lon="-7.789672">
        <ele>1141.011</ele>
        <time>2019-05-29T13:07:40Z</time>
      </trkpt>
      <trkpt lat="40.204101" lon="-7.790527">
        <ele>1139.088</ele>
        <time>2019-05-29T13:08:00Z</time>
      </trkpt>
      <trkpt lat="40.203847" lon="-7.791526">
        <ele>1146.020</ele>
        <time>2019-05-29T13:08:20Z</time>
      </trkpt>
      <trkpt lat="40.203326" lon="-7.792751">
        <ele>1134.056</ele>
        <time>2019-05-29T13:08:40Z</time>
      </trkpt>
      <trkpt lat="40.203055" lon="-7.793320">
        <ele>1130.059</ele>
        <time>2019-05-29T13:09:00Z</time>
      </trkpt>
      <trkpt lat="40.203027" lon="-7.793668">
        <ele>1127.014</ele>
        <time>2019-05-29T13:09:20Z</time>
      </trkpt>
      <trkpt lat="40.203051" lon="-7.793956">
        <ele>1124.008</ele>
        <time>2019-05-29T13:09:40Z</time>
      </trkpt>
      <trkpt lat="40.202938" lon="-7.794315">
        <ele>1119.038</ele>
        <time>2019-05-29T13:10:00Z</time>
      </trkpt>
      <trkpt lat="40.202549" lon="-7.795091">
        <ele>1111.031</ele>
        <time>2019-05-29T13:10:20Z</time>
      </trkpt>
      <trkpt lat="40.202323" lon="-7.795366">
        <ele>1108.034</ele>
        <time>2019-05-29T13:10:40Z</time>
      </trkpt>
      <trkpt lat="40.201987" lon="-7.795638">
        <ele>1107.022</ele>
        <time>2019-05-29T13:11:00Z</time>
      </trkpt>
      <trkpt lat="40.201318" lon="-7.795877">
        <ele>1103.089</ele>
        <time>2019-05-29T13:11:20Z</time>
      </trkpt>
      <trkpt lat="40.201148" lon="-7.795950">
        <ele>1102.030</ele>
        <time>2019-05-29T13:11:40Z</time>
      </trkpt>
      <trkpt lat="40.200926" lon="-7.795925">
        <ele>1101.017</ele>
        <time>2019-05-29T13:12:00Z</time>
      </trkpt>
      <trkpt lat="40.199946" lon="-7.795984">
        <ele>1107.059</ele>
        <time>2019-05-29T13:12:20Z</time>
      </trkpt>
      <trkpt lat="40.199787" lon="-7.796117">
        <ele>1105.056</ele>
        <time>2019-05-29T13:12:40Z</time>
      </trkpt>
      <trkpt lat="40.199638" lon="-7.796351">
        <ele>1104.059</ele>
        <time>2019-05-29T13:13:00Z</time>
      </trkpt>
      <trkpt lat="40.199309" lon="-7.796655">
        <ele>1103.014</ele>
        <time>2019-05-29T13:13:20Z</time>
      </trkpt>
      <trkpt lat="40.198738" lon="-7.797447">
        <ele>1108.008</ele>
        <time>2019-05-29T13:13:40Z</time>
      </trkpt>
      <trkpt lat="40.198557" lon="-7.797506">
        <ele>1106.038</ele>
        <time>2019-05-29T13:14:00Z</time>
      </trkpt>
      <trkpt lat="40.198235" lon="-7.797596">
        <ele>1103.011</ele>
        <time>2019-05-29T13:14:20Z</time>
      </trkpt>
      <trkpt lat="40.197766" lon="-7.797982">
        <ele>1109.084</ele>
        <time>2019-05-29T13:14:40Z</time>
      </trkpt>
      <trkpt lat="40.197167" lon="-7.798318">
        <ele>1113.092</ele>
        <time>2019-05-29T13:15:00Z</time>
      </trkpt>
      <trkpt lat="40.196406" lon="-7.798907">
        <ele>1114.019</ele>
        <time>2019-05-29T13:15:20Z</time>
      </trkpt>
      <trkpt lat="40.195852" lon="-7.799510">
        <ele>1129.030</ele>
        <time>2019-05-29T13:15:40Z</time>
      </trkpt>
      <trkpt lat="40.195561" lon="-7.799755">
        <ele>1133.077</ele>
        <time>2019-05-29T13:16:00Z</time>
      </trkpt>
      <trkpt lat="40.195328" lon="-7.800053">
        <ele>1136.019</ele>
        <time>2019-05-29T13:16:20Z</time>
      </trkpt>
      <trkpt lat="40.194792" lon="-7.800782">
        <ele>1145.083</ele>
        <time>2019-05-29T13:16:40Z</time>
      </trkpt>
      <trkpt lat="40.194564" lon="-7.801122">
        <ele>1147.025</ele>
        <time>2019-05-29T13:17:00Z</time>
      </trkpt>
      <trkpt lat="40.194112" lon="-7.801422">
        <ele>1155.017</ele>
        <time>2019-05-29T13:17:20Z</time>
      </trkpt>
      <trkpt lat="40.193719" lon="-7.801821">
        <ele>1162.008</ele>
        <time>2019-05-29T13:17:40Z</time>
      </trkpt>
      <trkpt lat="40.193113" lon="-7.802401">
        <ele>1175.031</ele>
        <time>2019-05-29T13:18:00Z</time>
      </trkpt>
      <trkpt lat="40.192813" lon="-7.802680">
        <ele>1180.024</ele>
        <time>2019-05-29T13:18:20Z</time>
      </trkpt>
      <trkpt lat="40.192349" lon="-7.802916">
        <ele>1190.017</ele>
        <time>2019-05-29T13:18:40Z</time>
      </trkpt>
      <trkpt lat="40.191855" lon="-7.803120">
        <ele>1193.095</ele>
        <time>2019-05-29T13:19:00Z</time>
      </trkpt>
      <trkpt lat="40.191516" lon="-7.803063">
        <ele>1199.082</ele>
        <time>2019-05-29T13:19:20Z</time>
      </trkpt>
      <trkpt lat="40.191329" lon="-7.802908">
        <ele>1205.073</ele>
        <time>2019-05-29T13:19:40Z</time>
      </trkpt>
      <trkpt lat="40.191180" lon="-7.802641">
        <ele>1211.010</ele>
        <time>2019-05-29T13:20:00Z</time>
      </trkpt>
      <trkpt lat="40.191121" lon="-7.802457">
        <ele>1213.092</ele>
        <time>2019-05-29T13:20:20Z</time>
      </trkpt>
      <trkpt lat="40.190712" lon="-7.802067">
        <ele>1217.056</ele>
        <time>2019-05-29T13:20:40Z</time>
      </trkpt>
      <trkpt lat="40.190585" lon="-7.802019">
        <ele>1219.059</ele>
        <time>2019-05-29T13:21:00Z</time>
      </trkpt>
      <trkpt lat="40.190363" lon="-7.802129">
        <ele>1221.014</ele>
        <time>2019-05-29T13:21:20Z</time>
      </trkpt>
      <trkpt lat="40.189946" lon="-7.802570">
        <ele>1224.008</ele>
        <time>2019-05-29T13:21:40Z</time>
      </trkpt>
      <trkpt lat="40.189470" lon="-7.803111">
        <ele>1230.098</ele>
        <time>2019-05-29T13:22:00Z</time>
      </trkpt>
      <trkpt lat="40.189167" lon="-7.803543">
        <ele>1229.091</ele>
        <time>2019-05-29T13:22:20Z</time>
      </trkpt>
      <trkpt lat="40.188885" lon="-7.803842">
        <ele>1231.014</ele>
        <time>2019-05-29T13:22:40Z</time>
      </trkpt>
      <trkpt lat="40.188569" lon="-7.803928">
        <ele>1232.032</ele>
        <time>2019-05-29T13:23:00Z</time>
      </trkpt>
      <trkpt lat="40.188326" lon="-7.803996">
        <ele>1232.019</ele>
        <time>2019-05-29T13:23:20Z</time>
      </trkpt>
      <trkpt lat="40.188262" lon="-7.804037">
        <ele>1233.070</ele>
        <time>2019-05-29T13:23:40Z</time>
      </trkpt>
      <trkpt lat="40.188043" lon="-7.804657">
        <ele>1238.077</ele>
        <time>2019-05-29T13:24:00Z</time>
      </trkpt>
      <trkpt lat="40.187744" lon="-7.805131">
        <ele>1248.049</ele>
        <time>2019-05-29T13:24:20Z</time>
      </trkpt>
      <trkpt lat="40.187554" lon="-7.805512">
        <ele>1252.089</ele>
        <time>2019-05-29T13:24:40Z</time>
      </trkpt>
      <trkpt lat="40.187263" lon="-7.806154">
        <ele>1260.006</ele>
        <time>2019-05-29T13:25:00Z</time>
      </trkpt>
      <trkpt lat="40.187040" lon="-7.806780">
        <ele>1270.026</ele>
        <time>2019-05-29T13:25:20Z</time>
      </trkpt>
      <trkpt lat="40.186928" lon="-7.807382">
        <ele>1273.008</ele>
        <time>2019-05-29T13:25:40Z</time>
      </trkpt>
      <trkpt lat="40.186818" lon="-7.807693">
        <ele>1276.041</ele>
        <time>2019-05-29T13:26:00Z</time>
      </trkpt>
      <trkpt lat="40.186789" lon="-7.807777">
        <ele>1276.084</ele>
        <time>2019-05-29T13:26:20Z</time>
      </trkpt>
      <trkpt lat="40.186730" lon="-7.807779">
        <ele>1278.047</ele>
        <time>2019-05-29T13:26:40Z</time>
      </trkpt>
      <trkpt lat="40.186695" lon="-7.807663">
        <ele>1281.085</ele>
        <time>2019-05-29T13:27:00Z</time>
      </trkpt>
      <trkpt lat="40.186815" lon="-7.807378">
        <ele>1278.012</ele>
        <time>2019-05-29T13:27:20Z</time>
      </trkpt>
      <trkpt lat="40.186782" lon="-7.806398">
        <ele>1285.033</ele>
        <time>2019-05-29T13:27:40Z</time>
      </trkpt>
      <trkpt lat="40.186616" lon="-7.805881">
        <ele>1290.050</ele>
        <time>2019-05-29T13:28:00Z</time>
      </trkpt>
      <trkpt lat="40.186601" lon="-7.806104">
        <ele>1292.022</ele>
        <time>2019-05-29T13:28:20Z</time>
      </trkpt>
      <trkpt lat="40.186619" lon="-7.806264">
        <ele>1292.047</ele>
        <time>2019-05-29T13:28:40Z</time>
      </trkpt>
      <trkpt lat="40.186537" lon="-7.806633">
        <ele>1296.029</ele>
        <time>2019-05-29T13:29:00Z</time>
      </trkpt>
      <trkpt lat="40.186402" lon="-7.806963">
        <ele>1302.021</ele>
        <time>2019-05-29T13:29:20Z</time>
      </trkpt>
      <trkpt lat="40.186254" lon="-7.807352">
        <ele>1305.008</ele>
        <time>2019-05-29T13:29:40Z</time>
      </trkpt>
      <trkpt lat="40.185861" lon="-7.808003">
        <ele>1310.087</ele>
        <time>2019-05-29T13:30:00Z</time>
      </trkpt>
      <trkpt lat="40.185551" lon="-7.808358">
        <ele>1314.070</ele>
        <time>2019-05-29T13:30:20Z</time>
      </trkpt>
      <trkpt lat="40.185316" lon="-7.808566">
        <ele>1319.083</ele>
        <time>2019-05-29T13:30:40Z</time>
      </trkpt>
      <trkpt lat="40.185114" lon="-7.808715">
        <ele>1323.091</ele>
        <time>2019-05-29T13:31:00Z</time>
      </trkpt>
      <trkpt lat="40.185020" lon="-7.808816">
        <ele>1324.088</ele>
        <time>2019-05-29T13:31:20Z</time>
      </trkpt>
      <trkpt lat="40.185007" lon="-7.808701">
        <ele>1327.099</ele>
        <time>2019-05-29T13:31:40Z</time>
      </trkpt>
      <trkpt lat="40.185283" lon="-7.808071">
        <ele>1331.096</ele>
        <time>2019-05-29T13:32:00Z</time>
      </trkpt>
      <trkpt lat="40.185338" lon="-7.807573">
        <ele>1338.018</ele>
        <time>2019-05-29T13:32:20Z</time>
      </trkpt>
      <trkpt lat="40.185230" lon="-7.807203">
        <ele>1340.037</ele>
        <time>2019-05-29T13:32:40Z</time>
      </trkpt>
      <trkpt lat="40.185030" lon="-7.807122">
        <ele>1343.049</ele>
        <time>2019-05-29T13:33:00Z</time>
      </trkpt>
      <trkpt lat="40.184475" lon="-7.807131">
        <ele>1349.013</ele>
        <time>2019-05-29T13:33:20Z</time>
      </trkpt>
      <trkpt lat="40.184189" lon="-7.807333">
        <ele>1353.008</ele>
        <time>2019-05-29T13:33:40Z</time>
      </trkpt>
      <trkpt lat="40.183927" lon="-7.807756">
        <ele>1361.066</ele>
        <time>2019-05-29T13:34:00Z</time>
      </trkpt>
      <trkpt lat="40.183739" lon="-7.808045">
        <ele>1367.019</ele>
        <time>2019-05-29T13:34:20Z</time>
      </trkpt>
      <trkpt lat="40.183618" lon="-7.808272">
        <ele>1372.032</ele>
        <time>2019-05-29T13:34:40Z</time>
      </trkpt>
      <trkpt lat="40.183441" lon="-7.808941">
        <ele>1377.080</ele>
        <time>2019-05-29T13:35:00Z</time>
      </trkpt>
      <trkpt lat="40.183295" lon="-7.808602">
        <ele>1383.077</ele>
        <time>2019-05-29T13:35:20Z</time>
      </trkpt>
      <trkpt lat="40.183007" lon="-7.808409">
        <ele>1388.038</ele>
        <time>2019-05-29T13:35:40Z</time>
      </trkpt>
      <trkpt lat="40.182657" lon="-7.808355">
        <ele>1391.045</ele>
        <time>2019-05-29T13:36:00Z</time>
      </trkpt>
      <trkpt lat="40.182391" lon="-7.808563">
        <ele>1399.077</ele>
        <time>2019-05-29T13:36:20Z</time>
      </trkpt>
      <trkpt lat="40.182178" lon="-7.808825">
        <ele>1406.084</ele>
        <time>2019-05-29T13:36:40Z</time>
      </trkpt>
      <trkpt lat="40.181945" lon="-7.809123">
        <ele>1409.007</ele>
        <time>2019-05-29T13:37:00Z</time>
      </trkpt>
      <trkpt lat="40.181868" lon="-7.809435">
        <ele>1410.017</ele>
        <time>2019-05-29T13:37:20Z</time>
      </trkpt>
      <trkpt lat="40.182001" lon="-7.809103">
        <ele>1408.008</ele>
        <time>2019-05-29T13:37:40Z</time>
      </trkpt>
      <trkpt lat="40.182179" lon="-7.808897">
        <ele>1406.041</ele>
        <time>2019-05-29T13:38:00Z</time>
      </trkpt>
      <trkpt lat="40.182298" lon="-7.808684">
        <ele>1403.044</ele>
        <time>2019-05-29T13:38:20Z</time>
      </trkpt>
      <trkpt lat="40.182386" lon="-7.808605">
        <ele>1400.097</ele>
        <time>2019-05-29T13:38:40Z</time>
      </trkpt>
      <trkpt lat="40.182133" lon="-7.808394">
        <ele>1400.095</ele>
        <time>2019-05-29T13:39:00Z</time>
      </trkpt>
      <trkpt lat="40.181851" lon="-7.808228">
        <ele>1399.062</ele>
        <time>2019-05-29T13:39:20Z</time>
      </trkpt>
      <trkpt lat="40.181652" lon="-7.807749">
        <ele>1388.063</ele>
        <time>2019-05-29T13:39:40Z</time>
      </trkpt>
      <trkpt lat="40.181139" lon="-7.807083">
        <ele>1362.080</ele>
        <time>2019-05-29T13:40:00Z</time>
      </trkpt>
      <trkpt lat="40.180929" lon="-7.806723">
        <ele>1348.032</ele>
        <time>2019-05-29T13:40:20Z</time>
      </trkpt>
      <trkpt lat="40.180639" lon="-7.806481">
        <ele>1336.097</ele>
        <time>2019-05-29T13:40:40Z</time>
      </trkpt>
      <trkpt lat="40.180442" lon="-7.806098">
        <ele>1326.023</ele>
        <time>2019-05-29T13:41:00Z</time>
      </trkpt>
      <trkpt lat="40.180359" lon="-7.805922">
        <ele>1325.025</ele>
        <time>2019-05-29T13:41:20Z</time>
      </trkpt>
      <trkpt lat="40.179821" lon="-7.805442">
        <ele>1312.008</ele>
        <time>2019-05-29T13:41:40Z</time>
      </trkpt>
      <trkpt lat="40.179716" lon="-7.805342">
        <ele>1310.052</ele>
        <time>2019-05-29T13:42:00Z</time>
      </trkpt>
      <trkpt lat="40.179667" lon="-7.805056">
        <ele>1309.035</ele>
        <time>2019-05-29T13:42:20Z</time>
      </trkpt>
      <trkpt lat="40.179570" lon="-7.804913">
        <ele>1306.088</ele>
        <time>2019-05-29T13:42:40Z</time>
      </trkpt>
      <trkpt lat="40.179531" lon="-7.804678">
        <ele>1302.036</ele>
        <time>2019-05-29T13:43:00Z</time>
      </trkpt>
      <trkpt lat="40.179298" lon="-7.804291">
        <ele>1290.023</ele>
        <time>2019-05-29T13:43:20Z</time>
      </trkpt>
      <trkpt lat="40.178935" lon="-7.803723">
        <ele>1277.084</ele>
        <time>2019-05-29T13:43:40Z</time>
      </trkpt>
      <trkpt lat="40.178691" lon="-7.803292">
        <ele>1271.091</ele>
        <time>2019-05-29T13:44:00Z</time>
      </trkpt>
      <trkpt lat="40.178872" lon="-7.803137">
        <ele>1271.063</ele>
        <time>2019-05-29T13:44:20Z</time>
      </trkpt>
      <trkpt lat="40.178921" lon="-7.802975">
        <ele>1268.089</ele>
        <time>2019-05-29T13:44:40Z</time>
      </trkpt>
      <trkpt lat="40.178833" lon="-7.802591">
        <ele>1263.006</ele>
        <time>2019-05-29T13:45:00Z</time>
      </trkpt>
      <trkpt lat="40.178802" lon="-7.802151">
        <ele>1256.026</ele>
        <time>2019-05-29T13:45:20Z</time>
      </trkpt>
      <trkpt lat="40.178748" lon="-7.801925">
        <ele>1255.008</ele>
        <time>2019-05-29T13:45:40Z</time>
      </trkpt>
      <trkpt lat="40.178582" lon="-7.801286">
        <ele>1245.071</ele>
        <time>2019-05-29T13:46:00Z</time>
      </trkpt>
      <trkpt lat="40.178420" lon="-7.800755">
        <ele>1240.084</ele>
        <time>2019-05-29T13:46:20Z</time>
      </trkpt>
      <trkpt lat="40.178351" lon="-7.800405">
        <ele>1239.017</ele>
        <time>2019-05-29T13:46:40Z</time>
      </trkpt>
      <trkpt lat="40.178325" lon="-7.800171">
        <ele>1237.095</ele>
        <time>2019-05-29T13:47:00Z</time>
      </trkpt>
      <trkpt lat="40.178336" lon="-7.799537">
        <ele>1227.042</ele>
        <time>2019-05-29T13:47:20Z</time>
      </trkpt>
      <trkpt lat="40.178326" lon="-7.799276">
        <ele>1225.073</ele>
        <time>2019-05-29T13:47:40Z</time>
      </trkpt>
      <trkpt lat="40.178243" lon="-7.798727">
        <ele>1219.070</ele>
        <time>2019-05-29T13:48:00Z</time>
      </trkpt>
      <trkpt lat="40.178204" lon="-7.798301">
        <ele>1210.072</ele>
        <time>2019-05-29T13:48:20Z</time>
      </trkpt>
      <trkpt lat="40.178090" lon="-7.797867">
        <ele>1204.026</ele>
        <time>2019-05-29T13:48:40Z</time>
      </trkpt>
      <trkpt lat="40.178021" lon="-7.797437">
        <ele>1196.047</ele>
        <time>2019-05-29T13:49:00Z</time>
      </trkpt>
      <trkpt lat="40.177876" lon="-7.797130">
        <ele>1193.011</ele>
        <time>2019-05-29T13:49:20Z</time>
      </trkpt>
      <trkpt lat="40.177715" lon="-7.796880">
        <ele>1193.008</ele>
        <time>2019-05-29T13:49:40Z</time>
      </trkpt>
      <trkpt lat="40.177609" lon="-7.796493">
        <ele>1186.045</ele>
        <time>2019-05-29T13:50:00Z</time>
      </trkpt>
      <trkpt lat="40.177542" lon="-7.796134">
        <ele>1180.058</ele>
        <time>2019-05-29T13:50:20Z</time>
      </trkpt>
      <trkpt lat="40.177473" lon="-7.795877">
        <ele>1177.091</ele>
        <time>2019-05-29T13:50:40Z</time>
      </trkpt>
      <trkpt lat="40.177343" lon="-7.795582">
        <ele>1176.019</ele>
        <time>2019-05-29T13:51:00Z</time>
      </trkpt>
      <trkpt lat="40.177247" lon="-7.795416">
        <ele>1173.066</ele>
        <time>2019-05-29T13:51:20Z</time>
      </trkpt>
      <trkpt lat="40.176982" lon="-7.795162">
        <ele>1165.017</ele>
        <time>2019-05-29T13:51:40Z</time>
      </trkpt>
      <trkpt lat="40.176981" lon="-7.794952">
        <ele>1161.044</ele>
        <time>2019-05-29T13:52:00Z</time>
      </trkpt>
      <trkpt lat="40.177093" lon="-7.794505">
        <ele>1153.096</ele>
        <time>2019-05-29T13:52:20Z</time>
      </trkpt>
      <trkpt lat="40.177262" lon="-7.794325">
        <ele>1151.037</ele>
        <time>2019-05-29T13:52:40Z</time>
      </trkpt>
      <trkpt lat="40.177402" lon="-7.794274">
        <ele>1148.049</ele>
        <time>2019-05-29T13:53:00Z</time>
      </trkpt>
      <trkpt lat="40.177801" lon="-7.794415">
        <ele>1140.013</ele>
        <time>2019-05-29T13:53:20Z</time>
      </trkpt>
      <trkpt lat="40.177964" lon="-7.794611">
        <ele>1139.008</ele>
        <time>2019-05-29T13:53:40Z</time>
      </trkpt>
      <trkpt lat="40.178115" lon="-7.794875">
        <ele>1139.086</ele>
        <time>2019-05-29T13:54:00Z</time>
      </trkpt>
      <trkpt lat="40.178344" lon="-7.795346">
        <ele>1136.089</ele>
        <time>2019-05-29T13:54:20Z</time>
      </trkpt>
      <trkpt lat="40.178423" lon="-7.795507">
        <ele>1133.052</ele>
        <time>2019-05-29T13:54:40Z</time>
      </trkpt>
      <trkpt lat="40.178446" lon="-7.795722">
        <ele>1137.090</ele>
        <time>2019-05-29T13:55:00Z</time>
      </trkpt>
      <trkpt lat="40.178516" lon="-7.795814">
        <ele>1135.057</ele>
        <time>2019-05-29T13:55:20Z</time>
      </trkpt>
      <trkpt lat="40.178588" lon="-7.795383">
        <ele>1121.088</ele>
        <time>2019-05-29T13:55:40Z</time>
      </trkpt>
      <trkpt lat="40.178584" lon="-7.794917">
        <ele>1116.095</ele>
        <time>2019-05-29T13:56:00Z</time>
      </trkpt>
      <trkpt lat="40.178541" lon="-7.794316">
        <ele>1111.037</ele>
        <time>2019-05-29T13:56:20Z</time>
      </trkpt>
      <trkpt lat="40.178458" lon="-7.793251">
        <ele>1095.013</ele>
        <time>2019-05-29T13:56:40Z</time>
      </trkpt>
      <trkpt lat="40.178420" lon="-7.792394">
        <ele>1090.043</ele>
        <time>2019-05-29T13:57:00Z</time>
      </trkpt>
      <trkpt lat="40.178389" lon="-7.791822">
        <ele>1088.007</ele>
        <time>2019-05-29T13:57:20Z</time>
      </trkpt>
      <trkpt lat="40.178366" lon="-7.791524">
        <ele>1085.008</ele>
        <time>2019-05-29T13:57:40Z</time>
      </trkpt>
      <trkpt lat="40.178258" lon="-7.790920">
        <ele>1078.024</ele>
        <time>2019-05-29T13:58:00Z</time>
      </trkpt>
      <trkpt lat="40.178215" lon="-7.790610">
        <ele>1073.067</ele>
        <time>2019-05-29T13:58:20Z</time>
      </trkpt>
      <trkpt lat="40.178094" lon="-7.790331">
        <ele>1068.020</ele>
        <time>2019-05-29T13:58:40Z</time>
      </trkpt>
      <trkpt lat="40.177868" lon="-7.790123">
        <ele>1066.048</ele>
        <time>2019-05-29T13:59:00Z</time>
      </trkpt>
      <trkpt lat="40.177789" lon="-7.789967">
        <ele>1063.015</ele>
        <time>2019-05-29T13:59:20Z</time>
      </trkpt>
      <trkpt lat="40.177797" lon="-7.789885">
        <ele>1061.066</ele>
        <time>2019-05-29T13:59:40Z</time>
      </trkpt>
      <trkpt lat="40.178223" lon="-7.789598">
        <ele>1058.063</ele>
        <time>2019-05-29T14:00:00Z</time>
      </trkpt>
      <trkpt lat="40.178529" lon="-7.789253">
        <ele>1054.085</ele>
        <time>2019-05-29T14:00:20Z</time>
      </trkpt>
      <trkpt lat="40.178727" lon="-7.788990">
        <ele>1049.022</ele>
        <time>2019-05-29T14:00:40Z</time>
      </trkpt>
      <trkpt lat="40.179299" lon="-7.788126">
        <ele>1041.062</ele>
        <time>2019-05-29T14:01:00Z</time>
      </trkpt>
      <trkpt lat="40.179396" lon="-7.787673">
        <ele>1037.008</ele>
        <time>2019-05-29T14:01:20Z</time>
      </trkpt>
      <trkpt lat="40.179560" lon="-7.787288">
        <ele>1035.008</ele>
        <time>2019-05-29T14:01:40Z</time>
      </trkpt>
      <trkpt lat="40.179820" lon="-7.786903">
        <ele>1031.035</ele>
        <time>2019-05-29T14:02:00Z</time>
      </trkpt>
      <trkpt lat="40.180264" lon="-7.786260">
        <ele>1022.068</ele>
        <time>2019-05-29T14:02:20Z</time>
      </trkpt>
      <trkpt lat="40.180668" lon="-7.785763">
        <ele>1016.091</ele>
        <time>2019-05-29T14:02:40Z</time>
      </trkpt>
      <trkpt lat="40.180758" lon="-7.785577">
        <ele>1016.029</ele>
        <time>2019-05-29T14:03:00Z</time>
      </trkpt>
      <trkpt lat="40.180942" lon="-7.785025">
        <ele>1017.076</ele>
        <time>2019-05-29T14:03:20Z</time>
      </trkpt>
      <trkpt lat="40.181016" lon="-7.784659">
        <ele>1014.087</ele>
        <time>2019-05-29T14:03:40Z</time>
      </trkpt>
      <trkpt lat="40.181263" lon="-7.784230">
        <ele>1011.074</ele>
        <time>2019-05-29T14:04:00Z</time>
      </trkpt>
      <trkpt lat="40.181607" lon="-7.783856">
        <ele>1006.066</ele>
        <time>2019-05-29T14:04:20Z</time>
      </trkpt>
      <trkpt lat="40.181959" lon="-7.783456">
        <ele>1001.035</ele>
        <time>2019-05-29T14:04:40Z</time>
      </trkpt>
      <trkpt lat="40.182299" lon="-7.782996">
        <ele>993.086</ele>
        <time>2019-05-29T14:05:00Z</time>
      </trkpt>
      <trkpt lat="40.182454" lon="-7.782675">
        <ele>988.014</ele>
        <time>2019-05-29T14:05:20Z</time>
      </trkpt>
      <trkpt lat="40.182699" lon="-7.782086">
        <ele>982.008</ele>
        <time>2019-05-29T14:05:40Z</time>
      </trkpt>
      <trkpt lat="40.182888" lon="-7.781550">
        <ele>977.016</ele>
        <time>2019-05-29T14:06:00Z</time>
      </trkpt>
      <trkpt lat="40.182843" lon="-7.780983">
        <ele>973.019</ele>
        <time>2019-05-29T14:06:20Z</time>
      </trkpt>
      <trkpt lat="40.182729" lon="-7.780406">
        <ele>970.062</ele>
        <time>2019-05-29T14:06:40Z</time>
      </trkpt>
      <trkpt lat="40.182554" lon="-7.779686">
        <ele>968.030</ele>
        <time>2019-05-29T14:07:00Z</time>
      </trkpt>
      <trkpt lat="40.182393" lon="-7.779349">
        <ele>963.037</ele>
        <time>2019-05-29T14:07:20Z</time>
      </trkpt>
      <trkpt lat="40.182636" lon="-7.778349">
        <ele>961.088</ele>
        <time>2019-05-29T14:07:40Z</time>
      </trkpt>
      <trkpt lat="40.182798" lon="-7.778047">
        <ele>957.085</ele>
        <time>2019-05-29T14:08:00Z</time>
      </trkpt>
      <trkpt lat="40.182987" lon="-7.777899">
        <ele>957.057</ele>
        <time>2019-05-29T14:08:20Z</time>
      </trkpt>
      <trkpt lat="40.183419" lon="-7.777641">
        <ele>959.098</ele>
        <time>2019-05-29T14:08:40Z</time>
      </trkpt>
      <trkpt lat="40.183737" lon="-7.777414">
        <ele>960.015</ele>
        <time>2019-05-29T14:09:00Z</time>
      </trkpt>
      <trkpt lat="40.183976" lon="-7.777294">
        <ele>958.026</ele>
        <time>2019-05-29T14:09:20Z</time>
      </trkpt>
      <trkpt lat="40.184298" lon="-7.776818">
        <ele>951.008</ele>
        <time>2019-05-29T14:09:40Z</time>
      </trkpt>
      <trkpt lat="40.184555" lon="-7.776183">
        <ele>943.042</ele>
        <time>2019-05-29T14:10:00Z</time>
      </trkpt>
      <trkpt lat="40.184681" lon="-7.775418">
        <ele>935.075</ele>
        <time>2019-05-29T14:10:20Z</time>
      </trkpt>
      <trkpt lat="40.184751" lon="-7.775094">
        <ele>933.068</ele>
        <time>2019-05-29T14:10:40Z</time>
      </trkpt>
      <trkpt lat="40.184795" lon="-7.774794">
        <ele>930.016</ele>
        <time>2019-05-29T14:11:00Z</time>
      </trkpt>
      <trkpt lat="40.184733" lon="-7.774220">
        <ele>924.073</ele>
        <time>2019-05-29T14:11:20Z</time>
      </trkpt>
      <trkpt lat="40.184556" lon="-7.773228">
        <ele>914.064</ele>
        <time>2019-05-29T14:11:40Z</time>
      </trkpt>
      <trkpt lat="40.184418" lon="-7.772695">
        <ele>903.071</ele>
        <time>2019-05-29T14:12:00Z</time>
      </trkpt>
      <trkpt lat="40.183934" lon="-7.772412">
        <ele>896.033</ele>
        <time>2019-05-29T14:12:20Z</time>
      </trkpt>
      <trkpt lat="40.184299" lon="-7.771851">
        <ele>890.075</ele>
        <time>2019-05-29T14:12:40Z</time>
      </trkpt>
      <trkpt lat="40.184389" lon="-7.771027">
        <ele>878.028</ele>
        <time>2019-05-29T14:13:00Z</time>
      </trkpt>
      <trkpt lat="40.184311" lon="-7.770491">
        <ele>873.020</ele>
        <time>2019-05-29T14:13:20Z</time>
      </trkpt>
      <trkpt lat="40.184336" lon="-7.769151">
        <ele>865.008</ele>
        <time>2019-05-29T14:13:40Z</time>
      </trkpt>
      <trkpt lat="40.184705" lon="-7.767706">
        <ele>848.050</ele>
        <time>2019-05-29T14:14:00Z</time>
      </trkpt>
      <trkpt lat="40.184337" lon="-7.767719">
        <ele>849.083</ele>
        <time>2019-05-29T14:14:20Z</time>
      </trkpt>
      <trkpt lat="40.183415" lon="-7.768637">
        <ele>849.046</ele>
        <time>2019-05-29T14:14:40Z</time>
      </trkpt>
      <trkpt lat="40.182367" lon="-7.770046">
        <ele>836.054</ele>
        <time>2019-05-29T14:15:00Z</time>
      </trkpt>
      <trkpt lat="40.182094" lon="-7.770749">
        <ele>838.081</ele>
        <time>2019-05-29T14:15:20Z</time>
      </trkpt>
      <trkpt lat="40.181924" lon="-7.770805">
        <ele>837.092</ele>
        <time>2019-05-29T14:15:40Z</time>
      </trkpt>
      <trkpt lat="40.181634" lon="-7.770008">
        <ele>826.099</ele>
        <time>2019-05-29T14:16:00Z</time>
      </trkpt>
      <trkpt lat="40.181426" lon="-7.769305">
        <ele>817.051</ele>
        <time>2019-05-29T14:16:20Z</time>
      </trkpt>
      <trkpt lat="40.181195" lon="-7.768854">
        <ele>810.059</ele>
        <time>2019-05-29T14:16:40Z</time>
      </trkpt>
      <trkpt lat="40.180719" lon="-7.768287">
        <ele>800.003</ele>
        <time>2019-05-29T14:17:00Z</time>
      </trkpt>
      <trkpt lat="40.180563" lon="-7.768243">
        <ele>800.023</ele>
        <time>2019-05-29T14:17:20Z</time>
      </trkpt>
      <trkpt lat="40.180146" lon="-7.768272">
        <ele>799.008</ele>
        <time>2019-05-29T14:17:40Z</time>
      </trkpt>
      <trkpt lat="40.179324" lon="-7.769092">
        <ele>788.048</ele>
        <time>2019-05-29T14:18:00Z</time>
      </trkpt>
      <trkpt lat="40.178775" lon="-7.769421">
        <ele>782.051</ele>
        <time>2019-05-29T14:18:20Z</time>
      </trkpt>
      <trkpt lat="40.178526" lon="-7.769800">
        <ele>780.084</ele>
        <time>2019-05-29T14:18:40Z</time>
      </trkpt>
      <trkpt lat="40.178476" lon="-7.770666">
        <ele>775.012</ele>
        <time>2019-05-29T14:19:00Z</time>
      </trkpt>
      <trkpt lat="40.178677" lon="-7.771231">
        <ele>771.079</ele>
        <time>2019-05-29T14:19:20Z</time>
      </trkpt>
      <trkpt lat="40.179124" lon="-7.772053">
        <ele>762.060</ele>
        <time>2019-05-29T14:19:40Z</time>
      </trkpt>
      <trkpt lat="40.179075" lon="-7.772435">
        <ele>759.037</ele>
        <time>2019-05-29T14:20:00Z</time>
      </trkpt>
      <trkpt lat="40.178809" lon="-7.772521">
        <ele>754.049</ele>
        <time>2019-05-29T14:20:20Z</time>
      </trkpt>
      <trkpt lat="40.178435" lon="-7.772576">
        <ele>746.083</ele>
        <time>2019-05-29T14:20:40Z</time>
      </trkpt>
      <trkpt lat="40.178251" lon="-7.772764">
        <ele>742.025</ele>
        <time>2019-05-29T14:21:00Z</time>
      </trkpt>
      <trkpt lat="40.178124" lon="-7.773478">
        <ele>749.017</ele>
        <time>2019-05-29T14:21:20Z</time>
      </trkpt>
      <trkpt lat="40.178211" lon="-7.774009">
        <ele>751.008</ele>
        <time>2019-05-29T14:21:40Z</time>
      </trkpt>
      <trkpt lat="40.178258" lon="-7.774575">
        <ele>749.041</ele>
        <time>2019-05-29T14:22:00Z</time>
      </trkpt>
      <trkpt lat="40.178220" lon="-7.774887">
        <ele>749.074</ele>
        <time>2019-05-29T14:22:20Z</time>
      </trkpt>
      <trkpt lat="40.178006" lon="-7.774954">
        <ele>746.077</ele>
        <time>2019-05-29T14:22:40Z</time>
      </trkpt>
      <trkpt lat="40.177800" lon="-7.774582">
        <ele>737.065</ele>
        <time>2019-05-29T14:23:00Z</time>
      </trkpt>
      <trkpt lat="40.176749" lon="-7.773806">
        <ele>740.042</ele>
        <time>2019-05-29T14:23:20Z</time>
      </trkpt>
      <trkpt lat="40.176421" lon="-7.773497">
        <ele>735.013</ele>
        <time>2019-05-29T14:23:40Z</time>
      </trkpt>
      <trkpt lat="40.176094" lon="-7.773419">
        <ele>736.050</ele>
        <time>2019-05-29T14:24:00Z</time>
      </trkpt>
      <trkpt lat="40.175842" lon="-7.773499">
        <ele>742.062</ele>
        <time>2019-05-29T14:24:20Z</time>
      </trkpt>
      <trkpt lat="40.175505" lon="-7.773207">
        <ele>736.031</ele>
        <time>2019-05-29T14:24:40Z</time>
      </trkpt>
      <trkpt lat="40.175225" lon="-7.773325">
        <ele>737.061</ele>
        <time>2019-05-29T14:25:00Z</time>
      </trkpt>
      <trkpt lat="40.175026" lon="-7.773534">
        <ele>738.007</ele>
        <time>2019-05-29T14:25:20Z</time>
      </trkpt>
      <trkpt lat="40.174884" lon="-7.773455">
        <ele>738.008</ele>
        <time>2019-05-29T14:25:40Z</time>
      </trkpt>
      <trkpt lat="40.174697" lon="-7.773090">
        <ele>736.066</ele>
        <time>2019-05-29T14:26:00Z</time>
      </trkpt>
      <trkpt lat="40.174320" lon="-7.772756">
        <ele>741.019</ele>
        <time>2019-05-29T14:26:20Z</time>
      </trkpt>
      <trkpt lat="40.173515" lon="-7.772401">
        <ele>748.052</ele>
        <time>2019-05-29T14:26:40Z</time>
      </trkpt>
      <trkpt lat="40.173326" lon="-7.772586">
        <ele>749.070</ele>
        <time>2019-05-29T14:27:00Z</time>
      </trkpt>
      <trkpt lat="40.173134" lon="-7.772974">
        <ele>747.037</ele>
        <time>2019-05-29T14:27:20Z</time>
      </trkpt>
      <trkpt lat="40.172941" lon="-7.773517">
        <ele>742.098</ele>
        <time>2019-05-29T14:27:40Z</time>
      </trkpt>
      <trkpt lat="40.172905" lon="-7.773800">
        <ele>742.075</ele>
        <time>2019-05-29T14:28:00Z</time>
      </trkpt>
      <trkpt lat="40.172972" lon="-7.774485">
        <ele>741.037</ele>
        <time>2019-05-29T14:28:20Z</time>
      </trkpt>
      <trkpt lat="40.173050" lon="-7.775232">
        <ele>737.052</ele>
        <time>2019-05-29T14:28:40Z</time>
      </trkpt>
      <trkpt lat="40.173009" lon="-7.775946">
        <ele>745.053</ele>
        <time>2019-05-29T14:29:00Z</time>
      </trkpt>
      <trkpt lat="40.172845" lon="-7.776424">
        <ele>739.008</ele>
        <time>2019-05-29T14:29:20Z</time>
      </trkpt>
      <trkpt lat="40.172782" lon="-7.777168">
        <ele>738.008</ele>
        <time>2019-05-29T14:29:40Z</time>
      </trkpt>
      <trkpt lat="40.172816" lon="-7.777573">
        <ele>742.078</ele>
        <time>2019-05-29T14:30:00Z</time>
      </trkpt>
      <trkpt lat="40.172657" lon="-7.778042">
        <ele>738.051</ele>
        <time>2019-05-29T14:30:20Z</time>
      </trkpt>
      <trkpt lat="40.172703" lon="-7.778400">
        <ele>737.094</ele>
        <time>2019-05-29T14:30:40Z</time>
      </trkpt>
      <trkpt lat="40.172727" lon="-7.778418">
        <ele>738.092</ele>
        <time>2019-05-29T14:31:00Z</time>
      </trkpt>
      <trkpt lat="40.172944" lon="-7.778718">
        <ele>744.049</ele>
        <time>2019-05-29T14:31:20Z</time>
      </trkpt>
      <trkpt lat="40.173001" lon="-7.778778">
        <ele>746.040</ele>
        <time>2019-05-29T14:31:40Z</time>
      </trkpt>
      <trkpt lat="40.172896" lon="-7.779114">
        <ele>746.077</ele>
        <time>2019-05-29T14:32:00Z</time>
      </trkpt>
      <trkpt lat="40.172732" lon="-7.779249">
        <ele>744.069</ele>
        <time>2019-05-29T14:32:20Z</time>
      </trkpt>
      <trkpt lat="40.172350" lon="-7.779181">
        <ele>736.086</ele>
        <time>2019-05-29T14:32:40Z</time>
      </trkpt>
      <trkpt lat="40.172151" lon="-7.779282">
        <ele>737.060</ele>
        <time>2019-05-29T14:33:00Z</time>
      </trkpt>
      <trkpt lat="40.171848" lon="-7.779249">
        <ele>728.026</ele>
        <time>2019-05-29T14:33:20Z</time>
      </trkpt>
      <trkpt lat="40.171591" lon="-7.779272">
        <ele>724.008</ele>
        <time>2019-05-29T14:33:40Z</time>
      </trkpt>
      <trkpt lat="40.171344" lon="-7.779248">
        <ele>721.091</ele>
        <time>2019-05-29T14:34:00Z</time>
      </trkpt>
      <trkpt lat="40.170704" lon="-7.779060">
        <ele>710.024</ele>
        <time>2019-05-29T14:34:20Z</time>
      </trkpt>
      <trkpt lat="40.170503" lon="-7.779416">
        <ele>712.057</ele>
        <time>2019-05-29T14:34:40Z</time>
      </trkpt>
      <trkpt lat="40.170351" lon="-7.779901">
        <ele>711.095</ele>
        <time>2019-05-29T14:35:00Z</time>
      </trkpt>
      <trkpt lat="40.170132" lon="-7.780160">
        <ele>710.082</ele>
        <time>2019-05-29T14:35:20Z</time>
      </trkpt>
      <trkpt lat="40.169965" lon="-7.780237">
        <ele>707.073</ele>
        <time>2019-05-29T14:35:40Z</time>
      </trkpt>
      <trkpt lat="40.169793" lon="-7.780631">
        <ele>704.050</ele>
        <time>2019-05-29T14:36:00Z</time>
      </trkpt>
      <trkpt lat="40.169625" lon="-7.781007">
        <ele>700.022</ele>
        <time>2019-05-29T14:36:20Z</time>
      </trkpt>
      <trkpt lat="40.169436" lon="-7.781249">
        <ele>697.079</ele>
        <time>2019-05-29T14:36:40Z</time>
      </trkpt>
      <trkpt lat="40.168960" lon="-7.781786">
        <ele>697.005</ele>
        <time>2019-05-29T14:37:00Z</time>
      </trkpt>
      <trkpt lat="40.169429" lon="-7.783003">
        <ele>697.025</ele>
        <time>2019-05-29T14:37:20Z</time>
      </trkpt>
      <trkpt lat="40.169495" lon="-7.783618">
        <ele>689.008</ele>
        <time>2019-05-29T14:37:40Z</time>
      </trkpt>
      <trkpt lat="40.169674" lon="-7.783976">
        <ele>690.050</ele>
        <time>2019-05-29T14:38:00Z</time>
      </trkpt>
      <trkpt lat="40.169893" lon="-7.784238">
        <ele>690.063</ele>
        <time>2019-05-29T14:38:20Z</time>
      </trkpt>
      <trkpt lat="40.169828" lon="-7.784392">
        <ele>688.066</ele>
        <time>2019-05-29T14:38:40Z</time>
      </trkpt>
      <trkpt lat="40.169553" lon="-7.784571">
        <ele>687.064</ele>
        <time>2019-05-29T14:39:00Z</time>
      </trkpt>
      <trkpt lat="40.169426" lon="-7.784723">
        <ele>688.091</ele>
        <time>2019-05-29T14:39:20Z</time>
      </trkpt>
      <trkpt lat="40.169287" lon="-7.784981">
        <ele>693.092</ele>
        <time>2019-05-29T14:39:40Z</time>
      </trkpt>
      <trkpt lat="40.169164" lon="-7.785204">
        <ele>695.039</ele>
        <time>2019-05-29T14:40:00Z</time>
      </trkpt>
      <trkpt lat="40.169070" lon="-7.785185">
        <ele>694.011</ele>
        <time>2019-05-29T14:40:20Z</time>
      </trkpt>
      <trkpt lat="40.168894" lon="-7.785033">
        <ele>693.054</ele>
        <time>2019-05-29T14:40:40Z</time>
      </trkpt>
      <trkpt lat="40.168735" lon="-7.784864">
        <ele>692.056</ele>
        <time>2019-05-29T14:41:00Z</time>
      </trkpt>
      <trkpt lat="40.168619" lon="-7.784763">
        <ele>693.011</ele>
        <time>2019-05-29T14:41:20Z</time>
      </trkpt>
      <trkpt lat="40.168726" lon="-7.785204">
        <ele>697.008</ele>
        <time>2019-05-29T14:41:40Z</time>
      </trkpt>
      <trkpt lat="40.168782" lon="-7.785482">
        <ele>701.018</ele>
        <time>2019-05-29T14:42:00Z</time>
      </trkpt>
      <trkpt lat="40.168558" lon="-7.785375">
        <ele>702.041</ele>
        <time>2019-05-29T14:42:20Z</time>
      </trkpt>
      <trkpt lat="40.168407" lon="-7.785389">
        <ele>705.024</ele>
        <time>2019-05-29T14:42:40Z</time>
      </trkpt>
      <trkpt lat="40.168245" lon="-7.785510">
        <ele>709.052</ele>
        <time>2019-05-29T14:43:00Z</time>
      </trkpt>
      <trkpt lat="40.168140" lon="-7.785635">
        <ele>712.029</ele>
        <time>2019-05-29T14:43:20Z</time>
      </trkpt>
      <trkpt lat="40.168047" lon="-7.785795">
        <ele>716.090</ele>
        <time>2019-05-29T14:43:40Z</time>
      </trkpt>
      <trkpt lat="40.168015" lon="-7.785883">
        <ele>717.037</ele>
        <time>2019-05-29T14:44:00Z</time>
      </trkpt>
      <trkpt lat="40.168074" lon="-7.785965">
        <ele>719.039</ele>
        <time>2019-05-29T14:44:20Z</time>
      </trkpt>
      <trkpt lat="40.168186" lon="-7.785939">
        <ele>719.023</ele>
        <time>2019-05-29T14:44:40Z</time>
      </trkpt>
      <trkpt lat="40.168354" lon="-7.786057">
        <ele>721.083</ele>
        <time>2019-05-29T14:45:00Z</time>
      </trkpt>
      <trkpt lat="40.168376" lon="-7.786472">
        <ele>731.011</ele>
        <time>2019-05-29T14:45:20Z</time>
      </trkpt>
      <trkpt lat="40.168391" lon="-7.787235">
        <ele>744.008</ele>
        <time>2010-01-01T00:00:00Z</time>
      </trkpt>
      <trkpt lat="40.168378" lon="-7.787658">
        <ele>752.085</ele>
        <time>2010-01-01T00:00:08Z</time>
      </trkpt>
      <trkpt lat="40.168466" lon="-7.788503">
        <ele>766.078</ele>
        <time>2010-01-01T00:00:26Z</time>
      </trkpt>
      <trkpt lat="40.168291" lon="-7.788862">
        <ele>765.011</ele>
        <time>2010-01-01T00:00:34Z</time>
      </trkpt>
      <trkpt lat="40.168146" lon="-7.789350">
        <ele>767.059</ele>
        <time>2010-01-01T00:00:40Z</time>
      </trkpt>
      <trkpt lat="40.168047" lon="-7.790005">
        <ele>775.026</ele>
        <time>2010-01-01T00:00:49Z</time>
      </trkpt>
      <trkpt lat="40.167955" lon="-7.790180">
        <ele>778.057</ele>
        <time>2010-01-01T00:00:58Z</time>
      </trkpt>
      <trkpt lat="40.167864" lon="-7.790203">
        <ele>779.044</ele>
        <time>2010-01-01T00:01:23Z</time>
      </trkpt>
      <trkpt lat="40.167795" lon="-7.790170">
        <ele>778.086</ele>
        <time>2010-01-01T00:01:30Z</time>
      </trkpt>
      <trkpt lat="40.167679" lon="-7.790051">
        <ele>775.094</ele>
        <time>2010-01-01T00:01:47Z</time>
      </trkpt>
      <trkpt lat="40.167313" lon="-7.789577">
        <ele>769.057</ele>
        <time>2010-01-01T00:01:56Z</time>
      </trkpt>
      <trkpt lat="40.166893" lon="-7.789194">
        <ele>778.022</ele>
        <time>2010-01-01T00:02:01Z</time>
      </trkpt>
      <trkpt lat="40.166677" lon="-7.789078">
        <ele>784.008</ele>
        <time>2010-01-01T00:02:09Z</time>
      </trkpt>
      <trkpt lat="40.166486" lon="-7.789101">
        <ele>789.022</ele>
        <time>2010-01-01T00:02:20Z</time>
      </trkpt>
      <trkpt lat="40.166191" lon="-7.789306">
        <ele>796.045</ele>
        <time>2010-01-01T00:02:38Z</time>
      </trkpt>
      <trkpt lat="40.165994" lon="-7.789675">
        <ele>803.088</ele>
        <time>2010-01-01T00:02:48Z</time>
      </trkpt>
      <trkpt lat="40.165732" lon="-7.790000">
        <ele>805.076</ele>
        <time>2010-01-01T00:03:04Z</time>
      </trkpt>
      <trkpt lat="40.165405" lon="-7.790839">
        <ele>811.013</ele>
        <time>2010-01-01T00:03:11Z</time>
      </trkpt>
      <trkpt lat="40.165241" lon="-7.791686">
        <ele>820.014</ele>
        <time>2010-01-01T00:03:37Z</time>
      </trkpt>
      <trkpt lat="40.165048" lon="-7.791901">
        <ele>817.051</ele>
        <time>2010-01-01T00:03:54Z</time>
      </trkpt>
      <trkpt lat="40.164919" lon="-7.792166">
        <ele>820.063</ele>
        <time>2010-01-01T00:04:06Z</time>
      </trkpt>
      <trkpt lat="40.164849" lon="-7.792512">
        <ele>825.087</ele>
        <time>2010-01-01T00:04:37Z</time>
      </trkpt>
      <trkpt lat="40.164754" lon="-7.792691">
        <ele>826.042</ele>
        <time>2010-01-01T00:04:51Z</time>
      </trkpt>
      <trkpt lat="40.164461" lon="-7.792895">
        <ele>824.026</ele>
        <time>2010-01-01T00:04:59Z</time>
      </trkpt>
      <trkpt lat="40.164296" lon="-7.793183">
        <ele>828.008</ele>
        <time>2010-01-01T00:05:37Z</time>
      </trkpt>
      <trkpt lat="40.164141" lon="-7.793531">
        <ele>831.051</ele>
        <time>2010-01-01T00:05:53Z</time>
      </trkpt>
      <trkpt lat="40.164077" lon="-7.793912">
        <ele>843.044</ele>
        <time>2010-01-01T00:06:08Z</time>
      </trkpt>
      <trkpt lat="40.163518" lon="-7.794486">
        <ele>838.087</ele>
        <time>2010-01-01T00:06:25Z</time>
      </trkpt>
      <trkpt lat="40.163051" lon="-7.794991">
        <ele>842.055</ele>
        <time>2010-01-01T00:07:30Z</time>
      </trkpt>
      <trkpt lat="40.162983" lon="-7.795303">
        <ele>847.082</ele>
        <time>2010-01-01T00:07:53Z</time>
      </trkpt>
      <trkpt lat="40.162997" lon="-7.795602">
        <ele>851.053</ele>
        <time>2010-01-01T00:08:30Z</time>
      </trkpt>
      <trkpt lat="40.162948" lon="-7.795908">
        <ele>856.090</ele>
        <time>2010-01-01T00:08:59Z</time>
      </trkpt>
      <trkpt lat="40.162712" lon="-7.796029">
        <ele>859.042</ele>
        <time>2010-01-01T00:09:22Z</time>
      </trkpt>
      <trkpt lat="40.162457" lon="-7.795993">
        <ele>862.023</ele>
        <time>2010-01-01T00:09:32Z</time>
      </trkpt>
      <trkpt lat="40.162263" lon="-7.795850">
        <ele>861.083</ele>
        <time>2010-01-01T00:09:45Z</time>
      </trkpt>
      <trkpt lat="40.162057" lon="-7.795657">
        <ele>865.011</ele>
        <time>2010-01-01T00:10:09Z</time>
      </trkpt>
      <trkpt lat="40.161861" lon="-7.795598">
        <ele>872.008</ele>
        <time>2010-01-01T00:10:42Z</time>
      </trkpt>
      <trkpt lat="40.161661" lon="-7.795426">
        <ele>876.045</ele>
        <time>2010-01-01T00:11:17Z</time>
      </trkpt>
      <trkpt lat="40.161346" lon="-7.794927">
        <ele>877.098</ele>
        <time>2010-01-01T00:11:45Z</time>
      </trkpt>
      <trkpt lat="40.160965" lon="-7.794500">
        <ele>885.051</ele>
        <time>2010-01-01T00:12:36Z</time>
      </trkpt>
      <trkpt lat="40.160207" lon="-7.794101">
        <ele>886.069</ele>
        <time>2010-01-01T00:13:33Z</time>
      </trkpt>
      <trkpt lat="40.159838" lon="-7.793870">
        <ele>884.076</ele>
        <time>2010-01-01T00:13:43Z</time>
      </trkpt>
      <trkpt lat="40.159703" lon="-7.793639">
        <ele>885.067</ele>
        <time>2010-01-01T00:13:56Z</time>
      </trkpt>
      <trkpt lat="40.159584" lon="-7.793563">
        <ele>884.024</ele>
        <time>2010-01-01T00:14:16Z</time>
      </trkpt>
      <trkpt lat="40.159646" lon="-7.794005">
        <ele>885.016</ele>
        <time>2010-01-01T00:14:51Z</time>
      </trkpt>
      <trkpt lat="40.160175" lon="-7.794614">
        <ele>897.042</ele>
        <time>2010-01-01T00:15:47Z</time>
      </trkpt>
      <trkpt lat="40.159789" lon="-7.795334">
        <ele>904.022</ele>
        <time>2010-01-01T00:16:05Z</time>
      </trkpt>
      <trkpt lat="40.159311" lon="-7.795863">
        <ele>908.014</ele>
        <time>2010-01-01T00:16:22Z</time>
      </trkpt>
      <trkpt lat="40.158996" lon="-7.795978">
        <ele>910.008</ele>
        <time>2010-01-01T00:16:40Z</time>
      </trkpt>
      <trkpt lat="40.158787" lon="-7.795976">
        <ele>913.067</ele>
        <time>2010-01-01T00:17:12Z</time>
      </trkpt>
      <trkpt lat="40.158252" lon="-7.795777">
        <ele>913.050</ele>
        <time>2010-01-01T00:17:45Z</time>
      </trkpt>
      <trkpt lat="40.157705" lon="-7.795845">
        <ele>913.033</ele>
        <time>2010-01-01T00:18:13Z</time>
      </trkpt>
      <trkpt lat="40.157050" lon="-7.795594">
        <ele>916.091</ele>
        <time>2010-01-01T00:18:57Z</time>
      </trkpt>
      <trkpt lat="40.156417" lon="-7.795418">
        <ele>913.028</ele>
        <time>2010-01-01T00:19:15Z</time>
      </trkpt>
      <trkpt lat="40.156237" lon="-7.795430">
        <ele>912.019</ele>
        <time>2010-01-01T00:19:40Z</time>
      </trkpt>
      <trkpt lat="40.155534" lon="-7.795423">
        <ele>915.026</ele>
        <time>2010-01-01T00:20:08Z</time>
      </trkpt>
      <trkpt lat="40.154475" lon="-7.795876">
        <ele>918.068</ele>
        <time>2010-01-01T00:20:49Z</time>
      </trkpt>
      <trkpt lat="40.153435" lon="-7.796356">
        <ele>916.022</ele>
        <time>2010-01-01T00:21:08Z</time>
      </trkpt>
      <trkpt lat="40.153148" lon="-7.796510">
        <ele>915.062</ele>
        <time>2010-01-01T00:21:31Z</time>
      </trkpt>
      <trkpt lat="40.152520" lon="-7.797037">
        <ele>913.008</ele>
        <time>2010-01-01T00:22:19Z</time>
      </trkpt>
      <trkpt lat="40.151802" lon="-7.797800">
        <ele>913.008</ele>
        <time>2010-01-01T00:23:34Z</time>
      </trkpt>
      <trkpt lat="40.151040" lon="-7.798382">
        <ele>907.055</ele>
        <time>2010-01-01T00:24:05Z</time>
      </trkpt>
      <trkpt lat="40.150757" lon="-7.798597">
        <ele>905.098</ele>
        <time>2010-01-01T00:25:07Z</time>
      </trkpt>
      <trkpt lat="40.150112" lon="-7.798905">
        <ele>902.091</ele>
        <time>2010-01-01T00:25:58Z</time>
      </trkpt>
      <trkpt lat="40.149274" lon="-7.799255">
        <ele>903.049</ele>
        <time>2010-01-01T00:26:25Z</time>
      </trkpt>
      <trkpt lat="40.148980" lon="-7.799388">
        <ele>902.046</ele>
        <time>2010-01-01T00:26:59Z</time>
      </trkpt>
      <trkpt lat="40.148535" lon="-7.799295">
        <ele>897.057</ele>
        <time>2010-01-01T00:27:33Z</time>
      </trkpt>
      <trkpt lat="40.148204" lon="-7.799040">
        <ele>888.094</ele>
        <time>2010-01-01T00:27:51Z</time>
      </trkpt>
      <trkpt lat="40.147881" lon="-7.798803">
        <ele>880.086</ele>
        <time>2010-01-01T00:28:17Z</time>
      </trkpt>
      <trkpt lat="40.147223" lon="-7.798760">
        <ele>875.053</ele>
        <time>2010-01-01T00:28:48Z</time>
      </trkpt>
      <trkpt lat="40.146853" lon="-7.799304">
        <ele>872.004</ele>
        <time>2010-01-01T00:29:08Z</time>
      </trkpt>
      <trkpt lat="40.146771" lon="-7.800154">
        <ele>868.014</ele>
        <time>2010-01-01T00:29:44Z</time>
      </trkpt>
      <trkpt lat="40.146422" lon="-7.800444">
        <ele>857.008</ele>
        <time>2010-01-01T00:30:00Z</time>
      </trkpt>
      <trkpt lat="40.146231" lon="-7.801462">
        <ele>853.048</ele>
        <time>2010-01-01T00:30:43Z</time>
      </trkpt>
      <trkpt lat="40.145531" lon="-7.801616">
        <ele>841.041</ele>
        <time>2010-01-01T00:31:05Z</time>
      </trkpt>
      <trkpt lat="40.144825" lon="-7.801473">
        <ele>830.014</ele>
        <time>2010-01-01T00:31:18Z</time>
      </trkpt>
      <trkpt lat="40.144175" lon="-7.802203">
        <ele>814.022</ele>
        <time>2010-01-01T00:31:35Z</time>
      </trkpt>
      <trkpt lat="40.143640" lon="-7.802703">
        <ele>803.099</ele>
        <time>2010-01-01T00:32:02Z</time>
      </trkpt>
      <trkpt lat="40.143206" lon="-7.803084">
        <ele>797.080</ele>
        <time>2010-01-01T00:32:17Z</time>
      </trkpt>
      <trkpt lat="40.142887" lon="-7.803200">
        <ele>795.097</ele>
        <time>2010-01-01T00:32:48Z</time>
      </trkpt>
      <trkpt lat="40.142143" lon="-7.803457">
        <ele>789.089</ele>
        <time>2010-01-01T00:33:05Z</time>
      </trkpt>
      <trkpt lat="40.141676" lon="-7.803657">
        <ele>782.036</ele>
        <time>2010-01-01T00:33:25Z</time>
      </trkpt>
      <trkpt lat="40.141762" lon="-7.802755">
        <ele>779.017</ele>
        <time>2010-01-01T00:33:43Z</time>
      </trkpt>
      <trkpt lat="40.141828" lon="-7.802260">
        <ele>770.018</ele>
        <time>2010-01-01T00:34:22Z</time>
      </trkpt>
      <trkpt lat="40.141790" lon="-7.801633">
        <ele>763.008</ele>
        <time>2010-01-01T00:34:48Z</time>
      </trkpt>
      <trkpt lat="40.141219" lon="-7.800450">
        <ele>750.066</ele>
        <time>2010-01-01T00:35:10Z</time>
      </trkpt>
      <trkpt lat="40.140876" lon="-7.800217">
        <ele>744.099</ele>
        <time>2010-01-01T00:35:39Z</time>
      </trkpt>
      <trkpt lat="40.140830" lon="-7.800309">
        <ele>745.052</ele>
        <time>2010-01-01T00:36:05Z</time>
      </trkpt>
      <trkpt lat="40.140804" lon="-7.800558">
        <ele>745.020</ele>
        <time>2010-01-01T00:36:20Z</time>
      </trkpt>
      <trkpt lat="40.140656" lon="-7.800578">
        <ele>742.037</ele>
        <time>2010-01-01T00:36:31Z</time>
      </trkpt>
      <trkpt lat="40.140640" lon="-7.800717">
        <ele>743.028</ele>
        <time>2010-01-01T00:37:09Z</time>
      </trkpt>
      <trkpt lat="40.140482" lon="-7.800775">
        <ele>740.065</ele>
        <time>2010-01-01T00:37:30Z</time>
      </trkpt>
      <trkpt lat="40.140363" lon="-7.800924">
        <ele>739.077</ele>
        <time>2010-01-01T00:38:01Z</time>
      </trkpt>
      <trkpt lat="40.139995" lon="-7.800436">
        <ele>729.034</ele>
        <time>2010-01-01T00:38:18Z</time>
      </trkpt>
      <trkpt lat="40.139754" lon="-7.800359">
        <ele>728.055</ele>
        <time>2010-01-01T00:38:58Z</time>
      </trkpt>
      <trkpt lat="40.139530" lon="-7.800372">
        <ele>731.010</ele>
        <time>2010-01-01T00:39:10Z</time>
      </trkpt>
      <trkpt lat="40.139264" lon="-7.800343">
        <ele>732.008</ele>
        <time>2010-01-01T00:39:47Z</time>
      </trkpt>
      <trkpt lat="40.139014" lon="-7.800427">
        <ele>735.066</ele>
        <time>2010-01-01T00:40:13Z</time>
      </trkpt>
      <trkpt lat="40.138809" lon="-7.800273">
        <ele>731.099</ele>
        <time>2010-01-01T00:41:01Z</time>
      </trkpt>
      <trkpt lat="40.138481" lon="-7.800201">
        <ele>728.072</ele>
        <time>2010-01-01T00:41:32Z</time>
      </trkpt>
      <trkpt lat="40.138167" lon="-7.800143">
        <ele>726.080</ele>
        <time>2010-01-01T00:42:19Z</time>
      </trkpt>
      <trkpt lat="40.137898" lon="-7.800146">
        <ele>725.047</ele>
        <time>2010-01-01T00:42:47Z</time>
      </trkpt>
      <trkpt lat="40.137733" lon="-7.800107">
        <ele>723.078</ele>
        <time>2010-01-01T00:43:40Z</time>
      </trkpt>
      <trkpt lat="40.137656" lon="-7.800145">
        <ele>723.015</ele>
        <time>2010-01-01T00:43:49Z</time>
      </trkpt>
      <trkpt lat="40.137602" lon="-7.800177">
        <ele>723.027</ele>
        <time>2010-01-01T00:44:09Z</time>
      </trkpt>
      <trkpt lat="40.137473" lon="-7.800198">
        <ele>722.043</ele>
        <time>2010-01-01T00:44:23Z</time>
      </trkpt>
      <trkpt lat="40.137274" lon="-7.800342">
        <ele>723.064</ele>
        <time>2010-01-01T00:44:46Z</time>
      </trkpt>
      <trkpt lat="40.137137" lon="-7.800375">
        <ele>721.010</ele>
        <time>2010-01-01T00:45:16Z</time>
      </trkpt>
      <trkpt lat="40.136870" lon="-7.800566">
        <ele>719.008</ele>
        <time>2010-01-01T00:45:24Z</time>
      </trkpt>
      <trkpt lat="40.136945" lon="-7.800630">
        <ele>721.047</ele>
        <time>2010-01-01T00:45:39Z</time>
      </trkpt>
      <trkpt lat="40.137090" lon="-7.801045">
        <ele>727.070</ele>
        <time>2010-01-01T00:45:53Z</time>
      </trkpt>
      <trkpt lat="40.137126" lon="-7.801461">
        <ele>728.053</ele>
        <time>2010-01-01T00:46:02Z</time>
      </trkpt>
      <trkpt lat="40.137134" lon="-7.801585">
        <ele>728.071</ele>
        <time>2010-01-01T00:46:21Z</time>
      </trkpt>
      <trkpt lat="40.137351" lon="-7.802339">
        <ele>724.018</ele>
        <time>2010-01-01T00:46:34Z</time>
      </trkpt>
      <trkpt lat="40.137026" lon="-7.802732">
        <ele>719.059</ele>
        <time>2010-01-01T00:46:51Z</time>
      </trkpt>
      <trkpt lat="40.136841" lon="-7.803139">
        <ele>720.066</ele>
        <time>2010-01-01T00:47:00Z</time>
      </trkpt>
      <trkpt lat="40.136581" lon="-7.803458">
        <ele>719.068</ele>
        <time>2010-01-01T00:47:15Z</time>
      </trkpt>
      <trkpt lat="40.136397" lon="-7.803621">
        <ele>718.078</ele>
        <time>2010-01-01T00:47:44Z</time>
      </trkpt>
      <trkpt lat="40.136158" lon="-7.803665">
        <ele>713.033</ele>
        <time>2010-01-01T00:48:11Z</time>
      </trkpt>
      <trkpt lat="40.135877" lon="-7.804428">
        <ele>706.026</ele>
        <time>2010-01-01T00:48:37Z</time>
      </trkpt>
      <trkpt lat="40.135979" lon="-7.804667">
        <ele>707.008</ele>
        <time>2010-01-01T00:49:09Z</time>
      </trkpt>
      <trkpt lat="40.135736" lon="-7.805117">
        <ele>705.030</ele>
        <time>2010-01-01T00:49:28Z</time>
      </trkpt>
      <trkpt lat="40.135462" lon="-7.804952">
        <ele>701.073</ele>
        <time>2010-01-01T00:49:40Z</time>
      </trkpt>
      <trkpt lat="40.135081" lon="-7.804979">
        <ele>699.046</ele>
        <time>2010-01-01T00:50:17Z</time>
      </trkpt>
      <trkpt lat="40.134585" lon="-7.805201">
        <ele>702.054</ele>
        <time>2010-01-01T00:50:25Z</time>
      </trkpt>
      <trkpt lat="40.134325" lon="-7.805663">
        <ele>701.041</ele>
        <time>2010-01-01T00:50:49Z</time>
      </trkpt>
      <trkpt lat="40.134346" lon="-7.806109">
        <ele>702.082</ele>
        <time>2010-01-01T00:50:58Z</time>
      </trkpt>
      <trkpt lat="40.134014" lon="-7.806949">
        <ele>710.059</ele>
        <time>2010-01-01T00:51:18Z</time>
      </trkpt>
      <trkpt lat="40.133784" lon="-7.807295">
        <ele>706.041</ele>
        <time>2010-01-01T00:51:29Z</time>
      </trkpt>
      <trkpt lat="40.133127" lon="-7.807816">
        <ele>700.015</ele>
        <time>2010-01-01T00:51:38Z</time>
      </trkpt>
      <trkpt lat="40.132662" lon="-7.807905">
        <ele>696.065</ele>
        <time>2010-01-01T00:52:03Z</time>
      </trkpt>
      <trkpt lat="40.132319" lon="-7.808068">
        <ele>696.011</ele>
        <time>2010-01-01T00:52:08Z</time>
      </trkpt>
      <trkpt lat="40.131950" lon="-7.808232">
        <ele>693.008</ele>
        <time>2010-01-01T00:52:39Z</time>
      </trkpt>
      <trkpt lat="40.131706" lon="-7.808411">
        <ele>696.044</ele>
        <time>2010-01-01T00:52:48Z</time>
      </trkpt>
      <trkpt lat="40.131501" lon="-7.808471">
        <ele>697.057</ele>
        <time>2010-01-01T00:53:04Z</time>
      </trkpt>
      <trkpt lat="40.131389" lon="-7.808364">
        <ele>696.030</ele>
        <time>2010-01-01T00:53:44Z</time>
      </trkpt>
      <trkpt lat="40.131429" lon="-7.808184">
        <ele>693.088</ele>
        <time>2010-01-01T00:54:17Z</time>
      </trkpt>
      <trkpt lat="40.131409" lon="-7.808029">
        <ele>691.095</ele>
        <time>2010-01-01T00:54:24Z</time>
      </trkpt>
      <trkpt lat="40.131273" lon="-7.807807">
        <ele>689.046</ele>
        <time>2010-01-01T00:54:38Z</time>
      </trkpt>
      <trkpt lat="40.131014" lon="-7.807431">
        <ele>692.083</ele>
        <time>2010-01-01T00:54:44Z</time>
      </trkpt>
      <trkpt lat="40.130940" lon="-7.807244">
        <ele>695.045</ele>
        <time>2010-01-01T00:54:58Z</time>
      </trkpt>
      <trkpt lat="40.130787" lon="-7.807141">
        <ele>695.013</ele>
        <time>2010-01-01T00:55:09Z</time>
      </trkpt>
      <trkpt lat="40.130094" lon="-7.807265">
        <ele>686.043</ele>
        <time>2010-01-01T00:55:21Z</time>
      </trkpt>
      <trkpt lat="40.129979" lon="-7.806886">
        <ele>690.007</ele>
        <time>2010-01-01T00:55:47Z</time>
      </trkpt>
      <trkpt lat="40.129738" lon="-7.806544">
        <ele>696.008</ele>
        <time>2010-01-01T00:56:15Z</time>
      </trkpt>
      <trkpt lat="40.129644" lon="-7.805867">
        <ele>709.074</ele>
        <time>2010-01-01T00:56:29Z</time>
      </trkpt>
      <trkpt lat="40.129439" lon="-7.805291">
        <ele>717.097</ele>
        <time>2010-01-01T00:56:59Z</time>
      </trkpt>
      <trkpt lat="40.129425" lon="-7.805002">
        <ele>721.090</ele>
        <time>2010-01-01T00:57:24Z</time>
      </trkpt>
      <trkpt lat="40.129486" lon="-7.804650">
        <ele>727.078</ele>
        <time>2010-01-01T00:57:35Z</time>
      </trkpt>
      <trkpt lat="40.129409" lon="-7.804432">
        <ele>729.085</ele>
        <time>2010-01-01T00:57:58Z</time>
      </trkpt>
      <trkpt lat="40.129206" lon="-7.804448">
        <ele>724.016</ele>
        <time>2010-01-01T00:58:16Z</time>
      </trkpt>
      <trkpt lat="40.129004" lon="-7.804417">
        <ele>722.013</ele>
        <time>2010-01-01T00:58:30Z</time>
      </trkpt>
      <trkpt lat="40.128750" lon="-7.804153">
        <ele>731.045</ele>
        <time>2010-01-01T00:58:46Z</time>
      </trkpt>
      <trkpt lat="40.128482" lon="-7.803922">
        <ele>741.057</ele>
        <time>2010-01-01T00:59:21Z</time>
      </trkpt>
      <trkpt lat="40.127900" lon="-7.803579">
        <ele>747.000</ele>
        <time>2010-01-01T00:59:45Z</time>
      </trkpt>
      <trkpt lat="40.127166" lon="-7.802926">
        <ele>762.020</ele>
        <time>2010-01-01T01:00:04Z</time>
      </trkpt>
      <trkpt lat="40.126815" lon="-7.802835">
        <ele>768.008</ele>
        <time>2010-01-01T01:00:14Z</time>
      </trkpt>
      <trkpt lat="40.126530" lon="-7.802802">
        <ele>773.088</ele>
        <time>2010-01-01T01:00:36Z</time>
      </trkpt>
      <trkpt lat="40.126325" lon="-7.802761">
        <ele>775.011</ele>
        <time>2010-01-01T01:00:48Z</time>
      </trkpt>
      <trkpt lat="40.125776" lon="-7.802441">
        <ele>785.044</ele>
        <time>2010-01-01T01:01:10Z</time>
      </trkpt>
      <trkpt lat="40.125148" lon="-7.801936">
        <ele>799.042</ele>
        <time>2010-01-01T01:01:39Z</time>
      </trkpt>
      <trkpt lat="40.124680" lon="-7.801578">
        <ele>808.059</ele>
        <time>2010-01-01T01:02:03Z</time>
      </trkpt>
      <trkpt lat="40.124496" lon="-7.801386">
        <ele>812.080</ele>
        <time>2010-01-01T01:02:28Z</time>
      </trkpt>
      <trkpt lat="40.124336" lon="-7.801389">
        <ele>814.027</ele>
        <time>2010-01-01T01:02:49Z</time>
      </trkpt>
      <trkpt lat="40.124249" lon="-7.801065">
        <ele>816.089</ele>
        <time>2010-01-01T01:03:10Z</time>
      </trkpt>
      <trkpt lat="40.123981" lon="-7.800817">
        <ele>816.055</ele>
        <time>2010-01-01T01:03:30Z</time>
      </trkpt>
      <trkpt lat="40.123926" lon="-7.800578">
        <ele>813.007</ele>
        <time>2010-01-01T01:03:48Z</time>
      </trkpt>
      <trkpt lat="40.123753" lon="-7.800426">
        <ele>810.017</ele>
        <time>2010-01-01T01:04:04Z</time>
      </trkpt>
      <trkpt lat="40.123545" lon="-7.800342">
        <ele>809.008</ele>
        <time>2010-01-01T01:04:34Z</time>
      </trkpt>
      <trkpt lat="40.123429" lon="-7.800255">
        <ele>808.058</ele>
        <time>2010-01-01T01:04:48Z</time>
      </trkpt>
      <trkpt lat="40.122819" lon="-7.799066">
        <ele>784.091</ele>
        <time>2010-01-01T01:05:28Z</time>
      </trkpt>
      <trkpt lat="40.122729" lon="-7.798880">
        <ele>779.094</ele>
        <time>2010-01-01T01:05:37Z</time>
      </trkpt>
      <trkpt lat="40.122691" lon="-7.798595">
        <ele>774.062</ele>
        <time>2010-01-01T01:05:44Z</time>
      </trkpt>
      <trkpt lat="40.122482" lon="-7.798112">
        <ele>761.029</ele>
        <time>2010-01-01T01:06:06Z</time>
      </trkpt>
      <trkpt lat="40.122553" lon="-7.798108">
        <ele>761.080</ele>
        <time>2010-01-01T01:06:25Z</time>
      </trkpt>
      <trkpt lat="40.123003" lon="-7.798370">
        <ele>762.017</ele>
        <time>2010-01-01T01:06:35Z</time>
      </trkpt>
      <trkpt lat="40.123098" lon="-7.798347">
        <ele>760.069</ele>
        <time>2010-01-01T01:07:07Z</time>
      </trkpt>
      <trkpt lat="40.123030" lon="-7.797920">
        <ele>748.013</ele>
        <time>2010-01-01T01:07:40Z</time>
      </trkpt>
      <trkpt lat="40.122956" lon="-7.797554">
        <ele>735.043</ele>
        <time>2010-01-01T01:08:06Z</time>
      </trkpt>
      <trkpt lat="40.122899" lon="-7.797318">
        <ele>728.007</ele>
        <time>2010-01-01T01:08:27Z</time>
      </trkpt>
      <trkpt lat="40.122686" lon="-7.797135">
        <ele>724.008</ele>
        <time>2010-01-01T01:08:46Z</time>
      </trkpt>
      <trkpt lat="40.122486" lon="-7.797022">
        <ele>720.014</ele>
        <time>2010-01-01T01:09:11Z</time>
      </trkpt>
      <trkpt lat="40.122220" lon="-7.797000">
        <ele>719.077</ele>
        <time>2010-01-01T01:09:29Z</time>
      </trkpt>
      <trkpt lat="40.122107" lon="-7.796830">
        <ele>718.060</ele>
        <time>2010-01-01T01:09:40Z</time>
      </trkpt>
      <trkpt lat="40.122029" lon="-7.796575">
        <ele>715.088</ele>
        <time>2010-01-01T01:10:00Z</time>
      </trkpt>
      <trkpt lat="40.121988" lon="-7.796276">
        <ele>709.095</ele>
        <time>2010-01-01T01:10:35Z</time>
      </trkpt>
      <trkpt lat="40.121948" lon="-7.795991">
        <ele>700.046</ele>
        <time>2010-01-01T01:11:36Z</time>
      </trkpt>
      <trkpt lat="40.121903" lon="-7.795701">
        <ele>691.053</ele>
        <time>2010-01-01T01:12:37Z</time>
      </trkpt>
      <trkpt lat="40.121853" lon="-7.795575">
        <ele>688.035</ele>
        <time>2010-01-01T01:12:37Z</time>
      </trkpt>
      <trkpt lat="40.121653" lon="-7.795216">
        <ele>684.096</ele>
        <time>2010-01-01T01:13:27Z</time>
      </trkpt>
      <trkpt lat="40.121212" lon="-7.794352">
        <ele>678.031</ele>
        <time>2010-01-01T01:14:36Z</time>
      </trkpt>
      <trkpt lat="40.121154" lon="-7.794271">
        <ele>678.024</ele>
        <time>2010-01-01T01:14:46Z</time>
      </trkpt>
      <trkpt lat="40.121013" lon="-7.794162">
        <ele>676.008</ele>
        <time>2010-01-01T01:15:44Z</time>
      </trkpt>
      <trkpt lat="40.120858" lon="-7.794108">
        <ele>675.032</ele>
        <time>2010-01-01T01:16:33Z</time>
      </trkpt>
      <trkpt lat="40.120472" lon="-7.793607">
        <ele>659.085</ele>
        <time>2010-01-01T01:17:12Z</time>
      </trkpt>
      <trkpt lat="40.120365" lon="-7.793282">
        <ele>644.018</ele>
        <time>2010-01-01T01:17:47Z</time>
      </trkpt>
      <trkpt lat="40.120019" lon="-7.792738">
        <ele>631.086</ele>
        <time>2010-01-01T01:18:22Z</time>
      </trkpt>
      <trkpt lat="40.119924" lon="-7.792461">
        <ele>626.013</ele>
        <time>2010-01-01T01:18:44Z</time>
      </trkpt>
      <trkpt lat="40.119775" lon="-7.792344">
        <ele>622.054</ele>
        <time>2010-01-01T01:19:07Z</time>
      </trkpt>
      <trkpt lat="40.119650" lon="-7.791955">
        <ele>609.041</ele>
        <time>2010-01-01T01:19:26Z</time>
      </trkpt>
      <trkpt lat="40.119541" lon="-7.791457">
        <ele>595.073</ele>
        <time>2010-01-01T01:19:52Z</time>
      </trkpt>
      <trkpt lat="40.119145" lon="-7.791246">
        <ele>593.034</ele>
        <time>2010-01-01T01:20:14Z</time>
      </trkpt>
      <trkpt lat="40.118879" lon="-7.790760">
        <ele>579.055</ele>
        <time>2010-01-01T01:20:41Z</time>
      </trkpt>
      <trkpt lat="40.118614" lon="-7.790194">
        <ele>565.010</ele>
        <time>2010-01-01T01:21:07Z</time>
      </trkpt>
      <trkpt lat="40.118738" lon="-7.790091">
        <ele>559.008</ele>
        <time>2010-01-01T01:21:50Z</time>
      </trkpt>
      <trkpt lat="40.118730" lon="-7.789933">
        <ele>554.046</ele>
        <time>2010-01-01T01:22:04Z</time>
      </trkpt>
      <trkpt lat="40.118868" lon="-7.789830">
        <ele>549.019</ele>
        <time>2010-01-01T01:22:47Z</time>
      </trkpt>
      <trkpt lat="40.119047" lon="-7.789525">
        <ele>542.092</ele>
        <time>2010-01-01T01:23:09Z</time>
      </trkpt>
      <trkpt lat="40.118908" lon="-7.789214">
        <ele>537.010</ele>
        <time>2010-01-01T01:23:37Z</time>
      </trkpt>
      <trkpt lat="40.118759" lon="-7.789133">
        <ele>537.057</ele>
        <time>2010-01-01T01:24:01Z</time>
      </trkpt>
      <trkpt lat="40.118847" lon="-7.788891">
        <ele>531.028</ele>
        <time>2010-01-01T01:24:08Z</time>
      </trkpt>
      <trkpt lat="40.119031" lon="-7.788763">
        <ele>535.055</ele>
        <time>2010-01-01T01:24:20Z</time>
      </trkpt>
      <trkpt lat="40.119059" lon="-7.788593">
        <ele>537.087</ele>
        <time>2010-01-01T01:24:36Z</time>
      </trkpt>
      <trkpt lat="40.119009" lon="-7.788326">
        <ele>542.012</ele>
        <time>2010-01-01T01:24:59Z</time>
      </trkpt>
      <trkpt lat="40.118881" lon="-7.788142">
        <ele>543.032</ele>
        <time>2010-01-01T00:00:00Z</time>
      </trkpt>
      <trkpt lat="40.118069" lon="-7.787620">
        <ele>527.005</ele>
        <time>2010-01-01T00:00:07Z</time>
      </trkpt>
      <trkpt lat="40.117657" lon="-7.787190">
        <ele>523.008</ele>
        <time>2010-01-01T00:00:20Z</time>
      </trkpt>
      <trkpt lat="40.117285" lon="-7.786800">
        <ele>518.074</ele>
        <time>2010-01-01T00:00:32Z</time>
      </trkpt>
      <trkpt lat="40.116671" lon="-7.786330">
        <ele>511.067</ele>
        <time>2010-01-01T00:00:37Z</time>
      </trkpt>
      <trkpt lat="40.116269" lon="-7.786055">
        <ele>508.020</ele>
        <time>2010-01-01T00:01:00Z</time>
      </trkpt>
      <trkpt lat="40.115867" lon="-7.785911">
        <ele>498.078</ele>
        <time>2010-01-01T00:01:25Z</time>
      </trkpt>
      <trkpt lat="40.115535" lon="-7.785609">
        <ele>490.055</ele>
        <time>2010-01-01T00:01:47Z</time>
      </trkpt>
      <trkpt lat="40.115458" lon="-7.785464">
        <ele>490.036</ele>
        <time>2010-01-01T00:01:53Z</time>
      </trkpt>
      <trkpt lat="40.115161" lon="-7.785179">
        <ele>482.023</ele>
        <time>2010-01-01T00:02:08Z</time>
      </trkpt>
      <trkpt lat="40.115009" lon="-7.784970">
        <ele>476.015</ele>
        <time>2010-01-01T00:02:19Z</time>
      </trkpt>
      <trkpt lat="40.114785" lon="-7.784710">
        <ele>472.082</ele>
        <time>2010-01-01T00:02:43Z</time>
      </trkpt>
      <trkpt lat="40.114714" lon="-7.784655">
        <ele>471.043</ele>
        <time>2010-01-01T00:02:51Z</time>
      </trkpt>
      <trkpt lat="40.114793" lon="-7.784526">
        <ele>472.017</ele>
        <time>2010-01-01T00:03:02Z</time>
      </trkpt>
      <trkpt lat="40.114902" lon="-7.784426">
        <ele>474.008</ele>
        <time>2010-01-01T00:03:07Z</time>
      </trkpt>
      <trkpt lat="40.114874" lon="-7.784244">
        <ele>477.061</ele>
        <time>2010-01-01T00:03:28Z</time>
      </trkpt>
      <trkpt lat="40.114749" lon="-7.784008">
        <ele>484.034</ele>
        <time>2010-01-01T00:03:47Z</time>
      </trkpt>
      <trkpt lat="40.114237" lon="-7.783654">
        <ele>491.037</ele>
        <time>2010-01-01T00:04:11Z</time>
      </trkpt>
      <trkpt lat="40.113537" lon="-7.783440">
        <ele>481.055</ele>
        <time>2010-01-01T00:04:22Z</time>
      </trkpt>
      <trkpt lat="40.112545" lon="-7.783044">
        <ele>475.012</ele>
        <time>2010-01-01T00:04:43Z</time>
      </trkpt>
      <trkpt lat="40.112228" lon="-7.782715">
        <ele>475.043</ele>
        <time>2010-01-01T00:04:56Z</time>
      </trkpt>
      <trkpt lat="40.111961" lon="-7.782542">
        <ele>471.010</ele>
        <time>2010-01-01T00:05:07Z</time>
      </trkpt>
      <trkpt lat="40.111462" lon="-7.782476">
        <ele>457.072</ele>
        <time>2010-01-01T00:05:20Z</time>
      </trkpt>
      <trkpt lat="40.111199" lon="-7.782370">
        <ele>453.066</ele>
        <time>2010-01-01T00:05:29Z</time>
      </trkpt>
      <trkpt lat="40.110998" lon="-7.782126">
        <ele>454.029</ele>
        <time>2010-01-01T00:05:51Z</time>
      </trkpt>
      <trkpt lat="40.110803" lon="-7.781828">
        <ele>452.021</ele>
        <time>2010-01-01T00:06:00Z</time>
      </trkpt>
      <trkpt lat="40.110696" lon="-7.781675">
        <ele>452.008</ele>
        <time>2010-01-01T00:06:06Z</time>
      </trkpt>
      <trkpt lat="40.110642" lon="-7.781352">
        <ele>451.059</ele>
        <time>2010-01-01T00:06:21Z</time>
      </trkpt>
      <trkpt lat="40.110713" lon="-7.780789">
        <ele>448.022</ele>
        <time>2010-01-01T00:06:32Z</time>
      </trkpt>
      <trkpt lat="40.110748" lon="-7.780509">
        <ele>448.065</ele>
        <time>2010-01-01T00:06:46Z</time>
      </trkpt>
      <trkpt lat="40.110981" lon="-7.779826">
        <ele>448.013</ele>
        <time>2010-01-01T00:06:53Z</time>
      </trkpt>
      <trkpt lat="40.110936" lon="-7.779583">
        <ele>446.020</ele>
        <time>2010-01-01T00:07:29Z</time>
      </trkpt>
      <trkpt lat="40.110806" lon="-7.779330">
        <ele>442.021</ele>
        <time>2010-01-01T00:07:49Z</time>
      </trkpt>
      <trkpt lat="40.110755" lon="-7.779110">
        <ele>442.028</ele>
        <time>2010-01-01T00:08:11Z</time>
      </trkpt>
      <trkpt lat="40.110794" lon="-7.778967">
        <ele>443.080</ele>
        <time>2010-01-01T00:08:21Z</time>
      </trkpt>
      <trkpt lat="40.110602" lon="-7.778690">
        <ele>441.083</ele>
        <time>2010-01-01T00:08:30Z</time>
      </trkpt>
      <trkpt lat="40.110499" lon="-7.778286">
        <ele>442.025</ele>
        <time>2010-01-01T00:08:37Z</time>
      </trkpt>
      <trkpt lat="40.110118" lon="-7.777847">
        <ele>436.017</ele>
        <time>2010-01-01T00:08:45Z</time>
      </trkpt>
      <trkpt lat="40.109803" lon="-7.777259">
        <ele>437.008</ele>
        <time>2010-01-01T00:08:56Z</time>
      </trkpt>
      <trkpt lat="40.109736" lon="-7.777166">
        <ele>436.051</ele>
        <time>2010-01-01T00:09:00Z</time>
      </trkpt>
      <trkpt lat="40.109710" lon="-7.776896">
        <ele>436.024</ele>
        <time>2010-01-01T00:09:07Z</time>
      </trkpt>
      <trkpt lat="40.109748" lon="-7.776300">
        <ele>434.067</ele>
        <time>2010-01-01T00:09:28Z</time>
      </trkpt>
      <trkpt lat="40.109562" lon="-7.775622">
        <ele>433.045</ele>
        <time>2010-01-01T00:09:37Z</time>
      </trkpt>
      <trkpt lat="40.109024" lon="-7.775120">
        <ele>432.092</ele>
        <time>2010-01-01T00:10:00Z</time>
      </trkpt>
      <trkpt lat="40.108885" lon="-7.774766">
        <ele>427.013</ele>
        <time>2010-01-01T00:10:12Z</time>
      </trkpt>
      <trkpt lat="40.108882" lon="-7.774432">
        <ele>429.020</ele>
        <time>2010-01-01T00:10:20Z</time>
      </trkpt>
      <trkpt lat="40.108717" lon="-7.774220">
        <ele>428.052</ele>
        <time>2010-01-01T00:10:29Z</time>
      </trkpt>
      <trkpt lat="40.108510" lon="-7.773872">
        <ele>427.021</ele>
        <time>2010-01-01T00:10:44Z</time>
      </trkpt>
      <trkpt lat="40.108013" lon="-7.773012">
        <ele>424.041</ele>
        <time>2010-01-01T00:11:06Z</time>
      </trkpt>
      <trkpt lat="40.107697" lon="-7.772670">
        <ele>420.005</ele>
        <time>2010-01-01T00:11:14Z</time>
      </trkpt>
      <trkpt lat="40.107631" lon="-7.772481">
        <ele>420.008</ele>
        <time>2010-01-01T00:11:35Z</time>
      </trkpt>
      <trkpt lat="40.107584" lon="-7.772263">
        <ele>422.085</ele>
        <time>2010-01-01T00:11:46Z</time>
      </trkpt>
      <trkpt lat="40.107308" lon="-7.772115">
        <ele>419.028</ele>
        <time>2010-01-01T00:11:55Z</time>
      </trkpt>
      <trkpt lat="40.106938" lon="-7.771737">
        <ele>414.011</ele>
        <time>2010-01-01T00:12:08Z</time>
      </trkpt>
      <trkpt lat="40.106861" lon="-7.771265">
        <ele>415.069</ele>
        <time>2010-01-01T00:12:22Z</time>
      </trkpt>
      <trkpt lat="40.106670" lon="-7.770545">
        <ele>420.056</ele>
        <time>2010-01-01T00:12:32Z</time>
      </trkpt>
      <trkpt lat="40.106420" lon="-7.770352">
        <ele>416.067</ele>
        <time>2010-01-01T00:12:46Z</time>
      </trkpt>
      <trkpt lat="40.106199" lon="-7.770089">
        <ele>417.064</ele>
        <time>2010-01-01T00:12:59Z</time>
      </trkpt>
      <trkpt lat="40.105545" lon="-7.770064">
        <ele>410.056</ele>
        <time>2010-01-01T00:13:10Z</time>
      </trkpt>
      <trkpt lat="40.105229" lon="-7.769932">
        <ele>406.047</ele>
        <time>2010-01-01T00:13:21Z</time>
      </trkpt>
      <trkpt lat="40.105066" lon="-7.769936">
        <ele>407.029</ele>
        <time>2010-01-01T00:13:28Z</time>
      </trkpt>
      <trkpt lat="40.104874" lon="-7.769691">
        <ele>403.021</ele>
        <time>2010-01-01T00:13:43Z</time>
      </trkpt>
      <trkpt lat="40.104653" lon="-7.769184">
        <ele>396.008</ele>
        <time>2010-01-01T00:13:58Z</time>
      </trkpt>
      <trkpt lat="40.104562" lon="-7.768083">
        <ele>394.087</ele>
        <time>2010-01-01T00:14:08Z</time>
      </trkpt>
      <trkpt lat="40.104738" lon="-7.768198">
        <ele>395.070</ele>
        <time>2010-01-01T00:14:12Z</time>
      </trkpt>
      <trkpt lat="40.104872" lon="-7.768119">
        <ele>398.093</ele>
        <time>2010-01-01T00:14:25Z</time>
      </trkpt>
      <trkpt lat="40.104894" lon="-7.767955">
        <ele>400.091</ele>
        <time>2010-01-01T00:14:45Z</time>
      </trkpt>
      <trkpt lat="40.104679" lon="-7.767657">
        <ele>403.028</ele>
        <time>2010-01-01T00:14:50Z</time>
      </trkpt>
      <trkpt lat="40.104579" lon="-7.767303">
        <ele>409.079</ele>
        <time>2010-01-01T00:14:56Z</time>
      </trkpt>
      <trkpt lat="40.104559" lon="-7.766937">
        <ele>414.086</ele>
        <time>2010-01-01T00:15:04Z</time>
      </trkpt>
      <trkpt lat="40.104823" lon="-7.766616">
        <ele>423.018</ele>
        <time>2010-01-01T00:15:25Z</time>
      </trkpt>
      <trkpt lat="40.104995" lon="-7.766512">
        <ele>428.023</ele>
        <time>2010-01-01T00:15:41Z</time>
      </trkpt>
      <trkpt lat="40.105218" lon="-7.766131">
        <ele>436.083</ele>
        <time>2010-01-01T00:15:47Z</time>
      </trkpt>
      <trkpt lat="40.105529" lon="-7.765566">
        <ele>452.011</ele>
        <time>2010-01-01T00:16:03Z</time>
      </trkpt>
      <trkpt lat="40.105991" lon="-7.764599">
        <ele>466.008</ele>
        <time>2010-01-01T00:16:10Z</time>
      </trkpt>
      <trkpt lat="40.106144" lon="-7.763010">
        <ele>479.055</ele>
        <time>2010-01-01T00:16:17Z</time>
      </trkpt>
      <trkpt lat="40.106446" lon="-7.762505">
        <ele>486.058</ele>
        <time>2010-01-01T00:16:24Z</time>
      </trkpt>
      <trkpt lat="40.106412" lon="-7.762142">
        <ele>484.031</ele>
        <time>2010-01-01T00:16:47Z</time>
      </trkpt>
      <trkpt lat="40.106438" lon="-7.761882">
        <ele>486.029</ele>
        <time>2010-01-01T00:17:08Z</time>
      </trkpt>
      <trkpt lat="40.106367" lon="-7.761362">
        <ele>486.016</ele>
        <time>2010-01-01T00:17:13Z</time>
      </trkpt>
      <trkpt lat="40.106539" lon="-7.760982">
        <ele>493.037</ele>
        <time>2010-01-01T00:17:22Z</time>
      </trkpt>
      <trkpt lat="40.106685" lon="-7.760909">
        <ele>495.074</ele>
        <time>2010-01-01T00:17:36Z</time>
      </trkpt>
      <trkpt lat="40.107421" lon="-7.761471">
        <ele>503.096</ele>
        <time>2010-01-01T00:17:40Z</time>
      </trkpt>
      <trkpt lat="40.107551" lon="-7.761582">
        <ele>504.069</ele>
        <time>2010-01-01T00:17:48Z</time>
      </trkpt>
      <trkpt lat="40.107771" lon="-7.761607">
        <ele>500.004</ele>
        <time>2010-01-01T00:17:56Z</time>
      </trkpt>
      <trkpt lat="40.107485" lon="-7.760673">
        <ele>494.024</ele>
        <time>2010-01-01T00:18:01Z</time>
      </trkpt>
      <trkpt lat="40.107553" lon="-7.760094">
        <ele>492.008</ele>
        <time>2010-01-01T00:18:14Z</time>
      </trkpt>
      <trkpt lat="40.107392" lon="-7.759670">
        <ele>491.059</ele>
        <time>2010-01-01T00:18:23Z</time>
      </trkpt>
      <trkpt lat="40.106373" lon="-7.759099">
        <ele>482.082</ele>
        <time>2010-01-01T00:18:32Z</time>
      </trkpt>
      <trkpt lat="40.106549" lon="-7.758641">
        <ele>486.085</ele>
        <time>2010-01-01T00:18:44Z</time>
      </trkpt>
      <trkpt lat="40.106501" lon="-7.758509">
        <ele>487.023</ele>
        <time>2010-01-01T00:18:52Z</time>
      </trkpt>
      <trkpt lat="40.106159" lon="-7.758546">
        <ele>486.090</ele>
        <time>2010-01-01T00:19:04Z</time>
      </trkpt>
      <trkpt lat="40.105900" lon="-7.758275">
        <ele>488.061</ele>
        <time>2010-01-01T00:19:25Z</time>
      </trkpt>
      <trkpt lat="40.105985" lon="-7.758010">
        <ele>492.038</ele>
        <time>2010-01-01T00:19:41Z</time>
      </trkpt>
      <trkpt lat="40.106095" lon="-7.758070">
        <ele>494.030</ele>
        <time>2010-01-01T00:19:52Z</time>
      </trkpt>
      <trkpt lat="40.106338" lon="-7.757893">
        <ele>497.029</ele>
        <time>2010-01-01T00:20:14Z</time>
      </trkpt>
      <trkpt lat="40.106759" lon="-7.757143">
        <ele>507.000</ele>
        <time>2010-01-01T00:20:26Z</time>
      </trkpt>
      <trkpt lat="40.106956" lon="-7.756773">
        <ele>507.020</ele>
        <time>2010-01-01T00:20:42Z</time>
      </trkpt>
      <trkpt lat="40.107153" lon="-7.756211">
        <ele>504.008</ele>
        <time>2010-01-01T00:20:49Z</time>
      </trkpt>
      <trkpt lat="40.107110" lon="-7.755401">
        <ele>489.015</ele>
        <time>2010-01-01T00:20:58Z</time>
      </trkpt>
      <trkpt lat="40.106732" lon="-7.754590">
        <ele>473.068</ele>
        <time>2010-01-01T00:21:06Z</time>
      </trkpt>
      <trkpt lat="40.106739" lon="-7.754181">
        <ele>468.041</ele>
        <time>2010-01-01T00:21:11Z</time>
      </trkpt>
      <trkpt lat="40.106805" lon="-7.753782">
        <ele>462.049</ele>
        <time>2010-01-01T00:21:16Z</time>
      </trkpt>
      <trkpt lat="40.106701" lon="-7.753106">
        <ele>453.036</ele>
        <time>2010-01-01T00:21:27Z</time>
      </trkpt>
      <trkpt lat="40.106496" lon="-7.752519">
        <ele>453.037</ele>
        <time>2010-01-01T00:21:38Z</time>
      </trkpt>
      <trkpt lat="40.106468" lon="-7.751244">
        <ele>441.094</ele>
        <time>2010-01-01T00:21:47Z</time>
      </trkpt>
      <trkpt lat="40.105995" lon="-7.749838">
        <ele>415.096</ele>
        <time>2010-01-01T00:22:13Z</time>
      </trkpt>
      <trkpt lat="40.105296" lon="-7.748842">
        <ele>403.063</ele>
        <time>2010-01-01T00:22:16Z</time>
      </trkpt>
      <trkpt lat="40.104847" lon="-7.748167">
        <ele>392.044</ele>
        <time>2010-01-01T00:22:22Z</time>
      </trkpt>
      <trkpt lat="40.104539" lon="-7.748103">
        <ele>391.018</ele>
        <time>2010-01-01T00:22:31Z</time>
      </trkpt>
      <trkpt lat="40.103934" lon="-7.747436">
        <ele>378.008</ele>
        <time>2010-01-01T00:22:35Z</time>
      </trkpt>
      <trkpt lat="40.103475" lon="-7.746482">
        <ele>363.079</ele>
        <time>2010-01-01T00:22:45Z</time>
      </trkpt>
      <trkpt lat="40.103201" lon="-7.746209">
        <ele>360.062</ele>
        <time>2010-01-01T00:23:00Z</time>
      </trkpt>
      <trkpt lat="40.103071" lon="-7.746002">
        <ele>357.015</ele>
        <time>2010-01-01T00:23:22Z</time>
      </trkpt>
      <trkpt lat="40.102428" lon="-7.745768">
        <ele>351.013</ele>
        <time>2010-01-01T00:23:33Z</time>
      </trkpt>
      <trkpt lat="40.102346" lon="-7.745826">
        <ele>350.010</ele>
        <time>2010-01-01T00:23:44Z</time>
      </trkpt>
      <trkpt lat="40.102316" lon="-7.746118">
        <ele>351.081</ele>
        <time>2010-01-01T00:23:52Z</time>
      </trkpt>
      <trkpt lat="40.101859" lon="-7.746032">
        <ele>349.028</ele>
        <time>2010-01-01T00:24:00Z</time>
      </trkpt>
      <trkpt lat="40.101377" lon="-7.745959">
        <ele>355.030</ele>
        <time>2010-01-01T00:24:16Z</time>
      </trkpt>
      <trkpt lat="40.101337" lon="-7.746357">
        <ele>357.017</ele>
        <time>2010-01-01T00:24:28Z</time>
      </trkpt>
      <trkpt lat="40.101074" lon="-7.747153">
        <ele>364.087</ele>
        <time>2010-01-01T00:24:46Z</time>
      </trkpt>
      <trkpt lat="40.100910" lon="-7.747585">
        <ele>368.015</ele>
        <time>2010-01-01T00:24:53Z</time>
      </trkpt>
      <trkpt lat="40.100387" lon="-7.747021">
        <ele>374.008</ele>
        <time>2010-01-01T00:25:30Z</time>
      </trkpt>
      <trkpt lat="40.100512" lon="-7.746841">
        <ele>374.084</ele>
        <time>2010-01-01T00:26:04Z</time>
      </trkpt>
      <trkpt lat="40.100870" lon="-7.746776">
        <ele>370.077</ele>
        <time>2010-01-01T00:26:17Z</time>
      </trkpt>
      <trkpt lat="40.100970" lon="-7.746624">
        <ele>367.090</ele>
        <time>2010-01-01T00:26:44Z</time>
      </trkpt>
      <trkpt lat="40.100981" lon="-7.745994">
        <ele>373.048</ele>
        <time>2010-01-01T00:26:57Z</time>
      </trkpt>
      <trkpt lat="40.100901" lon="-7.745455">
        <ele>381.055</ele>
        <time>2010-01-01T00:27:51Z</time>
      </trkpt>
      <trkpt lat="40.100788" lon="-7.744961">
        <ele>385.026</ele>
        <time>2010-01-01T00:28:10Z</time>
      </trkpt>
      <trkpt lat="40.100720" lon="-7.744460">
        <ele>389.023</ele>
        <time>2010-01-01T00:28:28Z</time>
      </trkpt>
      <trkpt lat="40.100558" lon="-7.743400">
        <ele>412.035</ele>
        <time>2010-01-01T00:28:34Z</time>
      </trkpt>
      <trkpt lat="40.100479" lon="-7.743285">
        <ele>417.065</ele>
        <time>2010-01-01T00:28:47Z</time>
      </trkpt>
      <trkpt lat="40.100171" lon="-7.743280">
        <ele>425.068</ele>
        <time>2010-01-01T00:29:02Z</time>
      </trkpt>
      <trkpt lat="40.100013" lon="-7.743231">
        <ele>427.014</ele>
        <time>2010-01-01T00:29:13Z</time>
      </trkpt>
      <trkpt lat="40.099935" lon="-7.743122">
        <ele>428.008</ele>
        <time>2010-01-01T00:29:22Z</time>
      </trkpt>
      <trkpt lat="40.099781" lon="-7.742847">
        <ele>430.069</ele>
        <time>2010-01-01T00:29:28Z</time>
      </trkpt>
      <trkpt lat="40.099779" lon="-7.742498">
        <ele>436.062</ele>
        <time>2010-01-01T00:29:37Z</time>
      </trkpt>
      <trkpt lat="40.100135" lon="-7.742226">
        <ele>442.025</ele>
        <time>2010-01-01T00:29:45Z</time>
      </trkpt>
      <trkpt lat="40.100302" lon="-7.741904">
        <ele>446.023</ele>
        <time>2010-01-01T00:30:01Z</time>
      </trkpt>
      <trkpt lat="40.100322" lon="-7.741301">
        <ele>455.040</ele>
        <time>2010-01-01T00:30:11Z</time>
      </trkpt>
      <trkpt lat="40.100298" lon="-7.740995">
        <ele>461.011</ele>
        <time>2010-01-01T00:30:28Z</time>
      </trkpt>
      <trkpt lat="40.100322" lon="-7.740194">
        <ele>476.068</ele>
        <time>2010-01-01T00:30:50Z</time>
      </trkpt>
      <trkpt lat="40.100299" lon="-7.739342">
        <ele>490.040</ele>
        <time>2010-01-01T00:31:20Z</time>
      </trkpt>
      <trkpt lat="40.100182" lon="-7.738701">
        <ele>501.035</ele>
        <time>2010-01-01T00:31:28Z</time>
      </trkpt>
      <trkpt lat="40.099921" lon="-7.738299">
        <ele>506.086</ele>
        <time>2010-01-01T00:31:38Z</time>
      </trkpt>
      <trkpt lat="40.099898" lon="-7.738052">
        <ele>505.014</ele>
        <time>2010-01-01T00:31:54Z</time>
      </trkpt>
      <trkpt lat="40.099933" lon="-7.737820">
        <ele>504.008</ele>
        <time>2010-01-01T00:32:04Z</time>
      </trkpt>
      <trkpt lat="40.099838" lon="-7.737634">
        <ele>506.086</ele>
        <time>2010-01-01T00:32:16Z</time>
      </trkpt>
      <trkpt lat="40.099521" lon="-7.737357">
        <ele>512.099</ele>
        <time>2010-01-01T00:32:37Z</time>
      </trkpt>
      <trkpt lat="40.099307" lon="-7.737171">
        <ele>515.032</ele>
        <time>2010-01-01T00:32:52Z</time>
      </trkpt>
      <trkpt lat="40.098917" lon="-7.737094">
        <ele>517.040</ele>
        <time>2010-01-01T00:33:01Z</time>
      </trkpt>
      <trkpt lat="40.098846" lon="-7.736928">
        <ele>516.067</ele>
        <time>2010-01-01T00:33:14Z</time>
      </trkpt>
      <trkpt lat="40.098814" lon="-7.736370">
        <ele>516.038</ele>
        <time>2010-01-01T00:33:26Z</time>
      </trkpt>
      <trkpt lat="40.098735" lon="-7.735527">
        <ele>518.075</ele>
        <time>2010-01-01T00:33:44Z</time>
      </trkpt>
      <trkpt lat="40.097983" lon="-7.734742">
        <ele>522.027</ele>
        <time>2010-01-01T00:33:55Z</time>
      </trkpt>
      <trkpt lat="40.097606" lon="-7.734204">
        <ele>526.017</ele>
        <time>2010-01-01T00:34:10Z</time>
      </trkpt>
      <trkpt lat="40.097602" lon="-7.733904">
        <ele>526.087</ele>
        <time>2010-01-01T00:34:15Z</time>
      </trkpt>
      <trkpt lat="40.097334" lon="-7.732478">
        <ele>530.015</ele>
        <time>2010-01-01T00:34:24Z</time>
      </trkpt>
      <trkpt lat="40.096806" lon="-7.731861">
        <ele>527.008</ele>
        <time>2010-01-01T00:34:34Z</time>
      </trkpt>
      <trkpt lat="40.096551" lon="-7.731743">
        <ele>527.054</ele>
        <time>2010-01-01T00:34:44Z</time>
      </trkpt>
      <trkpt lat="40.096446" lon="-7.731732">
        <ele>527.017</ele>
        <time>2010-01-01T00:34:55Z</time>
      </trkpt>
      <trkpt lat="40.096001" lon="-7.731897">
        <ele>527.030</ele>
        <time>2010-01-01T00:35:08Z</time>
      </trkpt>
      <trkpt lat="40.095834" lon="-7.731906">
        <ele>528.058</ele>
        <time>2010-01-01T00:35:25Z</time>
      </trkpt>
      <trkpt lat="40.095677" lon="-7.731909">
        <ele>530.055</ele>
        <time>2010-01-01T00:35:48Z</time>
      </trkpt>
      <trkpt lat="40.095513" lon="-7.731843">
        <ele>532.026</ele>
        <time>2010-01-01T00:35:58Z</time>
      </trkpt>
      <trkpt lat="40.095365" lon="-7.731765">
        <ele>535.063</ele>
        <time>2010-01-01T00:36:06Z</time>
      </trkpt>
      <trkpt lat="40.095251" lon="-7.731615">
        <ele>537.015</ele>
        <time>2010-01-01T00:36:13Z</time>
      </trkpt>
      <trkpt lat="40.095130" lon="-7.731220">
        <ele>541.073</ele>
        <time>2010-01-01T00:36:26Z</time>
      </trkpt>
      <trkpt lat="40.095059" lon="-7.731098">
        <ele>544.085</ele>
        <time>2010-01-01T00:36:33Z</time>
      </trkpt>
      <trkpt lat="40.094932" lon="-7.731016">
        <ele>546.013</ele>
        <time>2010-01-01T00:36:45Z</time>
      </trkpt>
      <trkpt lat="40.094304" lon="-7.730845">
        <ele>558.008</ele>
        <time>2010-01-01T00:36:53Z</time>
      </trkpt>
      <trkpt lat="40.094121" lon="-7.730685">
        <ele>561.020</ele>
        <time>2010-01-01T00:37:02Z</time>
      </trkpt>
      <trkpt lat="40.093864" lon="-7.730451">
        <ele>563.033</ele>
        <time>2010-01-01T00:37:10Z</time>
      </trkpt>
      <trkpt lat="40.093321" lon="-7.730070">
        <ele>568.016</ele>
        <time>2010-01-01T00:37:22Z</time>
      </trkpt>
      <trkpt lat="40.093090" lon="-7.729832">
        <ele>572.044</ele>
        <time>2010-01-01T00:37:31Z</time>
      </trkpt>
      <trkpt lat="40.092974" lon="-7.729759">
        <ele>573.091</ele>
        <time>2010-01-01T00:37:38Z</time>
      </trkpt>
      <trkpt lat="40.092562" lon="-7.729463">
        <ele>574.012</ele>
        <time>2010-01-01T00:37:50Z</time>
      </trkpt>
      <trkpt lat="40.092263" lon="-7.729276">
        <ele>574.029</ele>
        <time>2010-01-01T00:37:59Z</time>
      </trkpt>
      <trkpt lat="40.091979" lon="-7.729088">
        <ele>574.081</ele>
        <time>2010-01-01T00:38:14Z</time>
      </trkpt>
      <trkpt lat="40.091850" lon="-7.728934">
        <ele>574.079</ele>
        <time>2010-01-01T00:38:42Z</time>
      </trkpt>
      <trkpt lat="40.091359" lon="-7.728290">
        <ele>578.005</ele>
        <time>2010-01-01T00:39:03Z</time>
      </trkpt>
      <trkpt lat="40.090885" lon="-7.727559">
        <ele>581.025</ele>
        <time>2010-01-01T00:39:23Z</time>
      </trkpt>
      <trkpt lat="40.090765" lon="-7.727372">
        <ele>583.008</ele>
        <time>2010-01-01T00:39:37Z</time>
      </trkpt>
      <trkpt lat="40.090464" lon="-7.726902">
        <ele>584.090</ele>
        <time>2010-01-01T00:40:13Z</time>
      </trkpt>
      <trkpt lat="40.090257" lon="-7.726363">
        <ele>587.033</ele>
        <time>2010-01-01T00:40:29Z</time>
      </trkpt>
      <trkpt lat="40.090177" lon="-7.726205">
        <ele>589.056</ele>
        <time>2010-01-01T00:40:43Z</time>
      </trkpt>
      <trkpt lat="40.089747" lon="-7.725563">
        <ele>596.094</ele>
        <time>2010-01-01T00:40:52Z</time>
      </trkpt>
      <trkpt lat="40.089551" lon="-7.725309">
        <ele>598.051</ele>
        <time>2010-01-01T00:40:58Z</time>
      </trkpt>
      <trkpt lat="40.089453" lon="-7.725106">
        <ele>599.022</ele>
        <time>2010-01-01T00:41:03Z</time>
      </trkpt>
      <trkpt lat="40.089490" lon="-7.724830">
        <ele>603.079</ele>
        <time>2010-01-01T00:41:05Z</time>
      </trkpt>
      <trkpt lat="40.089524" lon="-7.724559">
        <ele>608.031</ele>
        <time>2010-01-01T00:41:22Z</time>
      </trkpt>
      <trkpt lat="40.089470" lon="-7.724445">
        <ele>609.051</ele>
        <time>2010-01-01T00:41:32Z</time>
      </trkpt>
      <trkpt lat="40.089380" lon="-7.724397">
        <ele>609.001</ele>
        <time>2010-01-01T00:41:40Z</time>
      </trkpt>
      <trkpt lat="40.089169" lon="-7.724446">
        <ele>609.011</ele>
        <time>2010-01-01T00:41:47Z</time>
      </trkpt>
      <trkpt lat="40.088729" lon="-7.724390">
        <ele>620.008</ele>
        <time>2010-01-01T00:41:59Z</time>
      </trkpt>
      <trkpt lat="40.088472" lon="-7.724609">
        <ele>620.088</ele>
        <time>2010-01-01T00:42:05Z</time>
      </trkpt>
      <trkpt lat="40.088189" lon="-7.724766">
        <ele>623.031</ele>
        <time>2010-01-01T00:42:39Z</time>
      </trkpt>
      <trkpt lat="40.088093" lon="-7.725064">
        <ele>621.024</ele>
        <time>2010-01-01T00:42:48Z</time>
      </trkpt>
      <trkpt lat="40.087799" lon="-7.725310">
        <ele>623.042</ele>
        <time>2010-01-01T00:42:53Z</time>
      </trkpt>
      <trkpt lat="40.087176" lon="-7.725686">
        <ele>627.069</ele>
        <time>2010-01-01T00:43:18Z</time>
      </trkpt>
      <trkpt lat="40.086852" lon="-7.725826">
        <ele>625.020</ele>
        <time>2010-01-01T00:43:27Z</time>
      </trkpt>
      <trkpt lat="40.086512" lon="-7.725053">
        <ele>633.017</ele>
        <time>2010-01-01T00:43:34Z</time>
      </trkpt>
      <trkpt lat="40.086428" lon="-7.724890">
        <ele>633.069</ele>
        <time>2010-01-01T00:43:41Z</time>
      </trkpt>
      <trkpt lat="40.086440" lon="-7.724363">
        <ele>635.063</ele>
        <time>2010-01-01T00:43:51Z</time>
      </trkpt>
      <trkpt lat="40.086092" lon="-7.723833">
        <ele>633.044</ele>
        <time>2010-01-01T00:43:55Z</time>
      </trkpt>
      <trkpt lat="40.085749" lon="-7.723274">
        <ele>632.018</ele>
        <time>2010-01-01T00:44:07Z</time>
      </trkpt>
      <trkpt lat="40.085744" lon="-7.723005">
        <ele>632.008</ele>
        <time>2010-01-01T00:44:12Z</time>
      </trkpt>
      <trkpt lat="40.086202" lon="-7.722533">
        <ele>628.089</ele>
        <time>2010-01-01T00:44:23Z</time>
      </trkpt>
      <trkpt lat="40.086885" lon="-7.721790">
        <ele>624.032</ele>
        <time>2010-01-01T00:44:52Z</time>
      </trkpt>
      <trkpt lat="40.086865" lon="-7.721461">
        <ele>621.045</ele>
        <time>2010-01-01T00:45:12Z</time>
      </trkpt>
      <trkpt lat="40.086225" lon="-7.721043">
        <ele>608.083</ele>
        <time>2010-01-01T00:45:37Z</time>
      </trkpt>
      <trkpt lat="40.086107" lon="-7.720574">
        <ele>606.090</ele>
        <time>2010-01-01T00:45:57Z</time>
      </trkpt>
      <trkpt lat="40.086164" lon="-7.720116">
        <ele>610.021</ele>
        <time>2010-01-01T00:46:00Z</time>
      </trkpt>
      <trkpt lat="40.085750" lon="-7.720021">
        <ele>599.098</ele>
        <time>2010-01-01T00:46:17Z</time>
      </trkpt>
      <trkpt lat="40.085642" lon="-7.719533">
        <ele>602.060</ele>
        <time>2010-01-01T00:46:28Z</time>
      </trkpt>
      <trkpt lat="40.085258" lon="-7.719277">
        <ele>594.084</ele>
        <time>2010-01-01T00:46:35Z</time>
      </trkpt>
      <trkpt lat="40.085091" lon="-7.718773">
        <ele>590.007</ele>
        <time>2010-01-01T00:47:01Z</time>
      </trkpt>
      <trkpt lat="40.084849" lon="-7.718559">
        <ele>585.017</ele>
        <time>2010-01-01T00:47:14Z</time>
      </trkpt>
      <trkpt lat="40.083833" lon="-7.718345">
        <ele>569.008</ele>
        <time>2010-01-01T00:47:52Z</time>
      </trkpt>
      <trkpt lat="40.083101" lon="-7.718327">
        <ele>562.021</ele>
        <time>2010-01-01T00:48:12Z</time>
      </trkpt>
      <trkpt lat="40.082436" lon="-7.718294">
        <ele>558.084</ele>
        <time>2010-01-01T00:48:28Z</time>
      </trkpt>
      <trkpt lat="40.081932" lon="-7.718277">
        <ele>557.067</ele>
        <time>2010-01-01T00:48:47Z</time>
      </trkpt>
      <trkpt lat="40.081334" lon="-7.718501">
        <ele>543.085</ele>
        <time>2010-01-01T00:49:03Z</time>
      </trkpt>
      <trkpt lat="40.080825" lon="-7.718680">
        <ele>534.062</ele>
        <time>2010-01-01T00:49:17Z</time>
      </trkpt>
      <trkpt lat="40.080495" lon="-7.718599">
        <ele>529.043</ele>
        <time>2010-01-01T00:49:28Z</time>
      </trkpt>
      <trkpt lat="40.080155" lon="-7.717931">
        <ele>527.080</ele>
        <time>2010-01-01T00:49:50Z</time>
      </trkpt>
      <trkpt lat="40.079980" lon="-7.717633">
        <ele>523.062</ele>
        <time>2010-01-01T00:49:59Z</time>
      </trkpt>
      <trkpt lat="40.080039" lon="-7.716993">
        <ele>517.056</ele>
        <time>2010-01-01T00:50:15Z</time>
      </trkpt>
      <trkpt lat="40.079879" lon="-7.716746">
        <ele>512.059</ele>
        <time>2010-01-01T00:50:41Z</time>
      </trkpt>
      <trkpt lat="40.079300" lon="-7.716723">
        <ele>504.014</ele>
        <time>2010-01-01T00:50:54Z</time>
      </trkpt>
      <trkpt lat="40.078486" lon="-7.717198">
        <ele>494.008</ele>
        <time>2010-01-01T00:51:17Z</time>
      </trkpt>
      <trkpt lat="40.078507" lon="-7.717518">
        <ele>493.018</ele>
        <time>2010-01-01T00:51:39Z</time>
      </trkpt>
      <trkpt lat="40.078064" lon="-7.717767">
        <ele>492.031</ele>
        <time>2010-01-01T00:51:51Z</time>
      </trkpt>
      <trkpt lat="40.077978" lon="-7.717817">
        <ele>491.084</ele>
        <time>2010-01-01T00:52:08Z</time>
      </trkpt>
      <trkpt lat="40.077797" lon="-7.717793">
        <ele>492.092</ele>
        <time>2010-01-01T00:52:23Z</time>
      </trkpt>
      <trkpt lat="40.077805" lon="-7.717606">
        <ele>493.069</ele>
        <time>2010-01-01T00:53:08Z</time>
      </trkpt>
      <trkpt lat="40.078325" lon="-7.716400">
        <ele>485.060</ele>
        <time>2010-01-01T00:53:33Z</time>
      </trkpt>
      <trkpt lat="40.078334" lon="-7.715849">
        <ele>478.097</ele>
        <time>2010-01-01T00:53:58Z</time>
      </trkpt>
      <trkpt lat="40.079019" lon="-7.714716">
        <ele>479.049</ele>
        <time>2010-01-01T00:55:02Z</time>
      </trkpt>
      <trkpt lat="40.078975" lon="-7.714356">
        <ele>484.034</ele>
        <time>2010-01-01T00:55:46Z</time>
      </trkpt>
      <trkpt lat="40.078800" lon="-7.714174">
        <ele>486.055</ele>
        <time>2010-01-01T00:56:05Z</time>
      </trkpt>
      <trkpt lat="40.078571" lon="-7.714142">
        <ele>489.010</ele>
        <time>2010-01-01T00:56:16Z</time>
      </trkpt>
      <trkpt lat="40.077907" lon="-7.714685">
        <ele>490.008</ele>
        <time>2010-01-01T00:56:46Z</time>
      </trkpt>
      <trkpt lat="40.077312" lon="-7.715174">
        <ele>494.016</ele>
        <time>2010-01-01T00:57:18Z</time>
      </trkpt>
      <trkpt lat="40.077029" lon="-7.715200">
        <ele>498.069</ele>
        <time>2010-01-01T00:57:53Z</time>
      </trkpt>
      <trkpt lat="40.076749" lon="-7.715039">
        <ele>498.032</ele>
        <time>2010-01-01T00:58:16Z</time>
      </trkpt>
      <trkpt lat="40.076736" lon="-7.715057">
        <ele>498.060</ele>
        <time>2010-01-01T00:58:47Z</time>
      </trkpt>
      <trkpt lat="40.076532" lon="-7.715139">
        <ele>495.057</ele>
        <time>2010-01-01T00:59:24Z</time>
      </trkpt>
      <trkpt lat="40.076160" lon="-7.715443">
        <ele>492.018</ele>
        <time>2010-01-01T00:59:56Z</time>
      </trkpt>
      <trkpt lat="40.075955" lon="-7.715547">
        <ele>492.055</ele>
        <time>2010-01-01T01:00:22Z</time>
      </trkpt>
      <trkpt lat="40.075885" lon="-7.715721">
        <ele>491.017</ele>
        <time>2010-01-01T01:00:52Z</time>
      </trkpt>
      <trkpt lat="40.075679" lon="-7.715759">
        <ele>489.057</ele>
        <time>2010-01-01T01:01:08Z</time>
      </trkpt>
      <trkpt lat="40.075544" lon="-7.715986">
        <ele>486.000</ele>
        <time>2010-01-01T01:01:38Z</time>
      </trkpt>
      <trkpt lat="40.075063" lon="-7.716506">
        <ele>475.020</ele>
        <time>2010-01-01T01:02:00Z</time>
      </trkpt>
      <trkpt lat="40.074915" lon="-7.716672">
        <ele>471.008</ele>
        <time>2010-01-01T01:02:15Z</time>
      </trkpt>
      <trkpt lat="40.074783" lon="-7.717170">
        <ele>464.038</ele>
        <time>2010-01-01T01:02:32Z</time>
      </trkpt>
      <trkpt lat="40.074560" lon="-7.717274">
        <ele>460.031</ele>
        <time>2010-01-01T01:02:48Z</time>
      </trkpt>
      <trkpt lat="40.074505" lon="-7.717121">
        <ele>461.034</ele>
        <time>2010-01-01T01:03:08Z</time>
      </trkpt>
      <trkpt lat="40.074488" lon="-7.716864">
        <ele>462.072</ele>
        <time>2010-01-01T01:03:26Z</time>
      </trkpt>
      <trkpt lat="40.074217" lon="-7.716770">
        <ele>459.059</ele>
        <time>2010-01-01T01:03:42Z</time>
      </trkpt>
      <trkpt lat="40.073917" lon="-7.716363">
        <ele>465.050</ele>
        <time>2010-01-01T01:04:12Z</time>
      </trkpt>
      <trkpt lat="40.073687" lon="-7.716184">
        <ele>468.017</ele>
        <time>2010-01-01T01:04:31Z</time>
      </trkpt>
      <trkpt lat="40.073291" lon="-7.716148">
        <ele>470.079</ele>
        <time>2010-01-01T01:05:07Z</time>
      </trkpt>
      <trkpt lat="40.073145" lon="-7.716057">
        <ele>474.042</ele>
        <time>2010-01-01T01:05:21Z</time>
      </trkpt>
      <trkpt lat="40.072546" lon="-7.716411">
        <ele>468.022</ele>
        <time>2010-01-01T01:05:38Z</time>
      </trkpt>
      <trkpt lat="40.072181" lon="-7.716115">
        <ele>471.014</ele>
        <time>2010-01-01T01:06:01Z</time>
      </trkpt>
      <trkpt lat="40.071944" lon="-7.715862">
        <ele>476.008</ele>
        <time>2010-01-01T01:06:32Z</time>
      </trkpt>
      <trkpt lat="40.071228" lon="-7.715477">
        <ele>482.067</ele>
        <time>2010-01-01T01:06:57Z</time>
      </trkpt>
      <trkpt lat="40.070901" lon="-7.715628">
        <ele>476.030</ele>
        <time>2010-01-01T01:07:31Z</time>
      </trkpt>
      <trkpt lat="40.070717" lon="-7.715560">
        <ele>475.073</ele>
        <time>2010-01-01T01:07:41Z</time>
      </trkpt>
      <trkpt lat="40.070314" lon="-7.714422">
        <ele>486.031</ele>
        <time>2010-01-01T01:08:00Z</time>
      </trkpt>
      <trkpt lat="40.069918" lon="-7.714384">
        <ele>483.068</ele>
        <time>2010-01-01T01:08:13Z</time>
      </trkpt>
      <trkpt lat="40.069616" lon="-7.714109">
        <ele>491.039</ele>
        <time>2010-01-01T01:08:57Z</time>
      </trkpt>
      <trkpt lat="40.069193" lon="-7.714192">
        <ele>485.016</ele>
        <time>2010-01-01T01:09:08Z</time>
      </trkpt>
      <trkpt lat="40.067731" lon="-7.713296">
        <ele>477.058</ele>
        <time>2010-01-01T01:09:17Z</time>
      </trkpt>
      <trkpt lat="40.067987" lon="-7.712614">
        <ele>482.079</ele>
        <time>2010-01-01T01:09:34Z</time>
      </trkpt>
      <trkpt lat="40.067834" lon="-7.711434">
        <ele>479.005</ele>
        <time>2010-01-01T01:10:07Z</time>
      </trkpt>
      <trkpt lat="40.067130" lon="-7.711200">
        <ele>470.025</ele>
        <time>2010-01-01T01:10:35Z</time>
      </trkpt>
      <trkpt lat="40.067226" lon="-7.710454">
        <ele>474.008</ele>
        <time>2010-01-01T01:10:58Z</time>
      </trkpt>
      <trkpt lat="40.067459" lon="-7.710354">
        <ele>474.030</ele>
        <time>2010-01-01T01:11:26Z</time>
      </trkpt>
      <trkpt lat="40.067508" lon="-7.709910">
        <ele>485.083</ele>
        <time>2010-01-01T01:11:41Z</time>
      </trkpt>
      <trkpt lat="40.067388" lon="-7.709170">
        <ele>495.066</ele>
        <time>2010-01-01T01:11:54Z</time>
      </trkpt>
      <trkpt lat="40.067678" lon="-7.708151">
        <ele>514.064</ele>
        <time>2010-01-01T01:12:13Z</time>
      </trkpt>
      <trkpt lat="40.067732" lon="-7.707002">
        <ele>527.021</ele>
        <time>2010-01-01T01:12:27Z</time>
      </trkpt>
      <trkpt lat="40.068408" lon="-7.706813">
        <ele>524.022</ele>
        <time>2010-01-01T01:12:49Z</time>
      </trkpt>
      <trkpt lat="40.069098" lon="-7.705422">
        <ele>537.069</ele>
        <time>2010-01-01T01:12:59Z</time>
      </trkpt>
      <trkpt lat="40.067679" lon="-7.705097">
        <ele>564.031</ele>
        <time>2010-01-01T01:13:08Z</time>
      </trkpt>
      <trkpt lat="40.067445" lon="-7.705043">
        <ele>567.081</ele>
        <time>2010-01-01T01:13:22Z</time>
      </trkpt>
      <trkpt lat="40.067278" lon="-7.704664">
        <ele>575.061</ele>
        <time>2010-01-01T01:13:37Z</time>
      </trkpt>
      <trkpt lat="40.067244" lon="-7.704008">
        <ele>580.017</ele>
        <time>2010-01-01T01:13:47Z</time>
      </trkpt>
      <trkpt lat="40.066894" lon="-7.702961">
        <ele>591.008</ele>
        <time>2010-01-01T01:13:56Z</time>
      </trkpt>
      <trkpt lat="40.065588" lon="-7.703574">
        <ele>611.041</ele>
        <time>2010-01-01T01:14:05Z</time>
      </trkpt>
      <trkpt lat="40.065189" lon="-7.703880">
        <ele>619.094</ele>
        <time>2010-01-01T01:14:27Z</time>
      </trkpt>
      <trkpt lat="40.064827" lon="-7.704152">
        <ele>625.047</ele>
        <time>2010-01-01T01:14:52Z</time>
      </trkpt>
      <trkpt lat="40.064432" lon="-7.704437">
        <ele>632.095</ele>
        <time>2010-01-01T01:15:06Z</time>
      </trkpt>
      <trkpt lat="40.063884" lon="-7.705169">
        <ele>636.072</ele>
        <time>2010-01-01T01:15:41Z</time>
      </trkpt>
      <trkpt lat="40.063294" lon="-7.705957">
        <ele>638.063</ele>
        <time>2010-01-01T01:15:53Z</time>
      </trkpt>
      <trkpt lat="40.062812" lon="-7.706612">
        <ele>643.080</ele>
        <time>2010-01-01T01:15:59Z</time>
      </trkpt>
      <trkpt lat="40.062231" lon="-7.707825">
        <ele>641.062</ele>
        <time>2010-01-01T01:16:11Z</time>
      </trkpt>
      <trkpt lat="40.062131" lon="-7.707261">
        <ele>646.028</ele>
        <time>2010-01-01T01:16:16Z</time>
      </trkpt>
      <trkpt lat="40.062392" lon="-7.706498">
        <ele>651.089</ele>
        <time>2010-01-01T01:16:22Z</time>
      </trkpt>
      <trkpt lat="40.062713" lon="-7.705717">
        <ele>657.017</ele>
        <time>2010-01-01T01:16:34Z</time>
      </trkpt>
      <trkpt lat="40.063214" lon="-7.704538">
        <ele>659.008</ele>
        <time>2010-01-01T01:16:44Z</time>
      </trkpt>
      <trkpt lat="40.063396" lon="-7.703948">
        <ele>661.045</ele>
        <time>2010-01-01T01:17:23Z</time>
      </trkpt>
      <trkpt lat="40.063620" lon="-7.703275">
        <ele>659.078</ele>
        <time>2010-01-01T01:17:50Z</time>
      </trkpt>
      <trkpt lat="40.063477" lon="-7.701724">
        <ele>656.021</ele>
        <time>2010-01-01T01:18:08Z</time>
      </trkpt>
      <trkpt lat="40.062142" lon="-7.699980">
        <ele>658.059</ele>
        <time>2010-01-01T01:18:43Z</time>
      </trkpt>
      <trkpt lat="40.061508" lon="-7.699427">
        <ele>662.086</ele>
        <time>2010-01-01T01:19:43Z</time>
      </trkpt>
      <trkpt lat="40.060728" lon="-7.697668">
        <ele>669.087</ele>
        <time>2010-01-01T01:20:10Z</time>
      </trkpt>
      <trkpt lat="40.060659" lon="-7.696018">
        <ele>671.074</ele>
        <time>2010-01-01T01:20:24Z</time>
      </trkpt>
      <trkpt lat="40.060328" lon="-7.695256">
        <ele>670.076</ele>
        <time>2010-01-01T01:20:36Z</time>
      </trkpt>
      <trkpt lat="40.060193" lon="-7.694158">
        <ele>673.095</ele>
        <time>2010-01-01T01:20:49Z</time>
      </trkpt>
      <trkpt lat="40.059678" lon="-7.693245">
        <ele>677.049</ele>
        <time>2010-01-01T01:21:47Z</time>
      </trkpt>
      <trkpt lat="40.059484" lon="-7.692746">
        <ele>678.023</ele>
        <time>2010-01-01T01:22:01Z</time>
      </trkpt>
      <trkpt lat="40.059181" lon="-7.691983">
        <ele>683.008</ele>
        <time>2010-01-01T01:22:51Z</time>
      </trkpt>
      <trkpt lat="40.058577" lon="-7.691347">
        <ele>694.062</ele>
        <time>2010-01-01T01:23:26Z</time>
      </trkpt>
      <trkpt lat="40.058170" lon="-7.690946">
        <ele>705.055</ele>
        <time>2010-01-01T01:23:39Z</time>
      </trkpt>
      <trkpt lat="40.057306" lon="-7.691167">
        <ele>717.028</ele>
        <time>2010-01-01T01:23:56Z</time>
      </trkpt>
      <trkpt lat="40.056953" lon="-7.690871">
        <ele>725.026</ele>
        <time>2010-01-01T01:24:24Z</time>
      </trkpt>
      <trkpt lat="40.056943" lon="-7.689479">
        <ele>736.013</ele>
        <time>2010-01-01T01:24:32Z</time>
      </trkpt>
      <trkpt lat="40.056978" lon="-7.688771">
        <ele>747.014</ele>
        <time>2010-01-01T01:24:40Z</time>
      </trkpt>
      <trkpt lat="40.056780" lon="-7.688429">
        <ele>752.061</ele>
        <time>2010-01-01T01:25:31Z</time>
      </trkpt>
      <trkpt lat="40.056797" lon="-7.687862">
        <ele>760.083</ele>
        <time>2010-01-01T01:25:44Z</time>
      </trkpt>
      <trkpt lat="40.056580" lon="-7.687041">
        <ele>772.094</ele>
        <time>2010-01-01T01:26:02Z</time>
      </trkpt>
      <trkpt lat="40.056344" lon="-7.686658">
        <ele>773.057</ele>
        <time>2010-01-01T01:26:14Z</time>
      </trkpt>
      <trkpt lat="40.056166" lon="-7.685681">
        <ele>787.022</ele>
        <time>2010-01-01T01:26:44Z</time>
      </trkpt>
      <trkpt lat="40.056178" lon="-7.685121">
        <ele>792.008</ele>
        <time>2010-01-01T01:27:30Z</time>
      </trkpt>
      <trkpt lat="40.055982" lon="-7.684505">
        <ele>793.052</ele>
        <time>2010-01-01T01:27:53Z</time>
      </trkpt>
      <trkpt lat="40.056059" lon="-7.683949">
        <ele>798.095</ele>
        <time>2010-01-01T01:28:11Z</time>
      </trkpt>
      <trkpt lat="40.055882" lon="-7.682695">
        <ele>811.018</ele>
        <time>2010-01-01T01:28:25Z</time>
      </trkpt>
      <trkpt lat="40.055660" lon="-7.681900">
        <ele>823.096</ele>
        <time>2010-01-01T01:28:51Z</time>
      </trkpt>
      <trkpt lat="40.055724" lon="-7.681158">
        <ele>832.033</ele>
        <time>2010-01-01T01:29:05Z</time>
      </trkpt>
      <trkpt lat="40.055155" lon="-7.680614">
        <ele>851.024</ele>
        <time>2010-01-01T01:29:25Z</time>
      </trkpt>
      <trkpt lat="40.055628" lon="-7.680018">
        <ele>855.081</ele>
        <time>2010-01-01T01:29:41Z</time>
      </trkpt>
      <trkpt lat="40.055467" lon="-7.679581">
        <ele>869.093</ele>
        <time>2010-01-01T01:30:12Z</time>
      </trkpt>
      <trkpt lat="40.055189" lon="-7.679491">
        <ele>874.091</ele>
        <time>2010-01-01T01:30:25Z</time>
      </trkpt>
      <trkpt lat="40.054983" lon="-7.678275">
        <ele>888.081</ele>
        <time>2010-01-01T01:30:36Z</time>
      </trkpt>
      <trkpt lat="40.054856" lon="-7.677631">
        <ele>886.019</ele>
        <time>2010-01-01T01:31:02Z</time>
      </trkpt>
      <trkpt lat="40.055306" lon="-7.676801">
        <ele>889.008</ele>
        <time>2010-01-01T01:31:22Z</time>
      </trkpt>
      <trkpt lat="40.055515" lon="-7.676316">
        <ele>893.052</ele>
        <time>2010-01-01T01:31:47Z</time>
      </trkpt>
      <trkpt lat="40.056032" lon="-7.675212">
        <ele>907.025</ele>
        <time>2010-01-01T01:32:02Z</time>
      </trkpt>
      <trkpt lat="40.056211" lon="-7.674873">
        <ele>913.048</ele>
        <time>2010-01-01T01:32:07Z</time>
      </trkpt>
      <trkpt lat="40.056997" lon="-7.674279">
        <ele>916.066</ele>
        <time>2010-01-01T01:32:21Z</time>
      </trkpt>
      <trkpt lat="40.057631" lon="-7.674055">
        <ele>914.073</ele>
        <time>2010-01-01T01:32:38Z</time>
      </trkpt>
      <trkpt lat="40.058781" lon="-7.673592">
        <ele>906.054</ele>
        <time>2010-01-01T01:32:53Z</time>
      </trkpt>
      <trkpt lat="40.059525" lon="-7.673282">
        <ele>901.031</ele>
        <time>2010-01-01T01:33:08Z</time>
      </trkpt>
      <trkpt lat="40.060094" lon="-7.671965">
        <ele>894.033</ele>
        <time>2010-01-01T01:33:15Z</time>
      </trkpt>
      <trkpt lat="40.060558" lon="-7.671255">
        <ele>888.012</ele>
        <time>2010-01-01T01:33:34Z</time>
      </trkpt>
      <trkpt lat="40.061066" lon="-7.669665">
        <ele>860.032</ele>
        <time>2010-01-01T01:33:51Z</time>
      </trkpt>
      <trkpt lat="40.060897" lon="-7.669470">
        <ele>853.005</ele>
        <time>2010-01-01T01:34:06Z</time>
      </trkpt>
      <trkpt lat="40.060407" lon="-7.669617">
        <ele>844.008</ele>
        <time>2010-01-01T01:34:14Z</time>
      </trkpt>
      <trkpt lat="40.060349" lon="-7.669166">
        <ele>834.094</ele>
        <time>2010-01-01T01:34:28Z</time>
      </trkpt>
      <trkpt lat="40.060453" lon="-7.668421">
        <ele>821.037</ele>
        <time>2010-01-01T01:34:54Z</time>
      </trkpt>
      <trkpt lat="40.061083" lon="-7.667901">
        <ele>808.020</ele>
        <time>2010-01-01T01:35:03Z</time>
      </trkpt>
      <trkpt lat="40.061032" lon="-7.667643">
        <ele>801.078</ele>
        <time>2010-01-01T01:35:14Z</time>
      </trkpt>
      <trkpt lat="40.060751" lon="-7.667355">
        <ele>793.055</ele>
        <time>2010-01-01T01:35:39Z</time>
      </trkpt>
      <trkpt lat="40.060397" lon="-7.667360">
        <ele>789.096</ele>
        <time>2010-01-01T01:35:58Z</time>
      </trkpt>
      <trkpt lat="40.060210" lon="-7.667506">
        <ele>787.083</ele>
        <time>2010-01-01T01:36:10Z</time>
      </trkpt>
      <trkpt lat="40.060190" lon="-7.666872">
        <ele>774.035</ele>
        <time>2010-01-01T01:36:28Z</time>
      </trkpt>
      <trkpt lat="40.060191" lon="-7.666462">
        <ele>766.015</ele>
        <time>2010-01-01T01:36:39Z</time>
      </trkpt>
      <trkpt lat="40.060313" lon="-7.665923">
        <ele>757.065</ele>
        <time>2010-01-01T01:36:59Z</time>
      </trkpt>
      <trkpt lat="40.060469" lon="-7.665720">
        <ele>755.011</ele>
        <time>2010-01-01T01:37:03Z</time>
      </trkpt>
      <trkpt lat="40.060444" lon="-7.665221">
        <ele>746.008</ele>
        <time>2010-01-01T01:37:06Z</time>
      </trkpt>
      <trkpt lat="40.060831" lon="-7.664416">
        <ele>734.054</ele>
        <time>2010-01-01T01:37:27Z</time>
      </trkpt>
      <trkpt lat="40.060904" lon="-7.663534">
        <ele>719.057</ele>
        <time>2010-01-01T01:37:40Z</time>
      </trkpt>
      <trkpt lat="40.060968" lon="-7.662695">
        <ele>704.040</ele>
        <time>2010-01-01T01:37:50Z</time>
      </trkpt>
      <trkpt lat="40.061211" lon="-7.661719">
        <ele>692.088</ele>
        <time>2010-01-01T01:38:04Z</time>
      </trkpt>
      <trkpt lat="40.061317" lon="-7.661091">
        <ele>684.095</ele>
        <time>2010-01-01T01:38:14Z</time>
      </trkpt>
      <trkpt lat="40.061221" lon="-7.660740">
        <ele>682.066</ele>
        <time>2010-01-01T01:38:29Z</time>
      </trkpt>
      <trkpt lat="40.060614" lon="-7.659825">
        <ele>679.043</ele>
        <time>2010-01-01T01:38:37Z</time>
      </trkpt>
      <trkpt lat="40.060444" lon="-7.659699">
        <ele>676.045</ele>
        <time>2010-01-01T01:38:48Z</time>
      </trkpt>
      <trkpt lat="40.059845" lon="-7.659652">
        <ele>670.034</ele>
        <time>2010-01-01T01:38:57Z</time>
      </trkpt>
      <trkpt lat="40.059603" lon="-7.659632">
        <ele>669.055</ele>
        <time>2010-01-01T01:39:08Z</time>
      </trkpt>
      <trkpt lat="40.059229" lon="-7.659196">
        <ele>668.010</ele>
        <time>2010-01-01T01:39:24Z</time>
      </trkpt>
      <trkpt lat="40.058970" lon="-7.659117">
        <ele>671.008</ele>
        <time>2010-01-01T01:39:38Z</time>
      </trkpt>
      <trkpt lat="40.058792" lon="-7.658943">
        <ele>673.026</ele>
        <time>2010-01-01T01:39:47Z</time>
      </trkpt>
      <trkpt lat="40.058175" lon="-7.658945">
        <ele>677.059</ele>
        <time>2010-01-01T01:39:59Z</time>
      </trkpt>
      <trkpt lat="40.058045" lon="-7.658937">
        <ele>677.052</ele>
        <time>2010-01-01T01:40:22Z</time>
      </trkpt>
      <trkpt lat="40.057304" lon="-7.658653">
        <ele>674.060</ele>
        <time>2010-01-01T01:40:35Z</time>
      </trkpt>
      <trkpt lat="40.057240" lon="-7.658364">
        <ele>674.067</ele>
        <time>2010-01-01T01:40:55Z</time>
      </trkpt>
      <trkpt lat="40.057011" lon="-7.657953">
        <ele>675.068</ele>
        <time>2010-01-01T01:41:16Z</time>
      </trkpt>
      <trkpt lat="40.057068" lon="-7.656641">
        <ele>668.065</ele>
        <time>2010-01-01T01:41:29Z</time>
      </trkpt>
      <trkpt lat="40.057463" lon="-7.655673">
        <ele>657.077</ele>
        <time>2010-01-01T01:41:56Z</time>
      </trkpt>
      <trkpt lat="40.057534" lon="-7.655494">
        <ele>653.092</ele>
        <time>2010-01-01T01:42:07Z</time>
      </trkpt>
      <trkpt lat="40.057754" lon="-7.655140">
        <ele>646.073</ele>
        <time>2010-01-01T01:42:20Z</time>
      </trkpt>
      <trkpt lat="40.057712" lon="-7.654956">
        <ele>642.020</ele>
        <time>2010-01-01T01:42:43Z</time>
      </trkpt>
      <trkpt lat="40.057432" lon="-7.654642">
        <ele>637.008</ele>
        <time>2010-01-01T01:43:17Z</time>
      </trkpt>
      <trkpt lat="40.057330" lon="-7.654314">
        <ele>632.092</ele>
        <time>2010-01-01T01:43:51Z</time>
      </trkpt>
      <trkpt lat="40.057375" lon="-7.653915">
        <ele>626.075</ele>
        <time>2010-01-01T01:44:05Z</time>
      </trkpt>
      <trkpt lat="40.057116" lon="-7.653145">
        <ele>615.058</ele>
        <time>2010-01-01T01:44:30Z</time>
      </trkpt>
      <trkpt lat="40.056538" lon="-7.652641">
        <ele>602.036</ele>
        <time>2010-01-01T01:44:37Z</time>
      </trkpt>
      <trkpt lat="40.056520" lon="-7.652192">
        <ele>600.063</ele>
        <time>2010-01-01T01:45:05Z</time>
      </trkpt>
      <trkpt lat="40.056699" lon="-7.651252">
        <ele>588.074</ele>
        <time>2010-01-01T01:45:19Z</time>
      </trkpt>
      <trkpt lat="40.056249" lon="-7.650655">
        <ele>578.071</ele>
        <time>2010-01-01T01:45:32Z</time>
      </trkpt>
      <trkpt lat="40.055973" lon="-7.650590">
        <ele>575.053</ele>
        <time>2010-01-01T01:45:57Z</time>
      </trkpt>
      <trkpt lat="40.055417" lon="-7.650757">
        <ele>568.034</ele>
        <time>2010-01-01T01:46:09Z</time>
      </trkpt>
      <trkpt lat="40.055013" lon="-7.650487">
        <ele>560.055</ele>
        <time>2010-01-01T01:46:35Z</time>
      </trkpt>
      <trkpt lat="40.054939" lon="-7.650063">
        <ele>556.010</ele>
        <time>2010-01-01T01:47:12Z</time>
      </trkpt>
      <trkpt lat="40.055207" lon="-7.649679">
        <ele>553.008</ele>
        <time>2010-01-01T01:47:28Z</time>
      </trkpt>
      <trkpt lat="40.056088" lon="-7.649584">
        <ele>555.016</ele>
        <time>2010-01-01T01:47:42Z</time>
      </trkpt>
      <trkpt lat="40.056683" lon="-7.649655">
        <ele>549.039</ele>
        <time>2010-01-01T01:47:56Z</time>
      </trkpt>
      <trkpt lat="40.057037" lon="-7.649248">
        <ele>549.042</ele>
        <time>2010-01-01T01:48:02Z</time>
      </trkpt>
      <trkpt lat="40.057011" lon="-7.648907">
        <ele>546.080</ele>
        <time>2010-01-01T01:48:14Z</time>
      </trkpt>
      <trkpt lat="40.057089" lon="-7.648205">
        <ele>553.017</ele>
        <time>2010-01-01T01:48:29Z</time>
      </trkpt>
      <trkpt lat="40.056828" lon="-7.648022">
        <ele>557.078</ele>
        <time>2010-01-01T01:48:39Z</time>
      </trkpt>
      <trkpt lat="40.056288" lon="-7.648137">
        <ele>559.045</ele>
        <time>2010-01-01T01:48:55Z</time>
      </trkpt>
      <trkpt lat="40.055588" lon="-7.647921">
        <ele>564.097</ele>
        <time>2010-01-01T01:49:10Z</time>
      </trkpt>
      <trkpt lat="40.055084" lon="-7.647485">
        <ele>574.072</ele>
        <time>2010-01-01T01:49:29Z</time>
      </trkpt>
      <trkpt lat="40.054465" lon="-7.647636">
        <ele>580.013</ele>
        <time>2010-01-01T01:50:00Z</time>
      </trkpt>
      <trkpt lat="40.053942" lon="-7.647773">
        <ele>582.014</ele>
        <time>2010-01-01T01:50:28Z</time>
      </trkpt>
      <trkpt lat="40.053441" lon="-7.647640">
        <ele>582.008</ele>
        <time>2010-01-01T01:50:54Z</time>
      </trkpt>
      <trkpt lat="40.052933" lon="-7.647542">
        <ele>587.060</ele>
        <time>2010-01-01T01:51:04Z</time>
      </trkpt>
      <trkpt lat="40.052508" lon="-7.647447">
        <ele>589.083</ele>
        <time>2010-01-01T01:51:17Z</time>
      </trkpt>
      <trkpt lat="40.052160" lon="-7.647154">
        <ele>589.056</ele>
        <time>2010-01-01T01:51:51Z</time>
      </trkpt>
      <trkpt lat="40.051440" lon="-7.646958">
        <ele>594.064</ele>
        <time>2010-01-01T01:52:11Z</time>
      </trkpt>
      <trkpt lat="40.051112" lon="-7.646817">
        <ele>592.031</ele>
        <time>2010-01-01T01:53:07Z</time>
      </trkpt>
      <trkpt lat="40.050186" lon="-7.646280">
        <ele>597.022</ele>
        <time>2010-01-01T01:53:33Z</time>
      </trkpt>
      <trkpt lat="40.049981" lon="-7.646139">
        <ele>598.089</ele>
        <time>2010-01-01T01:53:47Z</time>
      </trkpt>
      <trkpt lat="40.049846" lon="-7.645998">
        <ele>599.061</ele>
        <time>2010-01-01T01:54:32Z</time>
      </trkpt>
      <trkpt lat="40.049436" lon="-7.645547">
        <ele>601.058</ele>
        <time>2010-01-01T01:55:12Z</time>
      </trkpt>
      <trkpt lat="40.049266" lon="-7.644956">
        <ele>605.052</ele>
        <time>2010-01-01T01:55:36Z</time>
      </trkpt>
      <trkpt lat="40.049182" lon="-7.644636">
        <ele>608.017</ele>
        <time>2010-01-01T01:55:45Z</time>
      </trkpt>
      <trkpt lat="40.048591" lon="-7.643976">
        <ele>618.008</ele>
        <time>2010-01-01T01:55:54Z</time>
      </trkpt>
      <trkpt lat="40.047980" lon="-7.643214">
        <ele>628.018</ele>
        <time>2010-01-01T01:56:06Z</time>
      </trkpt>
      <trkpt lat="40.047336" lon="-7.643341">
        <ele>631.011</ele>
        <time>2010-01-01T01:56:54Z</time>
      </trkpt>
      <trkpt lat="40.046816" lon="-7.643427">
        <ele>634.094</ele>
        <time>2010-01-01T01:57:11Z</time>
      </trkpt>
      <trkpt lat="40.046385" lon="-7.643217">
        <ele>635.032</ele>
        <time>2010-01-01T01:57:36Z</time>
      </trkpt>
      <trkpt lat="40.045786" lon="-7.642952">
        <ele>638.089</ele>
        <time>2010-01-01T01:58:48Z</time>
      </trkpt>
      <trkpt lat="40.045611" lon="-7.642405">
        <ele>640.080</ele>
        <time>2010-01-01T01:59:11Z</time>
      </trkpt>
      <trkpt lat="40.045502" lon="-7.642091">
        <ele>639.057</ele>
        <time>2010-01-01T01:59:42Z</time>
      </trkpt>
      <trkpt lat="40.045318" lon="-7.641492">
        <ele>637.079</ele>
        <time>2010-01-01T01:59:55Z</time>
      </trkpt>
      <trkpt lat="40.044981" lon="-7.640428">
        <ele>632.073</ele>
        <time>2010-01-01T02:00:04Z</time>
      </trkpt>
      <trkpt lat="40.044967" lon="-7.638433">
        <ele>627.085</ele>
        <time>2010-01-01T02:00:19Z</time>
      </trkpt>
      <trkpt lat="40.044846" lon="-7.636459">
        <ele>616.013</ele>
        <time>2010-01-01T02:00:34Z</time>
      </trkpt>
      <trkpt lat="40.044855" lon="-7.636463">
        <ele>616.008</ele>
        <time>2010-01-01T02:00:51Z</time>
      </trkpt>
      <trkpt lat="40.044389" lon="-7.634951">
        <ele>608.030</ele>
        <time>2010-01-01T02:01:03Z</time>
      </trkpt>
      <trkpt lat="40.044707" lon="-7.632748">
        <ele>581.013</ele>
        <time>2010-01-01T02:01:18Z</time>
      </trkpt>
      <trkpt lat="40.044755" lon="-7.632411">
        <ele>578.046</ele>
        <time>2010-01-01T02:02:06Z</time>
      </trkpt>
      <trkpt lat="40.044847" lon="-7.630544">
        <ele>565.064</ele>
        <time>2010-01-01T02:02:29Z</time>
      </trkpt>
      <trkpt lat="40.044453" lon="-7.629005">
        <ele>562.021</ele>
        <time>2010-01-01T02:02:40Z</time>
      </trkpt>
      <trkpt lat="40.044119" lon="-7.627837">
        <ele>555.092</ele>
        <time>2010-01-01T02:02:56Z</time>
      </trkpt>
      <trkpt lat="40.044061" lon="-7.626676">
        <ele>550.019</ele>
        <time>2010-01-01T02:03:11Z</time>
      </trkpt>
      <trkpt lat="40.043240" lon="-7.626272">
        <ele>543.081</ele>
        <time>2010-01-01T02:03:26Z</time>
      </trkpt>
      <trkpt lat="40.042743" lon="-7.626036">
        <ele>540.098</ele>
        <time>2010-01-01T02:03:54Z</time>
      </trkpt>
      <trkpt lat="40.042468" lon="-7.625347">
        <ele>533.015</ele>
        <time>2010-01-01T02:04:19Z</time>
      </trkpt>
      <trkpt lat="40.042194" lon="-7.624853">
        <ele>530.026</ele>
        <time>2010-01-01T02:04:38Z</time>
      </trkpt>
      <trkpt lat="40.041564" lon="-7.624668">
        <ele>525.008</ele>
        <time>2010-01-01T02:05:14Z</time>
      </trkpt>
      <trkpt lat="40.041246" lon="-7.624091">
        <ele>522.082</ele>
        <time>2010-01-01T02:05:37Z</time>
      </trkpt>
      <trkpt lat="40.040739" lon="-7.623482">
        <ele>518.065</ele>
        <time>2010-01-01T02:05:45Z</time>
      </trkpt>
      <trkpt lat="40.040848" lon="-7.622648">
        <ele>509.068</ele>
        <time>2019-05-29T18:26:40Z</time>
      </trkpt>
      <trkpt lat="40.041309" lon="-7.621388">
        <ele>480.056</ele>
        <time>2019-05-29T18:27:00Z</time>
      </trkpt>
      <trkpt lat="40.041468" lon="-7.620985">
        <ele>478.073</ele>
        <time>2019-05-29T18:27:20Z</time>
      </trkpt>
      <trkpt lat="40.042272" lon="-7.620073">
        <ele>473.084</ele>
        <time>2019-05-29T18:27:40Z</time>
      </trkpt>
      <trkpt lat="40.042601" lon="-7.619474">
        <ele>465.081</ele>
        <time>2019-05-29T18:28:00Z</time>
      </trkpt>
      <trkpt lat="40.042978" lon="-7.618714">
        <ele>452.063</ele>
        <time>2019-05-29T18:28:20Z</time>
      </trkpt>
      <trkpt lat="40.043217" lon="-7.618002">
        <ele>431.091</ele>
        <time>2019-05-29T18:28:40Z</time>
      </trkpt>
      <trkpt lat="40.043172" lon="-7.617785">
        <ele>425.081</ele>
        <time>2019-05-29T18:29:00Z</time>
      </trkpt>
      <trkpt lat="40.042917" lon="-7.617551">
        <ele>420.019</ele>
        <time>2019-05-29T18:29:20Z</time>
      </trkpt>
      <trkpt lat="40.043092" lon="-7.617098">
        <ele>416.008</ele>
        <time>2019-05-29T18:29:40Z</time>
      </trkpt>
      <trkpt lat="40.043347" lon="-7.616426">
        <ele>418.062</ele>
        <time>2019-05-29T18:30:00Z</time>
      </trkpt>
      <trkpt lat="40.043331" lon="-7.616231">
        <ele>419.095</ele>
        <time>2019-05-29T18:30:20Z</time>
      </trkpt>
      <trkpt lat="40.043270" lon="-7.616006">
        <ele>419.048</ele>
        <time>2019-05-29T18:30:40Z</time>
      </trkpt>
      <trkpt lat="40.043158" lon="-7.615591">
        <ele>420.026</ele>
        <time>2019-05-29T18:31:00Z</time>
      </trkpt>
      <trkpt lat="40.043168" lon="-7.615215">
        <ele>422.063</ele>
        <time>2019-05-29T18:31:20Z</time>
      </trkpt>
      <trkpt lat="40.043147" lon="-7.615057">
        <ele>422.084</ele>
        <time>2019-05-29T18:31:40Z</time>
      </trkpt>
      <trkpt lat="40.042976" lon="-7.614346">
        <ele>415.031</ele>
        <time>2019-05-29T18:32:00Z</time>
      </trkpt>
      <trkpt lat="40.042842" lon="-7.613534">
        <ele>411.023</ele>
        <time>2019-05-29T18:32:20Z</time>
      </trkpt>
      <trkpt lat="40.042697" lon="-7.612839">
        <ele>414.086</ele>
        <time>2019-05-29T18:32:40Z</time>
      </trkpt>
      <trkpt lat="40.042553" lon="-7.612927">
        <ele>414.060</ele>
        <time>2019-05-29T18:33:00Z</time>
      </trkpt>
      <trkpt lat="40.042275" lon="-7.613247">
        <ele>416.026</ele>
        <time>2019-05-29T18:33:20Z</time>
      </trkpt>
      <trkpt lat="40.042097" lon="-7.613514">
        <ele>416.008</ele>
        <time>2019-05-29T18:33:40Z</time>
      </trkpt>
      <trkpt lat="40.041507" lon="-7.613538">
        <ele>412.021</ele>
        <time>2019-05-29T18:34:00Z</time>
      </trkpt>
      <trkpt lat="40.041299" lon="-7.613549">
        <ele>410.044</ele>
        <time>2019-05-29T18:34:20Z</time>
      </trkpt>
      <trkpt lat="40.041044" lon="-7.613641">
        <ele>409.077</ele>
        <time>2019-05-29T18:34:40Z</time>
      </trkpt>
      <trkpt lat="40.040917" lon="-7.613649">
        <ele>409.095</ele>
        <time>2019-05-29T18:35:00Z</time>
      </trkpt>
      <trkpt lat="40.040487" lon="-7.613255">
        <ele>408.082</ele>
        <time>2019-05-29T18:35:20Z</time>
      </trkpt>
      <trkpt lat="40.040178" lon="-7.612787">
        <ele>407.043</ele>
        <time>2019-05-29T18:35:40Z</time>
      </trkpt>
      <trkpt lat="40.039769" lon="-7.612183">
        <ele>405.060</ele>
        <time>2019-05-29T18:36:00Z</time>
      </trkpt>
      <trkpt lat="40.039615" lon="-7.611890">
        <ele>404.062</ele>
        <time>2019-05-29T18:36:20Z</time>
      </trkpt>
      <trkpt lat="40.039401" lon="-7.611271">
        <ele>405.034</ele>
        <time>2019-05-29T18:36:40Z</time>
      </trkpt>
      <trkpt lat="40.039270" lon="-7.610886">
        <ele>406.055</ele>
        <time>2019-05-29T18:37:00Z</time>
      </trkpt>
      <trkpt lat="40.039348" lon="-7.610561">
        <ele>408.010</ele>
        <time>2019-05-29T18:37:20Z</time>
      </trkpt>
      <trkpt lat="40.039230" lon="-7.610152">
        <ele>409.008</ele>
        <time>2019-05-29T18:37:40Z</time>
      </trkpt>
      <trkpt lat="40.039137" lon="-7.609894">
        <ele>409.016</ele>
        <time>2019-05-29T18:38:00Z</time>
      </trkpt>
      <trkpt lat="40.038797" lon="-7.609315">
        <ele>409.079</ele>
        <time>2019-05-29T18:38:20Z</time>
      </trkpt>
      <trkpt lat="40.038649" lon="-7.609090">
        <ele>409.052</ele>
        <time>2019-05-29T18:38:40Z</time>
      </trkpt>
      <trkpt lat="40.038512" lon="-7.609046">
        <ele>408.050</ele>
        <time>2019-05-29T18:39:00Z</time>
      </trkpt>
      <trkpt lat="40.038150" lon="-7.608876">
        <ele>405.027</ele>
        <time>2019-05-29T18:39:20Z</time>
      </trkpt>
      <trkpt lat="40.037959" lon="-7.608639">
        <ele>405.068</ele>
        <time>2019-05-29T18:39:40Z</time>
      </trkpt>
      <trkpt lat="40.037880" lon="-7.608174">
        <ele>407.015</ele>
        <time>2019-05-29T18:40:00Z</time>
      </trkpt>
      <trkpt lat="40.037863" lon="-7.607955">
        <ele>409.017</ele>
        <time>2019-05-29T18:40:20Z</time>
      </trkpt>
      <trkpt lat="40.038415" lon="-7.607027">
        <ele>417.015</ele>
        <time>2019-05-29T18:40:40Z</time>
      </trkpt>
      <trkpt lat="40.038725" lon="-7.606509">
        <ele>419.065</ele>
        <time>2019-05-29T18:41:00Z</time>
      </trkpt>
      <trkpt lat="40.038700" lon="-7.605788">
        <ele>417.011</ele>
        <time>2019-05-29T18:41:20Z</time>
      </trkpt>
      <trkpt lat="40.038559" lon="-7.605540">
        <ele>419.008</ele>
        <time>2019-05-29T18:41:40Z</time>
      </trkpt>
      <trkpt lat="40.038324" lon="-7.605531">
        <ele>422.094</ele>
        <time>2019-05-29T18:42:00Z</time>
      </trkpt>
      <trkpt lat="40.038191" lon="-7.605650">
        <ele>422.037</ele>
        <time>2019-05-29T18:42:20Z</time>
      </trkpt>
      <trkpt lat="40.038076" lon="-7.605874">
        <ele>421.010</ele>
        <time>2019-05-29T18:42:40Z</time>
      </trkpt>
      <trkpt lat="40.037821" lon="-7.605982">
        <ele>421.058</ele>
        <time>2019-05-29T18:43:00Z</time>
      </trkpt>
      <trkpt lat="40.037707" lon="-7.605980">
        <ele>421.055</ele>
        <time>2019-05-29T18:43:20Z</time>
      </trkpt>
      <trkpt lat="40.037545" lon="-7.605917">
        <ele>421.066</ele>
        <time>2019-05-29T18:43:40Z</time>
      </trkpt>
      <trkpt lat="40.037174" lon="-7.605429">
        <ele>425.063</ele>
        <time>2019-05-29T18:44:00Z</time>
      </trkpt>
      <trkpt lat="40.036971" lon="-7.605345">
        <ele>427.025</ele>
        <time>2019-05-29T18:44:20Z</time>
      </trkpt>
      <trkpt lat="40.036502" lon="-7.605814">
        <ele>427.028</ele>
        <time>2019-05-29T18:44:40Z</time>
      </trkpt>
      <trkpt lat="40.036197" lon="-7.605798">
        <ele>428.089</ele>
        <time>2019-05-29T18:45:00Z</time>
      </trkpt>
      <trkpt lat="40.036047" lon="-7.605652">
        <ele>428.017</ele>
        <time>2019-05-29T18:45:20Z</time>
      </trkpt>
      <trkpt lat="40.035973" lon="-7.605362">
        <ele>429.008</ele>
        <time>2019-05-29T18:45:40Z</time>
      </trkpt>
      <trkpt lat="40.035966" lon="-7.604879">
        <ele>429.085</ele>
        <time>2019-05-29T18:46:00Z</time>
      </trkpt>
      <trkpt lat="40.036314" lon="-7.604325">
        <ele>431.088</ele>
        <time>2019-05-29T18:46:20Z</time>
      </trkpt>
      <trkpt lat="40.036427" lon="-7.604118">
        <ele>433.011</ele>
        <time>2019-05-29T18:46:40Z</time>
      </trkpt>
      <trkpt lat="40.036464" lon="-7.603413">
        <ele>437.039</ele>
        <time>2019-05-29T18:47:00Z</time>
      </trkpt>
      <trkpt lat="40.036428" lon="-7.603079">
        <ele>440.026</ele>
        <time>2019-05-29T18:47:20Z</time>
      </trkpt>
      <trkpt lat="40.036254" lon="-7.602898">
        <ele>442.087</ele>
        <time>2019-05-29T18:47:40Z</time>
      </trkpt>
      <trkpt lat="40.035934" lon="-7.602943">
        <ele>442.044</ele>
        <time>2019-05-29T18:48:00Z</time>
      </trkpt>
      <trkpt lat="40.035617" lon="-7.603153">
        <ele>443.036</ele>
        <time>2019-05-29T18:48:20Z</time>
      </trkpt>
      <trkpt lat="40.035371" lon="-7.603116">
        <ele>443.061</ele>
        <time>2019-05-29T18:48:40Z</time>
      </trkpt>
      <trkpt lat="40.035032" lon="-7.602987">
        <ele>442.021</ele>
        <time>2019-05-29T18:49:00Z</time>
      </trkpt>
      <trkpt lat="40.034719" lon="-7.602908">
        <ele>440.013</ele>
        <time>2019-05-29T18:49:20Z</time>
      </trkpt>
      <trkpt lat="40.034612" lon="-7.602569">
        <ele>441.008</ele>
        <time>2019-05-29T18:49:40Z</time>
      </trkpt>
      <trkpt lat="40.034370" lon="-7.602395">
        <ele>436.069</ele>
        <time>2019-05-29T18:50:00Z</time>
      </trkpt>
      <trkpt lat="40.034333" lon="-7.602175">
        <ele>436.052</ele>
        <time>2019-05-29T18:50:20Z</time>
      </trkpt>
      <trkpt lat="40.034383" lon="-7.601695">
        <ele>435.035</ele>
        <time>2019-05-29T18:50:40Z</time>
      </trkpt>
      <trkpt lat="40.034320" lon="-7.601210">
        <ele>432.063</ele>
        <time>2019-05-29T18:51:00Z</time>
      </trkpt>
      <trkpt lat="40.034294" lon="-7.600891">
        <ele>429.060</ele>
        <time>2019-05-29T18:51:20Z</time>
      </trkpt>
      <trkpt lat="40.034280" lon="-7.600739">
        <ele>428.051</ele>
        <time>2019-05-29T18:51:40Z</time>
      </trkpt>
      <trkpt lat="40.034464" lon="-7.600418">
        <ele>429.058</ele>
        <time>2019-05-29T18:52:00Z</time>
      </trkpt>
      <trkpt lat="40.034764" lon="-7.599873">
        <ele>435.080</ele>
        <time>2019-05-29T18:52:20Z</time>
      </trkpt>
      <trkpt lat="40.034855" lon="-7.599772">
        <ele>437.058</ele>
        <time>2019-05-29T18:52:40Z</time>
      </trkpt>
      <trkpt lat="40.034875" lon="-7.599558">
        <ele>438.052</ele>
        <time>2019-05-29T18:53:00Z</time>
      </trkpt>
      <trkpt lat="40.034964" lon="-7.599349">
        <ele>440.017</ele>
        <time>2019-05-29T18:53:20Z</time>
      </trkpt>
      <trkpt lat="40.034863" lon="-7.598667">
        <ele>450.008</ele>
        <time>2019-05-29T18:53:40Z</time>
      </trkpt>
      <trkpt lat="40.034930" lon="-7.598173">
        <ele>456.068</ele>
        <time>2019-05-29T18:54:00Z</time>
      </trkpt>
      <trkpt lat="40.034928" lon="-7.597976">
        <ele>458.051</ele>
        <time>2019-05-29T18:54:20Z</time>
      </trkpt>
      <trkpt lat="40.034925" lon="-7.597452">
        <ele>462.024</ele>
        <time>2019-05-29T18:54:40Z</time>
      </trkpt>
      <trkpt lat="40.034874" lon="-7.597215">
        <ele>465.042</ele>
        <time>2019-05-29T18:55:00Z</time>
      </trkpt>
      <trkpt lat="40.034802" lon="-7.597017">
        <ele>466.029</ele>
        <time>2019-05-29T18:55:20Z</time>
      </trkpt>
      <trkpt lat="40.034837" lon="-7.596778">
        <ele>467.020</ele>
        <time>2019-05-29T18:55:40Z</time>
      </trkpt>
      <trkpt lat="40.034549" lon="-7.596153">
        <ele>458.017</ele>
        <time>2019-05-29T18:56:00Z</time>
      </trkpt>
      <trkpt lat="40.034197" lon="-7.595647">
        <ele>455.049</ele>
        <time>2019-05-29T18:56:20Z</time>
      </trkpt>
      <trkpt lat="40.034119" lon="-7.595525">
        <ele>454.073</ele>
        <time>2019-05-29T18:56:40Z</time>
      </trkpt>
      <trkpt lat="40.034022" lon="-7.595259">
        <ele>451.085</ele>
        <time>2019-05-29T18:57:00Z</time>
      </trkpt>
      <trkpt lat="40.033853" lon="-7.594850">
        <ele>447.013</ele>
        <time>2019-05-29T18:57:20Z</time>
      </trkpt>
      <trkpt lat="40.033823" lon="-7.594732">
        <ele>445.008</ele>
        <time>2019-05-29T18:57:40Z</time>
      </trkpt>
      <trkpt lat="40.033856" lon="-7.594476">
        <ele>444.040</ele>
        <time>2019-05-29T18:58:00Z</time>
      </trkpt>
      <trkpt lat="40.033851" lon="-7.594187">
        <ele>442.093</ele>
        <time>2019-05-29T18:58:20Z</time>
      </trkpt>
      <trkpt lat="40.033882" lon="-7.594030">
        <ele>442.046</ele>
        <time>2019-05-29T18:58:40Z</time>
      </trkpt>
      <trkpt lat="40.033991" lon="-7.593640">
        <ele>445.044</ele>
        <time>2019-05-29T18:59:00Z</time>
      </trkpt>
      <trkpt lat="40.034105" lon="-7.593405">
        <ele>448.091</ele>
        <time>2019-05-29T18:59:20Z</time>
      </trkpt>
      <trkpt lat="40.034280" lon="-7.593214">
        <ele>450.022</ele>
        <time>2019-05-29T18:59:40Z</time>
      </trkpt>
      <trkpt lat="40.034571" lon="-7.593106">
        <ele>453.039</ele>
        <time>2019-05-29T19:00:00Z</time>
      </trkpt>
      <trkpt lat="40.034751" lon="-7.592956">
        <ele>454.021</ele>
        <time>2019-05-29T19:00:20Z</time>
      </trkpt>
      <trkpt lat="40.034957" lon="-7.592714">
        <ele>453.036</ele>
        <time>2019-05-29T19:00:40Z</time>
      </trkpt>
      <trkpt lat="40.034983" lon="-7.592027">
        <ele>450.017</ele>
        <time>2019-05-29T19:01:00Z</time>
      </trkpt>
      <trkpt lat="40.035178" lon="-7.591544">
        <ele>450.018</ele>
        <time>2019-05-29T19:01:20Z</time>
      </trkpt>
      <trkpt lat="40.035319" lon="-7.591234">
        <ele>451.008</ele>
        <time>2019-05-29T19:01:40Z</time>
      </trkpt>
      <trkpt lat="40.035360" lon="-7.590543">
        <ele>457.076</ele>
        <time>2019-05-29T19:02:00Z</time>
      </trkpt>
      <trkpt lat="40.035509" lon="-7.590196">
        <ele>458.059</ele>
        <time>2019-05-29T19:02:20Z</time>
      </trkpt>
      <trkpt lat="40.035431" lon="-7.589684">
        <ele>452.072</ele>
        <time>2019-05-29T19:02:40Z</time>
      </trkpt>
      <trkpt lat="40.035600" lon="-7.589622">
        <ele>453.010</ele>
        <time>2019-05-29T19:03:00Z</time>
      </trkpt>
      <trkpt lat="40.035787" lon="-7.589434">
        <ele>453.047</ele>
        <time>2019-05-29T19:03:20Z</time>
      </trkpt>
      <trkpt lat="40.035933" lon="-7.589275">
        <ele>453.058</ele>
        <time>2019-05-29T19:03:40Z</time>
      </trkpt>
      <trkpt lat="40.036050" lon="-7.589207">
        <ele>455.055</ele>
        <time>2019-05-29T19:04:00Z</time>
      </trkpt>
      <trkpt lat="40.036070" lon="-7.589043">
        <ele>454.067</ele>
        <time>2019-05-29T19:04:20Z</time>
      </trkpt>
      <trkpt lat="40.036050" lon="-7.588684">
        <ele>455.048</ele>
        <time>2019-05-29T19:04:40Z</time>
      </trkpt>
      <trkpt lat="40.035859" lon="-7.588414">
        <ele>456.061</ele>
        <time>2019-05-29T19:05:00Z</time>
      </trkpt>
      <trkpt lat="40.035686" lon="-7.588232">
        <ele>458.017</ele>
        <time>2019-05-29T19:05:20Z</time>
      </trkpt>
      <trkpt lat="40.035326" lon="-7.587544">
        <ele>466.008</ele>
        <time>2019-05-29T19:05:40Z</time>
      </trkpt>
      <trkpt lat="40.035326" lon="-7.587437">
        <ele>467.037</ele>
        <time>2019-05-29T19:06:00Z</time>
      </trkpt>
      <trkpt lat="40.035461" lon="-7.587351">
        <ele>468.010</ele>
        <time>2019-05-29T19:06:20Z</time>
      </trkpt>
      <trkpt lat="40.035694" lon="-7.587359">
        <ele>471.083</ele>
        <time>2019-05-29T19:06:40Z</time>
      </trkpt>
      <trkpt lat="40.035777" lon="-7.587307">
        <ele>472.011</ele>
        <time>2019-05-29T19:07:00Z</time>
      </trkpt>
      <trkpt lat="40.035962" lon="-7.587096">
        <ele>476.018</ele>
        <time>2019-05-29T19:07:20Z</time>
      </trkpt>
      <trkpt lat="40.036227" lon="-7.586739">
        <ele>481.039</ele>
        <time>2019-05-29T19:07:40Z</time>
      </trkpt>
      <trkpt lat="40.036631" lon="-7.586246">
        <ele>485.066</ele>
        <time>2019-05-29T19:08:00Z</time>
      </trkpt>
      <trkpt lat="40.036822" lon="-7.586006">
        <ele>486.028</ele>
        <time>2019-05-29T19:08:20Z</time>
      </trkpt>
      <trkpt lat="40.037087" lon="-7.585989">
        <ele>489.071</ele>
        <time>2019-05-29T19:08:40Z</time>
      </trkpt>
      <trkpt lat="40.037283" lon="-7.585893">
        <ele>491.041</ele>
        <time>2019-05-29T19:09:00Z</time>
      </trkpt>
      <trkpt lat="40.037475" lon="-7.585897">
        <ele>493.015</ele>
        <time>2019-05-29T19:09:20Z</time>
      </trkpt>
      <trkpt lat="40.037888" lon="-7.585880">
        <ele>496.008</ele>
        <time>2019-05-29T19:09:40Z</time>
      </trkpt>
      <trkpt lat="40.038188" lon="-7.585809">
        <ele>498.040</ele>
        <time>2019-05-29T19:10:00Z</time>
      </trkpt>
      <trkpt lat="40.038374" lon="-7.585286">
        <ele>504.073</ele>
        <time>2019-05-29T19:10:20Z</time>
      </trkpt>
      <trkpt lat="40.038487" lon="-7.585129">
        <ele>505.096</ele>
        <time>2019-05-29T19:10:40Z</time>
      </trkpt>
      <trkpt lat="40.039362" lon="-7.584753">
        <ele>514.064</ele>
        <time>2019-05-29T19:11:00Z</time>
      </trkpt>
      <trkpt lat="40.040153" lon="-7.584329">
        <ele>525.031</ele>
        <time>2019-05-29T19:11:20Z</time>
      </trkpt>
      <trkpt lat="40.040414" lon="-7.584043">
        <ele>528.022</ele>
        <time>2019-05-29T19:11:40Z</time>
      </trkpt>
      <trkpt lat="40.040819" lon="-7.583346">
        <ele>533.099</ele>
        <time>2019-05-29T19:12:00Z</time>
      </trkpt>
      <trkpt lat="40.041028" lon="-7.583010">
        <ele>536.021</ele>
        <time>2019-05-29T19:12:20Z</time>
      </trkpt>
      <trkpt lat="40.041889" lon="-7.581669">
        <ele>558.068</ele>
        <time>2019-05-29T19:12:40Z</time>
      </trkpt>
      <trkpt lat="40.042192" lon="-7.581179">
        <ele>563.042</ele>
        <time>2019-05-29T19:13:00Z</time>
      </trkpt>
      <trkpt lat="40.042435" lon="-7.580717">
        <ele>573.026</ele>
        <time>2019-05-29T19:13:20Z</time>
      </trkpt>
      <trkpt lat="40.042531" lon="-7.580546">
        <ele>577.008</ele>
        <time>2019-05-29T19:13:40Z</time>
      </trkpt>
      <trkpt lat="40.042664" lon="-7.580151">
        <ele>584.079</ele>
        <time>2019-05-29T19:14:00Z</time>
      </trkpt>
      <trkpt lat="40.042908" lon="-7.579783">
        <ele>588.052</ele>
        <time>2019-05-29T19:14:20Z</time>
      </trkpt>
      <trkpt lat="40.042730" lon="-7.579516">
        <ele>586.095</ele>
        <time>2019-05-29T19:14:40Z</time>
      </trkpt>
      <trkpt lat="40.042754" lon="-7.579222">
        <ele>587.053</ele>
        <time>2019-05-29T19:15:00Z</time>
      </trkpt>
      <trkpt lat="40.042831" lon="-7.579074">
        <ele>590.020</ele>
        <time>2019-05-29T19:15:20Z</time>
      </trkpt>
      <trkpt lat="40.042748" lon="-7.578790">
        <ele>591.021</ele>
        <time>2019-05-29T19:15:40Z</time>
      </trkpt>
      <trkpt lat="40.042577" lon="-7.578666">
        <ele>591.048</ele>
        <time>2019-05-29T19:16:00Z</time>
      </trkpt>
      <trkpt lat="40.042224" lon="-7.578393">
        <ele>593.080</ele>
        <time>2019-05-29T19:16:20Z</time>
      </trkpt>
      <trkpt lat="40.042127" lon="-7.578098">
        <ele>595.062</ele>
        <time>2019-05-29T19:16:40Z</time>
      </trkpt>
      <trkpt lat="40.042143" lon="-7.577537">
        <ele>598.083</ele>
        <time>2019-05-29T19:17:00Z</time>
      </trkpt>
      <trkpt lat="40.042156" lon="-7.576812">
        <ele>601.011</ele>
        <time>2019-05-29T19:17:20Z</time>
      </trkpt>
      <trkpt lat="40.042537" lon="-7.575980">
        <ele>594.008</ele>
        <time>2019-05-29T19:17:40Z</time>
      </trkpt>
      <trkpt lat="40.042617" lon="-7.575757">
        <ele>592.099</ele>
        <time>2019-05-29T19:18:00Z</time>
      </trkpt>
      <trkpt lat="40.042665" lon="-7.575426">
        <ele>590.092</ele>
        <time>2019-05-29T19:18:20Z</time>
      </trkpt>
      <trkpt lat="40.042679" lon="-7.574901">
        <ele>585.075</ele>
        <time>2019-05-29T19:18:40Z</time>
      </trkpt>
      <trkpt lat="40.042563" lon="-7.574613">
        <ele>584.013</ele>
        <time>2019-05-29T19:19:00Z</time>
      </trkpt>
      <trkpt lat="40.042422" lon="-7.574269">
        <ele>584.070</ele>
        <time>2019-05-29T19:19:20Z</time>
      </trkpt>
      <trkpt lat="40.042132" lon="-7.573686">
        <ele>580.071</ele>
        <time>2019-05-29T19:19:40Z</time>
      </trkpt>
      <trkpt lat="40.041776" lon="-7.573755">
        <ele>576.098</ele>
        <time>2019-05-29T19:20:00Z</time>
      </trkpt>
      <trkpt lat="40.041549" lon="-7.573717">
        <ele>576.010</ele>
        <time>2019-05-29T19:20:20Z</time>
      </trkpt>
      <trkpt lat="40.041225" lon="-7.573710">
        <ele>578.049</ele>
        <time>2019-05-29T19:20:40Z</time>
      </trkpt>
      <trkpt lat="40.040942" lon="-7.573617">
        <ele>576.002</ele>
        <time>2019-05-29T19:21:00Z</time>
      </trkpt>
      <trkpt lat="40.040494" lon="-7.573481">
        <ele>574.022</ele>
        <time>2019-05-29T19:21:20Z</time>
      </trkpt>
      <trkpt lat="40.040219" lon="-7.573393">
        <ele>573.008</ele>
        <time>2019-05-29T19:21:40Z</time>
      </trkpt>
      <trkpt lat="40.039860" lon="-7.573484">
        <ele>570.047</ele>
        <time>2019-05-29T19:22:00Z</time>
      </trkpt>
      <trkpt lat="40.039733" lon="-7.573552">
        <ele>570.070</ele>
        <time>2019-05-29T19:22:20Z</time>
      </trkpt>
      <trkpt lat="40.039813" lon="-7.573283">
        <ele>567.083</ele>
        <time>2019-05-29T19:22:40Z</time>
      </trkpt>
      <trkpt lat="40.040004" lon="-7.573109">
        <ele>568.011</ele>
        <time>2019-05-29T19:23:00Z</time>
      </trkpt>
      <trkpt lat="40.040244" lon="-7.572966">
        <ele>569.038</ele>
        <time>2019-05-29T19:23:20Z</time>
      </trkpt>
      <trkpt lat="40.040376" lon="-7.572649">
        <ele>568.059</ele>
        <time>2019-05-29T19:23:40Z</time>
      </trkpt>
      <trkpt lat="40.040350" lon="-7.572230">
        <ele>565.016</ele>
        <time>2019-05-29T19:24:00Z</time>
      </trkpt>
      <trkpt lat="40.040147" lon="-7.571755">
        <ele>559.078</ele>
        <time>2019-05-29T19:24:20Z</time>
      </trkpt>
      <trkpt lat="40.039724" lon="-7.571259">
        <ele>562.036</ele>
        <time>2019-05-29T19:24:40Z</time>
      </trkpt>
      <trkpt lat="40.039687" lon="-7.570919">
        <ele>562.017</ele>
        <time>2019-05-29T19:25:00Z</time>
      </trkpt>
      <trkpt lat="40.039548" lon="-7.570731">
        <ele>560.018</ele>
        <time>2019-05-29T19:25:20Z</time>
      </trkpt>
      <trkpt lat="40.039376" lon="-7.570696">
        <ele>559.008</ele>
        <time>2019-05-29T19:25:40Z</time>
      </trkpt>
      <trkpt lat="40.039106" lon="-7.570448">
        <ele>559.036</ele>
        <time>2019-05-29T19:26:00Z</time>
      </trkpt>
      <trkpt lat="40.038964" lon="-7.570316">
        <ele>559.019</ele>
        <time>2019-05-29T19:26:20Z</time>
      </trkpt>
      <trkpt lat="40.038721" lon="-7.570077">
        <ele>555.012</ele>
        <time>2019-05-29T19:26:40Z</time>
      </trkpt>
      <trkpt lat="40.038618" lon="-7.569878">
        <ele>553.080</ele>
        <time>2019-05-29T19:27:00Z</time>
      </trkpt>
      <trkpt lat="40.038429" lon="-7.570022">
        <ele>552.057</ele>
        <time>2019-05-29T19:27:20Z</time>
      </trkpt>
      <trkpt lat="40.038312" lon="-7.570240">
        <ele>552.048</ele>
        <time>2019-05-29T19:27:40Z</time>
      </trkpt>
      <trkpt lat="40.038041" lon="-7.570392">
        <ele>551.075</ele>
        <time>2019-05-29T19:28:00Z</time>
      </trkpt>
      <trkpt lat="40.037794" lon="-7.570411">
        <ele>550.047</ele>
        <time>2019-05-29T19:28:20Z</time>
      </trkpt>
      <trkpt lat="40.037632" lon="-7.570412">
        <ele>549.039</ele>
        <time>2019-05-29T19:28:40Z</time>
      </trkpt>
      <trkpt lat="40.037352" lon="-7.570306">
        <ele>549.001</ele>
        <time>2019-05-29T19:29:00Z</time>
      </trkpt>
      <trkpt lat="40.037159" lon="-7.570159">
        <ele>550.021</ele>
        <time>2019-05-29T19:29:20Z</time>
      </trkpt>
      <trkpt lat="40.036835" lon="-7.569911">
        <ele>552.008</ele>
        <time>2019-05-29T19:29:40Z</time>
      </trkpt>
      <trkpt lat="40.036208" lon="-7.569480">
        <ele>557.086</ele>
        <time>2019-05-29T19:30:00Z</time>
      </trkpt>
      <trkpt lat="40.035875" lon="-7.568950">
        <ele>560.089</ele>
        <time>2019-05-29T19:30:20Z</time>
      </trkpt>
      <trkpt lat="40.035641" lon="-7.568387">
        <ele>560.092</ele>
        <time>2019-05-29T19:30:40Z</time>
      </trkpt>
      <trkpt lat="40.035509" lon="-7.567959">
        <ele>561.050</ele>
        <time>2019-05-29T19:31:00Z</time>
      </trkpt>
      <trkpt lat="40.036384" lon="-7.567651">
        <ele>557.037</ele>
        <time>2019-05-29T19:31:20Z</time>
      </trkpt>
      <trkpt lat="40.036732" lon="-7.567372">
        <ele>553.058</ele>
        <time>2019-05-29T19:31:40Z</time>
      </trkpt>
      <trkpt lat="40.036994" lon="-7.567108">
        <ele>551.085</ele>
        <time>2019-05-29T19:32:00Z</time>
      </trkpt>
      <trkpt lat="40.037155" lon="-7.566880">
        <ele>550.017</ele>
        <time>2019-05-29T19:32:20Z</time>
      </trkpt>
      <trkpt lat="40.037206" lon="-7.566691">
        <ele>549.058</ele>
        <time>2019-05-29T19:32:40Z</time>
      </trkpt>
      <trkpt lat="40.037311" lon="-7.566640">
        <ele>546.052</ele>
        <time>2019-05-29T19:33:00Z</time>
      </trkpt>
      <trkpt lat="40.037324" lon="-7.566575">
        <ele>545.017</ele>
        <time>2019-05-29T19:33:20Z</time>
      </trkpt>
      <trkpt lat="40.037721" lon="-7.566348">
        <ele>537.008</ele>
        <time>2019-05-29T19:33:40Z</time>
      </trkpt>
      <trkpt lat="40.037855" lon="-7.566075">
        <ele>535.078</ele>
        <time>2019-05-29T19:34:00Z</time>
      </trkpt>
      <trkpt lat="40.037895" lon="-7.565830">
        <ele>533.081</ele>
        <time>2019-05-29T19:34:20Z</time>
      </trkpt>
      <trkpt lat="40.038045" lon="-7.565681">
        <ele>535.074</ele>
        <time>2019-05-29T19:34:40Z</time>
      </trkpt>
      <trkpt lat="40.038147" lon="-7.565320">
        <ele>535.092</ele>
        <time>2019-05-29T19:35:00Z</time>
      </trkpt>
      <trkpt lat="40.038119" lon="-7.565136">
        <ele>536.019</ele>
        <time>2019-05-29T19:35:20Z</time>
      </trkpt>
      <trkpt lat="40.038791" lon="-7.564438">
        <ele>541.090</ele>
        <time>2019-05-29T19:35:40Z</time>
      </trkpt>
      <trkpt lat="40.038917" lon="-7.564189">
        <ele>543.097</ele>
        <time>2019-05-29T19:36:00Z</time>
      </trkpt>
      <trkpt lat="40.039019" lon="-7.564115">
        <ele>545.019</ele>
        <time>2019-05-29T19:36:20Z</time>
      </trkpt>
      <trkpt lat="40.039511" lon="-7.563622">
        <ele>547.089</ele>
        <time>2019-05-29T19:36:40Z</time>
      </trkpt>
      <trkpt lat="40.039302" lon="-7.563480">
        <ele>552.006</ele>
        <time>2019-05-29T19:37:00Z</time>
      </trkpt>
      <trkpt lat="40.039146" lon="-7.563438">
        <ele>554.026</ele>
        <time>2019-05-29T19:37:20Z</time>
      </trkpt>
      <trkpt lat="40.038970" lon="-7.563463">
        <ele>555.008</ele>
        <time>2019-05-29T19:37:40Z</time>
      </trkpt>
      <trkpt lat="40.038729" lon="-7.563386">
        <ele>556.041</ele>
        <time>2019-05-29T19:38:00Z</time>
      </trkpt>
      <trkpt lat="40.038651" lon="-7.563287">
        <ele>557.034</ele>
        <time>2019-05-29T19:38:20Z</time>
      </trkpt>
      <trkpt lat="40.038769" lon="-7.562922">
        <ele>561.057</ele>
        <time>2019-05-29T19:38:40Z</time>
      </trkpt>
      <trkpt lat="40.038681" lon="-7.562799">
        <ele>561.085</ele>
        <time>2019-05-29T19:39:00Z</time>
      </trkpt>
      <trkpt lat="40.038462" lon="-7.562584">
        <ele>560.072</ele>
        <time>2019-05-29T19:39:20Z</time>
      </trkpt>
      <trkpt lat="40.037909" lon="-7.561964">
        <ele>556.063</ele>
        <time>2019-05-29T19:39:40Z</time>
      </trkpt>
      <trkpt lat="40.037571" lon="-7.561525">
        <ele>557.040</ele>
        <time>2019-05-29T19:40:00Z</time>
      </trkpt>
      <trkpt lat="40.037045" lon="-7.561070">
        <ele>562.072</ele>
        <time>2019-05-29T19:40:20Z</time>
      </trkpt>
      <trkpt lat="40.037316" lon="-7.560504">
        <ele>561.064</ele>
        <time>2019-05-29T19:40:40Z</time>
      </trkpt>
      <trkpt lat="40.037285" lon="-7.560425">
        <ele>561.006</ele>
        <time>2019-05-29T19:41:00Z</time>
      </trkpt>
      <trkpt lat="40.037500" lon="-7.559932">
        <ele>562.016</ele>
        <time>2019-05-29T19:41:20Z</time>
      </trkpt>
      <trkpt lat="40.037768" lon="-7.559946">
        <ele>563.008</ele>
        <time>2019-05-29T19:41:40Z</time>
      </trkpt>
      <trkpt lat="40.037925" lon="-7.560046">
        <ele>563.049</ele>
        <time>2019-05-29T19:42:00Z</time>
      </trkpt>
      <trkpt lat="40.038181" lon="-7.559285">
        <ele>568.082</ele>
        <time>2019-05-29T19:42:20Z</time>
      </trkpt>
      <trkpt lat="40.038257" lon="-7.558861">
        <ele>571.055</ele>
        <time>2019-05-29T19:42:40Z</time>
      </trkpt>
      <trkpt lat="40.038501" lon="-7.557655">
        <ele>585.053</ele>
        <time>2019-05-29T19:43:00Z</time>
      </trkpt>
      <trkpt lat="40.038992" lon="-7.557659">
        <ele>587.070</ele>
        <time>2019-05-29T19:43:20Z</time>
      </trkpt>
      <trkpt lat="40.039389" lon="-7.557656">
        <ele>587.081</ele>
        <time>2019-05-29T19:43:40Z</time>
      </trkpt>
      <trkpt lat="40.039859" lon="-7.557575">
        <ele>592.058</ele>
        <time>2019-05-29T19:44:00Z</time>
      </trkpt>
      <trkpt lat="40.040254" lon="-7.557676">
        <ele>595.030</ele>
        <time>2019-05-29T19:44:20Z</time>
      </trkpt>
      <trkpt lat="40.040614" lon="-7.557617">
        <ele>598.034</ele>
        <time>2019-05-29T19:44:40Z</time>
      </trkpt>
      <trkpt lat="40.040875" lon="-7.557611">
        <ele>601.055</ele>
        <time>2019-05-29T19:45:00Z</time>
      </trkpt>
      <trkpt lat="40.040458" lon="-7.557146">
        <ele>606.010</ele>
        <time>2019-05-29T19:45:20Z</time>
      </trkpt>
      <trkpt lat="40.040517" lon="-7.556865">
        <ele>610.008</ele>
        <time>2019-05-29T19:45:40Z</time>
      </trkpt>
      <trkpt lat="40.040237" lon="-7.556480">
        <ele>615.046</ele>
        <time>2019-05-29T19:46:00Z</time>
      </trkpt>
      <trkpt lat="40.039988" lon="-7.555686">
        <ele>621.019</ele>
        <time>2019-05-29T19:46:20Z</time>
      </trkpt>
      <trkpt lat="40.040030" lon="-7.555277">
        <ele>620.062</ele>
        <time>2019-05-29T19:46:40Z</time>
      </trkpt>
      <trkpt lat="40.040597" lon="-7.555398">
        <ele>632.080</ele>
        <time>2019-05-29T19:47:00Z</time>
      </trkpt>
      <trkpt lat="40.041148" lon="-7.555243">
        <ele>643.067</ele>
        <time>2019-05-29T19:47:20Z</time>
      </trkpt>
      <trkpt lat="40.041420" lon="-7.555156">
        <ele>648.018</ele>
        <time>2019-05-29T19:47:40Z</time>
      </trkpt>
      <trkpt lat="40.041844" lon="-7.555282">
        <ele>654.095</ele>
        <time>2019-05-29T19:48:00Z</time>
      </trkpt>
      <trkpt lat="40.042150" lon="-7.555570">
        <ele>654.077</ele>
        <time>2019-05-29T19:48:20Z</time>
      </trkpt>
      <trkpt lat="40.043275" lon="-7.555689">
        <ele>656.077</ele>
        <time>2019-05-29T19:48:40Z</time>
      </trkpt>
      <trkpt lat="40.043867" lon="-7.555446">
        <ele>666.061</ele>
        <time>2019-05-29T19:49:00Z</time>
      </trkpt>
      <trkpt lat="40.044191" lon="-7.554753">
        <ele>667.027</ele>
        <time>2019-05-29T19:49:20Z</time>
      </trkpt>
      <trkpt lat="40.045779" lon="-7.554747">
        <ele>680.008</ele>
        <time>2019-05-29T19:49:40Z</time>
      </trkpt>
      <trkpt lat="40.046688" lon="-7.553891">
        <ele>677.050</ele>
        <time>2019-05-29T19:50:00Z</time>
      </trkpt>
      <trkpt lat="40.047101" lon="-7.553611">
        <ele>680.043</ele>
        <time>2019-05-29T19:50:20Z</time>
      </trkpt>
      <trkpt lat="40.047352" lon="-7.553470">
        <ele>681.086</ele>
        <time>2019-05-29T19:50:40Z</time>
      </trkpt>
      <trkpt lat="40.047814" lon="-7.552715">
        <ele>694.034</ele>
        <time>2019-05-29T19:51:00Z</time>
      </trkpt>
      <trkpt lat="40.048605" lon="-7.552589">
        <ele>699.041</ele>
        <time>2019-05-29T19:51:20Z</time>
      </trkpt>
      <trkpt lat="40.049272" lon="-7.551810">
        <ele>710.072</ele>
        <time>2019-05-29T19:51:40Z</time>
      </trkpt>
      <trkpt lat="40.049370" lon="-7.551092">
        <ele>726.059</ele>
        <time>2019-05-29T19:52:00Z</time>
      </trkpt>
      <trkpt lat="40.049986" lon="-7.550475">
        <ele>727.011</ele>
        <time>2019-05-29T19:52:20Z</time>
      </trkpt>
      <trkpt lat="40.050903" lon="-7.550406">
        <ele>731.015</ele>
        <time>2019-05-29T19:52:40Z</time>
      </trkpt>
      <trkpt lat="40.051518" lon="-7.549698">
        <ele>743.065</ele>
        <time>2019-05-29T19:53:00Z</time>
      </trkpt>
      <trkpt lat="40.052130" lon="-7.549963">
        <ele>746.011</ele>
        <time>2019-05-29T19:53:20Z</time>
      </trkpt>
      <trkpt lat="40.052860" lon="-7.549822">
        <ele>751.008</ele>
        <time>2019-05-29T19:53:40Z</time>
      </trkpt>
      <trkpt lat="40.052944" lon="-7.549309">
        <ele>755.074</ele>
        <time>2019-05-29T19:54:00Z</time>
      </trkpt>
      <trkpt lat="40.053615" lon="-7.549767">
        <ele>765.077</ele>
        <time>2019-05-29T19:54:20Z</time>
      </trkpt>
      <trkpt lat="40.054157" lon="-7.549918">
        <ele>776.020</ele>
        <time>2019-05-29T19:54:40Z</time>
      </trkpt>
      <trkpt lat="40.054514" lon="-7.549846">
        <ele>777.038</ele>
        <time>2019-05-29T19:55:00Z</time>
      </trkpt>
      <trkpt lat="40.054814" lon="-7.549449">
        <ele>783.055</ele>
        <time>2019-05-29T19:55:20Z</time>
      </trkpt>
      <trkpt lat="40.055208" lon="-7.549377">
        <ele>790.016</ele>
        <time>2019-05-29T19:55:40Z</time>
      </trkpt>
      <trkpt lat="40.055493" lon="-7.548835">
        <ele>795.073</ele>
        <time>2019-05-29T19:56:00Z</time>
      </trkpt>
      <trkpt lat="40.055392" lon="-7.548252">
        <ele>796.075</ele>
        <time>2019-05-29T19:56:20Z</time>
      </trkpt>
      <trkpt lat="40.055458" lon="-7.547733">
        <ele>801.067</ele>
        <time>2019-05-29T19:56:40Z</time>
      </trkpt>
      <trkpt lat="40.055985" lon="-7.547060">
        <ele>807.081</ele>
        <time>2019-05-29T19:57:00Z</time>
      </trkpt>
      <trkpt lat="40.056418" lon="-7.546814">
        <ele>811.019</ele>
        <time>2019-05-29T19:57:20Z</time>
      </trkpt>
      <trkpt lat="40.056872" lon="-7.545803">
        <ele>810.008</ele>
        <time>2019-05-29T19:57:40Z</time>
      </trkpt>
      <trkpt lat="40.056914" lon="-7.545341">
        <ele>809.019</ele>
        <time>2019-05-29T19:58:00Z</time>
      </trkpt>
      <trkpt lat="40.057194" lon="-7.544912">
        <ele>803.032</ele>
        <time>2019-05-29T19:58:20Z</time>
      </trkpt>
      <trkpt lat="40.057377" lon="-7.544205">
        <ele>795.075</ele>
        <time>2019-05-29T19:58:40Z</time>
      </trkpt>
      <trkpt lat="40.057655" lon="-7.543273">
        <ele>782.083</ele>
        <time>2019-05-29T19:59:00Z</time>
      </trkpt>
      <trkpt lat="40.058070" lon="-7.542634">
        <ele>777.020</ele>
        <time>2019-05-29T19:59:20Z</time>
      </trkpt>
      <trkpt lat="40.058366" lon="-7.541616">
        <ele>773.021</ele>
        <time>2019-05-29T19:59:40Z</time>
      </trkpt>
      <trkpt lat="40.058262" lon="-7.541319">
        <ele>769.078</ele>
        <time>2019-05-29T20:00:00Z</time>
      </trkpt>
      <trkpt lat="40.058060" lon="-7.540753">
        <ele>757.080</ele>
        <time>2019-05-29T20:00:20Z</time>
      </trkpt>
      <trkpt lat="40.058001" lon="-7.540333">
        <ele>757.035</ele>
        <time>2019-05-29T20:00:40Z</time>
      </trkpt>
      <trkpt lat="40.057811" lon="-7.538931">
        <ele>747.086</ele>
        <time>2019-05-29T20:01:00Z</time>
      </trkpt>
      <trkpt lat="40.057913" lon="-7.538570">
        <ele>740.014</ele>
        <time>2019-05-29T20:01:20Z</time>
      </trkpt>
      <trkpt lat="40.057717" lon="-7.538418">
        <ele>739.008</ele>
        <time>2019-05-29T20:01:40Z</time>
      </trkpt>
      <trkpt lat="40.057658" lon="-7.537879">
        <ele>737.086</ele>
        <time>2019-05-29T20:02:00Z</time>
      </trkpt>
      <trkpt lat="40.057184" lon="-7.536990">
        <ele>733.039</ele>
        <time>2019-05-29T20:02:20Z</time>
      </trkpt>
      <trkpt lat="40.056946" lon="-7.536143">
        <ele>733.082</ele>
        <time>2019-05-29T20:02:40Z</time>
      </trkpt>
      <trkpt lat="40.056451" lon="-7.535737">
        <ele>735.050</ele>
        <time>2019-05-29T20:03:00Z</time>
      </trkpt>
      <trkpt lat="40.055789" lon="-7.535541">
        <ele>731.097</ele>
        <time>2019-05-29T20:03:20Z</time>
      </trkpt>
      <trkpt lat="40.055408" lon="-7.535585">
        <ele>726.048</ele>
        <time>2019-05-29T20:03:40Z</time>
      </trkpt>
      <trkpt lat="40.055095" lon="-7.535524">
        <ele>722.025</ele>
        <time>2019-05-29T20:04:00Z</time>
      </trkpt>
      <trkpt lat="40.054669" lon="-7.535854">
        <ele>722.047</ele>
        <time>2019-05-29T20:04:20Z</time>
      </trkpt>
      <trkpt lat="40.054454" lon="-7.536213">
        <ele>722.041</ele>
        <time>2019-05-29T20:04:40Z</time>
      </trkpt>
      <trkpt lat="40.053927" lon="-7.536334">
        <ele>723.081</ele>
        <time>2019-05-29T20:05:00Z</time>
      </trkpt>
      <trkpt lat="40.053765" lon="-7.536086">
        <ele>716.009</ele>
        <time>2019-05-29T20:05:20Z</time>
      </trkpt>
      <trkpt lat="40.053531" lon="-7.536034">
        <ele>713.008</ele>
        <time>2019-05-29T20:05:40Z</time>
      </trkpt>
      <trkpt lat="40.053729" lon="-7.535684">
        <ele>710.097</ele>
        <time>2019-05-29T20:06:00Z</time>
      </trkpt>
      <trkpt lat="40.053627" lon="-7.535198">
        <ele>705.020</ele>
        <time>2019-05-29T20:06:20Z</time>
      </trkpt>
      <trkpt lat="40.053768" lon="-7.534925">
        <ele>704.013</ele>
        <time>2019-05-29T20:06:40Z</time>
      </trkpt>
      <trkpt lat="40.053958" lon="-7.535049">
        <ele>707.081</ele>
        <time>2019-05-29T20:07:00Z</time>
      </trkpt>
      <trkpt lat="40.054126" lon="-7.534830">
        <ele>707.088</ele>
        <time>2019-05-29T20:07:20Z</time>
      </trkpt>
      <trkpt lat="40.054621" lon="-7.534552">
        <ele>710.089</ele>
        <time>2019-05-29T20:07:40Z</time>
      </trkpt>
      <trkpt lat="40.055150" lon="-7.534088">
        <ele>708.026</ele>
        <time>2019-05-29T20:08:00Z</time>
      </trkpt>
      <trkpt lat="40.055430" lon="-7.533842">
        <ele>706.038</ele>
        <time>2019-05-29T20:08:20Z</time>
      </trkpt>
      <trkpt lat="40.056257" lon="-7.533493">
        <ele>698.017</ele>
        <time>2019-05-29T20:08:40Z</time>
      </trkpt>
      <trkpt lat="40.056380" lon="-7.533106">
        <ele>697.087</ele>
        <time>2019-05-29T20:09:00Z</time>
      </trkpt>
      <trkpt lat="40.056327" lon="-7.532923">
        <ele>699.015</ele>
        <time>2019-05-29T20:09:20Z</time>
      </trkpt>
      <trkpt lat="40.056121" lon="-7.532642">
        <ele>700.008</ele>
        <time>2019-05-29T20:09:40Z</time>
      </trkpt>
      <trkpt lat="40.056217" lon="-7.532545">
        <ele>702.064</ele>
        <time>2019-05-29T20:10:00Z</time>
      </trkpt>
      <trkpt lat="40.056369" lon="-7.532492">
        <ele>704.017</ele>
        <time>2019-05-29T20:10:20Z</time>
      </trkpt>
      <trkpt lat="40.056632" lon="-7.532319">
        <ele>706.080</ele>
        <time>2019-05-29T20:10:40Z</time>
      </trkpt>
      <trkpt lat="40.056635" lon="-7.531992">
        <ele>709.098</ele>
        <time>2019-05-29T20:11:00Z</time>
      </trkpt>
      <trkpt lat="40.057051" lon="-7.530845">
        <ele>724.075</ele>
        <time>2019-05-29T20:11:20Z</time>
      </trkpt>
      <trkpt lat="40.056489" lon="-7.530376">
        <ele>725.096</ele>
        <time>2019-05-29T20:11:40Z</time>
      </trkpt>
      <trkpt lat="40.056042" lon="-7.530317">
        <ele>722.013</ele>
        <time>2019-05-29T20:12:00Z</time>
      </trkpt>
      <trkpt lat="40.055259" lon="-7.529779">
        <ele>726.095</ele>
        <time>2019-05-29T20:12:20Z</time>
      </trkpt>
      <trkpt lat="40.054474" lon="-7.528123">
        <ele>723.077</ele>
        <time>2019-05-29T20:12:40Z</time>
      </trkpt>
      <trkpt lat="40.054245" lon="-7.527285">
        <ele>729.061</ele>
        <time>2019-05-29T20:13:00Z</time>
      </trkpt>
      <trkpt lat="40.054036" lon="-7.526906">
        <ele>729.027</ele>
        <time>2019-05-29T20:13:20Z</time>
      </trkpt>
      <trkpt lat="40.053796" lon="-7.526686">
        <ele>729.008</ele>
        <time>2019-05-29T20:13:40Z</time>
      </trkpt>
      <trkpt lat="40.053785" lon="-7.526278">
        <ele>728.080</ele>
        <time>2019-05-29T20:14:00Z</time>
      </trkpt>
      <trkpt lat="40.054817" lon="-7.524940">
        <ele>742.093</ele>
        <time>2019-05-29T20:14:20Z</time>
      </trkpt>
      <trkpt lat="40.054595" lon="-7.524575">
        <ele>745.026</ele>
        <time>2019-05-29T20:14:40Z</time>
      </trkpt>
      <trkpt lat="40.053780" lon="-7.523343">
        <ele>750.054</ele>
        <time>2019-05-29T20:15:00Z</time>
      </trkpt>
      <trkpt lat="40.053602" lon="-7.522235">
        <ele>743.041</ele>
        <time>2019-05-29T20:15:20Z</time>
      </trkpt>
      <trkpt lat="40.053736" lon="-7.521856">
        <ele>741.092</ele>
        <time>2019-05-29T20:15:40Z</time>
      </trkpt>
      <trkpt lat="40.053792" lon="-7.521301">
        <ele>735.049</ele>
        <time>2019-05-29T20:16:00Z</time>
      </trkpt>
      <trkpt lat="40.053687" lon="-7.520384">
        <ele>728.061</ele>
        <time>2019-05-29T20:16:20Z</time>
      </trkpt>
      <trkpt lat="40.053779" lon="-7.520158">
        <ele>728.089</ele>
        <time>2019-05-29T20:16:40Z</time>
      </trkpt>
      <trkpt lat="40.053796" lon="-7.519890">
        <ele>725.006</ele>
        <time>2019-05-29T20:17:00Z</time>
      </trkpt>
      <trkpt lat="40.054622" lon="-7.518653">
        <ele>733.026</ele>
        <time>2019-05-29T20:17:20Z</time>
      </trkpt>
      <trkpt lat="40.054589" lon="-7.518224">
        <ele>726.008</ele>
        <time>2019-05-29T20:17:40Z</time>
      </trkpt>
      <trkpt lat="40.054822" lon="-7.517707">
        <ele>726.081</ele>
        <time>2019-05-29T20:18:00Z</time>
      </trkpt>
      <trkpt lat="40.055103" lon="-7.517568">
        <ele>732.074</ele>
        <time>2019-05-29T20:18:20Z</time>
      </trkpt>
      <trkpt lat="40.055570" lon="-7.516821">
        <ele>737.037</ele>
        <time>2019-05-29T20:18:40Z</time>
      </trkpt>
      <trkpt lat="40.056595" lon="-7.516135">
        <ele>751.085</ele>
        <time>2019-05-29T20:19:00Z</time>
      </trkpt>
      <trkpt lat="40.056369" lon="-7.515445">
        <ele>740.082</ele>
        <time>2019-05-29T20:19:20Z</time>
      </trkpt>
      <trkpt lat="40.056704" lon="-7.515053">
        <ele>742.013</ele>
        <time>2019-05-29T20:19:40Z</time>
      </trkpt>
      <trkpt lat="40.057046" lon="-7.515021">
        <ele>750.050</ele>
        <time>2019-05-29T20:20:00Z</time>
      </trkpt>
      <trkpt lat="40.057555" lon="-7.514456">
        <ele>745.082</ele>
        <time>2019-05-29T20:20:20Z</time>
      </trkpt>
      <trkpt lat="40.057878" lon="-7.514286">
        <ele>753.061</ele>
        <time>2019-05-29T20:20:40Z</time>
      </trkpt>
      <trkpt lat="40.058117" lon="-7.513708">
        <ele>745.021</ele>
        <time>2019-05-29T20:21:00Z</time>
      </trkpt>
      <trkpt lat="40.058519" lon="-7.513701">
        <ele>758.013</ele>
        <time>2019-05-29T20:21:20Z</time>
      </trkpt>
      <trkpt lat="40.059057" lon="-7.513012">
        <ele>763.008</ele>
        <time>2019-05-29T20:21:40Z</time>
      </trkpt>
      <trkpt lat="40.059134" lon="-7.512582">
        <ele>761.029</ele>
        <time>2019-05-29T20:22:00Z</time>
      </trkpt>
      <trkpt lat="40.058984" lon="-7.512272">
        <ele>757.032</ele>
        <time>2019-05-29T20:22:20Z</time>
      </trkpt>
      <trkpt lat="40.059356" lon="-7.511607">
        <ele>766.075</ele>
        <time>2019-05-29T20:22:40Z</time>
      </trkpt>
      <trkpt lat="40.059223" lon="-7.510961">
        <ele>761.053</ele>
        <time>2019-05-29T20:23:00Z</time>
      </trkpt>
      <trkpt lat="40.059527" lon="-7.510238">
        <ele>763.040</ele>
        <time>2019-05-29T20:23:20Z</time>
      </trkpt>
      <trkpt lat="40.059867" lon="-7.510056">
        <ele>768.071</ele>
        <time>2019-05-29T20:23:40Z</time>
      </trkpt>
      <trkpt lat="40.059910" lon="-7.509919">
        <ele>767.078</ele>
        <time>2019-05-29T20:24:00Z</time>
      </trkpt>
      <trkpt lat="40.059741" lon="-7.509499">
        <ele>756.010</ele>
        <time>2019-05-29T20:24:20Z</time>
      </trkpt>
      <trkpt lat="40.059757" lon="-7.508935">
        <ele>748.046</ele>
        <time>2019-05-29T20:24:40Z</time>
      </trkpt>
      <trkpt lat="40.060096" lon="-7.508763">
        <ele>758.088</ele>
        <time>2019-05-29T20:25:00Z</time>
      </trkpt>
      <trkpt lat="40.060333" lon="-7.508370">
        <ele>762.016</ele>
        <time>2019-05-29T20:25:20Z</time>
      </trkpt>
      <trkpt lat="40.060281" lon="-7.508164">
        <ele>757.008</ele>
        <time>2019-05-29T20:25:40Z</time>
      </trkpt>
      <trkpt lat="40.060409" lon="-7.507553">
        <ele>754.097</ele>
        <time>2019-05-29T20:26:00Z</time>
      </trkpt>
      <trkpt lat="40.060347" lon="-7.507029">
        <ele>754.070</ele>
        <time>2019-05-29T20:26:20Z</time>
      </trkpt>
      <trkpt lat="40.060421" lon="-7.506534">
        <ele>756.083</ele>
        <time>2019-05-29T20:26:40Z</time>
      </trkpt>
      <trkpt lat="40.060512" lon="-7.506305">
        <ele>758.071</ele>
        <time>2019-05-29T20:27:00Z</time>
      </trkpt>
      <trkpt lat="40.060451" lon="-7.505857">
        <ele>756.068</ele>
        <time>2019-05-29T20:27:20Z</time>
      </trkpt>
      <trkpt lat="40.060739" lon="-7.505081">
        <ele>765.019</ele>
        <time>2019-05-29T20:27:40Z</time>
      </trkpt>
      <trkpt lat="40.060945" lon="-7.504997">
        <ele>770.016</ele>
        <time>2019-05-29T20:28:00Z</time>
      </trkpt>
      <trkpt lat="40.061105" lon="-7.504712">
        <ele>770.088</ele>
        <time>2019-05-29T20:28:20Z</time>
      </trkpt>
      <trkpt lat="40.061574" lon="-7.504188">
        <ele>773.075</ele>
        <time>2019-05-29T20:28:40Z</time>
      </trkpt>
      <trkpt lat="40.062065" lon="-7.504174">
        <ele>779.028</ele>
        <time>2019-05-29T20:29:00Z</time>
      </trkpt>
      <trkpt lat="40.062334" lon="-7.504356">
        <ele>783.020</ele>
        <time>2019-05-29T20:29:20Z</time>
      </trkpt>
      <trkpt lat="40.062550" lon="-7.504856">
        <ele>794.008</ele>
        <time>2019-05-29T20:29:40Z</time>
      </trkpt>
      <trkpt lat="40.062762" lon="-7.505103">
        <ele>799.050</ele>
        <time>2019-05-29T20:30:00Z</time>
      </trkpt>
      <trkpt lat="40.063226" lon="-7.504924">
        <ele>805.033</ele>
        <time>2019-05-29T20:30:20Z</time>
      </trkpt>
      <trkpt lat="40.063313" lon="-7.505019">
        <ele>808.066</ele>
        <time>2019-05-29T20:30:40Z</time>
      </trkpt>
      <trkpt lat="40.063259" lon="-7.505089">
        <ele>807.064</ele>
        <time>2019-05-29T20:31:00Z</time>
      </trkpt>
      <trkpt lat="40.062949" lon="-7.505648">
        <ele>810.071</ele>
        <time>2019-05-29T20:31:20Z</time>
      </trkpt>
      <trkpt lat="40.062804" lon="-7.505999">
        <ele>813.072</ele>
        <time>2019-05-29T20:31:40Z</time>
      </trkpt>
      <trkpt lat="40.062712" lon="-7.506303">
        <ele>816.089</ele>
        <time>2019-05-29T20:32:00Z</time>
      </trkpt>
      <trkpt lat="40.063058" lon="-7.506386">
        <ele>819.051</ele>
        <time>2019-05-29T20:32:20Z</time>
      </trkpt>
      <trkpt lat="40.063284" lon="-7.506577">
        <ele>824.068</ele>
        <time>2019-05-29T20:32:40Z</time>
      </trkpt>
      <trkpt lat="40.063571" lon="-7.506304">
        <ele>827.042</ele>
        <time>2019-05-29T20:33:00Z</time>
      </trkpt>
      <trkpt lat="40.063754" lon="-7.506429">
        <ele>830.026</ele>
        <time>2019-05-29T20:33:20Z</time>
      </trkpt>
      <trkpt lat="40.063751" lon="-7.506784">
        <ele>831.008</ele>
        <time>2019-05-29T20:33:40Z</time>
      </trkpt>
      <trkpt lat="40.063831" lon="-7.507055">
        <ele>835.059</ele>
        <time>2019-05-29T20:34:00Z</time>
      </trkpt>
      <trkpt lat="40.063635" lon="-7.507340">
        <ele>837.072</ele>
        <time>2019-05-29T20:34:20Z</time>
      </trkpt>
      <trkpt lat="40.063247" lon="-7.507400">
        <ele>837.065</ele>
        <time>2019-05-29T20:34:40Z</time>
      </trkpt>
      <trkpt lat="40.063057" lon="-7.507778">
        <ele>842.083</ele>
        <time>2019-05-29T20:35:00Z</time>
      </trkpt>
      <trkpt lat="40.063095" lon="-7.508084">
        <ele>847.060</ele>
        <time>2019-05-29T20:35:20Z</time>
      </trkpt>
      <trkpt lat="40.063388" lon="-7.508168">
        <ele>848.041</ele>
        <time>2019-05-29T20:35:40Z</time>
      </trkpt>
      <trkpt lat="40.063800" lon="-7.508651">
        <ele>857.028</ele>
        <time>2019-05-29T20:36:00Z</time>
      </trkpt>
      <trkpt lat="40.064078" lon="-7.508912">
        <ele>866.060</ele>
        <time>2019-05-29T20:36:20Z</time>
      </trkpt>
      <trkpt lat="40.064581" lon="-7.508899">
        <ele>870.062</ele>
        <time>2019-05-29T20:36:40Z</time>
      </trkpt>
      <trkpt lat="40.064946" lon="-7.508446">
        <ele>872.083</ele>
        <time>2019-05-29T20:37:00Z</time>
      </trkpt>
      <trkpt lat="40.065266" lon="-7.508391">
        <ele>882.011</ele>
        <time>2019-05-29T20:37:20Z</time>
      </trkpt>
      <trkpt lat="40.065077" lon="-7.507537">
        <ele>873.008</ele>
        <time>2019-05-29T20:37:40Z</time>
      </trkpt>
      <trkpt lat="40.065330" lon="-7.507387">
        <ele>881.079</ele>
        <time>2019-05-29T20:38:00Z</time>
      </trkpt>
      <trkpt lat="40.065427" lon="-7.506976">
        <ele>880.032</ele>
        <time>2019-05-29T20:38:20Z</time>
      </trkpt>
      <trkpt lat="40.065984" lon="-7.506760">
        <ele>894.075</ele>
        <time>2019-05-29T20:38:40Z</time>
      </trkpt>
      <trkpt lat="40.065975" lon="-7.505664">
        <ele>892.083</ele>
        <time>2019-05-29T20:39:00Z</time>
      </trkpt>
      <trkpt lat="40.065582" lon="-7.504684">
        <ele>892.030</ele>
        <time>2019-05-29T20:39:20Z</time>
      </trkpt>
      <trkpt lat="40.065894" lon="-7.504496">
        <ele>899.051</ele>
        <time>2019-05-29T20:39:40Z</time>
      </trkpt>
      <trkpt lat="40.066356" lon="-7.505069">
        <ele>905.088</ele>
        <time>2019-05-29T20:40:00Z</time>
      </trkpt>
      <trkpt lat="40.066399" lon="-7.504865">
        <ele>904.060</ele>
        <time>2019-05-29T20:40:20Z</time>
      </trkpt>
      <trkpt lat="40.065894" lon="-7.504216">
        <ele>896.021</ele>
        <time>2019-05-29T20:40:40Z</time>
      </trkpt>
      <trkpt lat="40.065550" lon="-7.504296">
        <ele>892.041</ele>
        <time>2019-05-29T20:41:00Z</time>
      </trkpt>
      <trkpt lat="40.065218" lon="-7.504247">
        <ele>886.005</ele>
        <time>2019-05-29T20:41:20Z</time>
      </trkpt>
      <trkpt lat="40.065047" lon="-7.503456">
        <ele>882.008</ele>
        <time>2019-05-29T20:41:40Z</time>
      </trkpt>
      <trkpt lat="40.065074" lon="-7.503088">
        <ele>879.055</ele>
        <time>2019-05-29T20:42:00Z</time>
      </trkpt>
      <trkpt lat="40.065657" lon="-7.502669">
        <ele>869.018</ele>
        <time>2019-05-29T20:42:20Z</time>
      </trkpt>
      <trkpt lat="40.066565" lon="-7.502881">
        <ele>869.071</ele>
        <time>2019-05-29T20:42:40Z</time>
      </trkpt>
      <trkpt lat="40.066813" lon="-7.503277">
        <ele>867.099</ele>
        <time>2019-05-29T20:43:00Z</time>
      </trkpt>
      <trkpt lat="40.067155" lon="-7.503316">
        <ele>862.016</ele>
        <time>2019-05-29T20:43:20Z</time>
      </trkpt>
      <trkpt lat="40.067450" lon="-7.503575">
        <ele>866.027</ele>
        <time>2019-05-29T20:43:40Z</time>
      </trkpt>
      <trkpt lat="40.067552" lon="-7.503416">
        <ele>863.094</ele>
        <time>2019-05-29T20:44:00Z</time>
      </trkpt>
      <trkpt lat="40.067464" lon="-7.503062">
        <ele>857.016</ele>
        <time>2019-05-29T20:44:20Z</time>
      </trkpt>
      <trkpt lat="40.067097" lon="-7.502899">
        <ele>860.046</ele>
        <time>2019-05-29T20:44:40Z</time>
      </trkpt>
      <trkpt lat="40.067119" lon="-7.502597">
        <ele>860.088</ele>
        <time>2019-05-29T20:45:00Z</time>
      </trkpt>
      <trkpt lat="40.067526" lon="-7.502690">
        <ele>853.016</ele>
        <time>2019-05-29T20:45:20Z</time>
      </trkpt>
      <trkpt lat="40.067845" lon="-7.502453">
        <ele>849.008</ele>
        <time>2019-05-29T20:45:40Z</time>
      </trkpt>
      <trkpt lat="40.067705" lon="-7.501844">
        <ele>844.027</ele>
        <time>2019-05-29T20:46:00Z</time>
      </trkpt>
      <trkpt lat="40.068226" lon="-7.501118">
        <ele>832.040</ele>
        <time>2019-05-29T20:46:20Z</time>
      </trkpt>
      <trkpt lat="40.068927" lon="-7.501197">
        <ele>830.033</ele>
        <time>2019-05-29T20:46:40Z</time>
      </trkpt>
      <trkpt lat="40.069054" lon="-7.500360">
        <ele>816.091</ele>
        <time>2019-05-29T20:47:00Z</time>
      </trkpt>
      <trkpt lat="40.069311" lon="-7.500355">
        <ele>812.038</ele>
        <time>2019-05-29T20:47:20Z</time>
      </trkpt>
      <trkpt lat="40.069381" lon="-7.500771">
        <ele>809.019</ele>
        <time>2019-05-29T20:47:40Z</time>
      </trkpt>
      <trkpt lat="40.070002" lon="-7.501527">
        <ele>799.066</ele>
        <time>2019-05-29T20:48:00Z</time>
      </trkpt>
      <trkpt lat="40.070173" lon="-7.502119">
        <ele>804.018</ele>
        <time>2019-05-29T20:48:20Z</time>
      </trkpt>
      <trkpt lat="40.071573" lon="-7.501901">
        <ele>779.023</ele>
        <time>2019-05-29T20:48:40Z</time>
      </trkpt>
      <trkpt lat="40.072187" lon="-7.502178">
        <ele>774.083</ele>
        <time>2019-05-29T20:49:00Z</time>
      </trkpt>
      <trkpt lat="40.072356" lon="-7.502557">
        <ele>778.011</ele>
        <time>2019-05-29T20:49:20Z</time>
      </trkpt>
      <trkpt lat="40.073455" lon="-7.502854">
        <ele>771.008</ele>
        <time>2019-05-29T20:49:40Z</time>
      </trkpt>
      <trkpt lat="40.074406" lon="-7.502389">
        <ele>763.065</ele>
        <time>2019-05-29T20:50:00Z</time>
      </trkpt>
      <trkpt lat="40.074972" lon="-7.502573">
        <ele>766.058</ele>
        <time>2019-05-29T20:50:20Z</time>
      </trkpt>
      <trkpt lat="40.075175" lon="-7.502447">
        <ele>758.041</ele>
        <time>2019-05-29T20:50:40Z</time>
      </trkpt>
      <trkpt lat="40.075158" lon="-7.502145">
        <ele>752.069</ele>
        <time>2019-05-29T20:51:00Z</time>
      </trkpt>
      <trkpt lat="40.074892" lon="-7.501963">
        <ele>749.076</ele>
        <time>2019-05-29T20:51:20Z</time>
      </trkpt>
      <trkpt lat="40.073692" lon="-7.502114">
        <ele>750.097</ele>
        <time>2019-05-29T20:51:40Z</time>
      </trkpt>
      <trkpt lat="40.073529" lon="-7.501597">
        <ele>741.064</ele>
        <time>2019-05-29T20:52:00Z</time>
      </trkpt>
      <trkpt lat="40.073986" lon="-7.501070">
        <ele>731.066</ele>
        <time>2019-05-29T20:52:20Z</time>
      </trkpt>
      <trkpt lat="40.075780" lon="-7.501262">
        <ele>724.036</ele>
        <time>2019-05-29T20:52:40Z</time>
      </trkpt>
      <trkpt lat="40.076344" lon="-7.501461">
        <ele>712.017</ele>
        <time>2019-05-29T20:53:00Z</time>
      </trkpt>
      <trkpt lat="40.076709" lon="-7.502352">
        <ele>714.018</ele>
        <time>2019-05-29T20:53:20Z</time>
      </trkpt>
      <trkpt lat="40.077015" lon="-7.502431">
        <ele>707.008</ele>
        <time>2019-05-29T20:53:40Z</time>
      </trkpt>
      <trkpt lat="40.077183" lon="-7.502196">
        <ele>699.036</ele>
        <time>2019-05-29T20:54:00Z</time>
      </trkpt>
      <trkpt lat="40.076928" lon="-7.501868">
        <ele>699.089</ele>
        <time>2019-05-29T20:54:20Z</time>
      </trkpt>
      <trkpt lat="40.076721" lon="-7.501462">
        <ele>697.082</ele>
        <time>2019-05-29T20:54:40Z</time>
      </trkpt>
      <trkpt lat="40.076935" lon="-7.500985">
        <ele>681.090</ele>
        <time>2019-05-29T20:55:00Z</time>
      </trkpt>
      <trkpt lat="40.077206" lon="-7.501167">
        <ele>679.097</ele>
        <time>2019-05-29T20:55:20Z</time>
      </trkpt>
      <trkpt lat="40.077588" lon="-7.501108">
        <ele>673.028</ele>
        <time>2019-05-29T20:55:40Z</time>
      </trkpt>
      <trkpt lat="40.077968" lon="-7.499640">
        <ele>666.025</ele>
        <time>2019-05-29T20:56:00Z</time>
      </trkpt>
      <trkpt lat="40.078133" lon="-7.498917">
        <ele>660.097</ele>
        <time>2019-05-29T20:56:20Z</time>
      </trkpt>
      <trkpt lat="40.077861" lon="-7.498839">
        <ele>660.067</ele>
        <time>2019-05-29T20:56:40Z</time>
      </trkpt>
      <trkpt lat="40.077456" lon="-7.498745">
        <ele>661.081</ele>
        <time>2019-05-29T20:57:00Z</time>
      </trkpt>
      <trkpt lat="40.077104" lon="-7.498927">
        <ele>664.019</ele>
        <time>2019-05-29T20:57:20Z</time>
      </trkpt>
      <trkpt lat="40.076776" lon="-7.499110">
        <ele>665.008</ele>
        <time>2019-05-29T20:57:40Z</time>
      </trkpt>
      <trkpt lat="40.076294" lon="-7.498442">
        <ele>660.019</ele>
        <time>2019-05-29T20:58:00Z</time>
      </trkpt>
      <trkpt lat="40.076846" lon="-7.498047">
        <ele>656.062</ele>
        <time>2019-05-29T20:58:20Z</time>
      </trkpt>
      <trkpt lat="40.077150" lon="-7.497572">
        <ele>647.065</ele>
        <time>2019-05-29T20:58:40Z</time>
      </trkpt>
      <trkpt lat="40.076807" lon="-7.496491">
        <ele>632.013</ele>
        <time>2019-05-29T20:59:00Z</time>
      </trkpt>
      <trkpt lat="40.076884" lon="-7.495753">
        <ele>623.040</ele>
        <time>2019-05-29T20:59:20Z</time>
      </trkpt>
      <trkpt lat="40.077054" lon="-7.495572">
        <ele>623.011</ele>
        <time>2019-05-29T20:59:40Z</time>
      </trkpt>
      <trkpt lat="40.077012" lon="-7.495549">
        <ele>622.065</ele>
        <time>2010-01-01T00:00:00Z</time>
      </trkpt>
      <trkpt lat="40.076795" lon="-7.494813">
        <ele>613.068</ele>
        <time>2010-01-01T00:00:24Z</time>
      </trkpt>
      <trkpt lat="40.076210" lon="-7.494122">
        <ele>600.014</ele>
        <time>2010-01-01T00:00:55Z</time>
      </trkpt>
      <trkpt lat="40.075195" lon="-7.493758">
        <ele>600.008</ele>
        <time>2010-01-01T00:01:37Z</time>
      </trkpt>
      <trkpt lat="40.074832" lon="-7.493239">
        <ele>596.059</ele>
        <time>2010-01-01T00:01:59Z</time>
      </trkpt>
      <trkpt lat="40.073908" lon="-7.492687">
        <ele>587.082</ele>
        <time>2010-01-01T00:02:40Z</time>
      </trkpt>
      <trkpt lat="40.073210" lon="-7.492463">
        <ele>584.055</ele>
        <time>2010-01-01T00:03:08Z</time>
      </trkpt>
      <trkpt lat="40.072101" lon="-7.489960">
        <ele>569.053</ele>
        <time>2010-01-01T00:04:37Z</time>
      </trkpt>
      <trkpt lat="40.072034" lon="-7.489427">
        <ele>568.040</ele>
        <time>2010-01-01T00:04:53Z</time>
      </trkpt>
      <trkpt lat="40.072187" lon="-7.489038">
        <ele>562.029</ele>
        <time>2010-01-01T00:05:07Z</time>
      </trkpt>
      <trkpt lat="40.072075" lon="-7.487033">
        <ele>557.076</ele>
        <time>2010-01-01T00:06:08Z</time>
      </trkpt>
      <trkpt lat="40.071327" lon="-7.485526">
        <ele>550.064</ele>
        <time>2010-01-01T00:07:03Z</time>
      </trkpt>
      <trkpt lat="40.070933" lon="-7.484792">
        <ele>548.099</ele>
        <time>2010-01-01T00:07:31Z</time>
      </trkpt>
      <trkpt lat="40.070856" lon="-7.484416">
        <ele>545.007</ele>
        <time>2010-01-01T00:07:43Z</time>
      </trkpt>
      <trkpt lat="40.070299" lon="-7.484230">
        <ele>544.027</ele>
        <time>2010-01-01T00:08:06Z</time>
      </trkpt>
      <trkpt lat="40.069640" lon="-7.483856">
        <ele>540.008</ele>
        <time>2010-01-01T00:08:35Z</time>
      </trkpt>
      <trkpt lat="40.069355" lon="-7.483699">
        <ele>541.022</ele>
        <time>2010-01-01T00:08:47Z</time>
      </trkpt>
      <trkpt lat="40.069265" lon="-7.483555">
        <ele>541.015</ele>
        <time>2010-01-01T00:08:53Z</time>
      </trkpt>
      <trkpt lat="40.069109" lon="-7.482839">
        <ele>542.078</ele>
        <time>2010-01-01T00:09:16Z</time>
      </trkpt>
      <trkpt lat="40.069024" lon="-7.482352">
        <ele>540.086</ele>
        <time>2010-01-01T00:09:31Z</time>
      </trkpt>
      <trkpt lat="40.068340" lon="-7.481643">
        <ele>530.013</ele>
        <time>2010-01-01T00:10:06Z</time>
      </trkpt>
      <trkpt lat="40.068155" lon="-7.481442">
        <ele>530.092</ele>
        <time>2010-01-01T00:10:15Z</time>
      </trkpt>
      <trkpt lat="40.067687" lon="-7.480464">
        <ele>527.019</ele>
        <time>2010-01-01T00:10:51Z</time>
      </trkpt>
      <trkpt lat="40.067159" lon="-7.480024">
        <ele>524.077</ele>
        <time>2010-01-01T00:11:16Z</time>
      </trkpt>
      <trkpt lat="40.066315" lon="-7.479443">
        <ele>518.067</ele>
        <time>2010-01-01T00:11:54Z</time>
      </trkpt>
      <trkpt lat="40.065991" lon="-7.479322">
        <ele>518.081</ele>
        <time>2010-01-01T00:12:07Z</time>
      </trkpt>
      <trkpt lat="40.065148" lon="-7.478992">
        <ele>521.019</ele>
        <time>2010-01-01T00:12:43Z</time>
      </trkpt>
      <trkpt lat="40.064160" lon="-7.478571">
        <ele>518.008</ele>
        <time>2010-01-01T00:13:24Z</time>
      </trkpt>
      <trkpt lat="40.063476" lon="-7.478341">
        <ele>515.019</ele>
        <time>2010-01-01T00:13:53Z</time>
      </trkpt>
      <trkpt lat="40.062506" lon="-7.478141">
        <ele>511.072</ele>
        <time>2010-01-01T00:14:32Z</time>
      </trkpt>
      <trkpt lat="40.061620" lon="-7.478088">
        <ele>504.055</ele>
        <time>2010-01-01T00:15:07Z</time>
      </trkpt>
      <trkpt lat="40.060912" lon="-7.478049">
        <ele>507.043</ele>
        <time>2010-01-01T00:15:36Z</time>
      </trkpt>
      <trkpt lat="40.060534" lon="-7.477815">
        <ele>509.090</ele>
        <time>2010-01-01T00:15:52Z</time>
      </trkpt>
      <trkpt lat="40.059628" lon="-7.477672">
        <ele>511.049</ele>
        <time>2010-01-01T00:16:29Z</time>
      </trkpt>
      <trkpt lat="40.058834" lon="-7.477548">
        <ele>508.016</ele>
        <time>2010-01-01T00:17:01Z</time>
      </trkpt>
      <trkpt lat="40.058145" lon="-7.477382">
        <ele>506.074</ele>
        <time>2010-01-01T00:17:29Z</time>
      </trkpt>
      <trkpt lat="40.057309" lon="-7.477306">
        <ele>506.078</ele>
        <time>2010-01-01T00:18:03Z</time>
      </trkpt>
      <trkpt lat="40.056517" lon="-7.477230">
        <ele>509.033</ele>
        <time>2010-01-01T00:18:34Z</time>
      </trkpt>
      <trkpt lat="40.056384" lon="-7.477224">
        <ele>509.026</ele>
        <time>2010-01-01T00:18:40Z</time>
      </trkpt>
      <trkpt lat="40.055975" lon="-7.477151">
        <ele>509.008</ele>
        <time>2010-01-01T00:18:56Z</time>
      </trkpt>
      <trkpt lat="40.055801" lon="-7.477215">
        <ele>509.050</ele>
        <time>2010-01-01T00:19:04Z</time>
      </trkpt>
      <trkpt lat="40.055697" lon="-7.477209">
        <ele>509.013</ele>
        <time>2010-01-01T00:19:08Z</time>
      </trkpt>
      <trkpt lat="40.055054" lon="-7.476981">
        <ele>512.096</ele>
        <time>2010-01-01T00:19:34Z</time>
      </trkpt>
      <trkpt lat="40.054437" lon="-7.477066">
        <ele>514.024</ele>
        <time>2010-01-01T00:19:59Z</time>
      </trkpt>
      <trkpt lat="40.054230" lon="-7.476894">
        <ele>508.041</ele>
        <time>2010-01-01T00:20:09Z</time>
      </trkpt>
      <trkpt lat="40.053722" lon="-7.476683">
        <ele>503.020</ele>
        <time>2010-01-01T00:20:30Z</time>
      </trkpt>
      <trkpt lat="40.052880" lon="-7.476785">
        <ele>507.037</ele>
        <time>2010-01-01T00:21:04Z</time>
      </trkpt>
      <trkpt lat="40.053116" lon="-7.475743">
        <ele>502.075</ele>
        <time>2010-01-01T00:21:38Z</time>
      </trkpt>
      <trkpt lat="40.053276" lon="-7.475359">
        <ele>503.052</ele>
        <time>2010-01-01T00:21:51Z</time>
      </trkpt>
      <trkpt lat="40.053632" lon="-7.475300">
        <ele>499.053</ele>
        <time>2010-01-01T00:22:05Z</time>
      </trkpt>
      <trkpt lat="40.054074" lon="-7.475778">
        <ele>495.008</ele>
        <time>2010-01-01T00:22:28Z</time>
      </trkpt>
      <trkpt lat="40.054424" lon="-7.475706">
        <ele>494.008</ele>
        <time>2010-01-01T00:22:42Z</time>
      </trkpt>
      <trkpt lat="40.054543" lon="-7.475335">
        <ele>492.098</ele>
        <time>2010-01-01T00:22:55Z</time>
      </trkpt>
      <trkpt lat="40.054884" lon="-7.473738">
        <ele>493.021</ele>
        <time>2010-01-01T00:23:46Z</time>
      </trkpt>
      <trkpt lat="40.055073" lon="-7.472913">
        <ele>490.074</ele>
        <time>2010-01-01T00:24:12Z</time>
      </trkpt>
      <trkpt lat="40.055198" lon="-7.471740">
        <ele>482.042</ele>
        <time>2010-01-01T00:24:48Z</time>
      </trkpt>
      <trkpt lat="40.055290" lon="-7.469222">
        <ele>467.069</ele>
        <time>2010-01-01T00:26:05Z</time>
      </trkpt>
      <trkpt lat="40.055158" lon="-7.468877">
        <ele>465.078</ele>
        <time>2010-01-01T00:26:17Z</time>
      </trkpt>
      <trkpt lat="40.054750" lon="-7.468275">
        <ele>464.015</ele>
        <time>2010-01-01T00:26:42Z</time>
      </trkpt>
      <trkpt lat="40.054042" lon="-7.467583">
        <ele>459.073</ele>
        <time>2010-01-01T00:27:17Z</time>
      </trkpt>
      <trkpt lat="40.053986" lon="-7.467495">
        <ele>459.011</ele>
        <time>2010-01-01T00:27:21Z</time>
      </trkpt>
      <trkpt lat="40.054166" lon="-7.466878">
        <ele>458.021</ele>
        <time>2010-01-01T00:27:41Z</time>
      </trkpt>
      <trkpt lat="40.054195" lon="-7.466657">
        <ele>458.003</ele>
        <time>2010-01-01T00:27:48Z</time>
      </trkpt>
      <trkpt lat="40.054885" lon="-7.465756">
        <ele>458.008</ele>
        <time>2010-01-01T00:28:27Z</time>
      </trkpt>
      <trkpt lat="40.055180" lon="-7.465494">
        <ele>457.054</ele>
        <time>2010-01-01T00:28:41Z</time>
      </trkpt>
      <trkpt lat="40.055918" lon="-7.464715">
        <ele>454.037</ele>
        <time>2010-01-01T00:29:19Z</time>
      </trkpt>
      <trkpt lat="40.055617" lon="-7.463986">
        <ele>455.070</ele>
        <time>2010-01-01T00:29:45Z</time>
      </trkpt>
      <trkpt lat="40.055562" lon="-7.463921">
        <ele>455.078</ele>
        <time>2010-01-01T00:29:48Z</time>
      </trkpt>
      <trkpt lat="40.055538" lon="-7.463630">
        <ele>456.065</ele>
        <time>2010-01-01T00:29:57Z</time>
      </trkpt>
      <trkpt lat="40.055400" lon="-7.463320">
        <ele>457.024</ele>
        <time>2010-01-01T00:30:08Z</time>
      </trkpt>
      <trkpt lat="40.055127" lon="-7.463008">
        <ele>455.031</ele>
        <time>2010-01-01T00:30:22Z</time>
      </trkpt>
      <trkpt lat="40.054889" lon="-7.462692">
        <ele>455.069</ele>
        <time>2010-01-01T00:30:36Z</time>
      </trkpt>
      <trkpt lat="40.054736" lon="-7.462487">
        <ele>455.067</ele>
        <time>2010-01-01T00:30:44Z</time>
      </trkpt>
      <trkpt lat="40.054530" lon="-7.462110">
        <ele>455.081</ele>
        <time>2010-01-01T00:30:59Z</time>
      </trkpt>
      <trkpt lat="40.054372" lon="-7.461450">
        <ele>453.019</ele>
        <time>2010-01-01T00:31:20Z</time>
      </trkpt>
      <trkpt lat="40.054347" lon="-7.461223">
        <ele>453.008</ele>
        <time>2010-01-01T00:31:27Z</time>
      </trkpt>
      <trkpt lat="40.054334" lon="-7.460784">
        <ele>454.029</ele>
        <time>2010-01-01T00:31:40Z</time>
      </trkpt>
      <trkpt lat="40.054397" lon="-7.460638">
        <ele>455.052</ele>
        <time>2010-01-01T00:31:45Z</time>
      </trkpt>
      <trkpt lat="40.054180" lon="-7.460244">
        <ele>452.085</ele>
        <time>2010-01-01T00:32:00Z</time>
      </trkpt>
      <trkpt lat="40.054087" lon="-7.459806">
        <ele>449.023</ele>
        <time>2010-01-01T00:32:14Z</time>
      </trkpt>
      <trkpt lat="40.053998" lon="-7.459451">
        <ele>447.030</ele>
        <time>2010-01-01T00:32:26Z</time>
      </trkpt>
      <trkpt lat="40.053816" lon="-7.459189">
        <ele>444.059</ele>
        <time>2010-01-01T00:32:37Z</time>
      </trkpt>
      <trkpt lat="40.053659" lon="-7.459035">
        <ele>442.076</ele>
        <time>2010-01-01T00:32:44Z</time>
      </trkpt>
      <trkpt lat="40.053408" lon="-7.459218">
        <ele>439.024</ele>
        <time>2010-01-01T00:32:56Z</time>
      </trkpt>
      <trkpt lat="40.053180" lon="-7.458883">
        <ele>436.073</ele>
        <time>2010-01-01T00:33:10Z</time>
      </trkpt>
      <trkpt lat="40.053102" lon="-7.458798">
        <ele>434.085</ele>
        <time>2010-01-01T00:33:14Z</time>
      </trkpt>
      <trkpt lat="40.052800" lon="-7.458570">
        <ele>428.013</ele>
        <time>2010-01-01T00:33:28Z</time>
      </trkpt>
      <trkpt lat="40.052704" lon="-7.458513">
        <ele>427.008</ele>
        <time>2010-01-01T00:33:32Z</time>
      </trkpt>
      <trkpt lat="40.052588" lon="-7.458343">
        <ele>425.030</ele>
        <time>2010-01-01T00:33:39Z</time>
      </trkpt>
      <trkpt lat="40.052393" lon="-7.458468">
        <ele>424.023</ele>
        <time>2010-01-01T00:33:48Z</time>
      </trkpt>
      <trkpt lat="40.052229" lon="-7.458541">
        <ele>423.096</ele>
        <time>2010-01-01T00:33:55Z</time>
      </trkpt>
      <trkpt lat="40.051981" lon="-7.458635">
        <ele>423.094</ele>
        <time>2010-01-01T00:34:05Z</time>
      </trkpt>
      <trkpt lat="40.051858" lon="-7.458637">
        <ele>423.081</ele>
        <time>2010-01-01T00:34:10Z</time>
      </trkpt>
      <trkpt lat="40.051638" lon="-7.458564">
        <ele>422.060</ele>
        <time>2010-01-01T00:34:19Z</time>
      </trkpt>
      <trkpt lat="40.051416" lon="-7.458222">
        <ele>420.087</ele>
        <time>2010-01-01T00:34:33Z</time>
      </trkpt>
      <trkpt lat="40.051288" lon="-7.457984">
        <ele>419.025</ele>
        <time>2010-01-01T00:34:42Z</time>
      </trkpt>
      <trkpt lat="40.051071" lon="-7.457841">
        <ele>417.054</ele>
        <time>2010-01-01T00:34:51Z</time>
      </trkpt>
      <trkpt lat="40.050402" lon="-7.457505">
        <ele>408.056</ele>
        <time>2010-01-01T00:35:20Z</time>
      </trkpt>
      <trkpt lat="40.050300" lon="-7.457375">
        <ele>406.011</ele>
        <time>2010-01-01T00:35:26Z</time>
      </trkpt>
      <trkpt lat="40.050275" lon="-7.457144">
        <ele>404.008</ele>
        <time>2010-01-01T00:35:33Z</time>
      </trkpt>
      <trkpt lat="40.050313" lon="-7.456792">
        <ele>403.018</ele>
        <time>2010-01-01T00:35:44Z</time>
      </trkpt>
      <trkpt lat="40.050243" lon="-7.456198">
        <ele>397.061</ele>
        <time>2010-01-01T00:36:02Z</time>
      </trkpt>
      <trkpt lat="40.050313" lon="-7.455895">
        <ele>395.054</ele>
        <time>2010-01-01T00:36:12Z</time>
      </trkpt>
      <trkpt lat="40.050527" lon="-7.455588">
        <ele>397.042</ele>
        <time>2010-01-01T00:36:24Z</time>
      </trkpt>
      <trkpt lat="40.050872" lon="-7.455207">
        <ele>399.069</ele>
        <time>2010-01-01T00:36:43Z</time>
      </trkpt>
      <trkpt lat="40.051002" lon="-7.454813">
        <ele>396.088</ele>
        <time>2010-01-01T00:36:56Z</time>
      </trkpt>
      <trkpt lat="40.050981" lon="-7.454466">
        <ele>392.015</ele>
        <time>2010-01-01T00:37:06Z</time>
      </trkpt>
      <trkpt lat="40.050828" lon="-7.454051">
        <ele>389.063</ele>
        <time>2010-01-01T00:37:20Z</time>
      </trkpt>
      <trkpt lat="40.050652" lon="-7.453877">
        <ele>387.033</ele>
        <time>2010-01-01T00:37:29Z</time>
      </trkpt>
      <trkpt lat="40.050539" lon="-7.453576">
        <ele>384.023</ele>
        <time>2010-01-01T00:37:40Z</time>
      </trkpt>
      <trkpt lat="40.050402" lon="-7.453196">
        <ele>381.015</ele>
        <time>2010-01-01T00:37:52Z</time>
      </trkpt>
      <trkpt lat="40.050507" lon="-7.452747">
        <ele>380.008</ele>
        <time>2010-01-01T00:38:07Z</time>
      </trkpt>
      <trkpt lat="40.050381" lon="-7.452435">
        <ele>381.016</ele>
        <time>2010-01-01T00:38:18Z</time>
      </trkpt>
      <trkpt lat="40.050241" lon="-7.452102">
        <ele>382.039</ele>
        <time>2010-01-01T00:38:29Z</time>
      </trkpt>
      <trkpt lat="40.050228" lon="-7.451781">
        <ele>381.012</ele>
        <time>2010-01-01T00:38:39Z</time>
      </trkpt>
      <trkpt lat="40.050188" lon="-7.451359">
        <ele>380.070</ele>
        <time>2010-01-01T00:38:52Z</time>
      </trkpt>
      <trkpt lat="40.049938" lon="-7.451122">
        <ele>380.017</ele>
        <time>2010-01-01T00:39:05Z</time>
      </trkpt>
      <trkpt lat="40.049480" lon="-7.450749">
        <ele>381.046</ele>
        <time>2010-01-01T00:39:26Z</time>
      </trkpt>
      <trkpt lat="40.049387" lon="-7.450511">
        <ele>382.023</ele>
        <time>2010-01-01T00:39:34Z</time>
      </trkpt>
      <trkpt lat="40.049326" lon="-7.450155">
        <ele>381.071</ele>
        <time>2010-01-01T00:39:46Z</time>
      </trkpt>
      <trkpt lat="40.049308" lon="-7.449990">
        <ele>380.018</ele>
        <time>2010-01-01T00:39:51Z</time>
      </trkpt>
      <trkpt lat="40.049421" lon="-7.449642">
        <ele>378.098</ele>
        <time>2010-01-01T00:40:02Z</time>
      </trkpt>
      <trkpt lat="40.049600" lon="-7.449463">
        <ele>378.017</ele>
        <time>2010-01-01T00:40:11Z</time>
      </trkpt>
      <trkpt lat="40.049674" lon="-7.449121">
        <ele>377.008</ele>
        <time>2010-01-01T00:40:22Z</time>
      </trkpt>
      <trkpt lat="40.049766" lon="-7.448775">
        <ele>375.014</ele>
        <time>2010-01-01T00:40:33Z</time>
      </trkpt>
      <trkpt lat="40.049984" lon="-7.448133">
        <ele>373.097</ele>
        <time>2010-01-01T00:40:55Z</time>
      </trkpt>
      <trkpt lat="40.050163" lon="-7.447940">
        <ele>373.010</ele>
        <time>2010-01-01T00:41:04Z</time>
      </trkpt>
      <trkpt lat="40.050512" lon="-7.447575">
        <ele>376.018</ele>
        <time>2010-01-01T00:41:22Z</time>
      </trkpt>
      <trkpt lat="40.050717" lon="-7.447275">
        <ele>376.095</ele>
        <time>2010-01-01T00:41:34Z</time>
      </trkpt>
      <trkpt lat="40.051001" lon="-7.446874">
        <ele>376.074</ele>
        <time>2010-01-01T00:41:51Z</time>
      </trkpt>
      <trkpt lat="40.051279" lon="-7.446488">
        <ele>377.041</ele>
        <time>2010-01-01T00:42:07Z</time>
      </trkpt>
      <trkpt lat="40.051710" lon="-7.445899">
        <ele>379.019</ele>
        <time>2010-01-01T00:42:32Z</time>
      </trkpt>
      <trkpt lat="40.051817" lon="-7.445653">
        <ele>379.076</ele>
        <time>2010-01-01T00:42:41Z</time>
      </trkpt>
      <trkpt lat="40.052046" lon="-7.445053">
        <ele>380.090</ele>
        <time>2010-01-01T00:43:02Z</time>
      </trkpt>
      <trkpt lat="40.052403" lon="-7.443854">
        <ele>379.019</ele>
        <time>2010-01-01T00:43:41Z</time>
      </trkpt>
      <trkpt lat="40.052633" lon="-7.442953">
        <ele>381.008</ele>
        <time>2010-01-01T00:44:10Z</time>
      </trkpt>
      <trkpt lat="40.052792" lon="-7.442284">
        <ele>382.010</ele>
        <time>2010-01-01T00:44:31Z</time>
      </trkpt>
      <trkpt lat="40.052880" lon="-7.441798">
        <ele>381.063</ele>
        <time>2010-01-01T00:44:47Z</time>
      </trkpt>
      <trkpt lat="40.052978" lon="-7.440886">
        <ele>380.086</ele>
        <time>2010-01-01T00:45:15Z</time>
      </trkpt>
      <trkpt lat="40.053020" lon="-7.440561">
        <ele>380.014</ele>
        <time>2010-01-01T00:45:25Z</time>
      </trkpt>
      <trkpt lat="40.053106" lon="-7.440172">
        <ele>381.011</ele>
        <time>2010-01-01T00:45:38Z</time>
      </trkpt>
      <trkpt lat="40.053224" lon="-7.439639">
        <ele>380.010</ele>
        <time>2010-01-01T00:45:55Z</time>
      </trkpt>
      <trkpt lat="40.053286" lon="-7.439297">
        <ele>379.047</ele>
        <time>2010-01-01T00:46:05Z</time>
      </trkpt>
      <trkpt lat="40.053400" lon="-7.438640">
        <ele>380.085</ele>
        <time>2010-01-01T00:46:26Z</time>
      </trkpt>
      <trkpt lat="40.053441" lon="-7.438301">
        <ele>380.034</ele>
        <time>2010-01-01T00:46:36Z</time>
      </trkpt>
      <trkpt lat="40.053417" lon="-7.437847">
        <ele>378.055</ele>
        <time>2010-01-01T00:46:50Z</time>
      </trkpt>
      <trkpt lat="40.053381" lon="-7.437644">
        <ele>378.010</ele>
        <time>2010-01-01T00:46:57Z</time>
      </trkpt>
      <trkpt lat="40.053578" lon="-7.436799">
        <ele>378.008</ele>
        <time>2010-01-01T00:47:24Z</time>
      </trkpt>
      <trkpt lat="40.053681" lon="-7.436369">
        <ele>378.026</ele>
        <time>2010-01-01T00:47:38Z</time>
      </trkpt>
      <trkpt lat="40.053864" lon="-7.435682">
        <ele>378.019</ele>
        <time>2010-01-01T00:48:00Z</time>
      </trkpt>
      <trkpt lat="40.053986" lon="-7.435319">
        <ele>378.052</ele>
        <time>2010-01-01T00:48:12Z</time>
      </trkpt>
      <trkpt lat="40.054141" lon="-7.435031">
        <ele>378.020</ele>
        <time>2010-01-01T00:48:23Z</time>
      </trkpt>
      <trkpt lat="40.054026" lon="-7.434847">
        <ele>378.077</ele>
        <time>2010-01-01T00:48:30Z</time>
      </trkpt>
      <trkpt lat="40.053933" lon="-7.434754">
        <ele>378.056</ele>
        <time>2010-01-01T00:48:35Z</time>
      </trkpt>
      <trkpt lat="40.053826" lon="-7.434859">
        <ele>377.023</ele>
        <time>2010-01-01T00:48:40Z</time>
      </trkpt>
      <trkpt lat="40.053699" lon="-7.435094">
        <ele>377.031</ele>
        <time>2010-01-01T00:48:49Z</time>
      </trkpt>
      <trkpt lat="40.053523" lon="-7.434997">
        <ele>376.019</ele>
        <time>2010-01-01T00:48:57Z</time>
      </trkpt>
      <trkpt lat="40.053173" lon="-7.434791">
        <ele>375.009</ele>
        <time>2010-01-01T00:49:12Z</time>
      </trkpt>
      <trkpt lat="40.052854" lon="-7.434666">
        <ele>374.019</ele>
        <time>2010-01-01T00:49:25Z</time>
      </trkpt>
      <trkpt lat="40.052584" lon="-7.434538">
        <ele>372.008</ele>
        <time>2010-01-01T00:49:37Z</time>
      </trkpt>
      <trkpt lat="40.052166" lon="-7.434580">
        <ele>371.084</ele>
        <time>2010-01-01T00:49:54Z</time>
      </trkpt>
      <trkpt lat="40.052092" lon="-7.434558">
        <ele>371.077</ele>
        <time>2010-01-01T00:49:57Z</time>
      </trkpt>
      <trkpt lat="40.051749" lon="-7.434434">
        <ele>370.060</ele>
        <time>2010-01-01T00:50:11Z</time>
      </trkpt>
      <trkpt lat="40.051518" lon="-7.434159">
        <ele>369.048</ele>
        <time>2010-01-01T00:50:23Z</time>
      </trkpt>
      <trkpt lat="40.051394" lon="-7.433760">
        <ele>369.085</ele>
        <time>2010-01-01T00:50:37Z</time>
      </trkpt>
      <trkpt lat="40.051364" lon="-7.433454">
        <ele>370.084</ele>
        <time>2010-01-01T00:50:46Z</time>
      </trkpt>
      <trkpt lat="40.051255" lon="-7.433277">
        <ele>370.091</ele>
        <time>2010-01-01T00:50:53Z</time>
      </trkpt>
      <trkpt lat="40.050932" lon="-7.433268">
        <ele>368.079</ele>
        <time>2010-01-01T00:51:06Z</time>
      </trkpt>
      <trkpt lat="40.050838" lon="-7.433179">
        <ele>368.089</ele>
        <time>2010-01-01T00:51:11Z</time>
      </trkpt>
      <trkpt lat="40.050823" lon="-7.432769">
        <ele>368.006</ele>
        <time>2010-01-01T00:51:23Z</time>
      </trkpt>
      <trkpt lat="40.050843" lon="-7.432378">
        <ele>369.026</ele>
        <time>2010-01-01T00:51:35Z</time>
      </trkpt>
      <trkpt lat="40.050842" lon="-7.431941">
        <ele>369.008</ele>
        <time>2010-01-01T00:51:49Z</time>
      </trkpt>
      <trkpt lat="40.050771" lon="-7.431250">
        <ele>368.051</ele>
        <time>2010-01-01T00:52:10Z</time>
      </trkpt>
      <trkpt lat="40.050795" lon="-7.430967">
        <ele>368.074</ele>
        <time>2010-01-01T00:52:19Z</time>
      </trkpt>
      <trkpt lat="40.050643" lon="-7.430773">
        <ele>367.057</ele>
        <time>2010-01-01T00:52:27Z</time>
      </trkpt>
      <trkpt lat="40.050619" lon="-7.430368">
        <ele>366.055</ele>
        <time>2010-01-01T00:52:40Z</time>
      </trkpt>
      <trkpt lat="40.050621" lon="-7.429765">
        <ele>363.022</ele>
        <time>2010-01-01T00:52:58Z</time>
      </trkpt>
      <trkpt lat="40.050290" lon="-7.429320">
        <ele>362.051</ele>
        <time>2010-01-01T00:53:17Z</time>
      </trkpt>
      <trkpt lat="40.050181" lon="-7.429230">
        <ele>362.078</ele>
        <time>2010-01-01T00:53:22Z</time>
      </trkpt>
      <trkpt lat="40.049678" lon="-7.429255">
        <ele>364.076</ele>
        <time>2010-01-01T00:53:42Z</time>
      </trkpt>
      <trkpt lat="40.049294" lon="-7.429264">
        <ele>365.094</ele>
        <time>2010-01-01T00:53:58Z</time>
      </trkpt>
      <trkpt lat="40.049138" lon="-7.428761">
        <ele>365.057</ele>
        <time>2010-01-01T00:54:14Z</time>
      </trkpt>
      <trkpt lat="40.049029" lon="-7.428611">
        <ele>365.022</ele>
        <time>2010-01-01T00:54:21Z</time>
      </trkpt>
      <trkpt lat="40.048851" lon="-7.428453">
        <ele>365.008</ele>
        <time>2010-01-01T00:54:29Z</time>
      </trkpt>
      <trkpt lat="40.048728" lon="-7.428380">
        <ele>366.072</ele>
        <time>2010-01-01T00:54:35Z</time>
      </trkpt>
      <trkpt lat="40.048728" lon="-7.428268">
        <ele>367.045</ele>
        <time>2010-01-01T00:54:38Z</time>
      </trkpt>
      <trkpt lat="40.048893" lon="-7.427820">
        <ele>367.018</ele>
        <time>2010-01-01T00:54:54Z</time>
      </trkpt>
      <trkpt lat="40.049004" lon="-7.427360">
        <ele>366.046</ele>
        <time>2010-01-01T00:55:08Z</time>
      </trkpt>
      <trkpt lat="40.049037" lon="-7.426758">
        <ele>366.023</ele>
        <time>2010-01-01T00:55:27Z</time>
      </trkpt>
      <trkpt lat="40.049037" lon="-7.425955">
        <ele>364.012</ele>
        <time>2010-01-01T00:55:51Z</time>
      </trkpt>
      <trkpt lat="40.049020" lon="-7.425208">
        <ele>365.099</ele>
        <time>2010-01-01T00:56:14Z</time>
      </trkpt>
      <trkpt lat="40.048911" lon="-7.424853">
        <ele>366.087</ele>
        <time>2010-01-01T00:56:26Z</time>
      </trkpt>
      <trkpt lat="40.048722" lon="-7.424533">
        <ele>366.058</ele>
        <time>2010-01-01T00:56:38Z</time>
      </trkpt>
      <trkpt lat="40.048642" lon="-7.424336">
        <ele>366.052</ele>
        <time>2010-01-01T00:56:45Z</time>
      </trkpt>
      <trkpt lat="40.048518" lon="-7.424015">
        <ele>367.017</ele>
        <time>2010-01-01T00:56:56Z</time>
      </trkpt>
      <trkpt lat="40.048398" lon="-7.423464">
        <ele>367.008</ele>
        <time>2010-01-01T00:57:14Z</time>
      </trkpt>
      <trkpt lat="40.048311" lon="-7.423155">
        <ele>368.068</ele>
        <time>2010-01-01T00:57:24Z</time>
      </trkpt>
      <trkpt lat="40.048180" lon="-7.422815">
        <ele>369.011</ele>
        <time>2010-01-01T00:57:36Z</time>
      </trkpt>
      <trkpt lat="40.048131" lon="-7.422708">
        <ele>369.054</ele>
        <time>2010-01-01T00:57:39Z</time>
      </trkpt>
      <trkpt lat="40.047875" lon="-7.422326">
        <ele>373.072</ele>
        <time>2010-01-01T00:57:55Z</time>
      </trkpt>
      <trkpt lat="40.047766" lon="-7.422123">
        <ele>373.019</ele>
        <time>2010-01-01T00:58:03Z</time>
      </trkpt>
      <trkpt lat="40.047701" lon="-7.421926">
        <ele>373.058</ele>
        <time>2010-01-01T00:58:09Z</time>
      </trkpt>
      <trkpt lat="40.047656" lon="-7.421386">
        <ele>374.075</ele>
        <time>2010-01-01T00:58:26Z</time>
      </trkpt>
      <trkpt lat="40.047640" lon="-7.421190">
        <ele>375.083</ele>
        <time>2010-01-01T00:58:32Z</time>
      </trkpt>
      <trkpt lat="40.047994" lon="-7.420916">
        <ele>372.073</ele>
        <time>2010-01-01T00:58:48Z</time>
      </trkpt>
      <trkpt lat="40.048509" lon="-7.420618">
        <ele>370.085</ele>
        <time>2010-01-01T00:59:11Z</time>
      </trkpt>
      <trkpt lat="40.048961" lon="-7.420426">
        <ele>368.013</ele>
        <time>2010-01-01T00:59:30Z</time>
      </trkpt>
      <trkpt lat="40.049163" lon="-7.420332">
        <ele>366.008</ele>
        <time>2010-01-01T00:59:38Z</time>
      </trkpt>
      <trkpt lat="40.049611" lon="-7.419796">
        <ele>366.080</ele>
        <time>2010-01-01T01:00:03Z</time>
      </trkpt>
      <trkpt lat="40.049905" lon="-7.419419">
        <ele>365.033</ele>
        <time>2010-01-01T01:00:19Z</time>
      </trkpt>
      <trkpt lat="40.050214" lon="-7.419020">
        <ele>364.076</ele>
        <time>2010-01-01T01:00:37Z</time>
      </trkpt>
      <trkpt lat="40.050551" lon="-7.418440">
        <ele>363.094</ele>
        <time>2010-01-01T01:00:59Z</time>
      </trkpt>
      <trkpt lat="40.050681" lon="-7.417940">
        <ele>363.091</ele>
        <time>2010-01-01T01:01:15Z</time>
      </trkpt>
      <trkpt lat="40.050872" lon="-7.417528">
        <ele>363.020</ele>
        <time>2010-01-01T01:01:30Z</time>
      </trkpt>
      <trkpt lat="40.050868" lon="-7.417358">
        <ele>363.087</ele>
        <time>2010-01-01T01:01:35Z</time>
      </trkpt>
      <trkpt lat="40.051018" lon="-7.417106">
        <ele>362.025</ele>
        <time>2010-01-01T01:01:45Z</time>
      </trkpt>
      <trkpt lat="40.051295" lon="-7.416835">
        <ele>361.034</ele>
        <time>2010-01-01T01:01:59Z</time>
      </trkpt>
      <trkpt lat="40.051506" lon="-7.416774">
        <ele>361.055</ele>
        <time>2010-01-01T01:02:07Z</time>
      </trkpt>
      <trkpt lat="40.051612" lon="-7.416891">
        <ele>361.010</ele>
        <time>2010-01-01T01:02:13Z</time>
      </trkpt>
      <trkpt lat="40.051769" lon="-7.416946">
        <ele>361.008</ele>
        <time>2010-01-01T01:02:19Z</time>
      </trkpt>
      <trkpt lat="40.051914" lon="-7.416857">
        <ele>361.096</ele>
        <time>2010-01-01T01:02:26Z</time>
      </trkpt>
      <trkpt lat="40.052050" lon="-7.416670">
        <ele>361.049</ele>
        <time>2010-01-01T01:02:34Z</time>
      </trkpt>
      <trkpt lat="40.052384" lon="-7.416283">
        <ele>363.012</ele>
        <time>2010-01-01T01:02:52Z</time>
      </trkpt>
      <trkpt lat="40.052513" lon="-7.416204">
        <ele>364.070</ele>
        <time>2010-01-01T01:02:57Z</time>
      </trkpt>
      <trkpt lat="40.052353" lon="-7.415431">
        <ele>366.047</ele>
        <time>2010-01-01T01:03:22Z</time>
      </trkpt>
      <trkpt lat="40.052100" lon="-7.415007">
        <ele>367.016</ele>
        <time>2010-01-01T01:03:38Z</time>
      </trkpt>
      <trkpt lat="40.051683" lon="-7.414347">
        <ele>361.013</ele>
        <time>2010-01-01T01:04:05Z</time>
      </trkpt>
      <trkpt lat="40.051432" lon="-7.413926">
        <ele>364.031</ele>
        <time>2010-01-01T01:04:21Z</time>
      </trkpt>
      <trkpt lat="40.051019" lon="-7.413779">
        <ele>363.087</ele>
        <time>2010-01-01T01:04:38Z</time>
      </trkpt>
      <trkpt lat="40.050905" lon="-7.413640">
        <ele>363.042</ele>
        <time>2010-01-01T01:04:44Z</time>
      </trkpt>
      <trkpt lat="40.050697" lon="-7.413272">
        <ele>362.026</ele>
        <time>2010-01-01T01:04:58Z</time>
      </trkpt>
      <trkpt lat="40.050462" lon="-7.412647">
        <ele>363.008</ele>
        <time>2010-01-01T01:05:20Z</time>
      </trkpt>
      <trkpt lat="40.050305" lon="-7.412300">
        <ele>363.071</ele>
        <time>2010-01-01T01:05:32Z</time>
      </trkpt>
      <trkpt lat="40.050028" lon="-7.412009">
        <ele>362.034</ele>
        <time>2010-01-01T01:05:46Z</time>
      </trkpt>
      <trkpt lat="40.049661" lon="-7.411395">
        <ele>360.077</ele>
        <time>2010-01-01T01:06:10Z</time>
      </trkpt>
      <trkpt lat="40.049302" lon="-7.410799">
        <ele>358.065</ele>
        <time>2010-01-01T01:06:33Z</time>
      </trkpt>
      <trkpt lat="40.048939" lon="-7.410170">
        <ele>358.092</ele>
        <time>2010-01-01T01:06:58Z</time>
      </trkpt>
      <trkpt lat="40.048655" lon="-7.409666">
        <ele>357.091</ele>
        <time>2010-01-01T01:07:17Z</time>
      </trkpt>
      <trkpt lat="40.049052" lon="-7.408991">
        <ele>360.038</ele>
        <time>2010-01-01T01:07:43Z</time>
      </trkpt>
      <trkpt lat="40.049312" lon="-7.408656">
        <ele>362.086</ele>
        <time>2010-01-01T01:07:57Z</time>
      </trkpt>
      <trkpt lat="40.049557" lon="-7.408209">
        <ele>366.057</ele>
        <time>2010-01-01T01:08:14Z</time>
      </trkpt>
      <trkpt lat="40.049940" lon="-7.407582">
        <ele>374.000</ele>
        <time>2010-01-01T01:08:39Z</time>
      </trkpt>
      <trkpt lat="40.050241" lon="-7.406906">
        <ele>378.020</ele>
        <time>2010-01-01T01:09:03Z</time>
      </trkpt>
      <trkpt lat="40.050372" lon="-7.406717">
        <ele>380.008</ele>
        <time>2010-01-01T01:09:11Z</time>
      </trkpt>
      <trkpt lat="40.050410" lon="-7.406289">
        <ele>378.098</ele>
        <time>2010-01-01T01:09:24Z</time>
      </trkpt>
      <trkpt lat="40.050342" lon="-7.405456">
        <ele>375.031</ele>
        <time>2010-01-01T01:09:49Z</time>
      </trkpt>
      <trkpt lat="40.050314" lon="-7.405044">
        <ele>375.094</ele>
        <time>2010-01-01T01:10:02Z</time>
      </trkpt>
      <trkpt lat="40.050252" lon="-7.404833">
        <ele>373.072</ele>
        <time>2010-01-01T01:10:09Z</time>
      </trkpt>
      <trkpt lat="40.050298" lon="-7.404480">
        <ele>370.049</ele>
        <time>2010-01-01T01:10:20Z</time>
      </trkpt>
      <trkpt lat="40.050333" lon="-7.403581">
        <ele>367.038</ele>
        <time>2010-01-01T01:10:48Z</time>
      </trkpt>
      <trkpt lat="40.050472" lon="-7.402827">
        <ele>363.075</ele>
        <time>2010-01-01T01:11:11Z</time>
      </trkpt>
      <trkpt lat="40.050517" lon="-7.402411">
        <ele>360.083</ele>
        <time>2010-01-01T01:11:24Z</time>
      </trkpt>
      <trkpt lat="40.050608" lon="-7.401806">
        <ele>358.094</ele>
        <time>2010-01-01T01:11:43Z</time>
      </trkpt>
      <trkpt lat="40.050676" lon="-7.401325">
        <ele>359.057</ele>
        <time>2010-01-01T01:11:58Z</time>
      </trkpt>
      <trkpt lat="40.050642" lon="-7.401147">
        <ele>359.022</ele>
        <time>2010-01-01T01:12:04Z</time>
      </trkpt>
      <trkpt lat="40.050476" lon="-7.401057">
        <ele>358.008</ele>
        <time>2010-01-01T01:12:11Z</time>
      </trkpt>
      <trkpt lat="40.050296" lon="-7.400505">
        <ele>358.092</ele>
        <time>2010-01-01T01:12:29Z</time>
      </trkpt>
      <trkpt lat="40.050196" lon="-7.400286">
        <ele>358.035</ele>
        <time>2010-01-01T01:12:37Z</time>
      </trkpt>
      <trkpt lat="40.050081" lon="-7.400156">
        <ele>357.078</ele>
        <time>2010-01-01T01:12:43Z</time>
      </trkpt>
      <trkpt lat="40.049877" lon="-7.400102">
        <ele>357.086</ele>
        <time>2010-01-01T01:12:52Z</time>
      </trkpt>
      <trkpt lat="40.049450" lon="-7.399995">
        <ele>357.073</ele>
        <time>2010-01-01T01:13:09Z</time>
      </trkpt>
      <trkpt lat="40.049366" lon="-7.399999">
        <ele>357.042</ele>
        <time>2010-01-01T01:13:12Z</time>
      </trkpt>
      <trkpt lat="40.049341" lon="-7.399817">
        <ele>358.049</ele>
        <time>2010-01-01T01:13:18Z</time>
      </trkpt>
      <trkpt lat="40.049476" lon="-7.398887">
        <ele>362.027</ele>
        <time>2010-01-01T01:13:47Z</time>
      </trkpt>
      <trkpt lat="40.049390" lon="-7.397368">
        <ele>367.068</ele>
        <time>2010-01-01T01:14:34Z</time>
      </trkpt>
      <trkpt lat="40.049415" lon="-7.396285">
        <ele>371.042</ele>
        <time>2010-01-01T01:15:07Z</time>
      </trkpt>
      <trkpt lat="40.049455" lon="-7.395608">
        <ele>367.026</ele>
        <time>2010-01-01T01:15:28Z</time>
      </trkpt>
      <trkpt lat="40.049374" lon="-7.395008">
        <ele>366.008</ele>
        <time>2010-01-01T01:15:46Z</time>
      </trkpt>
      <trkpt lat="40.049117" lon="-7.393903">
        <ele>363.019</ele>
        <time>2010-01-01T01:16:22Z</time>
      </trkpt>
      <trkpt lat="40.049066" lon="-7.393668">
        <ele>362.022</ele>
        <time>2010-01-01T01:16:29Z</time>
      </trkpt>
      <trkpt lat="40.049019" lon="-7.393135">
        <ele>361.045</ele>
        <time>2010-01-01T01:16:46Z</time>
      </trkpt>
      <trkpt lat="40.049042" lon="-7.392637">
        <ele>360.083</ele>
        <time>2010-01-01T01:17:01Z</time>
      </trkpt>
      <trkpt lat="40.049311" lon="-7.391604">
        <ele>358.030</ele>
        <time>2010-01-01T01:17:34Z</time>
      </trkpt>
      <trkpt lat="40.049343" lon="-7.391439">
        <ele>358.049</ele>
        <time>2010-01-01T01:17:40Z</time>
      </trkpt>
      <trkpt lat="40.049494" lon="-7.391265">
        <ele>357.056</ele>
        <time>2010-01-01T01:17:48Z</time>
      </trkpt>
      <trkpt lat="40.049701" lon="-7.390758">
        <ele>358.034</ele>
        <time>2010-01-01T01:18:05Z</time>
      </trkpt>
      <trkpt lat="40.049686" lon="-7.390231">
        <ele>359.027</ele>
        <time>2010-01-01T01:18:21Z</time>
      </trkpt>
      <trkpt lat="40.049822" lon="-7.389962">
        <ele>361.068</ele>
        <time>2010-01-01T01:18:31Z</time>
      </trkpt>
      <trkpt lat="40.049976" lon="-7.389782">
        <ele>363.014</ele>
        <time>2010-01-01T01:18:40Z</time>
      </trkpt>
      <trkpt lat="40.050241" lon="-7.389322">
        <ele>365.008</ele>
        <time>2010-01-01T01:18:57Z</time>
      </trkpt>
      <trkpt lat="40.050358" lon="-7.389048">
        <ele>367.045</ele>
        <time>2010-01-01T01:19:07Z</time>
      </trkpt>
      <trkpt lat="40.050409" lon="-7.388568">
        <ele>369.018</ele>
        <time>2010-01-01T01:19:22Z</time>
      </trkpt>
      <trkpt lat="40.050279" lon="-7.388070">
        <ele>368.021</ele>
        <time>2010-01-01T01:19:38Z</time>
      </trkpt>
      <trkpt lat="40.050093" lon="-7.387668">
        <ele>368.019</ele>
        <time>2010-01-01T01:19:52Z</time>
      </trkpt>
      <trkpt lat="40.049931" lon="-7.387311">
        <ele>368.026</ele>
        <time>2010-01-01T01:20:05Z</time>
      </trkpt>
      <trkpt lat="40.049629" lon="-7.386529">
        <ele>369.075</ele>
        <time>2010-01-01T01:20:32Z</time>
      </trkpt>
      <trkpt lat="40.049463" lon="-7.385957">
        <ele>369.082</ele>
        <time>2010-01-01T01:20:51Z</time>
      </trkpt>
      <trkpt lat="40.049403" lon="-7.385522">
        <ele>366.090</ele>
        <time>2010-01-01T01:21:04Z</time>
      </trkpt>
      <trkpt lat="40.049345" lon="-7.385196">
        <ele>364.081</ele>
        <time>2010-01-01T01:21:14Z</time>
      </trkpt>
      <trkpt lat="40.049375" lon="-7.384813">
        <ele>363.061</ele>
        <time>2010-01-01T01:21:26Z</time>
      </trkpt>
      <trkpt lat="40.049518" lon="-7.384107">
        <ele>362.017</ele>
        <time>2010-01-01T01:21:49Z</time>
      </trkpt>
      <trkpt lat="40.049553" lon="-7.383647">
        <ele>362.008</ele>
        <time>2010-01-01T01:22:03Z</time>
      </trkpt>
      <trkpt lat="40.049420" lon="-7.383320">
        <ele>358.091</ele>
        <time>2010-01-01T01:22:14Z</time>
      </trkpt>
      <trkpt lat="40.049169" lon="-7.382917">
        <ele>355.064</ele>
        <time>2010-01-01T01:22:30Z</time>
      </trkpt>
      <trkpt lat="40.049081" lon="-7.382542">
        <ele>354.037</ele>
        <time>2010-01-01T01:22:42Z</time>
      </trkpt>
      <trkpt lat="40.048909" lon="-7.382159">
        <ele>353.065</ele>
        <time>2010-01-01T01:22:56Z</time>
      </trkpt>
      <trkpt lat="40.048772" lon="-7.382063">
        <ele>353.092</ele>
        <time>2010-01-01T01:23:02Z</time>
      </trkpt>
      <trkpt lat="40.048656" lon="-7.381985">
        <ele>353.041</ele>
        <time>2010-01-01T01:23:07Z</time>
      </trkpt>
      <trkpt lat="40.048553" lon="-7.381828">
        <ele>354.018</ele>
        <time>2010-01-01T01:23:13Z</time>
      </trkpt>
      <trkpt lat="40.048478" lon="-7.381697">
        <ele>354.026</ele>
        <time>2010-01-01T01:23:18Z</time>
      </trkpt>
      <trkpt lat="40.048450" lon="-7.381542">
        <ele>354.035</ele>
        <time>2010-01-01T01:23:23Z</time>
      </trkpt>
      <trkpt lat="40.048601" lon="-7.381313">
        <ele>355.086</ele>
        <time>2010-01-01T01:23:32Z</time>
      </trkpt>
      <trkpt lat="40.048669" lon="-7.380999">
        <ele>356.014</ele>
        <time>2010-01-01T01:23:42Z</time>
      </trkpt>
      <trkpt lat="40.048853" lon="-7.380796">
        <ele>356.008</ele>
        <time>2010-01-01T01:23:52Z</time>
      </trkpt>
      <trkpt lat="40.048851" lon="-7.380490">
        <ele>358.096</ele>
        <time>2010-01-01T01:24:02Z</time>
      </trkpt>
      <trkpt lat="40.048906" lon="-7.380102">
        <ele>361.089</ele>
        <time>2010-01-01T01:24:14Z</time>
      </trkpt>
      <trkpt lat="40.048974" lon="-7.379984">
        <ele>363.052</ele>
        <time>2010-01-01T01:24:18Z</time>
      </trkpt>
      <trkpt lat="40.049249" lon="-7.379715">
        <ele>366.040</ele>
        <time>2010-01-01T01:24:32Z</time>
      </trkpt>
      <trkpt lat="40.049318" lon="-7.379402">
        <ele>368.047</ele>
        <time>2010-01-01T01:24:42Z</time>
      </trkpt>
      <trkpt lat="40.049352" lon="-7.378476">
        <ele>371.046</ele>
        <time>2010-01-01T01:25:10Z</time>
      </trkpt>
      <trkpt lat="40.049289" lon="-7.378066">
        <ele>371.043</ele>
        <time>2010-01-01T01:25:23Z</time>
      </trkpt>
      <trkpt lat="40.049231" lon="-7.377504">
        <ele>371.081</ele>
        <time>2010-01-01T01:25:40Z</time>
      </trkpt>
      <trkpt lat="40.049176" lon="-7.376624">
        <ele>376.079</ele>
        <time>2010-01-01T01:26:08Z</time>
      </trkpt>
      <trkpt lat="40.049048" lon="-7.376210">
        <ele>378.005</ele>
        <time>2010-01-01T01:26:21Z</time>
      </trkpt>
      <trkpt lat="40.048866" lon="-7.375849">
        <ele>380.025</ele>
        <time>2010-01-01T01:26:34Z</time>
      </trkpt>
      <trkpt lat="40.048848" lon="-7.375630">
        <ele>381.008</ele>
        <time>2010-01-01T01:26:41Z</time>
      </trkpt>
      <trkpt lat="40.048949" lon="-7.374960">
        <ele>383.050</ele>
        <time>2010-01-01T01:27:02Z</time>
      </trkpt>
      <trkpt lat="40.049135" lon="-7.374789">
        <ele>383.063</ele>
        <time>2010-01-01T01:27:11Z</time>
      </trkpt>
      <trkpt lat="40.049452" lon="-7.374392">
        <ele>383.066</ele>
        <time>2010-01-01T01:27:29Z</time>
      </trkpt>
      <trkpt lat="40.050195" lon="-7.373462">
        <ele>384.094</ele>
        <time>2010-01-01T01:28:10Z</time>
      </trkpt>
      <trkpt lat="40.050200" lon="-7.373406">
        <ele>384.031</ele>
        <time>2010-01-01T01:28:12Z</time>
      </trkpt>
      <trkpt lat="40.050070" lon="-7.372886">
        <ele>385.080</ele>
        <time>2010-01-01T01:28:29Z</time>
      </trkpt>
      <trkpt lat="40.049950" lon="-7.372617">
        <ele>385.067</ele>
        <time>2010-01-01T01:28:38Z</time>
      </trkpt>
      <trkpt lat="40.049650" lon="-7.372266">
        <ele>385.065</ele>
        <time>2010-01-01T01:28:54Z</time>
      </trkpt>
      <trkpt lat="40.049519" lon="-7.372048">
        <ele>385.055</ele>
        <time>2010-01-01T01:29:03Z</time>
      </trkpt>
      <trkpt lat="40.049471" lon="-7.371572">
        <ele>386.007</ele>
        <time>2010-01-01T01:29:17Z</time>
      </trkpt>
      <trkpt lat="40.049442" lon="-7.371392">
        <ele>386.017</ele>
        <time>2010-01-01T01:29:23Z</time>
      </trkpt>
      <trkpt lat="40.049588" lon="-7.370750">
        <ele>386.008</ele>
        <time>2010-01-01T01:29:44Z</time>
      </trkpt>
      <trkpt lat="40.049577" lon="-7.370395">
        <ele>384.028</ele>
        <time>2010-01-01T01:29:54Z</time>
      </trkpt>
      <trkpt lat="40.049659" lon="-7.369692">
        <ele>381.081</ele>
        <time>2010-01-01T01:30:16Z</time>
      </trkpt>
      <trkpt lat="40.049739" lon="-7.369313">
        <ele>379.094</ele>
        <time>2010-01-01T01:30:28Z</time>
      </trkpt>
      <trkpt lat="40.049979" lon="-7.368712">
        <ele>380.062</ele>
        <time>2010-01-01T01:30:49Z</time>
      </trkpt>
      <trkpt lat="40.050785" lon="-7.368378">
        <ele>384.069</ele>
        <time>2010-01-01T01:31:23Z</time>
      </trkpt>
      <trkpt lat="40.050750" lon="-7.368148">
        <ele>383.038</ele>
        <time>2010-01-01T01:31:30Z</time>
      </trkpt>
      <trkpt lat="40.050364" lon="-7.367461">
        <ele>380.075</ele>
        <time>2010-01-01T01:31:56Z</time>
      </trkpt>
      <trkpt lat="40.050182" lon="-7.367034">
        <ele>382.083</ele>
        <time>2010-01-01T01:32:11Z</time>
      </trkpt>
      <trkpt lat="40.050082" lon="-7.366353">
        <ele>381.094</ele>
        <time>2010-01-01T01:32:32Z</time>
      </trkpt>
      <trkpt lat="40.049892" lon="-7.366133">
        <ele>381.057</ele>
        <time>2010-01-01T01:32:43Z</time>
      </trkpt>
      <trkpt lat="40.049768" lon="-7.365965">
        <ele>381.022</ele>
        <time>2010-01-01T01:32:50Z</time>
      </trkpt>
      <trkpt lat="40.049686" lon="-7.365490">
        <ele>379.008</ele>
        <time>2010-01-01T01:33:05Z</time>
      </trkpt>
      <trkpt lat="40.049686" lon="-7.364969">
        <ele>379.032</ele>
        <time>2010-01-01T01:33:21Z</time>
      </trkpt>
      <trkpt lat="40.049655" lon="-7.364534">
        <ele>379.035</ele>
        <time>2010-01-01T01:33:34Z</time>
      </trkpt>
      <trkpt lat="40.049487" lon="-7.364321">
        <ele>378.028</ele>
        <time>2010-01-01T01:33:43Z</time>
      </trkpt>
      <trkpt lat="40.049261" lon="-7.363939">
        <ele>377.026</ele>
        <time>2010-01-01T01:33:58Z</time>
      </trkpt>
      <trkpt lat="40.049026" lon="-7.364092">
        <ele>376.013</ele>
        <time>2010-01-01T01:34:09Z</time>
      </trkpt>
      <trkpt lat="40.048676" lon="-7.364221">
        <ele>374.072</ele>
        <time>2010-01-01T01:34:23Z</time>
      </trkpt>
      <trkpt lat="40.048343" lon="-7.364511">
        <ele>373.089</ele>
        <time>2010-01-01T01:34:39Z</time>
      </trkpt>
      <trkpt lat="40.048151" lon="-7.364661">
        <ele>372.087</ele>
        <time>2010-01-01T01:34:48Z</time>
      </trkpt>
      <trkpt lat="40.047881" lon="-7.364766">
        <ele>373.024</ele>
        <time>2010-01-01T01:34:59Z</time>
      </trkpt>
      <trkpt lat="40.047791" lon="-7.365026">
        <ele>375.004</ele>
        <time>2010-01-01T01:35:08Z</time>
      </trkpt>
      <trkpt lat="40.047633" lon="-7.364910">
        <ele>374.014</ele>
        <time>2010-01-01T01:35:15Z</time>
      </trkpt>
      <trkpt lat="40.047493" lon="-7.364698">
        <ele>372.008</ele>
        <time>2010-01-01T01:35:24Z</time>
      </trkpt>
      <trkpt lat="40.046991" lon="-7.364712">
        <ele>370.055</ele>
        <time>2010-01-01T01:35:44Z</time>
      </trkpt>
      <trkpt lat="40.046652" lon="-7.364785">
        <ele>370.028</ele>
        <time>2010-01-01T01:35:58Z</time>
      </trkpt>
      <trkpt lat="40.046350" lon="-7.364688">
        <ele>368.041</ele>
        <time>2010-01-01T01:36:10Z</time>
      </trkpt>
      <trkpt lat="40.046106" lon="-7.364426">
        <ele>366.029</ele>
        <time>2010-01-01T01:36:23Z</time>
      </trkpt>
      <trkpt lat="40.045518" lon="-7.364120">
        <ele>365.016</ele>
        <time>2010-01-01T01:36:48Z</time>
      </trkpt>
      <trkpt lat="40.045318" lon="-7.364024">
        <ele>365.015</ele>
        <time>2010-01-01T01:36:57Z</time>
      </trkpt>
      <trkpt lat="40.045235" lon="-7.363885">
        <ele>364.092</ele>
        <time>2010-01-01T01:37:02Z</time>
      </trkpt>
      <trkpt lat="40.045238" lon="-7.363600">
        <ele>364.010</ele>
        <time>2010-01-01T01:37:11Z</time>
      </trkpt>
      <trkpt lat="40.045209" lon="-7.363335">
        <ele>364.075</ele>
        <time>2010-01-01T01:37:19Z</time>
      </trkpt>
      <trkpt lat="40.045066" lon="-7.362914">
        <ele>366.028</ele>
        <time>2010-01-01T01:37:33Z</time>
      </trkpt>
      <trkpt lat="40.044764" lon="-7.362565">
        <ele>367.020</ele>
        <time>2010-01-01T01:37:49Z</time>
      </trkpt>
      <trkpt lat="40.044500" lon="-7.362285">
        <ele>365.008</ele>
        <time>2010-01-01T01:38:03Z</time>
      </trkpt>
      <trkpt lat="40.044341" lon="-7.362079">
        <ele>365.010</ele>
        <time>2010-01-01T01:38:12Z</time>
      </trkpt>
      <trkpt lat="40.044306" lon="-7.361931">
        <ele>365.083</ele>
        <time>2010-01-01T01:38:17Z</time>
      </trkpt>
      <trkpt lat="40.044325" lon="-7.361792">
        <ele>365.016</ele>
        <time>2010-01-01T01:38:21Z</time>
      </trkpt>
      <trkpt lat="40.044111" lon="-7.361426">
        <ele>366.064</ele>
        <time>2010-01-01T01:38:35Z</time>
      </trkpt>
      <trkpt lat="40.044009" lon="-7.361257">
        <ele>367.081</ele>
        <time>2010-01-01T01:38:42Z</time>
      </trkpt>
      <trkpt lat="40.043977" lon="-7.360992">
        <ele>368.080</ele>
        <time>2010-01-01T01:38:50Z</time>
      </trkpt>
      <trkpt lat="40.043920" lon="-7.360730">
        <ele>370.097</ele>
        <time>2010-01-01T01:38:58Z</time>
      </trkpt>
      <trkpt lat="40.043850" lon="-7.360288">
        <ele>374.055</ele>
        <time>2010-01-01T01:39:12Z</time>
      </trkpt>
      <trkpt lat="40.043846" lon="-7.359735">
        <ele>376.059</ele>
        <time>2010-01-01T01:39:29Z</time>
      </trkpt>
      <trkpt lat="40.043849" lon="-7.359479">
        <ele>377.003</ele>
        <time>2010-01-01T01:39:37Z</time>
      </trkpt>
      <trkpt lat="40.043901" lon="-7.359168">
        <ele>378.023</ele>
        <time>2010-01-01T01:39:47Z</time>
      </trkpt>
      <trkpt lat="40.043921" lon="-7.359019">
        <ele>379.008</ele>
        <time>2010-01-01T01:39:51Z</time>
      </trkpt>
      <trkpt lat="40.043900" lon="-7.358646">
        <ele>380.018</ele>
        <time>2010-01-01T01:40:03Z</time>
      </trkpt>
      <trkpt lat="40.043896" lon="-7.358239">
        <ele>381.061</ele>
        <time>2010-01-01T01:40:15Z</time>
      </trkpt>
      <trkpt lat="40.043971" lon="-7.357688">
        <ele>381.084</ele>
        <time>2010-01-01T01:40:32Z</time>
      </trkpt>
      <trkpt lat="40.043698" lon="-7.357525">
        <ele>380.092</ele>
        <time>2010-01-01T01:40:45Z</time>
      </trkpt>
      <trkpt lat="40.043526" lon="-7.357489">
        <ele>379.019</ele>
        <time>2010-01-01T01:40:51Z</time>
      </trkpt>
      <trkpt lat="40.043338" lon="-7.357215">
        <ele>375.078</ele>
        <time>2010-01-01T01:41:03Z</time>
      </trkpt>
      <trkpt lat="40.043145" lon="-7.356957">
        <ele>373.055</ele>
        <time>2010-01-01T01:41:14Z</time>
      </trkpt>
      <trkpt lat="40.042986" lon="-7.356521">
        <ele>371.023</ele>
        <time>2010-01-01T01:41:29Z</time>
      </trkpt>
      <trkpt lat="40.042822" lon="-7.356245">
        <ele>371.033</ele>
        <time>2010-01-01T01:41:39Z</time>
      </trkpt>
      <trkpt lat="40.042664" lon="-7.355952">
        <ele>369.023</ele>
        <time>2010-01-01T01:41:50Z</time>
      </trkpt>
      <trkpt lat="40.042566" lon="-7.355568">
        <ele>369.015</ele>
        <time>2010-01-01T01:42:03Z</time>
      </trkpt>
      <trkpt lat="40.042203" lon="-7.354922">
        <ele>368.008</ele>
        <time>2010-01-01T01:42:27Z</time>
      </trkpt>
      <trkpt lat="40.041933" lon="-7.354529">
        <ele>371.056</ele>
        <time>2010-01-01T01:42:43Z</time>
      </trkpt>
      <trkpt lat="40.041595" lon="-7.353992">
        <ele>375.079</ele>
        <time>2010-01-01T01:43:05Z</time>
      </trkpt>
      <trkpt lat="40.041647" lon="-7.353626">
        <ele>375.052</ele>
        <time>2010-01-01T01:43:16Z</time>
      </trkpt>
      <trkpt lat="40.041633" lon="-7.353446">
        <ele>375.050</ele>
        <time>2010-01-01T01:43:22Z</time>
      </trkpt>
      <trkpt lat="40.041775" lon="-7.353014">
        <ele>373.067</ele>
        <time>2010-01-01T01:43:36Z</time>
      </trkpt>
      <trkpt lat="40.041982" lon="-7.352355">
        <ele>371.056</ele>
        <time>2010-01-01T01:43:58Z</time>
      </trkpt>
      <trkpt lat="40.041939" lon="-7.352028">
        <ele>370.033</ele>
        <time>2010-01-01T01:44:08Z</time>
      </trkpt>
      <trkpt lat="40.041865" lon="-7.351748">
        <ele>369.061</ele>
        <time>2010-01-01T01:44:17Z</time>
      </trkpt>
      <trkpt lat="40.041857" lon="-7.351421">
        <ele>369.021</ele>
        <time>2010-01-01T01:44:27Z</time>
      </trkpt>
      <trkpt lat="40.041491" lon="-7.350934">
        <ele>360.041</ele>
        <time>2010-01-01T01:44:48Z</time>
      </trkpt>
      <trkpt lat="40.041195" lon="-7.350505">
        <ele>355.005</ele>
        <time>2010-01-01T01:45:06Z</time>
      </trkpt>
      <trkpt lat="40.040926" lon="-7.349916">
        <ele>355.008</ele>
        <time>2010-01-01T01:45:27Z</time>
      </trkpt>
      <trkpt lat="40.040540" lon="-7.348893">
        <ele>353.085</ele>
        <time>2010-01-01T01:46:02Z</time>
      </trkpt>
      <trkpt lat="40.040287" lon="-7.348452">
        <ele>353.028</ele>
        <time>2010-01-01T01:46:19Z</time>
      </trkpt>
      <trkpt lat="40.040297" lon="-7.348142">
        <ele>351.071</ele>
        <time>2010-01-01T01:46:28Z</time>
      </trkpt>
      <trkpt lat="40.040043" lon="-7.347583">
        <ele>346.079</ele>
        <time>2010-01-01T01:46:48Z</time>
      </trkpt>
      <trkpt lat="40.039802" lon="-7.347005">
        <ele>340.056</ele>
        <time>2010-01-01T01:47:08Z</time>
      </trkpt>
      <trkpt lat="40.039605" lon="-7.346480">
        <ele>336.095</ele>
        <time>2010-01-01T01:47:26Z</time>
      </trkpt>
      <trkpt lat="40.039550" lon="-7.346178">
        <ele>334.042</ele>
        <time>2010-01-01T01:47:36Z</time>
      </trkpt>
      <trkpt lat="40.039497" lon="-7.345721">
        <ele>330.060</ele>
        <time>2010-01-01T01:47:50Z</time>
      </trkpt>
      <trkpt lat="40.039184" lon="-7.344914">
        <ele>325.076</ele>
        <time>2010-01-01T01:48:18Z</time>
      </trkpt>
      <trkpt lat="40.038970" lon="-7.344669">
        <ele>323.090</ele>
        <time>2010-01-01T01:48:29Z</time>
      </trkpt>
      <trkpt lat="40.038837" lon="-7.344514">
        <ele>321.019</ele>
        <time>2010-01-01T01:48:36Z</time>
      </trkpt>
      <trkpt lat="40.038024" lon="-7.344669">
        <ele>322.008</ele>
        <time>2010-01-01T01:49:09Z</time>
      </trkpt>
      <trkpt lat="40.037820" lon="-7.344627">
        <ele>323.070</ele>
        <time>2010-01-01T01:49:17Z</time>
      </trkpt>
      <trkpt lat="40.037578" lon="-7.343340">
        <ele>318.033</ele>
        <time>2010-01-01T01:49:58Z</time>
      </trkpt>
      <trkpt lat="40.037544" lon="-7.343007">
        <ele>317.086</ele>
        <time>2010-01-01T01:50:08Z</time>
      </trkpt>
      <trkpt lat="40.037549" lon="-7.341292">
        <ele>309.074</ele>
        <time>2010-01-01T01:51:01Z</time>
      </trkpt>
      <trkpt lat="40.037215" lon="-7.341076">
        <ele>307.011</ele>
        <time>2010-01-01T01:51:16Z</time>
      </trkpt>
      <trkpt lat="40.037073" lon="-7.340880">
        <ele>304.050</ele>
        <time>2010-01-01T01:51:24Z</time>
      </trkpt>
      <trkpt lat="40.036768" lon="-7.340045">
        <ele>303.047</ele>
        <time>2010-01-01T01:51:52Z</time>
      </trkpt>
      <trkpt lat="40.036874" lon="-7.339759">
        <ele>306.035</ele>
        <time>2010-01-01T01:52:02Z</time>
      </trkpt>
      <trkpt lat="40.037227" lon="-7.339167">
        <ele>308.086</ele>
        <time>2010-01-01T01:52:25Z</time>
      </trkpt>
      <trkpt lat="40.037142" lon="-7.338381">
        <ele>315.060</ele>
        <time>2010-01-01T01:52:49Z</time>
      </trkpt>
      <trkpt lat="40.036930" lon="-7.337054">
        <ele>316.026</ele>
        <time>2010-01-01T01:53:31Z</time>
      </trkpt>
      <trkpt lat="40.036732" lon="-7.335834">
        <ele>326.008</ele>
        <time>2010-01-01T01:54:09Z</time>
      </trkpt>
      <trkpt lat="40.036588" lon="-7.335422">
        <ele>327.021</ele>
        <time>2010-01-01T01:54:23Z</time>
      </trkpt>
      <trkpt lat="40.036280" lon="-7.334782">
        <ele>327.064</ele>
        <time>2010-01-01T01:54:46Z</time>
      </trkpt>
      <trkpt lat="40.036773" lon="-7.333841">
        <ele>333.097</ele>
        <time>2010-01-01T01:55:21Z</time>
      </trkpt>
      <trkpt lat="40.037273" lon="-7.333703">
        <ele>336.015</ele>
        <time>2010-01-01T01:55:42Z</time>
      </trkpt>
      <trkpt lat="40.037592" lon="-7.333542">
        <ele>339.042</ele>
        <time>2010-01-01T01:55:55Z</time>
      </trkpt>
      <trkpt lat="40.038275" lon="-7.333221">
        <ele>346.081</ele>
        <time>2010-01-01T01:56:24Z</time>
      </trkpt>
      <trkpt lat="40.038461" lon="-7.333070">
        <ele>350.078</ele>
        <time>2010-01-01T01:56:33Z</time>
      </trkpt>
      <trkpt lat="40.039136" lon="-7.332955">
        <ele>355.096</ele>
        <time>2010-01-01T01:57:00Z</time>
      </trkpt>
      <trkpt lat="40.039499" lon="-7.332790">
        <ele>358.038</ele>
        <time>2010-01-01T01:57:16Z</time>
      </trkpt>
      <trkpt lat="40.039647" lon="-7.332541">
        <ele>358.070</ele>
        <time>2010-01-01T01:57:25Z</time>
      </trkpt>
      <trkpt lat="40.039720" lon="-7.332151">
        <ele>360.017</ele>
        <time>2010-01-01T01:57:38Z</time>
      </trkpt>
      <trkpt lat="40.039655" lon="-7.331782">
        <ele>361.008</ele>
        <time>2010-01-01T01:57:49Z</time>
      </trkpt>
      <trkpt lat="40.039569" lon="-7.331570">
        <ele>362.076</ele>
        <time>2010-01-01T01:57:57Z</time>
      </trkpt>
      <trkpt lat="40.039926" lon="-7.330025">
        <ele>367.019</ele>
        <time>2010-01-01T01:58:46Z</time>
      </trkpt>
      <trkpt lat="40.040289" lon="-7.329811">
        <ele>370.022</ele>
        <time>2010-01-01T01:59:02Z</time>
      </trkpt>
      <trkpt lat="40.040424" lon="-7.329658">
        <ele>368.010</ele>
        <time>2010-01-01T01:59:09Z</time>
      </trkpt>
      <trkpt lat="40.040542" lon="-7.329119">
        <ele>362.027</ele>
        <time>2010-01-01T01:59:26Z</time>
      </trkpt>
      <trkpt lat="40.040637" lon="-7.328578">
        <ele>364.056</ele>
        <time>2010-01-01T01:59:43Z</time>
      </trkpt>
      <trkpt lat="40.040762" lon="-7.327828">
        <ele>364.063</ele>
        <time>2010-01-01T02:00:07Z</time>
      </trkpt>
      <trkpt lat="40.040896" lon="-7.327554">
        <ele>363.021</ele>
        <time>2010-01-01T02:00:17Z</time>
      </trkpt>
      <trkpt lat="40.041083" lon="-7.327106">
        <ele>364.075</ele>
        <time>2010-01-01T02:00:33Z</time>
      </trkpt>
      <trkpt lat="40.041266" lon="-7.326822">
        <ele>363.028</ele>
        <time>2010-01-01T02:00:44Z</time>
      </trkpt>
      <trkpt lat="40.041477" lon="-7.326539">
        <ele>361.020</ele>
        <time>2010-01-01T02:00:56Z</time>
      </trkpt>
      <trkpt lat="40.041761" lon="-7.326200">
        <ele>359.008</ele>
        <time>2010-01-01T02:01:11Z</time>
      </trkpt>
      <trkpt lat="40.041970" lon="-7.325933">
        <ele>357.020</ele>
        <time>2010-01-01T02:01:23Z</time>
      </trkpt>
      <trkpt lat="40.042332" lon="-7.325772">
        <ele>357.073</ele>
        <time>2010-01-01T02:01:38Z</time>
      </trkpt>
      <trkpt lat="40.042593" lon="-7.325543">
        <ele>356.046</ele>
        <time>2010-01-01T02:01:51Z</time>
      </trkpt>
      <trkpt lat="40.042753" lon="-7.325430">
        <ele>356.014</ele>
        <time>2010-01-01T02:01:58Z</time>
      </trkpt>
      <trkpt lat="40.043026" lon="-7.325383">
        <ele>356.011</ele>
        <time>2010-01-01T02:02:09Z</time>
      </trkpt>
      <trkpt lat="40.043511" lon="-7.325397">
        <ele>357.060</ele>
        <time>2010-01-01T02:02:29Z</time>
      </trkpt>
      <trkpt lat="40.043678" lon="-7.325386">
        <ele>357.017</ele>
        <time>2010-01-01T02:02:35Z</time>
      </trkpt>
      <trkpt lat="40.043697" lon="-7.325108">
        <ele>358.035</ele>
        <time>2010-01-01T02:02:44Z</time>
      </trkpt>
      <trkpt lat="40.043538" lon="-7.324696">
        <ele>360.014</ele>
        <time>2010-01-01T02:02:58Z</time>
      </trkpt>
      <trkpt lat="40.043417" lon="-7.324277">
        <ele>362.054</ele>
        <time>2010-01-01T02:03:12Z</time>
      </trkpt>
      <trkpt lat="40.043470" lon="-7.323906">
        <ele>364.009</ele>
        <time>2010-01-01T02:03:23Z</time>
      </trkpt>
      <trkpt lat="40.043658" lon="-7.323568">
        <ele>364.008</ele>
        <time>2010-01-01T02:03:36Z</time>
      </trkpt>
      <trkpt lat="40.043851" lon="-7.323210">
        <ele>365.084</ele>
        <time>2010-01-01T02:03:50Z</time>
      </trkpt>
      <trkpt lat="40.043893" lon="-7.323006">
        <ele>365.087</ele>
        <time>2010-01-01T02:03:56Z</time>
      </trkpt>
      <trkpt lat="40.043988" lon="-7.322515">
        <ele>365.020</ele>
        <time>2010-01-01T02:04:12Z</time>
      </trkpt>
      <trkpt lat="40.044105" lon="-7.322030">
        <ele>364.048</ele>
        <time>2010-01-01T02:04:27Z</time>
      </trkpt>
      <trkpt lat="40.044198" lon="-7.321581">
        <ele>365.085</ele>
        <time>2010-01-01T02:04:42Z</time>
      </trkpt>
      <trkpt lat="40.044274" lon="-7.321416">
        <ele>365.064</ele>
        <time>2010-01-01T02:04:47Z</time>
      </trkpt>
      <trkpt lat="40.044531" lon="-7.321134">
        <ele>366.071</ele>
        <time>2010-01-01T02:05:01Z</time>
      </trkpt>
      <trkpt lat="40.044662" lon="-7.321045">
        <ele>366.049</ele>
        <time>2010-01-01T02:05:07Z</time>
      </trkpt>
      <trkpt lat="40.044769" lon="-7.320841">
        <ele>366.045</ele>
        <time>2010-01-01T02:05:14Z</time>
      </trkpt>
      <trkpt lat="40.044998" lon="-7.320708">
        <ele>366.047</ele>
        <time>2010-01-01T02:05:24Z</time>
      </trkpt>
      <trkpt lat="40.045100" lon="-7.320633">
        <ele>366.011</ele>
        <time>2010-01-01T02:05:29Z</time>
      </trkpt>
      <trkpt lat="40.045269" lon="-7.320290">
        <ele>367.008</ele>
        <time>2010-01-01T02:05:42Z</time>
      </trkpt>
      <trkpt lat="40.045260" lon="-7.320089">
        <ele>367.017</ele>
        <time>2010-01-01T02:05:48Z</time>
      </trkpt>
      <trkpt lat="40.045103" lon="-7.319892">
        <ele>365.090</ele>
        <time>2010-01-01T02:05:56Z</time>
      </trkpt>
      <trkpt lat="40.044944" lon="-7.319644">
        <ele>364.073</ele>
        <time>2010-01-01T02:06:06Z</time>
      </trkpt>
      <trkpt lat="40.044960" lon="-7.319455">
        <ele>363.091</ele>
        <time>2010-01-01T02:06:12Z</time>
      </trkpt>
      <trkpt lat="40.045026" lon="-7.319168">
        <ele>364.078</ele>
        <time>2010-01-01T02:06:21Z</time>
      </trkpt>
      <trkpt lat="40.045090" lon="-7.318873">
        <ele>364.057</ele>
        <time>2010-01-01T02:06:31Z</time>
      </trkpt>
      <trkpt lat="40.045086" lon="-7.318679">
        <ele>365.034</ele>
        <time>2010-01-01T02:06:37Z</time>
      </trkpt>
      <trkpt lat="40.045072" lon="-7.318382">
        <ele>367.032</ele>
        <time>2010-01-01T02:06:46Z</time>
      </trkpt>
      <trkpt lat="40.045017" lon="-7.318006">
        <ele>371.031</ele>
        <time>2010-01-01T02:06:58Z</time>
      </trkpt>
      <trkpt lat="40.045046" lon="-7.317779">
        <ele>371.061</ele>
        <time>2010-01-01T02:07:05Z</time>
      </trkpt>
      <trkpt lat="40.044995" lon="-7.317563">
        <ele>372.007</ele>
        <time>2010-01-01T02:07:12Z</time>
      </trkpt>
      <trkpt lat="40.045099" lon="-7.317316">
        <ele>373.008</ele>
        <time>2010-01-01T02:07:20Z</time>
      </trkpt>
      <trkpt lat="40.045196" lon="-7.317190">
        <ele>373.056</ele>
        <time>2010-01-01T02:07:26Z</time>
      </trkpt>
      <trkpt lat="40.045392" lon="-7.316762">
        <ele>374.049</ele>
        <time>2010-01-01T02:07:41Z</time>
      </trkpt>
      <trkpt lat="40.045549" lon="-7.316401">
        <ele>373.042</ele>
        <time>2010-01-01T02:07:54Z</time>
      </trkpt>
      <trkpt lat="40.045701" lon="-7.316136">
        <ele>374.030</ele>
        <time>2010-01-01T02:08:04Z</time>
      </trkpt>
      <trkpt lat="40.045831" lon="-7.315940">
        <ele>374.087</ele>
        <time>2010-01-01T02:08:12Z</time>
      </trkpt>
      <trkpt lat="40.045970" lon="-7.315684">
        <ele>375.046</ele>
        <time>2010-01-01T02:08:21Z</time>
      </trkpt>
      <trkpt lat="40.046052" lon="-7.315569">
        <ele>375.033</ele>
        <time>2010-01-01T02:08:26Z</time>
      </trkpt>
      <trkpt lat="40.046001" lon="-7.314851">
        <ele>375.051</ele>
        <time>2010-01-01T02:08:48Z</time>
      </trkpt>
      <trkpt lat="40.045990" lon="-7.314661">
        <ele>374.053</ele>
        <time>2010-01-01T02:08:54Z</time>
      </trkpt>
      <trkpt lat="40.045990" lon="-7.314583">
        <ele>374.004</ele>
        <time>2010-01-01T02:08:56Z</time>
      </trkpt>
      <trkpt lat="40.045934" lon="-7.314430">
        <ele>373.014</ele>
        <time>2010-01-01T02:09:02Z</time>
      </trkpt>
      <trkpt lat="40.045903" lon="-7.314275">
        <ele>372.008</ele>
        <time>2010-01-01T02:09:07Z</time>
      </trkpt>
      <trkpt lat="40.045871" lon="-7.314015">
        <ele>372.088</ele>
        <time>2010-01-01T02:09:15Z</time>
      </trkpt>
      <trkpt lat="40.045895" lon="-7.313915">
        <ele>372.031</ele>
        <time>2010-01-01T02:09:18Z</time>
      </trkpt>
      <trkpt lat="40.046032" lon="-7.313718">
        <ele>374.074</ele>
        <time>2010-01-01T02:09:26Z</time>
      </trkpt>
      <trkpt lat="40.046103" lon="-7.313501">
        <ele>375.072</ele>
        <time>2010-01-01T02:09:33Z</time>
      </trkpt>
      <trkpt lat="40.046279" lon="-7.313350">
        <ele>378.079</ele>
        <time>2010-01-01T02:09:42Z</time>
      </trkpt>
      <trkpt lat="40.046409" lon="-7.313191">
        <ele>379.078</ele>
        <time>2010-01-01T02:09:49Z</time>
      </trkpt>
      <trkpt lat="40.046529" lon="-7.313078">
        <ele>379.065</ele>
        <time>2010-01-01T02:09:55Z</time>
      </trkpt>
      <trkpt lat="40.046654" lon="-7.313034">
        <ele>379.093</ele>
        <time>2010-01-01T02:10:00Z</time>
      </trkpt>
      <trkpt lat="40.046711" lon="-7.312973">
        <ele>379.082</ele>
        <time>2010-01-01T02:10:03Z</time>
      </trkpt>
      <trkpt lat="40.046684" lon="-7.312860">
        <ele>379.043</ele>
        <time>2010-01-01T02:10:06Z</time>
      </trkpt>
      <trkpt lat="40.046626" lon="-7.312614">
        <ele>377.017</ele>
        <time>2010-01-01T02:10:14Z</time>
      </trkpt>
      <trkpt lat="40.046600" lon="-7.312494">
        <ele>377.008</ele>
        <time>2010-01-01T02:10:18Z</time>
      </trkpt>
      <trkpt lat="40.046703" lon="-7.312175">
        <ele>377.091</ele>
        <time>2010-01-01T02:10:29Z</time>
      </trkpt>
      <trkpt lat="40.046710" lon="-7.312068">
        <ele>376.064</ele>
        <time>2010-01-01T02:10:32Z</time>
      </trkpt>
      <trkpt lat="40.046632" lon="-7.311998">
        <ele>374.027</ele>
        <time>2010-01-01T02:10:36Z</time>
      </trkpt>
      <trkpt lat="40.046503" lon="-7.312017">
        <ele>372.075</ele>
        <time>2010-01-01T02:10:41Z</time>
      </trkpt>
      <trkpt lat="40.046406" lon="-7.311953">
        <ele>371.042</ele>
        <time>2010-01-01T02:10:45Z</time>
      </trkpt>
      <trkpt lat="40.046272" lon="-7.311668">
        <ele>370.081</ele>
        <time>2010-01-01T02:10:56Z</time>
      </trkpt>
      <trkpt lat="40.046112" lon="-7.311535">
        <ele>370.048</ele>
        <time>2010-01-01T02:11:03Z</time>
      </trkpt>
      <trkpt lat="40.046007" lon="-7.311441">
        <ele>371.086</ele>
        <time>2010-01-01T02:11:08Z</time>
      </trkpt>
      <trkpt lat="40.045978" lon="-7.311332">
        <ele>373.016</ele>
        <time>2010-01-01T02:11:12Z</time>
      </trkpt>
      <trkpt lat="40.045930" lon="-7.310935">
        <ele>376.076</ele>
        <time>2010-01-01T02:11:24Z</time>
      </trkpt>
      <trkpt lat="40.046781" lon="-7.309406">
        <ele>382.013</ele>
        <time>2010-01-01T02:12:22Z</time>
      </trkpt>
      <trkpt lat="40.046769" lon="-7.308871">
        <ele>382.008</ele>
        <time>2010-01-01T02:12:39Z</time>
      </trkpt>
      <trkpt lat="40.046558" lon="-7.308155">
        <ele>382.044</ele>
        <time>2010-01-01T02:13:02Z</time>
      </trkpt>
      <trkpt lat="40.046580" lon="-7.307781">
        <ele>383.047</ele>
        <time>2010-01-01T02:13:14Z</time>
      </trkpt>
      <trkpt lat="40.046676" lon="-7.307496">
        <ele>387.030</ele>
        <time>2010-01-01T02:13:23Z</time>
      </trkpt>
      <trkpt lat="40.046874" lon="-7.307220">
        <ele>389.088</ele>
        <time>2010-01-01T02:13:35Z</time>
      </trkpt>
      <trkpt lat="40.047094" lon="-7.306950">
        <ele>390.085</ele>
        <time>2010-01-01T02:13:47Z</time>
      </trkpt>
      <trkpt lat="40.047267" lon="-7.306801">
        <ele>391.064</ele>
        <time>2010-01-01T02:13:55Z</time>
      </trkpt>
      <trkpt lat="40.047609" lon="-7.306316">
        <ele>395.021</ele>
        <time>2010-01-01T02:14:15Z</time>
      </trkpt>
      <trkpt lat="40.047651" lon="-7.306060">
        <ele>397.059</ele>
        <time>2010-01-01T02:14:23Z</time>
      </trkpt>
      <trkpt lat="40.047944" lon="-7.305760">
        <ele>396.047</ele>
        <time>2010-01-01T02:14:38Z</time>
      </trkpt>
      <trkpt lat="40.048127" lon="-7.305587">
        <ele>395.029</ele>
        <time>2010-01-01T02:14:47Z</time>
      </trkpt>
      <trkpt lat="40.048413" lon="-7.305585">
        <ele>394.021</ele>
        <time>2010-01-01T02:14:59Z</time>
      </trkpt>
      <trkpt lat="40.048657" lon="-7.305503">
        <ele>392.008</ele>
        <time>2010-01-01T02:15:09Z</time>
      </trkpt>
      <trkpt lat="40.049050" lon="-7.305052">
        <ele>389.037</ele>
        <time>2010-01-01T02:15:30Z</time>
      </trkpt>
      <trkpt lat="40.049265" lon="-7.304921">
        <ele>388.040</ele>
        <time>2010-01-01T02:15:39Z</time>
      </trkpt>
      <trkpt lat="40.049359" lon="-7.304769">
        <ele>388.083</ele>
        <time>2010-01-01T02:15:45Z</time>
      </trkpt>
      <trkpt lat="40.049513" lon="-7.304052">
        <ele>385.091</ele>
        <time>2010-01-01T02:16:08Z</time>
      </trkpt>
      <trkpt lat="40.049436" lon="-7.303728">
        <ele>383.028</ele>
        <time>2010-01-01T02:16:18Z</time>
      </trkpt>
      <trkpt lat="40.049296" lon="-7.303571">
        <ele>383.087</ele>
        <time>2010-01-01T02:16:26Z</time>
      </trkpt>
      <trkpt lat="40.049137" lon="-7.303572">
        <ele>383.034</ele>
        <time>2010-01-01T02:16:32Z</time>
      </trkpt>
      <trkpt lat="40.048882" lon="-7.303485">
        <ele>384.022</ele>
        <time>2010-01-01T02:16:43Z</time>
      </trkpt>
      <trkpt lat="40.048709" lon="-7.303480">
        <ele>384.098</ele>
        <time>2010-01-01T02:16:50Z</time>
      </trkpt>
      <trkpt lat="40.048606" lon="-7.303386">
        <ele>385.015</ele>
        <time>2010-01-01T02:16:55Z</time>
      </trkpt>
      <trkpt lat="40.048699" lon="-7.302942">
        <ele>385.026</ele>
        <time>2010-01-01T02:17:09Z</time>
      </trkpt>
      <trkpt lat="40.048686" lon="-7.302733">
        <ele>386.008</ele>
        <time>2010-01-01T02:17:15Z</time>
      </trkpt>
      <trkpt lat="40.048657" lon="-7.302302">
        <ele>385.032</ele>
        <time>2010-01-01T02:17:28Z</time>
      </trkpt>
      <trkpt lat="40.048530" lon="-7.301837">
        <ele>384.075</ele>
        <time>2010-01-01T02:17:44Z</time>
      </trkpt>
      <trkpt lat="40.048750" lon="-7.301642">
        <ele>384.088</ele>
        <time>2010-01-01T02:17:54Z</time>
      </trkpt>
      <trkpt lat="40.049090" lon="-7.301362">
        <ele>385.066</ele>
        <time>2010-01-01T02:18:10Z</time>
      </trkpt>
      <trkpt lat="40.049282" lon="-7.301260">
        <ele>385.033</ele>
        <time>2010-01-01T02:18:19Z</time>
      </trkpt>
      <trkpt lat="40.049632" lon="-7.301257">
        <ele>387.072</ele>
        <time>2010-01-01T02:18:33Z</time>
      </trkpt>
      <trkpt lat="40.049799" lon="-7.301010">
        <ele>387.029</ele>
        <time>2010-01-01T02:18:43Z</time>
      </trkpt>
      <trkpt lat="40.050045" lon="-7.300850">
        <ele>388.017</ele>
        <time>2010-01-01T02:18:54Z</time>
      </trkpt>
      <trkpt lat="40.050411" lon="-7.300537">
        <ele>386.086</ele>
        <time>2010-01-01T02:19:11Z</time>
      </trkpt>
      <trkpt lat="40.050919" lon="-7.299902">
        <ele>386.060</ele>
        <time>2010-01-01T02:19:39Z</time>
      </trkpt>
      <trkpt lat="40.051052" lon="-7.299737">
        <ele>386.026</ele>
        <time>2010-01-01T02:19:47Z</time>
      </trkpt>
      <trkpt lat="40.051905" lon="-7.299749">
        <ele>387.008</ele>
        <time>2010-01-01T02:20:21Z</time>
      </trkpt>
      <trkpt lat="40.052164" lon="-7.299124">
        <ele>388.071</ele>
        <time>2010-01-01T02:20:43Z</time>
      </trkpt>
      <trkpt lat="40.052306" lon="-7.298657">
        <ele>391.084</ele>
        <time>2010-01-01T02:20:58Z</time>
      </trkpt>
      <trkpt lat="40.052445" lon="-7.298064">
        <ele>393.097</ele>
        <time>2010-01-01T02:21:17Z</time>
      </trkpt>
      <trkpt lat="40.052492" lon="-7.297794">
        <ele>394.065</ele>
        <time>2010-01-01T02:21:26Z</time>
      </trkpt>
      <trkpt lat="40.052356" lon="-7.297161">
        <ele>393.072</ele>
        <time>2010-01-01T02:21:46Z</time>
      </trkpt>
      <trkpt lat="40.052186" lon="-7.296847">
        <ele>394.051</ele>
        <time>2010-01-01T02:21:58Z</time>
      </trkpt>
      <trkpt lat="40.051531" lon="-7.295926">
        <ele>389.098</ele>
        <time>2010-01-01T02:22:36Z</time>
      </trkpt>
      <trkpt lat="40.051015" lon="-7.295270">
        <ele>390.046</ele>
        <time>2010-01-01T02:23:05Z</time>
      </trkpt>
      <trkpt lat="40.050750" lon="-7.294685">
        <ele>395.075</ele>
        <time>2010-01-01T02:23:26Z</time>
      </trkpt>
      <trkpt lat="40.050504" lon="-7.294282">
        <ele>395.028</ele>
        <time>2010-01-01T02:23:41Z</time>
      </trkpt>
      <trkpt lat="40.050185" lon="-7.293714">
        <ele>398.020</ele>
        <time>2010-01-01T02:24:03Z</time>
      </trkpt>
      <trkpt lat="40.050110" lon="-7.293612">
        <ele>398.008</ele>
        <time>2010-01-01T02:24:07Z</time>
      </trkpt>
      <trkpt lat="40.050292" lon="-7.293200">
        <ele>400.010</ele>
        <time>2010-01-01T02:24:22Z</time>
      </trkpt>
      <trkpt lat="40.050456" lon="-7.292990">
        <ele>400.083</ele>
        <time>2010-01-01T02:24:31Z</time>
      </trkpt>
      <trkpt lat="40.050617" lon="-7.292874">
        <ele>399.086</ele>
        <time>2010-01-01T02:24:39Z</time>
      </trkpt>
      <trkpt lat="40.050717" lon="-7.292659">
        <ele>398.064</ele>
        <time>2010-01-01T02:24:46Z</time>
      </trkpt>
      <trkpt lat="40.050695" lon="-7.292393">
        <ele>397.091</ele>
        <time>2010-01-01T02:24:54Z</time>
      </trkpt>
      <trkpt lat="40.050627" lon="-7.292103">
        <ele>397.060</ele>
        <time>2010-01-01T02:25:04Z</time>
      </trkpt>
      <trkpt lat="40.050616" lon="-7.291568">
        <ele>396.047</ele>
        <time>2010-01-01T02:25:20Z</time>
      </trkpt>
      <trkpt lat="40.050649" lon="-7.291395">
        <ele>397.085</ele>
        <time>2010-01-01T02:25:26Z</time>
      </trkpt>
      <trkpt lat="40.050878" lon="-7.291044">
        <ele>398.041</ele>
        <time>2010-01-01T02:25:40Z</time>
      </trkpt>
      <trkpt lat="40.051018" lon="-7.290756">
        <ele>398.081</ele>
        <time>2010-01-01T02:25:50Z</time>
      </trkpt>
      <trkpt lat="40.051110" lon="-7.290286">
        <ele>397.009</ele>
        <time>2010-01-01T02:26:05Z</time>
      </trkpt>
      <trkpt lat="40.051366" lon="-7.289969">
        <ele>398.008</ele>
        <time>2010-01-01T02:26:19Z</time>
      </trkpt>
      <trkpt lat="40.051531" lon="-7.289654">
        <ele>398.057</ele>
        <time>2010-01-01T02:26:31Z</time>
      </trkpt>
      <trkpt lat="40.051866" lon="-7.288832">
        <ele>399.040</ele>
        <time>2010-01-01T02:26:59Z</time>
      </trkpt>
      <trkpt lat="40.051949" lon="-7.288397">
        <ele>401.053</ele>
        <time>2010-01-01T02:27:13Z</time>
      </trkpt>
      <trkpt lat="40.052323" lon="-7.288374">
        <ele>403.021</ele>
        <time>2010-01-01T02:27:28Z</time>
      </trkpt>
      <trkpt lat="40.052671" lon="-7.288475">
        <ele>405.078</ele>
        <time>2010-01-01T02:27:42Z</time>
      </trkpt>
      <trkpt lat="40.052895" lon="-7.288510">
        <ele>404.077</ele>
        <time>2010-01-01T02:27:51Z</time>
      </trkpt>
      <trkpt lat="40.053147" lon="-7.288433">
        <ele>403.094</ele>
        <time>2010-01-01T02:28:02Z</time>
      </trkpt>
      <trkpt lat="40.053287" lon="-7.288256">
        <ele>402.042</ele>
        <time>2010-01-01T02:28:10Z</time>
      </trkpt>
      <trkpt lat="40.053375" lon="-7.288091">
        <ele>402.043</ele>
        <time>2010-01-01T02:28:16Z</time>
      </trkpt>
      <trkpt lat="40.053608" lon="-7.287966">
        <ele>401.064</ele>
        <time>2010-01-01T02:28:26Z</time>
      </trkpt>
      <trkpt lat="40.053726" lon="-7.288032">
        <ele>400.010</ele>
        <time>2010-01-01T02:28:31Z</time>
      </trkpt>
      <trkpt lat="40.053829" lon="-7.288268">
        <ele>398.008</ele>
        <time>2010-01-01T02:28:39Z</time>
      </trkpt>
      <trkpt lat="40.054079" lon="-7.288630">
        <ele>396.017</ele>
        <time>2010-01-01T02:28:54Z</time>
      </trkpt>
      <trkpt lat="40.054261" lon="-7.288782">
        <ele>396.030</ele>
        <time>2010-01-01T02:29:03Z</time>
      </trkpt>
      <trkpt lat="40.054330" lon="-7.288842">
        <ele>396.033</ele>
        <time>2010-01-01T02:29:06Z</time>
      </trkpt>
      <trkpt lat="40.054451" lon="-7.288833">
        <ele>395.041</ele>
        <time>2010-01-01T02:29:11Z</time>
      </trkpt>
      <trkpt lat="40.054673" lon="-7.288717">
        <ele>394.068</ele>
        <time>2010-01-01T02:29:21Z</time>
      </trkpt>
      <trkpt lat="40.054749" lon="-7.288592">
        <ele>393.087</ele>
        <time>2010-01-01T02:29:26Z</time>
      </trkpt>
      <trkpt lat="40.054758" lon="-7.288452">
        <ele>394.034</ele>
        <time>2010-01-01T02:29:30Z</time>
      </trkpt>
      <trkpt lat="40.054836" lon="-7.288348">
        <ele>394.082</ele>
        <time>2010-01-01T02:29:34Z</time>
      </trkpt>
      <trkpt lat="40.054987" lon="-7.288089">
        <ele>394.034</ele>
        <time>2010-01-01T02:29:44Z</time>
      </trkpt>
      <trkpt lat="40.055342" lon="-7.287856">
        <ele>396.055</ele>
        <time>2010-01-01T02:30:00Z</time>
      </trkpt>
      <trkpt lat="40.055502" lon="-7.287582">
        <ele>397.010</ele>
        <time>2010-01-01T02:30:11Z</time>
      </trkpt>
      <trkpt lat="40.055673" lon="-7.287473">
        <ele>400.008</ele>
        <time>2010-01-01T02:30:18Z</time>
      </trkpt>
      <trkpt lat="40.055951" lon="-7.287198">
        <ele>403.016</ele>
        <time>2010-01-01T02:30:32Z</time>
      </trkpt>
      <trkpt lat="40.056043" lon="-7.287082">
        <ele>405.089</ele>
        <time>2010-01-01T02:30:37Z</time>
      </trkpt>
      <trkpt lat="40.056225" lon="-7.286790">
        <ele>406.052</ele>
        <time>2010-01-01T02:30:49Z</time>
      </trkpt>
      <trkpt lat="40.056437" lon="-7.286722">
        <ele>407.060</ele>
        <time>2010-01-01T02:30:58Z</time>
      </trkpt>
      <trkpt lat="40.056658" lon="-7.286709">
        <ele>407.027</ele>
        <time>2010-01-01T02:31:07Z</time>
      </trkpt>
      <trkpt lat="40.056981" lon="-7.286682">
        <ele>410.066</ele>
        <time>2010-01-01T02:31:19Z</time>
      </trkpt>
      <trkpt lat="40.057172" lon="-7.286192">
        <ele>411.073</ele>
        <time>2010-01-01T02:31:36Z</time>
      </trkpt>
      <trkpt lat="40.057527" lon="-7.285950">
        <ele>414.081</ele>
        <time>2010-01-01T02:31:52Z</time>
      </trkpt>
      <trkpt lat="40.057807" lon="-7.285486">
        <ele>416.017</ele>
        <time>2010-01-01T02:32:10Z</time>
      </trkpt>
      <trkpt lat="40.058300" lon="-7.284575">
        <ele>416.087</ele>
        <time>2010-01-01T02:32:45Z</time>
      </trkpt>
      <trkpt lat="40.058670" lon="-7.283838">
        <ele>417.015</ele>
        <time>2010-01-01T02:33:12Z</time>
      </trkpt>
      <trkpt lat="40.058989" lon="-7.283309">
        <ele>421.008</ele>
        <time>2010-01-01T02:33:32Z</time>
      </trkpt>
      <trkpt lat="40.059338" lon="-7.282887">
        <ele>422.024</ele>
        <time>2010-01-01T02:33:51Z</time>
      </trkpt>
      <trkpt lat="40.059417" lon="-7.282727">
        <ele>422.047</ele>
        <time>2010-01-01T02:33:57Z</time>
      </trkpt>
      <trkpt lat="40.059412" lon="-7.282352">
        <ele>421.080</ele>
        <time>2010-01-01T02:34:09Z</time>
      </trkpt>
      <trkpt lat="40.059601" lon="-7.281906">
        <ele>419.058</ele>
        <time>2010-01-01T02:34:24Z</time>
      </trkpt>
      <trkpt lat="40.059747" lon="-7.281721">
        <ele>418.075</ele>
        <time>2010-01-01T02:34:32Z</time>
      </trkpt>
      <trkpt lat="40.059938" lon="-7.281456">
        <ele>417.074</ele>
        <time>2010-01-01T02:34:44Z</time>
      </trkpt>
      <trkpt lat="40.060095" lon="-7.281393">
        <ele>417.021</ele>
        <time>2010-01-01T02:34:50Z</time>
      </trkpt>
      <trkpt lat="40.060198" lon="-7.281376">
        <ele>418.039</ele>
        <time>2010-01-01T02:34:54Z</time>
      </trkpt>
      <trkpt lat="40.060480" lon="-7.281073">
        <ele>419.061</ele>
        <time>2010-01-01T02:35:09Z</time>
      </trkpt>
      <trkpt lat="40.060633" lon="-7.280869">
        <ele>420.021</ele>
        <time>2010-01-01T02:35:18Z</time>
      </trkpt>
      <trkpt lat="40.060769" lon="-7.280731">
        <ele>421.013</ele>
        <time>2010-01-01T02:35:25Z</time>
      </trkpt>
      <trkpt lat="40.061120" lon="-7.280289">
        <ele>425.008</ele>
        <time>2010-01-01T02:35:44Z</time>
      </trkpt>
      <trkpt lat="40.061217" lon="-7.280019">
        <ele>425.099</ele>
        <time>2010-01-01T02:35:53Z</time>
      </trkpt>
      <trkpt lat="40.061242" lon="-7.279833">
        <ele>425.072</ele>
        <time>2010-01-01T02:35:59Z</time>
      </trkpt>
      <trkpt lat="40.061242" lon="-7.279545">
        <ele>425.015</ele>
        <time>2010-01-01T02:36:08Z</time>
      </trkpt>
      <trkpt lat="40.061204" lon="-7.279245">
        <ele>425.073</ele>
        <time>2010-01-01T02:36:17Z</time>
      </trkpt>
      <trkpt lat="40.061459" lon="-7.278747">
        <ele>425.020</ele>
        <time>2010-01-01T02:36:35Z</time>
      </trkpt>
      <trkpt lat="40.061641" lon="-7.278320">
        <ele>424.089</ele>
        <time>2010-01-01T02:36:50Z</time>
      </trkpt>
      <trkpt lat="40.061785" lon="-7.277987">
        <ele>424.046</ele>
        <time>2010-01-01T02:37:02Z</time>
      </trkpt>
      <trkpt lat="40.061878" lon="-7.277732">
        <ele>424.064</ele>
        <time>2010-01-01T02:37:11Z</time>
      </trkpt>
      <trkpt lat="40.062010" lon="-7.277377">
        <ele>423.067</ele>
        <time>2010-01-01T02:37:23Z</time>
      </trkpt>
      <trkpt lat="40.062069" lon="-7.277149">
        <ele>422.081</ele>
        <time>2010-01-01T02:37:30Z</time>
      </trkpt>
      <trkpt lat="40.062214" lon="-7.277005">
        <ele>422.019</ele>
        <time>2010-01-01T02:37:38Z</time>
      </trkpt>
      <trkpt lat="40.062336" lon="-7.276900">
        <ele>422.008</ele>
        <time>2010-01-01T02:37:43Z</time>
      </trkpt>
      <trkpt lat="40.062536" lon="-7.276749">
        <ele>421.029</ele>
        <time>2010-01-01T02:37:53Z</time>
      </trkpt>
      <trkpt lat="40.062812" lon="-7.276571">
        <ele>420.082</ele>
        <time>2010-01-01T02:38:05Z</time>
      </trkpt>
      <trkpt lat="40.062870" lon="-7.276446">
        <ele>420.055</ele>
        <time>2010-01-01T02:38:09Z</time>
      </trkpt>
      <trkpt lat="40.062919" lon="-7.276093">
        <ele>419.013</ele>
        <time>2010-01-01T02:38:20Z</time>
      </trkpt>
      <trkpt lat="40.062957" lon="-7.275831">
        <ele>418.050</ele>
        <time>2010-01-01T02:38:29Z</time>
      </trkpt>
      <trkpt lat="40.063027" lon="-7.275724">
        <ele>418.059</ele>
        <time>2010-01-01T02:38:33Z</time>
      </trkpt>
      <trkpt lat="40.063200" lon="-7.275560">
        <ele>417.076</ele>
        <time>2010-01-01T02:38:41Z</time>
      </trkpt>
      <trkpt lat="40.063381" lon="-7.275452">
        <ele>415.044</ele>
        <time>2010-01-01T02:38:49Z</time>
      </trkpt>
      <trkpt lat="40.063686" lon="-7.275312">
        <ele>413.037</ele>
        <time>2010-01-01T00:00:00Z</time>
      </trkpt>
      <trkpt lat="40.063524" lon="-7.274915">
        <ele>412.049</ele>
        <time>2010-01-01T00:00:13Z</time>
      </trkpt>
      <trkpt lat="40.063367" lon="-7.274728">
        <ele>411.013</ele>
        <time>2010-01-01T00:00:22Z</time>
      </trkpt>
      <trkpt lat="40.063113" lon="-7.274594">
        <ele>413.008</ele>
        <time>2010-01-01T00:00:33Z</time>
      </trkpt>
      <trkpt lat="40.062889" lon="-7.274467">
        <ele>415.086</ele>
        <time>2010-01-01T00:00:43Z</time>
      </trkpt>
      <trkpt lat="40.062801" lon="-7.274301">
        <ele>415.089</ele>
        <time>2010-01-01T00:00:49Z</time>
      </trkpt>
      <trkpt lat="40.062456" lon="-7.274075">
        <ele>418.022</ele>
        <time>2010-01-01T00:01:04Z</time>
      </trkpt>
      <trkpt lat="40.062149" lon="-7.273905">
        <ele>420.060</ele>
        <time>2010-01-01T00:01:18Z</time>
      </trkpt>
      <trkpt lat="40.061801" lon="-7.273644">
        <ele>421.077</ele>
        <time>2010-01-01T00:01:34Z</time>
      </trkpt>
      <trkpt lat="40.061575" lon="-7.273361">
        <ele>422.056</ele>
        <time>2010-01-01T00:01:46Z</time>
      </trkpt>
      <trkpt lat="40.061425" lon="-7.273057">
        <ele>422.013</ele>
        <time>2010-01-01T00:01:57Z</time>
      </trkpt>
      <trkpt lat="40.061323" lon="-7.272840">
        <ele>423.041</ele>
        <time>2010-01-01T00:02:05Z</time>
      </trkpt>
      <trkpt lat="40.061055" lon="-7.272572">
        <ele>423.099</ele>
        <time>2010-01-01T00:02:19Z</time>
      </trkpt>
      <trkpt lat="40.061107" lon="-7.272452">
        <ele>422.007</ele>
        <time>2010-01-01T00:02:23Z</time>
      </trkpt>
      <trkpt lat="40.061438" lon="-7.272036">
        <ele>421.027</ele>
        <time>2010-01-01T00:02:41Z</time>
      </trkpt>
      <trkpt lat="40.061543" lon="-7.271882">
        <ele>420.008</ele>
        <time>2010-01-01T00:02:47Z</time>
      </trkpt>
      <trkpt lat="40.061732" lon="-7.271612">
        <ele>420.052</ele>
        <time>2010-01-01T00:02:59Z</time>
      </trkpt>
      <trkpt lat="40.061950" lon="-7.271280">
        <ele>420.085</ele>
        <time>2010-01-01T00:03:12Z</time>
      </trkpt>
      <trkpt lat="40.062369" lon="-7.270587">
        <ele>421.088</ele>
        <time>2010-01-01T00:03:39Z</time>
      </trkpt>
      <trkpt lat="40.062619" lon="-7.270291">
        <ele>420.036</ele>
        <time>2010-01-01T00:03:53Z</time>
      </trkpt>
      <trkpt lat="40.063111" lon="-7.270141">
        <ele>420.063</ele>
        <time>2010-01-01T00:04:13Z</time>
      </trkpt>
      <trkpt lat="40.063230" lon="-7.269874">
        <ele>420.062</ele>
        <time>2010-01-01T00:04:22Z</time>
      </trkpt>
      <trkpt lat="40.063400" lon="-7.269496">
        <ele>420.069</ele>
        <time>2010-01-01T00:04:36Z</time>
      </trkpt>
      <trkpt lat="40.063007" lon="-7.269139">
        <ele>419.017</ele>
        <time>2010-01-01T00:04:55Z</time>
      </trkpt>
      <trkpt lat="40.062648" lon="-7.268824">
        <ele>416.018</ele>
        <time>2010-01-01T00:05:12Z</time>
      </trkpt>
      <trkpt lat="40.062468" lon="-7.268519">
        <ele>413.098</ele>
        <time>2010-01-01T00:05:24Z</time>
      </trkpt>
      <trkpt lat="40.062309" lon="-7.268333">
        <ele>413.017</ele>
        <time>2010-01-01T00:05:33Z</time>
      </trkpt>
      <trkpt lat="40.061998" lon="-7.268009">
        <ele>413.008</ele>
        <time>2010-01-01T00:05:48Z</time>
      </trkpt>
      <trkpt lat="40.061695" lon="-7.267698">
        <ele>413.064</ele>
        <time>2010-01-01T00:06:04Z</time>
      </trkpt>
      <trkpt lat="40.061561" lon="-7.267194">
        <ele>412.077</ele>
        <time>2010-01-01T00:06:20Z</time>
      </trkpt>
      <trkpt lat="40.061047" lon="-7.266692">
        <ele>413.070</ele>
        <time>2010-01-01T00:06:46Z</time>
      </trkpt>
      <trkpt lat="40.060782" lon="-7.266863">
        <ele>411.068</ele>
        <time>2010-01-01T00:06:58Z</time>
      </trkpt>
      <trkpt lat="40.060486" lon="-7.267194">
        <ele>409.055</ele>
        <time>2010-01-01T00:07:13Z</time>
      </trkpt>
      <trkpt lat="40.060298" lon="-7.267330">
        <ele>408.064</ele>
        <time>2010-01-01T00:07:22Z</time>
      </trkpt>
      <trkpt lat="40.060164" lon="-7.267387">
        <ele>408.041</ele>
        <time>2010-01-01T00:07:28Z</time>
      </trkpt>
      <trkpt lat="40.060131" lon="-7.267384">
        <ele>408.069</ele>
        <time>2010-01-01T00:07:29Z</time>
      </trkpt>
      <trkpt lat="40.060045" lon="-7.267247">
        <ele>408.091</ele>
        <time>2010-01-01T00:07:34Z</time>
      </trkpt>
      <trkpt lat="40.059829" lon="-7.266883">
        <ele>406.081</ele>
        <time>2010-01-01T00:07:48Z</time>
      </trkpt>
      <trkpt lat="40.059465" lon="-7.266158">
        <ele>405.019</ele>
        <time>2010-01-01T00:08:15Z</time>
      </trkpt>
      <trkpt lat="40.059252" lon="-7.265735">
        <ele>409.008</ele>
        <time>2010-01-01T00:08:31Z</time>
      </trkpt>
      <trkpt lat="40.058862" lon="-7.264952">
        <ele>414.022</ele>
        <time>2010-01-01T00:08:59Z</time>
      </trkpt>
      <trkpt lat="40.058496" lon="-7.264216">
        <ele>415.035</ele>
        <time>2010-01-01T00:09:26Z</time>
      </trkpt>
      <trkpt lat="40.058291" lon="-7.263793">
        <ele>416.058</ele>
        <time>2010-01-01T00:09:41Z</time>
      </trkpt>
      <trkpt lat="40.058165" lon="-7.263549">
        <ele>417.026</ele>
        <time>2010-01-01T00:09:50Z</time>
      </trkpt>
      <trkpt lat="40.057793" lon="-7.263275">
        <ele>418.013</ele>
        <time>2010-01-01T00:10:08Z</time>
      </trkpt>
      <trkpt lat="40.057331" lon="-7.262916">
        <ele>416.072</ele>
        <time>2010-01-01T00:10:29Z</time>
      </trkpt>
      <trkpt lat="40.057186" lon="-7.262734">
        <ele>416.059</ele>
        <time>2010-01-01T00:10:37Z</time>
      </trkpt>
      <trkpt lat="40.057032" lon="-7.262450">
        <ele>415.067</ele>
        <time>2010-01-01T00:10:48Z</time>
      </trkpt>
      <trkpt lat="40.056779" lon="-7.261744">
        <ele>414.085</ele>
        <time>2010-01-01T00:11:12Z</time>
      </trkpt>
      <trkpt lat="40.056595" lon="-7.261534">
        <ele>414.089</ele>
        <time>2010-01-01T00:11:21Z</time>
      </trkpt>
      <trkpt lat="40.056325" lon="-7.260975">
        <ele>414.017</ele>
        <time>2010-01-01T00:11:42Z</time>
      </trkpt>
      <trkpt lat="40.056204" lon="-7.260707">
        <ele>413.008</ele>
        <time>2010-01-01T00:11:51Z</time>
      </trkpt>
      <trkpt lat="40.055806" lon="-7.260202">
        <ele>414.071</ele>
        <time>2010-01-01T00:12:13Z</time>
      </trkpt>
      <trkpt lat="40.055543" lon="-7.259895">
        <ele>416.014</ele>
        <time>2010-01-01T00:12:28Z</time>
      </trkpt>
      <trkpt lat="40.055252" lon="-7.259721">
        <ele>415.067</ele>
        <time>2010-01-01T00:12:40Z</time>
      </trkpt>
      <trkpt lat="40.055018" lon="-7.259633">
        <ele>414.025</ele>
        <time>2010-01-01T00:12:50Z</time>
      </trkpt>
      <trkpt lat="40.054555" lon="-7.259661">
        <ele>414.012</ele>
        <time>2010-01-01T00:13:09Z</time>
      </trkpt>
      <trkpt lat="40.054215" lon="-7.259700">
        <ele>413.031</ele>
        <time>2010-01-01T00:13:22Z</time>
      </trkpt>
      <trkpt lat="40.054051" lon="-7.259671">
        <ele>412.058</ele>
        <time>2010-01-01T00:13:29Z</time>
      </trkpt>
      <trkpt lat="40.053892" lon="-7.259593">
        <ele>411.036</ele>
        <time>2010-01-01T00:13:36Z</time>
      </trkpt>
      <trkpt lat="40.053261" lon="-7.259406">
        <ele>412.031</ele>
        <time>2010-01-01T00:14:02Z</time>
      </trkpt>
      <trkpt lat="40.052548" lon="-7.259193">
        <ele>413.061</ele>
        <time>2010-01-01T00:14:31Z</time>
      </trkpt>
      <trkpt lat="40.052196" lon="-7.259217">
        <ele>413.007</ele>
        <time>2010-01-01T00:14:45Z</time>
      </trkpt>
      <trkpt lat="40.051745" lon="-7.259203">
        <ele>411.008</ele>
        <time>2010-01-01T00:15:03Z</time>
      </trkpt>
      <trkpt lat="40.051206" lon="-7.259090">
        <ele>415.096</ele>
        <time>2010-01-01T00:15:25Z</time>
      </trkpt>
      <trkpt lat="40.050923" lon="-7.259313">
        <ele>419.059</ele>
        <time>2010-01-01T00:15:38Z</time>
      </trkpt>
      <trkpt lat="40.050544" lon="-7.259675">
        <ele>422.032</ele>
        <time>2010-01-01T00:15:57Z</time>
      </trkpt>
      <trkpt lat="40.050383" lon="-7.259759">
        <ele>422.020</ele>
        <time>2010-01-01T00:16:04Z</time>
      </trkpt>
      <trkpt lat="40.050198" lon="-7.259722">
        <ele>423.017</ele>
        <time>2010-01-01T00:16:11Z</time>
      </trkpt>
      <trkpt lat="40.050077" lon="-7.259629">
        <ele>424.046</ele>
        <time>2010-01-01T00:16:17Z</time>
      </trkpt>
      <trkpt lat="40.049865" lon="-7.259458">
        <ele>424.073</ele>
        <time>2010-01-01T00:16:27Z</time>
      </trkpt>
      <trkpt lat="40.049753" lon="-7.259348">
        <ele>425.091</ele>
        <time>2010-01-01T00:16:33Z</time>
      </trkpt>
      <trkpt lat="40.049399" lon="-7.259352">
        <ele>422.039</ele>
        <time>2010-01-01T00:16:47Z</time>
      </trkpt>
      <trkpt lat="40.049270" lon="-7.259315">
        <ele>421.001</ele>
        <time>2010-01-01T00:16:52Z</time>
      </trkpt>
      <trkpt lat="40.049129" lon="-7.259273">
        <ele>420.021</ele>
        <time>2010-01-01T00:16:58Z</time>
      </trkpt>
      <trkpt lat="40.048724" lon="-7.259199">
        <ele>420.008</ele>
        <time>2010-01-01T00:17:14Z</time>
      </trkpt>
      <trkpt lat="40.048376" lon="-7.259161">
        <ele>420.066</ele>
        <time>2010-01-01T00:17:28Z</time>
      </trkpt>
      <trkpt lat="40.048237" lon="-7.259160">
        <ele>419.029</ele>
        <time>2010-01-01T00:17:34Z</time>
      </trkpt>
      <trkpt lat="40.047791" lon="-7.259240">
        <ele>417.032</ele>
        <time>2010-01-01T00:17:52Z</time>
      </trkpt>
      <trkpt lat="40.047260" lon="-7.259369">
        <ele>417.080</ele>
        <time>2010-01-01T00:18:13Z</time>
      </trkpt>
      <trkpt lat="40.046965" lon="-7.259547">
        <ele>416.027</ele>
        <time>2010-01-01T00:18:26Z</time>
      </trkpt>
      <trkpt lat="40.046565" lon="-7.259974">
        <ele>415.096</ele>
        <time>2010-01-01T00:18:47Z</time>
      </trkpt>
      <trkpt lat="40.046318" lon="-7.260276">
        <ele>413.093</ele>
        <time>2010-01-01T00:19:01Z</time>
      </trkpt>
      <trkpt lat="40.045924" lon="-7.260492">
        <ele>413.011</ele>
        <time>2010-01-01T00:19:18Z</time>
      </trkpt>
      <trkpt lat="40.045690" lon="-7.260617">
        <ele>414.099</ele>
        <time>2010-01-01T00:19:28Z</time>
      </trkpt>
      <trkpt lat="40.045355" lon="-7.260690">
        <ele>414.007</ele>
        <time>2010-01-01T00:19:41Z</time>
      </trkpt>
      <trkpt lat="40.045132" lon="-7.260743">
        <ele>414.027</ele>
        <time>2010-01-01T00:19:51Z</time>
      </trkpt>
      <trkpt lat="40.044606" lon="-7.260785">
        <ele>410.008</ele>
        <time>2010-01-01T00:20:12Z</time>
      </trkpt>
      <trkpt lat="40.044144" lon="-7.260839">
        <ele>409.022</ele>
        <time>2010-01-01T00:20:30Z</time>
      </trkpt>
      <trkpt lat="40.043760" lon="-7.260897">
        <ele>410.025</ele>
        <time>2010-01-01T00:20:46Z</time>
      </trkpt>
      <trkpt lat="40.043304" lon="-7.260948">
        <ele>411.038</ele>
        <time>2010-01-01T00:21:04Z</time>
      </trkpt>
      <trkpt lat="40.042955" lon="-7.260964">
        <ele>408.086</ele>
        <time>2010-01-01T00:21:18Z</time>
      </trkpt>
      <trkpt lat="40.042814" lon="-7.260920">
        <ele>407.093</ele>
        <time>2010-01-01T00:21:24Z</time>
      </trkpt>
      <trkpt lat="40.042658" lon="-7.260829">
        <ele>406.032</ele>
        <time>2010-01-01T00:21:31Z</time>
      </trkpt>
      <trkpt lat="40.042221" lon="-7.260607">
        <ele>406.079</ele>
        <time>2010-01-01T00:21:49Z</time>
      </trkpt>
      <trkpt lat="40.041887" lon="-7.260363">
        <ele>406.067</ele>
        <time>2010-01-01T00:22:05Z</time>
      </trkpt>
      <trkpt lat="40.041350" lon="-7.260139">
        <ele>407.049</ele>
        <time>2010-01-01T00:22:27Z</time>
      </trkpt>
      <trkpt lat="40.040803" lon="-7.259989">
        <ele>405.002</ele>
        <time>2010-01-01T00:22:50Z</time>
      </trkpt>
      <trkpt lat="40.040389" lon="-7.259877">
        <ele>405.022</ele>
        <time>2010-01-01T00:23:07Z</time>
      </trkpt>
      <trkpt lat="40.040135" lon="-7.259810">
        <ele>405.008</ele>
        <time>2010-01-01T00:23:17Z</time>
      </trkpt>
      <trkpt lat="40.039029" lon="-7.259344">
        <ele>400.067</ele>
        <time>2010-01-01T00:24:03Z</time>
      </trkpt>
      <trkpt lat="40.038436" lon="-7.259125">
        <ele>399.040</ele>
        <time>2010-01-01T00:24:28Z</time>
      </trkpt>
      <trkpt lat="40.037645" lon="-7.258803">
        <ele>401.033</ele>
        <time>2010-01-01T00:25:01Z</time>
      </trkpt>
      <trkpt lat="40.037438" lon="-7.258711">
        <ele>401.011</ele>
        <time>2010-01-01T00:25:10Z</time>
      </trkpt>
      <trkpt lat="40.037114" lon="-7.258311">
        <ele>403.078</ele>
        <time>2010-01-01T00:25:28Z</time>
      </trkpt>
      <trkpt lat="40.036941" lon="-7.258280">
        <ele>403.067</ele>
        <time>2010-01-01T00:25:35Z</time>
      </trkpt>
      <trkpt lat="40.036708" lon="-7.257928">
        <ele>403.024</ele>
        <time>2010-01-01T00:25:49Z</time>
      </trkpt>
      <trkpt lat="40.035832" lon="-7.257705">
        <ele>407.062</ele>
        <time>2010-01-01T00:26:25Z</time>
      </trkpt>
      <trkpt lat="40.035708" lon="-7.257831">
        <ele>407.039</ele>
        <time>2010-01-01T00:26:31Z</time>
      </trkpt>
      <trkpt lat="40.035542" lon="-7.257814">
        <ele>408.001</ele>
        <time>2010-01-01T00:26:38Z</time>
      </trkpt>
      <trkpt lat="40.035281" lon="-7.257698">
        <ele>409.021</ele>
        <time>2010-01-01T00:26:49Z</time>
      </trkpt>
      <trkpt lat="40.034380" lon="-7.257383">
        <ele>409.008</ele>
        <time>2010-01-01T00:27:26Z</time>
      </trkpt>
      <trkpt lat="40.034040" lon="-7.257249">
        <ele>412.046</ele>
        <time>2010-01-01T00:27:40Z</time>
      </trkpt>
      <trkpt lat="40.033750" lon="-7.257230">
        <ele>414.039</ele>
        <time>2010-01-01T00:27:52Z</time>
      </trkpt>
      <trkpt lat="40.033218" lon="-7.257539">
        <ele>416.032</ele>
        <time>2010-01-01T00:28:15Z</time>
      </trkpt>
      <trkpt lat="40.033025" lon="-7.257671">
        <ele>415.020</ele>
        <time>2010-01-01T00:28:24Z</time>
      </trkpt>
      <trkpt lat="40.032637" lon="-7.257740">
        <ele>414.037</ele>
        <time>2010-01-01T00:28:40Z</time>
      </trkpt>
      <trkpt lat="40.032432" lon="-7.257787">
        <ele>413.036</ele>
        <time>2010-01-01T00:28:48Z</time>
      </trkpt>
      <trkpt lat="40.032156" lon="-7.257864">
        <ele>411.033</ele>
        <time>2010-01-01T00:28:59Z</time>
      </trkpt>
      <trkpt lat="40.031919" lon="-7.258115">
        <ele>411.091</ele>
        <time>2010-01-01T00:29:12Z</time>
      </trkpt>
      <trkpt lat="40.031775" lon="-7.258352">
        <ele>411.053</ele>
        <time>2010-01-01T00:29:21Z</time>
      </trkpt>
      <trkpt lat="40.031611" lon="-7.258629">
        <ele>412.004</ele>
        <time>2010-01-01T00:29:32Z</time>
      </trkpt>
      <trkpt lat="40.031446" lon="-7.258742">
        <ele>412.014</ele>
        <time>2010-01-01T00:29:39Z</time>
      </trkpt>
      <trkpt lat="40.031241" lon="-7.258891">
        <ele>412.008</ele>
        <time>2010-01-01T00:29:48Z</time>
      </trkpt>
      <trkpt lat="40.030739" lon="-7.259198">
        <ele>414.048</ele>
        <time>2010-01-01T00:30:11Z</time>
      </trkpt>
      <trkpt lat="40.030502" lon="-7.259304">
        <ele>414.061</ele>
        <time>2010-01-01T00:30:21Z</time>
      </trkpt>
      <trkpt lat="40.030273" lon="-7.259319">
        <ele>414.064</ele>
        <time>2010-01-01T00:30:30Z</time>
      </trkpt>
      <trkpt lat="40.030103" lon="-7.259361">
        <ele>413.032</ele>
        <time>2010-01-01T00:30:37Z</time>
      </trkpt>
      <trkpt lat="40.029693" lon="-7.259048">
        <ele>412.059</ele>
        <time>2010-01-01T00:30:56Z</time>
      </trkpt>
      <trkpt lat="40.029215" lon="-7.258807">
        <ele>413.028</ele>
        <time>2010-01-01T00:31:16Z</time>
      </trkpt>
      <trkpt lat="40.029018" lon="-7.258513">
        <ele>413.025</ele>
        <time>2010-01-01T00:31:28Z</time>
      </trkpt>
      <trkpt lat="40.028752" lon="-7.257789">
        <ele>409.033</ele>
        <time>2010-01-01T00:31:53Z</time>
      </trkpt>
      <trkpt lat="40.028573" lon="-7.257652">
        <ele>408.051</ele>
        <time>2010-01-01T00:32:01Z</time>
      </trkpt>
      <trkpt lat="40.028007" lon="-7.257344">
        <ele>405.001</ele>
        <time>2010-01-01T00:32:26Z</time>
      </trkpt>
      <trkpt lat="40.027644" lon="-7.257152">
        <ele>404.011</ele>
        <time>2010-01-01T00:32:41Z</time>
      </trkpt>
      <trkpt lat="40.027243" lon="-7.256674">
        <ele>403.008</ele>
        <time>2010-01-01T00:33:03Z</time>
      </trkpt>
      <trkpt lat="40.027113" lon="-7.256350">
        <ele>401.098</ele>
        <time>2010-01-01T00:33:14Z</time>
      </trkpt>
      <trkpt lat="40.027087" lon="-7.256140">
        <ele>400.031</ele>
        <time>2010-01-01T00:33:21Z</time>
      </trkpt>
      <trkpt lat="40.027149" lon="-7.255928">
        <ele>399.034</ele>
        <time>2010-01-01T00:33:28Z</time>
      </trkpt>
      <trkpt lat="40.027125" lon="-7.255740">
        <ele>399.062</ele>
        <time>2010-01-01T00:33:34Z</time>
      </trkpt>
      <trkpt lat="40.026911" lon="-7.255426">
        <ele>400.029</ele>
        <time>2010-01-01T00:33:47Z</time>
      </trkpt>
      <trkpt lat="40.026695" lon="-7.255117">
        <ele>401.028</ele>
        <time>2010-01-01T00:33:59Z</time>
      </trkpt>
      <trkpt lat="40.026582" lon="-7.254833">
        <ele>400.085</ele>
        <time>2010-01-01T00:34:09Z</time>
      </trkpt>
      <trkpt lat="40.026482" lon="-7.254502">
        <ele>399.093</ele>
        <time>2010-01-01T00:34:20Z</time>
      </trkpt>
      <trkpt lat="40.026352" lon="-7.254145">
        <ele>399.059</ele>
        <time>2010-01-01T00:34:32Z</time>
      </trkpt>
      <trkpt lat="40.026206" lon="-7.253784">
        <ele>400.003</ele>
        <time>2010-01-01T00:34:45Z</time>
      </trkpt>
      <trkpt lat="40.026152" lon="-7.253343">
        <ele>400.023</ele>
        <time>2010-01-01T00:34:58Z</time>
      </trkpt>
      <trkpt lat="40.026150" lon="-7.252948">
        <ele>398.008</ele>
        <time>2010-01-01T00:35:11Z</time>
      </trkpt>
      <trkpt lat="40.026141" lon="-7.252720">
        <ele>398.058</ele>
        <time>2010-01-01T00:35:18Z</time>
      </trkpt>
      <trkpt lat="40.026010" lon="-7.252214">
        <ele>401.011</ele>
        <time>2010-01-01T00:35:34Z</time>
      </trkpt>
      <trkpt lat="40.025946" lon="-7.251607">
        <ele>401.034</ele>
        <time>2010-01-01T00:35:53Z</time>
      </trkpt>
      <trkpt lat="40.025955" lon="-7.251225">
        <ele>402.092</ele>
        <time>2010-01-01T00:36:04Z</time>
      </trkpt>
      <trkpt lat="40.026012" lon="-7.250431">
        <ele>399.049</ele>
        <time>2010-01-01T00:36:29Z</time>
      </trkpt>
      <trkpt lat="40.025812" lon="-7.249912">
        <ele>396.018</ele>
        <time>2010-01-01T00:36:47Z</time>
      </trkpt>
      <trkpt lat="40.025563" lon="-7.249435">
        <ele>394.045</ele>
        <time>2010-01-01T00:37:04Z</time>
      </trkpt>
      <trkpt lat="40.025495" lon="-7.249251">
        <ele>395.053</ele>
        <time>2010-01-01T00:37:11Z</time>
      </trkpt>
      <trkpt lat="40.025299" lon="-7.248672">
        <ele>395.014</ele>
        <time>2010-01-01T00:37:30Z</time>
      </trkpt>
      <trkpt lat="40.025145" lon="-7.247853">
        <ele>393.054</ele>
        <time>2010-01-01T00:37:56Z</time>
      </trkpt>
      <trkpt lat="40.025105" lon="-7.247314">
        <ele>391.009</ele>
        <time>2010-01-01T00:38:12Z</time>
      </trkpt>
      <trkpt lat="40.025110" lon="-7.246308">
        <ele>391.008</ele>
        <time>2010-01-01T00:38:43Z</time>
      </trkpt>
      <trkpt lat="40.025118" lon="-7.245854">
        <ele>391.074</ele>
        <time>2010-01-01T00:38:57Z</time>
      </trkpt>
      <trkpt lat="40.025132" lon="-7.245420">
        <ele>391.017</ele>
        <time>2010-01-01T00:39:11Z</time>
      </trkpt>
      <trkpt lat="40.025291" lon="-7.245208">
        <ele>391.010</ele>
        <time>2010-01-01T00:39:20Z</time>
      </trkpt>
      <trkpt lat="40.025275" lon="-7.245063">
        <ele>391.048</ele>
        <time>2010-01-01T00:39:24Z</time>
      </trkpt>
      <trkpt lat="40.025346" lon="-7.244638">
        <ele>388.035</ele>
        <time>2010-01-01T00:39:37Z</time>
      </trkpt>
      <trkpt lat="40.025280" lon="-7.244361">
        <ele>386.084</ele>
        <time>2010-01-01T00:39:46Z</time>
      </trkpt>
      <trkpt lat="40.025281" lon="-7.243763">
        <ele>382.011</ele>
        <time>2010-01-01T00:40:05Z</time>
      </trkpt>
      <trkpt lat="40.025239" lon="-7.243433">
        <ele>381.039</ele>
        <time>2010-01-01T00:40:15Z</time>
      </trkpt>
      <trkpt lat="40.025141" lon="-7.243009">
        <ele>377.082</ele>
        <time>2010-01-01T00:40:29Z</time>
      </trkpt>
      <trkpt lat="40.025059" lon="-7.242603">
        <ele>376.043</ele>
        <time>2010-01-01T00:40:41Z</time>
      </trkpt>
      <trkpt lat="40.025027" lon="-7.242464">
        <ele>376.017</ele>
        <time>2010-01-01T00:40:46Z</time>
      </trkpt>
      <trkpt lat="40.024879" lon="-7.242083">
        <ele>374.008</ele>
        <time>2010-01-01T00:40:59Z</time>
      </trkpt>
      <trkpt lat="40.024803" lon="-7.241865">
        <ele>372.051</ele>
        <time>2010-01-01T00:41:06Z</time>
      </trkpt>
      <trkpt lat="40.024797" lon="-7.241449">
        <ele>370.094</ele>
        <time>2010-01-01T00:41:19Z</time>
      </trkpt>
      <trkpt lat="40.024799" lon="-7.241041">
        <ele>372.067</ele>
        <time>2010-01-01T00:41:32Z</time>
      </trkpt>
      <trkpt lat="40.024791" lon="-7.240867">
        <ele>372.045</ele>
        <time>2010-01-01T00:41:37Z</time>
      </trkpt>
      <trkpt lat="40.024835" lon="-7.240471">
        <ele>373.082</ele>
        <time>2010-01-01T00:41:49Z</time>
      </trkpt>
      <trkpt lat="40.024982" lon="-7.240136">
        <ele>372.021</ele>
        <time>2010-01-01T00:42:01Z</time>
      </trkpt>
      <trkpt lat="40.025111" lon="-7.240189">
        <ele>371.018</ele>
        <time>2010-01-01T00:42:06Z</time>
      </trkpt>
      <trkpt lat="40.025350" lon="-7.240263">
        <ele>368.096</ele>
        <time>2010-01-01T00:42:16Z</time>
      </trkpt>
      <trkpt lat="40.025630" lon="-7.240212">
        <ele>364.041</ele>
        <time>2010-01-01T00:42:28Z</time>
      </trkpt>
      <trkpt lat="40.025909" lon="-7.240162">
        <ele>361.081</ele>
        <time>2010-01-01T00:42:39Z</time>
      </trkpt>
      <trkpt lat="40.026132" lon="-7.240193">
        <ele>360.009</ele>
        <time>2010-01-01T00:42:48Z</time>
      </trkpt>
      <trkpt lat="40.026052" lon="-7.239950">
        <ele>360.008</ele>
        <time>2010-01-01T00:42:56Z</time>
      </trkpt>
      <trkpt lat="40.025915" lon="-7.239635">
        <ele>361.097</ele>
        <time>2010-01-01T00:43:07Z</time>
      </trkpt>
      <trkpt lat="40.025924" lon="-7.239467">
        <ele>363.070</ele>
        <time>2010-01-01T00:43:12Z</time>
      </trkpt>
      <trkpt lat="40.026004" lon="-7.239185">
        <ele>366.043</ele>
        <time>2010-01-01T00:43:21Z</time>
      </trkpt>
      <trkpt lat="40.026161" lon="-7.238859">
        <ele>368.041</ele>
        <time>2010-01-01T00:43:33Z</time>
      </trkpt>
      <trkpt lat="40.026120" lon="-7.238649">
        <ele>369.088</ele>
        <time>2010-01-01T00:43:40Z</time>
      </trkpt>
      <trkpt lat="40.026123" lon="-7.238402">
        <ele>369.017</ele>
        <time>2010-01-01T00:43:47Z</time>
      </trkpt>
      <trkpt lat="40.026157" lon="-7.238149">
        <ele>368.064</ele>
        <time>2010-01-01T00:43:55Z</time>
      </trkpt>
      <trkpt lat="40.026171" lon="-7.237904">
        <ele>366.022</ele>
        <time>2010-01-01T00:44:03Z</time>
      </trkpt>
      <trkpt lat="40.026120" lon="-7.237671">
        <ele>366.022</ele>
        <time>2010-01-01T00:44:10Z</time>
      </trkpt>
      <trkpt lat="40.026163" lon="-7.237385">
        <ele>362.062</ele>
        <time>2010-01-01T00:44:19Z</time>
      </trkpt>
      <trkpt lat="40.026157" lon="-7.237225">
        <ele>361.008</ele>
        <time>2010-01-01T00:44:24Z</time>
      </trkpt>
      <trkpt lat="40.025989" lon="-7.237073">
        <ele>363.008</ele>
        <time>2010-01-01T00:44:32Z</time>
      </trkpt>
      <trkpt lat="40.025803" lon="-7.236880">
        <ele>362.095</ele>
        <time>2010-01-01T00:44:42Z</time>
      </trkpt>
      <trkpt lat="40.025674" lon="-7.236658">
        <ele>358.098</ele>
        <time>2010-01-01T00:44:50Z</time>
      </trkpt>
      <trkpt lat="40.025633" lon="-7.236402">
        <ele>354.081</ele>
        <time>2010-01-01T00:44:58Z</time>
      </trkpt>
      <trkpt lat="40.025416" lon="-7.236235">
        <ele>353.089</ele>
        <time>2010-01-01T00:45:08Z</time>
      </trkpt>
      <trkpt lat="40.025086" lon="-7.235943">
        <ele>349.026</ele>
        <time>2010-01-01T00:45:24Z</time>
      </trkpt>
      <trkpt lat="40.024898" lon="-7.235811">
        <ele>345.095</ele>
        <time>2010-01-01T00:45:33Z</time>
      </trkpt>
      <trkpt lat="40.024573" lon="-7.235712">
        <ele>338.052</ele>
        <time>2010-01-01T00:45:46Z</time>
      </trkpt>
      <trkpt lat="40.024376" lon="-7.235846">
        <ele>336.050</ele>
        <time>2010-01-01T00:45:55Z</time>
      </trkpt>
      <trkpt lat="40.024266" lon="-7.235940">
        <ele>334.027</ele>
        <time>2010-01-01T00:46:00Z</time>
      </trkpt>
      <trkpt lat="40.024141" lon="-7.235961">
        <ele>333.068</ele>
        <time>2010-01-01T00:46:06Z</time>
      </trkpt>
      <trkpt lat="40.024075" lon="-7.235883">
        <ele>332.014</ele>
        <time>2010-01-01T00:46:09Z</time>
      </trkpt>
      <trkpt lat="40.023813" lon="-7.235751">
        <ele>333.008</ele>
        <time>2010-01-01T00:46:20Z</time>
      </trkpt>
      <trkpt lat="40.023567" lon="-7.235597">
        <ele>336.095</ele>
        <time>2010-01-01T00:46:31Z</time>
      </trkpt>
      <trkpt lat="40.023296" lon="-7.235638">
        <ele>338.038</ele>
        <time>2010-01-01T00:46:42Z</time>
      </trkpt>
      <trkpt lat="40.023214" lon="-7.235544">
        <ele>339.081</ele>
        <time>2010-01-01T00:46:47Z</time>
      </trkpt>
      <trkpt lat="40.023084" lon="-7.235210">
        <ele>341.029</ele>
        <time>2010-01-01T00:46:58Z</time>
      </trkpt>
      <trkpt lat="40.022929" lon="-7.234761">
        <ele>344.066</ele>
        <time>2010-01-01T00:47:13Z</time>
      </trkpt>
      <trkpt lat="40.022445" lon="-7.234019">
        <ele>347.095</ele>
        <time>2010-01-01T00:47:43Z</time>
      </trkpt>
      <trkpt lat="40.022188" lon="-7.233575">
        <ele>350.042</ele>
        <time>2010-01-01T00:48:00Z</time>
      </trkpt>
      <trkpt lat="40.021787" lon="-7.232899">
        <ele>353.050</ele>
        <time>2010-01-01T00:48:26Z</time>
      </trkpt>
      <trkpt lat="40.021395" lon="-7.232271">
        <ele>354.026</ele>
        <time>2010-01-01T00:48:51Z</time>
      </trkpt>
      <trkpt lat="40.021164" lon="-7.232006">
        <ele>352.047</ele>
        <time>2010-01-01T00:49:03Z</time>
      </trkpt>
      <trkpt lat="40.021000" lon="-7.231841">
        <ele>351.011</ele>
        <time>2010-01-01T00:49:12Z</time>
      </trkpt>
      <trkpt lat="40.020521" lon="-7.231473">
        <ele>351.008</ele>
        <time>2010-01-01T00:49:34Z</time>
      </trkpt>
      <trkpt lat="40.020303" lon="-7.231225">
        <ele>354.025</ele>
        <time>2010-01-01T00:49:46Z</time>
      </trkpt>
      <trkpt lat="40.020036" lon="-7.230810">
        <ele>358.048</ele>
        <time>2010-01-01T00:50:02Z</time>
      </trkpt>
      <trkpt lat="40.020370" lon="-7.230334">
        <ele>356.041</ele>
        <time>2010-01-01T00:50:22Z</time>
      </trkpt>
      <trkpt lat="40.020526" lon="-7.230066">
        <ele>355.029</ele>
        <time>2010-01-01T00:50:32Z</time>
      </trkpt>
      <trkpt lat="40.020741" lon="-7.229536">
        <ele>352.036</ele>
        <time>2010-01-01T00:50:51Z</time>
      </trkpt>
      <trkpt lat="40.020844" lon="-7.229242">
        <ele>351.015</ele>
        <time>2010-01-01T00:51:01Z</time>
      </trkpt>
      <trkpt lat="40.020706" lon="-7.228731">
        <ele>348.072</ele>
        <time>2010-01-01T00:51:17Z</time>
      </trkpt>
      <trkpt lat="40.020727" lon="-7.228522">
        <ele>347.060</ele>
        <time>2010-01-01T00:51:24Z</time>
      </trkpt>
      <trkpt lat="40.020935" lon="-7.228047">
        <ele>346.055</ele>
        <time>2010-01-01T00:51:40Z</time>
      </trkpt>
      <trkpt lat="40.020943" lon="-7.227791">
        <ele>346.007</ele>
        <time>2010-01-01T00:51:48Z</time>
      </trkpt>
      <trkpt lat="40.020857" lon="-7.227434">
        <ele>348.017</ele>
        <time>2010-01-01T00:52:00Z</time>
      </trkpt>
      <trkpt lat="40.020783" lon="-7.227104">
        <ele>349.008</ele>
        <time>2010-01-01T00:52:10Z</time>
      </trkpt>
      <trkpt lat="40.020731" lon="-7.226763">
        <ele>348.048</ele>
        <time>2010-01-01T00:52:21Z</time>
      </trkpt>
      <trkpt lat="40.020633" lon="-7.226487">
        <ele>346.011</ele>
        <time>2010-01-01T00:52:30Z</time>
      </trkpt>
      <trkpt lat="40.020623" lon="-7.226285">
        <ele>345.054</ele>
        <time>2010-01-01T00:52:36Z</time>
      </trkpt>
      <trkpt lat="40.020570" lon="-7.226080">
        <ele>344.012</ele>
        <time>2010-01-01T00:52:43Z</time>
      </trkpt>
      <trkpt lat="40.020391" lon="-7.225633">
        <ele>340.039</ele>
        <time>2010-01-01T00:52:59Z</time>
      </trkpt>
      <trkpt lat="40.020138" lon="-7.225121">
        <ele>334.048</ele>
        <time>2010-01-01T00:53:17Z</time>
      </trkpt>
      <trkpt lat="40.020065" lon="-7.224971">
        <ele>333.065</ele>
        <time>2010-01-01T00:53:23Z</time>
      </trkpt>
      <trkpt lat="40.019569" lon="-7.224888">
        <ele>332.093</ele>
        <time>2010-01-01T00:53:43Z</time>
      </trkpt>
      <trkpt lat="40.019338" lon="-7.224842">
        <ele>331.017</ele>
        <time>2010-01-01T00:53:52Z</time>
      </trkpt>
      <trkpt lat="40.018896" lon="-7.224581">
        <ele>328.087</ele>
        <time>2010-01-01T00:54:12Z</time>
      </trkpt>
      <trkpt lat="40.018662" lon="-7.224434">
        <ele>327.015</ele>
        <time>2010-01-01T00:54:22Z</time>
      </trkpt>
      <trkpt lat="40.018304" lon="-7.224039">
        <ele>322.008</ele>
        <time>2010-01-01T00:54:41Z</time>
      </trkpt>
      <trkpt lat="40.018216" lon="-7.223602">
        <ele>321.014</ele>
        <time>2010-01-01T00:54:55Z</time>
      </trkpt>
      <trkpt lat="40.018276" lon="-7.223260">
        <ele>321.077</ele>
        <time>2010-01-01T00:55:05Z</time>
      </trkpt>
      <trkpt lat="40.018275" lon="-7.223118">
        <ele>320.030</ele>
        <time>2010-01-01T00:55:10Z</time>
      </trkpt>
      <trkpt lat="40.018253" lon="-7.222830">
        <ele>316.098</ele>
        <time>2010-01-01T00:55:18Z</time>
      </trkpt>
      <trkpt lat="40.018311" lon="-7.222676">
        <ele>315.045</ele>
        <time>2010-01-01T00:55:24Z</time>
      </trkpt>
      <trkpt lat="40.018182" lon="-7.222358">
        <ele>311.034</ele>
        <time>2010-01-01T00:55:35Z</time>
      </trkpt>
      <trkpt lat="40.018026" lon="-7.222162">
        <ele>310.091</ele>
        <time>2010-01-01T00:55:43Z</time>
      </trkpt>
      <trkpt lat="40.017683" lon="-7.221671">
        <ele>318.049</ele>
        <time>2010-01-01T00:56:04Z</time>
      </trkpt>
      <trkpt lat="40.017560" lon="-7.221512">
        <ele>321.024</ele>
        <time>2010-01-01T00:56:11Z</time>
      </trkpt>
      <trkpt lat="40.017566" lon="-7.221184">
        <ele>323.004</ele>
        <time>2010-01-01T00:56:21Z</time>
      </trkpt>
      <trkpt lat="40.017502" lon="-7.220997">
        <ele>324.014</ele>
        <time>2010-01-01T00:56:27Z</time>
      </trkpt>
      <trkpt lat="40.017160" lon="-7.220501">
        <ele>329.008</ele>
        <time>2010-01-01T00:56:48Z</time>
      </trkpt>
      <trkpt lat="40.016951" lon="-7.220317">
        <ele>333.085</ele>
        <time>2010-01-01T00:56:58Z</time>
      </trkpt>
      <trkpt lat="40.016533" lon="-7.220155">
        <ele>336.028</ele>
        <time>2010-01-01T00:57:15Z</time>
      </trkpt>
      <trkpt lat="40.016327" lon="-7.220241">
        <ele>336.091</ele>
        <time>2010-01-01T00:57:24Z</time>
      </trkpt>
      <trkpt lat="40.016199" lon="-7.220286">
        <ele>336.079</ele>
        <time>2010-01-01T00:57:29Z</time>
      </trkpt>
      <trkpt lat="40.016099" lon="-7.220279">
        <ele>336.026</ele>
        <time>2010-01-01T00:57:33Z</time>
      </trkpt>
      <trkpt lat="40.015936" lon="-7.220150">
        <ele>337.035</ele>
        <time>2010-01-01T00:57:41Z</time>
      </trkpt>
      <trkpt lat="40.015762" lon="-7.219982">
        <ele>338.022</ele>
        <time>2010-01-01T00:57:49Z</time>
      </trkpt>
      <trkpt lat="40.015393" lon="-7.219741">
        <ele>340.030</ele>
        <time>2010-01-01T00:58:06Z</time>
      </trkpt>
      <trkpt lat="40.015249" lon="-7.219618">
        <ele>338.097</ele>
        <time>2010-01-01T00:58:13Z</time>
      </trkpt>
      <trkpt lat="40.014702" lon="-7.219123">
        <ele>340.023</ele>
        <time>2010-01-01T00:58:39Z</time>
      </trkpt>
      <trkpt lat="40.014575" lon="-7.219048">
        <ele>341.025</ele>
        <time>2010-01-01T00:58:45Z</time>
      </trkpt>
      <trkpt lat="40.014472" lon="-7.218739">
        <ele>342.008</ele>
        <time>2010-01-01T00:58:55Z</time>
      </trkpt>
      <trkpt lat="40.014223" lon="-7.218362">
        <ele>344.022</ele>
        <time>2010-01-01T00:59:11Z</time>
      </trkpt>
      <trkpt lat="40.014106" lon="-7.218234">
        <ele>345.015</ele>
        <time>2010-01-01T00:59:17Z</time>
      </trkpt>
      <trkpt lat="40.013580" lon="-7.218162">
        <ele>346.058</ele>
        <time>2010-01-01T00:59:38Z</time>
      </trkpt>
      <trkpt lat="40.013426" lon="-7.217983">
        <ele>347.016</ele>
        <time>2010-01-01T00:59:46Z</time>
      </trkpt>
      <trkpt lat="40.013363" lon="-7.217796">
        <ele>348.093</ele>
        <time>2010-01-01T00:59:52Z</time>
      </trkpt>
      <trkpt lat="40.013055" lon="-7.217429">
        <ele>350.052</ele>
        <time>2010-01-01T01:00:09Z</time>
      </trkpt>
      <trkpt lat="40.012803" lon="-7.217262">
        <ele>350.049</ele>
        <time>2010-01-01T01:00:20Z</time>
      </trkpt>
      <trkpt lat="40.012622" lon="-7.217090">
        <ele>349.047</ele>
        <time>2010-01-01T01:00:29Z</time>
      </trkpt>
      <trkpt lat="40.012395" lon="-7.216953">
        <ele>349.098</ele>
        <time>2010-01-01T01:00:39Z</time>
      </trkpt>
      <trkpt lat="40.012256" lon="-7.216779">
        <ele>347.015</ele>
        <time>2010-01-01T01:00:47Z</time>
      </trkpt>
      <trkpt lat="40.012081" lon="-7.216585">
        <ele>345.026</ele>
        <time>2010-01-01T01:00:56Z</time>
      </trkpt>
      <trkpt lat="40.011952" lon="-7.216385">
        <ele>344.008</ele>
        <time>2010-01-01T01:01:04Z</time>
      </trkpt>
      <trkpt lat="40.011858" lon="-7.216231">
        <ele>342.012</ele>
        <time>2010-01-01T01:01:10Z</time>
      </trkpt>
      <trkpt lat="40.011674" lon="-7.216016">
        <ele>340.045</ele>
        <time>2010-01-01T01:01:20Z</time>
      </trkpt>
      <trkpt lat="40.011549" lon="-7.215783">
        <ele>338.018</ele>
        <time>2010-01-01T01:01:29Z</time>
      </trkpt>
      <trkpt lat="40.011454" lon="-7.215563">
        <ele>338.096</ele>
        <time>2010-01-01T01:01:37Z</time>
      </trkpt>
      <trkpt lat="40.011393" lon="-7.215099">
        <ele>335.083</ele>
        <time>2010-01-01T01:01:51Z</time>
      </trkpt>
      <trkpt lat="40.011355" lon="-7.214788">
        <ele>334.052</ele>
        <time>2010-01-01T01:02:01Z</time>
      </trkpt>
      <trkpt lat="40.011133" lon="-7.214529">
        <ele>334.049</ele>
        <time>2010-01-01T01:02:13Z</time>
      </trkpt>
      <trkpt lat="40.011061" lon="-7.214398">
        <ele>333.067</ele>
        <time>2010-01-01T01:02:18Z</time>
      </trkpt>
      <trkpt lat="40.010898" lon="-7.213955">
        <ele>331.025</ele>
        <time>2010-01-01T01:02:33Z</time>
      </trkpt>
      <trkpt lat="40.010919" lon="-7.213709">
        <ele>328.026</ele>
        <time>2010-01-01T01:02:40Z</time>
      </trkpt>
      <trkpt lat="40.010750" lon="-7.213414">
        <ele>323.008</ele>
        <time>2010-01-01T01:02:51Z</time>
      </trkpt>
      <trkpt lat="40.010555" lon="-7.213173">
        <ele>321.008</ele>
        <time>2010-01-01T01:03:02Z</time>
      </trkpt>
      <trkpt lat="40.010463" lon="-7.213001">
        <ele>319.025</ele>
        <time>2010-01-01T01:03:09Z</time>
      </trkpt>
      <trkpt lat="40.010287" lon="-7.212794">
        <ele>318.098</ele>
        <time>2010-01-01T01:03:18Z</time>
      </trkpt>
      <trkpt lat="40.010122" lon="-7.212704">
        <ele>317.011</ele>
        <time>2010-01-01T01:03:25Z</time>
      </trkpt>
      <trkpt lat="40.009743" lon="-7.212430">
        <ele>315.019</ele>
        <time>2010-01-01T01:03:43Z</time>
      </trkpt>
      <trkpt lat="40.009504" lon="-7.212191">
        <ele>316.066</ele>
        <time>2010-01-01T01:03:55Z</time>
      </trkpt>
      <trkpt lat="40.009178" lon="-7.211888">
        <ele>318.065</ele>
        <time>2010-01-01T01:04:11Z</time>
      </trkpt>
      <trkpt lat="40.008995" lon="-7.211903">
        <ele>318.042</ele>
        <time>2010-01-01T01:04:18Z</time>
      </trkpt>
      <trkpt lat="40.008835" lon="-7.211782">
        <ele>317.060</ele>
        <time>2010-01-01T01:04:25Z</time>
      </trkpt>
      <trkpt lat="40.008656" lon="-7.211530">
        <ele>318.039</ele>
        <time>2010-01-01T01:04:36Z</time>
      </trkpt>
      <trkpt lat="40.008309" lon="-7.210907">
        <ele>318.001</ele>
        <time>2010-01-01T01:05:00Z</time>
      </trkpt>
      <trkpt lat="40.008179" lon="-7.210630">
        <ele>319.021</ele>
        <time>2010-01-01T01:05:10Z</time>
      </trkpt>
      <trkpt lat="40.008081" lon="-7.210428">
        <ele>319.008</ele>
        <time>2010-01-01T01:05:17Z</time>
      </trkpt>
      <trkpt lat="40.008063" lon="-7.210233">
        <ele>318.026</ele>
        <time>2010-01-01T01:05:23Z</time>
      </trkpt>
      <trkpt lat="40.008103" lon="-7.209942">
        <ele>318.099</ele>
        <time>2010-01-01T01:05:32Z</time>
      </trkpt>
      <trkpt lat="40.008273" lon="-7.209706">
        <ele>321.072</ele>
        <time>2010-01-01T01:05:42Z</time>
      </trkpt>
      <trkpt lat="40.008357" lon="-7.209610">
        <ele>323.030</ele>
        <time>2010-01-01T01:05:46Z</time>
      </trkpt>
      <trkpt lat="40.008545" lon="-7.209477">
        <ele>325.057</ele>
        <time>2010-01-01T01:05:55Z</time>
      </trkpt>
      <trkpt lat="40.008654" lon="-7.209271">
        <ele>325.016</ele>
        <time>2010-01-01T01:06:03Z</time>
      </trkpt>
      <trkpt lat="40.008653" lon="-7.208977">
        <ele>326.033</ele>
        <time>2010-01-01T01:06:12Z</time>
      </trkpt>
      <trkpt lat="40.008561" lon="-7.208743">
        <ele>327.081</ele>
        <time>2010-01-01T01:06:20Z</time>
      </trkpt>
      <trkpt lat="40.008420" lon="-7.208722">
        <ele>327.069</ele>
        <time>2010-01-01T01:06:25Z</time>
      </trkpt>
      <trkpt lat="40.008159" lon="-7.208512">
        <ele>328.004</ele>
        <time>2010-01-01T01:06:38Z</time>
      </trkpt>
      <trkpt lat="40.008013" lon="-7.208327">
        <ele>330.024</ele>
        <time>2010-01-01T01:06:46Z</time>
      </trkpt>
      <trkpt lat="40.007859" lon="-7.208044">
        <ele>332.008</ele>
        <time>2010-01-01T01:06:56Z</time>
      </trkpt>
      <trkpt lat="40.007769" lon="-7.207884">
        <ele>333.049</ele>
        <time>2010-01-01T01:07:03Z</time>
      </trkpt>
      <trkpt lat="40.007799" lon="-7.207562">
        <ele>334.032</ele>
        <time>2010-01-01T01:07:13Z</time>
      </trkpt>
      <trkpt lat="40.007906" lon="-7.207023">
        <ele>338.075</ele>
        <time>2010-01-01T01:07:30Z</time>
      </trkpt>
      <trkpt lat="40.008001" lon="-7.206760">
        <ele>342.043</ele>
        <time>2010-01-01T01:07:39Z</time>
      </trkpt>
      <trkpt lat="40.008218" lon="-7.206194">
        <ele>345.040</ele>
        <time>2010-01-01T01:07:58Z</time>
      </trkpt>
      <trkpt lat="40.008298" lon="-7.206045">
        <ele>346.079</ele>
        <time>2010-01-01T01:08:03Z</time>
      </trkpt>
      <trkpt lat="40.008249" lon="-7.205889">
        <ele>347.076</ele>
        <time>2010-01-01T01:08:09Z</time>
      </trkpt>
      <trkpt lat="40.008346" lon="-7.205307">
        <ele>351.074</ele>
        <time>2010-01-01T01:08:27Z</time>
      </trkpt>
      <trkpt lat="40.008539" lon="-7.204835">
        <ele>355.046</ele>
        <time>2010-01-01T01:08:43Z</time>
      </trkpt>
      <trkpt lat="40.008190" lon="-7.203147">
        <ele>358.088</ele>
        <time>2010-01-01T01:09:37Z</time>
      </trkpt>
      <trkpt lat="40.008185" lon="-7.202733">
        <ele>361.016</ele>
        <time>2010-01-01T01:09:50Z</time>
      </trkpt>
      <trkpt lat="40.008248" lon="-7.202540">
        <ele>363.008</ele>
        <time>2010-01-01T01:09:56Z</time>
      </trkpt>
      <trkpt lat="40.008141" lon="-7.202018">
        <ele>365.087</ele>
        <time>2010-01-01T01:10:13Z</time>
      </trkpt>
      <trkpt lat="40.007978" lon="-7.201471">
        <ele>368.090</ele>
        <time>2010-01-01T01:10:31Z</time>
      </trkpt>
      <trkpt lat="40.007886" lon="-7.201179">
        <ele>371.043</ele>
        <time>2010-01-01T01:10:40Z</time>
      </trkpt>
      <trkpt lat="40.007853" lon="-7.200913">
        <ele>372.081</ele>
        <time>2010-01-01T01:10:49Z</time>
      </trkpt>
      <trkpt lat="40.007763" lon="-7.200477">
        <ele>372.068</ele>
        <time>2010-01-01T01:11:02Z</time>
      </trkpt>
      <trkpt lat="40.007522" lon="-7.199844">
        <ele>372.017</ele>
        <time>2010-01-01T01:11:24Z</time>
      </trkpt>
      <trkpt lat="40.007045" lon="-7.198748">
        <ele>375.074</ele>
        <time>2010-01-01T01:12:03Z</time>
      </trkpt>
      <trkpt lat="40.007006" lon="-7.198600">
        <ele>374.052</ele>
        <time>2010-01-01T01:12:08Z</time>
      </trkpt>
      <trkpt lat="40.007009" lon="-7.198432">
        <ele>374.065</ele>
        <time>2010-01-01T01:12:13Z</time>
      </trkpt>
      <trkpt lat="40.006934" lon="-7.198304">
        <ele>374.068</ele>
        <time>2010-01-01T01:12:18Z</time>
      </trkpt>
      <trkpt lat="40.006493" lon="-7.197571">
        <ele>383.014</ele>
        <time>2010-01-01T01:12:46Z</time>
      </trkpt>
      <trkpt lat="40.006087" lon="-7.196796">
        <ele>386.008</ele>
        <time>2010-01-01T01:13:15Z</time>
      </trkpt>
      <trkpt lat="40.005857" lon="-7.196298">
        <ele>384.089</ele>
        <time>2010-01-01T01:13:33Z</time>
      </trkpt>
      <trkpt lat="40.005930" lon="-7.195546">
        <ele>383.072</ele>
        <time>2010-01-01T01:13:56Z</time>
      </trkpt>
      <trkpt lat="40.006040" lon="-7.195480">
        <ele>383.065</ele>
        <time>2010-01-01T01:14:01Z</time>
      </trkpt>
      <trkpt lat="40.006346" lon="-7.195465">
        <ele>384.023</ele>
        <time>2010-01-01T01:14:13Z</time>
      </trkpt>
      <trkpt lat="40.006965" lon="-7.195179">
        <ele>382.050</ele>
        <time>2010-01-01T01:14:39Z</time>
      </trkpt>
      <trkpt lat="40.007707" lon="-7.194890">
        <ele>379.099</ele>
        <time>2010-01-01T01:15:10Z</time>
      </trkpt>
      <trkpt lat="40.008023" lon="-7.194941">
        <ele>380.046</ele>
        <time>2010-01-01T01:15:23Z</time>
      </trkpt>
      <trkpt lat="40.008379" lon="-7.194973">
        <ele>381.014</ele>
        <time>2010-01-01T01:15:37Z</time>
      </trkpt>
      <trkpt lat="40.008714" lon="-7.194907">
        <ele>382.071</ele>
        <time>2010-01-01T01:15:51Z</time>
      </trkpt>
      <trkpt lat="40.009142" lon="-7.194578">
        <ele>381.041</ele>
        <time>2010-01-01T01:16:11Z</time>
      </trkpt>
      <trkpt lat="40.009961" lon="-7.194164">
        <ele>385.015</ele>
        <time>2010-01-01T01:16:46Z</time>
      </trkpt>
      <trkpt lat="40.010336" lon="-7.194016">
        <ele>387.008</ele>
        <time>2010-01-01T01:17:02Z</time>
      </trkpt>
      <trkpt lat="40.010509" lon="-7.193855">
        <ele>389.080</ele>
        <time>2010-01-01T01:17:10Z</time>
      </trkpt>
      <trkpt lat="40.010690" lon="-7.193508">
        <ele>391.053</ele>
        <time>2010-01-01T01:17:23Z</time>
      </trkpt>
      <trkpt lat="40.010860" lon="-7.192906">
        <ele>394.066</ele>
        <time>2010-01-01T01:17:43Z</time>
      </trkpt>
      <trkpt lat="40.011169" lon="-7.191927">
        <ele>392.014</ele>
        <time>2010-01-01T01:18:15Z</time>
      </trkpt>
      <trkpt lat="40.011346" lon="-7.191138">
        <ele>389.031</ele>
        <time>2010-01-01T01:18:40Z</time>
      </trkpt>
      <trkpt lat="40.011311" lon="-7.190724">
        <ele>387.010</ele>
        <time>2010-01-01T01:18:53Z</time>
      </trkpt>
      <trkpt lat="40.011415" lon="-7.190279">
        <ele>386.017</ele>
        <time>2010-01-01T01:19:08Z</time>
      </trkpt>
      <trkpt lat="40.011670" lon="-7.189580">
        <ele>383.015</ele>
        <time>2010-01-01T01:19:31Z</time>
      </trkpt>
      <trkpt lat="40.011831" lon="-7.189071">
        <ele>383.076</ele>
        <time>2010-01-01T01:19:48Z</time>
      </trkpt>
      <trkpt lat="40.011913" lon="-7.188552">
        <ele>383.090</ele>
        <time>2010-01-01T01:20:04Z</time>
      </trkpt>
      <trkpt lat="40.012063" lon="-7.187971">
        <ele>384.019</ele>
        <time>2010-01-01T01:20:23Z</time>
      </trkpt>
      <trkpt lat="40.012148" lon="-7.187439">
        <ele>384.008</ele>
        <time>2010-01-01T01:20:40Z</time>
      </trkpt>
      <trkpt lat="40.012366" lon="-7.186888">
        <ele>384.060</ele>
        <time>2010-01-01T01:20:59Z</time>
      </trkpt>
      <trkpt lat="40.012395" lon="-7.186476">
        <ele>385.053</ele>
        <time>2010-01-01T01:21:12Z</time>
      </trkpt>
      <trkpt lat="40.012594" lon="-7.186283">
        <ele>383.076</ele>
        <time>2010-01-01T01:21:22Z</time>
      </trkpt>
      <trkpt lat="40.013077" lon="-7.186289">
        <ele>376.074</ele>
        <time>2010-01-01T01:21:41Z</time>
      </trkpt>
      <trkpt lat="40.013531" lon="-7.186073">
        <ele>372.071</ele>
        <time>2010-01-01T01:22:00Z</time>
      </trkpt>
      <trkpt lat="40.013703" lon="-7.185960">
        <ele>372.030</ele>
        <time>2010-01-01T01:22:08Z</time>
      </trkpt>
      <trkpt lat="40.013576" lon="-7.185703">
        <ele>374.037</ele>
        <time>2010-01-01T01:22:17Z</time>
      </trkpt>
      <trkpt lat="40.013299" lon="-7.185565">
        <ele>377.065</ele>
        <time>2010-01-01T01:22:29Z</time>
      </trkpt>
      <trkpt lat="40.012577" lon="-7.185260">
        <ele>381.076</ele>
        <time>2010-01-01T01:23:00Z</time>
      </trkpt>
      <trkpt lat="40.012097" lon="-7.185273">
        <ele>380.090</ele>
        <time>2010-01-01T01:23:19Z</time>
      </trkpt>
      <trkpt lat="40.011697" lon="-7.185178">
        <ele>383.019</ele>
        <time>2010-01-01T01:23:35Z</time>
      </trkpt>
      <trkpt lat="40.011565" lon="-7.185166">
        <ele>384.008</ele>
        <time>2010-01-01T01:23:40Z</time>
      </trkpt>
      <trkpt lat="40.011168" lon="-7.185329">
        <ele>385.050</ele>
        <time>2010-01-01T01:23:57Z</time>
      </trkpt>
      <trkpt lat="40.010737" lon="-7.185279">
        <ele>386.083</ele>
        <time>2010-01-01T01:24:14Z</time>
      </trkpt>
      <trkpt lat="40.010397" lon="-7.185106">
        <ele>387.046</ele>
        <time>2010-01-01T01:24:29Z</time>
      </trkpt>
      <trkpt lat="40.009889" lon="-7.184874">
        <ele>388.084</ele>
        <time>2010-01-01T01:24:50Z</time>
      </trkpt>
      <trkpt lat="40.009569" lon="-7.184604">
        <ele>387.051</ele>
        <time>2010-01-01T01:25:06Z</time>
      </trkpt>
      <trkpt lat="40.009354" lon="-7.183999">
        <ele>389.040</ele>
        <time>2010-01-01T01:25:26Z</time>
      </trkpt>
      <trkpt lat="40.009042" lon="-7.183735">
        <ele>389.017</ele>
        <time>2010-01-01T01:25:41Z</time>
      </trkpt>
      <trkpt lat="40.008977" lon="-7.183528">
        <ele>390.065</ele>
        <time>2010-01-01T01:25:48Z</time>
      </trkpt>
      <trkpt lat="40.009081" lon="-7.183292">
        <ele>391.036</ele>
        <time>2010-01-01T01:25:56Z</time>
      </trkpt>
      <trkpt lat="40.009124" lon="-7.183041">
        <ele>392.017</ele>
        <time>2010-01-01T01:26:04Z</time>
      </trkpt>
      <trkpt lat="40.008949" lon="-7.182778">
        <ele>391.018</ele>
        <time>2010-01-01T01:26:15Z</time>
      </trkpt>
      <trkpt lat="40.008816" lon="-7.182599">
        <ele>390.008</ele>
        <time>2010-01-01T01:26:22Z</time>
      </trkpt>
      <trkpt lat="40.008625" lon="-7.182276">
        <ele>389.036</ele>
        <time>2010-01-01T01:26:35Z</time>
      </trkpt>
      <trkpt lat="40.008550" lon="-7.181664">
        <ele>386.099</ele>
        <time>2010-01-01T01:26:54Z</time>
      </trkpt>
      <trkpt lat="40.008514" lon="-7.181496">
        <ele>385.052</ele>
        <time>2010-01-01T01:26:59Z</time>
      </trkpt>
      <trkpt lat="40.008307" lon="-7.181018">
        <ele>383.070</ele>
        <time>2010-01-01T01:27:16Z</time>
      </trkpt>
      <trkpt lat="40.008047" lon="-7.180394">
        <ele>379.027</ele>
        <time>2010-01-01T01:27:38Z</time>
      </trkpt>
      <trkpt lat="40.007641" lon="-7.179873">
        <ele>376.066</ele>
        <time>2010-01-01T01:28:01Z</time>
      </trkpt>
      <trkpt lat="40.007442" lon="-7.179743">
        <ele>374.073</ele>
        <time>2010-01-01T01:28:10Z</time>
      </trkpt>
      <trkpt lat="40.007044" lon="-7.179351">
        <ele>372.081</ele>
        <time>2010-01-01T01:28:30Z</time>
      </trkpt>
      <trkpt lat="40.006383" lon="-7.178615">
        <ele>369.073</ele>
        <time>2010-01-01T01:29:04Z</time>
      </trkpt>
      <trkpt lat="40.006196" lon="-7.178515">
        <ele>368.085</ele>
        <time>2010-01-01T01:29:12Z</time>
      </trkpt>
      <trkpt lat="40.005976" lon="-7.178394">
        <ele>368.013</ele>
        <time>2010-01-01T01:29:22Z</time>
      </trkpt>
      <trkpt lat="40.005795" lon="-7.178375">
        <ele>368.008</ele>
        <time>2010-01-01T01:29:29Z</time>
      </trkpt>
      <trkpt lat="40.005668" lon="-7.178338">
        <ele>368.090</ele>
        <time>2010-01-01T01:29:34Z</time>
      </trkpt>
      <trkpt lat="40.005557" lon="-7.177876">
        <ele>367.043</ele>
        <time>2010-01-01T01:29:49Z</time>
      </trkpt>
      <trkpt lat="40.005198" lon="-7.177132">
        <ele>359.096</ele>
        <time>2010-01-01T01:30:16Z</time>
      </trkpt>
      <trkpt lat="40.005074" lon="-7.176841">
        <ele>357.094</ele>
        <time>2010-01-01T01:30:27Z</time>
      </trkpt>
      <trkpt lat="40.004742" lon="-7.176595">
        <ele>353.081</ele>
        <time>2010-01-01T01:30:42Z</time>
      </trkpt>
      <trkpt lat="40.004541" lon="-7.176238">
        <ele>348.070</ele>
        <time>2010-01-01T01:30:55Z</time>
      </trkpt>
      <trkpt lat="40.004305" lon="-7.175821">
        <ele>344.057</ele>
        <time>2010-01-01T01:31:11Z</time>
      </trkpt>
      <trkpt lat="40.004004" lon="-7.175234">
        <ele>341.055</ele>
        <time>2010-01-01T01:31:33Z</time>
      </trkpt>
      <trkpt lat="40.003762" lon="-7.174804">
        <ele>338.096</ele>
        <time>2010-01-01T01:31:49Z</time>
      </trkpt>
      <trkpt lat="40.003587" lon="-7.174575">
        <ele>335.031</ele>
        <time>2010-01-01T01:31:59Z</time>
      </trkpt>
      <trkpt lat="40.003264" lon="-7.174112">
        <ele>331.024</ele>
        <time>2010-01-01T01:32:18Z</time>
      </trkpt>
      <trkpt lat="40.003153" lon="-7.173826">
        <ele>330.008</ele>
        <time>2010-01-01T01:32:28Z</time>
      </trkpt>
      <trkpt lat="40.003096" lon="-7.173729">
        <ele>330.022</ele>
        <time>2010-01-01T01:32:32Z</time>
      </trkpt>
      <trkpt lat="40.002884" lon="-7.173599">
        <ele>330.015</ele>
        <time>2010-01-01T01:32:41Z</time>
      </trkpt>
      <trkpt lat="40.002621" lon="-7.173402">
        <ele>328.098</ele>
        <time>2010-01-01T01:32:54Z</time>
      </trkpt>
      <trkpt lat="40.002223" lon="-7.173081">
        <ele>327.026</ele>
        <time>2010-01-01T01:33:12Z</time>
      </trkpt>
      <trkpt lat="40.001851" lon="-7.172653">
        <ele>328.083</ele>
        <time>2010-01-01T01:33:32Z</time>
      </trkpt>
      <trkpt lat="40.001660" lon="-7.172664">
        <ele>327.052</ele>
        <time>2010-01-01T01:33:40Z</time>
      </trkpt>
      <trkpt lat="40.001520" lon="-7.172503">
        <ele>328.019</ele>
        <time>2010-01-01T01:33:47Z</time>
      </trkpt>
      <trkpt lat="40.001421" lon="-7.172274">
        <ele>329.017</ele>
        <time>2010-01-01T01:33:55Z</time>
      </trkpt>
      <trkpt lat="40.001356" lon="-7.172082">
        <ele>329.053</ele>
        <time>2010-01-01T01:34:02Z</time>
      </trkpt>
      <trkpt lat="40.001308" lon="-7.171687">
        <ele>325.004</ele>
        <time>2010-01-01T01:34:14Z</time>
      </trkpt>
      <trkpt lat="40.001049" lon="-7.171030">
        <ele>318.014</ele>
        <time>2010-01-01T01:34:37Z</time>
      </trkpt>
      <trkpt lat="40.000922" lon="-7.170871">
        <ele>316.008</ele>
        <time>2010-01-01T01:34:44Z</time>
      </trkpt>
      <trkpt lat="40.000557" lon="-7.170399">
        <ele>312.088</ele>
        <time>2010-01-01T01:35:04Z</time>
      </trkpt>
      <trkpt lat="40.000484" lon="-7.170291">
        <ele>311.021</ele>
        <time>2010-01-01T01:35:09Z</time>
      </trkpt>
      <trkpt lat="40.000461" lon="-7.170014">
        <ele>310.084</ele>
        <time>2010-01-01T01:35:17Z</time>
      </trkpt>
      <trkpt lat="40.000389" lon="-7.169733">
        <ele>309.082</ele>
        <time>2010-01-01T01:35:26Z</time>
      </trkpt>
      <trkpt lat="40.000075" lon="-7.169038">
        <ele>304.059</ele>
        <time>2010-01-01T01:35:51Z</time>
      </trkpt>
      <trkpt lat="40.000040" lon="-7.168952">
        <ele>303.018</ele>
        <time>2010-01-01T01:35:54Z</time>
      </trkpt>
      <trkpt lat="40.000048" lon="-7.168534">
        <ele>301.095</ele>
        <time>2010-01-01T01:36:07Z</time>
      </trkpt>
      <trkpt lat="40.000044" lon="-7.167759">
        <ele>298.053</ele>
        <time>2010-01-01T01:36:31Z</time>
      </trkpt>
      <trkpt lat="39.999934" lon="-7.167268">
        <ele>292.071</ele>
        <time>2010-01-01T01:36:46Z</time>
      </trkpt>
      <trkpt lat="39.999639" lon="-7.166666">
        <ele>280.041</ele>
        <time>2010-01-01T01:37:08Z</time>
      </trkpt>
      <trkpt lat="39.999221" lon="-7.166487">
        <ele>276.015</ele>
        <time>2010-01-01T01:37:26Z</time>
      </trkpt>
      <trkpt lat="39.998977" lon="-7.166449">
        <ele>273.008</ele>
        <time>2010-01-01T01:37:36Z</time>
      </trkpt>
      <trkpt lat="39.998781" lon="-7.166351">
        <ele>270.090</ele>
        <time>2010-01-01T01:37:44Z</time>
      </trkpt>
      <trkpt lat="39.998741" lon="-7.166035">
        <ele>267.023</ele>
        <time>2010-01-01T01:37:54Z</time>
      </trkpt>
      <trkpt lat="39.998932" lon="-7.165602">
        <ele>264.046</ele>
        <time>2010-01-01T01:38:09Z</time>
      </trkpt>
      <trkpt lat="39.998995" lon="-7.165306">
        <ele>262.094</ele>
        <time>2010-01-01T01:38:19Z</time>
      </trkpt>
      <trkpt lat="39.999211" lon="-7.164466">
        <ele>264.081</ele>
        <time>2010-01-01T01:38:46Z</time>
      </trkpt>
      <trkpt lat="39.999358" lon="-7.163981">
        <ele>267.010</ele>
        <time>2010-01-01T01:39:02Z</time>
      </trkpt>
      <trkpt lat="39.999649" lon="-7.162936">
        <ele>271.087</ele>
        <time>2010-01-01T01:39:36Z</time>
      </trkpt>
      <trkpt lat="39.999589" lon="-7.162184">
        <ele>271.055</ele>
        <time>2010-01-01T01:39:59Z</time>
      </trkpt>
      <trkpt lat="39.999733" lon="-7.161993">
        <ele>269.098</ele>
        <time>2010-01-01T01:40:07Z</time>
      </trkpt>
      <trkpt lat="39.999930" lon="-7.161799">
        <ele>270.015</ele>
        <time>2010-01-01T01:40:17Z</time>
      </trkpt>
      <trkpt lat="39.999995" lon="-7.161611">
        <ele>271.026</ele>
        <time>2010-01-01T01:40:23Z</time>
      </trkpt>
      <trkpt lat="40.000042" lon="-7.161318">
        <ele>272.008</ele>
        <time>2010-01-01T01:40:33Z</time>
      </trkpt>
      <trkpt lat="39.999994" lon="-7.160776">
        <ele>272.022</ele>
        <time>2010-01-01T01:40:49Z</time>
      </trkpt>
      <trkpt lat="39.999867" lon="-7.160494">
        <ele>273.065</ele>
        <time>2010-01-01T01:40:59Z</time>
      </trkpt>
      <trkpt lat="39.999760" lon="-7.160188">
        <ele>276.018</ele>
        <time>2010-01-01T01:41:10Z</time>
      </trkpt>
      <trkpt lat="39.999834" lon="-7.159871">
        <ele>278.026</ele>
        <time>2010-01-01T01:41:20Z</time>
      </trkpt>
      <trkpt lat="39.999845" lon="-7.159664">
        <ele>278.073</ele>
        <time>2010-01-01T01:41:26Z</time>
      </trkpt>
      <trkpt lat="39.999848" lon="-7.159318">
        <ele>278.042</ele>
        <time>2010-01-01T01:41:37Z</time>
      </trkpt>
      <trkpt lat="39.999662" lon="-7.158885">
        <ele>279.089</ele>
        <time>2010-01-01T01:41:52Z</time>
      </trkpt>
      <trkpt lat="39.999521" lon="-7.158571">
        <ele>278.057</ele>
        <time>2010-01-01T01:42:03Z</time>
      </trkpt>
      <trkpt lat="39.999241" lon="-7.157784">
        <ele>274.048</ele>
        <time>2010-01-01T01:42:30Z</time>
      </trkpt>
      <trkpt lat="39.998920" lon="-7.157026">
        <ele>273.061</ele>
        <time>2010-01-01T01:42:56Z</time>
      </trkpt>
      <trkpt lat="39.998844" lon="-7.156806">
        <ele>272.017</ele>
        <time>2010-01-01T01:43:04Z</time>
      </trkpt>
      <trkpt lat="39.998677" lon="-7.155808">
        <ele>269.008</ele>
        <time>2010-01-01T01:43:35Z</time>
      </trkpt>
      <trkpt lat="39.998643" lon="-7.155419">
        <ele>270.067</ele>
        <time>2010-01-01T01:43:47Z</time>
      </trkpt>
      <trkpt lat="39.998377" lon="-7.154616">
        <ele>271.060</ele>
        <time>2010-01-01T01:44:14Z</time>
      </trkpt>
      <trkpt lat="39.998215" lon="-7.154054">
        <ele>269.053</ele>
        <time>2010-01-01T01:44:32Z</time>
      </trkpt>
      <trkpt lat="39.997800" lon="-7.152161">
        <ele>270.091</ele>
        <time>2010-01-01T01:45:33Z</time>
      </trkpt>
      <trkpt lat="39.997597" lon="-7.151138">
        <ele>271.028</ele>
        <time>2010-01-01T01:46:05Z</time>
      </trkpt>
      <trkpt lat="39.998163" lon="-7.150446">
        <ele>272.087</ele>
        <time>2010-01-01T01:46:36Z</time>
      </trkpt>
      <trkpt lat="39.998695" lon="-7.150657">
        <ele>272.024</ele>
        <time>2010-01-01T01:46:59Z</time>
      </trkpt>
      <trkpt lat="39.998785" lon="-7.150489">
        <ele>273.022</ele>
        <time>2010-01-01T01:47:05Z</time>
      </trkpt>
      <trkpt lat="39.998909" lon="-7.149090">
        <ele>278.077</ele>
        <time>2010-01-01T01:47:48Z</time>
      </trkpt>
      <trkpt lat="39.998990" lon="-7.148083">
        <ele>280.061</ele>
        <time>2010-01-01T01:48:19Z</time>
      </trkpt>
      <trkpt lat="39.998863" lon="-7.147419">
        <ele>279.027</ele>
        <time>2010-01-01T01:48:40Z</time>
      </trkpt>
      <trkpt lat="39.998660" lon="-7.146225">
        <ele>279.008</ele>
        <time>2010-01-01T01:49:18Z</time>
      </trkpt>
      <trkpt lat="39.998439" lon="-7.145124">
        <ele>283.080</ele>
        <time>2010-01-01T01:49:52Z</time>
      </trkpt>
      <trkpt lat="39.998360" lon="-7.144540">
        <ele>283.013</ele>
        <time>2010-01-01T01:50:11Z</time>
      </trkpt>
      <trkpt lat="39.997725" lon="-7.144370">
        <ele>282.036</ele>
        <time>2010-01-01T01:50:37Z</time>
      </trkpt>
      <trkpt lat="39.997719" lon="-7.144036">
        <ele>281.014</ele>
        <time>2010-01-01T01:50:47Z</time>
      </trkpt>
      <trkpt lat="39.997561" lon="-7.143682">
        <ele>281.071</ele>
        <time>2010-01-01T00:00:00Z</time>
      </trkpt>
      <trkpt lat="39.997339" lon="-7.143123">
        <ele>281.060</ele>
        <time>2010-01-01T00:00:19Z</time>
      </trkpt>
      <trkpt lat="39.997072" lon="-7.142882">
        <ele>279.017</ele>
        <time>2010-01-01T00:00:32Z</time>
      </trkpt>
      <trkpt lat="39.996765" lon="-7.142722">
        <ele>277.075</ele>
        <time>2010-01-01T00:00:45Z</time>
      </trkpt>
      <trkpt lat="39.996038" lon="-7.142708">
        <ele>279.092</ele>
        <time>2010-01-01T00:01:14Z</time>
      </trkpt>
      <trkpt lat="39.995598" lon="-7.142657">
        <ele>277.073</ele>
        <time>2010-01-01T00:01:32Z</time>
      </trkpt>
      <trkpt lat="39.995473" lon="-7.142396">
        <ele>273.020</ele>
        <time>2010-01-01T00:01:41Z</time>
      </trkpt>
      <trkpt lat="39.995496" lon="-7.142149">
        <ele>272.008</ele>
        <time>2010-01-01T00:01:49Z</time>
      </trkpt>
      <trkpt lat="39.995482" lon="-7.141621">
        <ele>271.062</ele>
        <time>2010-01-01T00:02:05Z</time>
      </trkpt>
      <trkpt lat="39.995280" lon="-7.141379">
        <ele>272.065</ele>
        <time>2010-01-01T00:02:16Z</time>
      </trkpt>
      <trkpt lat="39.995431" lon="-7.140514">
        <ele>274.048</ele>
        <time>2010-01-01T00:02:43Z</time>
      </trkpt>
      <trkpt lat="39.995718" lon="-7.140046">
        <ele>278.036</ele>
        <time>2010-01-01T00:03:02Z</time>
      </trkpt>
      <trkpt lat="39.996138" lon="-7.139737">
        <ele>281.053</ele>
        <time>2010-01-01T00:03:21Z</time>
      </trkpt>
      <trkpt lat="39.996260" lon="-7.138956">
        <ele>279.042</ele>
        <time>2010-01-01T00:03:45Z</time>
      </trkpt>
      <trkpt lat="39.996457" lon="-7.138485">
        <ele>281.049</ele>
        <time>2010-01-01T00:04:02Z</time>
      </trkpt>
      <trkpt lat="39.996458" lon="-7.137959">
        <ele>280.067</ele>
        <time>2010-01-01T00:04:18Z</time>
      </trkpt>
      <trkpt lat="39.996663" lon="-7.137515">
        <ele>281.092</ele>
        <time>2010-01-01T00:04:34Z</time>
      </trkpt>
      <trkpt lat="39.996942" lon="-7.137247">
        <ele>283.073</ele>
        <time>2010-01-01T00:04:48Z</time>
      </trkpt>
      <trkpt lat="39.997094" lon="-7.136683">
        <ele>282.020</ele>
        <time>2010-01-01T00:05:06Z</time>
      </trkpt>
      <trkpt lat="39.997432" lon="-7.136060">
        <ele>286.008</ele>
        <time>2010-01-01T00:05:30Z</time>
      </trkpt>
      <trkpt lat="39.997631" lon="-7.135800">
        <ele>289.042</ele>
        <time>2010-01-01T00:05:41Z</time>
      </trkpt>
      <trkpt lat="39.997901" lon="-7.135165">
        <ele>298.035</ele>
        <time>2010-01-01T00:06:03Z</time>
      </trkpt>
      <trkpt lat="39.997799" lon="-7.134267">
        <ele>300.018</ele>
        <time>2010-01-01T00:06:31Z</time>
      </trkpt>
      <trkpt lat="39.997866" lon="-7.133860">
        <ele>302.066</ele>
        <time>2010-01-01T00:06:44Z</time>
      </trkpt>
      <trkpt lat="39.997788" lon="-7.133443">
        <ele>302.043</ele>
        <time>2010-01-01T00:06:57Z</time>
      </trkpt>
      <trkpt lat="39.998017" lon="-7.132121">
        <ele>308.012</ele>
        <time>2010-01-01T00:07:38Z</time>
      </trkpt>
      <trkpt lat="39.997995" lon="-7.131464">
        <ele>312.049</ele>
        <time>2010-01-01T00:07:59Z</time>
      </trkpt>
      <trkpt lat="39.997978" lon="-7.130902">
        <ele>313.027</ele>
        <time>2010-01-01T00:08:16Z</time>
      </trkpt>
      <trkpt lat="39.998091" lon="-7.130484">
        <ele>314.096</ele>
        <time>2010-01-01T00:08:29Z</time>
      </trkpt>
      <trkpt lat="39.998086" lon="-7.130310">
        <ele>314.031</ele>
        <time>2010-01-01T00:08:35Z</time>
      </trkpt>
      <trkpt lat="39.997975" lon="-7.129911">
        <ele>316.024</ele>
        <time>2010-01-01T00:08:48Z</time>
      </trkpt>
      <trkpt lat="39.997974" lon="-7.129602">
        <ele>317.008</ele>
        <time>2010-01-01T00:08:57Z</time>
      </trkpt>
      <trkpt lat="39.998098" lon="-7.129058">
        <ele>317.072</ele>
        <time>2010-01-01T00:09:15Z</time>
      </trkpt>
      <trkpt lat="39.998298" lon="-7.128544">
        <ele>319.055</ele>
        <time>2010-01-01T00:09:32Z</time>
      </trkpt>
      <trkpt lat="39.998758" lon="-7.127457">
        <ele>321.038</ele>
        <time>2010-01-01T00:10:10Z</time>
      </trkpt>
      <trkpt lat="39.999072" lon="-7.126970">
        <ele>325.026</ele>
        <time>2010-01-01T00:10:30Z</time>
      </trkpt>
      <trkpt lat="39.999159" lon="-7.126557">
        <ele>324.053</ele>
        <time>2010-01-01T00:10:43Z</time>
      </trkpt>
      <trkpt lat="39.999207" lon="-7.125357">
        <ele>326.092</ele>
        <time>2010-01-01T00:11:20Z</time>
      </trkpt>
      <trkpt lat="39.999363" lon="-7.124780">
        <ele>324.079</ele>
        <time>2010-01-01T00:11:39Z</time>
      </trkpt>
      <trkpt lat="39.999504" lon="-7.124504">
        <ele>323.097</ele>
        <time>2010-01-01T00:11:49Z</time>
      </trkpt>
      <trkpt lat="39.999736" lon="-7.123373">
        <ele>319.099</ele>
        <time>2010-01-01T00:12:25Z</time>
      </trkpt>
      <trkpt lat="39.999553" lon="-7.122720">
        <ele>320.007</ele>
        <time>2010-01-01T00:12:46Z</time>
      </trkpt>
      <trkpt lat="39.999474" lon="-7.121881">
        <ele>316.027</ele>
        <time>2010-01-01T00:13:12Z</time>
      </trkpt>
      <trkpt lat="39.999518" lon="-7.121197">
        <ele>314.008</ele>
        <time>2010-01-01T00:13:33Z</time>
      </trkpt>
      <trkpt lat="39.999434" lon="-7.120751">
        <ele>313.092</ele>
        <time>2010-01-01T00:13:47Z</time>
      </trkpt>
      <trkpt lat="39.999093" lon="-7.119746">
        <ele>309.045</ele>
        <time>2010-01-01T00:14:21Z</time>
      </trkpt>
      <trkpt lat="39.999017" lon="-7.119021">
        <ele>312.038</ele>
        <time>2010-01-01T00:14:43Z</time>
      </trkpt>
      <trkpt lat="39.999262" lon="-7.118735">
        <ele>310.086</ele>
        <time>2010-01-01T00:14:56Z</time>
      </trkpt>
      <trkpt lat="39.999152" lon="-7.117210">
        <ele>319.033</ele>
        <time>2010-01-01T00:15:43Z</time>
      </trkpt>
      <trkpt lat="39.999075" lon="-7.115813">
        <ele>328.032</ele>
        <time>2010-01-01T00:16:26Z</time>
      </trkpt>
      <trkpt lat="39.999017" lon="-7.115488">
        <ele>332.019</ele>
        <time>2010-01-01T00:16:37Z</time>
      </trkpt>
      <trkpt lat="39.998766" lon="-7.114799">
        <ele>336.067</ele>
        <time>2010-01-01T00:17:00Z</time>
      </trkpt>
      <trkpt lat="39.998504" lon="-7.114169">
        <ele>340.032</ele>
        <time>2010-01-01T00:17:22Z</time>
      </trkpt>
      <trkpt lat="39.998280" lon="-7.113605">
        <ele>340.092</ele>
        <time>2010-01-01T00:17:41Z</time>
      </trkpt>
      <trkpt lat="39.998223" lon="-7.113212">
        <ele>341.011</ele>
        <time>2010-01-01T00:17:54Z</time>
      </trkpt>
      <trkpt lat="39.998192" lon="-7.112907">
        <ele>341.008</ele>
        <time>2010-01-01T00:18:03Z</time>
      </trkpt>
      <trkpt lat="39.998404" lon="-7.111961">
        <ele>345.026</ele>
        <time>2010-01-01T00:18:33Z</time>
      </trkpt>
      <trkpt lat="39.998315" lon="-7.111608">
        <ele>346.089</ele>
        <time>2010-01-01T00:18:45Z</time>
      </trkpt>
      <trkpt lat="39.998194" lon="-7.111346">
        <ele>346.012</ele>
        <time>2010-01-01T00:18:54Z</time>
      </trkpt>
      <trkpt lat="39.998112" lon="-7.111187">
        <ele>346.060</ele>
        <time>2010-01-01T00:19:00Z</time>
      </trkpt>
      <trkpt lat="39.997564" lon="-7.110313">
        <ele>347.017</ele>
        <time>2010-01-01T00:19:35Z</time>
      </trkpt>
      <trkpt lat="39.997440" lon="-7.109318">
        <ele>350.026</ele>
        <time>2010-01-01T00:20:06Z</time>
      </trkpt>
      <trkpt lat="39.997353" lon="-7.108656">
        <ele>352.023</ele>
        <time>2010-01-01T00:20:26Z</time>
      </trkpt>
      <trkpt lat="39.997873" lon="-7.108474">
        <ele>357.081</ele>
        <time>2010-01-01T00:20:48Z</time>
      </trkpt>
      <trkpt lat="39.998043" lon="-7.108269">
        <ele>360.076</ele>
        <time>2010-01-01T00:20:57Z</time>
      </trkpt>
      <trkpt lat="39.998268" lon="-7.108061">
        <ele>363.090</ele>
        <time>2010-01-01T00:21:08Z</time>
      </trkpt>
      <trkpt lat="39.998010" lon="-7.107155">
        <ele>363.019</ele>
        <time>2010-01-01T00:21:38Z</time>
      </trkpt>
      <trkpt lat="39.998303" lon="-7.106488">
        <ele>368.008</ele>
        <time>2010-01-01T00:22:01Z</time>
      </trkpt>
      <trkpt lat="39.998511" lon="-7.106225">
        <ele>371.010</ele>
        <time>2010-01-01T00:22:13Z</time>
      </trkpt>
      <trkpt lat="39.998450" lon="-7.106036">
        <ele>371.073</ele>
        <time>2010-01-01T00:22:19Z</time>
      </trkpt>
      <trkpt lat="39.998180" lon="-7.106049">
        <ele>367.086</ele>
        <time>2010-01-01T00:22:30Z</time>
      </trkpt>
      <trkpt lat="39.997705" lon="-7.103060">
        <ele>373.094</ele>
        <time>2010-01-01T00:24:04Z</time>
      </trkpt>
      <trkpt lat="39.997588" lon="-7.102506">
        <ele>368.091</ele>
        <time>2010-01-01T00:24:21Z</time>
      </trkpt>
      <trkpt lat="39.997703" lon="-7.101951">
        <ele>368.020</ele>
        <time>2010-01-01T00:24:39Z</time>
      </trkpt>
      <trkpt lat="39.997621" lon="-7.101050">
        <ele>361.057</ele>
        <time>2010-01-01T00:25:07Z</time>
      </trkpt>
      <trkpt lat="39.997883" lon="-7.100277">
        <ele>355.075</ele>
        <time>2010-01-01T00:25:33Z</time>
      </trkpt>
      <trkpt lat="39.998249" lon="-7.099835">
        <ele>351.031</ele>
        <time>2010-01-01T00:25:53Z</time>
      </trkpt>
      <trkpt lat="39.998784" lon="-7.098775">
        <ele>346.061</ele>
        <time>2010-01-01T00:26:31Z</time>
      </trkpt>
      <trkpt lat="39.998860" lon="-7.097091">
        <ele>333.007</ele>
        <time>2010-01-01T00:27:23Z</time>
      </trkpt>
      <trkpt lat="39.998978" lon="-7.096551">
        <ele>333.008</ele>
        <time>2010-01-01T00:27:40Z</time>
      </trkpt>
      <trkpt lat="39.999172" lon="-7.095344">
        <ele>334.096</ele>
        <time>2010-01-01T00:28:18Z</time>
      </trkpt>
      <trkpt lat="39.999115" lon="-7.094697">
        <ele>332.069</ele>
        <time>2010-01-01T00:28:38Z</time>
      </trkpt>
      <trkpt lat="39.999248" lon="-7.094198">
        <ele>331.052</ele>
        <time>2010-01-01T00:28:54Z</time>
      </trkpt>
      <trkpt lat="39.999195" lon="-7.093739">
        <ele>334.020</ele>
        <time>2010-01-01T00:29:09Z</time>
      </trkpt>
      <trkpt lat="39.999544" lon="-7.092944">
        <ele>334.027</ele>
        <time>2010-01-01T00:29:37Z</time>
      </trkpt>
      <trkpt lat="40.000184" lon="-7.093504">
        <ele>335.066</ele>
        <time>2010-01-01T00:30:08Z</time>
      </trkpt>
      <trkpt lat="40.000839" lon="-7.092980">
        <ele>335.053</ele>
        <time>2010-01-01T00:30:38Z</time>
      </trkpt>
      <trkpt lat="40.002105" lon="-7.092921">
        <ele>341.011</ele>
        <time>2010-01-01T00:31:29Z</time>
      </trkpt>
      <trkpt lat="40.003573" lon="-7.093229">
        <ele>350.097</ele>
        <time>2010-01-01T00:32:29Z</time>
      </trkpt>
      <trkpt lat="40.004564" lon="-7.093121">
        <ele>354.023</ele>
        <time>2010-01-01T00:33:08Z</time>
      </trkpt>
      <trkpt lat="40.004893" lon="-7.093385">
        <ele>358.025</ele>
        <time>2010-01-01T00:33:24Z</time>
      </trkpt>
      <trkpt lat="40.005070" lon="-7.093900">
        <ele>359.008</ele>
        <time>2010-01-01T00:33:41Z</time>
      </trkpt>
      <trkpt lat="40.005570" lon="-7.094508">
        <ele>365.032</ele>
        <time>2010-01-01T00:34:08Z</time>
      </trkpt>
      <trkpt lat="40.005616" lon="-7.095182">
        <ele>366.055</ele>
        <time>2010-01-01T00:34:29Z</time>
      </trkpt>
      <trkpt lat="40.006146" lon="-7.095449">
        <ele>370.028</ele>
        <time>2010-01-01T00:34:52Z</time>
      </trkpt>
      <trkpt lat="40.006331" lon="-7.095668">
        <ele>369.096</ele>
        <time>2010-01-01T00:35:02Z</time>
      </trkpt>
      <trkpt lat="40.006551" lon="-7.095734">
        <ele>370.073</ele>
        <time>2010-01-01T00:35:11Z</time>
      </trkpt>
      <trkpt lat="40.007372" lon="-7.096091">
        <ele>372.092</ele>
        <time>2010-01-01T00:35:46Z</time>
      </trkpt>
      <trkpt lat="40.008001" lon="-7.096127">
        <ele>377.029</ele>
        <time>2010-01-01T00:36:11Z</time>
      </trkpt>
      <trkpt lat="40.008239" lon="-7.096064">
        <ele>380.067</ele>
        <time>2010-01-01T00:36:21Z</time>
      </trkpt>
      <trkpt lat="40.008537" lon="-7.096213">
        <ele>382.032</ele>
        <time>2010-01-01T00:36:33Z</time>
      </trkpt>
      <trkpt lat="40.008825" lon="-7.096145">
        <ele>383.092</ele>
        <time>2010-01-01T00:36:45Z</time>
      </trkpt>
      <trkpt lat="40.009174" lon="-7.096232">
        <ele>382.011</ele>
        <time>2010-01-01T00:36:59Z</time>
      </trkpt>
      <trkpt lat="40.009427" lon="-7.096349">
        <ele>382.008</ele>
        <time>2010-01-01T00:37:10Z</time>
      </trkpt>
      <trkpt lat="40.009633" lon="-7.096301">
        <ele>380.056</ele>
        <time>2010-01-01T00:37:18Z</time>
      </trkpt>
      <trkpt lat="40.009848" lon="-7.096225">
        <ele>379.019</ele>
        <time>2010-01-01T00:37:27Z</time>
      </trkpt>
      <trkpt lat="40.009899" lon="-7.096106">
        <ele>378.042</ele>
        <time>2010-01-01T00:37:31Z</time>
      </trkpt>
      <trkpt lat="40.010028" lon="-7.096080">
        <ele>378.090</ele>
        <time>2010-01-01T00:37:37Z</time>
      </trkpt>
      <trkpt lat="40.010276" lon="-7.095809">
        <ele>378.017</ele>
        <time>2010-01-01T00:37:50Z</time>
      </trkpt>
      <trkpt lat="40.010856" lon="-7.095663">
        <ele>373.016</ele>
        <time>2010-01-01T00:38:13Z</time>
      </trkpt>
      <trkpt lat="40.010928" lon="-7.095549">
        <ele>372.093</ele>
        <time>2010-01-01T00:38:18Z</time>
      </trkpt>
      <trkpt lat="40.011340" lon="-7.095429">
        <ele>366.041</ele>
        <time>2010-01-01T00:38:35Z</time>
      </trkpt>
      <trkpt lat="40.011580" lon="-7.095315">
        <ele>364.079</ele>
        <time>2010-01-01T00:38:45Z</time>
      </trkpt>
      <trkpt lat="40.011868" lon="-7.095102">
        <ele>363.005</ele>
        <time>2010-01-01T00:38:58Z</time>
      </trkpt>
      <trkpt lat="40.011990" lon="-7.095033">
        <ele>362.025</ele>
        <time>2010-01-01T00:39:04Z</time>
      </trkpt>
      <trkpt lat="40.012159" lon="-7.095067">
        <ele>362.008</ele>
        <time>2010-01-01T00:39:10Z</time>
      </trkpt>
      <trkpt lat="40.012736" lon="-7.095686">
        <ele>367.010</ele>
        <time>2010-01-01T00:39:40Z</time>
      </trkpt>
      <trkpt lat="40.012807" lon="-7.096042">
        <ele>368.063</ele>
        <time>2010-01-01T00:39:52Z</time>
      </trkpt>
      <trkpt lat="40.012558" lon="-7.096380">
        <ele>364.016</ele>
        <time>2010-01-01T00:40:06Z</time>
      </trkpt>
      <trkpt lat="40.012426" lon="-7.096736">
        <ele>362.034</ele>
        <time>2010-01-01T00:40:18Z</time>
      </trkpt>
      <trkpt lat="40.012354" lon="-7.097087">
        <ele>363.011</ele>
        <time>2010-01-01T00:40:29Z</time>
      </trkpt>
      <trkpt lat="40.012212" lon="-7.097464">
        <ele>363.070</ele>
        <time>2010-01-01T00:40:42Z</time>
      </trkpt>
      <trkpt lat="40.012361" lon="-7.097732">
        <ele>367.087</ele>
        <time>2010-01-01T00:40:52Z</time>
      </trkpt>
      <trkpt lat="40.012132" lon="-7.098773">
        <ele>372.035</ele>
        <time>2010-01-01T00:41:25Z</time>
      </trkpt>
      <trkpt lat="40.012233" lon="-7.099006">
        <ele>376.016</ele>
        <time>2010-01-01T00:41:34Z</time>
      </trkpt>
      <trkpt lat="40.012219" lon="-7.099439">
        <ele>379.076</ele>
        <time>2010-01-01T00:41:47Z</time>
      </trkpt>
      <trkpt lat="40.012297" lon="-7.099663">
        <ele>383.013</ele>
        <time>2010-01-01T00:41:55Z</time>
      </trkpt>
      <trkpt lat="40.012303" lon="-7.100563">
        <ele>386.008</ele>
        <time>2010-01-01T00:42:22Z</time>
      </trkpt>
      <trkpt lat="40.012436" lon="-7.100977">
        <ele>390.024</ele>
        <time>2010-01-01T00:42:36Z</time>
      </trkpt>
      <trkpt lat="40.012461" lon="-7.101584">
        <ele>392.037</ele>
        <time>2010-01-01T00:42:55Z</time>
      </trkpt>
      <trkpt lat="40.012469" lon="-7.101772">
        <ele>393.070</ele>
        <time>2010-01-01T00:43:00Z</time>
      </trkpt>
      <trkpt lat="40.012806" lon="-7.102410">
        <ele>398.018</ele>
        <time>2010-01-01T00:43:24Z</time>
      </trkpt>
      <trkpt lat="40.012970" lon="-7.102584">
        <ele>400.065</ele>
        <time>2010-01-01T00:43:32Z</time>
      </trkpt>
      <trkpt lat="40.013126" lon="-7.102606">
        <ele>402.064</ele>
        <time>2010-01-01T00:43:39Z</time>
      </trkpt>
      <trkpt lat="40.013164" lon="-7.102976">
        <ele>400.091</ele>
        <time>2010-01-01T00:43:50Z</time>
      </trkpt>
      <trkpt lat="40.013568" lon="-7.103314">
        <ele>403.029</ele>
        <time>2010-01-01T00:44:09Z</time>
      </trkpt>
      <trkpt lat="40.013767" lon="-7.102925">
        <ele>406.053</ele>
        <time>2010-01-01T00:44:24Z</time>
      </trkpt>
      <trkpt lat="40.014121" lon="-7.102835">
        <ele>409.004</ele>
        <time>2010-01-01T00:44:38Z</time>
      </trkpt>
      <trkpt lat="40.014139" lon="-7.102518">
        <ele>411.014</ele>
        <time>2010-01-01T00:44:48Z</time>
      </trkpt>
      <trkpt lat="40.014508" lon="-7.102079">
        <ele>413.008</ele>
        <time>2010-01-01T00:45:08Z</time>
      </trkpt>
      <trkpt lat="40.014709" lon="-7.102089">
        <ele>413.038</ele>
        <time>2010-01-01T00:45:16Z</time>
      </trkpt>
      <trkpt lat="40.014987" lon="-7.101685">
        <ele>413.081</ele>
        <time>2010-01-01T00:45:33Z</time>
      </trkpt>
      <trkpt lat="40.015186" lon="-7.101598">
        <ele>413.084</ele>
        <time>2010-01-01T00:45:41Z</time>
      </trkpt>
      <trkpt lat="40.015382" lon="-7.101251">
        <ele>412.072</ele>
        <time>2010-01-01T00:45:54Z</time>
      </trkpt>
      <trkpt lat="40.015911" lon="-7.101195">
        <ele>414.079</ele>
        <time>2010-01-01T00:46:16Z</time>
      </trkpt>
      <trkpt lat="40.016297" lon="-7.100812">
        <ele>419.028</ele>
        <time>2010-01-01T00:46:35Z</time>
      </trkpt>
      <trkpt lat="40.016635" lon="-7.100913">
        <ele>426.085</ele>
        <time>2010-01-01T00:46:49Z</time>
      </trkpt>
      <trkpt lat="40.016811" lon="-7.101086">
        <ele>427.023</ele>
        <time>2010-01-01T00:46:58Z</time>
      </trkpt>
      <trkpt lat="40.016947" lon="-7.101148">
        <ele>428.019</ele>
        <time>2010-01-01T00:47:03Z</time>
      </trkpt>
      <trkpt lat="40.017265" lon="-7.100958">
        <ele>431.009</ele>
        <time>2010-01-01T00:47:17Z</time>
      </trkpt>
      <trkpt lat="40.017434" lon="-7.101131">
        <ele>431.019</ele>
        <time>2010-01-01T00:47:26Z</time>
      </trkpt>
      <trkpt lat="40.017814" lon="-7.101060">
        <ele>432.008</ele>
        <time>2010-01-01T00:47:41Z</time>
      </trkpt>
      <trkpt lat="40.018142" lon="-7.101154">
        <ele>433.094</ele>
        <time>2010-01-01T00:47:55Z</time>
      </trkpt>
      <trkpt lat="40.018538" lon="-7.101473">
        <ele>435.027</ele>
        <time>2010-01-01T00:48:13Z</time>
      </trkpt>
      <trkpt lat="40.018563" lon="-7.101692">
        <ele>436.070</ele>
        <time>2010-01-01T00:48:20Z</time>
      </trkpt>
      <trkpt lat="40.019149" lon="-7.101727">
        <ele>444.058</ele>
        <time>2010-01-01T00:48:44Z</time>
      </trkpt>
      <trkpt lat="40.019389" lon="-7.101552">
        <ele>444.015</ele>
        <time>2010-01-01T00:48:55Z</time>
      </trkpt>
      <trkpt lat="40.019615" lon="-7.101990">
        <ele>448.064</ele>
        <time>2010-01-01T00:49:11Z</time>
      </trkpt>
      <trkpt lat="40.020028" lon="-7.102085">
        <ele>451.061</ele>
        <time>2010-01-01T00:49:28Z</time>
      </trkpt>
      <trkpt lat="40.020365" lon="-7.102395">
        <ele>455.029</ele>
        <time>2010-01-01T00:49:44Z</time>
      </trkpt>
      <trkpt lat="40.020635" lon="-7.102606">
        <ele>457.051</ele>
        <time>2010-01-01T00:49:57Z</time>
      </trkpt>
      <trkpt lat="40.021169" lon="-7.102659">
        <ele>454.001</ele>
        <time>2010-01-01T00:50:18Z</time>
      </trkpt>
      <trkpt lat="40.021753" lon="-7.102717">
        <ele>452.011</ele>
        <time>2010-01-01T00:50:42Z</time>
      </trkpt>
      <trkpt lat="40.022001" lon="-7.102773">
        <ele>451.008</ele>
        <time>2010-01-01T00:50:52Z</time>
      </trkpt>
      <trkpt lat="40.022161" lon="-7.102803">
        <ele>450.068</ele>
        <time>2010-01-01T00:50:58Z</time>
      </trkpt>
      <trkpt lat="40.022361" lon="-7.103329">
        <ele>453.031</ele>
        <time>2010-01-01T00:51:16Z</time>
      </trkpt>
      <trkpt lat="40.022623" lon="-7.103456">
        <ele>454.044</ele>
        <time>2010-01-01T00:51:27Z</time>
      </trkpt>
      <trkpt lat="40.023155" lon="-7.103414">
        <ele>457.032</ele>
        <time>2010-01-01T00:51:49Z</time>
      </trkpt>
      <trkpt lat="40.023549" lon="-7.103380">
        <ele>459.019</ele>
        <time>2010-01-01T00:52:05Z</time>
      </trkpt>
      <trkpt lat="40.023713" lon="-7.103398">
        <ele>460.018</ele>
        <time>2010-01-01T00:52:11Z</time>
      </trkpt>
      <trkpt lat="40.024167" lon="-7.103512">
        <ele>461.025</ele>
        <time>2010-01-01T00:52:30Z</time>
      </trkpt>
      <trkpt lat="40.024871" lon="-7.103803">
        <ele>467.033</ele>
        <time>2010-01-01T00:52:59Z</time>
      </trkpt>
      <trkpt lat="40.025321" lon="-7.103935">
        <ele>469.073</ele>
        <time>2010-01-01T00:53:18Z</time>
      </trkpt>
      <trkpt lat="40.025830" lon="-7.103973">
        <ele>473.085</ele>
        <time>2010-01-01T00:53:38Z</time>
      </trkpt>
      <trkpt lat="40.026095" lon="-7.104043">
        <ele>474.013</ele>
        <time>2010-01-01T00:53:49Z</time>
      </trkpt>
      <trkpt lat="40.026200" lon="-7.104108">
        <ele>474.008</ele>
        <time>2010-01-01T00:53:54Z</time>
      </trkpt>
      <trkpt lat="40.026590" lon="-7.103989">
        <ele>479.090</ele>
        <time>2010-01-01T00:54:10Z</time>
      </trkpt>
      <trkpt lat="40.026831" lon="-7.103953">
        <ele>481.093</ele>
        <time>2010-01-01T00:54:19Z</time>
      </trkpt>
      <trkpt lat="40.027129" lon="-7.103901">
        <ele>482.076</ele>
        <time>2010-01-01T00:54:31Z</time>
      </trkpt>
      <trkpt lat="40.027406" lon="-7.103841">
        <ele>484.034</ele>
        <time>2010-01-01T00:54:43Z</time>
      </trkpt>
      <trkpt lat="40.027955" lon="-7.103920">
        <ele>488.021</ele>
        <time>2010-01-01T00:55:05Z</time>
      </trkpt>
      <trkpt lat="40.028371" lon="-7.103964">
        <ele>494.010</ele>
        <time>2010-01-01T00:55:21Z</time>
      </trkpt>
      <trkpt lat="40.028531" lon="-7.103972">
        <ele>495.047</ele>
        <time>2010-01-01T00:55:28Z</time>
      </trkpt>
      <trkpt lat="40.028655" lon="-7.103933">
        <ele>496.045</ele>
        <time>2010-01-01T00:55:33Z</time>
      </trkpt>
      <trkpt lat="40.028739" lon="-7.104084">
        <ele>496.095</ele>
        <time>2010-01-01T00:55:39Z</time>
      </trkpt>
      <trkpt lat="40.028784" lon="-7.104402">
        <ele>495.049</ele>
        <time>2010-01-01T00:55:49Z</time>
      </trkpt>
      <trkpt lat="40.028859" lon="-7.104636">
        <ele>493.023</ele>
        <time>2010-01-01T00:55:56Z</time>
      </trkpt>
      <trkpt lat="40.028970" lon="-7.104844">
        <ele>491.008</ele>
        <time>2010-01-01T00:56:04Z</time>
      </trkpt>
      <trkpt lat="40.029097" lon="-7.104935">
        <ele>489.052</ele>
        <time>2010-01-01T00:56:10Z</time>
      </trkpt>
      <trkpt lat="40.029208" lon="-7.104988">
        <ele>487.095</ele>
        <time>2010-01-01T00:56:15Z</time>
      </trkpt>
      <trkpt lat="40.029438" lon="-7.104987">
        <ele>484.098</ele>
        <time>2010-01-01T00:56:24Z</time>
      </trkpt>
      <trkpt lat="40.029689" lon="-7.105140">
        <ele>480.096</ele>
        <time>2010-01-01T00:56:35Z</time>
      </trkpt>
      <trkpt lat="40.030041" lon="-7.105342">
        <ele>476.073</ele>
        <time>2010-01-01T00:56:50Z</time>
      </trkpt>
      <trkpt lat="40.030329" lon="-7.105431">
        <ele>474.052</ele>
        <time>2010-01-01T00:57:02Z</time>
      </trkpt>
      <trkpt lat="40.030449" lon="-7.105550">
        <ele>475.059</ele>
        <time>2010-01-01T00:57:08Z</time>
      </trkpt>
      <trkpt lat="40.030713" lon="-7.105512">
        <ele>477.097</ele>
        <time>2010-01-01T00:57:19Z</time>
      </trkpt>
      <trkpt lat="40.030906" lon="-7.105839">
        <ele>477.099</ele>
        <time>2010-01-01T00:57:31Z</time>
      </trkpt>
      <trkpt lat="40.030716" lon="-7.106786">
        <ele>471.007</ele>
        <time>2010-01-01T00:58:01Z</time>
      </trkpt>
      <trkpt lat="40.030720" lon="-7.106993">
        <ele>470.027</ele>
        <time>2010-01-01T00:58:08Z</time>
      </trkpt>
      <trkpt lat="40.030808" lon="-7.107001">
        <ele>471.008</ele>
        <time>2010-01-01T00:58:11Z</time>
      </trkpt>
      <trkpt lat="40.030834" lon="-7.107196">
        <ele>468.042</ele>
        <time>2010-01-01T00:58:17Z</time>
      </trkpt>
      <trkpt lat="40.031032" lon="-7.107293">
        <ele>467.095</ele>
        <time>2010-01-01T00:58:26Z</time>
      </trkpt>
      <trkpt lat="40.031125" lon="-7.107404">
        <ele>467.088</ele>
        <time>2010-01-01T00:58:31Z</time>
      </trkpt>
      <trkpt lat="40.031385" lon="-7.107446">
        <ele>469.066</ele>
        <time>2010-01-01T00:58:41Z</time>
      </trkpt>
      <trkpt lat="40.031467" lon="-7.107640">
        <ele>470.083</ele>
        <time>2010-01-01T00:58:48Z</time>
      </trkpt>
      <trkpt lat="40.031904" lon="-7.107382">
        <ele>475.062</ele>
        <time>2010-01-01T00:59:07Z</time>
      </trkpt>
      <trkpt lat="40.031569" lon="-7.108157">
        <ele>478.069</ele>
        <time>2010-01-01T00:59:35Z</time>
      </trkpt>
      <trkpt lat="40.031829" lon="-7.108040">
        <ele>485.077</ele>
        <time>2010-01-01T00:59:46Z</time>
      </trkpt>
      <trkpt lat="40.032261" lon="-7.107647">
        <ele>486.084</ele>
        <time>2010-01-01T01:00:07Z</time>
      </trkpt>
      <trkpt lat="40.032623" lon="-7.107637">
        <ele>489.007</ele>
        <time>2010-01-01T01:00:21Z</time>
      </trkpt>
      <trkpt lat="40.032943" lon="-7.107356">
        <ele>490.017</ele>
        <time>2010-01-01T01:00:37Z</time>
      </trkpt>
      <trkpt lat="40.033411" lon="-7.107267">
        <ele>497.008</ele>
        <time>2010-01-01T01:00:56Z</time>
      </trkpt>
      <trkpt lat="40.033728" lon="-7.107220">
        <ele>503.011</ele>
        <time>2010-01-01T01:01:08Z</time>
      </trkpt>
      <trkpt lat="40.034012" lon="-7.107123">
        <ele>506.014</ele>
        <time>2010-01-01T01:01:20Z</time>
      </trkpt>
      <trkpt lat="40.034362" lon="-7.106878">
        <ele>507.087</ele>
        <time>2010-01-01T01:01:36Z</time>
      </trkpt>
      <trkpt lat="40.034459" lon="-7.106756">
        <ele>506.025</ele>
        <time>2010-01-01T01:01:41Z</time>
      </trkpt>
      <trkpt lat="40.034604" lon="-7.106634">
        <ele>505.092</ele>
        <time>2010-01-01T01:01:48Z</time>
      </trkpt>
      <trkpt lat="40.034840" lon="-7.106638">
        <ele>508.071</ele>
        <time>2010-01-01T01:01:58Z</time>
      </trkpt>
      <trkpt lat="40.034992" lon="-7.106652">
        <ele>509.068</ele>
        <time>2010-01-01T01:02:04Z</time>
      </trkpt>
      <trkpt lat="40.035196" lon="-7.106465">
        <ele>508.046</ele>
        <time>2010-01-01T01:02:14Z</time>
      </trkpt>
      <trkpt lat="40.035293" lon="-7.106780">
        <ele>512.079</ele>
        <time>2010-01-01T01:02:24Z</time>
      </trkpt>
      <trkpt lat="40.035560" lon="-7.106806">
        <ele>514.005</ele>
        <time>2010-01-01T01:02:35Z</time>
      </trkpt>
      <trkpt lat="40.035784" lon="-7.106847">
        <ele>515.025</ele>
        <time>2010-01-01T01:02:44Z</time>
      </trkpt>
      <trkpt lat="40.036006" lon="-7.106781">
        <ele>515.008</ele>
        <time>2010-01-01T01:02:53Z</time>
      </trkpt>
      <trkpt lat="40.036310" lon="-7.106905">
        <ele>517.090</ele>
        <time>2010-01-01T01:03:06Z</time>
      </trkpt>
      <trkpt lat="40.036795" lon="-7.106718">
        <ele>513.033</ele>
        <time>2010-01-01T01:03:26Z</time>
      </trkpt>
      <trkpt lat="40.037915" lon="-7.107017">
        <ele>521.056</ele>
        <time>2010-01-01T01:04:12Z</time>
      </trkpt>
      <trkpt lat="40.038500" lon="-7.107401">
        <ele>538.014</ele>
        <time>2010-01-01T01:04:38Z</time>
      </trkpt>
      <trkpt lat="40.039152" lon="-7.107422">
        <ele>541.051</ele>
        <time>2010-01-01T01:05:04Z</time>
      </trkpt>
      <trkpt lat="40.039440" lon="-7.107539">
        <ele>543.010</ele>
        <time>2010-01-01T01:05:16Z</time>
      </trkpt>
      <trkpt lat="40.039524" lon="-7.107672">
        <ele>549.047</ele>
        <time>2010-01-01T01:05:22Z</time>
      </trkpt>
      <trkpt lat="40.039843" lon="-7.107897">
        <ele>555.035</ele>
        <time>2010-01-01T01:05:36Z</time>
      </trkpt>
      <trkpt lat="40.040065" lon="-7.108191">
        <ele>562.031</ele>
        <time>2010-01-01T01:05:49Z</time>
      </trkpt>
      <trkpt lat="40.040200" lon="-7.108431">
        <ele>567.061</ele>
        <time>2010-01-01T01:05:58Z</time>
      </trkpt>
      <trkpt lat="40.040286" lon="-7.108667">
        <ele>571.007</ele>
        <time>2010-01-01T01:06:06Z</time>
      </trkpt>
      <trkpt lat="40.040520" lon="-7.108898">
        <ele>568.008</ele>
        <time>2010-01-01T01:06:18Z</time>
      </trkpt>
      <trkpt lat="40.040465" lon="-7.109534">
        <ele>584.036</ele>
        <time>2010-01-01T01:06:37Z</time>
      </trkpt>
      <trkpt lat="40.040608" lon="-7.110312">
        <ele>588.079</ele>
        <time>2010-01-01T01:07:02Z</time>
      </trkpt>
      <trkpt lat="40.040503" lon="-7.110383">
        <ele>592.082</ele>
        <time>2010-01-01T01:07:06Z</time>
      </trkpt>
      <trkpt lat="40.040326" lon="-7.109958">
        <ele>593.060</ele>
        <time>2010-01-01T01:07:21Z</time>
      </trkpt>
      <trkpt lat="40.040241" lon="-7.109970">
        <ele>595.097</ele>
        <time>2010-01-01T01:07:25Z</time>
      </trkpt>
      <trkpt lat="40.040198" lon="-7.110203">
        <ele>600.036</ele>
        <time>2010-01-01T01:07:32Z</time>
      </trkpt>
      <trkpt lat="40.040198" lon="-7.110217">
        <ele>600.053</ele>
        <time>2010-01-01T01:07:32Z</time>
      </trkpt>
      <trkpt lat="40.040227" lon="-7.110630">
        <ele>604.041</ele>
        <time>2010-01-01T01:07:45Z</time>
      </trkpt>
      <trkpt lat="40.040227" lon="-7.110644">
        <ele>604.087</ele>
        <time>2010-01-01T01:07:46Z</time>
      </trkpt>
      <trkpt lat="40.040187" lon="-7.111340">
        <ele>610.042</ele>
        <time>2010-01-01T01:08:07Z</time>
      </trkpt>
      <trkpt lat="40.040167" lon="-7.111591">
        <ele>611.026</ele>
        <time>2010-01-01T01:08:15Z</time>
      </trkpt>
      <trkpt lat="40.040175" lon="-7.112374">
        <ele>613.008</ele>
        <time>2010-01-01T01:08:39Z</time>
      </trkpt>
      <trkpt lat="40.039909" lon="-7.113103">
        <ele>632.071</ele>
        <time>2010-01-01T01:09:03Z</time>
      </trkpt>
      <trkpt lat="40.039893" lon="-7.113384">
        <ele>634.034</ele>
        <time>2010-01-01T01:09:12Z</time>
      </trkpt>
      <trkpt lat="40.039960" lon="-7.113867">
        <ele>633.047</ele>
        <time>2010-01-01T01:09:27Z</time>
      </trkpt>
      <trkpt lat="40.039941" lon="-7.114118">
        <ele>633.095</ele>
        <time>2010-01-01T01:09:35Z</time>
      </trkpt>
      <trkpt lat="40.039750" lon="-7.114249">
        <ele>639.052</ele>
        <time>2010-01-01T01:09:43Z</time>
      </trkpt>
      <trkpt lat="40.039749" lon="-7.114220">
        <ele>639.031</ele>
        <time>2019-05-29T17:51:22Z</time>
      </trkpt>
      <trkpt lat="40.039529" lon="-7.114337">
        <ele>647.098</ele>
        <time>2019-05-29T17:51:42Z</time>
      </trkpt>
      <trkpt lat="40.039363" lon="-7.114330">
        <ele>652.076</ele>
        <time>2019-05-29T17:52:02Z</time>
      </trkpt>
      <trkpt lat="40.039215" lon="-7.114668">
        <ele>656.097</ele>
        <time>2019-05-29T17:52:22Z</time>
      </trkpt>
      <trkpt lat="40.039183" lon="-7.115170">
        <ele>656.023</ele>
        <time>2019-05-29T17:52:42Z</time>
      </trkpt>
      <trkpt lat="40.039353" lon="-7.115230">
        <ele>651.025</ele>
        <time>2019-05-29T17:53:02Z</time>
      </trkpt>
      <trkpt lat="40.039454" lon="-7.115498">
        <ele>649.008</ele>
        <time>2019-05-29T17:53:22Z</time>
      </trkpt>
      <trkpt lat="40.039609" lon="-7.115559">
        <ele>644.032</ele>
        <time>2019-05-29T17:53:42Z</time>
      </trkpt>
      <trkpt lat="40.039773" lon="-7.115752">
        <ele>638.025</ele>
        <time>2019-05-29T17:54:02Z</time>
      </trkpt>
      <trkpt lat="40.039760" lon="-7.115977">
        <ele>634.018</ele>
        <time>2019-05-29T17:54:22Z</time>
      </trkpt>
      <trkpt lat="40.039556" lon="-7.116107">
        <ele>636.026</ele>
        <time>2019-05-29T17:54:42Z</time>
      </trkpt>
      <trkpt lat="40.039285" lon="-7.116148">
        <ele>639.093</ele>
        <time>2019-05-29T17:55:02Z</time>
      </trkpt>
      <trkpt lat="40.039057" lon="-7.116177">
        <ele>639.012</ele>
        <time>2019-05-29T17:55:22Z</time>
      </trkpt>
      <trkpt lat="40.038978" lon="-7.116290">
        <ele>635.039</ele>
        <time>2019-05-29T17:55:42Z</time>
      </trkpt>
      <trkpt lat="40.038811" lon="-7.116415">
        <ele>630.027</ele>
        <time>2019-05-29T17:56:02Z</time>
      </trkpt>
      <trkpt lat="40.038816" lon="-7.116710">
        <ele>622.093</ele>
        <time>2019-05-29T17:56:22Z</time>
      </trkpt>
      <trkpt lat="40.038770" lon="-7.117014">
        <ele>614.065</ele>
        <time>2019-05-29T17:56:42Z</time>
      </trkpt>
      <trkpt lat="40.038849" lon="-7.117050">
        <ele>613.021</ele>
        <time>2019-05-29T17:57:02Z</time>
      </trkpt>
      <trkpt lat="40.039076" lon="-7.116831">
        <ele>618.008</ele>
        <time>2019-05-29T17:57:22Z</time>
      </trkpt>
      <trkpt lat="40.039266" lon="-7.116731">
        <ele>619.042</ele>
        <time>2019-05-29T17:57:42Z</time>
      </trkpt>
      <trkpt lat="40.039480" lon="-7.116793">
        <ele>614.055</ele>
        <time>2019-05-29T17:58:02Z</time>
      </trkpt>
      <trkpt lat="40.039827" lon="-7.116549">
        <ele>616.048</ele>
        <time>2019-05-29T17:58:22Z</time>
      </trkpt>
      <trkpt lat="40.039992" lon="-7.116469">
        <ele>615.086</ele>
        <time>2019-05-29T17:58:42Z</time>
      </trkpt>
      <trkpt lat="40.040125" lon="-7.116409">
        <ele>615.093</ele>
        <time>2019-05-29T17:59:02Z</time>
      </trkpt>
      <trkpt lat="40.040376" lon="-7.116463">
        <ele>609.082</ele>
        <time>2019-05-29T17:59:22Z</time>
      </trkpt>
      <trkpt lat="40.040752" lon="-7.116342">
        <ele>606.029</ele>
        <time>2019-05-29T17:59:42Z</time>
      </trkpt>
      <trkpt lat="40.040893" lon="-7.116428">
        <ele>603.017</ele>
        <time>2019-05-29T18:00:02Z</time>
      </trkpt>
      <trkpt lat="40.040906" lon="-7.116533">
        <ele>602.013</ele>
        <time>2019-05-29T18:00:22Z</time>
      </trkpt>
      <trkpt lat="40.040816" lon="-7.116652">
        <ele>601.043</ele>
        <time>2019-05-29T18:00:42Z</time>
      </trkpt>
      <trkpt lat="40.040679" lon="-7.116734">
        <ele>599.007</ele>
        <time>2019-05-29T18:01:02Z</time>
      </trkpt>
      <trkpt lat="40.040601" lon="-7.116852">
        <ele>595.008</ele>
        <time>2019-05-29T18:01:22Z</time>
      </trkpt>
      <trkpt lat="40.040605" lon="-7.116956">
        <ele>592.094</ele>
        <time>2019-05-29T18:01:42Z</time>
      </trkpt>
      <trkpt lat="40.040765" lon="-7.117142">
        <ele>587.077</ele>
        <time>2019-05-29T18:02:02Z</time>
      </trkpt>
      <trkpt lat="40.040691" lon="-7.117212">
        <ele>584.010</ele>
        <time>2019-05-29T18:02:22Z</time>
      </trkpt>
      <trkpt lat="40.040533" lon="-7.117298">
        <ele>580.098</ele>
        <time>2019-05-29T18:02:42Z</time>
      </trkpt>
      <trkpt lat="40.040300" lon="-7.117417">
        <ele>576.065</ele>
        <time>2019-05-29T18:03:02Z</time>
      </trkpt>
      <trkpt lat="40.040261" lon="-7.117542">
        <ele>572.034</ele>
        <time>2019-05-29T18:03:22Z</time>
      </trkpt>
      <trkpt lat="40.040032" lon="-7.117644">
        <ele>570.061</ele>
        <time>2019-05-29T18:03:42Z</time>
      </trkpt>
      <trkpt lat="40.039898" lon="-7.117736">
        <ele>568.039</ele>
        <time>2019-05-29T18:04:02Z</time>
      </trkpt>
      <trkpt lat="40.039737" lon="-7.117777">
        <ele>567.075</ele>
        <time>2019-05-29T18:04:22Z</time>
      </trkpt>
      <trkpt lat="40.039653" lon="-7.117914">
        <ele>565.028</ele>
        <time>2019-05-29T18:04:42Z</time>
      </trkpt>
      <trkpt lat="40.039646" lon="-7.117917">
        <ele>565.020</ele>
        <time>2019-05-29T18:05:02Z</time>
      </trkpt>
      <trkpt lat="40.039555" lon="-7.118056">
        <ele>562.008</ele>
        <time>2019-05-29T18:05:22Z</time>
      </trkpt>
      <trkpt lat="40.039347" lon="-7.118301">
        <ele>559.080</ele>
        <time>2019-05-29T18:05:42Z</time>
      </trkpt>
      <trkpt lat="40.039222" lon="-7.118409">
        <ele>558.013</ele>
        <time>2019-05-29T18:06:02Z</time>
      </trkpt>
      <trkpt lat="40.039064" lon="-7.118451">
        <ele>558.056</ele>
        <time>2019-05-29T18:06:22Z</time>
      </trkpt>
      <trkpt lat="40.038945" lon="-7.118470">
        <ele>558.014</ele>
        <time>2019-05-29T18:06:42Z</time>
      </trkpt>
      <trkpt lat="40.038828" lon="-7.118600">
        <ele>553.041</ele>
        <time>2019-05-29T18:07:02Z</time>
      </trkpt>
      <trkpt lat="40.038445" lon="-7.118854">
        <ele>543.030</ele>
        <time>2019-05-29T18:07:22Z</time>
      </trkpt>
      <trkpt lat="40.038280" lon="-7.118965">
        <ele>538.097</ele>
        <time>2019-05-29T18:07:42Z</time>
      </trkpt>
      <trkpt lat="40.038126" lon="-7.119117">
        <ele>532.085</ele>
        <time>2019-05-29T18:08:02Z</time>
      </trkpt>
      <trkpt lat="40.038014" lon="-7.119140">
        <ele>531.044</ele>
        <time>2019-05-29T18:08:22Z</time>
      </trkpt>
      <trkpt lat="40.037787" lon="-7.118964">
        <ele>533.005</ele>
        <time>2019-05-29T18:08:42Z</time>
      </trkpt>
      <trkpt lat="40.037699" lon="-7.118851">
        <ele>534.015</ele>
        <time>2019-05-29T18:09:02Z</time>
      </trkpt>
      <trkpt lat="40.037517" lon="-7.118710">
        <ele>535.008</ele>
        <time>2019-05-29T18:09:22Z</time>
      </trkpt>
      <trkpt lat="40.037429" lon="-7.118691">
        <ele>535.067</ele>
        <time>2019-05-29T18:09:42Z</time>
      </trkpt>
      <trkpt lat="40.037237" lon="-7.118704">
        <ele>533.020</ele>
        <time>2019-05-29T18:10:02Z</time>
      </trkpt>
      <trkpt lat="40.037070" lon="-7.118813">
        <ele>528.043</ele>
        <time>2019-05-29T18:10:22Z</time>
      </trkpt>
      <trkpt lat="40.036906" lon="-7.118978">
        <ele>523.061</ele>
        <time>2019-05-29T18:10:42Z</time>
      </trkpt>
      <trkpt lat="40.036721" lon="-7.119200">
        <ele>518.018</ele>
        <time>2019-05-29T18:11:02Z</time>
      </trkpt>
      <trkpt lat="40.036672" lon="-7.119477">
        <ele>517.047</ele>
        <time>2019-05-29T18:11:22Z</time>
      </trkpt>
      <trkpt lat="40.036704" lon="-7.119663">
        <ele>517.064</ele>
        <time>2019-05-29T18:11:42Z</time>
      </trkpt>
      <trkpt lat="40.036543" lon="-7.119995">
        <ele>514.052</ele>
        <time>2019-05-29T18:12:02Z</time>
      </trkpt>
      <trkpt lat="40.036402" lon="-7.120110">
        <ele>512.085</ele>
        <time>2019-05-29T18:12:22Z</time>
      </trkpt>
      <trkpt lat="40.036268" lon="-7.120254">
        <ele>510.089</ele>
        <time>2019-05-29T18:12:42Z</time>
      </trkpt>
      <trkpt lat="40.036089" lon="-7.120311">
        <ele>507.017</ele>
        <time>2019-05-29T18:13:02Z</time>
      </trkpt>
      <trkpt lat="40.035991" lon="-7.120308">
        <ele>508.008</ele>
        <time>2019-05-29T18:13:22Z</time>
      </trkpt>
      <trkpt lat="40.035846" lon="-7.120356">
        <ele>507.071</ele>
        <time>2019-05-29T18:13:42Z</time>
      </trkpt>
      <trkpt lat="40.035669" lon="-7.120482">
        <ele>508.024</ele>
        <time>2019-05-29T18:14:02Z</time>
      </trkpt>
      <trkpt lat="40.035577" lon="-7.121204">
        <ele>496.047</ele>
        <time>2019-05-29T18:14:22Z</time>
      </trkpt>
      <trkpt lat="40.035506" lon="-7.121415">
        <ele>492.095</ele>
        <time>2019-05-29T18:14:42Z</time>
      </trkpt>
      <trkpt lat="40.035500" lon="-7.121688">
        <ele>489.052</ele>
        <time>2019-05-29T18:15:02Z</time>
      </trkpt>
      <trkpt lat="40.035812" lon="-7.122460">
        <ele>485.061</ele>
        <time>2019-05-29T18:15:22Z</time>
      </trkpt>
      <trkpt lat="40.035826" lon="-7.122849">
        <ele>483.098</ele>
        <time>2019-05-29T18:15:42Z</time>
      </trkpt>
      <trkpt lat="40.035807" lon="-7.123383">
        <ele>476.056</ele>
        <time>2019-05-29T18:16:02Z</time>
      </trkpt>
      <trkpt lat="40.035870" lon="-7.123532">
        <ele>474.031</ele>
        <time>2019-05-29T18:16:22Z</time>
      </trkpt>
      <trkpt lat="40.035664" lon="-7.123689">
        <ele>473.061</ele>
        <time>2019-05-29T18:16:42Z</time>
      </trkpt>
      <trkpt lat="40.035741" lon="-7.124321">
        <ele>469.007</ele>
        <time>2019-05-29T18:17:02Z</time>
      </trkpt>
      <trkpt lat="40.035548" lon="-7.125260">
        <ele>460.008</ele>
        <time>2019-05-29T18:17:22Z</time>
      </trkpt>
      <trkpt lat="40.035456" lon="-7.125464">
        <ele>459.036</ele>
        <time>2019-05-29T18:17:42Z</time>
      </trkpt>
      <trkpt lat="40.035495" lon="-7.125821">
        <ele>457.089</ele>
        <time>2019-05-29T18:18:02Z</time>
      </trkpt>
      <trkpt lat="40.035774" lon="-7.125999">
        <ele>457.092</ele>
        <time>2019-05-29T18:18:22Z</time>
      </trkpt>
      <trkpt lat="40.035939" lon="-7.126396">
        <ele>454.030</ele>
        <time>2019-05-29T18:18:42Z</time>
      </trkpt>
      <trkpt lat="40.036408" lon="-7.126628">
        <ele>455.037</ele>
        <time>2019-05-29T18:19:02Z</time>
      </trkpt>
      <trkpt lat="40.036352" lon="-7.127447">
        <ele>451.016</ele>
        <time>2019-05-29T18:19:22Z</time>
      </trkpt>
      <trkpt lat="40.036693" lon="-7.128285">
        <ele>447.063</ele>
        <time>2019-05-29T18:19:42Z</time>
      </trkpt>
      <trkpt lat="40.036918" lon="-7.128580">
        <ele>445.071</ele>
        <time>2019-05-29T18:20:02Z</time>
      </trkpt>
      <trkpt lat="40.037035" lon="-7.129100">
        <ele>442.037</ele>
        <time>2019-05-29T18:20:22Z</time>
      </trkpt>
      <trkpt lat="40.037162" lon="-7.129618">
        <ele>439.049</ele>
        <time>2019-05-29T18:20:42Z</time>
      </trkpt>
      <trkpt lat="40.037194" lon="-7.130270">
        <ele>437.013</ele>
        <time>2019-05-29T18:21:02Z</time>
      </trkpt>
      <trkpt lat="40.037270" lon="-7.130763">
        <ele>433.008</ele>
        <time>2019-05-29T18:21:22Z</time>
      </trkpt>
      <trkpt lat="40.037887" lon="-7.131579">
        <ele>428.066</ele>
        <time>2019-05-29T18:21:42Z</time>
      </trkpt>
      <trkpt lat="40.038935" lon="-7.133075">
        <ele>417.059</ele>
        <time>2019-05-29T18:22:02Z</time>
      </trkpt>
      <trkpt lat="40.040215" lon="-7.134852">
        <ele>427.092</ele>
        <time>2019-05-29T18:22:22Z</time>
      </trkpt>
      <trkpt lat="40.040847" lon="-7.135370">
        <ele>430.030</ele>
        <time>2019-05-29T18:22:42Z</time>
      </trkpt>
      <trkpt lat="40.042254" lon="-7.136848">
        <ele>439.027</ele>
        <time>2019-05-29T18:23:02Z</time>
      </trkpt>
      <trkpt lat="40.042817" lon="-7.137049">
        <ele>443.026</ele>
        <time>2019-05-29T18:23:22Z</time>
      </trkpt>
      <trkpt lat="40.043196" lon="-7.137099">
        <ele>444.083</ele>
        <time>2019-05-29T18:23:42Z</time>
      </trkpt>
      <trkpt lat="40.045213" lon="-7.137376">
        <ele>449.081</ele>
        <time>2019-05-29T18:24:02Z</time>
      </trkpt>
      <trkpt lat="40.046048" lon="-7.137517">
        <ele>450.042</ele>
        <time>2019-05-29T18:24:22Z</time>
      </trkpt>
      <trkpt lat="40.046248" lon="-7.137637">
        <ele>452.022</ele>
        <time>2019-05-29T18:24:42Z</time>
      </trkpt>
      <trkpt lat="40.046871" lon="-7.138271">
        <ele>451.014</ele>
        <time>2019-05-29T18:25:02Z</time>
      </trkpt>
      <trkpt lat="40.047132" lon="-7.138486">
        <ele>451.008</ele>
        <time>2019-05-29T18:25:22Z</time>
      </trkpt>
      <trkpt lat="40.048529" lon="-7.139035">
        <ele>441.047</ele>
        <time>2019-05-29T18:25:42Z</time>
      </trkpt>
      <trkpt lat="40.049119" lon="-7.139248">
        <ele>437.010</ele>
        <time>2019-05-29T18:26:02Z</time>
      </trkpt>
      <trkpt lat="40.049800" lon="-7.139465">
        <ele>440.043</ele>
        <time>2019-05-29T18:26:22Z</time>
      </trkpt>
      <trkpt lat="40.049804" lon="-7.140373">
        <ele>437.041</ele>
        <time>2019-05-29T18:26:42Z</time>
      </trkpt>
      <trkpt lat="40.050268" lon="-7.140105">
        <ele>438.038</ele>
        <time>2019-05-29T18:27:02Z</time>
      </trkpt>
      <trkpt lat="40.050610" lon="-7.139579">
        <ele>439.047</ele>
        <time>2019-05-29T18:27:22Z</time>
      </trkpt>
      <trkpt lat="40.050754" lon="-7.139411">
        <ele>439.084</ele>
        <time>2019-05-29T18:27:42Z</time>
      </trkpt>
      <trkpt lat="40.051105" lon="-7.139098">
        <ele>440.032</ele>
        <time>2019-05-29T18:28:02Z</time>
      </trkpt>
      <trkpt lat="40.051484" lon="-7.138758">
        <ele>439.052</ele>
        <time>2019-05-29T18:28:22Z</time>
      </trkpt>
      <trkpt lat="40.051907" lon="-7.138526">
        <ele>437.053</ele>
        <time>2019-05-29T18:28:42Z</time>
      </trkpt>
      <trkpt lat="40.052190" lon="-7.138380">
        <ele>436.008</ele>
        <time>2019-05-29T18:29:02Z</time>
      </trkpt>
      <trkpt lat="40.052673" lon="-7.138136">
        <ele>437.008</ele>
        <time>2019-05-29T18:29:22Z</time>
      </trkpt>
      <trkpt lat="40.052559" lon="-7.138866">
        <ele>437.048</ele>
        <time>2019-05-29T18:29:42Z</time>
      </trkpt>
      <trkpt lat="40.052741" lon="-7.140170">
        <ele>437.041</ele>
        <time>2019-05-29T18:30:02Z</time>
      </trkpt>
      <trkpt lat="40.052852" lon="-7.140989">
        <ele>437.014</ele>
        <time>2019-05-29T18:30:22Z</time>
      </trkpt>
      <trkpt lat="40.053518" lon="-7.142238">
        <ele>438.092</ele>
        <time>2019-05-29T18:30:42Z</time>
      </trkpt>
      <trkpt lat="40.053723" lon="-7.142519">
        <ele>439.029</ele>
        <time>2019-05-29T18:31:02Z</time>
      </trkpt>
      <trkpt lat="40.053875" lon="-7.143012">
        <ele>439.028</ele>
        <time>2019-05-29T18:31:22Z</time>
      </trkpt>
      <trkpt lat="40.054269" lon="-7.143478">
        <ele>438.015</ele>
        <time>2019-05-29T18:31:42Z</time>
      </trkpt>
      <trkpt lat="40.054764" lon="-7.143787">
        <ele>439.033</ele>
        <time>2019-05-29T18:32:02Z</time>
      </trkpt>
      <trkpt lat="40.055151" lon="-7.144649">
        <ele>441.063</ele>
        <time>2019-05-29T18:32:22Z</time>
      </trkpt>
      <trkpt lat="40.054936" lon="-7.145145">
        <ele>441.044</ele>
        <time>2019-05-29T18:32:42Z</time>
      </trkpt>
      <trkpt lat="40.054614" lon="-7.145312">
        <ele>442.018</ele>
        <time>2019-05-29T18:33:02Z</time>
      </trkpt>
      <trkpt lat="40.054148" lon="-7.146138">
        <ele>444.008</ele>
        <time>2019-05-29T18:33:22Z</time>
      </trkpt>
      <trkpt lat="40.054008" lon="-7.146231">
        <ele>443.059</ele>
        <time>2019-05-29T18:33:42Z</time>
      </trkpt>
      <trkpt lat="40.053929" lon="-7.146303">
        <ele>443.042</ele>
        <time>2019-05-29T18:34:02Z</time>
      </trkpt>
      <trkpt lat="40.054140" lon="-7.146751">
        <ele>447.055</ele>
        <time>2019-05-29T18:34:22Z</time>
      </trkpt>
      <trkpt lat="40.054437" lon="-7.147053">
        <ele>448.043</ele>
        <time>2019-05-29T18:34:42Z</time>
      </trkpt>
      <trkpt lat="40.054688" lon="-7.147146">
        <ele>450.070</ele>
        <time>2019-05-29T18:35:02Z</time>
      </trkpt>
      <trkpt lat="40.054904" lon="-7.147312">
        <ele>452.089</ele>
        <time>2019-05-29T18:35:22Z</time>
      </trkpt>
      <trkpt lat="40.055510" lon="-7.148210">
        <ele>453.026</ele>
        <time>2019-05-29T18:35:42Z</time>
      </trkpt>
      <trkpt lat="40.056339" lon="-7.148844">
        <ele>456.074</ele>
        <time>2019-05-29T18:36:02Z</time>
      </trkpt>
      <trkpt lat="40.056941" lon="-7.148788">
        <ele>455.066</ele>
        <time>2019-05-29T18:36:22Z</time>
      </trkpt>
      <trkpt lat="40.057120" lon="-7.148580">
        <ele>456.029</ele>
        <time>2019-05-29T18:36:42Z</time>
      </trkpt>
      <trkpt lat="40.057694" lon="-7.148527">
        <ele>458.021</ele>
        <time>2019-05-29T18:37:02Z</time>
      </trkpt>
      <trkpt lat="40.057829" lon="-7.148451">
        <ele>459.008</ele>
        <time>2019-05-29T18:37:22Z</time>
      </trkpt>
      <trkpt lat="40.058033" lon="-7.148423">
        <ele>460.069</ele>
        <time>2019-05-29T18:37:42Z</time>
      </trkpt>
      <trkpt lat="40.058212" lon="-7.148234">
        <ele>461.012</ele>
        <time>2019-05-29T18:38:02Z</time>
      </trkpt>
      <trkpt lat="40.058400" lon="-7.147895">
        <ele>461.025</ele>
        <time>2019-05-29T18:38:22Z</time>
      </trkpt>
      <trkpt lat="40.058579" lon="-7.147749">
        <ele>461.073</ele>
        <time>2019-05-29T18:38:42Z</time>
      </trkpt>
      <trkpt lat="40.059287" lon="-7.147725">
        <ele>461.020</ele>
        <time>2019-05-29T18:39:02Z</time>
      </trkpt>
      <trkpt lat="40.060169" lon="-7.148750">
        <ele>462.079</ele>
        <time>2019-05-29T18:39:22Z</time>
      </trkpt>
      <trkpt lat="40.060584" lon="-7.149215">
        <ele>459.066</ele>
        <time>2019-05-29T18:39:42Z</time>
      </trkpt>
      <trkpt lat="40.061079" lon="-7.149548">
        <ele>458.054</ele>
        <time>2019-05-29T18:40:02Z</time>
      </trkpt>
      <trkpt lat="40.061282" lon="-7.149926">
        <ele>457.045</ele>
        <time>2019-05-29T18:40:22Z</time>
      </trkpt>
      <trkpt lat="40.061828" lon="-7.150543">
        <ele>454.047</ele>
        <time>2019-05-29T18:40:42Z</time>
      </trkpt>
      <trkpt lat="40.062264" lon="-7.150967">
        <ele>452.011</ele>
        <time>2019-05-29T18:41:02Z</time>
      </trkpt>
      <trkpt lat="40.062383" lon="-7.151172">
        <ele>451.008</ele>
        <time>2019-05-29T18:41:22Z</time>
      </trkpt>
      <trkpt lat="40.062636" lon="-7.151604">
        <ele>449.067</ele>
        <time>2019-05-29T18:41:42Z</time>
      </trkpt>
      <trkpt lat="40.062986" lon="-7.152000">
        <ele>446.030</ele>
        <time>2019-05-29T18:42:02Z</time>
      </trkpt>
      <trkpt lat="40.063248" lon="-7.152197">
        <ele>446.053</ele>
        <time>2019-05-29T18:42:22Z</time>
      </trkpt>
      <trkpt lat="40.063306" lon="-7.152503">
        <ele>444.051</ele>
        <time>2019-05-29T18:42:42Z</time>
      </trkpt>
      <trkpt lat="40.063320" lon="-7.152665">
        <ele>444.078</ele>
        <time>2019-05-29T18:43:02Z</time>
      </trkpt>
      <trkpt lat="40.063505" lon="-7.152932">
        <ele>446.017</ele>
        <time>2019-05-29T18:43:22Z</time>
      </trkpt>
      <trkpt lat="40.063755" lon="-7.153294">
        <ele>448.034</ele>
        <time>2019-05-29T18:43:42Z</time>
      </trkpt>
      <trkpt lat="40.063748" lon="-7.153539">
        <ele>449.082</ele>
        <time>2019-05-29T18:44:02Z</time>
      </trkpt>
      <trkpt lat="40.063748" lon="-7.153552">
        <ele>449.011</ele>
        <time>2019-05-29T18:44:22Z</time>
      </trkpt>
      <trkpt lat="40.063637" lon="-7.154123">
        <ele>449.021</ele>
        <time>2019-05-29T18:44:42Z</time>
      </trkpt>
      <trkpt lat="40.063518" lon="-7.154690">
        <ele>446.003</ele>
        <time>2019-05-29T18:45:02Z</time>
      </trkpt>
      <trkpt lat="40.063386" lon="-7.156054">
        <ele>446.008</ele>
        <time>2019-05-29T18:45:22Z</time>
      </trkpt>
      <trkpt lat="40.063354" lon="-7.156237">
        <ele>446.094</ele>
        <time>2019-05-29T18:45:42Z</time>
      </trkpt>
      <trkpt lat="40.063172" lon="-7.157279">
        <ele>449.037</ele>
        <time>2019-05-29T18:46:02Z</time>
      </trkpt>
      <trkpt lat="40.063027" lon="-7.158034">
        <ele>450.090</ele>
        <time>2019-05-29T18:46:22Z</time>
      </trkpt>
      <trkpt lat="40.062564" lon="-7.158970">
        <ele>452.068</ele>
        <time>2019-05-29T18:46:42Z</time>
      </trkpt>
      <trkpt lat="40.062570" lon="-7.159254">
        <ele>450.065</ele>
        <time>2019-05-29T18:47:02Z</time>
      </trkpt>
      <trkpt lat="40.063160" lon="-7.160370">
        <ele>445.074</ele>
        <time>2019-05-29T18:47:22Z</time>
      </trkpt>
      <trkpt lat="40.063237" lon="-7.160801">
        <ele>445.021</ele>
        <time>2019-05-29T18:47:42Z</time>
      </trkpt>
      <trkpt lat="40.063450" lon="-7.160992">
        <ele>443.059</ele>
        <time>2019-05-29T18:48:02Z</time>
      </trkpt>
      <trkpt lat="40.063579" lon="-7.161205">
        <ele>441.016</ele>
        <time>2019-05-29T18:48:22Z</time>
      </trkpt>
      <trkpt lat="40.064736" lon="-7.163202">
        <ele>433.076</ele>
        <time>2019-05-29T18:48:42Z</time>
      </trkpt>
      <trkpt lat="40.064768" lon="-7.163382">
        <ele>434.013</ele>
        <time>2019-05-29T18:49:02Z</time>
      </trkpt>
      <trkpt lat="40.064732" lon="-7.163511">
        <ele>434.008</ele>
        <time>2019-05-29T18:49:22Z</time>
      </trkpt>
      <trkpt lat="40.064852" lon="-7.163771">
        <ele>435.054</ele>
        <time>2019-05-29T18:49:42Z</time>
      </trkpt>
      <trkpt lat="40.066143" lon="-7.165069">
        <ele>441.017</ele>
        <time>2019-05-29T18:50:02Z</time>
      </trkpt>
      <trkpt lat="40.066263" lon="-7.165277">
        <ele>440.060</ele>
        <time>2019-05-29T18:50:22Z</time>
      </trkpt>
      <trkpt lat="40.066401" lon="-7.165768">
        <ele>436.068</ele>
        <time>2019-05-29T18:50:42Z</time>
      </trkpt>
      <trkpt lat="40.066194" lon="-7.167042">
        <ele>429.055</ele>
        <time>2019-05-29T18:51:02Z</time>
      </trkpt>
      <trkpt lat="40.066150" lon="-7.167382">
        <ele>429.064</ele>
        <time>2019-05-29T18:51:22Z</time>
      </trkpt>
      <trkpt lat="40.066384" lon="-7.167916">
        <ele>426.031</ele>
        <time>2019-05-29T18:51:42Z</time>
      </trkpt>
      <trkpt lat="40.066522" lon="-7.168040">
        <ele>425.049</ele>
        <time>2019-05-29T18:52:02Z</time>
      </trkpt>
      <trkpt lat="40.066751" lon="-7.168035">
        <ele>424.053</ele>
        <time>2019-05-29T18:52:22Z</time>
      </trkpt>
      <trkpt lat="40.067163" lon="-7.168134">
        <ele>421.004</ele>
        <time>2019-05-29T18:52:42Z</time>
      </trkpt>
      <trkpt lat="40.065762" lon="-7.170877">
        <ele>419.014</ele>
        <time>2019-05-29T18:53:02Z</time>
      </trkpt>
      <trkpt lat="40.065939" lon="-7.172323">
        <ele>411.008</ele>
        <time>2019-05-29T18:53:22Z</time>
      </trkpt>
      <trkpt lat="40.066761" lon="-7.172409">
        <ele>406.078</ele>
        <time>2019-05-29T18:53:42Z</time>
      </trkpt>
      <trkpt lat="40.068017" lon="-7.173031">
        <ele>398.091</ele>
        <time>2019-05-29T18:54:02Z</time>
      </trkpt>
      <trkpt lat="40.068521" lon="-7.174382">
        <ele>389.024</ele>
        <time>2019-05-29T18:54:22Z</time>
      </trkpt>
      <trkpt lat="40.068887" lon="-7.175324">
        <ele>388.072</ele>
        <time>2019-05-29T18:54:42Z</time>
      </trkpt>
      <trkpt lat="40.069406" lon="-7.175743">
        <ele>385.069</ele>
        <time>2019-05-29T18:55:02Z</time>
      </trkpt>
      <trkpt lat="40.069259" lon="-7.176555">
        <ele>382.098</ele>
        <time>2019-05-29T18:55:22Z</time>
      </trkpt>
      <trkpt lat="40.069635" lon="-7.176871">
        <ele>377.075</ele>
        <time>2019-05-29T18:55:42Z</time>
      </trkpt>
      <trkpt lat="40.070183" lon="-7.177295">
        <ele>377.023</ele>
        <time>2019-05-29T18:56:02Z</time>
      </trkpt>
      <trkpt lat="40.069975" lon="-7.177956">
        <ele>378.093</ele>
        <time>2019-05-29T18:56:22Z</time>
      </trkpt>
      <trkpt lat="40.070349" lon="-7.180242">
        <ele>395.065</ele>
        <time>2019-05-29T18:56:42Z</time>
      </trkpt>
      <trkpt lat="40.070493" lon="-7.180952">
        <ele>397.021</ele>
        <time>2019-05-29T18:57:02Z</time>
      </trkpt>
      <trkpt lat="40.071905" lon="-7.181718">
        <ele>408.008</ele>
        <time>2019-05-29T18:57:22Z</time>
      </trkpt>
      <trkpt lat="40.073412" lon="-7.181321">
        <ele>415.052</ele>
        <time>2019-05-29T18:57:42Z</time>
      </trkpt>
      <trkpt lat="40.074009" lon="-7.181972">
        <ele>420.095</ele>
        <time>2019-05-29T18:58:02Z</time>
      </trkpt>
      <trkpt lat="40.075463" lon="-7.182104">
        <ele>421.058</ele>
        <time>2019-05-29T18:58:22Z</time>
      </trkpt>
      <trkpt lat="40.076367" lon="-7.183686">
        <ele>414.026</ele>
        <time>2019-05-29T18:58:42Z</time>
      </trkpt>
      <trkpt lat="40.077092" lon="-7.186165">
        <ele>421.063</ele>
        <time>2019-05-29T18:59:02Z</time>
      </trkpt>
      <trkpt lat="40.077555" lon="-7.184353">
        <ele>420.052</ele>
        <time>2019-05-29T18:59:22Z</time>
      </trkpt>
      <trkpt lat="40.079065" lon="-7.183445">
        <ele>423.059</ele>
        <time>2019-05-29T18:59:42Z</time>
      </trkpt>
      <trkpt lat="40.079494" lon="-7.183025">
        <ele>424.017</ele>
        <time>2019-05-29T19:00:02Z</time>
      </trkpt>
      <trkpt lat="40.080941" lon="-7.181778">
        <ele>434.086</ele>
        <time>2019-05-29T19:00:22Z</time>
      </trkpt>
      <trkpt lat="40.081366" lon="-7.181473">
        <ele>435.060</ele>
        <time>2019-05-29T19:00:42Z</time>
      </trkpt>
      <trkpt lat="40.082392" lon="-7.180688">
        <ele>440.026</ele>
        <time>2019-05-29T19:01:02Z</time>
      </trkpt>
      <trkpt lat="40.083177" lon="-7.180056">
        <ele>441.008</ele>
        <time>2019-05-29T19:01:22Z</time>
      </trkpt>
      <trkpt lat="40.083741" lon="-7.179661">
        <ele>444.011</ele>
        <time>2019-05-29T19:01:42Z</time>
      </trkpt>
      <trkpt lat="40.085082" lon="-7.177872">
        <ele>451.084</ele>
        <time>2019-05-29T19:02:02Z</time>
      </trkpt>
      <trkpt lat="40.085907" lon="-7.176760">
        <ele>452.027</ele>
        <time>2019-05-29T19:02:22Z</time>
      </trkpt>
      <trkpt lat="40.086794" lon="-7.174811">
        <ele>447.095</ele>
        <time>2019-05-29T19:02:42Z</time>
      </trkpt>
      <trkpt lat="40.087030" lon="-7.174255">
        <ele>442.062</ele>
        <time>2019-05-29T19:03:02Z</time>
      </trkpt>
      <trkpt lat="40.087423" lon="-7.173714">
        <ele>441.081</ele>
        <time>2019-05-29T19:03:22Z</time>
      </trkpt>
      <trkpt lat="40.087680" lon="-7.173384">
        <ele>442.028</ele>
        <time>2019-05-29T19:03:42Z</time>
      </trkpt>
      <trkpt lat="40.088146" lon="-7.172641">
        <ele>446.016</ele>
        <time>2019-05-29T19:04:02Z</time>
      </trkpt>
      <trkpt lat="40.088623" lon="-7.171936">
        <ele>441.016</ele>
        <time>2019-05-29T19:04:22Z</time>
      </trkpt>
      <trkpt lat="40.089214" lon="-7.171021">
        <ele>438.076</ele>
        <time>2019-05-29T19:04:42Z</time>
      </trkpt>
      <trkpt lat="40.089848" lon="-7.170458">
        <ele>436.013</ele>
        <time>2019-05-29T19:05:02Z</time>
      </trkpt>
      <trkpt lat="40.090250" lon="-7.170103">
        <ele>435.008</ele>
        <time>2019-05-29T19:05:22Z</time>
      </trkpt>
      <trkpt lat="40.090744" lon="-7.169662">
        <ele>432.014</ele>
        <time>2019-05-29T19:05:42Z</time>
      </trkpt>
      <trkpt lat="40.091128" lon="-7.169287">
        <ele>433.037</ele>
        <time>2019-05-29T19:06:02Z</time>
      </trkpt>
      <trkpt lat="40.091851" lon="-7.168870">
        <ele>436.010</ele>
        <time>2019-05-29T19:06:22Z</time>
      </trkpt>
      <trkpt lat="40.092408" lon="-7.168590">
        <ele>436.088</ele>
        <time>2019-05-29T19:06:42Z</time>
      </trkpt>
      <trkpt lat="40.093053" lon="-7.168221">
        <ele>438.095</ele>
        <time>2019-05-29T19:07:02Z</time>
      </trkpt>
      <trkpt lat="40.093559" lon="-7.167947">
        <ele>442.054</ele>
        <time>2019-05-29T19:07:22Z</time>
      </trkpt>
      <trkpt lat="40.094579" lon="-7.167291">
        <ele>447.011</ele>
        <time>2019-05-29T19:07:42Z</time>
      </trkpt>
      <trkpt lat="40.095294" lon="-7.166797">
        <ele>449.089</ele>
        <time>2019-05-29T19:08:02Z</time>
      </trkpt>
      <trkpt lat="40.095816" lon="-7.165494">
        <ele>452.086</ele>
        <time>2019-05-29T19:08:22Z</time>
      </trkpt>
      <trkpt lat="40.096003" lon="-7.165466">
        <ele>453.060</ele>
        <time>2019-05-29T19:08:42Z</time>
      </trkpt>
      <trkpt lat="40.096452" lon="-7.164868">
        <ele>449.026</ele>
        <time>2019-05-29T19:09:02Z</time>
      </trkpt>
      <trkpt lat="40.097213" lon="-7.163821">
        <ele>441.008</ele>
        <time>2019-05-29T19:09:22Z</time>
      </trkpt>
      <trkpt lat="40.097730" lon="-7.163231">
        <ele>435.021</ele>
        <time>2019-05-29T19:09:42Z</time>
      </trkpt>
      <trkpt lat="40.097941" lon="-7.162973">
        <ele>433.064</ele>
        <time>2019-05-29T19:10:02Z</time>
      </trkpt>
      <trkpt lat="40.098047" lon="-7.162640">
        <ele>432.067</ele>
        <time>2019-05-29T19:10:22Z</time>
      </trkpt>
      <trkpt lat="40.098349" lon="-7.162482">
        <ele>430.095</ele>
        <time>2019-05-29T19:10:42Z</time>
      </trkpt>
      <trkpt lat="40.098660" lon="-7.162156">
        <ele>431.042</ele>
        <time>2019-05-29T19:11:02Z</time>
      </trkpt>
      <trkpt lat="40.098912" lon="-7.161877">
        <ele>432.061</ele>
        <time>2019-05-29T19:11:22Z</time>
      </trkpt>
      <trkpt lat="40.098997" lon="-7.161687">
        <ele>433.088</ele>
        <time>2019-05-29T19:11:42Z</time>
      </trkpt>
      <trkpt lat="40.099754" lon="-7.161086">
        <ele>436.066</ele>
        <time>2019-05-29T19:12:02Z</time>
      </trkpt>
      <trkpt lat="40.100128" lon="-7.161284">
        <ele>438.045</ele>
        <time>2019-05-29T19:12:22Z</time>
      </trkpt>
      <trkpt lat="40.100336" lon="-7.160583">
        <ele>434.047</ele>
        <time>2019-05-29T19:12:42Z</time>
      </trkpt>
      <trkpt lat="40.100440" lon="-7.160213">
        <ele>434.011</ele>
        <time>2019-05-29T19:13:02Z</time>
      </trkpt>
      <trkpt lat="40.100669" lon="-7.159558">
        <ele>434.008</ele>
        <time>2019-05-29T19:13:22Z</time>
      </trkpt>
      <trkpt lat="40.100735" lon="-7.159152">
        <ele>434.027</ele>
        <time>2019-05-29T19:13:42Z</time>
      </trkpt>
      <trkpt lat="40.100795" lon="-7.158737">
        <ele>434.030</ele>
        <time>2019-05-29T19:14:02Z</time>
      </trkpt>
      <trkpt lat="40.101032" lon="-7.158018">
        <ele>434.013</ele>
        <time>2019-05-29T19:14:22Z</time>
      </trkpt>
      <trkpt lat="40.101018" lon="-7.157887">
        <ele>434.071</ele>
        <time>2019-05-29T19:14:42Z</time>
      </trkpt>
      <trkpt lat="40.101272" lon="-7.157565">
        <ele>434.038</ele>
        <time>2019-05-29T19:15:02Z</time>
      </trkpt>
      <trkpt lat="40.101507" lon="-7.157317">
        <ele>432.037</ele>
        <time>2019-05-29T19:15:22Z</time>
      </trkpt>
      <trkpt lat="40.101822" lon="-7.156666">
        <ele>433.054</ele>
        <time>2019-05-29T19:15:42Z</time>
      </trkpt>
      <trkpt lat="40.101979" lon="-7.156492">
        <ele>433.082</ele>
        <time>2019-05-29T19:16:02Z</time>
      </trkpt>
      <trkpt lat="40.102185" lon="-7.156252">
        <ele>432.099</ele>
        <time>2019-05-29T19:16:22Z</time>
      </trkpt>
      <trkpt lat="40.102335" lon="-7.156066">
        <ele>431.007</ele>
        <time>2019-05-29T19:16:42Z</time>
      </trkpt>
      <trkpt lat="40.102614" lon="-7.155632">
        <ele>434.027</ele>
        <time>2019-05-29T19:17:02Z</time>
      </trkpt>
      <trkpt lat="40.102862" lon="-7.155654">
        <ele>435.008</ele>
        <time>2019-05-29T19:17:22Z</time>
      </trkpt>
      <trkpt lat="40.103060" lon="-7.155745">
        <ele>435.022</ele>
        <time>2019-05-29T19:17:42Z</time>
      </trkpt>
      <trkpt lat="40.103148" lon="-7.155629">
        <ele>435.045</ele>
        <time>2019-05-29T19:18:02Z</time>
      </trkpt>
      <trkpt lat="40.103519" lon="-7.155036">
        <ele>438.078</ele>
        <time>2019-05-29T19:18:22Z</time>
      </trkpt>
      <trkpt lat="40.103615" lon="-7.154861">
        <ele>439.086</ele>
        <time>2019-05-29T19:18:42Z</time>
      </trkpt>
      <trkpt lat="40.103784" lon="-7.154488">
        <ele>441.053</ele>
        <time>2019-05-29T19:19:02Z</time>
      </trkpt>
      <trkpt lat="40.103901" lon="-7.154216">
        <ele>443.032</ele>
        <time>2019-05-29T19:19:22Z</time>
      </trkpt>
      <trkpt lat="40.103970" lon="-7.153948">
        <ele>445.079</ele>
        <time>2019-05-29T19:19:42Z</time>
      </trkpt>
      <trkpt lat="40.103998" lon="-7.153709">
        <ele>446.047</ele>
        <time>2019-05-29T19:20:02Z</time>
      </trkpt>
      <trkpt lat="40.103979" lon="-7.153343">
        <ele>446.014</ele>
        <time>2019-05-29T19:20:22Z</time>
      </trkpt>
      <trkpt lat="40.104096" lon="-7.153122">
        <ele>447.054</ele>
        <time>2019-05-29T19:20:42Z</time>
      </trkpt>
      <trkpt lat="40.104166" lon="-7.153207">
        <ele>447.009</ele>
        <time>2019-05-29T19:21:02Z</time>
      </trkpt>
      <trkpt lat="40.104426" lon="-7.153324">
        <ele>447.008</ele>
        <time>2019-05-29T19:21:22Z</time>
      </trkpt>
      <trkpt lat="40.104686" lon="-7.153428">
        <ele>448.074</ele>
        <time>2019-05-29T19:21:42Z</time>
      </trkpt>
      <trkpt lat="40.105766" lon="-7.154014">
        <ele>455.097</ele>
        <time>2019-05-29T19:22:02Z</time>
      </trkpt>
      <trkpt lat="40.106292" lon="-7.154855">
        <ele>453.050</ele>
        <time>2019-05-29T19:22:22Z</time>
      </trkpt>
      <trkpt lat="40.107142" lon="-7.155975">
        <ele>459.038</ele>
        <time>2019-05-29T19:22:42Z</time>
      </trkpt>
      <trkpt lat="40.107435" lon="-7.156307">
        <ele>462.085</ele>
        <time>2019-05-29T19:23:02Z</time>
      </trkpt>
      <trkpt lat="40.108172" lon="-7.157033">
        <ele>465.094</ele>
        <time>2019-05-29T19:23:22Z</time>
      </trkpt>
      <trkpt lat="40.108635" lon="-7.157504">
        <ele>470.071</ele>
        <time>2019-05-29T19:23:42Z</time>
      </trkpt>
      <trkpt lat="40.108879" lon="-7.157899">
        <ele>468.079</ele>
        <time>2019-05-29T19:24:02Z</time>
      </trkpt>
      <trkpt lat="40.109448" lon="-7.157796">
        <ele>473.044</ele>
        <time>2019-05-29T19:24:22Z</time>
      </trkpt>
      <trkpt lat="40.110003" lon="-7.157622">
        <ele>477.005</ele>
        <time>2019-05-29T19:24:42Z</time>
      </trkpt>
      <trkpt lat="40.110799" lon="-7.157444">
        <ele>479.015</ele>
        <time>2019-05-29T19:25:02Z</time>
      </trkpt>
      <trkpt lat="40.111218" lon="-7.157547">
        <ele>478.008</ele>
        <time>2019-05-29T19:25:22Z</time>
      </trkpt>
      <trkpt lat="40.111876" lon="-7.157330">
        <ele>472.067</ele>
        <time>2019-05-29T19:25:42Z</time>
      </trkpt>
      <trkpt lat="40.112529" lon="-7.157448">
        <ele>463.090</ele>
        <time>2019-05-29T19:26:02Z</time>
      </trkpt>
      <trkpt lat="40.112888" lon="-7.157258">
        <ele>461.033</ele>
        <time>2019-05-29T19:26:22Z</time>
      </trkpt>
      <trkpt lat="40.113327" lon="-7.157217">
        <ele>462.031</ele>
        <time>2019-05-29T19:26:42Z</time>
      </trkpt>
      <trkpt lat="40.113639" lon="-7.157182">
        <ele>460.018</ele>
        <time>2019-05-29T19:27:02Z</time>
      </trkpt>
      <trkpt lat="40.113935" lon="-7.157343">
        <ele>456.017</ele>
        <time>2019-05-29T19:27:22Z</time>
      </trkpt>
      <trkpt lat="40.114227" lon="-7.157468">
        <ele>454.024</ele>
        <time>2019-05-29T19:27:42Z</time>
      </trkpt>
      <trkpt lat="40.114477" lon="-7.157568">
        <ele>452.062</ele>
        <time>2019-05-29T19:28:02Z</time>
      </trkpt>
      <trkpt lat="40.114709" lon="-7.157739">
        <ele>451.052</ele>
        <time>2019-05-29T19:28:22Z</time>
      </trkpt>
      <trkpt lat="40.114885" lon="-7.157967">
        <ele>450.053</ele>
        <time>2019-05-29T19:28:42Z</time>
      </trkpt>
      <trkpt lat="40.115224" lon="-7.158093">
        <ele>449.008</ele>
        <time>2019-05-29T19:29:02Z</time>
      </trkpt>
      <trkpt lat="40.115728" lon="-7.158313">
        <ele>449.008</ele>
        <time>2019-05-29T19:29:22Z</time>
      </trkpt>
      <trkpt lat="40.115885" lon="-7.158484">
        <ele>450.068</ele>
        <time>2019-05-29T19:29:42Z</time>
      </trkpt>
      <trkpt lat="40.116058" lon="-7.158541">
        <ele>450.041</ele>
        <time>2019-05-29T19:30:02Z</time>
      </trkpt>
      <trkpt lat="40.116244" lon="-7.158537">
        <ele>449.034</ele>
        <time>2019-05-29T19:30:22Z</time>
      </trkpt>
      <trkpt lat="40.116627" lon="-7.158691">
        <ele>448.042</ele>
        <time>2019-05-29T19:30:42Z</time>
      </trkpt>
      <trkpt lat="40.116883" lon="-7.158664">
        <ele>445.049</ele>
        <time>2019-05-29T19:31:02Z</time>
      </trkpt>
      <trkpt lat="40.117120" lon="-7.157954">
        <ele>438.028</ele>
        <time>2019-05-29T19:31:22Z</time>
      </trkpt>
      <trkpt lat="40.117234" lon="-7.157917">
        <ele>436.035</ele>
        <time>2019-05-29T19:31:42Z</time>
      </trkpt>
      <trkpt lat="40.117942" lon="-7.157913">
        <ele>432.063</ele>
        <time>2019-05-29T19:32:02Z</time>
      </trkpt>
      <trkpt lat="40.117882" lon="-7.157540">
        <ele>431.066</ele>
        <time>2019-05-29T19:32:22Z</time>
      </trkpt>
      <trkpt lat="40.117949" lon="-7.156992">
        <ele>432.029</ele>
        <time>2019-05-29T19:32:42Z</time>
      </trkpt>
      <trkpt lat="40.118195" lon="-7.155734">
        <ele>431.021</ele>
        <time>2019-05-29T19:33:02Z</time>
      </trkpt>
      <trkpt lat="40.118400" lon="-7.154248">
        <ele>437.008</ele>
        <time>2019-05-29T19:33:22Z</time>
      </trkpt>
      <trkpt lat="40.119107" lon="-7.153614">
        <ele>436.049</ele>
        <time>2019-05-29T19:33:42Z</time>
      </trkpt>
      <trkpt lat="40.119250" lon="-7.153683">
        <ele>436.042</ele>
        <time>2019-05-29T19:34:02Z</time>
      </trkpt>
      <trkpt lat="40.119392" lon="-7.153856">
        <ele>436.035</ele>
        <time>2019-05-29T19:34:22Z</time>
      </trkpt>
      <trkpt lat="40.119647" lon="-7.154074">
        <ele>434.053</ele>
        <time>2019-05-29T19:34:42Z</time>
      </trkpt>
      <trkpt lat="40.119751" lon="-7.154034">
        <ele>434.090</ele>
        <time>2019-05-29T19:35:02Z</time>
      </trkpt>
      <trkpt lat="40.120431" lon="-7.153797">
        <ele>432.049</ele>
        <time>2019-05-29T19:35:22Z</time>
      </trkpt>
      <trkpt lat="40.121024" lon="-7.153137">
        <ele>433.066</ele>
        <time>2019-05-29T19:35:42Z</time>
      </trkpt>
      <trkpt lat="40.121136" lon="-7.153165">
        <ele>433.064</ele>
        <time>2019-05-29T19:36:02Z</time>
      </trkpt>
      <trkpt lat="40.121642" lon="-7.153657">
        <ele>437.031</ele>
        <time>2019-05-29T19:36:22Z</time>
      </trkpt>
      <trkpt lat="40.122130" lon="-7.154087">
        <ele>432.061</ele>
        <time>2019-05-29T19:36:42Z</time>
      </trkpt>
      <trkpt lat="40.122653" lon="-7.153853">
        <ele>432.007</ele>
        <time>2019-05-29T19:37:02Z</time>
      </trkpt>
      <trkpt lat="40.122814" lon="-7.153601">
        <ele>432.008</ele>
        <time>2019-05-29T19:37:22Z</time>
      </trkpt>
      <trkpt lat="40.123002" lon="-7.153238">
        <ele>432.086</ele>
        <time>2019-05-29T19:37:42Z</time>
      </trkpt>
      <trkpt lat="40.123139" lon="-7.152993">
        <ele>431.099</ele>
        <time>2019-05-29T19:38:02Z</time>
      </trkpt>
      <trkpt lat="40.123307" lon="-7.152820">
        <ele>430.042</ele>
        <time>2019-05-29T19:38:22Z</time>
      </trkpt>
      <trkpt lat="40.123347" lon="-7.152584">
        <ele>430.010</ele>
        <time>2019-05-29T19:38:42Z</time>
      </trkpt>
      <trkpt lat="40.123376" lon="-7.152475">
        <ele>431.087</ele>
        <time>2019-05-29T19:39:02Z</time>
      </trkpt>
      <trkpt lat="40.123345" lon="-7.152231">
        <ele>431.036</ele>
        <time>2019-05-29T19:39:22Z</time>
      </trkpt>
      <trkpt lat="40.123522" lon="-7.152148">
        <ele>432.053</ele>
        <time>2019-05-29T19:39:42Z</time>
      </trkpt>
      <trkpt lat="40.124352" lon="-7.152211">
        <ele>437.051</ele>
        <time>2019-05-29T19:40:02Z</time>
      </trkpt>
      <trkpt lat="40.124673" lon="-7.152108">
        <ele>436.047</ele>
        <time>2019-05-29T19:40:22Z</time>
      </trkpt>
      <trkpt lat="40.124882" lon="-7.152099">
        <ele>436.029</ele>
        <time>2019-05-29T19:40:42Z</time>
      </trkpt>
      <trkpt lat="40.124915" lon="-7.151871">
        <ele>437.021</ele>
        <time>2019-05-29T19:41:02Z</time>
      </trkpt>
      <trkpt lat="40.124927" lon="-7.151673">
        <ele>438.008</ele>
        <time>2019-05-29T19:41:22Z</time>
      </trkpt>
      <trkpt lat="40.125034" lon="-7.151376">
        <ele>441.087</ele>
        <time>2019-05-29T19:41:42Z</time>
      </trkpt>
      <trkpt lat="40.125091" lon="-7.151252">
        <ele>441.070</ele>
        <time>2019-05-29T19:42:02Z</time>
      </trkpt>
      <trkpt lat="40.125766" lon="-7.150738">
        <ele>444.023</ele>
        <time>2019-05-29T19:42:22Z</time>
      </trkpt>
      <trkpt lat="40.126264" lon="-7.150337">
        <ele>447.011</ele>
        <time>2019-05-29T19:42:42Z</time>
      </trkpt>
      <trkpt lat="40.126515" lon="-7.150060">
        <ele>447.058</ele>
        <time>2019-05-29T19:43:02Z</time>
      </trkpt>
      <trkpt lat="40.126672" lon="-7.149865">
        <ele>447.097</ele>
        <time>2019-05-29T19:43:22Z</time>
      </trkpt>
      <trkpt lat="40.126755" lon="-7.149748">
        <ele>448.014</ele>
        <time>2019-05-29T19:43:42Z</time>
      </trkpt>
      <trkpt lat="40.127246" lon="-7.149831">
        <ele>449.032</ele>
        <time>2019-05-29T19:44:02Z</time>
      </trkpt>
      <trkpt lat="40.127416" lon="-7.149832">
        <ele>450.091</ele>
        <time>2019-05-29T19:44:22Z</time>
      </trkpt>
      <trkpt lat="40.127718" lon="-7.149956">
        <ele>452.081</ele>
        <time>2019-05-29T19:44:42Z</time>
      </trkpt>
      <trkpt lat="40.128378" lon="-7.150126">
        <ele>455.019</ele>
        <time>2019-05-29T19:45:02Z</time>
      </trkpt>
      <trkpt lat="40.128760" lon="-7.150058">
        <ele>456.008</ele>
        <time>2019-05-29T19:45:22Z</time>
      </trkpt>
      <trkpt lat="40.129147" lon="-7.150063">
        <ele>458.042</ele>
        <time>2019-05-29T19:45:42Z</time>
      </trkpt>
      <trkpt lat="40.129524" lon="-7.150097">
        <ele>459.095</ele>
        <time>2019-05-29T19:46:02Z</time>
      </trkpt>
      <trkpt lat="40.129775" lon="-7.149146">
        <ele>459.068</ele>
        <time>2019-05-29T19:46:22Z</time>
      </trkpt>
      <trkpt lat="40.129910" lon="-7.148645">
        <ele>459.076</ele>
        <time>2019-05-29T19:46:42Z</time>
      </trkpt>
      <trkpt lat="40.129997" lon="-7.148270">
        <ele>459.073</ele>
        <time>2019-05-29T19:47:02Z</time>
      </trkpt>
      <trkpt lat="40.130097" lon="-7.147775">
        <ele>458.092</ele>
        <time>2019-05-29T19:47:22Z</time>
      </trkpt>
      <trkpt lat="40.130213" lon="-7.147431">
        <ele>460.089</ele>
        <time>2019-05-29T19:47:42Z</time>
      </trkpt>
      <trkpt lat="40.130307" lon="-7.147060">
        <ele>461.037</ele>
        <time>2019-05-29T19:48:02Z</time>
      </trkpt>
      <trkpt lat="40.130322" lon="-7.146031">
        <ele>460.026</ele>
        <time>2019-05-29T19:48:22Z</time>
      </trkpt>
      <trkpt lat="40.130341" lon="-7.145701">
        <ele>459.047</ele>
        <time>2019-05-29T19:48:42Z</time>
      </trkpt>
      <trkpt lat="40.130668" lon="-7.145117">
        <ele>460.011</ele>
        <time>2019-05-29T19:49:02Z</time>
      </trkpt>
      <trkpt lat="40.130700" lon="-7.144839">
        <ele>460.008</ele>
        <time>2019-05-29T19:49:22Z</time>
      </trkpt>
      <trkpt lat="40.130838" lon="-7.144554">
        <ele>460.055</ele>
        <time>2019-05-29T19:49:42Z</time>
      </trkpt>
      <trkpt lat="40.130931" lon="-7.144414">
        <ele>460.018</ele>
        <time>2019-05-29T19:50:02Z</time>
      </trkpt>
      <trkpt lat="40.131004" lon="-7.143924">
        <ele>459.041</ele>
        <time>2019-05-29T19:50:22Z</time>
      </trkpt>
      <trkpt lat="40.131115" lon="-7.143647">
        <ele>458.059</ele>
        <time>2019-05-29T19:50:42Z</time>
      </trkpt>
      <trkpt lat="40.131211" lon="-7.143324">
        <ele>456.096</ele>
        <time>2019-05-29T19:51:02Z</time>
      </trkpt>
      <trkpt lat="40.131391" lon="-7.142778">
        <ele>454.015</ele>
        <time>2019-05-29T19:51:22Z</time>
      </trkpt>
      <trkpt lat="40.131577" lon="-7.142303">
        <ele>453.032</ele>
        <time>2019-05-29T19:51:42Z</time>
      </trkpt>
      <trkpt lat="40.131750" lon="-7.142297">
        <ele>453.010</ele>
        <time>2019-05-29T19:52:02Z</time>
      </trkpt>
      <trkpt lat="40.132014" lon="-7.142285">
        <ele>452.037</ele>
        <time>2019-05-29T19:52:22Z</time>
      </trkpt>
      <trkpt lat="40.132221" lon="-7.142315">
        <ele>451.049</ele>
        <time>2019-05-29T19:52:42Z</time>
      </trkpt>
      <trkpt lat="40.132419" lon="-7.142382">
        <ele>449.013</ele>
        <time>2019-05-29T19:53:02Z</time>
      </trkpt>
      <trkpt lat="40.132619" lon="-7.142462">
        <ele>449.008</ele>
        <time>2019-05-29T19:53:22Z</time>
      </trkpt>
      <trkpt lat="40.132916" lon="-7.142711">
        <ele>449.036</ele>
        <time>2019-05-29T19:53:42Z</time>
      </trkpt>
      <trkpt lat="40.133201" lon="-7.142960">
        <ele>449.099</ele>
        <time>2019-05-29T19:54:02Z</time>
      </trkpt>
      <trkpt lat="40.133387" lon="-7.143175">
        <ele>448.072</ele>
        <time>2019-05-29T19:54:22Z</time>
      </trkpt>
      <trkpt lat="40.133573" lon="-7.143308">
        <ele>448.050</ele>
        <time>2019-05-29T19:54:42Z</time>
      </trkpt>
      <trkpt lat="40.133845" lon="-7.143527">
        <ele>448.067</ele>
        <time>2019-05-29T19:55:02Z</time>
      </trkpt>
      <trkpt lat="40.134114" lon="-7.143736">
        <ele>449.046</ele>
        <time>2019-05-29T19:55:22Z</time>
      </trkpt>
      <trkpt lat="40.134567" lon="-7.143688">
        <ele>452.053</ele>
        <time>2019-05-29T19:55:42Z</time>
      </trkpt>
      <trkpt lat="40.134873" lon="-7.143721">
        <ele>453.041</ele>
        <time>2019-05-29T19:56:02Z</time>
      </trkpt>
      <trkpt lat="40.135432" lon="-7.143481">
        <ele>455.076</ele>
        <time>2019-05-29T19:56:22Z</time>
      </trkpt>
      <trkpt lat="40.135958" lon="-7.143514">
        <ele>458.090</ele>
        <time>2019-05-29T19:56:42Z</time>
      </trkpt>
      <trkpt lat="40.136480" lon="-7.143203">
        <ele>460.019</ele>
        <time>2019-05-29T19:57:02Z</time>
      </trkpt>
      <trkpt lat="40.136904" lon="-7.142829">
        <ele>463.008</ele>
        <time>2019-05-29T19:57:22Z</time>
      </trkpt>
      <trkpt lat="40.137112" lon="-7.142619">
        <ele>464.060</ele>
        <time>2019-05-29T19:57:42Z</time>
      </trkpt>
      <trkpt lat="40.137484" lon="-7.142472">
        <ele>463.073</ele>
        <time>2019-05-29T19:58:02Z</time>
      </trkpt>
      <trkpt lat="40.137646" lon="-7.142052">
        <ele>463.036</ele>
        <time>2019-05-29T19:58:22Z</time>
      </trkpt>
      <trkpt lat="40.137901" lon="-7.141483">
        <ele>465.044</ele>
        <time>2019-05-29T19:58:42Z</time>
      </trkpt>
      <trkpt lat="40.137979" lon="-7.140218">
        <ele>471.021</ele>
        <time>2019-05-29T19:59:02Z</time>
      </trkpt>
      <trkpt lat="40.137947" lon="-7.139897">
        <ele>473.050</ele>
        <time>2019-05-29T19:59:22Z</time>
      </trkpt>
      <trkpt lat="40.138086" lon="-7.139396">
        <ele>476.097</ele>
        <time>2019-05-29T19:59:42Z</time>
      </trkpt>
      <trkpt lat="40.138095" lon="-7.139138">
        <ele>477.075</ele>
        <time>2019-05-29T20:00:02Z</time>
      </trkpt>
      <trkpt lat="40.138259" lon="-7.138575">
        <ele>479.015</ele>
        <time>2019-05-29T20:00:22Z</time>
      </trkpt>
      <trkpt lat="40.138434" lon="-7.138229">
        <ele>482.065</ele>
        <time>2019-05-29T20:00:42Z</time>
      </trkpt>
      <trkpt lat="40.138682" lon="-7.137893">
        <ele>487.011</ele>
        <time>2019-05-29T20:01:02Z</time>
      </trkpt>
      <trkpt lat="40.138907" lon="-7.137726">
        <ele>490.008</ele>
        <time>2019-05-29T20:01:22Z</time>
      </trkpt>
      <trkpt lat="40.139169" lon="-7.137665">
        <ele>489.014</ele>
        <time>2019-05-29T20:01:42Z</time>
      </trkpt>
      <trkpt lat="40.139354" lon="-7.137611">
        <ele>489.027</ele>
        <time>2019-05-29T20:02:02Z</time>
      </trkpt>
      <trkpt lat="40.139510" lon="-7.137361">
        <ele>489.020</ele>
        <time>2019-05-29T20:02:22Z</time>
      </trkpt>
      <trkpt lat="40.139681" lon="-7.137052">
        <ele>490.048</ele>
        <time>2019-05-29T20:02:42Z</time>
      </trkpt>
      <trkpt lat="40.139940" lon="-7.136848">
        <ele>491.035</ele>
        <time>2019-05-29T20:03:02Z</time>
      </trkpt>
      <trkpt lat="40.140241" lon="-7.136745">
        <ele>491.044</ele>
        <time>2019-05-29T20:03:22Z</time>
      </trkpt>
      <trkpt lat="40.140568" lon="-7.136627">
        <ele>490.021</ele>
        <time>2019-05-29T20:03:42Z</time>
      </trkpt>
      <trkpt lat="40.140811" lon="-7.136550">
        <ele>492.099</ele>
        <time>2019-05-29T20:04:02Z</time>
      </trkpt>
      <trkpt lat="40.141052" lon="-7.136504">
        <ele>494.077</ele>
        <time>2019-05-29T20:04:22Z</time>
      </trkpt>
      <trkpt lat="40.141295" lon="-7.136278">
        <ele>497.061</ele>
        <time>2019-05-29T20:04:42Z</time>
      </trkpt>
      <trkpt lat="40.141436" lon="-7.136067">
        <ele>498.027</ele>
        <time>2019-05-29T20:05:02Z</time>
      </trkpt>
      <trkpt lat="40.141573" lon="-7.135873">
        <ele>499.008</ele>
        <time>2019-05-29T20:05:22Z</time>
      </trkpt>
      <trkpt lat="40.141698" lon="-7.135490">
        <ele>503.050</ele>
        <time>2019-05-29T20:05:42Z</time>
      </trkpt>
      <trkpt lat="40.141842" lon="-7.135125">
        <ele>508.053</ele>
        <time>2019-05-29T20:06:02Z</time>
      </trkpt>
      <trkpt lat="40.142024" lon="-7.134814">
        <ele>511.096</ele>
        <time>2019-05-29T20:06:22Z</time>
      </trkpt>
      <trkpt lat="40.142109" lon="-7.134526">
        <ele>514.094</ele>
        <time>2019-05-29T20:06:42Z</time>
      </trkpt>
      <trkpt lat="40.142359" lon="-7.134449">
        <ele>512.031</ele>
        <time>2019-05-29T20:07:02Z</time>
      </trkpt>
      <trkpt lat="40.142530" lon="-7.134336">
        <ele>513.020</ele>
        <time>2019-05-29T20:07:22Z</time>
      </trkpt>
      <trkpt lat="40.142718" lon="-7.134382">
        <ele>512.027</ele>
        <time>2019-05-29T20:07:42Z</time>
      </trkpt>
      <trkpt lat="40.142993" lon="-7.134552">
        <ele>513.015</ele>
        <time>2019-05-29T20:08:02Z</time>
      </trkpt>
      <trkpt lat="40.143195" lon="-7.134690">
        <ele>513.041</ele>
        <time>2019-05-29T20:08:22Z</time>
      </trkpt>
      <trkpt lat="40.143334" lon="-7.134890">
        <ele>513.081</ele>
        <time>2019-05-29T20:08:42Z</time>
      </trkpt>
      <trkpt lat="40.143482" lon="-7.135147">
        <ele>512.009</ele>
        <time>2019-05-29T20:09:02Z</time>
      </trkpt>
      <trkpt lat="40.143715" lon="-7.135067">
        <ele>510.008</ele>
        <time>2019-05-29T20:09:22Z</time>
      </trkpt>
      <trkpt lat="40.143845" lon="-7.134776">
        <ele>510.097</ele>
        <time>2019-05-29T20:09:42Z</time>
      </trkpt>
      <trkpt lat="40.144296" lon="-7.134483">
        <ele>507.010</ele>
        <time>2019-05-29T20:10:02Z</time>
      </trkpt>
      <trkpt lat="40.144493" lon="-7.134355">
        <ele>504.053</ele>
        <time>2019-05-29T20:10:22Z</time>
      </trkpt>
      <trkpt lat="40.144834" lon="-7.134109">
        <ele>501.061</ele>
        <time>2019-05-29T20:10:42Z</time>
      </trkpt>
      <trkpt lat="40.145100" lon="-7.133853">
        <ele>497.058</ele>
        <time>2019-05-29T20:11:02Z</time>
      </trkpt>
      <trkpt lat="40.145337" lon="-7.133710">
        <ele>493.067</ele>
        <time>2019-05-29T20:11:22Z</time>
      </trkpt>
      <trkpt lat="40.146012" lon="-7.133349">
        <ele>495.054</ele>
        <time>2019-05-29T20:11:42Z</time>
      </trkpt>
      <trkpt lat="40.146102" lon="-7.133210">
        <ele>496.022</ele>
        <time>2019-05-29T20:12:02Z</time>
      </trkpt>
      <trkpt lat="40.146235" lon="-7.133165">
        <ele>496.089</ele>
        <time>2019-05-29T20:12:22Z</time>
      </trkpt>
      <trkpt lat="40.146492" lon="-7.132833">
        <ele>498.006</ele>
        <time>2019-05-29T20:12:42Z</time>
      </trkpt>
      <trkpt lat="40.146604" lon="-7.132674">
        <ele>500.026</ele>
        <time>2019-05-29T20:13:02Z</time>
      </trkpt>
      <trkpt lat="40.146834" lon="-7.132532">
        <ele>502.008</ele>
        <time>2019-05-29T20:13:22Z</time>
      </trkpt>
      <trkpt lat="40.147153" lon="-7.132470">
        <ele>500.041</ele>
        <time>2019-05-29T20:13:42Z</time>
      </trkpt>
      <trkpt lat="40.147480" lon="-7.132264">
        <ele>499.014</ele>
        <time>2019-05-29T20:14:02Z</time>
      </trkpt>
      <trkpt lat="40.147849" lon="-7.132030">
        <ele>498.057</ele>
        <time>2019-05-29T20:14:22Z</time>
      </trkpt>
      <trkpt lat="40.148149" lon="-7.131678">
        <ele>498.095</ele>
        <time>2019-05-29T20:14:42Z</time>
      </trkpt>
      <trkpt lat="40.148357" lon="-7.131554">
        <ele>496.052</ele>
        <time>2019-05-29T20:15:02Z</time>
      </trkpt>
      <trkpt lat="40.148729" lon="-7.131400">
        <ele>490.061</ele>
        <time>2019-05-29T20:15:22Z</time>
      </trkpt>
      <trkpt lat="40.148947" lon="-7.131298">
        <ele>486.088</ele>
        <time>2019-05-29T20:15:42Z</time>
      </trkpt>
      <trkpt lat="40.149158" lon="-7.131155">
        <ele>484.046</ele>
        <time>2019-05-29T20:16:02Z</time>
      </trkpt>
      <trkpt lat="40.149495" lon="-7.130948">
        <ele>481.075</ele>
        <time>2019-05-29T20:16:22Z</time>
      </trkpt>
      <trkpt lat="40.149697" lon="-7.130752">
        <ele>480.028</ele>
        <time>2019-05-29T20:16:42Z</time>
      </trkpt>
      <trkpt lat="40.149950" lon="-7.130613">
        <ele>477.020</ele>
        <time>2019-05-29T20:17:02Z</time>
      </trkpt>
      <trkpt lat="40.150256" lon="-7.130468">
        <ele>475.008</ele>
        <time>2019-05-29T20:17:22Z</time>
      </trkpt>
      <trkpt lat="40.150511" lon="-7.130303">
        <ele>476.080</ele>
        <time>2019-05-29T20:17:42Z</time>
      </trkpt>
      <trkpt lat="40.150799" lon="-7.130127">
        <ele>479.023</ele>
        <time>2019-05-29T20:18:02Z</time>
      </trkpt>
      <trkpt lat="40.151049" lon="-7.129943">
        <ele>480.026</ele>
        <time>2019-05-29T20:18:22Z</time>
      </trkpt>
      <trkpt lat="40.151226" lon="-7.129793">
        <ele>480.014</ele>
        <time>2019-05-29T20:18:42Z</time>
      </trkpt>
      <trkpt lat="40.151429" lon="-7.129511">
        <ele>482.031</ele>
        <time>2019-05-29T20:19:02Z</time>
      </trkpt>
      <trkpt lat="40.151620" lon="-7.129316">
        <ele>483.020</ele>
        <time>2019-05-29T20:19:22Z</time>
      </trkpt>
      <trkpt lat="40.151858" lon="-7.129069">
        <ele>479.027</ele>
        <time>2019-05-29T20:19:42Z</time>
      </trkpt>
      <trkpt lat="40.152165" lon="-7.128778">
        <ele>474.055</ele>
        <time>2019-05-29T20:20:02Z</time>
      </trkpt>
      <trkpt lat="40.152401" lon="-7.128472">
        <ele>473.074</ele>
        <time>2019-05-29T20:20:22Z</time>
      </trkpt>
      <trkpt lat="40.152689" lon="-7.128468">
        <ele>470.056</ele>
        <time>2019-05-29T20:20:42Z</time>
      </trkpt>
      <trkpt lat="40.153105" lon="-7.128337">
        <ele>467.021</ele>
        <time>2019-05-29T20:21:02Z</time>
      </trkpt>
      <trkpt lat="40.153345" lon="-7.128277">
        <ele>468.008</ele>
        <time>2019-05-29T20:21:22Z</time>
      </trkpt>
      <trkpt lat="40.153563" lon="-7.128225">
        <ele>468.010</ele>
        <time>2019-05-29T20:21:42Z</time>
      </trkpt>
      <trkpt lat="40.153966" lon="-7.128242">
        <ele>466.083</ele>
        <time>2019-05-29T20:22:02Z</time>
      </trkpt>
      <trkpt lat="40.154134" lon="-7.128117">
        <ele>466.066</ele>
        <time>2019-05-29T20:22:22Z</time>
      </trkpt>
      <trkpt lat="40.154332" lon="-7.127853">
        <ele>464.054</ele>
        <time>2019-05-29T20:22:42Z</time>
      </trkpt>
      <trkpt lat="40.154571" lon="-7.127571">
        <ele>460.021</ele>
        <time>2019-05-29T20:23:02Z</time>
      </trkpt>
      <trkpt lat="40.154581" lon="-7.127928">
        <ele>461.070</ele>
        <time>2019-05-29T20:23:22Z</time>
      </trkpt>
      <trkpt lat="40.154727" lon="-7.128171">
        <ele>459.097</ele>
        <time>2019-05-29T20:23:42Z</time>
      </trkpt>
      <trkpt lat="40.154676" lon="-7.129047">
        <ele>460.045</ele>
        <time>2019-05-29T20:24:02Z</time>
      </trkpt>
      <trkpt lat="40.154792" lon="-7.129542">
        <ele>458.069</ele>
        <time>2019-05-29T20:24:22Z</time>
      </trkpt>
      <trkpt lat="40.155040" lon="-7.129632">
        <ele>456.004</ele>
        <time>2019-05-29T20:24:42Z</time>
      </trkpt>
      <trkpt lat="40.155213" lon="-7.130047">
        <ele>454.024</ele>
        <time>2019-05-29T20:25:02Z</time>
      </trkpt>
      <trkpt lat="40.155491" lon="-7.130295">
        <ele>455.008</ele>
        <time>2019-05-29T20:25:22Z</time>
      </trkpt>
      <trkpt lat="40.155659" lon="-7.130881">
        <ele>456.099</ele>
        <time>2019-05-29T20:25:42Z</time>
      </trkpt>
      <trkpt lat="40.155889" lon="-7.131249">
        <ele>457.082</ele>
        <time>2019-05-29T20:26:02Z</time>
      </trkpt>
      <trkpt lat="40.156046" lon="-7.131463">
        <ele>457.035</ele>
        <time>2019-05-29T20:26:22Z</time>
      </trkpt>
      <trkpt lat="40.156191" lon="-7.131657">
        <ele>458.013</ele>
        <time>2019-05-29T20:26:42Z</time>
      </trkpt>
      <trkpt lat="40.156650" lon="-7.132035">
        <ele>459.090</ele>
        <time>2019-05-29T20:27:02Z</time>
      </trkpt>
      <trkpt lat="40.156852" lon="-7.132206">
        <ele>459.019</ele>
        <time>2019-05-29T20:27:22Z</time>
      </trkpt>
      <trkpt lat="40.156994" lon="-7.132542">
        <ele>460.016</ele>
        <time>2019-05-29T20:27:42Z</time>
      </trkpt>
      <trkpt lat="40.157084" lon="-7.132911">
        <ele>460.074</ele>
        <time>2019-05-29T20:28:02Z</time>
      </trkpt>
      <trkpt lat="40.157265" lon="-7.133461">
        <ele>464.029</ele>
        <time>2019-05-29T20:28:22Z</time>
      </trkpt>
      <trkpt lat="40.157431" lon="-7.133857">
        <ele>466.000</ele>
        <time>2019-05-29T20:28:42Z</time>
      </trkpt>
      <trkpt lat="40.157570" lon="-7.134061">
        <ele>467.020</ele>
        <time>2019-05-29T20:29:02Z</time>
      </trkpt>
      <trkpt lat="40.158649" lon="-7.135202">
        <ele>464.008</ele>
        <time>2019-05-29T20:29:22Z</time>
      </trkpt>
      <trkpt lat="40.158939" lon="-7.135557">
        <ele>466.045</ele>
        <time>2019-05-29T20:29:42Z</time>
      </trkpt>
      <trkpt lat="40.158948" lon="-7.135758">
        <ele>466.088</ele>
        <time>2019-05-29T20:30:02Z</time>
      </trkpt>
      <trkpt lat="40.158801" lon="-7.136300">
        <ele>467.031</ele>
        <time>2019-05-29T20:30:22Z</time>
      </trkpt>
      <trkpt lat="40.158790" lon="-7.136563">
        <ele>468.019</ele>
        <time>2019-05-29T20:30:42Z</time>
      </trkpt>
      <trkpt lat="40.158857" lon="-7.136834">
        <ele>468.076</ele>
        <time>2019-05-29T20:31:02Z</time>
      </trkpt>
      <trkpt lat="40.159202" lon="-7.137360">
        <ele>471.015</ele>
        <time>2019-05-29T20:31:22Z</time>
      </trkpt>
      <trkpt lat="40.159499" lon="-7.137821">
        <ele>473.072</ele>
        <time>2019-05-29T20:31:42Z</time>
      </trkpt>
      <trkpt lat="40.160081" lon="-7.137919">
        <ele>474.020</ele>
        <time>2019-05-29T20:32:02Z</time>
      </trkpt>
      <trkpt lat="40.160459" lon="-7.137870">
        <ele>474.098</ele>
        <time>2019-05-29T20:32:22Z</time>
      </trkpt>
      <trkpt lat="40.160862" lon="-7.137737">
        <ele>476.015</ele>
        <time>2019-05-29T20:32:42Z</time>
      </trkpt>
      <trkpt lat="40.161212" lon="-7.137430">
        <ele>477.026</ele>
        <time>2019-05-29T20:33:02Z</time>
      </trkpt>
      <trkpt lat="40.161521" lon="-7.137334">
        <ele>478.008</ele>
        <time>2019-05-29T20:33:22Z</time>
      </trkpt>
      <trkpt lat="40.161670" lon="-7.137221">
        <ele>479.022</ele>
        <time>2019-05-29T20:33:42Z</time>
      </trkpt>
      <trkpt lat="40.161973" lon="-7.136861">
        <ele>480.035</ele>
        <time>2019-05-29T20:34:02Z</time>
      </trkpt>
      <trkpt lat="40.162218" lon="-7.136614">
        <ele>480.048</ele>
        <time>2019-05-29T20:34:22Z</time>
      </trkpt>
      <trkpt lat="40.162523" lon="-7.136386">
        <ele>479.076</ele>
        <time>2019-05-29T20:34:42Z</time>
      </trkpt>
      <trkpt lat="40.162851" lon="-7.136345">
        <ele>480.063</ele>
        <time>2019-05-29T20:35:02Z</time>
      </trkpt>
      <trkpt lat="40.162939" lon="-7.136930">
        <ele>479.052</ele>
        <time>2019-05-29T20:35:22Z</time>
      </trkpt>
      <trkpt lat="40.163037" lon="-7.137677">
        <ele>478.029</ele>
        <time>2019-05-29T20:35:42Z</time>
      </trkpt>
      <trkpt lat="40.163179" lon="-7.137868">
        <ele>477.087</ele>
        <time>2019-05-29T20:36:02Z</time>
      </trkpt>
      <trkpt lat="40.163397" lon="-7.137889">
        <ele>475.039</ele>
        <time>2019-05-29T20:36:22Z</time>
      </trkpt>
      <trkpt lat="40.163696" lon="-7.138005">
        <ele>471.001</ele>
        <time>2019-05-29T20:36:42Z</time>
      </trkpt>
      <trkpt lat="40.163937" lon="-7.137738">
        <ele>470.021</ele>
        <time>2019-05-29T20:37:02Z</time>
      </trkpt>
      <trkpt lat="40.164089" lon="-7.137320">
        <ele>471.008</ele>
        <time>2019-05-29T20:37:22Z</time>
      </trkpt>
      <trkpt lat="40.164644" lon="-7.136578">
        <ele>475.046</ele>
        <time>2019-05-29T20:37:42Z</time>
      </trkpt>
      <trkpt lat="40.164857" lon="-7.135925">
        <ele>479.099</ele>
        <time>2019-05-29T20:38:02Z</time>
      </trkpt>
      <trkpt lat="40.165862" lon="-7.135245">
        <ele>479.092</ele>
        <time>2019-05-29T20:38:22Z</time>
      </trkpt>
      <trkpt lat="40.166112" lon="-7.135065">
        <ele>480.050</ele>
        <time>2019-05-29T20:38:42Z</time>
      </trkpt>
      <trkpt lat="40.166585" lon="-7.134857">
        <ele>478.017</ele>
        <time>2019-05-29T20:39:02Z</time>
      </trkpt>
      <trkpt lat="40.166771" lon="-7.134748">
        <ele>479.026</ele>
        <time>2019-05-29T20:39:22Z</time>
      </trkpt>
      <trkpt lat="40.167237" lon="-7.134301">
        <ele>480.013</ele>
        <time>2019-05-29T20:39:42Z</time>
      </trkpt>
      <trkpt lat="40.167508" lon="-7.133928">
        <ele>480.051</ele>
        <time>2019-05-29T20:40:02Z</time>
      </trkpt>
      <trkpt lat="40.167586" lon="-7.133880">
        <ele>481.042</ele>
        <time>2019-05-29T20:40:22Z</time>
      </trkpt>
      <trkpt lat="40.167755" lon="-7.133946">
        <ele>483.022</ele>
        <time>2019-05-29T20:40:42Z</time>
      </trkpt>
      <trkpt lat="40.167847" lon="-7.134034">
        <ele>485.014</ele>
        <time>2019-05-29T20:41:02Z</time>
      </trkpt>
      <trkpt lat="40.167778" lon="-7.134253">
        <ele>484.008</ele>
        <time>2019-05-29T20:41:22Z</time>
      </trkpt>
      <trkpt lat="40.167630" lon="-7.134728">
        <ele>485.077</ele>
        <time>2019-05-29T20:41:42Z</time>
      </trkpt>
      <trkpt lat="40.167579" lon="-7.135360">
        <ele>489.010</ele>
        <time>2019-05-29T20:42:02Z</time>
      </trkpt>
      <trkpt lat="40.167961" lon="-7.135953">
        <ele>492.013</ele>
        <time>2019-05-29T20:42:22Z</time>
      </trkpt>
      <trkpt lat="40.168131" lon="-7.136437">
        <ele>489.041</ele>
        <time>2019-05-29T20:42:42Z</time>
      </trkpt>
      <trkpt lat="40.168164" lon="-7.136885">
        <ele>490.028</ele>
        <time>2019-05-29T20:43:02Z</time>
      </trkpt>
      <trkpt lat="40.168397" lon="-7.137657">
        <ele>493.067</ele>
        <time>2019-05-29T20:43:22Z</time>
      </trkpt>
      <trkpt lat="40.168534" lon="-7.138067">
        <ele>493.034</ele>
        <time>2019-05-29T20:43:42Z</time>
      </trkpt>
      <trkpt lat="40.168676" lon="-7.138525">
        <ele>492.052</ele>
        <time>2019-05-29T20:44:02Z</time>
      </trkpt>
      <trkpt lat="40.168697" lon="-7.138965">
        <ele>489.013</ele>
        <time>2019-05-29T20:44:22Z</time>
      </trkpt>
      <trkpt lat="40.168591" lon="-7.139287">
        <ele>486.043</ele>
        <time>2019-05-29T20:44:42Z</time>
      </trkpt>
      <trkpt lat="40.168577" lon="-7.139520">
        <ele>485.007</ele>
        <time>2019-05-29T20:45:02Z</time>
      </trkpt>
      <trkpt lat="40.169008" lon="-7.139357">
        <ele>494.008</ele>
        <time>2019-05-29T20:45:22Z</time>
      </trkpt>
      <trkpt lat="40.169435" lon="-7.139271">
        <ele>501.014</ele>
        <time>2019-05-29T20:45:42Z</time>
      </trkpt>
      <trkpt lat="40.169653" lon="-7.139684">
        <ele>500.047</ele>
        <time>2019-05-29T20:46:02Z</time>
      </trkpt>
      <trkpt lat="40.169775" lon="-7.139904">
        <ele>499.020</ele>
        <time>2019-05-29T20:46:22Z</time>
      </trkpt>
      <trkpt lat="40.170303" lon="-7.140944">
        <ele>500.058</ele>
        <time>2019-05-29T20:46:42Z</time>
      </trkpt>
      <trkpt lat="40.170829" lon="-7.141096">
        <ele>508.085</ele>
        <time>2019-05-29T20:47:02Z</time>
      </trkpt>
      <trkpt lat="40.171044" lon="-7.142075">
        <ele>502.064</ele>
        <time>2019-05-29T20:47:22Z</time>
      </trkpt>
      <trkpt lat="40.170393" lon="-7.142550">
        <ele>494.011</ele>
        <time>2019-05-29T20:47:42Z</time>
      </trkpt>
      <trkpt lat="40.170039" lon="-7.143235">
        <ele>494.069</ele>
        <time>2019-05-29T20:48:02Z</time>
      </trkpt>
      <trkpt lat="40.170186" lon="-7.143647">
        <ele>490.046</ele>
        <time>2019-05-29T20:48:22Z</time>
      </trkpt>
      <trkpt lat="40.170329" lon="-7.145269">
        <ele>475.088</ele>
        <time>2019-05-29T20:48:42Z</time>
      </trkpt>
      <trkpt lat="40.170509" lon="-7.145248">
        <ele>476.016</ele>
        <time>2019-05-29T20:49:02Z</time>
      </trkpt>
      <trkpt lat="40.170862" lon="-7.145324">
        <ele>478.008</ele>
        <time>2019-05-29T20:49:22Z</time>
      </trkpt>
      <trkpt lat="40.171203" lon="-7.145303">
        <ele>479.067</ele>
        <time>2019-05-29T20:49:42Z</time>
      </trkpt>
      <trkpt lat="40.172243" lon="-7.145268">
        <ele>482.040</ele>
        <time>2019-05-29T20:50:02Z</time>
      </trkpt>
      <trkpt lat="40.172183" lon="-7.145583">
        <ele>482.013</ele>
        <time>2019-05-29T20:50:22Z</time>
      </trkpt>
      <trkpt lat="40.171898" lon="-7.146361">
        <ele>487.091</ele>
        <time>2019-05-29T20:50:42Z</time>
      </trkpt>
      <trkpt lat="40.171617" lon="-7.146728">
        <ele>489.058</ele>
        <time>2019-05-29T20:51:02Z</time>
      </trkpt>
      <trkpt lat="40.171466" lon="-7.147012">
        <ele>489.027</ele>
        <time>2019-05-29T20:51:22Z</time>
      </trkpt>
      <trkpt lat="40.171317" lon="-7.147662">
        <ele>487.064</ele>
        <time>2019-05-29T20:51:42Z</time>
      </trkpt>
      <trkpt lat="40.171251" lon="-7.147983">
        <ele>486.022</ele>
        <time>2019-05-29T20:52:02Z</time>
      </trkpt>
      <trkpt lat="40.171266" lon="-7.148474">
        <ele>485.036</ele>
        <time>2019-05-29T20:52:22Z</time>
      </trkpt>
      <trkpt lat="40.171083" lon="-7.148825">
        <ele>487.017</ele>
        <time>2019-05-29T20:52:42Z</time>
      </trkpt>
      <trkpt lat="40.170722" lon="-7.149845">
        <ele>489.018</ele>
        <time>2019-05-29T20:53:02Z</time>
      </trkpt>
      <trkpt lat="40.170626" lon="-7.150290">
        <ele>488.008</ele>
        <time>2019-05-29T20:53:22Z</time>
      </trkpt>
      <trkpt lat="40.170499" lon="-7.150458">
        <ele>488.066</ele>
        <time>2019-05-29T20:53:42Z</time>
      </trkpt>
      <trkpt lat="40.170267" lon="-7.151283">
        <ele>492.029</ele>
        <time>2019-05-29T20:54:02Z</time>
      </trkpt>
      <trkpt lat="40.170237" lon="-7.151631">
        <ele>492.052</ele>
        <time>2019-05-29T20:54:22Z</time>
      </trkpt>
      <trkpt lat="40.170195" lon="-7.151805">
        <ele>493.020</ele>
        <time>2019-05-29T20:54:42Z</time>
      </trkpt>
      <trkpt lat="40.170184" lon="-7.152509">
        <ele>491.067</ele>
        <time>2019-05-29T20:55:02Z</time>
      </trkpt>
      <trkpt lat="40.170162" lon="-7.152881">
        <ele>490.076</ele>
        <time>2019-05-29T20:55:22Z</time>
      </trkpt>
      <trkpt lat="40.170117" lon="-7.153187">
        <ele>489.083</ele>
        <time>2019-05-29T20:55:42Z</time>
      </trkpt>
      <trkpt lat="40.170079" lon="-7.153568">
        <ele>486.051</ele>
        <time>2019-05-29T20:56:02Z</time>
      </trkpt>
      <trkpt lat="40.169956" lon="-7.154149">
        <ele>487.058</ele>
        <time>2019-05-29T20:56:22Z</time>
      </trkpt>
      <trkpt lat="40.169904" lon="-7.154620">
        <ele>484.052</ele>
        <time>2019-05-29T20:56:42Z</time>
      </trkpt>
      <trkpt lat="40.169884" lon="-7.154923">
        <ele>482.017</ele>
        <time>2019-05-29T20:57:02Z</time>
      </trkpt>
      <trkpt lat="40.169766" lon="-7.155398">
        <ele>480.008</ele>
        <time>2019-05-29T20:57:22Z</time>
      </trkpt>
      <trkpt lat="40.169700" lon="-7.155840">
        <ele>479.078</ele>
        <time>2019-05-29T20:57:42Z</time>
      </trkpt>
      <trkpt lat="40.169690" lon="-7.156133">
        <ele>479.021</ele>
        <time>2019-05-29T20:58:02Z</time>
      </trkpt>
      <trkpt lat="40.169711" lon="-7.156519">
        <ele>480.034</ele>
        <time>2019-05-29T20:58:22Z</time>
      </trkpt>
      <trkpt lat="40.169677" lon="-7.156989">
        <ele>481.022</ele>
        <time>2019-05-29T20:58:42Z</time>
      </trkpt>
      <trkpt lat="40.169653" lon="-7.157298">
        <ele>482.039</ele>
        <time>2019-05-29T20:59:02Z</time>
      </trkpt>
      <trkpt lat="40.169656" lon="-7.157584">
        <ele>483.048</ele>
        <time>2019-05-29T20:59:22Z</time>
      </trkpt>
      <trkpt lat="40.169685" lon="-7.157860">
        <ele>483.065</ele>
        <time>2019-05-29T20:59:42Z</time>
      </trkpt>
      <trkpt lat="40.169721" lon="-7.158197">
        <ele>483.093</ele>
        <time>2019-05-29T21:00:02Z</time>
      </trkpt>
      <trkpt lat="40.169499" lon="-7.159021">
        <ele>481.073</ele>
        <time>2019-05-29T21:00:22Z</time>
      </trkpt>
      <trkpt lat="40.169428" lon="-7.159288">
        <ele>480.085</ele>
        <time>2019-05-29T21:00:42Z</time>
      </trkpt>
      <trkpt lat="40.169291" lon="-7.159620">
        <ele>480.013</ele>
        <time>2019-05-29T21:01:02Z</time>
      </trkpt>
      <trkpt lat="40.169190" lon="-7.159883">
        <ele>481.008</ele>
        <time>2019-05-29T21:01:22Z</time>
      </trkpt>
      <trkpt lat="40.169221" lon="-7.160185">
        <ele>482.020</ele>
        <time>2019-05-29T21:01:42Z</time>
      </trkpt>
      <trkpt lat="40.169202" lon="-7.160569">
        <ele>484.043</ele>
        <time>2019-05-29T21:02:02Z</time>
      </trkpt>
      <trkpt lat="40.169499" lon="-7.160702">
        <ele>484.016</ele>
        <time>2019-05-29T21:02:22Z</time>
      </trkpt>
      <trkpt lat="40.169804" lon="-7.160806">
        <ele>485.074</ele>
        <time>2019-05-29T21:02:42Z</time>
      </trkpt>
      <trkpt lat="40.170381" lon="-7.161081">
        <ele>485.091</ele>
        <time>2019-05-29T21:03:02Z</time>
      </trkpt>
      <trkpt lat="40.170874" lon="-7.161646">
        <ele>489.080</ele>
        <time>2019-05-29T21:03:22Z</time>
      </trkpt>
      <trkpt lat="40.171310" lon="-7.162273">
        <ele>489.077</ele>
        <time>2019-05-29T21:03:42Z</time>
      </trkpt>
      <trkpt lat="40.171619" lon="-7.162788">
        <ele>491.095</ele>
        <time>2019-05-29T21:04:02Z</time>
      </trkpt>
      <trkpt lat="40.171600" lon="-7.162924">
        <ele>492.042</ele>
        <time>2019-05-29T21:04:22Z</time>
      </trkpt>
      <trkpt lat="40.171546" lon="-7.163052">
        <ele>492.022</ele>
        <time>2019-05-29T21:04:42Z</time>
      </trkpt>
      <trkpt lat="40.171580" lon="-7.163203">
        <ele>494.014</ele>
        <time>2019-05-29T21:05:02Z</time>
      </trkpt>
      <trkpt lat="40.172666" lon="-7.164783">
        <ele>497.008</ele>
        <time>2019-05-29T21:05:22Z</time>
      </trkpt>
      <trkpt lat="40.172672" lon="-7.165031">
        <ele>499.027</ele>
        <time>2019-05-29T21:05:42Z</time>
      </trkpt>
      <trkpt lat="40.172218" lon="-7.166386">
        <ele>504.040</ele>
        <time>2019-05-29T21:06:02Z</time>
      </trkpt>
      <trkpt lat="40.172025" lon="-7.166377">
        <ele>504.093</ele>
        <time>2019-05-29T21:06:22Z</time>
      </trkpt>
      <trkpt lat="40.171812" lon="-7.166697">
        <ele>508.041</ele>
        <time>2019-05-29T21:06:42Z</time>
      </trkpt>
      <trkpt lat="40.171660" lon="-7.166745">
        <ele>509.038</ele>
        <time>2019-05-29T21:07:02Z</time>
      </trkpt>
      <trkpt lat="40.171546" lon="-7.166749">
        <ele>511.077</ele>
        <time>2019-05-29T21:07:22Z</time>
      </trkpt>
      <trkpt lat="40.171397" lon="-7.166722">
        <ele>513.074</ele>
        <time>2019-05-29T21:07:42Z</time>
      </trkpt>
      <trkpt lat="40.171245" lon="-7.166692">
        <ele>516.012</ele>
        <time>2019-05-29T21:08:02Z</time>
      </trkpt>
      <trkpt lat="40.171029" lon="-7.166843">
        <ele>519.025</ele>
        <time>2019-05-29T21:08:22Z</time>
      </trkpt>
      <trkpt lat="40.170751" lon="-7.167104">
        <ele>524.026</ele>
        <time>2019-05-29T21:08:42Z</time>
      </trkpt>
      <trkpt lat="40.170482" lon="-7.167370">
        <ele>527.008</ele>
        <time>2019-05-29T21:09:02Z</time>
      </trkpt>
      <trkpt lat="40.170215" lon="-7.167677">
        <ele>532.008</ele>
        <time>2019-05-29T21:09:22Z</time>
      </trkpt>
      <trkpt lat="40.169817" lon="-7.167996">
        <ele>538.085</ele>
        <time>2019-05-29T21:09:42Z</time>
      </trkpt>
      <trkpt lat="40.169689" lon="-7.168215">
        <ele>541.018</ele>
        <time>2019-05-29T21:10:02Z</time>
      </trkpt>
      <trkpt lat="40.169664" lon="-7.168292">
        <ele>541.071</ele>
        <time>2019-05-29T21:10:22Z</time>
      </trkpt>
      <trkpt lat="40.169828" lon="-7.168639">
        <ele>539.099</ele>
        <time>2019-05-29T21:10:42Z</time>
      </trkpt>
      <trkpt lat="40.169765" lon="-7.168948">
        <ele>541.056</ele>
        <time>2019-05-29T21:11:02Z</time>
      </trkpt>
      <trkpt lat="40.169743" lon="-7.169271">
        <ele>544.055</ele>
        <time>2019-05-29T21:11:22Z</time>
      </trkpt>
      <trkpt lat="40.169709" lon="-7.169905">
        <ele>551.052</ele>
        <time>2019-05-29T21:11:42Z</time>
      </trkpt>
      <trkpt lat="40.169759" lon="-7.170043">
        <ele>552.080</ele>
        <time>2019-05-29T21:12:02Z</time>
      </trkpt>
      <trkpt lat="40.169901" lon="-7.170125">
        <ele>551.031</ele>
        <time>2019-05-29T21:12:22Z</time>
      </trkpt>
      <trkpt lat="40.170032" lon="-7.170154">
        <ele>549.061</ele>
        <time>2019-05-29T21:12:42Z</time>
      </trkpt>
      <trkpt lat="40.170106" lon="-7.170306">
        <ele>550.007</ele>
        <time>2019-05-29T21:13:02Z</time>
      </trkpt>
      <trkpt lat="40.170068" lon="-7.170336">
        <ele>551.008</ele>
        <time>2019-05-29T21:13:22Z</time>
      </trkpt>
      <trkpt lat="40.169824" lon="-7.170288">
        <ele>554.056</ele>
        <time>2019-05-29T21:13:42Z</time>
      </trkpt>
      <trkpt lat="40.169684" lon="-7.170293">
        <ele>557.069</ele>
        <time>2019-05-29T21:14:02Z</time>
      </trkpt>
      <trkpt lat="40.169487" lon="-7.170349">
        <ele>562.042</ele>
        <time>2019-05-29T21:14:22Z</time>
      </trkpt>
      <trkpt lat="40.169384" lon="-7.170327">
        <ele>563.070</ele>
        <time>2019-05-29T21:14:42Z</time>
      </trkpt>
      <trkpt lat="40.169237" lon="-7.170053">
        <ele>561.037</ele>
        <time>2019-05-29T21:15:02Z</time>
      </trkpt>
      <trkpt lat="40.169107" lon="-7.169794">
        <ele>560.026</ele>
        <time>2019-05-29T21:15:22Z</time>
      </trkpt>
      <trkpt lat="40.169031" lon="-7.169677">
        <ele>560.043</ele>
        <time>2019-05-29T21:15:42Z</time>
      </trkpt>
      <trkpt lat="40.169031" lon="-7.169677">
        <ele>560.066</ele>
        <time>2019-05-29T10:12:39Z</time>
      </trkpt>
      <trkpt lat="40.168629" lon="-7.169673">
        <ele>564.029</ele>
        <time>2019-05-29T10:12:59Z</time>
      </trkpt>
      <trkpt lat="40.168377" lon="-7.169674">
        <ele>567.021</ele>
        <time>2019-05-29T10:13:19Z</time>
      </trkpt>
      <trkpt lat="40.168433" lon="-7.169869">
        <ele>568.008</ele>
        <time>2019-05-29T10:13:39Z</time>
      </trkpt>
      <trkpt lat="40.168579" lon="-7.170254">
        <ele>570.059</ele>
        <time>2019-05-29T10:13:59Z</time>
      </trkpt>
      <trkpt lat="40.168738" lon="-7.170634">
        <ele>572.012</ele>
        <time>2019-05-29T10:14:19Z</time>
      </trkpt>
      <trkpt lat="40.168910" lon="-7.171019">
        <ele>574.055</ele>
        <time>2019-05-29T10:14:39Z</time>
      </trkpt>
      <trkpt lat="40.169025" lon="-7.171257">
        <ele>577.053</ele>
        <time>2019-05-29T10:14:59Z</time>
      </trkpt>
      <trkpt lat="40.169322" lon="-7.171403">
        <ele>580.050</ele>
        <time>2019-05-29T10:15:19Z</time>
      </trkpt>
      <trkpt lat="40.169592" lon="-7.171592">
        <ele>580.019</ele>
        <time>2019-05-29T10:15:39Z</time>
      </trkpt>
      <trkpt lat="40.170009" lon="-7.171842">
        <ele>580.031</ele>
        <time>2019-05-29T10:15:59Z</time>
      </trkpt>
      <trkpt lat="40.170504" lon="-7.171879">
        <ele>573.031</ele>
        <time>2019-05-29T10:16:19Z</time>
      </trkpt>
      <trkpt lat="40.170999" lon="-7.172102">
        <ele>568.036</ele>
        <time>2019-05-29T10:16:39Z</time>
      </trkpt>
      <trkpt lat="40.171264" lon="-7.172199">
        <ele>566.017</ele>
        <time>2019-05-29T10:16:59Z</time>
      </trkpt>
      <trkpt lat="40.172273" lon="-7.172499">
        <ele>556.018</ele>
        <time>2019-05-29T10:17:19Z</time>
      </trkpt>
      <trkpt lat="40.172397" lon="-7.172752">
        <ele>558.008</ele>
        <time>2019-05-29T10:17:39Z</time>
      </trkpt>
      <trkpt lat="40.172386" lon="-7.173479">
        <ele>555.016</ele>
        <time>2019-05-29T10:17:59Z</time>
      </trkpt>
      <trkpt lat="40.172678" lon="-7.174183">
        <ele>544.049</ele>
        <time>2019-05-29T10:18:19Z</time>
      </trkpt>
      <trkpt lat="40.172740" lon="-7.174624">
        <ele>540.072</ele>
        <time>2019-05-29T10:18:39Z</time>
      </trkpt>
      <trkpt lat="40.173222" lon="-7.175081">
        <ele>533.020</ele>
        <time>2019-05-29T10:18:59Z</time>
      </trkpt>
      <trkpt lat="40.173426" lon="-7.175434">
        <ele>528.037</ele>
        <time>2019-05-29T10:19:19Z</time>
      </trkpt>
      <trkpt lat="40.173427" lon="-7.175707">
        <ele>526.096</ele>
        <time>2019-05-29T10:19:39Z</time>
      </trkpt>
      <trkpt lat="40.173298" lon="-7.176027">
        <ele>527.088</ele>
        <time>2019-05-29T10:19:59Z</time>
      </trkpt>
      <trkpt lat="40.173204" lon="-7.176159">
        <ele>529.098</ele>
        <time>2019-05-29T10:20:19Z</time>
      </trkpt>
      <trkpt lat="40.173295" lon="-7.176373">
        <ele>531.061</ele>
        <time>2019-05-29T10:20:39Z</time>
      </trkpt>
      <trkpt lat="40.173480" lon="-7.176459">
        <ele>530.021</ele>
        <time>2019-05-29T10:20:59Z</time>
      </trkpt>
      <trkpt lat="40.173786" lon="-7.176737">
        <ele>526.013</ele>
        <time>2019-05-29T10:21:19Z</time>
      </trkpt>
      <trkpt lat="40.173869" lon="-7.177019">
        <ele>525.008</ele>
        <time>2019-05-29T10:21:39Z</time>
      </trkpt>
      <trkpt lat="40.173868" lon="-7.177034">
        <ele>525.029</ele>
        <time>2019-05-29T10:21:59Z</time>
      </trkpt>
      <trkpt lat="40.173849" lon="-7.177229">
        <ele>525.022</ele>
        <time>2019-05-29T10:22:19Z</time>
      </trkpt>
      <trkpt lat="40.173954" lon="-7.177610">
        <ele>520.085</ele>
        <time>2019-05-29T10:22:39Z</time>
      </trkpt>
      <trkpt lat="40.173868" lon="-7.178019">
        <ele>519.023</ele>
        <time>2019-05-29T10:22:59Z</time>
      </trkpt>
      <trkpt lat="40.174307" lon="-7.178517">
        <ele>513.010</ele>
        <time>2019-05-29T10:23:19Z</time>
      </trkpt>
      <trkpt lat="40.174380" lon="-7.178792">
        <ele>511.099</ele>
        <time>2019-05-29T10:23:39Z</time>
      </trkpt>
      <trkpt lat="40.174363" lon="-7.179014">
        <ele>512.061</ele>
        <time>2019-05-29T10:23:59Z</time>
      </trkpt>
      <trkpt lat="40.174568" lon="-7.179354">
        <ele>507.041</ele>
        <time>2019-05-29T10:24:19Z</time>
      </trkpt>
      <trkpt lat="40.174590" lon="-7.179676">
        <ele>505.061</ele>
        <time>2019-05-29T10:24:39Z</time>
      </trkpt>
      <trkpt lat="40.174571" lon="-7.179868">
        <ele>504.021</ele>
        <time>2019-05-29T10:24:59Z</time>
      </trkpt>
      <trkpt lat="40.174281" lon="-7.180158">
        <ele>507.013</ele>
        <time>2019-05-29T10:25:19Z</time>
      </trkpt>
      <trkpt lat="40.174200" lon="-7.180621">
        <ele>503.008</ele>
        <time>2019-05-29T10:25:39Z</time>
      </trkpt>
      <trkpt lat="40.174164" lon="-7.180787">
        <ele>504.049</ele>
        <time>2019-05-29T10:25:59Z</time>
      </trkpt>
      <trkpt lat="40.174339" lon="-7.181386">
        <ele>501.042</ele>
        <time>2019-05-29T10:26:19Z</time>
      </trkpt>
      <trkpt lat="40.174283" lon="-7.181801">
        <ele>505.095</ele>
        <time>2019-05-29T10:26:39Z</time>
      </trkpt>
      <trkpt lat="40.174298" lon="-7.181954">
        <ele>504.033</ele>
        <time>2019-05-29T10:26:59Z</time>
      </trkpt>
      <trkpt lat="40.174394" lon="-7.182409">
        <ele>499.090</ele>
        <time>2019-05-29T10:27:19Z</time>
      </trkpt>
      <trkpt lat="40.174271" lon="-7.183253">
        <ele>490.079</ele>
        <time>2019-05-29T10:27:39Z</time>
      </trkpt>
      <trkpt lat="40.174256" lon="-7.183853">
        <ele>484.071</ele>
        <time>2019-05-29T10:27:59Z</time>
      </trkpt>
      <trkpt lat="40.174227" lon="-7.184213">
        <ele>480.021</ele>
        <time>2019-05-29T10:28:19Z</time>
      </trkpt>
      <trkpt lat="40.174074" lon="-7.184781">
        <ele>475.097</ele>
        <time>2019-05-29T10:28:39Z</time>
      </trkpt>
      <trkpt lat="40.174035" lon="-7.185038">
        <ele>474.023</ele>
        <time>2019-05-29T10:28:59Z</time>
      </trkpt>
      <trkpt lat="40.174100" lon="-7.185688">
        <ele>471.025</ele>
        <time>2019-05-29T10:29:19Z</time>
      </trkpt>
      <trkpt lat="40.174075" lon="-7.185979">
        <ele>470.008</ele>
        <time>2019-05-29T10:29:39Z</time>
      </trkpt>
      <trkpt lat="40.174075" lon="-7.185993">
        <ele>470.082</ele>
        <time>2019-05-29T10:29:59Z</time>
      </trkpt>
      <trkpt lat="40.174114" lon="-7.186151">
        <ele>469.075</ele>
        <time>2019-05-29T10:30:19Z</time>
      </trkpt>
      <trkpt lat="40.174492" lon="-7.187159">
        <ele>465.038</ele>
        <time>2019-05-29T10:30:39Z</time>
      </trkpt>
      <trkpt lat="40.174951" lon="-7.187286">
        <ele>460.016</ele>
        <time>2019-05-29T10:30:59Z</time>
      </trkpt>
      <trkpt lat="40.176276" lon="-7.187957">
        <ele>450.063</ele>
        <time>2019-05-29T10:31:19Z</time>
      </trkpt>
      <trkpt lat="40.176545" lon="-7.188060">
        <ele>448.022</ele>
        <time>2019-05-29T10:31:39Z</time>
      </trkpt>
      <trkpt lat="40.176823" lon="-7.188137">
        <ele>447.024</ele>
        <time>2019-05-29T10:31:59Z</time>
      </trkpt>
      <trkpt lat="40.177086" lon="-7.188153">
        <ele>446.014</ele>
        <time>2019-05-29T10:32:19Z</time>
      </trkpt>
      <trkpt lat="40.177699" lon="-7.188205">
        <ele>444.015</ele>
        <time>2019-05-29T10:32:39Z</time>
      </trkpt>
      <trkpt lat="40.178090" lon="-7.188273">
        <ele>444.065</ele>
        <time>2019-05-29T10:32:59Z</time>
      </trkpt>
      <trkpt lat="40.179316" lon="-7.188600">
        <ele>451.011</ele>
        <time>2019-05-29T10:33:19Z</time>
      </trkpt>
      <trkpt lat="40.179985" lon="-7.188777">
        <ele>453.008</ele>
        <time>2019-05-29T10:33:39Z</time>
      </trkpt>
      <trkpt lat="40.180476" lon="-7.189027">
        <ele>456.084</ele>
        <time>2019-05-29T10:33:59Z</time>
      </trkpt>
      <trkpt lat="40.181138" lon="-7.189429">
        <ele>466.057</ele>
        <time>2019-05-29T10:34:19Z</time>
      </trkpt>
      <trkpt lat="40.181603" lon="-7.189661">
        <ele>467.030</ele>
        <time>2019-05-29T10:34:39Z</time>
      </trkpt>
      <trkpt lat="40.182338" lon="-7.188319">
        <ele>470.098</ele>
        <time>2019-05-29T10:34:59Z</time>
      </trkpt>
      <trkpt lat="40.182446" lon="-7.187819">
        <ele>471.055</ele>
        <time>2019-05-29T10:35:19Z</time>
      </trkpt>
      <trkpt lat="40.183081" lon="-7.187253">
        <ele>469.054</ele>
        <time>2019-05-29T10:35:39Z</time>
      </trkpt>
      <trkpt lat="40.183705" lon="-7.186639">
        <ele>469.046</ele>
        <time>2019-05-29T10:35:59Z</time>
      </trkpt>
      <trkpt lat="40.183954" lon="-7.186285">
        <ele>473.076</ele>
        <time>2019-05-29T10:36:19Z</time>
      </trkpt>
      <trkpt lat="40.184390" lon="-7.185406">
        <ele>477.095</ele>
        <time>2019-05-29T10:36:39Z</time>
      </trkpt>
      <trkpt lat="40.184761" lon="-7.185172">
        <ele>481.049</ele>
        <time>2019-05-29T10:36:59Z</time>
      </trkpt>
      <trkpt lat="40.185309" lon="-7.184426">
        <ele>478.023</ele>
        <time>2019-05-29T10:37:19Z</time>
      </trkpt>
      <trkpt lat="40.185688" lon="-7.183954">
        <ele>479.008</ele>
        <time>2019-05-29T10:37:39Z</time>
      </trkpt>
      <trkpt lat="40.185968" lon="-7.183539">
        <ele>480.032</ele>
        <time>2019-05-29T10:37:59Z</time>
      </trkpt>
      <trkpt lat="40.186653" lon="-7.183153">
        <ele>482.065</ele>
        <time>2019-05-29T10:38:19Z</time>
      </trkpt>
      <trkpt lat="40.186985" lon="-7.182999">
        <ele>485.038</ele>
        <time>2019-05-29T10:38:39Z</time>
      </trkpt>
      <trkpt lat="40.187848" lon="-7.182129">
        <ele>488.066</ele>
        <time>2019-05-29T10:38:59Z</time>
      </trkpt>
      <trkpt lat="40.188337" lon="-7.182047">
        <ele>490.013</ele>
        <time>2019-05-29T10:39:19Z</time>
      </trkpt>
      <trkpt lat="40.189085" lon="-7.181865">
        <ele>495.062</ele>
        <time>2019-05-29T10:39:39Z</time>
      </trkpt>
      <trkpt lat="40.189701" lon="-7.182086">
        <ele>497.084</ele>
        <time>2019-05-29T10:39:59Z</time>
      </trkpt>
      <trkpt lat="40.190123" lon="-7.182441">
        <ele>501.094</ele>
        <time>2019-05-29T10:40:19Z</time>
      </trkpt>
      <trkpt lat="40.190751" lon="-7.182250">
        <ele>500.039</ele>
        <time>2019-05-29T10:40:39Z</time>
      </trkpt>
      <trkpt lat="40.191086" lon="-7.181743">
        <ele>502.001</ele>
        <time>2019-05-29T10:40:59Z</time>
      </trkpt>
      <trkpt lat="40.191629" lon="-7.181438">
        <ele>505.021</ele>
        <time>2019-05-29T10:41:19Z</time>
      </trkpt>
      <trkpt lat="40.192354" lon="-7.181285">
        <ele>512.008</ele>
        <time>2019-05-29T10:41:39Z</time>
      </trkpt>
      <trkpt lat="40.192954" lon="-7.181022">
        <ele>519.096</ele>
        <time>2019-05-29T10:41:59Z</time>
      </trkpt>
      <trkpt lat="40.193555" lon="-7.180992">
        <ele>524.089</ele>
        <time>2019-05-29T10:42:19Z</time>
      </trkpt>
      <trkpt lat="40.194332" lon="-7.180724">
        <ele>531.022</ele>
        <time>2019-05-29T10:42:39Z</time>
      </trkpt>
      <trkpt lat="40.195516" lon="-7.180234">
        <ele>542.060</ele>
        <time>2019-05-29T10:42:59Z</time>
      </trkpt>
      <trkpt lat="40.195801" lon="-7.180145">
        <ele>543.037</ele>
        <time>2019-05-29T10:43:19Z</time>
      </trkpt>
      <trkpt lat="40.196331" lon="-7.179548">
        <ele>550.066</ele>
        <time>2019-05-29T10:43:39Z</time>
      </trkpt>
      <trkpt lat="40.197071" lon="-7.178995">
        <ele>558.098</ele>
        <time>2019-05-29T10:43:59Z</time>
      </trkpt>
      <trkpt lat="40.197437" lon="-7.177986">
        <ele>572.098</ele>
        <time>2019-05-29T10:44:19Z</time>
      </trkpt>
      <trkpt lat="40.199315" lon="-7.175660">
        <ele>616.024</ele>
        <time>2019-05-29T10:44:39Z</time>
      </trkpt>
      <trkpt lat="40.200291" lon="-7.174579">
        <ele>643.004</ele>
        <time>2019-05-29T10:44:59Z</time>
      </trkpt>
      <trkpt lat="40.201138" lon="-7.173103">
        <ele>667.014</ele>
        <time>2019-05-29T10:45:19Z</time>
      </trkpt>
      <trkpt lat="40.201487" lon="-7.172497">
        <ele>680.008</ele>
        <time>2019-05-29T10:45:39Z</time>
      </trkpt>
      <trkpt lat="40.201929" lon="-7.172166">
        <ele>686.025</ele>
        <time>2019-05-29T10:45:59Z</time>
      </trkpt>
      <trkpt lat="40.202899" lon="-7.171869">
        <ele>691.068</ele>
        <time>2019-05-29T10:46:19Z</time>
      </trkpt>
      <trkpt lat="40.203559" lon="-7.171885">
        <ele>685.051</ele>
        <time>2019-05-29T10:46:39Z</time>
      </trkpt>
      <trkpt lat="40.204801" lon="-7.171191">
        <ele>674.069</ele>
        <time>2019-05-29T10:46:59Z</time>
      </trkpt>
      <trkpt lat="40.205836" lon="-7.170828">
        <ele>671.096</ele>
        <time>2019-05-29T10:47:19Z</time>
      </trkpt>
      <trkpt lat="40.207710" lon="-7.171200">
        <ele>671.065</ele>
        <time>2019-05-29T10:47:39Z</time>
      </trkpt>
      <trkpt lat="40.208742" lon="-7.171449">
        <ele>665.047</ele>
        <time>2019-05-29T10:47:59Z</time>
      </trkpt>
      <trkpt lat="40.209694" lon="-7.171811">
        <ele>671.067</ele>
        <time>2019-05-29T10:48:19Z</time>
      </trkpt>
      <trkpt lat="40.210389" lon="-7.172014">
        <ele>678.038</ele>
        <time>2019-05-29T10:48:39Z</time>
      </trkpt>
      <trkpt lat="40.210688" lon="-7.172180">
        <ele>680.070</ele>
        <time>2019-05-29T10:48:59Z</time>
      </trkpt>
      <trkpt lat="40.211612" lon="-7.172195">
        <ele>674.017</ele>
        <time>2019-05-29T10:49:19Z</time>
      </trkpt>
      <trkpt lat="40.211868" lon="-7.171808">
        <ele>669.008</ele>
        <time>2019-05-29T10:49:39Z</time>
      </trkpt>
      <trkpt lat="40.212233" lon="-7.171238">
        <ele>656.076</ele>
        <time>2019-05-29T10:49:59Z</time>
      </trkpt>
      <trkpt lat="40.212571" lon="-7.171256">
        <ele>648.069</ele>
        <time>2019-05-29T10:50:19Z</time>
      </trkpt>
      <trkpt lat="40.212756" lon="-7.171418">
        <ele>644.052</ele>
        <time>2019-05-29T10:50:39Z</time>
      </trkpt>
      <trkpt lat="40.212898" lon="-7.171764">
        <ele>646.090</ele>
        <time>2019-05-29T10:50:59Z</time>
      </trkpt>
      <trkpt lat="40.213246" lon="-7.171846">
        <ele>639.097</ele>
        <time>2019-05-29T10:51:19Z</time>
      </trkpt>
      <trkpt lat="40.213696" lon="-7.171714">
        <ele>629.096</ele>
        <time>2019-05-29T10:51:39Z</time>
      </trkpt>
      <trkpt lat="40.214113" lon="-7.172002">
        <ele>624.058</ele>
        <time>2019-05-29T10:51:59Z</time>
      </trkpt>
      <trkpt lat="40.214948" lon="-7.171900">
        <ele>609.098</ele>
        <time>2019-05-29T10:52:19Z</time>
      </trkpt>
      <trkpt lat="40.216365" lon="-7.171356">
        <ele>578.089</ele>
        <time>2019-05-29T10:52:39Z</time>
      </trkpt>
      <trkpt lat="40.216696" lon="-7.171494">
        <ele>575.006</ele>
        <time>2019-05-29T10:52:59Z</time>
      </trkpt>
      <trkpt lat="40.216914" lon="-7.171747">
        <ele>573.026</ele>
        <time>2019-05-29T10:53:19Z</time>
      </trkpt>
      <trkpt lat="40.217011" lon="-7.172076">
        <ele>572.008</ele>
        <time>2019-05-29T10:53:39Z</time>
      </trkpt>
      <trkpt lat="40.217141" lon="-7.172685">
        <ele>567.011</ele>
        <time>2019-05-29T10:53:59Z</time>
      </trkpt>
      <trkpt lat="40.217038" lon="-7.173063">
        <ele>567.034</ele>
        <time>2019-05-29T10:54:19Z</time>
      </trkpt>
      <trkpt lat="40.217037" lon="-7.173086">
        <ele>567.057</ele>
        <time>2019-05-29T10:54:39Z</time>
      </trkpt>
      <trkpt lat="40.217036" lon="-7.173109">
        <ele>566.095</ele>
        <time>2019-05-29T10:54:59Z</time>
      </trkpt>
      <trkpt lat="40.217013" lon="-7.173488">
        <ele>565.022</ele>
        <time>2019-05-29T10:55:19Z</time>
      </trkpt>
      <trkpt lat="40.217013" lon="-7.173500">
        <ele>565.011</ele>
        <time>2019-05-29T10:55:39Z</time>
      </trkpt>
      <trkpt lat="40.216924" lon="-7.173946">
        <ele>567.043</ele>
        <time>2019-05-29T10:55:59Z</time>
      </trkpt>
      <trkpt lat="40.216834" lon="-7.174344">
        <ele>563.023</ele>
        <time>2019-05-29T10:56:19Z</time>
      </trkpt>
      <trkpt lat="40.216836" lon="-7.174686">
        <ele>556.083</ele>
        <time>2019-05-29T10:56:39Z</time>
      </trkpt>
      <trkpt lat="40.216836" lon="-7.174697">
        <ele>556.025</ele>
        <time>2019-05-29T10:56:59Z</time>
      </trkpt>
      <trkpt lat="40.217300" lon="-7.175683">
        <ele>532.017</ele>
        <time>2019-05-29T10:57:19Z</time>
      </trkpt>
      <trkpt lat="40.217680" lon="-7.175903">
        <ele>524.008</ele>
        <time>2019-05-29T10:57:39Z</time>
      </trkpt>
      <trkpt lat="40.218119" lon="-7.176013">
        <ele>517.071</ele>
        <time>2019-05-29T10:57:59Z</time>
      </trkpt>
      <trkpt lat="40.218333" lon="-7.176134">
        <ele>514.064</ele>
        <time>2019-05-29T10:58:19Z</time>
      </trkpt>
      <trkpt lat="40.218642" lon="-7.176549">
        <ele>511.047</ele>
        <time>2019-05-29T10:58:39Z</time>
      </trkpt>
      <trkpt lat="40.218752" lon="-7.177167">
        <ele>504.085</ele>
        <time>2019-05-29T10:58:59Z</time>
      </trkpt>
      <trkpt lat="40.218951" lon="-7.177462">
        <ele>501.022</ele>
        <time>2019-05-29T10:59:19Z</time>
      </trkpt>
      <trkpt lat="40.219224" lon="-7.177888">
        <ele>497.061</ele>
        <time>2019-05-29T10:59:39Z</time>
      </trkpt>
      <trkpt lat="40.219281" lon="-7.178168">
        <ele>494.013</ele>
        <time>2019-05-29T10:59:59Z</time>
      </trkpt>
      <trkpt lat="40.219265" lon="-7.178547">
        <ele>493.093</ele>
        <time>2019-05-29T11:00:19Z</time>
      </trkpt>
      <trkpt lat="40.219335" lon="-7.178735">
        <ele>493.043</ele>
        <time>2019-05-29T11:00:39Z</time>
      </trkpt>
      <trkpt lat="40.219476" lon="-7.178858">
        <ele>493.064</ele>
        <time>2019-05-29T11:00:59Z</time>
      </trkpt>
      <trkpt lat="40.219815" lon="-7.179234">
        <ele>494.010</ele>
        <time>2019-05-29T11:01:19Z</time>
      </trkpt>
      <trkpt lat="40.220056" lon="-7.179634">
        <ele>493.008</ele>
        <time>2019-05-29T11:01:39Z</time>
      </trkpt>
      <trkpt lat="40.220119" lon="-7.179829">
        <ele>492.077</ele>
        <time>2019-05-29T11:01:59Z</time>
      </trkpt>
      <trkpt lat="40.220049" lon="-7.180020">
        <ele>491.020</ele>
        <time>2019-05-29T11:02:19Z</time>
      </trkpt>
      <trkpt lat="40.219953" lon="-7.180153">
        <ele>492.033</ele>
        <time>2019-05-29T11:02:39Z</time>
      </trkpt>
      <trkpt lat="40.219878" lon="-7.180304">
        <ele>492.031</ele>
        <time>2019-05-29T11:02:59Z</time>
      </trkpt>
      <trkpt lat="40.219863" lon="-7.180483">
        <ele>492.068</ele>
        <time>2019-05-29T11:03:19Z</time>
      </trkpt>
      <trkpt lat="40.220602" lon="-7.180904">
        <ele>490.047</ele>
        <time>2019-05-29T11:03:39Z</time>
      </trkpt>
      <trkpt lat="40.220863" lon="-7.180879">
        <ele>489.059</ele>
        <time>2019-05-29T11:03:59Z</time>
      </trkpt>
      <trkpt lat="40.221631" lon="-7.180997">
        <ele>487.099</ele>
        <time>2019-05-29T11:04:19Z</time>
      </trkpt>
      <trkpt lat="40.222797" lon="-7.181135">
        <ele>488.026</ele>
        <time>2019-05-29T11:04:39Z</time>
      </trkpt>
      <trkpt lat="40.222908" lon="-7.181248">
        <ele>488.047</ele>
        <time>2019-05-29T11:04:59Z</time>
      </trkpt>
      <trkpt lat="40.223237" lon="-7.181329">
        <ele>487.011</ele>
        <time>2019-05-29T11:05:19Z</time>
      </trkpt>
      <trkpt lat="40.225099" lon="-7.180770">
        <ele>487.008</ele>
        <time>2019-05-29T11:05:39Z</time>
      </trkpt>
      <trkpt lat="40.225653" lon="-7.180562">
        <ele>487.055</ele>
        <time>2019-05-29T11:05:59Z</time>
      </trkpt>
      <trkpt lat="40.226133" lon="-7.181351">
        <ele>487.058</ele>
        <time>2019-05-29T11:06:19Z</time>
      </trkpt>
      <trkpt lat="40.226124" lon="-7.181504">
        <ele>487.051</ele>
        <time>2019-05-29T11:06:39Z</time>
      </trkpt>
      <trkpt lat="40.226052" lon="-7.181654">
        <ele>488.099</ele>
        <time>2019-05-29T11:06:59Z</time>
      </trkpt>
      <trkpt lat="40.226025" lon="-7.181912">
        <ele>487.016</ele>
        <time>2019-05-29T11:07:19Z</time>
      </trkpt>
      <trkpt lat="40.226009" lon="-7.182284">
        <ele>486.085</ele>
        <time>2019-05-29T11:07:39Z</time>
      </trkpt>
      <trkpt lat="40.225960" lon="-7.182379">
        <ele>485.037</ele>
        <time>2019-05-29T11:07:59Z</time>
      </trkpt>
      <trkpt lat="40.225365" lon="-7.182929">
        <ele>486.047</ele>
        <time>2019-05-29T11:08:19Z</time>
      </trkpt>
      <trkpt lat="40.224979" lon="-7.183632">
        <ele>485.042</ele>
        <time>2019-05-29T11:08:39Z</time>
      </trkpt>
      <trkpt lat="40.224810" lon="-7.183887">
        <ele>484.022</ele>
        <time>2019-05-29T11:08:59Z</time>
      </trkpt>
      <trkpt lat="40.224541" lon="-7.184110">
        <ele>484.014</ele>
        <time>2019-05-29T11:09:19Z</time>
      </trkpt>
      <trkpt lat="40.224372" lon="-7.184284">
        <ele>484.008</ele>
        <time>2019-05-29T11:09:39Z</time>
      </trkpt>
      <trkpt lat="40.224536" lon="-7.184736">
        <ele>485.037</ele>
        <time>2019-05-29T11:09:59Z</time>
      </trkpt>
      <trkpt lat="40.224539" lon="-7.185298">
        <ele>484.080</ele>
        <time>2019-05-29T11:10:19Z</time>
      </trkpt>
      <trkpt lat="40.224843" lon="-7.186902">
        <ele>484.033</ele>
        <time>2019-05-29T11:10:39Z</time>
      </trkpt>
      <trkpt lat="40.224646" lon="-7.187022">
        <ele>484.051</ele>
        <time>2019-05-29T11:10:59Z</time>
      </trkpt>
      <trkpt lat="40.224563" lon="-7.187156">
        <ele>484.028</ele>
        <time>2019-05-29T11:11:19Z</time>
      </trkpt>
      <trkpt lat="40.224574" lon="-7.187361">
        <ele>484.087</ele>
        <time>2019-05-29T11:11:39Z</time>
      </trkpt>
      <trkpt lat="40.224532" lon="-7.187927">
        <ele>484.049</ele>
        <time>2019-05-29T11:11:59Z</time>
      </trkpt>
      <trkpt lat="40.224928" lon="-7.187970">
        <ele>484.099</ele>
        <time>2019-05-29T11:12:19Z</time>
      </trkpt>
      <trkpt lat="40.225234" lon="-7.187897">
        <ele>484.095</ele>
        <time>2019-05-29T11:12:39Z</time>
      </trkpt>
      <trkpt lat="40.226067" lon="-7.188318">
        <ele>483.049</ele>
        <time>2019-05-29T11:12:59Z</time>
      </trkpt>
      <trkpt lat="40.226700" lon="-7.187421">
        <ele>486.023</ele>
        <time>2019-05-29T11:13:19Z</time>
      </trkpt>
      <trkpt lat="40.227076" lon="-7.188003">
        <ele>485.008</ele>
        <time>2019-05-29T11:13:39Z</time>
      </trkpt>
      <trkpt lat="40.227293" lon="-7.187980">
        <ele>486.062</ele>
        <time>2019-05-29T11:13:59Z</time>
      </trkpt>
      <trkpt lat="40.227514" lon="-7.187908">
        <ele>487.015</ele>
        <time>2019-05-29T11:14:19Z</time>
      </trkpt>
      <trkpt lat="40.227896" lon="-7.187441">
        <ele>491.058</ele>
        <time>2019-05-29T11:14:39Z</time>
      </trkpt>
      <trkpt lat="40.228063" lon="-7.186859">
        <ele>495.066</ele>
        <time>2019-05-29T11:14:59Z</time>
      </trkpt>
      <trkpt lat="40.228412" lon="-7.186602">
        <ele>497.043</ele>
        <time>2019-05-29T11:15:19Z</time>
      </trkpt>
      <trkpt lat="40.228507" lon="-7.186768">
        <ele>498.022</ele>
        <time>2019-05-29T11:15:39Z</time>
      </trkpt>
      <trkpt lat="40.228527" lon="-7.186983">
        <ele>499.074</ele>
        <time>2019-05-29T11:15:59Z</time>
      </trkpt>
      <trkpt lat="40.228616" lon="-7.187133">
        <ele>501.044</ele>
        <time>2019-05-29T11:16:19Z</time>
      </trkpt>
      <trkpt lat="40.228748" lon="-7.187107">
        <ele>504.062</ele>
        <time>2019-05-29T11:16:39Z</time>
      </trkpt>
      <trkpt lat="40.229043" lon="-7.186858">
        <ele>509.083</ele>
        <time>2019-05-29T11:16:59Z</time>
      </trkpt>
      <trkpt lat="40.229256" lon="-7.186716">
        <ele>512.011</ele>
        <time>2019-05-29T11:17:19Z</time>
      </trkpt>
      <trkpt lat="40.229444" lon="-7.186670">
        <ele>515.008</ele>
        <time>2019-05-29T11:17:39Z</time>
      </trkpt>
      <trkpt lat="40.229686" lon="-7.186488">
        <ele>517.099</ele>
        <time>2019-05-29T11:17:59Z</time>
      </trkpt>
      <trkpt lat="40.229822" lon="-7.186240">
        <ele>516.092</ele>
        <time>2019-05-29T11:18:19Z</time>
      </trkpt>
      <trkpt lat="40.229866" lon="-7.185968">
        <ele>513.025</ele>
        <time>2019-05-29T11:18:39Z</time>
      </trkpt>
      <trkpt lat="40.230495" lon="-7.185845">
        <ele>509.033</ele>
        <time>2019-05-29T11:18:59Z</time>
      </trkpt>
      <trkpt lat="40.231237" lon="-7.185626">
        <ele>499.090</ele>
        <time>2019-05-29T11:19:19Z</time>
      </trkpt>
      <trkpt lat="40.231571" lon="-7.185372">
        <ele>493.049</ele>
        <time>2019-05-29T11:19:39Z</time>
      </trkpt>
      <trkpt lat="40.232646" lon="-7.184447">
        <ele>491.021</ele>
        <time>2019-05-29T11:19:59Z</time>
      </trkpt>
      <trkpt lat="40.232808" lon="-7.184176">
        <ele>491.011</ele>
        <time>2019-05-29T11:20:19Z</time>
      </trkpt>
      <trkpt lat="40.232894" lon="-7.183637">
        <ele>492.093</ele>
        <time>2019-05-29T11:20:39Z</time>
      </trkpt>
      <trkpt lat="40.233126" lon="-7.183333">
        <ele>491.065</ele>
        <time>2019-05-29T11:20:59Z</time>
      </trkpt>
      <trkpt lat="40.233697" lon="-7.182793">
        <ele>492.021</ele>
        <time>2019-05-29T11:21:19Z</time>
      </trkpt>
      <trkpt lat="40.233928" lon="-7.182518">
        <ele>492.008</ele>
        <time>2019-05-29T11:21:39Z</time>
      </trkpt>
      <trkpt lat="40.234609" lon="-7.181671">
        <ele>492.022</ele>
        <time>2019-05-29T11:21:59Z</time>
      </trkpt>
      <trkpt lat="40.235032" lon="-7.181090">
        <ele>492.035</ele>
        <time>2019-05-29T11:22:19Z</time>
      </trkpt>
      <trkpt lat="40.235384" lon="-7.180737">
        <ele>493.018</ele>
        <time>2019-05-29T11:22:39Z</time>
      </trkpt>
      <trkpt lat="40.235560" lon="-7.180479">
        <ele>493.026</ele>
        <time>2019-05-29T11:22:59Z</time>
      </trkpt>
      <trkpt lat="40.235805" lon="-7.180263">
        <ele>492.053</ele>
        <time>2019-05-29T11:23:19Z</time>
      </trkpt>
      <trkpt lat="40.236096" lon="-7.180236">
        <ele>492.042</ele>
        <time>2019-05-29T11:23:39Z</time>
      </trkpt>
      <trkpt lat="40.236595" lon="-7.179930">
        <ele>494.024</ele>
        <time>2019-05-29T11:23:59Z</time>
      </trkpt>
      <trkpt lat="40.237284" lon="-7.179580">
        <ele>493.074</ele>
        <time>2019-05-29T11:24:19Z</time>
      </trkpt>
      <trkpt lat="40.237618" lon="-7.179395">
        <ele>494.018</ele>
        <time>2019-05-29T11:24:39Z</time>
      </trkpt>
      <trkpt lat="40.237866" lon="-7.179154">
        <ele>494.098</ele>
        <time>2019-05-29T11:24:59Z</time>
      </trkpt>
      <trkpt lat="40.238026" lon="-7.178806">
        <ele>494.017</ele>
        <time>2019-05-29T11:25:19Z</time>
      </trkpt>
      <trkpt lat="40.238236" lon="-7.178513">
        <ele>495.008</ele>
        <time>2019-05-29T11:25:39Z</time>
      </trkpt>
      <trkpt lat="40.238633" lon="-7.178250">
        <ele>495.054</ele>
        <time>2019-05-29T11:25:59Z</time>
      </trkpt>
      <trkpt lat="40.238757" lon="-7.178069">
        <ele>495.097</ele>
        <time>2019-05-29T11:26:19Z</time>
      </trkpt>
      <trkpt lat="40.239131" lon="-7.177450">
        <ele>497.070</ele>
        <time>2019-05-29T11:26:39Z</time>
      </trkpt>
      <trkpt lat="40.239269" lon="-7.177000">
        <ele>499.058</ele>
        <time>2019-05-29T11:26:59Z</time>
      </trkpt>
      <trkpt lat="40.239543" lon="-7.176614">
        <ele>499.025</ele>
        <time>2019-05-29T11:27:19Z</time>
      </trkpt>
      <trkpt lat="40.239553" lon="-7.176614">
        <ele>499.014</ele>
        <time>2019-05-29T11:27:39Z</time>
      </trkpt>
      <trkpt lat="40.239732" lon="-7.176495">
        <ele>499.026</ele>
        <time>2019-05-29T11:27:59Z</time>
      </trkpt>
      <trkpt lat="40.240184" lon="-7.176484">
        <ele>499.036</ele>
        <time>2019-05-29T11:28:19Z</time>
      </trkpt>
      <trkpt lat="40.240482" lon="-7.176339">
        <ele>499.061</ele>
        <time>2019-05-29T11:28:39Z</time>
      </trkpt>
      <trkpt lat="40.240621" lon="-7.176182">
        <ele>499.021</ele>
        <time>2019-05-29T11:28:59Z</time>
      </trkpt>
      <trkpt lat="40.240952" lon="-7.175971">
        <ele>497.013</ele>
        <time>2019-05-29T11:29:19Z</time>
      </trkpt>
      <trkpt lat="40.241350" lon="-7.175792">
        <ele>497.008</ele>
        <time>2019-05-29T11:29:39Z</time>
      </trkpt>
      <trkpt lat="40.241682" lon="-7.175521">
        <ele>497.079</ele>
        <time>2019-05-29T11:29:59Z</time>
      </trkpt>
      <trkpt lat="40.242127" lon="-7.175146">
        <ele>498.092</ele>
        <time>2019-05-29T11:30:19Z</time>
      </trkpt>
      <trkpt lat="40.242490" lon="-7.174870">
        <ele>498.035</ele>
        <time>2019-05-29T11:30:39Z</time>
      </trkpt>
      <trkpt lat="40.242881" lon="-7.174831">
        <ele>497.073</ele>
        <time>2019-05-29T11:30:59Z</time>
      </trkpt>
      <trkpt lat="40.243324" lon="-7.174721">
        <ele>498.090</ele>
        <time>2019-05-29T11:31:19Z</time>
      </trkpt>
      <trkpt lat="40.243671" lon="-7.174508">
        <ele>499.039</ele>
        <time>2019-05-29T11:31:39Z</time>
      </trkpt>
      <trkpt lat="40.244903" lon="-7.174050">
        <ele>499.021</ele>
        <time>2019-05-29T11:31:59Z</time>
      </trkpt>
      <trkpt lat="40.245294" lon="-7.173875">
        <ele>499.031</ele>
        <time>2019-05-29T11:32:19Z</time>
      </trkpt>
      <trkpt lat="40.245916" lon="-7.173518">
        <ele>501.069</ele>
        <time>2019-05-29T11:32:39Z</time>
      </trkpt>
      <trkpt lat="40.246258" lon="-7.173235">
        <ele>502.004</ele>
        <time>2019-05-29T11:32:59Z</time>
      </trkpt>
      <trkpt lat="40.246714" lon="-7.172944">
        <ele>502.024</ele>
        <time>2019-05-29T11:33:19Z</time>
      </trkpt>
      <trkpt lat="40.247143" lon="-7.172703">
        <ele>502.008</ele>
        <time>2019-05-29T11:33:39Z</time>
      </trkpt>
      <trkpt lat="40.247381" lon="-7.172576">
        <ele>502.069</ele>
        <time>2019-05-29T11:33:59Z</time>
      </trkpt>
      <trkpt lat="40.247704" lon="-7.172572">
        <ele>502.032</ele>
        <time>2019-05-29T11:34:19Z</time>
      </trkpt>
      <trkpt lat="40.247915" lon="-7.172040">
        <ele>504.075</ele>
        <time>2019-05-29T11:34:39Z</time>
      </trkpt>
      <trkpt lat="40.248183" lon="-7.171748">
        <ele>503.053</ele>
        <time>2019-05-29T11:34:59Z</time>
      </trkpt>
      <trkpt lat="40.248509" lon="-7.171063">
        <ele>503.040</ele>
        <time>2019-05-29T11:35:19Z</time>
      </trkpt>
      <trkpt lat="40.248602" lon="-7.170550">
        <ele>503.029</ele>
        <time>2019-05-29T11:35:39Z</time>
      </trkpt>
      <trkpt lat="40.248779" lon="-7.169962">
        <ele>504.021</ele>
        <time>2019-05-29T11:35:59Z</time>
      </trkpt>
      <trkpt lat="40.249120" lon="-7.169117">
        <ele>504.031</ele>
        <time>2019-05-29T11:36:19Z</time>
      </trkpt>
      <trkpt lat="40.249246" lon="-7.168498">
        <ele>504.042</ele>
        <time>2019-05-29T11:36:39Z</time>
      </trkpt>
      <trkpt lat="40.249315" lon="-7.167851">
        <ele>504.022</ele>
        <time>2019-05-29T11:36:59Z</time>
      </trkpt>
      <trkpt lat="40.249265" lon="-7.167803">
        <ele>504.014</ele>
        <time>2019-05-29T11:37:19Z</time>
      </trkpt>
      <trkpt lat="40.249447" lon="-7.167273">
        <ele>506.008</ele>
        <time>2019-05-29T11:37:39Z</time>
      </trkpt>
      <trkpt lat="40.249859" lon="-7.166325">
        <ele>506.057</ele>
        <time>2019-05-29T11:37:59Z</time>
      </trkpt>
      <trkpt lat="40.250335" lon="-7.165272">
        <ele>505.060</ele>
        <time>2019-05-29T11:38:19Z</time>
      </trkpt>
      <trkpt lat="40.250427" lon="-7.164949">
        <ele>505.083</ele>
        <time>2019-05-29T11:38:39Z</time>
      </trkpt>
      <trkpt lat="40.250571" lon="-7.164618">
        <ele>507.021</ele>
        <time>2019-05-29T11:38:59Z</time>
      </trkpt>
      <trkpt lat="40.250803" lon="-7.164336">
        <ele>507.068</ele>
        <time>2019-05-29T11:39:19Z</time>
      </trkpt>
      <trkpt lat="40.250959" lon="-7.163904">
        <ele>506.017</ele>
        <time>2019-05-29T11:39:39Z</time>
      </trkpt>
      <trkpt lat="40.250960" lon="-7.163893">
        <ele>506.049</ele>
        <time>2019-05-29T11:39:59Z</time>
      </trkpt>
      <trkpt lat="40.251222" lon="-7.163205">
        <ele>508.049</ele>
        <time>2019-05-29T11:40:19Z</time>
      </trkpt>
      <trkpt lat="40.251755" lon="-7.162029">
        <ele>508.023</ele>
        <time>2019-05-29T11:40:39Z</time>
      </trkpt>
      <trkpt lat="40.252010" lon="-7.161176">
        <ele>509.083</ele>
        <time>2019-05-29T11:40:59Z</time>
      </trkpt>
      <trkpt lat="40.252116" lon="-7.160695">
        <ele>510.011</ele>
        <time>2019-05-29T11:41:19Z</time>
      </trkpt>
      <trkpt lat="40.252358" lon="-7.160135">
        <ele>510.008</ele>
        <time>2019-05-29T11:41:39Z</time>
      </trkpt>
      <trkpt lat="40.252809" lon="-7.159030">
        <ele>511.055</ele>
        <time>2019-05-29T11:41:59Z</time>
      </trkpt>
      <trkpt lat="40.253027" lon="-7.158314">
        <ele>511.068</ele>
        <time>2019-05-29T11:42:19Z</time>
      </trkpt>
      <trkpt lat="40.253627" lon="-7.157154">
        <ele>513.011</ele>
        <time>2019-05-29T11:42:39Z</time>
      </trkpt>
      <trkpt lat="40.254169" lon="-7.156376">
        <ele>513.059</ele>
        <time>2019-05-29T11:42:59Z</time>
      </trkpt>
      <trkpt lat="40.254295" lon="-7.156125">
        <ele>513.056</ele>
        <time>2019-05-29T11:43:19Z</time>
      </trkpt>
      <trkpt lat="40.254365" lon="-7.156048">
        <ele>513.095</ele>
        <time>2019-05-29T11:43:39Z</time>
      </trkpt>
      <trkpt lat="40.254656" lon="-7.155528">
        <ele>513.087</ele>
        <time>2019-05-29T11:43:59Z</time>
      </trkpt>
      <trkpt lat="40.255590" lon="-7.155930">
        <ele>520.067</ele>
        <time>2019-05-29T11:44:19Z</time>
      </trkpt>
      <trkpt lat="40.256084" lon="-7.156344">
        <ele>524.082</ele>
        <time>2019-05-29T11:44:39Z</time>
      </trkpt>
      <trkpt lat="40.256514" lon="-7.155644">
        <ele>521.043</ele>
        <time>2019-05-29T11:44:59Z</time>
      </trkpt>
      <trkpt lat="40.256726" lon="-7.154937">
        <ele>519.017</ele>
        <time>2019-05-29T11:45:19Z</time>
      </trkpt>
      <trkpt lat="40.257007" lon="-7.153714">
        <ele>521.008</ele>
        <time>2019-05-29T11:45:39Z</time>
      </trkpt>
      <trkpt lat="40.257300" lon="-7.152193">
        <ele>530.011</ele>
        <time>2019-05-29T11:45:59Z</time>
      </trkpt>
      <trkpt lat="40.257969" lon="-7.149407">
        <ele>549.084</ele>
        <time>2019-05-29T11:46:19Z</time>
      </trkpt>
      <trkpt lat="40.257857" lon="-7.149180">
        <ele>546.057</ele>
        <time>2019-05-29T11:46:39Z</time>
      </trkpt>
      <trkpt lat="40.257867" lon="-7.148537">
        <ele>544.065</ele>
        <time>2019-05-29T11:46:59Z</time>
      </trkpt>
      <trkpt lat="40.258003" lon="-7.148054">
        <ele>546.022</ele>
        <time>2019-05-29T11:47:19Z</time>
      </trkpt>
      <trkpt lat="40.258248" lon="-7.147709">
        <ele>542.031</ele>
        <time>2019-05-29T11:47:39Z</time>
      </trkpt>
      <trkpt lat="40.258490" lon="-7.147526">
        <ele>540.033</ele>
        <time>2019-05-29T11:47:59Z</time>
      </trkpt>
      <trkpt lat="40.258785" lon="-7.147430">
        <ele>542.073</ele>
        <time>2019-05-29T11:48:19Z</time>
      </trkpt>
      <trkpt lat="40.259910" lon="-7.147110">
        <ele>544.034</ele>
        <time>2019-05-29T11:48:39Z</time>
      </trkpt>
      <trkpt lat="40.260472" lon="-7.146203">
        <ele>543.055</ele>
        <time>2019-05-29T11:48:59Z</time>
      </trkpt>
      <trkpt lat="40.260689" lon="-7.146180">
        <ele>544.010</ele>
        <time>2019-05-29T11:49:19Z</time>
      </trkpt>
      <trkpt lat="40.260694" lon="-7.146437">
        <ele>547.008</ele>
        <time>2019-05-29T11:49:39Z</time>
      </trkpt>
      <trkpt lat="40.260658" lon="-7.146623">
        <ele>550.086</ele>
        <time>2019-05-29T11:49:59Z</time>
      </trkpt>
      <trkpt lat="40.260237" lon="-7.147777">
        <ele>562.099</ele>
        <time>2019-05-29T11:50:19Z</time>
      </trkpt>
      <trkpt lat="40.260344" lon="-7.147926">
        <ele>566.092</ele>
        <time>2019-05-29T11:50:39Z</time>
      </trkpt>
      <trkpt lat="40.260533" lon="-7.147920">
        <ele>570.070</ele>
        <time>2019-05-29T11:50:59Z</time>
      </trkpt>
      <trkpt lat="40.262417" lon="-7.146260">
        <ele>579.037</ele>
        <time>2019-05-29T11:51:19Z</time>
      </trkpt>
      <trkpt lat="40.262497" lon="-7.145938">
        <ele>573.016</ele>
        <time>2019-05-29T11:51:39Z</time>
      </trkpt>
      <trkpt lat="40.262512" lon="-7.145797">
        <ele>571.088</ele>
        <time>2010-01-01T00:00:00Z</time>
      </trkpt>
      <trkpt lat="40.262451" lon="-7.145182">
        <ele>566.018</ele>
        <time>2010-01-01T00:00:18Z</time>
      </trkpt>
      <trkpt lat="40.261849" lon="-7.143840">
        <ele>566.028</ele>
        <time>2010-01-01T00:01:06Z</time>
      </trkpt>
      <trkpt lat="40.260570" lon="-7.141790">
        <ele>563.089</ele>
        <time>2010-01-01T00:02:27Z</time>
      </trkpt>
      <trkpt lat="40.259797" lon="-7.140745">
        <ele>566.017</ele>
        <time>2010-01-01T00:03:11Z</time>
      </trkpt>
      <trkpt lat="40.258894" lon="-7.139884">
        <ele>571.008</ele>
        <time>2010-01-01T00:03:56Z</time>
      </trkpt>
      <trkpt lat="40.259404" lon="-7.138769">
        <ele>576.065</ele>
        <time>2010-01-01T00:04:36Z</time>
      </trkpt>
      <trkpt lat="40.259761" lon="-7.137765">
        <ele>576.058</ele>
        <time>2010-01-01T00:05:10Z</time>
      </trkpt>
      <trkpt lat="40.259809" lon="-7.137148">
        <ele>577.061</ele>
        <time>2010-01-01T00:05:29Z</time>
      </trkpt>
      <trkpt lat="40.258884" lon="-7.136285">
        <ele>575.099</ele>
        <time>2010-01-01T00:06:14Z</time>
      </trkpt>
      <trkpt lat="40.258484" lon="-7.136294">
        <ele>583.066</ele>
        <time>2010-01-01T00:06:30Z</time>
      </trkpt>
      <trkpt lat="40.258168" lon="-7.135895">
        <ele>583.095</ele>
        <time>2010-01-01T00:06:48Z</time>
      </trkpt>
      <trkpt lat="40.257854" lon="-7.135790">
        <ele>587.037</ele>
        <time>2010-01-01T00:07:01Z</time>
      </trkpt>
      <trkpt lat="40.257749" lon="-7.135002">
        <ele>582.037</ele>
        <time>2010-01-01T00:07:25Z</time>
      </trkpt>
      <trkpt lat="40.257683" lon="-7.134633">
        <ele>585.096</ele>
        <time>2010-01-01T00:07:37Z</time>
      </trkpt>
      <trkpt lat="40.257660" lon="-7.133737">
        <ele>581.031</ele>
        <time>2010-01-01T00:08:04Z</time>
      </trkpt>
      <trkpt lat="40.257404" lon="-7.133271">
        <ele>578.024</ele>
        <time>2010-01-01T00:08:21Z</time>
      </trkpt>
      <trkpt lat="40.257068" lon="-7.133056">
        <ele>577.008</ele>
        <time>2010-01-01T00:08:36Z</time>
      </trkpt>
      <trkpt lat="40.256803" lon="-7.133151">
        <ele>580.052</ele>
        <time>2010-01-01T00:08:47Z</time>
      </trkpt>
      <trkpt lat="40.256744" lon="-7.132967">
        <ele>578.085</ele>
        <time>2010-01-01T00:08:54Z</time>
      </trkpt>
      <trkpt lat="40.256783" lon="-7.132499">
        <ele>577.038</ele>
        <time>2010-01-01T00:09:08Z</time>
      </trkpt>
      <trkpt lat="40.256930" lon="-7.132168">
        <ele>573.086</ele>
        <time>2010-01-01T00:09:20Z</time>
      </trkpt>
      <trkpt lat="40.256991" lon="-7.131925">
        <ele>572.073</ele>
        <time>2010-01-01T00:09:27Z</time>
      </trkpt>
      <trkpt lat="40.256994" lon="-7.131880">
        <ele>572.062</ele>
        <time>2010-01-01T00:09:29Z</time>
      </trkpt>
      <trkpt lat="40.256924" lon="-7.131470">
        <ele>573.014</ele>
        <time>2010-01-01T00:09:42Z</time>
      </trkpt>
      <trkpt lat="40.256857" lon="-7.131214">
        <ele>571.064</ele>
        <time>2010-01-01T00:09:50Z</time>
      </trkpt>
      <trkpt lat="40.256650" lon="-7.130994">
        <ele>569.024</ele>
        <time>2010-01-01T00:10:01Z</time>
      </trkpt>
      <trkpt lat="40.256350" lon="-7.131076">
        <ele>571.004</ele>
        <time>2010-01-01T00:10:13Z</time>
      </trkpt>
      <trkpt lat="40.255761" lon="-7.131207">
        <ele>573.014</ele>
        <time>2010-01-01T00:10:37Z</time>
      </trkpt>
      <trkpt lat="40.255444" lon="-7.131348">
        <ele>572.008</ele>
        <time>2010-01-01T00:10:50Z</time>
      </trkpt>
      <trkpt lat="40.255257" lon="-7.131600">
        <ele>572.055</ele>
        <time>2010-01-01T00:11:01Z</time>
      </trkpt>
      <trkpt lat="40.255108" lon="-7.131998">
        <ele>577.038</ele>
        <time>2010-01-01T00:11:14Z</time>
      </trkpt>
      <trkpt lat="40.255014" lon="-7.132086">
        <ele>578.081</ele>
        <time>2010-01-01T00:11:19Z</time>
      </trkpt>
      <trkpt lat="40.254900" lon="-7.131925">
        <ele>576.039</ele>
        <time>2010-01-01T00:11:26Z</time>
      </trkpt>
      <trkpt lat="40.254847" lon="-7.131629">
        <ele>572.036</ele>
        <time>2010-01-01T00:11:35Z</time>
      </trkpt>
      <trkpt lat="40.254735" lon="-7.131473">
        <ele>571.035</ele>
        <time>2010-01-01T00:11:42Z</time>
      </trkpt>
      <trkpt lat="40.254644" lon="-7.131429">
        <ele>571.037</ele>
        <time>2010-01-01T00:11:45Z</time>
      </trkpt>
      <trkpt lat="40.254404" lon="-7.131381">
        <ele>571.097</ele>
        <time>2010-01-01T00:11:55Z</time>
      </trkpt>
      <trkpt lat="40.254157" lon="-7.131546">
        <ele>575.072</ele>
        <time>2010-01-01T00:12:06Z</time>
      </trkpt>
      <trkpt lat="40.254030" lon="-7.131520">
        <ele>575.013</ele>
        <time>2010-01-01T00:12:11Z</time>
      </trkpt>
      <trkpt lat="40.253747" lon="-7.131202">
        <ele>571.014</ele>
        <time>2010-01-01T00:12:26Z</time>
      </trkpt>
      <trkpt lat="40.253439" lon="-7.131054">
        <ele>573.008</ele>
        <time>2010-01-01T00:12:39Z</time>
      </trkpt>
      <trkpt lat="40.253266" lon="-7.131011">
        <ele>575.070</ele>
        <time>2010-01-01T00:12:47Z</time>
      </trkpt>
      <trkpt lat="40.252913" lon="-7.130891">
        <ele>579.013</ele>
        <time>2010-01-01T00:13:01Z</time>
      </trkpt>
      <trkpt lat="40.252716" lon="-7.130845">
        <ele>583.036</ele>
        <time>2010-01-01T00:13:09Z</time>
      </trkpt>
      <trkpt lat="40.252700" lon="-7.130701">
        <ele>583.064</ele>
        <time>2010-01-01T00:13:14Z</time>
      </trkpt>
      <trkpt lat="40.253016" lon="-7.130427">
        <ele>580.021</ele>
        <time>2010-01-01T00:13:29Z</time>
      </trkpt>
      <trkpt lat="40.253024" lon="-7.130428">
        <ele>580.050</ele>
        <time>2010-01-01T00:13:29Z</time>
      </trkpt>
      <trkpt lat="40.253330" lon="-7.130208">
        <ele>578.082</ele>
        <time>2010-01-01T00:13:43Z</time>
      </trkpt>
      <trkpt lat="40.253616" lon="-7.129854">
        <ele>577.092</ele>
        <time>2010-01-01T00:13:59Z</time>
      </trkpt>
      <trkpt lat="40.253844" lon="-7.129666">
        <ele>567.024</ele>
        <time>2010-01-01T00:14:10Z</time>
      </trkpt>
      <trkpt lat="40.254056" lon="-7.129357">
        <ele>568.004</ele>
        <time>2010-01-01T00:14:22Z</time>
      </trkpt>
      <trkpt lat="40.253962" lon="-7.129062">
        <ele>572.014</ele>
        <time>2010-01-01T00:14:32Z</time>
      </trkpt>
      <trkpt lat="40.253811" lon="-7.128654">
        <ele>576.008</ele>
        <time>2010-01-01T00:14:46Z</time>
      </trkpt>
      <trkpt lat="40.253575" lon="-7.128094">
        <ele>578.015</ele>
        <time>2010-01-01T00:15:05Z</time>
      </trkpt>
      <trkpt lat="40.253506" lon="-7.127903">
        <ele>581.018</ele>
        <time>2010-01-01T00:15:12Z</time>
      </trkpt>
      <trkpt lat="40.253633" lon="-7.127394">
        <ele>578.081</ele>
        <time>2010-01-01T00:15:28Z</time>
      </trkpt>
      <trkpt lat="40.253890" lon="-7.126652">
        <ele>576.039</ele>
        <time>2010-01-01T00:15:53Z</time>
      </trkpt>
      <trkpt lat="40.254117" lon="-7.126043">
        <ele>578.096</ele>
        <time>2010-01-01T00:16:14Z</time>
      </trkpt>
      <trkpt lat="40.254298" lon="-7.125655">
        <ele>577.055</ele>
        <time>2010-01-01T00:16:28Z</time>
      </trkpt>
      <trkpt lat="40.254525" lon="-7.125485">
        <ele>575.087</ele>
        <time>2010-01-01T00:16:38Z</time>
      </trkpt>
      <trkpt lat="40.254764" lon="-7.125382">
        <ele>575.087</ele>
        <time>2010-01-01T00:16:48Z</time>
      </trkpt>
      <trkpt lat="40.254973" lon="-7.125185">
        <ele>575.077</ele>
        <time>2010-01-01T00:16:59Z</time>
      </trkpt>
      <trkpt lat="40.255065" lon="-7.124975">
        <ele>573.061</ele>
        <time>2010-01-01T00:17:06Z</time>
      </trkpt>
      <trkpt lat="40.255093" lon="-7.124665">
        <ele>574.027</ele>
        <time>2010-01-01T00:17:16Z</time>
      </trkpt>
      <trkpt lat="40.255074" lon="-7.124296">
        <ele>579.008</ele>
        <time>2010-01-01T00:17:27Z</time>
      </trkpt>
      <trkpt lat="40.255012" lon="-7.123809">
        <ele>584.020</ele>
        <time>2010-01-01T00:17:42Z</time>
      </trkpt>
      <trkpt lat="40.255048" lon="-7.123197">
        <ele>583.073</ele>
        <time>2010-01-01T00:18:01Z</time>
      </trkpt>
      <trkpt lat="40.255157" lon="-7.122676">
        <ele>578.076</ele>
        <time>2010-01-01T00:18:17Z</time>
      </trkpt>
      <trkpt lat="40.255303" lon="-7.122079">
        <ele>578.044</ele>
        <time>2010-01-01T00:18:36Z</time>
      </trkpt>
      <trkpt lat="40.255599" lon="-7.121569">
        <ele>576.031</ele>
        <time>2010-01-01T00:18:56Z</time>
      </trkpt>
      <trkpt lat="40.255956" lon="-7.121224">
        <ele>573.060</ele>
        <time>2010-01-01T00:19:14Z</time>
      </trkpt>
      <trkpt lat="40.256281" lon="-7.121057">
        <ele>568.022</ele>
        <time>2010-01-01T00:19:28Z</time>
      </trkpt>
      <trkpt lat="40.256611" lon="-7.120948">
        <ele>570.052</ele>
        <time>2010-01-01T00:19:41Z</time>
      </trkpt>
      <trkpt lat="40.257038" lon="-7.120763">
        <ele>568.088</ele>
        <time>2010-01-01T00:19:59Z</time>
      </trkpt>
      <trkpt lat="40.257344" lon="-7.120639">
        <ele>568.024</ele>
        <time>2010-01-01T00:20:12Z</time>
      </trkpt>
      <trkpt lat="40.257427" lon="-7.120448">
        <ele>569.026</ele>
        <time>2010-01-01T00:20:19Z</time>
      </trkpt>
      <trkpt lat="40.257379" lon="-7.120235">
        <ele>570.008</ele>
        <time>2010-01-01T00:20:26Z</time>
      </trkpt>
      <trkpt lat="40.257117" lon="-7.120014">
        <ele>570.081</ele>
        <time>2010-01-01T00:20:38Z</time>
      </trkpt>
      <trkpt lat="40.256613" lon="-7.119731">
        <ele>572.054</ele>
        <time>2010-01-01T00:21:00Z</time>
      </trkpt>
      <trkpt lat="40.256225" lon="-7.119545">
        <ele>573.087</ele>
        <time>2010-01-01T00:21:17Z</time>
      </trkpt>
      <trkpt lat="40.255791" lon="-7.119319">
        <ele>577.015</ele>
        <time>2010-01-01T00:21:35Z</time>
      </trkpt>
      <trkpt lat="40.255109" lon="-7.118877">
        <ele>581.082</ele>
        <time>2010-01-01T00:22:06Z</time>
      </trkpt>
      <trkpt lat="40.254833" lon="-7.118658">
        <ele>579.071</ele>
        <time>2010-01-01T00:22:19Z</time>
      </trkpt>
      <trkpt lat="40.254622" lon="-7.118567">
        <ele>580.033</ele>
        <time>2010-01-01T00:22:28Z</time>
      </trkpt>
      <trkpt lat="40.254467" lon="-7.117901">
        <ele>569.083</ele>
        <time>2010-01-01T00:22:49Z</time>
      </trkpt>
      <trkpt lat="40.254045" lon="-7.117631">
        <ele>573.081</ele>
        <time>2010-01-01T00:23:08Z</time>
      </trkpt>
      <trkpt lat="40.253809" lon="-7.117688">
        <ele>574.061</ele>
        <time>2010-01-01T00:23:17Z</time>
      </trkpt>
      <trkpt lat="40.253612" lon="-7.117591">
        <ele>574.017</ele>
        <time>2010-01-01T00:23:26Z</time>
      </trkpt>
      <trkpt lat="40.253597" lon="-7.117421">
        <ele>574.008</ele>
        <time>2010-01-01T00:23:31Z</time>
      </trkpt>
      <trkpt lat="40.253726" lon="-7.117212">
        <ele>571.041</ele>
        <time>2010-01-01T00:23:39Z</time>
      </trkpt>
      <trkpt lat="40.253714" lon="-7.116988">
        <ele>571.084</ele>
        <time>2010-01-01T00:23:46Z</time>
      </trkpt>
      <trkpt lat="40.253226" lon="-7.116708">
        <ele>580.027</ele>
        <time>2010-01-01T00:24:07Z</time>
      </trkpt>
      <trkpt lat="40.252882" lon="-7.116375">
        <ele>581.035</ele>
        <time>2010-01-01T00:24:24Z</time>
      </trkpt>
      <trkpt lat="40.251848" lon="-7.115718">
        <ele>583.022</ele>
        <time>2010-01-01T00:25:10Z</time>
      </trkpt>
      <trkpt lat="40.251593" lon="-7.115741">
        <ele>585.061</ele>
        <time>2010-01-01T00:25:21Z</time>
      </trkpt>
      <trkpt lat="40.251317" lon="-7.115847">
        <ele>588.063</ele>
        <time>2010-01-01T00:25:32Z</time>
      </trkpt>
      <trkpt lat="40.251385" lon="-7.115598">
        <ele>586.083</ele>
        <time>2010-01-01T00:25:40Z</time>
      </trkpt>
      <trkpt lat="40.251632" lon="-7.115371">
        <ele>586.066</ele>
        <time>2010-01-01T00:25:52Z</time>
      </trkpt>
      <trkpt lat="40.252163" lon="-7.115263">
        <ele>584.029</ele>
        <time>2010-01-01T00:26:14Z</time>
      </trkpt>
      <trkpt lat="40.253038" lon="-7.115880">
        <ele>575.021</ele>
        <time>2010-01-01T00:26:54Z</time>
      </trkpt>
      <trkpt lat="40.254181" lon="-7.116321">
        <ele>574.008</ele>
        <time>2010-01-01T00:27:41Z</time>
      </trkpt>
      <trkpt lat="40.254484" lon="-7.116418">
        <ele>573.079</ele>
        <time>2010-01-01T00:27:54Z</time>
      </trkpt>
      <trkpt lat="40.254634" lon="-7.116185">
        <ele>579.062</ele>
        <time>2010-01-01T00:28:03Z</time>
      </trkpt>
      <trkpt lat="40.254709" lon="-7.115987">
        <ele>583.055</ele>
        <time>2010-01-01T00:28:10Z</time>
      </trkpt>
      <trkpt lat="40.254879" lon="-7.116011">
        <ele>583.013</ele>
        <time>2010-01-01T00:28:17Z</time>
      </trkpt>
      <trkpt lat="40.254980" lon="-7.116323">
        <ele>580.010</ele>
        <time>2010-01-01T00:28:27Z</time>
      </trkpt>
      <trkpt lat="40.255167" lon="-7.116704">
        <ele>578.029</ele>
        <time>2010-01-01T00:28:41Z</time>
      </trkpt>
      <trkpt lat="40.255669" lon="-7.116878">
        <ele>582.021</ele>
        <time>2010-01-01T00:29:02Z</time>
      </trkpt>
      <trkpt lat="40.256014" lon="-7.117088">
        <ele>584.081</ele>
        <time>2010-01-01T00:29:17Z</time>
      </trkpt>
      <trkpt lat="40.256620" lon="-7.117287">
        <ele>582.081</ele>
        <time>2010-01-01T00:29:42Z</time>
      </trkpt>
      <trkpt lat="40.257127" lon="-7.117346">
        <ele>577.061</ele>
        <time>2010-01-01T00:30:02Z</time>
      </trkpt>
      <trkpt lat="40.257644" lon="-7.117382">
        <ele>577.017</ele>
        <time>2010-01-01T00:30:23Z</time>
      </trkpt>
      <trkpt lat="40.257976" lon="-7.117253">
        <ele>575.008</ele>
        <time>2010-01-01T00:30:37Z</time>
      </trkpt>
      <trkpt lat="40.258174" lon="-7.117131">
        <ele>576.011</ele>
        <time>2010-01-01T00:30:46Z</time>
      </trkpt>
      <trkpt lat="40.258390" lon="-7.117128">
        <ele>576.074</ele>
        <time>2010-01-01T00:30:54Z</time>
      </trkpt>
      <trkpt lat="40.258481" lon="-7.117356">
        <ele>569.057</ele>
        <time>2010-01-01T00:31:02Z</time>
      </trkpt>
      <trkpt lat="40.258755" lon="-7.117385">
        <ele>567.055</ele>
        <time>2010-01-01T00:31:13Z</time>
      </trkpt>
      <trkpt lat="40.259238" lon="-7.117199">
        <ele>574.042</ele>
        <time>2010-01-01T00:31:33Z</time>
      </trkpt>
      <trkpt lat="40.259629" lon="-7.116943">
        <ele>576.061</ele>
        <time>2010-01-01T00:31:51Z</time>
      </trkpt>
      <trkpt lat="40.259915" lon="-7.116450">
        <ele>576.043</ele>
        <time>2010-01-01T00:32:10Z</time>
      </trkpt>
      <trkpt lat="40.260202" lon="-7.115620">
        <ele>579.043</ele>
        <time>2010-01-01T00:32:37Z</time>
      </trkpt>
      <trkpt lat="40.260502" lon="-7.115089">
        <ele>576.076</ele>
        <time>2010-01-01T00:32:58Z</time>
      </trkpt>
      <trkpt lat="40.260855" lon="-7.114080">
        <ele>584.090</ele>
        <time>2010-01-01T00:33:32Z</time>
      </trkpt>
      <trkpt lat="40.261003" lon="-7.113603">
        <ele>587.019</ele>
        <time>2010-01-01T00:33:47Z</time>
      </trkpt>
      <trkpt lat="40.261630" lon="-7.112591">
        <ele>577.008</ele>
        <time>2010-01-01T00:34:27Z</time>
      </trkpt>
      <trkpt lat="40.261896" lon="-7.112077">
        <ele>565.010</ele>
        <time>2010-01-01T00:34:46Z</time>
      </trkpt>
      <trkpt lat="40.261806" lon="-7.111576">
        <ele>576.053</ele>
        <time>2010-01-01T00:35:02Z</time>
      </trkpt>
      <trkpt lat="40.261389" lon="-7.111148">
        <ele>580.076</ele>
        <time>2010-01-01T00:35:23Z</time>
      </trkpt>
      <trkpt lat="40.261022" lon="-7.110839">
        <ele>584.074</ele>
        <time>2010-01-01T00:35:40Z</time>
      </trkpt>
      <trkpt lat="40.260798" lon="-7.110623">
        <ele>588.031</ele>
        <time>2010-01-01T00:35:52Z</time>
      </trkpt>
      <trkpt lat="40.260621" lon="-7.110190">
        <ele>589.080</ele>
        <time>2010-01-01T00:36:07Z</time>
      </trkpt>
      <trkpt lat="40.260686" lon="-7.109713">
        <ele>585.082</ele>
        <time>2010-01-01T00:36:21Z</time>
      </trkpt>
      <trkpt lat="40.260882" lon="-7.109503">
        <ele>583.072</ele>
        <time>2010-01-01T00:36:32Z</time>
      </trkpt>
      <trkpt lat="40.260998" lon="-7.109696">
        <ele>580.045</ele>
        <time>2010-01-01T00:36:39Z</time>
      </trkpt>
      <trkpt lat="40.261141" lon="-7.109984">
        <ele>576.047</ele>
        <time>2010-01-01T00:36:50Z</time>
      </trkpt>
      <trkpt lat="40.261378" lon="-7.110254">
        <ele>572.011</ele>
        <time>2010-01-01T00:37:02Z</time>
      </trkpt>
      <trkpt lat="40.262315" lon="-7.110548">
        <ele>570.008</ele>
        <time>2010-01-01T00:37:41Z</time>
      </trkpt>
      <trkpt lat="40.262920" lon="-7.110410">
        <ele>574.057</ele>
        <time>2010-01-01T00:38:05Z</time>
      </trkpt>
      <trkpt lat="40.263295" lon="-7.110782">
        <ele>570.070</ele>
        <time>2010-01-01T00:38:24Z</time>
      </trkpt>
      <trkpt lat="40.263677" lon="-7.110836">
        <ele>578.033</ele>
        <time>2010-01-01T00:38:39Z</time>
      </trkpt>
      <trkpt lat="40.263693" lon="-7.111205">
        <ele>574.041</ele>
        <time>2010-01-01T00:38:51Z</time>
      </trkpt>
      <trkpt lat="40.263787" lon="-7.111426">
        <ele>571.078</ele>
        <time>2010-01-01T00:38:58Z</time>
      </trkpt>
      <trkpt lat="40.264008" lon="-7.111436">
        <ele>571.027</ele>
        <time>2010-01-01T00:39:07Z</time>
      </trkpt>
      <trkpt lat="40.264591" lon="-7.111426">
        <ele>571.049</ele>
        <time>2010-01-01T00:39:31Z</time>
      </trkpt>
      <trkpt lat="40.265242" lon="-7.111007">
        <ele>574.059</ele>
        <time>2010-01-01T00:40:00Z</time>
      </trkpt>
      <trkpt lat="40.265964" lon="-7.110164">
        <ele>576.066</ele>
        <time>2010-01-01T00:40:38Z</time>
      </trkpt>
      <trkpt lat="40.266707" lon="-7.109235">
        <ele>578.029</ele>
        <time>2010-01-01T00:41:20Z</time>
      </trkpt>
      <trkpt lat="40.267031" lon="-7.108979">
        <ele>577.021</ele>
        <time>2010-01-01T00:41:35Z</time>
      </trkpt>
      <trkpt lat="40.267259" lon="-7.108984">
        <ele>575.008</ele>
        <time>2010-01-01T00:41:44Z</time>
      </trkpt>
      <trkpt lat="40.267631" lon="-7.109074">
        <ele>573.039</ele>
        <time>2010-01-01T00:41:59Z</time>
      </trkpt>
      <trkpt lat="40.267941" lon="-7.109172">
        <ele>571.092</ele>
        <time>2010-01-01T00:42:12Z</time>
      </trkpt>
      <trkpt lat="40.268310" lon="-7.109184">
        <ele>571.045</ele>
        <time>2010-01-01T00:42:26Z</time>
      </trkpt>
      <trkpt lat="40.268610" lon="-7.109025">
        <ele>570.033</ele>
        <time>2010-01-01T00:42:39Z</time>
      </trkpt>
      <trkpt lat="40.268769" lon="-7.108850">
        <ele>567.030</ele>
        <time>2010-01-01T00:42:48Z</time>
      </trkpt>
      <trkpt lat="40.268687" lon="-7.108480">
        <ele>572.019</ele>
        <time>2010-01-01T00:43:00Z</time>
      </trkpt>
      <trkpt lat="40.268400" lon="-7.108001">
        <ele>574.051</ele>
        <time>2010-01-01T00:43:18Z</time>
      </trkpt>
      <trkpt lat="40.268145" lon="-7.107680">
        <ele>572.091</ele>
        <time>2010-01-01T00:43:32Z</time>
      </trkpt>
      <trkpt lat="40.267901" lon="-7.107360">
        <ele>574.098</ele>
        <time>2010-01-01T00:43:46Z</time>
      </trkpt>
      <trkpt lat="40.267456" lon="-7.106821">
        <ele>575.015</ele>
        <time>2010-01-01T00:44:10Z</time>
      </trkpt>
      <trkpt lat="40.267119" lon="-7.106424">
        <ele>576.026</ele>
        <time>2010-01-01T00:44:28Z</time>
      </trkpt>
      <trkpt lat="40.266855" lon="-7.106038">
        <ele>580.008</ele>
        <time>2010-01-01T00:44:44Z</time>
      </trkpt>
      <trkpt lat="40.266861" lon="-7.105407">
        <ele>577.092</ele>
        <time>2010-01-01T00:45:04Z</time>
      </trkpt>
      <trkpt lat="40.267196" lon="-7.104395">
        <ele>578.075</ele>
        <time>2010-01-01T00:45:37Z</time>
      </trkpt>
      <trkpt lat="40.267214" lon="-7.104364">
        <ele>578.098</ele>
        <time>2010-01-01T00:45:38Z</time>
      </trkpt>
      <trkpt lat="40.267583" lon="-7.103752">
        <ele>575.066</ele>
        <time>2010-01-01T00:46:02Z</time>
      </trkpt>
      <trkpt lat="40.267592" lon="-7.103731">
        <ele>575.033</ele>
        <time>2010-01-01T00:46:03Z</time>
      </trkpt>
      <trkpt lat="40.267915" lon="-7.103272">
        <ele>574.082</ele>
        <time>2010-01-01T00:46:22Z</time>
      </trkpt>
      <trkpt lat="40.268141" lon="-7.102729">
        <ele>578.034</ele>
        <time>2010-01-01T00:46:41Z</time>
      </trkpt>
      <trkpt lat="40.268031" lon="-7.101831">
        <ele>581.094</ele>
        <time>2010-01-01T00:47:09Z</time>
      </trkpt>
      <trkpt lat="40.267836" lon="-7.101470">
        <ele>582.046</ele>
        <time>2010-01-01T00:47:22Z</time>
      </trkpt>
      <trkpt lat="40.267654" lon="-7.101253">
        <ele>583.088</ele>
        <time>2010-01-01T00:47:32Z</time>
      </trkpt>
      <trkpt lat="40.267887" lon="-7.100868">
        <ele>573.016</ele>
        <time>2010-01-01T00:47:47Z</time>
      </trkpt>
      <trkpt lat="40.268105" lon="-7.100553">
        <ele>575.008</ele>
        <time>2010-01-01T00:48:00Z</time>
      </trkpt>
      <trkpt lat="40.268397" lon="-7.100511">
        <ele>581.067</ele>
        <time>2010-01-01T00:48:12Z</time>
      </trkpt>
      <trkpt lat="40.268780" lon="-7.100598">
        <ele>588.010</ele>
        <time>2010-01-01T00:48:27Z</time>
      </trkpt>
      <trkpt lat="40.269039" lon="-7.100857">
        <ele>591.013</ele>
        <time>2010-01-01T00:48:41Z</time>
      </trkpt>
      <trkpt lat="40.269250" lon="-7.101257">
        <ele>587.031</ele>
        <time>2010-01-01T00:48:55Z</time>
      </trkpt>
      <trkpt lat="40.269654" lon="-7.101446">
        <ele>594.078</ele>
        <time>2010-01-01T00:49:13Z</time>
      </trkpt>
      <trkpt lat="40.269673" lon="-7.101805">
        <ele>596.087</ele>
        <time>2010-01-01T00:49:24Z</time>
      </trkpt>
      <trkpt lat="40.269557" lon="-7.102457">
        <ele>601.049</ele>
        <time>2010-01-01T00:49:44Z</time>
      </trkpt>
      <trkpt lat="40.269505" lon="-7.103195">
        <ele>601.049</ele>
        <time>2010-01-01T00:50:07Z</time>
      </trkpt>
      <trkpt lat="40.269503" lon="-7.103230">
        <ele>600.032</ele>
        <time>2010-01-01T00:50:08Z</time>
      </trkpt>
      <trkpt lat="40.269504" lon="-7.103721">
        <ele>602.092</ele>
        <time>2010-01-01T00:50:23Z</time>
      </trkpt>
      <trkpt lat="40.269512" lon="-7.103756">
        <ele>602.011</ele>
        <time>2010-01-01T00:50:24Z</time>
      </trkpt>
      <trkpt lat="40.269691" lon="-7.104084">
        <ele>603.008</ele>
        <time>2010-01-01T00:50:36Z</time>
      </trkpt>
      <trkpt lat="40.269954" lon="-7.104288">
        <ele>605.026</ele>
        <time>2010-01-01T00:50:48Z</time>
      </trkpt>
      <trkpt lat="40.269941" lon="-7.104696">
        <ele>604.029</ele>
        <time>2010-01-01T00:51:01Z</time>
      </trkpt>
      <trkpt lat="40.269653" lon="-7.104936">
        <ele>601.072</ele>
        <time>2010-01-01T00:51:14Z</time>
      </trkpt>
      <trkpt lat="40.268885" lon="-7.104824">
        <ele>587.050</ele>
        <time>2010-01-01T00:51:45Z</time>
      </trkpt>
      <trkpt lat="40.268682" lon="-7.105156">
        <ele>586.067</ele>
        <time>2010-01-01T00:51:58Z</time>
      </trkpt>
      <trkpt lat="40.268237" lon="-7.105420">
        <ele>579.086</ele>
        <time>2010-01-01T00:52:18Z</time>
      </trkpt>
      <trkpt lat="40.268193" lon="-7.105572">
        <ele>579.068</ele>
        <time>2010-01-01T00:52:23Z</time>
      </trkpt>
      <trkpt lat="40.268264" lon="-7.105867">
        <ele>578.038</ele>
        <time>2010-01-01T00:52:32Z</time>
      </trkpt>
      <trkpt lat="40.268710" lon="-7.106433">
        <ele>576.069</ele>
        <time>2010-01-01T00:52:57Z</time>
      </trkpt>
      <trkpt lat="40.269332" lon="-7.107049">
        <ele>574.004</ele>
        <time>2010-01-01T00:53:28Z</time>
      </trkpt>
      <trkpt lat="40.269717" lon="-7.107345">
        <ele>575.024</ele>
        <time>2010-01-01T00:53:46Z</time>
      </trkpt>
      <trkpt lat="40.270032" lon="-7.107835">
        <ele>572.008</ele>
        <time>2010-01-01T00:54:06Z</time>
      </trkpt>
      <trkpt lat="40.270387" lon="-7.108197">
        <ele>572.079</ele>
        <time>2010-01-01T00:54:24Z</time>
      </trkpt>
      <trkpt lat="40.270632" lon="-7.108358">
        <ele>572.082</ele>
        <time>2010-01-01T00:54:35Z</time>
      </trkpt>
      <trkpt lat="40.272827" lon="-7.108282">
        <ele>581.035</ele>
        <time>2010-01-01T00:56:03Z</time>
      </trkpt>
      <trkpt lat="40.273127" lon="-7.108722">
        <ele>582.043</ele>
        <time>2010-01-01T00:56:21Z</time>
      </trkpt>
      <trkpt lat="40.272988" lon="-7.109011">
        <ele>581.040</ele>
        <time>2010-01-01T00:56:31Z</time>
      </trkpt>
      <trkpt lat="40.273523" lon="-7.110061">
        <ele>590.059</ele>
        <time>2010-01-01T00:57:10Z</time>
      </trkpt>
      <trkpt lat="40.273592" lon="-7.110242">
        <ele>591.051</ele>
        <time>2010-01-01T00:57:16Z</time>
      </trkpt>
      <trkpt lat="40.273811" lon="-7.110629">
        <ele>594.071</ele>
        <time>2010-01-01T00:57:31Z</time>
      </trkpt>
      <trkpt lat="40.274224" lon="-7.110851">
        <ele>598.088</ele>
        <time>2010-01-01T00:57:48Z</time>
      </trkpt>
      <trkpt lat="40.274382" lon="-7.110889">
        <ele>600.024</ele>
        <time>2010-01-01T00:57:55Z</time>
      </trkpt>
      <trkpt lat="40.274709" lon="-7.110894">
        <ele>607.026</ele>
        <time>2010-01-01T00:58:08Z</time>
      </trkpt>
      <trkpt lat="40.275209" lon="-7.111066">
        <ele>615.008</ele>
        <time>2010-01-01T00:58:29Z</time>
      </trkpt>
      <trkpt lat="40.275666" lon="-7.111361">
        <ele>620.091</ele>
        <time>2010-01-01T00:58:49Z</time>
      </trkpt>
      <trkpt lat="40.275990" lon="-7.111683">
        <ele>629.064</ele>
        <time>2010-01-01T00:59:05Z</time>
      </trkpt>
      <trkpt lat="40.276091" lon="-7.111884">
        <ele>630.087</ele>
        <time>2010-01-01T00:59:13Z</time>
      </trkpt>
      <trkpt lat="40.276690" lon="-7.111797">
        <ele>636.045</ele>
        <time>2010-01-01T00:59:37Z</time>
      </trkpt>
      <trkpt lat="40.277113" lon="-7.111908">
        <ele>638.092</ele>
        <time>2010-01-01T00:59:54Z</time>
      </trkpt>
      <trkpt lat="40.277702" lon="-7.112276">
        <ele>637.051</ele>
        <time>2010-01-01T01:00:20Z</time>
      </trkpt>
      <trkpt lat="40.278297" lon="-7.112674">
        <ele>630.063</ele>
        <time>2010-01-01T01:00:47Z</time>
      </trkpt>
      <trkpt lat="40.278826" lon="-7.113030">
        <ele>623.033</ele>
        <time>2010-01-01T01:01:11Z</time>
      </trkpt>
      <trkpt lat="40.279038" lon="-7.113265">
        <ele>620.019</ele>
        <time>2010-01-01T01:01:22Z</time>
      </trkpt>
      <trkpt lat="40.279119" lon="-7.113567">
        <ele>615.009</ele>
        <time>2010-01-01T01:01:32Z</time>
      </trkpt>
      <trkpt lat="40.279377" lon="-7.113707">
        <ele>617.019</ele>
        <time>2010-01-01T01:01:43Z</time>
      </trkpt>
      <trkpt lat="40.279582" lon="-7.114080">
        <ele>616.008</ele>
        <time>2010-01-01T01:01:57Z</time>
      </trkpt>
      <trkpt lat="40.280064" lon="-7.114249">
        <ele>620.054</ele>
        <time>2010-01-01T01:02:17Z</time>
      </trkpt>
      <trkpt lat="40.280114" lon="-7.114430">
        <ele>621.037</ele>
        <time>2010-01-01T01:02:23Z</time>
      </trkpt>
      <trkpt lat="40.279878" lon="-7.114793">
        <ele>619.030</ele>
        <time>2010-01-01T01:02:37Z</time>
      </trkpt>
      <trkpt lat="40.280221" lon="-7.115299">
        <ele>620.068</ele>
        <time>2010-01-01T01:02:58Z</time>
      </trkpt>
      <trkpt lat="40.280689" lon="-7.115814">
        <ele>617.095</ele>
        <time>2010-01-01T01:03:22Z</time>
      </trkpt>
      <trkpt lat="40.281582" lon="-7.116091">
        <ele>618.084</ele>
        <time>2010-01-01T01:03:59Z</time>
      </trkpt>
      <trkpt lat="40.282098" lon="-7.116931">
        <ele>612.056</ele>
        <time>2010-01-01T01:04:32Z</time>
      </trkpt>
      <trkpt lat="40.282275" lon="-7.117419">
        <ele>607.096</ele>
        <time>2010-01-01T01:04:49Z</time>
      </trkpt>
      <trkpt lat="40.282520" lon="-7.117708">
        <ele>603.056</ele>
        <time>2010-01-01T01:05:02Z</time>
      </trkpt>
      <trkpt lat="40.283056" lon="-7.118048">
        <ele>600.059</ele>
        <time>2010-01-01T01:05:26Z</time>
      </trkpt>
      <trkpt lat="40.283053" lon="-7.118343">
        <ele>593.014</ele>
        <time>2010-01-01T01:05:35Z</time>
      </trkpt>
      <trkpt lat="40.283069" lon="-7.118555">
        <ele>591.008</ele>
        <time>2010-01-01T01:05:41Z</time>
      </trkpt>
      <trkpt lat="40.283113" lon="-7.118784">
        <ele>591.068</ele>
        <time>2010-01-01T01:05:48Z</time>
      </trkpt>
      <trkpt lat="40.283100" lon="-7.118941">
        <ele>591.041</ele>
        <time>2010-01-01T01:05:53Z</time>
      </trkpt>
      <trkpt lat="40.283242" lon="-7.118952">
        <ele>592.074</ele>
        <time>2010-01-01T01:05:59Z</time>
      </trkpt>
      <trkpt lat="40.283483" lon="-7.119048">
        <ele>594.022</ele>
        <time>2010-01-01T01:06:09Z</time>
      </trkpt>
      <trkpt lat="40.283682" lon="-7.119316">
        <ele>595.029</ele>
        <time>2010-01-01T01:06:20Z</time>
      </trkpt>
      <trkpt lat="40.283822" lon="-7.119493">
        <ele>594.078</ele>
        <time>2010-01-01T01:06:28Z</time>
      </trkpt>
      <trkpt lat="40.284072" lon="-7.119680">
        <ele>594.080</ele>
        <time>2010-01-01T01:06:40Z</time>
      </trkpt>
      <trkpt lat="40.284147" lon="-7.119760">
        <ele>593.030</ele>
        <time>2010-01-01T01:06:44Z</time>
      </trkpt>
      <trkpt lat="40.284243" lon="-7.119872">
        <ele>592.028</ele>
        <time>2010-01-01T01:06:49Z</time>
      </trkpt>
      <trkpt lat="40.284468" lon="-7.119971">
        <ele>592.089</ele>
        <time>2010-01-01T01:06:58Z</time>
      </trkpt>
      <trkpt lat="40.284530" lon="-7.120007">
        <ele>592.017</ele>
        <time>2010-01-01T01:07:01Z</time>
      </trkpt>
      <trkpt lat="40.284697" lon="-7.120632">
        <ele>588.008</ele>
        <time>2010-01-01T01:07:21Z</time>
      </trkpt>
      <trkpt lat="40.284723" lon="-7.121300">
        <ele>594.065</ele>
        <time>2010-01-01T01:07:42Z</time>
      </trkpt>
      <trkpt lat="40.284784" lon="-7.121658">
        <ele>597.058</ele>
        <time>2010-01-01T01:07:53Z</time>
      </trkpt>
      <trkpt lat="40.285008" lon="-7.121965">
        <ele>599.041</ele>
        <time>2010-01-01T01:08:06Z</time>
      </trkpt>
      <trkpt lat="40.285280" lon="-7.122209">
        <ele>602.039</ele>
        <time>2010-01-01T01:08:19Z</time>
      </trkpt>
      <trkpt lat="40.285496" lon="-7.122289">
        <ele>604.066</ele>
        <time>2010-01-01T01:08:28Z</time>
      </trkpt>
      <trkpt lat="40.285813" lon="-7.122320">
        <ele>607.075</ele>
        <time>2010-01-01T01:08:41Z</time>
      </trkpt>
      <trkpt lat="40.285973" lon="-7.122321">
        <ele>607.057</ele>
        <time>2010-01-01T01:08:47Z</time>
      </trkpt>
      <trkpt lat="40.286386" lon="-7.122666">
        <ele>605.037</ele>
        <time>2010-01-01T01:09:07Z</time>
      </trkpt>
      <trkpt lat="40.286685" lon="-7.123128">
        <ele>606.043</ele>
        <time>2010-01-01T01:09:25Z</time>
      </trkpt>
      <trkpt lat="40.286880" lon="-7.123264">
        <ele>610.064</ele>
        <time>2010-01-01T01:09:34Z</time>
      </trkpt>
      <trkpt lat="40.287157" lon="-7.123276">
        <ele>612.010</ele>
        <time>2010-01-01T01:09:45Z</time>
      </trkpt>
      <trkpt lat="40.287411" lon="-7.123450">
        <ele>613.008</ele>
        <time>2010-01-01T01:09:57Z</time>
      </trkpt>
      <trkpt lat="40.287540" lon="-7.123534">
        <ele>614.017</ele>
        <time>2010-01-01T01:10:02Z</time>
      </trkpt>
      <trkpt lat="40.287745" lon="-7.123667">
        <ele>615.020</ele>
        <time>2010-01-01T01:10:11Z</time>
      </trkpt>
      <trkpt lat="40.288222" lon="-7.123813">
        <ele>619.053</ele>
        <time>2010-01-01T01:10:31Z</time>
      </trkpt>
      <trkpt lat="40.288419" lon="-7.123798">
        <ele>622.051</ele>
        <time>2010-01-01T01:10:39Z</time>
      </trkpt>
      <trkpt lat="40.288626" lon="-7.123634">
        <ele>624.018</ele>
        <time>2010-01-01T01:10:49Z</time>
      </trkpt>
      <trkpt lat="40.288830" lon="-7.123467">
        <ele>624.097</ele>
        <time>2010-01-01T01:10:58Z</time>
      </trkpt>
      <trkpt lat="40.289100" lon="-7.123578">
        <ele>628.029</ele>
        <time>2010-01-01T01:11:10Z</time>
      </trkpt>
      <trkpt lat="40.289347" lon="-7.123792">
        <ele>632.039</ele>
        <time>2010-01-01T01:11:21Z</time>
      </trkpt>
      <trkpt lat="40.289452" lon="-7.123942">
        <ele>633.053</ele>
        <time>2010-01-01T01:11:28Z</time>
      </trkpt>
      <trkpt lat="40.289636" lon="-7.124615">
        <ele>644.004</ele>
        <time>2010-01-01T01:11:49Z</time>
      </trkpt>
      <trkpt lat="40.289812" lon="-7.125308">
        <ele>655.014</ele>
        <time>2010-01-01T01:12:12Z</time>
      </trkpt>
      <trkpt lat="40.290282" lon="-7.125829">
        <ele>663.008</ele>
        <time>2010-01-01T01:12:36Z</time>
      </trkpt>
      <trkpt lat="40.290521" lon="-7.126058">
        <ele>666.028</ele>
        <time>2010-01-01T01:12:48Z</time>
      </trkpt>
      <trkpt lat="40.290762" lon="-7.126189">
        <ele>668.061</ele>
        <time>2010-01-01T01:12:59Z</time>
      </trkpt>
      <trkpt lat="40.290999" lon="-7.126265">
        <ele>670.054</ele>
        <time>2010-01-01T01:13:08Z</time>
      </trkpt>
      <trkpt lat="40.291214" lon="-7.126175">
        <ele>672.032</ele>
        <time>2010-01-01T01:13:17Z</time>
      </trkpt>
      <trkpt lat="40.291395" lon="-7.126039">
        <ele>675.079</ele>
        <time>2010-01-01T01:13:26Z</time>
      </trkpt>
      <trkpt lat="40.292150" lon="-7.126030">
        <ele>683.048</ele>
        <time>2010-01-01T01:13:56Z</time>
      </trkpt>
      <trkpt lat="40.292333" lon="-7.126182">
        <ele>685.030</ele>
        <time>2010-01-01T01:14:05Z</time>
      </trkpt>
      <trkpt lat="40.292489" lon="-7.126350">
        <ele>687.080</ele>
        <time>2010-01-01T01:14:13Z</time>
      </trkpt>
      <trkpt lat="40.292754" lon="-7.126950">
        <ele>690.074</ele>
        <time>2010-01-01T01:14:34Z</time>
      </trkpt>
      <trkpt lat="40.292968" lon="-7.127757">
        <ele>702.056</ele>
        <time>2010-01-01T01:15:00Z</time>
      </trkpt>
      <trkpt lat="40.293280" lon="-7.128232">
        <ele>707.021</ele>
        <time>2010-01-01T01:15:19Z</time>
      </trkpt>
      <trkpt lat="40.293439" lon="-7.128875">
        <ele>715.008</ele>
        <time>2010-01-01T01:15:40Z</time>
      </trkpt>
      <trkpt lat="40.293645" lon="-7.129288">
        <ele>718.060</ele>
        <time>2010-01-01T01:15:55Z</time>
      </trkpt>
      <trkpt lat="40.293655" lon="-7.130006">
        <ele>727.043</ele>
        <time>2010-01-01T01:16:17Z</time>
      </trkpt>
      <trkpt lat="40.293560" lon="-7.130327">
        <ele>733.086</ele>
        <time>2010-01-01T01:16:27Z</time>
      </trkpt>
      <trkpt lat="40.293520" lon="-7.130481">
        <ele>736.054</ele>
        <time>2010-01-01T01:16:32Z</time>
      </trkpt>
      <trkpt lat="40.293616" lon="-7.130682">
        <ele>738.021</ele>
        <time>2010-01-01T01:16:40Z</time>
      </trkpt>
      <trkpt lat="40.293657" lon="-7.131112">
        <ele>746.050</ele>
        <time>2010-01-01T01:16:53Z</time>
      </trkpt>
      <trkpt lat="40.293671" lon="-7.131453">
        <ele>749.012</ele>
        <time>2010-01-01T01:17:03Z</time>
      </trkpt>
      <trkpt lat="40.293925" lon="-7.131722">
        <ele>747.052</ele>
        <time>2010-01-01T01:17:16Z</time>
      </trkpt>
      <trkpt lat="40.293973" lon="-7.131956">
        <ele>749.033</ele>
        <time>2010-01-01T01:17:24Z</time>
      </trkpt>
      <trkpt lat="40.293972" lon="-7.131973">
        <ele>749.023</ele>
        <time>2010-01-01T01:17:24Z</time>
      </trkpt>
      <trkpt lat="40.293911" lon="-7.132401">
        <ele>758.015</ele>
        <time>2010-01-01T01:17:38Z</time>
      </trkpt>
      <trkpt lat="40.293911" lon="-7.132407">
        <ele>759.008</ele>
        <time>2010-01-01T01:17:38Z</time>
      </trkpt>
      <trkpt lat="40.293955" lon="-7.132645">
        <ele>764.086</ele>
        <time>2010-01-01T01:17:45Z</time>
      </trkpt>
      <trkpt lat="40.293959" lon="-7.132652">
        <ele>764.099</ele>
        <time>2010-01-01T01:17:45Z</time>
      </trkpt>
      <trkpt lat="40.294077" lon="-7.132834">
        <ele>767.042</ele>
        <time>2010-01-01T01:17:53Z</time>
      </trkpt>
      <trkpt lat="40.294082" lon="-7.132847">
        <ele>767.080</ele>
        <time>2010-01-01T01:17:53Z</time>
      </trkpt>
      <trkpt lat="40.294167" lon="-7.132979">
        <ele>770.067</ele>
        <time>2010-01-01T01:17:58Z</time>
      </trkpt>
      <trkpt lat="40.294291" lon="-7.132971">
        <ele>769.016</ele>
        <time>2010-01-01T01:18:03Z</time>
      </trkpt>
      <trkpt lat="40.294467" lon="-7.132920">
        <ele>768.028</ele>
        <time>2010-01-01T01:18:11Z</time>
      </trkpt>
      <trkpt lat="40.294686" lon="-7.133108">
        <ele>771.038</ele>
        <time>2010-01-01T01:18:21Z</time>
      </trkpt>
      <trkpt lat="40.294870" lon="-7.133422">
        <ele>773.086</ele>
        <time>2010-01-01T01:18:33Z</time>
      </trkpt>
      <trkpt lat="40.294929" lon="-7.133758">
        <ele>774.060</ele>
        <time>2010-01-01T01:18:44Z</time>
      </trkpt>
      <trkpt lat="40.294800" lon="-7.134078">
        <ele>774.026</ele>
        <time>2010-01-01T01:18:55Z</time>
      </trkpt>
      <trkpt lat="40.294670" lon="-7.134244">
        <ele>775.008</ele>
        <time>2010-01-01T01:19:02Z</time>
      </trkpt>
      <trkpt lat="40.294657" lon="-7.134260">
        <ele>775.031</ele>
        <time>2010-01-01T01:19:03Z</time>
      </trkpt>
      <trkpt lat="40.294530" lon="-7.134428">
        <ele>774.014</ele>
        <time>2010-01-01T01:19:10Z</time>
      </trkpt>
      <trkpt lat="40.294374" lon="-7.134632">
        <ele>775.037</ele>
        <time>2010-01-01T01:19:19Z</time>
      </trkpt>
      <trkpt lat="40.294323" lon="-7.134709">
        <ele>775.025</ele>
        <time>2010-01-01T01:19:22Z</time>
      </trkpt>
      <trkpt lat="40.294507" lon="-7.134935">
        <ele>773.012</ele>
        <time>2010-01-01T01:19:32Z</time>
      </trkpt>
      <trkpt lat="40.294966" lon="-7.135482">
        <ele>771.031</ele>
        <time>2010-01-01T01:19:57Z</time>
      </trkpt>
      <trkpt lat="40.295198" lon="-7.135750">
        <ele>771.013</ele>
        <time>2010-01-01T01:20:09Z</time>
      </trkpt>
      <trkpt lat="40.295645" lon="-7.136252">
        <ele>767.013</ele>
        <time>2010-01-01T01:20:33Z</time>
      </trkpt>
      <trkpt lat="40.295888" lon="-7.136516">
        <ele>767.075</ele>
        <time>2010-01-01T01:20:45Z</time>
      </trkpt>
      <trkpt lat="40.296254" lon="-7.136767">
        <ele>769.028</ele>
        <time>2010-01-01T01:21:02Z</time>
      </trkpt>
      <trkpt lat="40.296513" lon="-7.136936">
        <ele>769.020</ele>
        <time>2010-01-01T01:21:14Z</time>
      </trkpt>
      <trkpt lat="40.296731" lon="-7.137230">
        <ele>771.008</ele>
        <time>2010-01-01T01:21:26Z</time>
      </trkpt>
      <trkpt lat="40.296786" lon="-7.137516">
        <ele>773.080</ele>
        <time>2010-01-01T01:21:35Z</time>
      </trkpt>
      <trkpt lat="40.296617" lon="-7.137750">
        <ele>772.013</ele>
        <time>2010-01-01T01:21:45Z</time>
      </trkpt>
      <trkpt lat="40.296438" lon="-7.137883">
        <ele>770.086</ele>
        <time>2010-01-01T01:21:53Z</time>
      </trkpt>
      <trkpt lat="40.296314" lon="-7.137972">
        <ele>769.074</ele>
        <time>2010-01-01T01:21:59Z</time>
      </trkpt>
      <trkpt lat="40.296310" lon="-7.138415">
        <ele>769.071</ele>
        <time>2010-01-01T01:22:12Z</time>
      </trkpt>
      <trkpt lat="40.296336" lon="-7.138970">
        <ele>773.060</ele>
        <time>2010-01-01T01:22:29Z</time>
      </trkpt>
      <trkpt lat="40.296290" lon="-7.139622">
        <ele>774.042</ele>
        <time>2010-01-01T01:22:49Z</time>
      </trkpt>
      <trkpt lat="40.296316" lon="-7.139872">
        <ele>774.012</ele>
        <time>2010-01-01T01:22:57Z</time>
      </trkpt>
      <trkpt lat="40.296591" lon="-7.140220">
        <ele>775.083</ele>
        <time>2010-01-01T01:23:12Z</time>
      </trkpt>
      <trkpt lat="40.296887" lon="-7.140486">
        <ele>778.025</ele>
        <time>2010-01-01T01:23:27Z</time>
      </trkpt>
      <trkpt lat="40.296879" lon="-7.140717">
        <ele>778.017</ele>
        <time>2010-01-01T01:23:34Z</time>
      </trkpt>
      <trkpt lat="40.296776" lon="-7.140976">
        <ele>779.008</ele>
        <time>2010-01-01T01:23:43Z</time>
      </trkpt>
      <trkpt lat="40.296645" lon="-7.141240">
        <ele>781.031</ele>
        <time>2010-01-01T01:23:52Z</time>
      </trkpt>
      <trkpt lat="40.296496" lon="-7.141688">
        <ele>777.014</ele>
        <time>2010-01-01T01:24:07Z</time>
      </trkpt>
      <trkpt lat="40.296597" lon="-7.141901">
        <ele>778.067</ele>
        <time>2010-01-01T01:24:15Z</time>
      </trkpt>
      <trkpt lat="40.296865" lon="-7.141973">
        <ele>780.015</ele>
        <time>2010-01-01T01:24:26Z</time>
      </trkpt>
      <trkpt lat="40.297127" lon="-7.141854">
        <ele>782.072</ele>
        <time>2010-01-01T01:24:37Z</time>
      </trkpt>
      <trkpt lat="40.297398" lon="-7.141662">
        <ele>786.041</ele>
        <time>2010-01-01T01:24:49Z</time>
      </trkpt>
      <trkpt lat="40.297604" lon="-7.141556">
        <ele>788.083</ele>
        <time>2010-01-01T01:24:58Z</time>
      </trkpt>
      <trkpt lat="40.298206" lon="-7.141634">
        <ele>794.063</ele>
        <time>2010-01-01T01:25:22Z</time>
      </trkpt>
      <trkpt lat="40.298695" lon="-7.141704">
        <ele>802.029</ele>
        <time>2010-01-01T01:25:42Z</time>
      </trkpt>
      <trkpt lat="40.298894" lon="-7.141784">
        <ele>804.000</ele>
        <time>2010-01-01T01:25:50Z</time>
      </trkpt>
      <trkpt lat="40.299360" lon="-7.141964">
        <ele>811.020</ele>
        <time>2010-01-01T01:26:10Z</time>
      </trkpt>
      <trkpt lat="40.299570" lon="-7.142019">
        <ele>813.008</ele>
        <time>2010-01-01T01:26:18Z</time>
      </trkpt>
      <trkpt lat="40.299843" lon="-7.141946">
        <ele>816.025</ele>
        <time>2010-01-01T01:26:30Z</time>
      </trkpt>
      <trkpt lat="40.300164" lon="-7.141897">
        <ele>820.048</ele>
        <time>2010-01-01T01:26:42Z</time>
      </trkpt>
      <trkpt lat="40.300454" lon="-7.141866">
        <ele>824.051</ele>
        <time>2010-01-01T01:26:54Z</time>
      </trkpt>
      <trkpt lat="40.300586" lon="-7.141958">
        <ele>826.029</ele>
        <time>2010-01-01T01:27:00Z</time>
      </trkpt>
      <trkpt lat="40.300665" lon="-7.142244">
        <ele>827.026</ele>
        <time>2010-01-01T01:27:09Z</time>
      </trkpt>
      <trkpt lat="40.300733" lon="-7.142455">
        <ele>827.015</ele>
        <time>2010-01-01T01:27:16Z</time>
      </trkpt>
      <trkpt lat="40.300936" lon="-7.142419">
        <ele>830.077</ele>
        <time>2010-01-01T01:27:25Z</time>
      </trkpt>
      <trkpt lat="40.301137" lon="-7.142147">
        <ele>833.037</ele>
        <time>2010-01-01T01:27:36Z</time>
      </trkpt>
      <trkpt lat="40.302065" lon="-7.141248">
        <ele>839.037</ele>
        <time>2010-01-01T01:28:22Z</time>
      </trkpt>
      <trkpt lat="40.302409" lon="-7.141063">
        <ele>839.049</ele>
        <time>2010-01-01T01:28:37Z</time>
      </trkpt>
      <trkpt lat="40.302737" lon="-7.141055">
        <ele>835.013</ele>
        <time>2010-01-01T01:28:50Z</time>
      </trkpt>
      <trkpt lat="40.302927" lon="-7.140861">
        <ele>835.008</ele>
        <time>2010-01-01T01:29:00Z</time>
      </trkpt>
      <trkpt lat="40.303232" lon="-7.140471">
        <ele>834.076</ele>
        <time>2010-01-01T01:29:17Z</time>
      </trkpt>
      <trkpt lat="40.303451" lon="-7.140215">
        <ele>834.079</ele>
        <time>2010-01-01T01:29:29Z</time>
      </trkpt>
      <trkpt lat="40.303639" lon="-7.140000">
        <ele>834.012</ele>
        <time>2010-01-01T01:29:39Z</time>
      </trkpt>
      <trkpt lat="40.303812" lon="-7.139824">
        <ele>834.070</ele>
        <time>2010-01-01T01:29:48Z</time>
      </trkpt>
      <trkpt lat="40.303909" lon="-7.139709">
        <ele>834.087</ele>
        <time>2010-01-01T01:29:53Z</time>
      </trkpt>
      <trkpt lat="40.303998" lon="-7.139614">
        <ele>835.016</ele>
        <time>2010-01-01T01:29:57Z</time>
      </trkpt>
      <trkpt lat="40.304103" lon="-7.139517">
        <ele>835.078</ele>
        <time>2010-01-01T01:30:03Z</time>
      </trkpt>
      <trkpt lat="40.304309" lon="-7.139620">
        <ele>834.028</ele>
        <time>2010-01-01T01:30:11Z</time>
      </trkpt>
      <trkpt lat="40.305390" lon="-7.140195">
        <ele>845.075</ele>
        <time>2010-01-01T01:30:58Z</time>
      </trkpt>
      <trkpt lat="40.305629" lon="-7.140240">
        <ele>848.028</ele>
        <time>2010-01-01T01:31:08Z</time>
      </trkpt>
      <trkpt lat="40.305948" lon="-7.140096">
        <ele>854.020</ele>
        <time>2010-01-01T01:31:21Z</time>
      </trkpt>
      <trkpt lat="40.306187" lon="-7.140147">
        <ele>858.008</ele>
        <time>2010-01-01T01:31:31Z</time>
      </trkpt>
      <trkpt lat="40.306392" lon="-7.140162">
        <ele>861.060</ele>
        <time>2010-01-01T01:31:39Z</time>
      </trkpt>
      <trkpt lat="40.306687" lon="-7.140104">
        <ele>863.033</ele>
        <time>2010-01-01T01:31:51Z</time>
      </trkpt>
      <trkpt lat="40.306866" lon="-7.139911">
        <ele>864.096</ele>
        <time>2010-01-01T01:32:00Z</time>
      </trkpt>
      <trkpt lat="40.307233" lon="-7.139347">
        <ele>868.074</ele>
        <time>2010-01-01T01:32:23Z</time>
      </trkpt>
      <trkpt lat="40.307595" lon="-7.139244">
        <ele>869.071</ele>
        <time>2010-01-01T01:32:38Z</time>
      </trkpt>
      <trkpt lat="40.307972" lon="-7.139184">
        <ele>871.020</ele>
        <time>2010-01-01T01:32:53Z</time>
      </trkpt>
      <trkpt lat="40.308249" lon="-7.139060">
        <ele>874.092</ele>
        <time>2010-01-01T01:33:05Z</time>
      </trkpt>
      <trkpt lat="40.308613" lon="-7.138659">
        <ele>879.072</ele>
        <time>2010-01-01T01:33:24Z</time>
      </trkpt>
      <trkpt lat="40.308930" lon="-7.138503">
        <ele>886.077</ele>
        <time>2010-01-01T01:33:37Z</time>
      </trkpt>
      <trkpt lat="40.309064" lon="-7.138382">
        <ele>888.061</ele>
        <time>2010-01-01T01:33:44Z</time>
      </trkpt>
      <trkpt lat="40.309385" lon="-7.138178">
        <ele>890.027</ele>
        <time>2010-01-01T01:33:58Z</time>
      </trkpt>
      <trkpt lat="40.309579" lon="-7.138143">
        <ele>891.008</ele>
        <time>2010-01-01T01:34:06Z</time>
      </trkpt>
      <trkpt lat="40.310606" lon="-7.138584">
        <ele>900.020</ele>
        <time>2010-01-01T01:34:49Z</time>
      </trkpt>
      <trkpt lat="40.311117" lon="-7.138546">
        <ele>902.013</ele>
        <time>2010-01-01T01:35:10Z</time>
      </trkpt>
      <trkpt lat="40.311382" lon="-7.138614">
        <ele>903.086</ele>
        <time>2010-01-01T01:35:20Z</time>
      </trkpt>
      <trkpt lat="40.311409" lon="-7.138636">
        <ele>903.044</ele>
        <time>2010-01-01T01:35:22Z</time>
      </trkpt>
      <trkpt lat="40.311709" lon="-7.138731">
        <ele>904.081</ele>
        <time>2010-01-01T01:35:34Z</time>
      </trkpt>
      <trkpt lat="40.311715" lon="-7.138731">
        <ele>904.060</ele>
        <time>2010-01-01T01:35:34Z</time>
      </trkpt>
      <trkpt lat="40.312245" lon="-7.139018">
        <ele>904.082</ele>
        <time>2010-01-01T01:35:57Z</time>
      </trkpt>
      <trkpt lat="40.312320" lon="-7.139022">
        <ele>904.052</ele>
        <time>2010-01-01T01:36:00Z</time>
      </trkpt>
      <trkpt lat="40.312550" lon="-7.138130">
        <ele>901.085</ele>
        <time>2010-01-01T01:36:29Z</time>
      </trkpt>
      <trkpt lat="40.312662" lon="-7.137730">
        <ele>901.089</ele>
        <time>2010-01-01T01:36:42Z</time>
      </trkpt>
      <trkpt lat="40.312818" lon="-7.136719">
        <ele>898.017</ele>
        <time>2010-01-01T01:37:14Z</time>
      </trkpt>
      <trkpt lat="40.312770" lon="-7.136072">
        <ele>897.008</ele>
        <time>2010-01-01T01:37:33Z</time>
      </trkpt>
      <trkpt lat="40.312720" lon="-7.135760">
        <ele>897.071</ele>
        <time>2010-01-01T01:37:43Z</time>
      </trkpt>
      <trkpt lat="40.313405" lon="-7.135080">
        <ele>898.074</ele>
        <time>2010-01-01T01:38:18Z</time>
      </trkpt>
      <trkpt lat="40.313852" lon="-7.134648">
        <ele>897.087</ele>
        <time>2010-01-01T01:38:40Z</time>
      </trkpt>
      <trkpt lat="40.314142" lon="-7.134468">
        <ele>897.095</ele>
        <time>2010-01-01T01:38:53Z</time>
      </trkpt>
      <trkpt lat="40.314473" lon="-7.134317">
        <ele>897.022</ele>
        <time>2010-01-01T01:39:07Z</time>
      </trkpt>
      <trkpt lat="40.314687" lon="-7.134398">
        <ele>896.071</ele>
        <time>2010-01-01T01:39:16Z</time>
      </trkpt>
      <trkpt lat="40.314812" lon="-7.134302">
        <ele>895.023</ele>
        <time>2010-01-01T01:39:21Z</time>
      </trkpt>
      <trkpt lat="40.314874" lon="-7.134169">
        <ele>894.063</ele>
        <time>2010-01-01T01:39:26Z</time>
      </trkpt>
      <trkpt lat="40.315218" lon="-7.133948">
        <ele>889.076</ele>
        <time>2010-01-01T01:39:41Z</time>
      </trkpt>
      <trkpt lat="40.315496" lon="-7.133770">
        <ele>887.090</ele>
        <time>2010-01-01T01:39:54Z</time>
      </trkpt>
      <trkpt lat="40.315628" lon="-7.133455">
        <ele>886.019</ele>
        <time>2010-01-01T01:40:05Z</time>
      </trkpt>
      <trkpt lat="40.316064" lon="-7.132584">
        <ele>889.008</ele>
        <time>2010-01-01T01:40:37Z</time>
      </trkpt>
      <trkpt lat="40.316303" lon="-7.131819">
        <ele>889.090</ele>
        <time>2010-01-01T01:41:02Z</time>
      </trkpt>
      <trkpt lat="40.316805" lon="-7.131634">
        <ele>888.053</ele>
        <time>2010-01-01T01:41:23Z</time>
      </trkpt>
      <trkpt lat="40.318359" lon="-7.131599">
        <ele>885.086</ele>
        <time>2010-01-01T01:42:25Z</time>
      </trkpt>
      <trkpt lat="40.318856" lon="-7.131569">
        <ele>886.044</ele>
        <time>2010-01-01T01:42:45Z</time>
      </trkpt>
      <trkpt lat="40.319463" lon="-7.131404">
        <ele>885.021</ele>
        <time>2010-01-01T01:43:10Z</time>
      </trkpt>
      <trkpt lat="40.319780" lon="-7.130945">
        <ele>881.020</ele>
        <time>2010-01-01T01:43:29Z</time>
      </trkpt>
      <trkpt lat="40.320211" lon="-7.130407">
        <ele>880.042</ele>
        <time>2010-01-01T01:43:52Z</time>
      </trkpt>
      <trkpt lat="40.320572" lon="-7.130099">
        <ele>881.082</ele>
        <time>2010-01-01T01:44:10Z</time>
      </trkpt>
      <trkpt lat="40.320973" lon="-7.130085">
        <ele>878.099</ele>
        <time>2010-01-01T01:44:26Z</time>
      </trkpt>
      <trkpt lat="40.321319" lon="-7.130310">
        <ele>874.007</ele>
        <time>2010-01-01T01:44:41Z</time>
      </trkpt>
      <trkpt lat="40.321503" lon="-7.130459">
        <ele>872.027</ele>
        <time>2010-01-01T01:44:50Z</time>
      </trkpt>
      <trkpt lat="40.321647" lon="-7.129754">
        <ele>874.008</ele>
        <time>2010-01-01T01:45:12Z</time>
      </trkpt>
      <trkpt lat="40.321837" lon="-7.128744">
        <ele>875.082</ele>
        <time>2010-01-01T01:45:44Z</time>
      </trkpt>
      <trkpt lat="40.322141" lon="-7.128185">
        <ele>878.065</ele>
        <time>2010-01-01T01:46:05Z</time>
      </trkpt>
      <trkpt lat="40.322277" lon="-7.127757">
        <ele>880.028</ele>
        <time>2010-01-01T01:46:19Z</time>
      </trkpt>
      <trkpt lat="40.322553" lon="-7.127581">
        <ele>879.026</ele>
        <time>2010-01-01T01:46:31Z</time>
      </trkpt>
      <trkpt lat="40.322786" lon="-7.127487">
        <ele>877.013</ele>
        <time>2010-01-01T01:46:41Z</time>
      </trkpt>
      <trkpt lat="40.323134" lon="-7.127490">
        <ele>874.062</ele>
        <time>2010-01-01T01:46:55Z</time>
      </trkpt>
      <trkpt lat="40.323655" lon="-7.127267">
        <ele>873.044</ele>
        <time>2010-01-01T01:47:17Z</time>
      </trkpt>
      <trkpt lat="40.323881" lon="-7.127096">
        <ele>871.084</ele>
        <time>2010-01-01T01:47:27Z</time>
      </trkpt>
      <trkpt lat="40.324070" lon="-7.126979">
        <ele>869.045</ele>
        <time>2010-01-01T01:47:36Z</time>
      </trkpt>
      <trkpt lat="40.324323" lon="-7.126593">
        <ele>867.047</ele>
        <time>2010-01-01T01:47:51Z</time>
      </trkpt>
      <trkpt lat="40.324442" lon="-7.126363">
        <ele>867.011</ele>
        <time>2010-01-01T01:48:00Z</time>
      </trkpt>
      <trkpt lat="40.324500" lon="-7.126174">
        <ele>867.008</ele>
        <time>2010-01-01T01:48:06Z</time>
      </trkpt>
      <trkpt lat="40.324694" lon="-7.126301">
        <ele>865.057</ele>
        <time>2010-01-01T01:48:15Z</time>
      </trkpt>
      <trkpt lat="40.325148" lon="-7.126036">
        <ele>864.040</ele>
        <time>2010-01-01T01:48:35Z</time>
      </trkpt>
      <trkpt lat="40.325515" lon="-7.126267">
        <ele>863.033</ele>
        <time>2010-01-01T01:48:51Z</time>
      </trkpt>
      <trkpt lat="40.325673" lon="-7.126482">
        <ele>862.011</ele>
        <time>2010-01-01T01:49:00Z</time>
      </trkpt>
      <trkpt lat="40.326124" lon="-7.126706">
        <ele>860.098</ele>
        <time>2010-01-01T01:49:19Z</time>
      </trkpt>
      <trkpt lat="40.326584" lon="-7.127008">
        <ele>860.037</ele>
        <time>2010-01-01T01:49:40Z</time>
      </trkpt>
      <trkpt lat="40.326932" lon="-7.127266">
        <ele>858.069</ele>
        <time>2010-01-01T01:49:56Z</time>
      </trkpt>
      <trkpt lat="40.327099" lon="-7.127522">
        <ele>856.089</ele>
        <time>2010-01-01T01:50:06Z</time>
      </trkpt>
      <trkpt lat="40.327761" lon="-7.127900">
        <ele>850.025</ele>
        <time>2010-01-01T01:50:35Z</time>
      </trkpt>
      <trkpt lat="40.328347" lon="-7.128032">
        <ele>846.026</ele>
        <time>2010-01-01T01:50:59Z</time>
      </trkpt>
      <trkpt lat="40.328573" lon="-7.128117">
        <ele>844.008</ele>
        <time>2010-01-01T01:51:08Z</time>
      </trkpt>
      <trkpt lat="40.329015" lon="-7.128048">
        <ele>843.008</ele>
        <time>2010-01-01T01:51:26Z</time>
      </trkpt>
      <trkpt lat="40.329610" lon="-7.128401">
        <ele>838.085</ele>
        <time>2010-01-01T01:51:52Z</time>
      </trkpt>
      <trkpt lat="40.329933" lon="-7.128644">
        <ele>835.058</ele>
        <time>2010-01-01T01:52:07Z</time>
      </trkpt>
      <trkpt lat="40.330257" lon="-7.128787">
        <ele>831.071</ele>
        <time>2010-01-01T01:52:21Z</time>
      </trkpt>
      <trkpt lat="40.330440" lon="-7.129041">
        <ele>829.059</ele>
        <time>2010-01-01T01:52:31Z</time>
      </trkpt>
      <trkpt lat="40.330638" lon="-7.129177">
        <ele>828.066</ele>
        <time>2010-01-01T01:52:40Z</time>
      </trkpt>
      <trkpt lat="40.331529" lon="-7.129484">
        <ele>829.065</ele>
        <time>2010-01-01T01:53:17Z</time>
      </trkpt>
      <trkpt lat="40.331989" lon="-7.129527">
        <ele>831.017</ele>
        <time>2010-01-01T01:53:36Z</time>
      </trkpt>
      <trkpt lat="40.332141" lon="-7.129701">
        <ele>831.087</ele>
        <time>2010-01-01T01:53:44Z</time>
      </trkpt>
      <trkpt lat="40.332594" lon="-7.130697">
        <ele>834.026</ele>
        <time>2010-01-01T01:54:19Z</time>
      </trkpt>
      <trkpt lat="40.332922" lon="-7.131230">
        <ele>834.047</ele>
        <time>2010-01-01T01:54:40Z</time>
      </trkpt>
      <trkpt lat="40.333730" lon="-7.131889">
        <ele>834.011</ele>
        <time>2010-01-01T01:55:18Z</time>
      </trkpt>
      <trkpt lat="40.333734" lon="-7.132063">
        <ele>835.008</ele>
        <time>2010-01-01T01:55:23Z</time>
      </trkpt>
      <trkpt lat="40.334571" lon="-7.131917">
        <ele>829.065</ele>
        <time>2010-01-01T01:55:57Z</time>
      </trkpt>
      <trkpt lat="40.334748" lon="-7.131981">
        <ele>828.038</ele>
        <time>2010-01-01T01:56:05Z</time>
      </trkpt>
      <trkpt lat="40.334917" lon="-7.132080">
        <ele>828.051</ele>
        <time>2010-01-01T01:56:12Z</time>
      </trkpt>
      <trkpt lat="40.335070" lon="-7.132123">
        <ele>828.029</ele>
        <time>2010-01-01T01:56:18Z</time>
      </trkpt>
      <trkpt lat="40.335445" lon="-7.132078">
        <ele>828.026</ele>
        <time>2010-01-01T01:56:33Z</time>
      </trkpt>
      <trkpt lat="40.335602" lon="-7.132118">
        <ele>827.035</ele>
        <time>2010-01-01T01:56:40Z</time>
      </trkpt>
      <trkpt lat="40.335848" lon="-7.132302">
        <ele>826.047</ele>
        <time>2010-01-01T01:56:51Z</time>
      </trkpt>
      <trkpt lat="40.336086" lon="-7.132526">
        <ele>825.087</ele>
        <time>2010-01-01T01:57:03Z</time>
      </trkpt>
      <trkpt lat="40.336529" lon="-7.132468">
        <ele>821.032</ele>
        <time>2010-01-01T01:57:21Z</time>
      </trkpt>
      <trkpt lat="40.336630" lon="-7.132480">
        <ele>820.092</ele>
        <time>2010-01-01T01:57:25Z</time>
      </trkpt>
      <trkpt lat="40.336929" lon="-7.132586">
        <ele>820.011</ele>
        <time>2010-01-01T01:57:37Z</time>
      </trkpt>
      <trkpt lat="40.337611" lon="-7.132236">
        <ele>820.008</ele>
        <time>2010-01-01T01:58:06Z</time>
      </trkpt>
      <trkpt lat="40.337750" lon="-7.132740">
        <ele>819.056</ele>
        <time>2010-01-01T01:58:23Z</time>
      </trkpt>
      <trkpt lat="40.337683" lon="-7.133167">
        <ele>817.059</ele>
        <time>2010-01-01T01:58:36Z</time>
      </trkpt>
      <trkpt lat="40.337765" lon="-7.133607">
        <ele>817.032</ele>
        <time>2010-01-01T01:58:50Z</time>
      </trkpt>
      <trkpt lat="40.338076" lon="-7.133961">
        <ele>816.070</ele>
        <time>2010-01-01T01:59:06Z</time>
      </trkpt>
      <trkpt lat="40.338527" lon="-7.134099">
        <ele>815.017</ele>
        <time>2010-01-01T01:59:25Z</time>
      </trkpt>
      <trkpt lat="40.338939" lon="-7.134244">
        <ele>816.096</ele>
        <time>2010-01-01T01:59:42Z</time>
      </trkpt>
      <trkpt lat="40.339154" lon="-7.134543">
        <ele>817.088</ele>
        <time>2010-01-01T01:59:55Z</time>
      </trkpt>
      <trkpt lat="40.339365" lon="-7.134915">
        <ele>819.068</ele>
        <time>2010-01-01T02:00:09Z</time>
      </trkpt>
      <trkpt lat="40.340363" lon="-7.135154">
        <ele>819.066</ele>
        <time>2010-01-01T02:00:49Z</time>
      </trkpt>
      <trkpt lat="40.340391" lon="-7.136059">
        <ele>821.029</ele>
        <time>2010-01-01T02:01:17Z</time>
      </trkpt>
      <trkpt lat="40.340673" lon="-7.136126">
        <ele>819.021</ele>
        <time>2010-01-01T02:01:28Z</time>
      </trkpt>
      <trkpt lat="40.340829" lon="-7.135840">
        <ele>818.008</ele>
        <time>2010-01-01T02:01:39Z</time>
      </trkpt>
      <trkpt lat="40.340974" lon="-7.135447">
        <ele>818.069</ele>
        <time>2010-01-01T02:01:53Z</time>
      </trkpt>
      <trkpt lat="40.342300" lon="-7.133318">
        <ele>816.092</ele>
        <time>2010-01-01T01:13:56Z</time>
      </trkpt>
      <trkpt lat="40.342903" lon="-7.134988">
        <ele>813.065</ele>
        <time>2010-01-01T01:12:59Z</time>
      </trkpt>
      <trkpt lat="40.342951" lon="-7.135230">
        <ele>812.023</ele>
        <time>2010-01-01T01:12:52Z</time>
      </trkpt>
      <trkpt lat="40.342965" lon="-7.135615">
        <ele>812.080</ele>
        <time>2010-01-01T01:12:40Z</time>
      </trkpt>
      <trkpt lat="40.343270" lon="-7.135939">
        <ele>808.029</ele>
        <time>2010-01-01T01:12:24Z</time>
      </trkpt>
      <trkpt lat="40.343523" lon="-7.136043">
        <ele>805.021</ele>
        <time>2010-01-01T01:12:13Z</time>
      </trkpt>
      <trkpt lat="40.343792" lon="-7.136263">
        <ele>803.051</ele>
        <time>2010-01-01T01:12:01Z</time>
      </trkpt>
      <trkpt lat="40.343851" lon="-7.136444">
        <ele>802.051</ele>
        <time>2010-01-01T01:11:55Z</time>
      </trkpt>
      <trkpt lat="40.343914" lon="-7.137114">
        <ele>798.001</ele>
        <time>2010-01-01T01:11:34Z</time>
      </trkpt>
      <trkpt lat="40.343973" lon="-7.137431">
        <ele>795.011</ele>
        <time>2010-01-01T01:11:24Z</time>
      </trkpt>
      <trkpt lat="40.344276" lon="-7.137987">
        <ele>787.008</ele>
        <time>2010-01-01T01:11:03Z</time>
      </trkpt>
      <trkpt lat="40.344405" lon="-7.138327">
        <ele>782.018</ele>
        <time>2010-01-01T01:10:52Z</time>
      </trkpt>
      <trkpt lat="40.344612" lon="-7.138549">
        <ele>781.071</ele>
        <time>2010-01-01T01:10:41Z</time>
      </trkpt>
      <trkpt lat="40.345026" lon="-7.138907">
        <ele>777.044</ele>
        <time>2010-01-01T01:10:21Z</time>
      </trkpt>
      <trkpt lat="40.345097" lon="-7.139279">
        <ele>775.032</ele>
        <time>2010-01-01T01:10:10Z</time>
      </trkpt>
      <trkpt lat="40.345377" lon="-7.139694">
        <ele>772.069</ele>
        <time>2010-01-01T01:09:53Z</time>
      </trkpt>
      <trkpt lat="40.345801" lon="-7.140141">
        <ele>768.048</ele>
        <time>2010-01-01T01:09:31Z</time>
      </trkpt>
      <trkpt lat="40.346384" lon="-7.140537">
        <ele>764.030</ele>
        <time>2010-01-01T01:09:05Z</time>
      </trkpt>
      <trkpt lat="40.346547" lon="-7.141348">
        <ele>760.030</ele>
        <time>2010-01-01T01:08:39Z</time>
      </trkpt>
      <trkpt lat="40.346708" lon="-7.141861">
        <ele>759.068</ele>
        <time>2010-01-01T01:08:22Z</time>
      </trkpt>
      <trkpt lat="40.346774" lon="-7.142399">
        <ele>760.042</ele>
        <time>2010-01-01T01:08:05Z</time>
      </trkpt>
      <trkpt lat="40.347046" lon="-7.142848">
        <ele>760.026</ele>
        <time>2010-01-01T01:07:48Z</time>
      </trkpt>
      <trkpt lat="40.347280" lon="-7.143210">
        <ele>762.008</ele>
        <time>2010-01-01T01:07:33Z</time>
      </trkpt>
      <trkpt lat="40.347754" lon="-7.143687">
        <ele>766.089</ele>
        <time>2010-01-01T01:07:10Z</time>
      </trkpt>
      <trkpt lat="40.347988" lon="-7.144347">
        <ele>765.012</ele>
        <time>2010-01-01T01:06:47Z</time>
      </trkpt>
      <trkpt lat="40.348169" lon="-7.144517">
        <ele>767.035</ele>
        <time>2010-01-01T01:06:38Z</time>
      </trkpt>
      <trkpt lat="40.348294" lon="-7.144740">
        <ele>769.093</ele>
        <time>2010-01-01T01:06:30Z</time>
      </trkpt>
      <trkpt lat="40.348503" lon="-7.145289">
        <ele>770.060</ele>
        <time>2010-01-01T01:06:11Z</time>
      </trkpt>
      <trkpt lat="40.348783" lon="-7.145593">
        <ele>772.039</ele>
        <time>2010-01-01T01:05:57Z</time>
      </trkpt>
      <trkpt lat="40.349598" lon="-7.146072">
        <ele>777.051</ele>
        <time>2010-01-01T01:05:21Z</time>
      </trkpt>
      <trkpt lat="40.349637" lon="-7.146178">
        <ele>777.091</ele>
        <time>2010-01-01T01:05:17Z</time>
      </trkpt>
      <trkpt lat="40.349684" lon="-7.146654">
        <ele>777.032</ele>
        <time>2010-01-01T01:05:03Z</time>
      </trkpt>
      <trkpt lat="40.349812" lon="-7.147441">
        <ele>773.092</ele>
        <time>2010-01-01T01:04:38Z</time>
      </trkpt>
      <trkpt lat="40.349734" lon="-7.148416">
        <ele>771.011</ele>
        <time>2010-01-01T01:04:08Z</time>
      </trkpt>
      <trkpt lat="40.348436" lon="-7.148488">
        <ele>774.008</ele>
        <time>2010-01-01T01:03:16Z</time>
      </trkpt>
      <trkpt lat="40.347494" lon="-7.148448">
        <ele>779.016</ele>
        <time>2010-01-01T01:02:39Z</time>
      </trkpt>
      <trkpt lat="40.347350" lon="-7.148304">
        <ele>778.099</ele>
        <time>2010-01-01T01:02:31Z</time>
      </trkpt>
      <trkpt lat="40.346922" lon="-7.148294">
        <ele>779.052</ele>
        <time>2010-01-01T01:02:14Z</time>
      </trkpt>
      <trkpt lat="40.345684" lon="-7.149213">
        <ele>786.030</ele>
        <time>2010-01-01T01:01:17Z</time>
      </trkpt>
      <trkpt lat="40.344448" lon="-7.150009">
        <ele>788.087</ele>
        <time>2010-01-01T01:00:22Z</time>
      </trkpt>
      <trkpt lat="40.343466" lon="-7.150772">
        <ele>792.086</ele>
        <time>2010-01-01T00:59:36Z</time>
      </trkpt>
      <trkpt lat="40.343185" lon="-7.150966">
        <ele>791.038</ele>
        <time>2010-01-01T00:59:24Z</time>
      </trkpt>
      <trkpt lat="40.342736" lon="-7.150604">
        <ele>791.098</ele>
        <time>2010-01-01T00:59:03Z</time>
      </trkpt>
      <trkpt lat="40.342211" lon="-7.151103">
        <ele>790.057</ele>
        <time>2010-01-01T00:58:37Z</time>
      </trkpt>
      <trkpt lat="40.341949" lon="-7.151397">
        <ele>791.000</ele>
        <time>2010-01-01T00:58:23Z</time>
      </trkpt>
      <trkpt lat="40.341303" lon="-7.151801">
        <ele>786.020</ele>
        <time>2010-01-01T00:57:54Z</time>
      </trkpt>
      <trkpt lat="40.341046" lon="-7.152338">
        <ele>785.008</ele>
        <time>2010-01-01T00:57:35Z</time>
      </trkpt>
      <trkpt lat="40.340826" lon="-7.152839">
        <ele>783.038</ele>
        <time>2010-01-01T00:57:17Z</time>
      </trkpt>
      <trkpt lat="40.339720" lon="-7.154067">
        <ele>779.011</ele>
        <time>2010-01-01T00:56:19Z</time>
      </trkpt>
      <trkpt lat="40.339651" lon="-7.154370">
        <ele>777.074</ele>
        <time>2010-01-01T00:56:10Z</time>
      </trkpt>
      <trkpt lat="40.339384" lon="-7.154819">
        <ele>773.062</ele>
        <time>2010-01-01T00:55:52Z</time>
      </trkpt>
      <trkpt lat="40.339228" lon="-7.155381">
        <ele>770.089</ele>
        <time>2010-01-01T00:55:34Z</time>
      </trkpt>
      <trkpt lat="40.339166" lon="-7.156318">
        <ele>768.088</ele>
        <time>2010-01-01T00:55:05Z</time>
      </trkpt>
      <trkpt lat="40.339127" lon="-7.156722">
        <ele>765.010</ele>
        <time>2010-01-01T00:54:53Z</time>
      </trkpt>
      <trkpt lat="40.339051" lon="-7.157046">
        <ele>765.070</ele>
        <time>2010-01-01T00:54:42Z</time>
      </trkpt>
      <trkpt lat="40.338751" lon="-7.157134">
        <ele>764.053</ele>
        <time>2010-01-01T00:54:30Z</time>
      </trkpt>
      <trkpt lat="40.338556" lon="-7.157266">
        <ele>762.004</ele>
        <time>2010-01-01T00:54:21Z</time>
      </trkpt>
      <trkpt lat="40.338285" lon="-7.157475">
        <ele>759.014</ele>
        <time>2010-01-01T00:54:09Z</time>
      </trkpt>
      <trkpt lat="40.337418" lon="-7.157645">
        <ele>756.008</ele>
        <time>2010-01-01T00:53:34Z</time>
      </trkpt>
      <trkpt lat="40.336784" lon="-7.157769">
        <ele>751.088</ele>
        <time>2010-01-01T00:53:08Z</time>
      </trkpt>
      <trkpt lat="40.336639" lon="-7.158051">
        <ele>750.091</ele>
        <time>2010-01-01T00:52:58Z</time>
      </trkpt>
      <trkpt lat="40.336409" lon="-7.158333">
        <ele>750.044</ele>
        <time>2010-01-01T00:52:45Z</time>
      </trkpt>
      <trkpt lat="40.336020" lon="-7.158450">
        <ele>747.012</ele>
        <time>2010-01-01T00:52:29Z</time>
      </trkpt>
      <trkpt lat="40.335776" lon="-7.158255">
        <ele>744.099</ele>
        <time>2010-01-01T00:52:18Z</time>
      </trkpt>
      <trkpt lat="40.335447" lon="-7.158108">
        <ele>743.068</ele>
        <time>2010-01-01T00:52:04Z</time>
      </trkpt>
      <trkpt lat="40.335046" lon="-7.158300">
        <ele>743.040</ele>
        <time>2010-01-01T00:51:47Z</time>
      </trkpt>
      <trkpt lat="40.334629" lon="-7.158315">
        <ele>743.050</ele>
        <time>2010-01-01T00:51:30Z</time>
      </trkpt>
      <trkpt lat="40.334127" lon="-7.158623">
        <ele>742.021</ele>
        <time>2010-01-01T00:51:08Z</time>
      </trkpt>
      <trkpt lat="40.333840" lon="-7.159029">
        <ele>742.041</ele>
        <time>2010-01-01T00:50:51Z</time>
      </trkpt>
      <trkpt lat="40.333858" lon="-7.159370">
        <ele>738.005</ele>
        <time>2010-01-01T00:50:40Z</time>
      </trkpt>
      <trkpt lat="40.333674" lon="-7.159799">
        <ele>735.008</ele>
        <time>2010-01-01T00:50:25Z</time>
      </trkpt>
      <trkpt lat="40.333511" lon="-7.159896">
        <ele>735.095</ele>
        <time>2010-01-01T00:50:18Z</time>
      </trkpt>
      <trkpt lat="40.333076" lon="-7.159864">
        <ele>738.028</ele>
        <time>2010-01-01T00:50:01Z</time>
      </trkpt>
      <trkpt lat="40.332810" lon="-7.159978">
        <ele>734.091</ele>
        <time>2010-01-01T00:49:50Z</time>
      </trkpt>
      <trkpt lat="40.332405" lon="-7.160316">
        <ele>730.069</ele>
        <time>2010-01-01T00:49:30Z</time>
      </trkpt>
      <trkpt lat="40.332201" lon="-7.160576">
        <ele>731.016</ele>
        <time>2010-01-01T00:49:19Z</time>
      </trkpt>
      <trkpt lat="40.331840" lon="-7.161244">
        <ele>731.055</ele>
        <time>2010-01-01T00:48:54Z</time>
      </trkpt>
      <trkpt lat="40.331427" lon="-7.161716">
        <ele>730.057</ele>
        <time>2010-01-01T00:48:32Z</time>
      </trkpt>
      <trkpt lat="40.331326" lon="-7.161946">
        <ele>729.027</ele>
        <time>2010-01-01T00:48:24Z</time>
      </trkpt>
      <trkpt lat="40.331169" lon="-7.162219">
        <ele>724.028</ele>
        <time>2010-01-01T00:48:14Z</time>
      </trkpt>
      <trkpt lat="40.330743" lon="-7.162310">
        <ele>719.089</ele>
        <time>2010-01-01T00:47:56Z</time>
      </trkpt>
      <trkpt lat="40.330337" lon="-7.162877">
        <ele>714.017</ele>
        <time>2010-01-01T00:47:32Z</time>
      </trkpt>
      <trkpt lat="40.329753" lon="-7.162988">
        <ele>712.008</ele>
        <time>2010-01-01T00:47:09Z</time>
      </trkpt>
      <trkpt lat="40.329489" lon="-7.162884">
        <ele>714.015</ele>
        <time>2010-01-01T00:46:58Z</time>
      </trkpt>
      <trkpt lat="40.329072" lon="-7.162995">
        <ele>712.098</ele>
        <time>2010-01-01T00:46:41Z</time>
      </trkpt>
      <trkpt lat="40.328579" lon="-7.163163">
        <ele>708.081</ele>
        <time>2010-01-01T00:46:20Z</time>
      </trkpt>
      <trkpt lat="40.328221" lon="-7.163220">
        <ele>710.099</ele>
        <time>2010-01-01T00:46:06Z</time>
      </trkpt>
      <trkpt lat="40.327821" lon="-7.163424">
        <ele>710.046</ele>
        <time>2010-01-01T00:45:49Z</time>
      </trkpt>
      <trkpt lat="40.327484" lon="-7.163585">
        <ele>708.075</ele>
        <time>2010-01-01T00:45:34Z</time>
      </trkpt>
      <trkpt lat="40.327264" lon="-7.163452">
        <ele>709.027</ele>
        <time>2010-01-01T00:45:25Z</time>
      </trkpt>
      <trkpt lat="40.326882" lon="-7.163443">
        <ele>709.047</ele>
        <time>2010-01-01T00:45:09Z</time>
      </trkpt>
      <trkpt lat="40.326512" lon="-7.163223">
        <ele>714.054</ele>
        <time>2010-01-01T00:44:53Z</time>
      </trkpt>
      <trkpt lat="40.325766" lon="-7.163070">
        <ele>715.056</ele>
        <time>2010-01-01T00:44:23Z</time>
      </trkpt>
      <trkpt lat="40.325551" lon="-7.163370">
        <ele>709.011</ele>
        <time>2010-01-01T00:44:10Z</time>
      </trkpt>
      <trkpt lat="40.325206" lon="-7.163880">
        <ele>708.008</ele>
        <time>2010-01-01T00:43:50Z</time>
      </trkpt>
      <trkpt lat="40.324946" lon="-7.164113">
        <ele>709.078</ele>
        <time>2010-01-01T00:43:37Z</time>
      </trkpt>
      <trkpt lat="40.324476" lon="-7.164600">
        <ele>712.041</ele>
        <time>2010-01-01T00:43:13Z</time>
      </trkpt>
      <trkpt lat="40.324048" lon="-7.164937">
        <ele>711.094</ele>
        <time>2010-01-01T00:42:53Z</time>
      </trkpt>
      <trkpt lat="40.323534" lon="-7.165159">
        <ele>709.042</ele>
        <time>2010-01-01T00:42:31Z</time>
      </trkpt>
      <trkpt lat="40.322886" lon="-7.165365">
        <ele>705.039</ele>
        <time>2010-01-01T00:42:05Z</time>
      </trkpt>
      <trkpt lat="40.322553" lon="-7.165538">
        <ele>703.058</ele>
        <time>2010-01-01T00:41:50Z</time>
      </trkpt>
      <trkpt lat="40.322040" lon="-7.165568">
        <ele>699.040</ele>
        <time>2010-01-01T00:41:30Z</time>
      </trkpt>
      <trkpt lat="40.321818" lon="-7.165643">
        <ele>698.030</ele>
        <time>2010-01-01T00:41:21Z</time>
      </trkpt>
      <trkpt lat="40.321470" lon="-7.165982">
        <ele>694.015</ele>
        <time>2010-01-01T00:41:03Z</time>
      </trkpt>
      <trkpt lat="40.321230" lon="-7.166213">
        <ele>692.065</ele>
        <time>2010-01-01T00:40:51Z</time>
      </trkpt>
      <trkpt lat="40.320984" lon="-7.166515">
        <ele>690.011</ele>
        <time>2010-01-01T00:40:38Z</time>
      </trkpt>
      <trkpt lat="40.320721" lon="-7.166627">
        <ele>687.008</ele>
        <time>2010-01-01T00:40:27Z</time>
      </trkpt>
      <trkpt lat="40.320599" lon="-7.166961">
        <ele>685.024</ele>
        <time>2010-01-01T00:40:15Z</time>
      </trkpt>
      <trkpt lat="40.320550" lon="-7.167163">
        <ele>683.077</ele>
        <time>2010-01-01T00:40:09Z</time>
      </trkpt>
      <trkpt lat="40.320259" lon="-7.167474">
        <ele>682.090</ele>
        <time>2010-01-01T00:39:54Z</time>
      </trkpt>
      <trkpt lat="40.319863" lon="-7.167593">
        <ele>682.088</ele>
        <time>2010-01-01T00:39:38Z</time>
      </trkpt>
      <trkpt lat="40.319663" lon="-7.167671">
        <ele>686.095</ele>
        <time>2010-01-01T00:39:29Z</time>
      </trkpt>
      <trkpt lat="40.319416" lon="-7.167954">
        <ele>691.024</ele>
        <time>2010-01-01T00:39:16Z</time>
      </trkpt>
      <trkpt lat="40.319232" lon="-7.168239">
        <ele>693.076</ele>
        <time>2010-01-01T00:39:05Z</time>
      </trkpt>
      <trkpt lat="40.319082" lon="-7.168632">
        <ele>695.056</ele>
        <time>2010-01-01T00:38:51Z</time>
      </trkpt>
      <trkpt lat="40.318918" lon="-7.168988">
        <ele>697.066</ele>
        <time>2010-01-01T00:38:39Z</time>
      </trkpt>
      <trkpt lat="40.319240" lon="-7.169310">
        <ele>695.029</ele>
        <time>2010-01-01T00:38:22Z</time>
      </trkpt>
      <trkpt lat="40.319382" lon="-7.169781">
        <ele>696.021</ele>
        <time>2010-01-01T00:38:07Z</time>
      </trkpt>
      <trkpt lat="40.319201" lon="-7.170402">
        <ele>697.008</ele>
        <time>2010-01-01T00:37:47Z</time>
      </trkpt>
      <trkpt lat="40.319147" lon="-7.170728">
        <ele>695.029</ele>
        <time>2010-01-01T00:37:37Z</time>
      </trkpt>
      <trkpt lat="40.319128" lon="-7.171043">
        <ele>695.022</ele>
        <time>2010-01-01T00:37:27Z</time>
      </trkpt>
      <trkpt lat="40.319215" lon="-7.171425">
        <ele>694.035</ele>
        <time>2010-01-01T00:37:15Z</time>
      </trkpt>
      <trkpt lat="40.319346" lon="-7.171913">
        <ele>693.013</ele>
        <time>2010-01-01T00:36:59Z</time>
      </trkpt>
      <trkpt lat="40.319185" lon="-7.172693">
        <ele>690.020</ele>
        <time>2010-01-01T00:36:34Z</time>
      </trkpt>
      <trkpt lat="40.319007" lon="-7.172948">
        <ele>689.089</ele>
        <time>2010-01-01T00:36:24Z</time>
      </trkpt>
      <trkpt lat="40.319006" lon="-7.172964">
        <ele>689.061</ele>
        <time>2010-01-01T00:36:23Z</time>
      </trkpt>
      <trkpt lat="40.318863" lon="-7.173192">
        <ele>688.021</ele>
        <time>2010-01-01T00:36:14Z</time>
      </trkpt>
      <trkpt lat="40.318683" lon="-7.174266">
        <ele>683.053</ele>
        <time>2010-01-01T00:35:41Z</time>
      </trkpt>
      <trkpt lat="40.318537" lon="-7.174709">
        <ele>681.004</ele>
        <time>2010-01-01T00:35:26Z</time>
      </trkpt>
      <trkpt lat="40.318566" lon="-7.174974">
        <ele>680.014</ele>
        <time>2010-01-01T00:35:18Z</time>
      </trkpt>
      <trkpt lat="40.317934" lon="-7.176489">
        <ele>676.008</ele>
        <time>2010-01-01T00:34:25Z</time>
      </trkpt>
      <trkpt lat="40.317470" lon="-7.177218">
        <ele>678.098</ele>
        <time>2010-01-01T00:33:56Z</time>
      </trkpt>
      <trkpt lat="40.317457" lon="-7.177226">
        <ele>678.081</ele>
        <time>2010-01-01T00:33:55Z</time>
      </trkpt>
      <trkpt lat="40.316934" lon="-7.178040">
        <ele>674.054</ele>
        <time>2010-01-01T00:33:23Z</time>
      </trkpt>
      <trkpt lat="40.316759" lon="-7.178814">
        <ele>670.012</ele>
        <time>2010-01-01T00:32:58Z</time>
      </trkpt>
      <trkpt lat="40.316809" lon="-7.179069">
        <ele>670.049</ele>
        <time>2010-01-01T00:32:50Z</time>
      </trkpt>
      <trkpt lat="40.317056" lon="-7.179206">
        <ele>669.048</ele>
        <time>2010-01-01T00:32:40Z</time>
      </trkpt>
      <trkpt lat="40.317206" lon="-7.179072">
        <ele>667.030</ele>
        <time>2010-01-01T00:32:32Z</time>
      </trkpt>
      <trkpt lat="40.317510" lon="-7.178411">
        <ele>661.020</ele>
        <time>2010-01-01T00:32:09Z</time>
      </trkpt>
      <trkpt lat="40.317750" lon="-7.178077">
        <ele>661.047</ele>
        <time>2010-01-01T00:31:55Z</time>
      </trkpt>
      <trkpt lat="40.317971" lon="-7.178063">
        <ele>660.029</ele>
        <time>2010-01-01T00:31:46Z</time>
      </trkpt>
      <trkpt lat="40.318106" lon="-7.178209">
        <ele>660.021</ele>
        <time>2010-01-01T00:31:39Z</time>
      </trkpt>
      <trkpt lat="40.318256" lon="-7.178350">
        <ele>662.008</ele>
        <time>2010-01-01T00:31:32Z</time>
      </trkpt>
      <trkpt lat="40.318435" lon="-7.178379">
        <ele>664.057</ele>
        <time>2010-01-01T00:31:24Z</time>
      </trkpt>
      <trkpt lat="40.318681" lon="-7.178415">
        <ele>666.010</ele>
        <time>2010-01-01T00:31:14Z</time>
      </trkpt>
      <trkpt lat="40.318796" lon="-7.178607">
        <ele>667.093</ele>
        <time>2010-01-01T00:31:07Z</time>
      </trkpt>
      <trkpt lat="40.318767" lon="-7.179011">
        <ele>674.051</ele>
        <time>2010-01-01T00:30:55Z</time>
      </trkpt>
      <trkpt lat="40.318977" lon="-7.179634">
        <ele>681.068</ele>
        <time>2010-01-01T00:30:34Z</time>
      </trkpt>
      <trkpt lat="40.319180" lon="-7.179666">
        <ele>684.047</ele>
        <time>2010-01-01T00:30:26Z</time>
      </trkpt>
      <trkpt lat="40.319361" lon="-7.179515">
        <ele>681.099</ele>
        <time>2010-01-01T00:30:17Z</time>
      </trkpt>
      <trkpt lat="40.319645" lon="-7.179391">
        <ele>681.099</ele>
        <time>2010-01-01T00:30:05Z</time>
      </trkpt>
      <trkpt lat="40.319791" lon="-7.179201">
        <ele>679.061</ele>
        <time>2010-01-01T00:29:57Z</time>
      </trkpt>
      <trkpt lat="40.319964" lon="-7.178925">
        <ele>680.021</ele>
        <time>2010-01-01T00:29:46Z</time>
      </trkpt>
      <trkpt lat="40.320085" lon="-7.178896">
        <ele>681.013</ele>
        <time>2010-01-01T00:29:41Z</time>
      </trkpt>
      <trkpt lat="40.320177" lon="-7.179276">
        <ele>683.008</ele>
        <time>2010-01-01T00:29:29Z</time>
      </trkpt>
      <trkpt lat="40.320354" lon="-7.179653">
        <ele>687.069</ele>
        <time>2010-01-01T00:29:15Z</time>
      </trkpt>
      <trkpt lat="40.320529" lon="-7.180075">
        <ele>688.072</ele>
        <time>2010-01-01T00:29:01Z</time>
      </trkpt>
      <trkpt lat="40.320504" lon="-7.180408">
        <ele>692.075</ele>
        <time>2010-01-01T00:28:50Z</time>
      </trkpt>
      <trkpt lat="40.320297" lon="-7.180837">
        <ele>697.053</ele>
        <time>2010-01-01T00:28:35Z</time>
      </trkpt>
      <trkpt lat="40.320278" lon="-7.181606">
        <ele>699.040</ele>
        <time>2010-01-01T00:28:11Z</time>
      </trkpt>
      <trkpt lat="40.320342" lon="-7.181896">
        <ele>699.059</ele>
        <time>2010-01-01T00:28:02Z</time>
      </trkpt>
      <trkpt lat="40.320555" lon="-7.182168">
        <ele>698.051</ele>
        <time>2010-01-01T00:27:50Z</time>
      </trkpt>
      <trkpt lat="40.320609" lon="-7.182472">
        <ele>702.031</ele>
        <time>2010-01-01T00:27:41Z</time>
      </trkpt>
      <trkpt lat="40.320823" lon="-7.182685">
        <ele>707.077</ele>
        <time>2010-01-01T00:27:30Z</time>
      </trkpt>
      <trkpt lat="40.320948" lon="-7.182942">
        <ele>708.061</ele>
        <time>2010-01-01T00:27:21Z</time>
      </trkpt>
      <trkpt lat="40.321174" lon="-7.183447">
        <ele>711.027</ele>
        <time>2010-01-01T00:27:03Z</time>
      </trkpt>
      <trkpt lat="40.321371" lon="-7.183565">
        <ele>714.008</ele>
        <time>2010-01-01T00:26:54Z</time>
      </trkpt>
      <trkpt lat="40.321531" lon="-7.183384">
        <ele>716.080</ele>
        <time>2010-01-01T00:26:46Z</time>
      </trkpt>
      <trkpt lat="40.321722" lon="-7.183356">
        <ele>718.043</ele>
        <time>2010-01-01T00:26:38Z</time>
      </trkpt>
      <trkpt lat="40.321962" lon="-7.183317">
        <ele>722.086</ele>
        <time>2010-01-01T00:26:28Z</time>
      </trkpt>
      <trkpt lat="40.322008" lon="-7.183063">
        <ele>722.014</ele>
        <time>2010-01-01T00:26:20Z</time>
      </trkpt>
      <trkpt lat="40.322331" lon="-7.182734">
        <ele>725.011</ele>
        <time>2010-01-01T00:26:04Z</time>
      </trkpt>
      <trkpt lat="40.323298" lon="-7.182610">
        <ele>731.050</ele>
        <time>2010-01-01T00:25:25Z</time>
      </trkpt>
      <trkpt lat="40.323244" lon="-7.182785">
        <ele>734.062</ele>
        <time>2010-01-01T00:25:19Z</time>
      </trkpt>
      <trkpt lat="40.323024" lon="-7.183125">
        <ele>737.062</ele>
        <time>2010-01-01T00:25:06Z</time>
      </trkpt>
      <trkpt lat="40.322937" lon="-7.183450">
        <ele>737.042</ele>
        <time>2010-01-01T00:24:55Z</time>
      </trkpt>
      <trkpt lat="40.323133" lon="-7.183614">
        <ele>743.022</ele>
        <time>2010-01-01T00:24:46Z</time>
      </trkpt>
      <trkpt lat="40.323521" lon="-7.183627">
        <ele>748.014</ele>
        <time>2010-01-01T00:24:30Z</time>
      </trkpt>
      <trkpt lat="40.323528" lon="-7.183611">
        <ele>748.008</ele>
        <time>2010-01-01T00:24:30Z</time>
      </trkpt>
      <trkpt lat="40.323707" lon="-7.183608">
        <ele>748.037</ele>
        <time>2010-01-01T00:24:23Z</time>
      </trkpt>
      <trkpt lat="40.323866" lon="-7.183813">
        <ele>751.020</ele>
        <time>2010-01-01T00:24:14Z</time>
      </trkpt>
      <trkpt lat="40.323784" lon="-7.184389">
        <ele>757.093</ele>
        <time>2010-01-01T00:23:56Z</time>
      </trkpt>
      <trkpt lat="40.324048" lon="-7.184991">
        <ele>764.011</ele>
        <time>2010-01-01T00:23:35Z</time>
      </trkpt>
      <trkpt lat="40.324086" lon="-7.185553">
        <ele>769.088</ele>
        <time>2010-01-01T00:23:17Z</time>
      </trkpt>
      <trkpt lat="40.324317" lon="-7.186962">
        <ele>775.027</ele>
        <time>2010-01-01T00:22:33Z</time>
      </trkpt>
      <trkpt lat="40.324544" lon="-7.187336">
        <ele>777.079</ele>
        <time>2010-01-01T00:22:19Z</time>
      </trkpt>
      <trkpt lat="40.324868" lon="-7.187617">
        <ele>781.079</ele>
        <time>2010-01-01T00:22:03Z</time>
      </trkpt>
      <trkpt lat="40.325422" lon="-7.187479">
        <ele>786.099</ele>
        <time>2010-01-01T00:21:41Z</time>
      </trkpt>
      <trkpt lat="40.325791" lon="-7.187444">
        <ele>789.007</ele>
        <time>2010-01-01T00:21:26Z</time>
      </trkpt>
      <trkpt lat="40.326531" lon="-7.187359">
        <ele>796.027</ele>
        <time>2010-01-01T00:20:56Z</time>
      </trkpt>
      <trkpt lat="40.326751" lon="-7.187740">
        <ele>800.008</ele>
        <time>2010-01-01T00:20:42Z</time>
      </trkpt>
      <trkpt lat="40.326879" lon="-7.187849">
        <ele>800.092</ele>
        <time>2010-01-01T00:20:35Z</time>
      </trkpt>
      <trkpt lat="40.326891" lon="-7.187857">
        <ele>800.035</ele>
        <time>2010-01-01T00:20:35Z</time>
      </trkpt>
      <trkpt lat="40.327267" lon="-7.188027">
        <ele>802.078</ele>
        <time>2010-01-01T00:20:19Z</time>
      </trkpt>
      <trkpt lat="40.327474" lon="-7.188313">
        <ele>804.086</ele>
        <time>2010-01-01T00:20:07Z</time>
      </trkpt>
      <trkpt lat="40.327883" lon="-7.188664">
        <ele>807.093</ele>
        <time>2010-01-01T00:19:47Z</time>
      </trkpt>
      <trkpt lat="40.328093" lon="-7.188648">
        <ele>806.042</ele>
        <time>2010-01-01T00:19:39Z</time>
      </trkpt>
      <trkpt lat="40.328205" lon="-7.188859">
        <ele>805.034</ele>
        <time>2010-01-01T00:19:31Z</time>
      </trkpt>
      <trkpt lat="40.328699" lon="-7.189443">
        <ele>805.084</ele>
        <time>2010-01-01T00:19:05Z</time>
      </trkpt>
      <trkpt lat="40.329161" lon="-7.189748">
        <ele>807.075</ele>
        <time>2010-01-01T00:18:44Z</time>
      </trkpt>
      <trkpt lat="40.329467" lon="-7.190141">
        <ele>808.028</ele>
        <time>2010-01-01T00:18:27Z</time>
      </trkpt>
      <trkpt lat="40.329155" lon="-7.190256">
        <ele>808.020</ele>
        <time>2010-01-01T00:18:14Z</time>
      </trkpt>
      <trkpt lat="40.328536" lon="-7.190503">
        <ele>809.008</ele>
        <time>2010-01-01T00:17:48Z</time>
      </trkpt>
      <trkpt lat="40.328082" lon="-7.190765">
        <ele>806.060</ele>
        <time>2010-01-01T00:17:28Z</time>
      </trkpt>
      <trkpt lat="40.327678" lon="-7.190942">
        <ele>802.093</ele>
        <time>2010-01-01T00:17:11Z</time>
      </trkpt>
      <trkpt lat="40.327664" lon="-7.190950">
        <ele>802.086</ele>
        <time>2010-01-01T00:17:10Z</time>
      </trkpt>
      <trkpt lat="40.327313" lon="-7.190950">
        <ele>801.024</ele>
        <time>2010-01-01T00:16:56Z</time>
      </trkpt>
      <trkpt lat="40.326903" lon="-7.191131">
        <ele>799.091</ele>
        <time>2010-01-01T00:16:39Z</time>
      </trkpt>
      <trkpt lat="40.326635" lon="-7.191763">
        <ele>799.090</ele>
        <time>2010-01-01T00:16:17Z</time>
      </trkpt>
      <trkpt lat="40.326246" lon="-7.191783">
        <ele>797.022</ele>
        <time>2010-01-01T00:16:01Z</time>
      </trkpt>
      <trkpt lat="40.326037" lon="-7.191840">
        <ele>795.012</ele>
        <time>2010-01-01T00:15:53Z</time>
      </trkpt>
      <trkpt lat="40.325709" lon="-7.191986">
        <ele>790.054</ele>
        <time>2010-01-01T00:15:39Z</time>
      </trkpt>
      <trkpt lat="40.325382" lon="-7.192096">
        <ele>787.056</ele>
        <time>2010-01-01T00:15:25Z</time>
      </trkpt>
      <trkpt lat="40.325049" lon="-7.192068">
        <ele>787.011</ele>
        <time>2010-01-01T00:15:12Z</time>
      </trkpt>
      <trkpt lat="40.325310" lon="-7.193010">
        <ele>785.008</ele>
        <time>2010-01-01T00:14:41Z</time>
      </trkpt>
      <trkpt lat="40.325466" lon="-7.193514">
        <ele>784.038</ele>
        <time>2010-01-01T00:14:25Z</time>
      </trkpt>
      <trkpt lat="40.325798" lon="-7.194064">
        <ele>782.091</ele>
        <time>2010-01-01T00:14:03Z</time>
      </trkpt>
      <trkpt lat="40.326056" lon="-7.194836">
        <ele>781.064</ele>
        <time>2010-01-01T00:13:38Z</time>
      </trkpt>
      <trkpt lat="40.326002" lon="-7.195220">
        <ele>779.052</ele>
        <time>2010-01-01T00:13:26Z</time>
      </trkpt>
      <trkpt lat="40.325890" lon="-7.195945">
        <ele>777.079</ele>
        <time>2010-01-01T00:13:03Z</time>
      </trkpt>
      <trkpt lat="40.325797" lon="-7.196567">
        <ele>775.068</ele>
        <time>2010-01-01T00:12:44Z</time>
      </trkpt>
      <trkpt lat="40.325931" lon="-7.197115">
        <ele>772.050</ele>
        <time>2010-01-01T00:12:26Z</time>
      </trkpt>
      <trkpt lat="40.325982" lon="-7.197225">
        <ele>771.030</ele>
        <time>2010-01-01T00:12:22Z</time>
      </trkpt>
      <trkpt lat="40.326105" lon="-7.197225">
        <ele>770.035</ele>
        <time>2010-01-01T00:12:17Z</time>
      </trkpt>
      <trkpt lat="40.326112" lon="-7.197224">
        <ele>769.086</ele>
        <time>2010-01-01T00:12:17Z</time>
      </trkpt>
      <trkpt lat="40.326296" lon="-7.197360">
        <ele>768.014</ele>
        <time>2010-01-01T00:12:09Z</time>
      </trkpt>
      <trkpt lat="40.326248" lon="-7.197727">
        <ele>764.008</ele>
        <time>2010-01-01T00:11:57Z</time>
      </trkpt>
      <trkpt lat="40.326038" lon="-7.198056">
        <ele>763.096</ele>
        <time>2010-01-01T00:11:44Z</time>
      </trkpt>
      <trkpt lat="40.326262" lon="-7.198282">
        <ele>758.089</ele>
        <time>2010-01-01T00:11:33Z</time>
      </trkpt>
      <trkpt lat="40.326466" lon="-7.198604">
        <ele>755.062</ele>
        <time>2010-01-01T00:11:20Z</time>
      </trkpt>
      <trkpt lat="40.327129" lon="-7.200653">
        <ele>745.090</ele>
        <time>2010-01-01T00:10:12Z</time>
      </trkpt>
      <trkpt lat="40.327292" lon="-7.200998">
        <ele>741.047</ele>
        <time>2010-01-01T00:10:00Z</time>
      </trkpt>
      <trkpt lat="40.327614" lon="-7.200830">
        <ele>744.076</ele>
        <time>2010-01-01T00:09:46Z</time>
      </trkpt>
      <trkpt lat="40.328044" lon="-7.200630">
        <ele>745.098</ele>
        <time>2010-01-01T00:09:28Z</time>
      </trkpt>
      <trkpt lat="40.328161" lon="-7.201007">
        <ele>745.058</ele>
        <time>2010-01-01T00:09:15Z</time>
      </trkpt>
      <trkpt lat="40.328037" lon="-7.201290">
        <ele>744.013</ele>
        <time>2010-01-01T00:09:05Z</time>
      </trkpt>
      <trkpt lat="40.328029" lon="-7.201315">
        <ele>744.043</ele>
        <time>2010-01-01T00:09:04Z</time>
      </trkpt>
      <trkpt lat="40.328021" lon="-7.201348">
        <ele>744.007</ele>
        <time>2010-01-01T00:09:03Z</time>
      </trkpt>
      <trkpt lat="40.327940" lon="-7.201665">
        <ele>745.008</ele>
        <time>2010-01-01T00:08:53Z</time>
      </trkpt>
      <trkpt lat="40.327826" lon="-7.201814">
        <ele>746.094</ele>
        <time>2010-01-01T00:08:47Z</time>
      </trkpt>
      <trkpt lat="40.327688" lon="-7.202287">
        <ele>750.017</ele>
        <time>2010-01-01T00:08:31Z</time>
      </trkpt>
      <trkpt lat="40.327653" lon="-7.202677">
        <ele>751.030</ele>
        <time>2010-01-01T00:08:19Z</time>
      </trkpt>
      <trkpt lat="40.327623" lon="-7.203202">
        <ele>751.038</ele>
        <time>2010-01-01T00:08:03Z</time>
      </trkpt>
      <trkpt lat="40.327551" lon="-7.203389">
        <ele>751.085</ele>
        <time>2010-01-01T00:07:57Z</time>
      </trkpt>
      <trkpt lat="40.327478" lon="-7.203512">
        <ele>752.014</ele>
        <time>2010-01-01T00:07:52Z</time>
      </trkpt>
      <trkpt lat="40.327730" lon="-7.204010">
        <ele>756.046</ele>
        <time>2010-01-01T00:07:34Z</time>
      </trkpt>
      <trkpt lat="40.328049" lon="-7.204610">
        <ele>755.086</ele>
        <time>2010-01-01T00:07:12Z</time>
      </trkpt>
      <trkpt lat="40.328410" lon="-7.205257">
        <ele>748.087</ele>
        <time>2010-01-01T00:06:47Z</time>
      </trkpt>
      <trkpt lat="40.328953" lon="-7.205695">
        <ele>743.042</ele>
        <time>2010-01-01T00:06:22Z</time>
      </trkpt>
      <trkpt lat="40.329019" lon="-7.205931">
        <ele>738.026</ele>
        <time>2010-01-01T00:06:14Z</time>
      </trkpt>
      <trkpt lat="40.329200" lon="-7.206697">
        <ele>732.008</ele>
        <time>2010-01-01T00:05:49Z</time>
      </trkpt>
      <trkpt lat="40.329524" lon="-7.207325">
        <ele>725.081</ele>
        <time>2010-01-01T00:05:26Z</time>
      </trkpt>
      <trkpt lat="40.329556" lon="-7.207581">
        <ele>723.014</ele>
        <time>2010-01-01T00:05:18Z</time>
      </trkpt>
      <trkpt lat="40.329764" lon="-7.208026">
        <ele>717.027</ele>
        <time>2010-01-01T00:05:02Z</time>
      </trkpt>
      <trkpt lat="40.329646" lon="-7.208207">
        <ele>715.035</ele>
        <time>2010-01-01T00:04:55Z</time>
      </trkpt>
      <trkpt lat="40.329700" lon="-7.208435">
        <ele>713.022</ele>
        <time>2010-01-01T00:04:48Z</time>
      </trkpt>
      <trkpt lat="40.329851" lon="-7.208515">
        <ele>711.031</ele>
        <time>2010-01-01T00:04:41Z</time>
      </trkpt>
      <trkpt lat="40.330045" lon="-7.209082">
        <ele>707.083</ele>
        <time>2010-01-01T00:04:22Z</time>
      </trkpt>
      <trkpt lat="40.330593" lon="-7.209258">
        <ele>712.023</ele>
        <time>2010-01-01T00:04:00Z</time>
      </trkpt>
      <trkpt lat="40.331389" lon="-7.209658">
        <ele>721.039</ele>
        <time>2010-01-01T00:03:26Z</time>
      </trkpt>
      <trkpt lat="40.331279" lon="-7.210416">
        <ele>723.001</ele>
        <time>2010-01-01T00:03:02Z</time>
      </trkpt>
      <trkpt lat="40.331088" lon="-7.210705">
        <ele>726.021</ele>
        <time>2010-01-01T00:02:50Z</time>
      </trkpt>
      <trkpt lat="40.330931" lon="-7.210956">
        <ele>727.008</ele>
        <time>2010-01-01T00:02:40Z</time>
      </trkpt>
      <trkpt lat="40.330781" lon="-7.210880">
        <ele>727.016</ele>
        <time>2010-01-01T00:02:34Z</time>
      </trkpt>
      <trkpt lat="40.330559" lon="-7.210557">
        <ele>727.049</ele>
        <time>2010-01-01T00:02:21Z</time>
      </trkpt>
      <trkpt lat="40.330456" lon="-7.210587">
        <ele>729.092</ele>
        <time>2010-01-01T00:02:17Z</time>
      </trkpt>
      <trkpt lat="40.330303" lon="-7.211254">
        <ele>735.070</ele>
        <time>2010-01-01T00:01:55Z</time>
      </trkpt>
      <trkpt lat="40.330188" lon="-7.211420">
        <ele>738.067</ele>
        <time>2010-01-01T00:01:48Z</time>
      </trkpt>
      <trkpt lat="40.329676" lon="-7.212957">
        <ele>741.066</ele>
        <time>2010-01-01T00:00:57Z</time>
      </trkpt>
      <trkpt lat="40.329614" lon="-7.213471">
        <ele>743.028</ele>
        <time>2010-01-01T00:00:41Z</time>
      </trkpt>
      <trkpt lat="40.329479" lon="-7.214260">
        <ele>747.058</ele>
        <time>2010-01-01T00:00:17Z</time>
      </trkpt>
      <trkpt lat="40.329243" lon="-7.214767">
        <ele>751.075</ele>
        <time>2010-01-01T01:47:46Z</time>
      </trkpt>
      <trkpt lat="40.329147" lon="-7.214982">
        <ele>753.028</ele>
        <time>2010-01-01T01:47:38Z</time>
      </trkpt>
      <trkpt lat="40.329015" lon="-7.215137">
        <ele>755.020</ele>
        <time>2010-01-01T01:47:31Z</time>
      </trkpt>
      <trkpt lat="40.328857" lon="-7.215380">
        <ele>759.008</ele>
        <time>2010-01-01T01:47:21Z</time>
      </trkpt>
      <trkpt lat="40.328653" lon="-7.215694">
        <ele>761.010</ele>
        <time>2010-01-01T01:47:09Z</time>
      </trkpt>
      <trkpt lat="40.328666" lon="-7.215787">
        <ele>762.073</ele>
        <time>2010-01-01T01:47:06Z</time>
      </trkpt>
      <trkpt lat="40.328754" lon="-7.215989">
        <ele>766.076</ele>
        <time>2010-01-01T01:46:59Z</time>
      </trkpt>
      <trkpt lat="40.328664" lon="-7.216435">
        <ele>770.024</ele>
        <time>2010-01-01T01:46:45Z</time>
      </trkpt>
      <trkpt lat="40.328682" lon="-7.216635">
        <ele>773.031</ele>
        <time>2010-01-01T01:46:38Z</time>
      </trkpt>
      <trkpt lat="40.328705" lon="-7.216814">
        <ele>774.080</ele>
        <time>2010-01-01T01:46:33Z</time>
      </trkpt>
      <trkpt lat="40.328691" lon="-7.216897">
        <ele>773.052</ele>
        <time>2010-01-01T01:46:30Z</time>
      </trkpt>
      <trkpt lat="40.328585" lon="-7.216973">
        <ele>772.062</ele>
        <time>2010-01-01T01:46:25Z</time>
      </trkpt>
      <trkpt lat="40.328453" lon="-7.217042">
        <ele>770.019</ele>
        <time>2010-01-01T01:46:20Z</time>
      </trkpt>
      <trkpt lat="40.328383" lon="-7.217100">
        <ele>769.009</ele>
        <time>2010-01-01T01:46:16Z</time>
      </trkpt>
      <trkpt lat="40.328322" lon="-7.217366">
        <ele>767.019</ele>
        <time>2010-01-01T01:46:08Z</time>
      </trkpt>
      <trkpt lat="40.328370" lon="-7.217514">
        <ele>766.008</ele>
        <time>2010-01-01T01:46:03Z</time>
      </trkpt>
      <trkpt lat="40.328276" lon="-7.217697">
        <ele>761.054</ele>
        <time>2010-01-01T01:45:56Z</time>
      </trkpt>
      <trkpt lat="40.328303" lon="-7.217922">
        <ele>759.087</ele>
        <time>2010-01-01T01:45:49Z</time>
      </trkpt>
      <trkpt lat="40.328362" lon="-7.217936">
        <ele>760.030</ele>
        <time>2010-01-01T01:45:47Z</time>
      </trkpt>
      <trkpt lat="40.328741" lon="-7.217902">
        <ele>762.078</ele>
        <time>2010-01-01T01:45:32Z</time>
      </trkpt>
      <trkpt lat="40.328757" lon="-7.217949">
        <ele>761.035</ele>
        <time>2010-01-01T01:45:30Z</time>
      </trkpt>
      <trkpt lat="40.328807" lon="-7.218215">
        <ele>757.094</ele>
        <time>2010-01-01T01:45:22Z</time>
      </trkpt>
      <trkpt lat="40.328885" lon="-7.218382">
        <ele>754.026</ele>
        <time>2010-01-01T01:45:16Z</time>
      </trkpt>
      <trkpt lat="40.328943" lon="-7.218579">
        <ele>750.056</ele>
        <time>2010-01-01T01:45:09Z</time>
      </trkpt>
      <trkpt lat="40.329174" lon="-7.218665">
        <ele>748.035</ele>
        <time>2010-01-01T01:45:00Z</time>
      </trkpt>
      <trkpt lat="40.329414" lon="-7.218689">
        <ele>746.086</ele>
        <time>2010-01-01T01:44:50Z</time>
      </trkpt>
      <trkpt lat="40.329716" lon="-7.218561">
        <ele>743.014</ele>
        <time>2010-01-01T01:44:37Z</time>
      </trkpt>
      <trkpt lat="40.329859" lon="-7.218658">
        <ele>740.008</ele>
        <time>2010-01-01T01:44:31Z</time>
      </trkpt>
      <trkpt lat="40.329929" lon="-7.219074">
        <ele>735.066</ele>
        <time>2010-01-01T01:44:18Z</time>
      </trkpt>
      <trkpt lat="40.330090" lon="-7.219438">
        <ele>729.059</ele>
        <time>2010-01-01T01:44:05Z</time>
      </trkpt>
      <trkpt lat="40.330133" lon="-7.219655">
        <ele>726.032</ele>
        <time>2010-01-01T01:43:58Z</time>
      </trkpt>
      <trkpt lat="40.329960" lon="-7.219796">
        <ele>726.020</ele>
        <time>2010-01-01T01:43:50Z</time>
      </trkpt>
      <trkpt lat="40.329948" lon="-7.219805">
        <ele>726.077</ele>
        <time>2010-01-01T01:43:50Z</time>
      </trkpt>
      <trkpt lat="40.329840" lon="-7.219864">
        <ele>726.046</ele>
        <time>2010-01-01T01:43:45Z</time>
      </trkpt>
      <trkpt lat="40.329760" lon="-7.219938">
        <ele>726.028</ele>
        <time>2010-01-01T01:43:41Z</time>
      </trkpt>
      <trkpt lat="40.329781" lon="-7.220051">
        <ele>724.058</ele>
        <time>2010-01-01T01:43:37Z</time>
      </trkpt>
      <trkpt lat="40.330218" lon="-7.220141">
        <ele>717.086</ele>
        <time>2010-01-01T01:43:20Z</time>
      </trkpt>
      <trkpt lat="40.330438" lon="-7.220260">
        <ele>711.060</ele>
        <time>2010-01-01T01:43:10Z</time>
      </trkpt>
      <trkpt lat="40.330062" lon="-7.220632">
        <ele>706.026</ele>
        <time>2010-01-01T01:42:51Z</time>
      </trkpt>
      <trkpt lat="40.330664" lon="-7.220812">
        <ele>695.008</ele>
        <time>2010-01-01T01:42:27Z</time>
      </trkpt>
      <trkpt lat="40.330948" lon="-7.221265">
        <ele>684.071</ele>
        <time>2010-01-01T01:42:09Z</time>
      </trkpt>
      <trkpt lat="40.331147" lon="-7.221324">
        <ele>682.054</ele>
        <time>2010-01-01T01:42:01Z</time>
      </trkpt>
      <trkpt lat="40.330914" lon="-7.221630">
        <ele>678.057</ele>
        <time>2010-01-01T01:41:47Z</time>
      </trkpt>
      <trkpt lat="40.330961" lon="-7.221702">
        <ele>676.065</ele>
        <time>2010-01-01T01:41:44Z</time>
      </trkpt>
      <trkpt lat="40.331294" lon="-7.221729">
        <ele>674.052</ele>
        <time>2010-01-01T01:41:31Z</time>
      </trkpt>
      <trkpt lat="40.331657" lon="-7.222385">
        <ele>661.021</ele>
        <time>2010-01-01T01:41:06Z</time>
      </trkpt>
      <trkpt lat="40.331624" lon="-7.222664">
        <ele>654.063</ele>
        <time>2010-01-01T01:40:58Z</time>
      </trkpt>
      <trkpt lat="40.331300" lon="-7.223466">
        <ele>639.023</ele>
        <time>2010-01-01T01:40:30Z</time>
      </trkpt>
      <trkpt lat="40.331347" lon="-7.223428">
        <ele>639.057</ele>
        <time>2010-01-01T01:40:28Z</time>
      </trkpt>
      <trkpt lat="40.331422" lon="-7.223374">
        <ele>639.000</ele>
        <time>2010-01-01T01:40:24Z</time>
      </trkpt>
      <trkpt lat="40.331608" lon="-7.223350">
        <ele>635.020</ele>
        <time>2010-01-01T01:40:17Z</time>
      </trkpt>
      <trkpt lat="40.331809" lon="-7.223243">
        <ele>634.008</ele>
        <time>2010-01-01T01:40:08Z</time>
      </trkpt>
      <trkpt lat="40.331922" lon="-7.223163">
        <ele>634.018</ele>
        <time>2010-01-01T01:40:03Z</time>
      </trkpt>
      <trkpt lat="40.332090" lon="-7.223182">
        <ele>629.051</ele>
        <time>2010-01-01T01:39:56Z</time>
      </trkpt>
      <trkpt lat="40.332256" lon="-7.223193">
        <ele>624.034</ele>
        <time>2010-01-01T01:39:50Z</time>
      </trkpt>
      <trkpt lat="40.332430" lon="-7.223154">
        <ele>621.092</ele>
        <time>2010-01-01T01:39:43Z</time>
      </trkpt>
      <trkpt lat="40.332665" lon="-7.223031">
        <ele>618.059</ele>
        <time>2010-01-01T01:39:33Z</time>
      </trkpt>
      <trkpt lat="40.332767" lon="-7.222883">
        <ele>620.098</ele>
        <time>2010-01-01T01:39:26Z</time>
      </trkpt>
      <trkpt lat="40.332988" lon="-7.222678">
        <ele>618.010</ele>
        <time>2010-01-01T01:39:16Z</time>
      </trkpt>
      <trkpt lat="40.333182" lon="-7.222586">
        <ele>613.070</ele>
        <time>2010-01-01T01:39:07Z</time>
      </trkpt>
      <trkpt lat="40.333306" lon="-7.222395">
        <ele>612.025</ele>
        <time>2010-01-01T01:39:00Z</time>
      </trkpt>
      <trkpt lat="40.333320" lon="-7.222394">
        <ele>612.026</ele>
        <time>2010-01-01T01:38:59Z</time>
      </trkpt>
      <trkpt lat="40.333438" lon="-7.222380">
        <ele>608.008</ele>
        <time>2010-01-01T01:38:54Z</time>
      </trkpt>
      <trkpt lat="40.333568" lon="-7.222286">
        <ele>606.008</ele>
        <time>2010-01-01T01:38:48Z</time>
      </trkpt>
      <trkpt lat="40.333616" lon="-7.222339">
        <ele>604.035</ele>
        <time>2010-01-01T01:38:46Z</time>
      </trkpt>
      <trkpt lat="40.333610" lon="-7.222522">
        <ele>601.088</ele>
        <time>2010-01-01T01:38:40Z</time>
      </trkpt>
      <trkpt lat="40.333635" lon="-7.222669">
        <ele>598.041</ele>
        <time>2010-01-01T01:38:36Z</time>
      </trkpt>
      <trkpt lat="40.333711" lon="-7.222583">
        <ele>598.099</ele>
        <time>2010-01-01T01:38:32Z</time>
      </trkpt>
      <trkpt lat="40.333856" lon="-7.222358">
        <ele>597.076</ele>
        <time>2010-01-01T01:38:23Z</time>
      </trkpt>
      <trkpt lat="40.333881" lon="-7.222595">
        <ele>594.045</ele>
        <time>2010-01-01T01:38:15Z</time>
      </trkpt>
      <trkpt lat="40.334078" lon="-7.222773">
        <ele>589.047</ele>
        <time>2010-01-01T01:38:06Z</time>
      </trkpt>
      <trkpt lat="40.334279" lon="-7.223289">
        <ele>579.077</ele>
        <time>2010-01-01T01:37:48Z</time>
      </trkpt>
      <trkpt lat="40.334240" lon="-7.223383">
        <ele>578.011</ele>
        <time>2010-01-01T01:37:45Z</time>
      </trkpt>
      <trkpt lat="40.334248" lon="-7.223571">
        <ele>573.021</ele>
        <time>2010-01-01T01:37:39Z</time>
      </trkpt>
      <trkpt lat="40.334392" lon="-7.223653">
        <ele>569.003</ele>
        <time>2010-01-01T01:37:33Z</time>
      </trkpt>
      <trkpt lat="40.334569" lon="-7.223680">
        <ele>566.008</ele>
        <time>2010-01-01T01:37:26Z</time>
      </trkpt>
      <trkpt lat="40.334799" lon="-7.223566">
        <ele>565.094</ele>
        <time>2010-01-01T01:37:16Z</time>
      </trkpt>
      <trkpt lat="40.334829" lon="-7.223692">
        <ele>565.087</ele>
        <time>2010-01-01T01:37:12Z</time>
      </trkpt>
      <trkpt lat="40.334925" lon="-7.223911">
        <ele>565.040</ele>
        <time>2010-01-01T01:37:04Z</time>
      </trkpt>
      <trkpt lat="40.335034" lon="-7.224034">
        <ele>567.038</ele>
        <time>2010-01-01T01:36:58Z</time>
      </trkpt>
      <trkpt lat="40.335178" lon="-7.224198">
        <ele>570.025</ele>
        <time>2010-01-01T01:36:51Z</time>
      </trkpt>
      <trkpt lat="40.335349" lon="-7.224419">
        <ele>572.024</ele>
        <time>2010-01-01T01:36:41Z</time>
      </trkpt>
      <trkpt lat="40.335504" lon="-7.224483">
        <ele>573.046</ele>
        <time>2010-01-01T01:36:35Z</time>
      </trkpt>
      <trkpt lat="40.335698" lon="-7.224466">
        <ele>575.026</ele>
        <time>2010-01-01T01:36:27Z</time>
      </trkpt>
      <trkpt lat="40.335845" lon="-7.224619">
        <ele>577.057</ele>
        <time>2010-01-01T01:36:19Z</time>
      </trkpt>
      <trkpt lat="40.336055" lon="-7.224642">
        <ele>578.000</ele>
        <time>2010-01-01T01:36:11Z</time>
      </trkpt>
      <trkpt lat="40.336241" lon="-7.224760">
        <ele>578.020</ele>
        <time>2010-01-01T01:36:03Z</time>
      </trkpt>
      <trkpt lat="40.336372" lon="-7.224925">
        <ele>576.008</ele>
        <time>2010-01-01T01:35:55Z</time>
      </trkpt>
      <trkpt lat="40.336634" lon="-7.224842">
        <ele>578.018</ele>
        <time>2010-01-01T01:35:45Z</time>
      </trkpt>
      <trkpt lat="40.337676" lon="-7.224626">
        <ele>584.031</ele>
        <time>2010-01-01T01:35:02Z</time>
      </trkpt>
      <trkpt lat="40.338471" lon="-7.223835">
        <ele>593.074</ele>
        <time>2010-01-01T01:34:23Z</time>
      </trkpt>
      <trkpt lat="40.339110" lon="-7.223348">
        <ele>597.072</ele>
        <time>2010-01-01T01:33:53Z</time>
      </trkpt>
      <trkpt lat="40.339272" lon="-7.223481">
        <ele>599.059</ele>
        <time>2010-01-01T01:33:45Z</time>
      </trkpt>
      <trkpt lat="40.339427" lon="-7.224144">
        <ele>599.058</ele>
        <time>2010-01-01T01:33:24Z</time>
      </trkpt>
      <trkpt lat="40.340074" lon="-7.225589">
        <ele>591.030</ele>
        <time>2010-01-01T01:32:33Z</time>
      </trkpt>
      <trkpt lat="40.341084" lon="-7.227450">
        <ele>589.020</ele>
        <time>2010-01-01T01:31:23Z</time>
      </trkpt>
      <trkpt lat="40.341749" lon="-7.228947">
        <ele>586.048</ele>
        <time>2010-01-01T01:30:30Z</time>
      </trkpt>
      <trkpt lat="40.341867" lon="-7.229895">
        <ele>574.061</ele>
        <time>2010-01-01T01:30:01Z</time>
      </trkpt>
      <trkpt lat="40.342022" lon="-7.231044">
        <ele>567.017</ele>
        <time>2010-01-01T01:29:26Z</time>
      </trkpt>
      <trkpt lat="40.342217" lon="-7.231690">
        <ele>560.008</ele>
        <time>2010-01-01T01:29:04Z</time>
      </trkpt>
      <trkpt lat="40.342574" lon="-7.232391">
        <ele>554.077</ele>
        <time>2010-01-01T01:28:39Z</time>
      </trkpt>
      <trkpt lat="40.342857" lon="-7.233237">
        <ele>546.030</ele>
        <time>2010-01-01T01:28:10Z</time>
      </trkpt>
      <trkpt lat="40.343300" lon="-7.235711">
        <ele>527.063</ele>
        <time>2010-01-01T01:26:53Z</time>
      </trkpt>
      <trkpt lat="40.343402" lon="-7.236442">
        <ele>521.021</ele>
        <time>2010-01-01T01:26:30Z</time>
      </trkpt>
      <trkpt lat="40.343406" lon="-7.236454">
        <ele>521.098</ele>
        <time>2010-01-01T01:26:30Z</time>
      </trkpt>
      <trkpt lat="40.343541" lon="-7.236865">
        <ele>522.047</ele>
        <time>2010-01-01T01:26:16Z</time>
      </trkpt>
      <trkpt lat="40.344150" lon="-7.237487">
        <ele>515.019</ele>
        <time>2010-01-01T01:25:45Z</time>
      </trkpt>
      <trkpt lat="40.344392" lon="-7.237557">
        <ele>512.099</ele>
        <time>2010-01-01T01:25:35Z</time>
      </trkpt>
      <trkpt lat="40.345451" lon="-7.237286">
        <ele>502.067</ele>
        <time>2010-01-01T01:24:52Z</time>
      </trkpt>
      <trkpt lat="40.346160" lon="-7.237235">
        <ele>492.081</ele>
        <time>2010-01-01T01:24:24Z</time>
      </trkpt>
      <trkpt lat="40.346200" lon="-7.237692">
        <ele>493.019</ele>
        <time>2010-01-01T01:24:10Z</time>
      </trkpt>
      <trkpt lat="40.346698" lon="-7.238856">
        <ele>489.008</ele>
        <time>2010-01-01T01:23:29Z</time>
      </trkpt>
      <trkpt lat="40.346788" lon="-7.240309">
        <ele>489.029</ele>
        <time>2010-01-01T01:22:44Z</time>
      </trkpt>
      <trkpt lat="40.346658" lon="-7.240685">
        <ele>490.052</ele>
        <time>2010-01-01T01:22:32Z</time>
      </trkpt>
      <trkpt lat="40.346628" lon="-7.241288">
        <ele>487.055</ele>
        <time>2010-01-01T01:22:13Z</time>
      </trkpt>
      <trkpt lat="40.346475" lon="-7.241933">
        <ele>485.043</ele>
        <time>2010-01-01T01:21:53Z</time>
      </trkpt>
      <trkpt lat="40.346404" lon="-7.242491">
        <ele>485.050</ele>
        <time>2010-01-01T01:21:36Z</time>
      </trkpt>
      <trkpt lat="40.346097" lon="-7.243606">
        <ele>485.099</ele>
        <time>2010-01-01T01:20:59Z</time>
      </trkpt>
      <trkpt lat="40.346057" lon="-7.245212">
        <ele>484.051</ele>
        <time>2010-01-01T01:20:10Z</time>
      </trkpt>
      <trkpt lat="40.346137" lon="-7.245858">
        <ele>485.031</ele>
        <time>2010-01-01T01:19:50Z</time>
      </trkpt>
      <trkpt lat="40.345898" lon="-7.247485">
        <ele>482.014</ele>
        <time>2010-01-01T01:19:00Z</time>
      </trkpt>
      <trkpt lat="40.345600" lon="-7.249115">
        <ele>479.054</ele>
        <time>2010-01-01T01:18:09Z</time>
      </trkpt>
      <trkpt lat="40.345210" lon="-7.250856">
        <ele>477.009</ele>
        <time>2010-01-01T01:17:13Z</time>
      </trkpt>
      <trkpt lat="40.345228" lon="-7.250861">
        <ele>477.008</ele>
        <time>2010-01-01T01:17:13Z</time>
      </trkpt>
      <trkpt lat="40.345038" lon="-7.251357">
        <ele>480.014</ele>
        <time>2010-01-01T01:16:56Z</time>
      </trkpt>
      <trkpt lat="40.344942" lon="-7.252099">
        <ele>478.057</ele>
        <time>2010-01-01T01:16:33Z</time>
      </trkpt>
      <trkpt lat="40.344887" lon="-7.253258">
        <ele>477.020</ele>
        <time>2010-01-01T01:15:57Z</time>
      </trkpt>
      <trkpt lat="40.344729" lon="-7.254089">
        <ele>477.088</ele>
        <time>2010-01-01T01:15:31Z</time>
      </trkpt>
      <trkpt lat="40.344599" lon="-7.254948">
        <ele>482.065</ele>
        <time>2010-01-01T01:15:04Z</time>
      </trkpt>
      <trkpt lat="40.344522" lon="-7.255583">
        <ele>481.054</ele>
        <time>2010-01-01T01:14:45Z</time>
      </trkpt>
      <trkpt lat="40.344573" lon="-7.256275">
        <ele>478.056</ele>
        <time>2010-01-01T01:14:24Z</time>
      </trkpt>
      <trkpt lat="40.344382" lon="-7.257606">
        <ele>477.076</ele>
        <time>2010-01-01T01:13:42Z</time>
      </trkpt>
      <trkpt lat="40.344047" lon="-7.259137">
        <ele>478.033</ele>
        <time>2010-01-01T01:12:54Z</time>
      </trkpt>
      <trkpt lat="40.343998" lon="-7.259887">
        <ele>477.023</ele>
        <time>2010-01-01T01:12:31Z</time>
      </trkpt>
      <trkpt lat="40.343737" lon="-7.261374">
        <ele>484.015</ele>
        <time>2010-01-01T01:11:44Z</time>
      </trkpt>
      <trkpt lat="40.343668" lon="-7.262916">
        <ele>482.008</ele>
        <time>2010-01-01T01:10:57Z</time>
      </trkpt>
      <trkpt lat="40.343774" lon="-7.264185">
        <ele>478.056</ele>
        <time>2010-01-01T01:10:18Z</time>
      </trkpt>
      <trkpt lat="40.344094" lon="-7.265177">
        <ele>480.099</ele>
        <time>2010-01-01T01:09:45Z</time>
      </trkpt>
      <trkpt lat="40.343998" lon="-7.265353">
        <ele>479.092</ele>
        <time>2010-01-01T01:09:39Z</time>
      </trkpt>
      <trkpt lat="40.343751" lon="-7.265694">
        <ele>478.010</ele>
        <time>2010-01-01T01:09:24Z</time>
      </trkpt>
      <trkpt lat="40.343700" lon="-7.266112">
        <ele>478.097</ele>
        <time>2010-01-01T01:09:11Z</time>
      </trkpt>
      <trkpt lat="40.343179" lon="-7.267676">
        <ele>473.026</ele>
        <time>2010-01-01T01:08:19Z</time>
      </trkpt>
      <trkpt lat="40.342946" lon="-7.268117">
        <ele>472.058</ele>
        <time>2010-01-01T01:08:03Z</time>
      </trkpt>
      <trkpt lat="40.342193" lon="-7.269267">
        <ele>473.088</ele>
        <time>2010-01-01T01:07:17Z</time>
      </trkpt>
      <trkpt lat="40.342130" lon="-7.269948">
        <ele>472.069</ele>
        <time>2010-01-01T01:06:56Z</time>
      </trkpt>
      <trkpt lat="40.341814" lon="-7.271054">
        <ele>472.004</ele>
        <time>2010-01-01T01:06:20Z</time>
      </trkpt>
      <trkpt lat="40.341628" lon="-7.271603">
        <ele>470.024</ele>
        <time>2010-01-01T01:06:01Z</time>
      </trkpt>
      <trkpt lat="40.340973" lon="-7.272602">
        <ele>468.008</ele>
        <time>2010-01-01T01:05:21Z</time>
      </trkpt>
      <trkpt lat="40.340717" lon="-7.272871">
        <ele>469.069</ele>
        <time>2010-01-01T01:05:08Z</time>
      </trkpt>
      <trkpt lat="40.339571" lon="-7.274012">
        <ele>468.042</ele>
        <time>2010-01-01T01:04:10Z</time>
      </trkpt>
      <trkpt lat="40.339375" lon="-7.273555">
        <ele>470.065</ele>
        <time>2010-01-01T01:03:54Z</time>
      </trkpt>
      <trkpt lat="40.338699" lon="-7.273304">
        <ele>473.033</ele>
        <time>2010-01-01T01:03:26Z</time>
      </trkpt>
      <trkpt lat="40.338395" lon="-7.273414">
        <ele>475.010</ele>
        <time>2010-01-01T01:03:14Z</time>
      </trkpt>
      <trkpt lat="40.337829" lon="-7.273232">
        <ele>479.099</ele>
        <time>2010-01-01T01:02:50Z</time>
      </trkpt>
      <trkpt lat="40.337227" lon="-7.273296">
        <ele>486.041</ele>
        <time>2010-01-01T01:02:26Z</time>
      </trkpt>
      <trkpt lat="40.336783" lon="-7.273167">
        <ele>489.041</ele>
        <time>2010-01-01T01:02:08Z</time>
      </trkpt>
      <trkpt lat="40.336710" lon="-7.272951">
        <ele>491.051</ele>
        <time>2010-01-01T01:02:01Z</time>
      </trkpt>
      <trkpt lat="40.336570" lon="-7.272882">
        <ele>492.001</ele>
        <time>2010-01-01T01:01:55Z</time>
      </trkpt>
      <trkpt lat="40.336315" lon="-7.273085">
        <ele>491.011</ele>
        <time>2010-01-01T01:01:43Z</time>
      </trkpt>
      <trkpt lat="40.336032" lon="-7.273270">
        <ele>490.008</ele>
        <time>2010-01-01T01:01:30Z</time>
      </trkpt>
      <trkpt lat="40.335477" lon="-7.274053">
        <ele>481.098</ele>
        <time>2010-01-01T01:00:58Z</time>
      </trkpt>
      <trkpt lat="40.335389" lon="-7.274134">
        <ele>480.021</ele>
        <time>2010-01-01T01:00:53Z</time>
      </trkpt>
      <trkpt lat="40.335278" lon="-7.274328">
        <ele>481.044</ele>
        <time>2010-01-01T01:00:46Z</time>
      </trkpt>
      <trkpt lat="40.335265" lon="-7.274335">
        <ele>481.072</ele>
        <time>2010-01-01T01:00:45Z</time>
      </trkpt>
      <trkpt lat="40.335058" lon="-7.274636">
        <ele>482.029</ele>
        <time>2010-01-01T01:00:33Z</time>
      </trkpt>
      <trkpt lat="40.334872" lon="-7.274874">
        <ele>483.088</ele>
        <time>2010-01-01T01:00:23Z</time>
      </trkpt>
      <trkpt lat="40.334604" lon="-7.274869">
        <ele>485.010</ele>
        <time>2010-01-01T01:00:12Z</time>
      </trkpt>
      <trkpt lat="40.334326" lon="-7.274507">
        <ele>488.090</ele>
        <time>2010-01-01T00:59:56Z</time>
      </trkpt>
      <trkpt lat="40.333993" lon="-7.274149">
        <ele>490.016</ele>
        <time>2010-01-01T00:59:39Z</time>
      </trkpt>
      <trkpt lat="40.333755" lon="-7.274156">
        <ele>492.076</ele>
        <time>2010-01-01T00:59:29Z</time>
      </trkpt>
      <trkpt lat="40.333339" lon="-7.274187">
        <ele>494.013</ele>
        <time>2010-01-01T00:59:13Z</time>
      </trkpt>
      <trkpt lat="40.333050" lon="-7.274008">
        <ele>495.008</ele>
        <time>2010-01-01T00:59:00Z</time>
      </trkpt>
      <trkpt lat="40.332823" lon="-7.273854">
        <ele>496.094</ele>
        <time>2010-01-01T00:58:50Z</time>
      </trkpt>
      <trkpt lat="40.332533" lon="-7.273814">
        <ele>497.047</ele>
        <time>2010-01-01T00:58:38Z</time>
      </trkpt>
      <trkpt lat="40.332387" lon="-7.273841">
        <ele>498.030</ele>
        <time>2010-01-01T00:58:32Z</time>
      </trkpt>
      <trkpt lat="40.332272" lon="-7.273887">
        <ele>498.098</ele>
        <time>2010-01-01T00:58:27Z</time>
      </trkpt>
      <trkpt lat="40.332135" lon="-7.274840">
        <ele>494.045</ele>
        <time>2010-01-01T00:57:58Z</time>
      </trkpt>
      <trkpt lat="40.332162" lon="-7.274972">
        <ele>492.074</ele>
        <time>2010-01-01T00:57:54Z</time>
      </trkpt>
      <trkpt lat="40.332306" lon="-7.275830">
        <ele>490.086</ele>
        <time>2010-01-01T00:57:27Z</time>
      </trkpt>
      <trkpt lat="40.332427" lon="-7.276567">
        <ele>487.086</ele>
        <time>2010-01-01T00:57:04Z</time>
      </trkpt>
      <trkpt lat="40.332578" lon="-7.277092">
        <ele>484.071</ele>
        <time>2010-01-01T00:56:47Z</time>
      </trkpt>
      <trkpt lat="40.332987" lon="-7.278052">
        <ele>478.041</ele>
        <time>2010-01-01T00:56:13Z</time>
      </trkpt>
      <trkpt lat="40.333119" lon="-7.278480">
        <ele>479.015</ele>
        <time>2010-01-01T00:55:59Z</time>
      </trkpt>
      <trkpt lat="40.332560" lon="-7.278671">
        <ele>480.008</ele>
        <time>2010-01-01T00:55:36Z</time>
      </trkpt>
      <trkpt lat="40.332076" lon="-7.278648">
        <ele>483.030</ele>
        <time>2010-01-01T00:55:16Z</time>
      </trkpt>
      <trkpt lat="40.332179" lon="-7.278827">
        <ele>483.053</ele>
        <time>2010-01-01T00:55:10Z</time>
      </trkpt>
      <trkpt lat="40.332333" lon="-7.279282">
        <ele>483.086</ele>
        <time>2010-01-01T00:54:54Z</time>
      </trkpt>
      <trkpt lat="40.332541" lon="-7.279984">
        <ele>490.054</ele>
        <time>2010-01-01T00:54:31Z</time>
      </trkpt>
      <trkpt lat="40.332651" lon="-7.280125">
        <ele>491.051</ele>
        <time>2010-01-01T00:54:25Z</time>
      </trkpt>
      <trkpt lat="40.332880" lon="-7.280111">
        <ele>489.070</ele>
        <time>2010-01-01T00:54:16Z</time>
      </trkpt>
      <trkpt lat="40.333715" lon="-7.280407">
        <ele>487.082</ele>
        <time>2010-01-01T00:53:41Z</time>
      </trkpt>
      <trkpt lat="40.334047" lon="-7.280657">
        <ele>485.072</ele>
        <time>2010-01-01T00:53:26Z</time>
      </trkpt>
      <trkpt lat="40.334139" lon="-7.280978">
        <ele>485.022</ele>
        <time>2010-01-01T00:53:16Z</time>
      </trkpt>
      <trkpt lat="40.334273" lon="-7.281139">
        <ele>484.062</ele>
        <time>2010-01-01T00:53:08Z</time>
      </trkpt>
      <trkpt lat="40.334454" lon="-7.281240">
        <ele>484.008</ele>
        <time>2010-01-01T00:53:01Z</time>
      </trkpt>
      <trkpt lat="40.334625" lon="-7.281372">
        <ele>483.008</ele>
        <time>2010-01-01T00:52:53Z</time>
      </trkpt>
      <trkpt lat="40.334731" lon="-7.281823">
        <ele>483.075</ele>
        <time>2010-01-01T00:52:38Z</time>
      </trkpt>
      <trkpt lat="40.334933" lon="-7.282492">
        <ele>485.068</ele>
        <time>2010-01-01T00:52:16Z</time>
      </trkpt>
      <trkpt lat="40.335068" lon="-7.282654">
        <ele>483.091</ele>
        <time>2010-01-01T00:52:09Z</time>
      </trkpt>
      <trkpt lat="40.335231" lon="-7.282845">
        <ele>481.029</ele>
        <time>2010-01-01T00:52:00Z</time>
      </trkpt>
      <trkpt lat="40.335439" lon="-7.283204">
        <ele>478.086</ele>
        <time>2010-01-01T00:51:46Z</time>
      </trkpt>
      <trkpt lat="40.335648" lon="-7.283910">
        <ele>476.015</ele>
        <time>2010-01-01T00:51:23Z</time>
      </trkpt>
      <trkpt lat="40.335612" lon="-7.285031">
        <ele>475.017</ele>
        <time>2010-01-01T00:50:49Z</time>
      </trkpt>
      <trkpt lat="40.336085" lon="-7.285838">
        <ele>473.077</ele>
        <time>2010-01-01T00:50:18Z</time>
      </trkpt>
      <trkpt lat="40.336110" lon="-7.285966">
        <ele>473.061</ele>
        <time>2010-01-01T00:50:14Z</time>
      </trkpt>
      <trkpt lat="40.336192" lon="-7.286406">
        <ele>473.021</ele>
        <time>2010-01-01T00:50:00Z</time>
      </trkpt>
      <trkpt lat="40.336267" lon="-7.286772">
        <ele>471.013</ele>
        <time>2010-01-01T00:49:49Z</time>
      </trkpt>
      <trkpt lat="40.336368" lon="-7.287543">
        <ele>470.008</ele>
        <time>2010-01-01T00:49:25Z</time>
      </trkpt>
      <trkpt lat="40.336428" lon="-7.287745">
        <ele>469.079</ele>
        <time>2010-01-01T00:49:18Z</time>
      </trkpt>
      <trkpt lat="40.336474" lon="-7.288101">
        <ele>468.072</ele>
        <time>2010-01-01T00:49:07Z</time>
      </trkpt>
      <trkpt lat="40.336534" lon="-7.288338">
        <ele>466.025</ele>
        <time>2010-01-01T00:48:59Z</time>
      </trkpt>
      <trkpt lat="40.336562" lon="-7.288677">
        <ele>464.043</ele>
        <time>2010-01-01T00:48:49Z</time>
      </trkpt>
      <trkpt lat="40.336552" lon="-7.288930">
        <ele>463.050</ele>
        <time>2010-01-01T00:48:41Z</time>
      </trkpt>
      <trkpt lat="40.336234" lon="-7.290006">
        <ele>465.089</ele>
        <time>2010-01-01T00:48:06Z</time>
      </trkpt>
      <trkpt lat="40.336136" lon="-7.290217">
        <ele>465.051</ele>
        <time>2010-01-01T00:47:59Z</time>
      </trkpt>
      <trkpt lat="40.336026" lon="-7.290481">
        <ele>464.051</ele>
        <time>2010-01-01T00:47:49Z</time>
      </trkpt>
      <trkpt lat="40.335955" lon="-7.290929">
        <ele>464.069</ele>
        <time>2010-01-01T00:47:35Z</time>
      </trkpt>
      <trkpt lat="40.335972" lon="-7.291070">
        <ele>464.004</ele>
        <time>2010-01-01T00:47:31Z</time>
      </trkpt>
      <trkpt lat="40.336041" lon="-7.291238">
        <ele>463.024</ele>
        <time>2010-01-01T00:47:25Z</time>
      </trkpt>
      <trkpt lat="40.336018" lon="-7.291383">
        <ele>464.008</ele>
        <time>2010-01-01T00:47:21Z</time>
      </trkpt>
      <trkpt lat="40.335803" lon="-7.291551">
        <ele>465.079</ele>
        <time>2010-01-01T00:47:11Z</time>
      </trkpt>
      <trkpt lat="40.335722" lon="-7.291707">
        <ele>466.062</ele>
        <time>2010-01-01T00:47:05Z</time>
      </trkpt>
      <trkpt lat="40.335812" lon="-7.291728">
        <ele>465.015</ele>
        <time>2010-01-01T00:47:01Z</time>
      </trkpt>
      <trkpt lat="40.336983" lon="-7.291750">
        <ele>460.033</ele>
        <time>2010-01-01T00:46:14Z</time>
      </trkpt>
      <trkpt lat="40.338000" lon="-7.291716">
        <ele>460.090</ele>
        <time>2010-01-01T00:45:34Z</time>
      </trkpt>
      <trkpt lat="40.337977" lon="-7.292200">
        <ele>460.079</ele>
        <time>2010-01-01T00:45:19Z</time>
      </trkpt>
      <trkpt lat="40.337816" lon="-7.292481">
        <ele>460.071</ele>
        <time>2010-01-01T00:45:08Z</time>
      </trkpt>
      <trkpt lat="40.337568" lon="-7.292944">
        <ele>463.071</ele>
        <time>2010-01-01T00:44:51Z</time>
      </trkpt>
      <trkpt lat="40.337757" lon="-7.293898">
        <ele>462.031</ele>
        <time>2010-01-01T00:44:21Z</time>
      </trkpt>
      <trkpt lat="40.337676" lon="-7.294898">
        <ele>460.061</ele>
        <time>2010-01-01T00:43:50Z</time>
      </trkpt>
      <trkpt lat="40.337576" lon="-7.295376">
        <ele>461.007</ele>
        <time>2010-01-01T00:43:35Z</time>
      </trkpt>
      <trkpt lat="40.337631" lon="-7.295821">
        <ele>462.008</ele>
        <time>2010-01-01T00:43:21Z</time>
      </trkpt>
      <trkpt lat="40.337562" lon="-7.296390">
        <ele>459.026</ele>
        <time>2010-01-01T00:43:04Z</time>
      </trkpt>
      <trkpt lat="40.337575" lon="-7.296614">
        <ele>459.029</ele>
        <time>2010-01-01T00:42:57Z</time>
      </trkpt>
      <trkpt lat="40.337625" lon="-7.297474">
        <ele>459.042</ele>
        <time>2010-01-01T00:42:30Z</time>
      </trkpt>
      <trkpt lat="40.337575" lon="-7.297950">
        <ele>459.070</ele>
        <time>2010-01-01T00:42:16Z</time>
      </trkpt>
      <trkpt lat="40.337711" lon="-7.297992">
        <ele>459.027</ele>
        <time>2010-01-01T00:42:10Z</time>
      </trkpt>
      <trkpt lat="40.337995" lon="-7.298092">
        <ele>459.076</ele>
        <time>2010-01-01T00:41:58Z</time>
      </trkpt>
      <trkpt lat="40.338149" lon="-7.298131">
        <ele>460.028</ele>
        <time>2010-01-01T00:41:52Z</time>
      </trkpt>
      <trkpt lat="40.338661" lon="-7.297840">
        <ele>462.078</ele>
        <time>2010-01-01T00:41:30Z</time>
      </trkpt>
      <trkpt lat="40.339160" lon="-7.297508">
        <ele>465.034</ele>
        <time>2010-01-01T00:41:07Z</time>
      </trkpt>
      <trkpt lat="40.339460" lon="-7.297246">
        <ele>468.055</ele>
        <time>2010-01-01T00:40:53Z</time>
      </trkpt>
      <trkpt lat="40.339642" lon="-7.297369">
        <ele>468.010</ele>
        <time>2010-01-01T00:40:45Z</time>
      </trkpt>
      <trkpt lat="40.339903" lon="-7.297559">
        <ele>468.008</ele>
        <time>2010-01-01T00:40:33Z</time>
      </trkpt>
      <trkpt lat="40.340441" lon="-7.297816">
        <ele>469.036</ele>
        <time>2010-01-01T00:40:10Z</time>
      </trkpt>
      <trkpt lat="40.340705" lon="-7.297971">
        <ele>470.039</ele>
        <time>2010-01-01T00:39:58Z</time>
      </trkpt>
      <trkpt lat="40.340677" lon="-7.298089">
        <ele>469.072</ele>
        <time>2010-01-01T00:39:55Z</time>
      </trkpt>
      <trkpt lat="40.340610" lon="-7.298427">
        <ele>468.020</ele>
        <time>2010-01-01T00:39:44Z</time>
      </trkpt>
      <trkpt lat="40.340644" lon="-7.298925">
        <ele>465.057</ele>
        <time>2010-01-01T00:39:29Z</time>
      </trkpt>
      <trkpt lat="40.340565" lon="-7.299202">
        <ele>465.036</ele>
        <time>2010-01-01T00:39:20Z</time>
      </trkpt>
      <trkpt lat="40.340667" lon="-7.299347">
        <ele>465.018</ele>
        <time>2010-01-01T00:39:14Z</time>
      </trkpt>
      <trkpt lat="40.340749" lon="-7.299595">
        <ele>464.048</ele>
        <time>2010-01-01T00:39:05Z</time>
      </trkpt>
      <trkpt lat="40.340601" lon="-7.300107">
        <ele>462.034</ele>
        <time>2010-01-01T00:38:49Z</time>
      </trkpt>
      <trkpt lat="40.340415" lon="-7.300524">
        <ele>462.055</ele>
        <time>2010-01-01T00:38:34Z</time>
      </trkpt>
      <trkpt lat="40.340222" lon="-7.300790">
        <ele>461.010</ele>
        <time>2010-01-01T00:38:23Z</time>
      </trkpt>
      <trkpt lat="40.339991" lon="-7.300971">
        <ele>460.008</ele>
        <time>2010-01-01T00:38:12Z</time>
      </trkpt>
      <trkpt lat="40.339719" lon="-7.301729">
        <ele>461.096</ele>
        <time>2010-01-01T00:37:46Z</time>
      </trkpt>
      <trkpt lat="40.339503" lon="-7.302431">
        <ele>461.099</ele>
        <time>2010-01-01T00:37:23Z</time>
      </trkpt>
      <trkpt lat="40.339476" lon="-7.303143">
        <ele>465.062</ele>
        <time>2010-01-01T00:37:01Z</time>
      </trkpt>
      <trkpt lat="40.339412" lon="-7.303307">
        <ele>466.060</ele>
        <time>2010-01-01T00:36:56Z</time>
      </trkpt>
      <trkpt lat="40.339434" lon="-7.303514">
        <ele>468.037</ele>
        <time>2010-01-01T00:36:50Z</time>
      </trkpt>
      <trkpt lat="40.339263" lon="-7.303722">
        <ele>469.076</ele>
        <time>2010-01-01T00:36:40Z</time>
      </trkpt>
      <trkpt lat="40.338933" lon="-7.304126">
        <ele>468.048</ele>
        <time>2010-01-01T00:36:22Z</time>
      </trkpt>
      <trkpt lat="40.338952" lon="-7.305039">
        <ele>466.058</ele>
        <time>2010-01-01T00:35:54Z</time>
      </trkpt>
      <trkpt lat="40.339011" lon="-7.305287">
        <ele>466.011</ele>
        <time>2010-01-01T00:35:46Z</time>
      </trkpt>
      <trkpt lat="40.338977" lon="-7.305475">
        <ele>465.021</ele>
        <time>2010-01-01T00:35:40Z</time>
      </trkpt>
      <trkpt lat="40.338994" lon="-7.305734">
        <ele>465.003</ele>
        <time>2010-01-01T00:35:32Z</time>
      </trkpt>
      <trkpt lat="40.339051" lon="-7.306195">
        <ele>466.008</ele>
        <time>2010-01-01T00:35:18Z</time>
      </trkpt>
      <trkpt lat="40.339023" lon="-7.306355">
        <ele>466.064</ele>
        <time>2010-01-01T00:35:13Z</time>
      </trkpt>
      <trkpt lat="40.338885" lon="-7.306651">
        <ele>466.087</ele>
        <time>2010-01-01T00:35:03Z</time>
      </trkpt>
      <trkpt lat="40.338786" lon="-7.306947">
        <ele>467.060</ele>
        <time>2010-01-01T00:34:53Z</time>
      </trkpt>
      <trkpt lat="40.338716" lon="-7.307367">
        <ele>467.068</ele>
        <time>2010-01-01T00:34:40Z</time>
      </trkpt>
      <trkpt lat="40.338673" lon="-7.307566">
        <ele>468.045</ele>
        <time>2010-01-01T00:34:33Z</time>
      </trkpt>
      <trkpt lat="40.338739" lon="-7.308050">
        <ele>472.044</ele>
        <time>2010-01-01T00:34:18Z</time>
      </trkpt>
      <trkpt lat="40.338668" lon="-7.308189">
        <ele>473.016</ele>
        <time>2010-01-01T00:34:13Z</time>
      </trkpt>
      <trkpt lat="40.338638" lon="-7.308457">
        <ele>475.096</ele>
        <time>2010-01-01T00:34:05Z</time>
      </trkpt>
      <trkpt lat="40.338660" lon="-7.308780">
        <ele>475.039</ele>
        <time>2010-01-01T00:33:55Z</time>
      </trkpt>
      <trkpt lat="40.338757" lon="-7.308915">
        <ele>475.001</ele>
        <time>2010-01-01T00:33:49Z</time>
      </trkpt>
      <trkpt lat="40.338912" lon="-7.308969">
        <ele>476.021</ele>
        <time>2010-01-01T00:33:43Z</time>
      </trkpt>
      <trkpt lat="40.338994" lon="-7.309034">
        <ele>476.008</ele>
        <time>2010-01-01T00:33:39Z</time>
      </trkpt>
      <trkpt lat="40.339005" lon="-7.309095">
        <ele>477.046</ele>
        <time>2010-01-01T00:33:37Z</time>
      </trkpt>
      <trkpt lat="40.338963" lon="-7.309478">
        <ele>479.039</ele>
        <time>2010-01-01T00:33:25Z</time>
      </trkpt>
      <trkpt lat="40.338887" lon="-7.309799">
        <ele>477.042</ele>
        <time>2010-01-01T00:33:15Z</time>
      </trkpt>
      <trkpt lat="40.338806" lon="-7.310049">
        <ele>476.060</ele>
        <time>2010-01-01T00:33:07Z</time>
      </trkpt>
      <trkpt lat="40.338828" lon="-7.310316">
        <ele>476.087</ele>
        <time>2010-01-01T00:32:59Z</time>
      </trkpt>
      <trkpt lat="40.338803" lon="-7.310670">
        <ele>476.066</ele>
        <time>2010-01-01T00:32:48Z</time>
      </trkpt>
      <trkpt lat="40.338842" lon="-7.311057">
        <ele>478.018</ele>
        <time>2010-01-01T00:32:36Z</time>
      </trkpt>
      <trkpt lat="40.338827" lon="-7.311474">
        <ele>476.028</ele>
        <time>2010-01-01T00:32:23Z</time>
      </trkpt>
      <trkpt lat="40.338858" lon="-7.311686">
        <ele>476.099</ele>
        <time>2010-01-01T00:32:17Z</time>
      </trkpt>
      <trkpt lat="40.338887" lon="-7.312185">
        <ele>480.007</ele>
        <time>2010-01-01T00:32:01Z</time>
      </trkpt>
      <trkpt lat="40.338887" lon="-7.312682">
        <ele>480.027</ele>
        <time>2010-01-01T00:31:46Z</time>
      </trkpt>
      <trkpt lat="40.338929" lon="-7.313393">
        <ele>481.008</ele>
        <time>2010-01-01T00:31:24Z</time>
      </trkpt>
      <trkpt lat="40.338985" lon="-7.313546">
        <ele>481.012</ele>
        <time>2010-01-01T00:31:19Z</time>
      </trkpt>
      <trkpt lat="40.338974" lon="-7.313741">
        <ele>482.035</ele>
        <time>2010-01-01T00:31:13Z</time>
      </trkpt>
      <trkpt lat="40.338872" lon="-7.314108">
        <ele>483.088</ele>
        <time>2010-01-01T00:31:01Z</time>
      </trkpt>
      <trkpt lat="40.338928" lon="-7.314435">
        <ele>482.096</ele>
        <time>2010-01-01T00:30:51Z</time>
      </trkpt>
      <trkpt lat="40.338859" lon="-7.315039">
        <ele>479.073</ele>
        <time>2010-01-01T00:30:32Z</time>
      </trkpt>
      <trkpt lat="40.338893" lon="-7.315176">
        <ele>479.052</ele>
        <time>2010-01-01T00:30:28Z</time>
      </trkpt>
      <trkpt lat="40.338921" lon="-7.315510">
        <ele>477.064</ele>
        <time>2010-01-01T00:30:18Z</time>
      </trkpt>
      <trkpt lat="40.338934" lon="-7.315940">
        <ele>477.044</ele>
        <time>2010-01-01T00:30:05Z</time>
      </trkpt>
      <trkpt lat="40.338811" lon="-7.316490">
        <ele>475.054</ele>
        <time>2010-01-01T00:29:47Z</time>
      </trkpt>
      <trkpt lat="40.338883" lon="-7.316722">
        <ele>473.056</ele>
        <time>2010-01-01T00:29:40Z</time>
      </trkpt>
      <trkpt lat="40.338843" lon="-7.316923">
        <ele>473.011</ele>
        <time>2010-01-01T00:29:33Z</time>
      </trkpt>
      <trkpt lat="40.339078" lon="-7.317239">
        <ele>469.008</ele>
        <time>2010-01-01T00:29:20Z</time>
      </trkpt>
      <trkpt lat="40.339410" lon="-7.317803">
        <ele>466.048</ele>
        <time>2010-01-01T00:28:58Z</time>
      </trkpt>
      <trkpt lat="40.339621" lon="-7.318168">
        <ele>464.091</ele>
        <time>2010-01-01T00:28:44Z</time>
      </trkpt>
      <trkpt lat="40.339627" lon="-7.318391">
        <ele>464.054</ele>
        <time>2010-01-01T00:28:37Z</time>
      </trkpt>
      <trkpt lat="40.339911" lon="-7.319172">
        <ele>462.022</ele>
        <time>2010-01-01T00:28:11Z</time>
      </trkpt>
      <trkpt lat="40.339912" lon="-7.319395">
        <ele>463.079</ele>
        <time>2010-01-01T00:28:04Z</time>
      </trkpt>
      <trkpt lat="40.340157" lon="-7.319919">
        <ele>459.078</ele>
        <time>2010-01-01T00:27:45Z</time>
      </trkpt>
      <trkpt lat="40.340741" lon="-7.321438">
        <ele>459.050</ele>
        <time>2010-01-01T00:26:53Z</time>
      </trkpt>
      <trkpt lat="40.341170" lon="-7.322624">
        <ele>457.090</ele>
        <time>2010-01-01T00:26:13Z</time>
      </trkpt>
      <trkpt lat="40.341305" lon="-7.323251">
        <ele>456.077</ele>
        <time>2010-01-01T00:25:53Z</time>
      </trkpt>
      <trkpt lat="40.341469" lon="-7.323640">
        <ele>457.061</ele>
        <time>2010-01-01T00:25:40Z</time>
      </trkpt>
      <trkpt lat="40.341818" lon="-7.324224">
        <ele>458.027</ele>
        <time>2010-01-01T00:25:17Z</time>
      </trkpt>
      <trkpt lat="40.342077" lon="-7.324441">
        <ele>459.008</ele>
        <time>2010-01-01T00:25:05Z</time>
      </trkpt>
      <trkpt lat="40.342964" lon="-7.325017">
        <ele>463.010</ele>
        <time>2010-01-01T00:24:25Z</time>
      </trkpt>
      <trkpt lat="40.343305" lon="-7.325232">
        <ele>463.033</ele>
        <time>2010-01-01T00:24:10Z</time>
      </trkpt>
      <trkpt lat="40.343615" lon="-7.325312">
        <ele>464.086</ele>
        <time>2010-01-01T00:23:57Z</time>
      </trkpt>
      <trkpt lat="40.343954" lon="-7.325425">
        <ele>465.034</ele>
        <time>2010-01-01T00:23:44Z</time>
      </trkpt>
      <trkpt lat="40.344197" lon="-7.325560">
        <ele>465.071</ele>
        <time>2010-01-01T00:23:33Z</time>
      </trkpt>
      <trkpt lat="40.344333" lon="-7.325384">
        <ele>464.090</ele>
        <time>2010-01-01T00:23:25Z</time>
      </trkpt>
      <trkpt lat="40.344513" lon="-7.325288">
        <ele>463.022</ele>
        <time>2010-01-01T00:23:18Z</time>
      </trkpt>
      <trkpt lat="40.344862" lon="-7.326092">
        <ele>463.052</ele>
        <time>2010-01-01T00:22:49Z</time>
      </trkpt>
      <trkpt lat="40.345179" lon="-7.326884">
        <ele>462.069</ele>
        <time>2010-01-01T00:22:22Z</time>
      </trkpt>
      <trkpt lat="40.345130" lon="-7.327157">
        <ele>463.004</ele>
        <time>2010-01-01T00:22:13Z</time>
      </trkpt>
      <trkpt lat="40.345025" lon="-7.327510">
        <ele>467.024</ele>
        <time>2010-01-01T00:22:02Z</time>
      </trkpt>
      <trkpt lat="40.344972" lon="-7.327796">
        <ele>470.008</ele>
        <time>2010-01-01T00:21:53Z</time>
      </trkpt>
      <trkpt lat="40.344998" lon="-7.328127">
        <ele>471.069</ele>
        <time>2010-01-01T00:21:43Z</time>
      </trkpt>
      <trkpt lat="40.345189" lon="-7.328506">
        <ele>471.052</ele>
        <time>2010-01-01T00:21:29Z</time>
      </trkpt>
      <trkpt lat="40.345381" lon="-7.328914">
        <ele>471.035</ele>
        <time>2010-01-01T00:21:14Z</time>
      </trkpt>
      <trkpt lat="40.345745" lon="-7.329452">
        <ele>470.093</ele>
        <time>2010-01-01T00:20:52Z</time>
      </trkpt>
      <trkpt lat="40.345864" lon="-7.329612">
        <ele>470.020</ele>
        <time>2010-01-01T00:20:46Z</time>
      </trkpt>
      <trkpt lat="40.345987" lon="-7.330157">
        <ele>471.019</ele>
        <time>2010-01-01T00:20:28Z</time>
      </trkpt>
      <trkpt lat="40.346113" lon="-7.330481">
        <ele>471.011</ele>
        <time>2010-01-01T00:20:17Z</time>
      </trkpt>
      <trkpt lat="40.346259" lon="-7.330573">
        <ele>470.071</ele>
        <time>2010-01-01T00:20:11Z</time>
      </trkpt>
      <trkpt lat="40.346373" lon="-7.330854">
        <ele>471.053</ele>
        <time>2010-01-01T00:20:01Z</time>
      </trkpt>
      <trkpt lat="40.346530" lon="-7.331219">
        <ele>471.004</ele>
        <time>2010-01-01T00:19:48Z</time>
      </trkpt>
      <trkpt lat="40.346821" lon="-7.331635">
        <ele>471.014</ele>
        <time>2010-01-01T00:19:31Z</time>
      </trkpt>
      <trkpt lat="40.347107" lon="-7.332007">
        <ele>472.008</ele>
        <time>2010-01-01T00:19:15Z</time>
      </trkpt>
      <trkpt lat="40.347278" lon="-7.332221">
        <ele>472.058</ele>
        <time>2010-01-01T00:19:05Z</time>
      </trkpt>
      <trkpt lat="40.347559" lon="-7.332456">
        <ele>475.031</ele>
        <time>2010-01-01T00:18:52Z</time>
      </trkpt>
      <trkpt lat="40.347732" lon="-7.332715">
        <ele>478.084</ele>
        <time>2010-01-01T00:18:41Z</time>
      </trkpt>
      <trkpt lat="40.347803" lon="-7.332997">
        <ele>480.042</ele>
        <time>2010-01-01T00:18:32Z</time>
      </trkpt>
      <trkpt lat="40.347984" lon="-7.333164">
        <ele>482.069</ele>
        <time>2010-01-01T00:18:23Z</time>
      </trkpt>
      <trkpt lat="40.348105" lon="-7.333404">
        <ele>483.028</ele>
        <time>2010-01-01T00:18:15Z</time>
      </trkpt>
      <trkpt lat="40.348225" lon="-7.333812">
        <ele>484.090</ele>
        <time>2010-01-01T00:18:01Z</time>
      </trkpt>
      <trkpt lat="40.348248" lon="-7.334180">
        <ele>485.070</ele>
        <time>2010-01-01T00:17:50Z</time>
      </trkpt>
      <trkpt lat="40.348228" lon="-7.334287">
        <ele>485.048</ele>
        <time>2010-01-01T00:17:47Z</time>
      </trkpt>
      <trkpt lat="40.347152" lon="-7.334817">
        <ele>487.061</ele>
        <time>2010-01-01T00:17:01Z</time>
      </trkpt>
      <trkpt lat="40.347064" lon="-7.334942">
        <ele>487.017</ele>
        <time>2010-01-01T00:16:56Z</time>
      </trkpt>
      <trkpt lat="40.347689" lon="-7.335020">
        <ele>491.008</ele>
        <time>2010-01-01T00:16:30Z</time>
      </trkpt>
      <trkpt lat="40.348139" lon="-7.335100">
        <ele>491.087</ele>
        <time>2010-01-01T00:16:12Z</time>
      </trkpt>
      <trkpt lat="40.348415" lon="-7.335178">
        <ele>492.090</ele>
        <time>2010-01-01T00:16:01Z</time>
      </trkpt>
      <trkpt lat="40.348833" lon="-7.335495">
        <ele>488.043</ele>
        <time>2010-01-01T00:15:42Z</time>
      </trkpt>
      <trkpt lat="40.349594" lon="-7.336228">
        <ele>481.051</ele>
        <time>2010-01-01T00:15:04Z</time>
      </trkpt>
      <trkpt lat="40.350277" lon="-7.336875">
        <ele>475.068</ele>
        <time>2010-01-01T00:14:30Z</time>
      </trkpt>
      <trkpt lat="40.350562" lon="-7.337072">
        <ele>475.037</ele>
        <time>2010-01-01T00:14:17Z</time>
      </trkpt>
      <trkpt lat="40.350688" lon="-7.337059">
        <ele>475.059</ele>
        <time>2010-01-01T00:14:12Z</time>
      </trkpt>
      <trkpt lat="40.351111" lon="-7.336805">
        <ele>476.099</ele>
        <time>2010-01-01T00:13:54Z</time>
      </trkpt>
      <trkpt lat="40.351925" lon="-7.336215">
        <ele>476.012</ele>
        <time>2010-01-01T00:13:16Z</time>
      </trkpt>
      <trkpt lat="40.352824" lon="-7.335499">
        <ele>487.032</ele>
        <time>2010-01-01T00:12:34Z</time>
      </trkpt>
      <trkpt lat="40.353068" lon="-7.335399">
        <ele>490.005</ele>
        <time>2010-01-01T00:12:24Z</time>
      </trkpt>
      <trkpt lat="40.354042" lon="-7.335596">
        <ele>491.008</ele>
        <time>2010-01-01T00:11:45Z</time>
      </trkpt>
      <trkpt lat="40.354447" lon="-7.335814">
        <ele>494.064</ele>
        <time>2010-01-01T00:11:27Z</time>
      </trkpt>
      <trkpt lat="40.355456" lon="-7.336159">
        <ele>492.037</ele>
        <time>2010-01-01T00:10:45Z</time>
      </trkpt>
      <trkpt lat="40.356248" lon="-7.337183">
        <ele>488.020</ele>
        <time>2010-01-01T00:10:01Z</time>
      </trkpt>
      <trkpt lat="40.356853" lon="-7.337577">
        <ele>489.018</ele>
        <time>2010-01-01T00:09:34Z</time>
      </trkpt>
      <trkpt lat="40.358276" lon="-7.337724">
        <ele>493.015</ele>
        <time>2010-01-01T00:08:37Z</time>
      </trkpt>
      <trkpt lat="40.358418" lon="-7.338554">
        <ele>493.014</ele>
        <time>2010-01-01T00:08:11Z</time>
      </trkpt>
      <trkpt lat="40.358169" lon="-7.338825">
        <ele>493.046</ele>
        <time>2010-01-01T00:07:58Z</time>
      </trkpt>
      <trkpt lat="40.358013" lon="-7.339176">
        <ele>493.026</ele>
        <time>2010-01-01T00:07:45Z</time>
      </trkpt>
      <trkpt lat="40.357888" lon="-7.339289">
        <ele>493.036</ele>
        <time>2010-01-01T00:07:39Z</time>
      </trkpt>
      <trkpt lat="40.357598" lon="-7.339315">
        <ele>492.017</ele>
        <time>2010-01-01T00:07:28Z</time>
      </trkpt>
      <trkpt lat="40.357423" lon="-7.339406">
        <ele>492.018</ele>
        <time>2010-01-01T00:07:20Z</time>
      </trkpt>
      <trkpt lat="40.357154" lon="-7.340004">
        <ele>492.008</ele>
        <time>2010-01-01T00:06:59Z</time>
      </trkpt>
      <trkpt lat="40.357102" lon="-7.340666">
        <ele>495.046</ele>
        <time>2010-01-01T00:06:39Z</time>
      </trkpt>
      <trkpt lat="40.357391" lon="-7.341343">
        <ele>501.029</ele>
        <time>2010-01-01T00:06:15Z</time>
      </trkpt>
      <trkpt lat="40.357489" lon="-7.341628">
        <ele>504.052</ele>
        <time>2010-01-01T00:06:05Z</time>
      </trkpt>
      <trkpt lat="40.357542" lon="-7.341880">
        <ele>507.020</ele>
        <time>2010-01-01T00:05:57Z</time>
      </trkpt>
      <trkpt lat="40.357644" lon="-7.342239">
        <ele>512.027</ele>
        <time>2010-01-01T00:05:46Z</time>
      </trkpt>
      <trkpt lat="40.357863" lon="-7.342720">
        <ele>517.026</ele>
        <time>2010-01-01T00:05:29Z</time>
      </trkpt>
      <trkpt lat="40.357997" lon="-7.343201">
        <ele>524.078</ele>
        <time>2010-01-01T00:05:13Z</time>
      </trkpt>
      <trkpt lat="40.358156" lon="-7.343485">
        <ele>530.038</ele>
        <time>2010-01-01T00:05:02Z</time>
      </trkpt>
      <trkpt lat="40.358366" lon="-7.344289">
        <ele>542.053</ele>
        <time>2010-01-01T00:04:36Z</time>
      </trkpt>
      <trkpt lat="40.358571" lon="-7.345112">
        <ele>549.004</ele>
        <time>2010-01-01T00:04:10Z</time>
      </trkpt>
      <trkpt lat="40.358549" lon="-7.345321">
        <ele>551.014</ele>
        <time>2010-01-01T00:04:03Z</time>
      </trkpt>
      <trkpt lat="40.358207" lon="-7.345951">
        <ele>555.008</ele>
        <time>2010-01-01T00:03:40Z</time>
      </trkpt>
      <trkpt lat="40.357717" lon="-7.346321">
        <ele>556.038</ele>
        <time>2010-01-01T00:03:17Z</time>
      </trkpt>
      <trkpt lat="40.357728" lon="-7.346378">
        <ele>557.061</ele>
        <time>2010-01-01T00:03:15Z</time>
      </trkpt>
      <trkpt lat="40.357805" lon="-7.346427">
        <ele>558.024</ele>
        <time>2010-01-01T00:03:12Z</time>
      </trkpt>
      <trkpt lat="40.358017" lon="-7.346445">
        <ele>560.062</ele>
        <time>2010-01-01T00:03:04Z</time>
      </trkpt>
      <trkpt lat="40.358178" lon="-7.346527">
        <ele>563.059</ele>
        <time>2010-01-01T00:02:57Z</time>
      </trkpt>
      <trkpt lat="40.358868" lon="-7.346595">
        <ele>574.098</ele>
        <time>2010-01-01T00:02:29Z</time>
      </trkpt>
      <trkpt lat="40.359209" lon="-7.346610">
        <ele>578.090</ele>
        <time>2010-01-01T00:02:15Z</time>
      </trkpt>
      <trkpt lat="40.359451" lon="-7.346605">
        <ele>581.030</ele>
        <time>2010-01-01T00:02:06Z</time>
      </trkpt>
      <trkpt lat="40.359927" lon="-7.346341">
        <ele>575.034</ele>
        <time>2010-01-01T00:01:45Z</time>
      </trkpt>
      <trkpt lat="40.359980" lon="-7.346519">
        <ele>579.055</ele>
        <time>2010-01-01T00:01:39Z</time>
      </trkpt>
      <trkpt lat="40.359533" lon="-7.346929">
        <ele>588.010</ele>
        <time>2010-01-01T00:01:17Z</time>
      </trkpt>
      <trkpt lat="40.359203" lon="-7.347242">
        <ele>592.008</ele>
        <time>2010-01-01T00:01:01Z</time>
      </trkpt>
      <trkpt lat="40.359054" lon="-7.347420">
        <ele>595.056</ele>
        <time>2010-01-01T00:00:53Z</time>
      </trkpt>
      <trkpt lat="40.358860" lon="-7.347513">
        <ele>595.079</ele>
        <time>2010-01-01T00:00:45Z</time>
      </trkpt>
      <trkpt lat="40.358708" lon="-7.347617">
        <ele>595.052</ele>
        <time>2010-01-01T00:00:38Z</time>
      </trkpt>
      <trkpt lat="40.358763" lon="-7.347713">
        <ele>596.080</ele>
        <time>2010-01-01T00:00:34Z</time>
      </trkpt>
      <trkpt lat="40.358758" lon="-7.347763">
        <ele>596.087</ele>
        <time>2010-01-01T00:00:33Z</time>
      </trkpt>
      <trkpt lat="40.358822" lon="-7.347869">
        <ele>598.076</ele>
        <time>2010-01-01T00:00:28Z</time>
      </trkpt>
      <trkpt lat="40.358871" lon="-7.347866">
        <ele>599.068</ele>
        <time>2010-01-01T00:00:26Z</time>
      </trkpt>
      <trkpt lat="40.358906" lon="-7.347961">
        <ele>600.068</ele>
        <time>2010-01-01T00:00:23Z</time>
      </trkpt>
      <trkpt lat="40.358879" lon="-7.348184">
        <ele>603.068</ele>
        <time>2010-01-01T00:00:16Z</time>
      </trkpt>
      <trkpt lat="40.358903" lon="-7.348368">
        <ele>605.042</ele>
        <time>2010-01-01T00:00:11Z</time>
      </trkpt>
      <trkpt lat="40.358961" lon="-7.348536">
        <ele>606.026</ele>
        <time>2010-01-01T00:00:05Z</time>
      </trkpt>
      <trkpt lat="40.359022" lon="-7.348700">
        <ele>606.008</ele>
        <time>2010-01-01T00:00:00Z</time>
      </trkpt>
    </trkseg>
  </trk>
</gpx>
